<?xml version='1.0' encoding='UTF-8'?><gpx version="1.1" creator="JPX - https://github.com/jenetics/jpx" xmlns="http://www.topografix.com/GPX/1/1"><trk><trkseg><trkpt lat="45.0402417" lon="7.6611483"><ele>245.00000000000003</ele><time>2026-05-01T10:14:29.352Z</time></trkpt><trkpt lat="45.0401383" lon="7.661095"><ele>245.0</ele><time>2026-05-01T10:14:31.35Z</time></trkpt><trkpt lat="45.040075" lon="7.6610567"><ele>245.0</ele><time>2026-05-01T10:14:32.353Z</time></trkpt><trkpt lat="45.0400033" lon="7.661015"><ele>245.0</ele><time>2026-05-01T10:14:33.35Z</time></trkpt><trkpt lat="45.0399267" lon="7.6609633"><ele>245.00000000000003</ele><time>2026-05-01T10:14:34.352Z</time></trkpt><trkpt lat="45.0398333" lon="7.6609033"><ele>245.0</ele><time>2026-05-01T10:14:35.351Z</time></trkpt><trkpt lat="45.0397383" lon="7.6608483"><ele>245.0</ele><time>2026-05-01T10:14:36.352Z</time></trkpt><trkpt lat="45.0396533" lon="7.6607983"><ele>245.0</ele><time>2026-05-01T10:14:37.351Z</time></trkpt><trkpt lat="45.0395667" lon="7.6607467"><ele>245.0</ele><time>2026-05-01T10:14:38.353Z</time></trkpt><trkpt lat="45.0394783" lon="7.6606933"><ele>245.0</ele><time>2026-05-01T10:14:39.354Z</time></trkpt><trkpt lat="45.0393883" lon="7.6606367"><ele>245.0</ele><time>2026-05-01T10:14:40.357Z</time></trkpt><trkpt lat="45.0392967" lon="7.66058"><ele>245.0</ele><time>2026-05-01T10:14:41.352Z</time></trkpt><trkpt lat="45.0392017" lon="7.6605217"><ele>245.0</ele><time>2026-05-01T10:14:42.357Z</time></trkpt><trkpt lat="45.0391017" lon="7.66046"><ele>245.0</ele><time>2026-05-01T10:14:43.355Z</time></trkpt><trkpt lat="45.0390017" lon="7.6603933"><ele>245.0</ele><time>2026-05-01T10:14:44.356Z</time></trkpt><trkpt lat="45.0389" lon="7.660325"><ele>245.0</ele><time>2026-05-01T10:14:45.354Z</time></trkpt><trkpt lat="45.0387967" lon="7.6602483"><ele>244.25</ele><time>2026-05-01T10:14:46.357Z</time></trkpt><trkpt lat="45.038695" lon="7.66018"><ele>243.5</ele><time>2026-05-01T10:14:47.351Z</time></trkpt><trkpt lat="45.0385917" lon="7.6601117"><ele>242.75</ele><time>2026-05-01T10:14:48.355Z</time></trkpt><trkpt lat="45.03849" lon="7.6600433"><ele>242.0</ele><time>2026-05-01T10:14:49.355Z</time></trkpt><trkpt lat="45.038385" lon="7.6599767"><ele>241.25</ele><time>2026-05-01T10:14:50.354Z</time></trkpt><trkpt lat="45.038285" lon="7.659905"><ele>240.5</ele><time>2026-05-01T10:14:51.352Z</time></trkpt><trkpt lat="45.0381867" lon="7.6598317"><ele>239.75</ele><time>2026-05-01T10:14:52.354Z</time></trkpt><trkpt lat="45.038085" lon="7.6597633"><ele>239.0</ele><time>2026-05-01T10:14:53.357Z</time></trkpt><trkpt lat="45.03798" lon="7.6596917"><ele>239.0</ele><time>2026-05-01T10:14:54.353Z</time></trkpt><trkpt lat="45.037875" lon="7.6596117"><ele>239.0</ele><time>2026-05-01T10:14:55.355Z</time></trkpt><trkpt lat="45.0377633" lon="7.6595317"><ele>239.0</ele><time>2026-05-01T10:14:56.357Z</time></trkpt><trkpt lat="45.037645" lon="7.6594483"><ele>239.0</ele><time>2026-05-01T10:14:57.355Z</time></trkpt><trkpt lat="45.0375217" lon="7.65936"><ele>239.25</ele><time>2026-05-01T10:14:58.355Z</time></trkpt><trkpt lat="45.0373967" lon="7.6592717"><ele>239.5</ele><time>2026-05-01T10:14:59.353Z</time></trkpt><trkpt lat="45.03727" lon="7.6591867"><ele>239.75</ele><time>2026-05-01T10:15:00.351Z</time></trkpt><trkpt lat="45.0371433" lon="7.65911"><ele>240.0</ele><time>2026-05-01T10:15:01.351Z</time></trkpt><trkpt lat="45.03702" lon="7.6590333"><ele>240.0</ele><time>2026-05-01T10:15:02.35Z</time></trkpt><trkpt lat="45.0369033" lon="7.6589633"><ele>240.0</ele><time>2026-05-01T10:15:03.35Z</time></trkpt><trkpt lat="45.0367933" lon="7.6588983"><ele>240.0</ele><time>2026-05-01T10:15:04.353Z</time></trkpt><trkpt lat="45.036685" lon="7.658835"><ele>240.0</ele><time>2026-05-01T10:15:05.351Z</time></trkpt><trkpt lat="45.0365717" lon="7.6587717"><ele>240.5</ele><time>2026-05-01T10:15:06.354Z</time></trkpt><trkpt lat="45.0364683" lon="7.6587133"><ele>241.0</ele><time>2026-05-01T10:15:07.354Z</time></trkpt><trkpt lat="45.0363617" lon="7.6586517"><ele>241.5</ele><time>2026-05-01T10:15:08.352Z</time></trkpt><trkpt lat="45.0362567" lon="7.6585933"><ele>242.0</ele><time>2026-05-01T10:15:09.352Z</time></trkpt><trkpt lat="45.0361517" lon="7.6585333"><ele>241.8</ele><time>2026-05-01T10:15:10.351Z</time></trkpt><trkpt lat="45.0360517" lon="7.6584717"><ele>241.6</ele><time>2026-05-01T10:15:11.349Z</time></trkpt><trkpt lat="45.0359483" lon="7.65843"><ele>241.40000000000003</ele><time>2026-05-01T10:15:12.355Z</time></trkpt><trkpt lat="45.03585" lon="7.658375"><ele>241.20000000000002</ele><time>2026-05-01T10:15:13.35Z</time></trkpt><trkpt lat="45.0357517" lon="7.6583183"><ele>241.0</ele><time>2026-05-01T10:15:14.355Z</time></trkpt><trkpt lat="45.0356583" lon="7.6582633"><ele>241.0</ele><time>2026-05-01T10:15:15.354Z</time></trkpt><trkpt lat="45.0355567" lon="7.6582183"><ele>241.00000000000003</ele><time>2026-05-01T10:15:16.353Z</time></trkpt><trkpt lat="45.035455" lon="7.6581683"><ele>241.00000000000003</ele><time>2026-05-01T10:15:17.353Z</time></trkpt><trkpt lat="45.03535" lon="7.6581183"><ele>241.0</ele><time>2026-05-01T10:15:18.352Z</time></trkpt><trkpt lat="45.0352517" lon="7.658065"><ele>241.0</ele><time>2026-05-01T10:15:19.354Z</time></trkpt><trkpt lat="45.035155" lon="7.6580117"><ele>241.0</ele><time>2026-05-01T10:15:20.35Z</time></trkpt><trkpt lat="45.0350567" lon="7.6579567"><ele>241.00000000000003</ele><time>2026-05-01T10:15:21.351Z</time></trkpt><trkpt lat="45.0349583" lon="7.6579"><ele>241.00000000000003</ele><time>2026-05-01T10:15:22.352Z</time></trkpt><trkpt lat="45.0348567" lon="7.6578433"><ele>241.0</ele><time>2026-05-01T10:15:23.354Z</time></trkpt><trkpt lat="45.0347533" lon="7.6577867"><ele>241.0</ele><time>2026-05-01T10:15:24.352Z</time></trkpt><trkpt lat="45.0346517" lon="7.6577367"><ele>241.60000000000002</ele><time>2026-05-01T10:15:25.353Z</time></trkpt><trkpt lat="45.0345517" lon="7.657685"><ele>242.20000000000002</ele><time>2026-05-01T10:15:26.351Z</time></trkpt><trkpt lat="45.0344533" lon="7.6576317"><ele>242.79999999999998</ele><time>2026-05-01T10:15:27.353Z</time></trkpt><trkpt lat="45.03436" lon="7.6575767"><ele>243.39999999999998</ele><time>2026-05-01T10:15:28.354Z</time></trkpt><trkpt lat="45.03427" lon="7.6575267"><ele>244.0</ele><time>2026-05-01T10:15:29.35Z</time></trkpt><trkpt lat="45.0341817" lon="7.657475"><ele>243.33333333333331</ele><time>2026-05-01T10:15:30.351Z</time></trkpt><trkpt lat="45.0340983" lon="7.6574233"><ele>242.66666666666666</ele><time>2026-05-01T10:15:31.352Z</time></trkpt><trkpt lat="45.0340167" lon="7.65738"><ele>242.0</ele><time>2026-05-01T10:15:32.353Z</time></trkpt><trkpt lat="45.0339467" lon="7.6573367"><ele>241.33333333333331</ele><time>2026-05-01T10:15:33.355Z</time></trkpt><trkpt lat="45.033875" lon="7.6572967"><ele>240.66666666666666</ele><time>2026-05-01T10:15:34.351Z</time></trkpt><trkpt lat="45.0338033" lon="7.6572567"><ele>240.0</ele><time>2026-05-01T10:15:35.351Z</time></trkpt><trkpt lat="45.03373" lon="7.6572133"><ele>240.0</ele><time>2026-05-01T10:15:36.353Z</time></trkpt><trkpt lat="45.0336533" lon="7.6571667"><ele>240.0</ele><time>2026-05-01T10:15:37.354Z</time></trkpt><trkpt lat="45.0335833" lon="7.6571217"><ele>240.0</ele><time>2026-05-01T10:15:38.349Z</time></trkpt><trkpt lat="45.033515" lon="7.6570833"><ele>240.0</ele><time>2026-05-01T10:15:39.353Z</time></trkpt><trkpt lat="45.0334583" lon="7.65703"><ele>240.0</ele><time>2026-05-01T10:15:40.35Z</time></trkpt><trkpt lat="45.0334033" lon="7.65698"><ele>240.0</ele><time>2026-05-01T10:15:41.349Z</time></trkpt><trkpt lat="45.0333167" lon="7.6569083"><ele>240.0</ele><time>2026-05-01T10:15:43.352Z</time></trkpt><trkpt lat="45.0332633" lon="7.656855"><ele>240.0</ele><time>2026-05-01T10:15:46.351Z</time></trkpt><trkpt lat="45.0331933" lon="7.656805"><ele>240.0</ele><time>2026-05-01T10:15:49.351Z</time></trkpt><trkpt lat="45.03311" lon="7.6567833"><ele>240.0</ele><time>2026-05-01T10:15:51.353Z</time></trkpt><trkpt lat="45.0330383" lon="7.6567283"><ele>240.0</ele><time>2026-05-01T10:15:53.351Z</time></trkpt><trkpt lat="45.03295" lon="7.6566867"><ele>240.0</ele><time>2026-05-01T10:15:55.353Z</time></trkpt><trkpt lat="45.0328267" lon="7.6566167"><ele>240.0</ele><time>2026-05-01T10:15:57.351Z</time></trkpt><trkpt lat="45.0327533" lon="7.6565767"><ele>240.0</ele><time>2026-05-01T10:15:58.351Z</time></trkpt><trkpt lat="45.0326817" lon="7.6565333"><ele>240.0</ele><time>2026-05-01T10:15:59.354Z</time></trkpt><trkpt lat="45.0326033" lon="7.65651"><ele>240.0</ele><time>2026-05-01T10:16:00.351Z</time></trkpt><trkpt lat="45.032525" lon="7.6564767"><ele>240.0</ele><time>2026-05-01T10:16:01.354Z</time></trkpt><trkpt lat="45.032445" lon="7.6564383"><ele>240.0</ele><time>2026-05-01T10:16:02.354Z</time></trkpt><trkpt lat="45.032365" lon="7.6564"><ele>240.33333333333334</ele><time>2026-05-01T10:16:03.351Z</time></trkpt><trkpt lat="45.0322833" lon="7.6563633"><ele>240.66666666666669</ele><time>2026-05-01T10:16:04.355Z</time></trkpt><trkpt lat="45.032205" lon="7.6563233"><ele>241.0</ele><time>2026-05-01T10:16:05.351Z</time></trkpt><trkpt lat="45.0321317" lon="7.6562817"><ele>241.33333333333334</ele><time>2026-05-01T10:16:06.351Z</time></trkpt><trkpt lat="45.0320517" lon="7.6562417"><ele>241.66666666666669</ele><time>2026-05-01T10:16:07.353Z</time></trkpt><trkpt lat="45.0319717" lon="7.6562033"><ele>242.0</ele><time>2026-05-01T10:16:08.354Z</time></trkpt><trkpt lat="45.0318883" lon="7.6561617"><ele>241.83333333333334</ele><time>2026-05-01T10:16:09.355Z</time></trkpt><trkpt lat="45.0318" lon="7.656115"><ele>241.66666666666669</ele><time>2026-05-01T10:16:10.353Z</time></trkpt><trkpt lat="45.0317167" lon="7.6560667"><ele>241.5</ele><time>2026-05-01T10:16:11.356Z</time></trkpt><trkpt lat="45.03164" lon="7.6560133"><ele>241.33333333333331</ele><time>2026-05-01T10:16:12.354Z</time></trkpt><trkpt lat="45.031565" lon="7.6559633"><ele>241.16666666666666</ele><time>2026-05-01T10:16:13.357Z</time></trkpt><trkpt lat="45.0314917" lon="7.65591"><ele>241.0</ele><time>2026-05-01T10:16:14.352Z</time></trkpt><trkpt lat="45.03141" lon="7.655865"><ele>241.0</ele><time>2026-05-01T10:16:15.355Z</time></trkpt><trkpt lat="45.0313167" lon="7.65582"><ele>241.0</ele><time>2026-05-01T10:16:16.351Z</time></trkpt><trkpt lat="45.0312117" lon="7.6557667"><ele>241.0</ele><time>2026-05-01T10:16:17.358Z</time></trkpt><trkpt lat="45.0310917" lon="7.6557033"><ele>241.0</ele><time>2026-05-01T10:16:18.353Z</time></trkpt><trkpt lat="45.0309583" lon="7.6556333"><ele>241.0</ele><time>2026-05-01T10:16:19.352Z</time></trkpt><trkpt lat="45.030825" lon="7.6555417"><ele>241.0</ele><time>2026-05-01T10:16:20.36Z</time></trkpt><trkpt lat="45.0306817" lon="7.65546"><ele>241.0</ele><time>2026-05-01T10:16:21.352Z</time></trkpt><trkpt lat="45.0305433" lon="7.65536"><ele>240.0</ele><time>2026-05-01T10:16:22.35Z</time></trkpt><trkpt lat="45.0304" lon="7.65526"><ele>239.0</ele><time>2026-05-01T10:16:23.353Z</time></trkpt><trkpt lat="45.03025" lon="7.6551667"><ele>238.0</ele><time>2026-05-01T10:16:24.352Z</time></trkpt><trkpt lat="45.0301" lon="7.6550717"><ele>238.33333333333331</ele><time>2026-05-01T10:16:25.352Z</time></trkpt><trkpt lat="45.0299433" lon="7.6549783"><ele>238.66666666666669</ele><time>2026-05-01T10:16:26.352Z</time></trkpt><trkpt lat="45.0297867" lon="7.6548867"><ele>239.0</ele><time>2026-05-01T10:16:27.356Z</time></trkpt><trkpt lat="45.0296333" lon="7.6548017"><ele>239.0</ele><time>2026-05-01T10:16:28.355Z</time></trkpt><trkpt lat="45.02948" lon="7.65471"><ele>239.0</ele><time>2026-05-01T10:16:29.351Z</time></trkpt><trkpt lat="45.02933" lon="7.65462"><ele>239.0</ele><time>2026-05-01T10:16:30.355Z</time></trkpt><trkpt lat="45.0291867" lon="7.6545333"><ele>239.0</ele><time>2026-05-01T10:16:31.353Z</time></trkpt><trkpt lat="45.0290483" lon="7.6544517"><ele>239.0</ele><time>2026-05-01T10:16:32.354Z</time></trkpt><trkpt lat="45.028915" lon="7.6543733"><ele>239.0</ele><time>2026-05-01T10:16:33.356Z</time></trkpt><trkpt lat="45.0287883" lon="7.6543"><ele>239.0</ele><time>2026-05-01T10:16:34.356Z</time></trkpt><trkpt lat="45.0286683" lon="7.65423"><ele>239.0</ele><time>2026-05-01T10:16:35.355Z</time></trkpt><trkpt lat="45.0285533" lon="7.6541633"><ele>238.99999999999997</ele><time>2026-05-01T10:16:36.354Z</time></trkpt><trkpt lat="45.0284467" lon="7.6541017"><ele>238.99999999999997</ele><time>2026-05-01T10:16:37.353Z</time></trkpt><trkpt lat="45.02835" lon="7.654045"><ele>239.0</ele><time>2026-05-01T10:16:38.353Z</time></trkpt><trkpt lat="45.0282583" lon="7.6539933"><ele>239.0</ele><time>2026-05-01T10:16:39.354Z</time></trkpt><trkpt lat="45.0281717" lon="7.6539483"><ele>239.00000000000003</ele><time>2026-05-01T10:16:40.355Z</time></trkpt><trkpt lat="45.0280967" lon="7.6539067"><ele>239.0</ele><time>2026-05-01T10:16:41.353Z</time></trkpt><trkpt lat="45.02803" lon="7.65387"><ele>239.0</ele><time>2026-05-01T10:16:42.352Z</time></trkpt><trkpt lat="45.027925" lon="7.6538167"><ele>239.0</ele><time>2026-05-01T10:16:44.353Z</time></trkpt><trkpt lat="45.0278617" lon="7.65379"><ele>239.00000000000003</ele><time>2026-05-01T10:16:52.35Z</time></trkpt><trkpt lat="45.0277967" lon="7.653755"><ele>239.0</ele><time>2026-05-01T10:16:53.352Z</time></trkpt><trkpt lat="45.0277067" lon="7.6537117"><ele>239.0</ele><time>2026-05-01T10:16:54.352Z</time></trkpt><trkpt lat="45.0276133" lon="7.6536667"><ele>238.99999999999997</ele><time>2026-05-01T10:16:55.356Z</time></trkpt><trkpt lat="45.0275167" lon="7.6536167"><ele>238.99999999999997</ele><time>2026-05-01T10:16:56.353Z</time></trkpt><trkpt lat="45.0274167" lon="7.6535617"><ele>239.0</ele><time>2026-05-01T10:16:57.353Z</time></trkpt><trkpt lat="45.0273017" lon="7.6535017"><ele>239.0</ele><time>2026-05-01T10:16:58.354Z</time></trkpt><trkpt lat="45.027165" lon="7.6534317"><ele>240.0</ele><time>2026-05-01T10:16:59.35Z</time></trkpt><trkpt lat="45.02702" lon="7.6533567"><ele>241.0</ele><time>2026-05-01T10:17:00.353Z</time></trkpt><trkpt lat="45.0268683" lon="7.6532717"><ele>242.0</ele><time>2026-05-01T10:17:01.352Z</time></trkpt><trkpt lat="45.0267183" lon="7.6531867"><ele>241.0</ele><time>2026-05-01T10:17:02.351Z</time></trkpt><trkpt lat="45.0265683" lon="7.6531017"><ele>240.0</ele><time>2026-05-01T10:17:03.354Z</time></trkpt><trkpt lat="45.026415" lon="7.6530183"><ele>239.0</ele><time>2026-05-01T10:17:04.351Z</time></trkpt><trkpt lat="45.0262633" lon="7.65294"><ele>239.0</ele><time>2026-05-01T10:17:05.35Z</time></trkpt><trkpt lat="45.026115" lon="7.65286"><ele>239.0</ele><time>2026-05-01T10:17:06.354Z</time></trkpt><trkpt lat="45.0259733" lon="7.652785"><ele>239.0</ele><time>2026-05-01T10:17:07.354Z</time></trkpt><trkpt lat="45.0258383" lon="7.6527133"><ele>239.75</ele><time>2026-05-01T10:17:08.35Z</time></trkpt><trkpt lat="45.0257117" lon="7.652645"><ele>240.5</ele><time>2026-05-01T10:17:09.35Z</time></trkpt><trkpt lat="45.0255883" lon="7.6525833"><ele>241.25</ele><time>2026-05-01T10:17:10.351Z</time></trkpt><trkpt lat="45.02547" lon="7.652525"><ele>242.0</ele><time>2026-05-01T10:17:11.349Z</time></trkpt><trkpt lat="45.025365" lon="7.652475"><ele>242.0</ele><time>2026-05-01T10:17:12.353Z</time></trkpt><trkpt lat="45.0252767" lon="7.65243"><ele>242.0</ele><time>2026-05-01T10:17:13.352Z</time></trkpt><trkpt lat="45.025205" lon="7.6523917"><ele>242.0</ele><time>2026-05-01T10:17:14.352Z</time></trkpt><trkpt lat="45.0251017" lon="7.6523467"><ele>242.0</ele><time>2026-05-01T10:17:16.353Z</time></trkpt><trkpt lat="45.0250017" lon="7.6522983"><ele>242.0</ele><time>2026-05-01T10:17:28.35Z</time></trkpt><trkpt lat="45.0249167" lon="7.6523333"><ele>242.0</ele><time>2026-05-01T10:17:40.351Z</time></trkpt><trkpt lat="45.0248467" lon="7.6524667"><ele>242.0</ele><time>2026-05-01T10:17:42.36Z</time></trkpt><trkpt lat="45.0248083" lon="7.6525733"><ele>242.0</ele><time>2026-05-01T10:17:43.353Z</time></trkpt><trkpt lat="45.0247633" lon="7.6526967"><ele>242.0</ele><time>2026-05-01T10:17:44.357Z</time></trkpt><trkpt lat="45.0247167" lon="7.6528317"><ele>242.0</ele><time>2026-05-01T10:17:45.353Z</time></trkpt><trkpt lat="45.0246667" lon="7.65298"><ele>242.0</ele><time>2026-05-01T10:17:46.354Z</time></trkpt><trkpt lat="45.024615" lon="7.653135"><ele>242.0</ele><time>2026-05-01T10:17:47.352Z</time></trkpt><trkpt lat="45.0245617" lon="7.6532967"><ele>242.0</ele><time>2026-05-01T10:17:48.351Z</time></trkpt><trkpt lat="45.0245083" lon="7.6534667"><ele>242.0</ele><time>2026-05-01T10:17:49.358Z</time></trkpt><trkpt lat="45.0244467" lon="7.65364"><ele>242.5</ele><time>2026-05-01T10:17:50.352Z</time></trkpt><trkpt lat="45.0243733" lon="7.6538117"><ele>243.0</ele><time>2026-05-01T10:17:51.354Z</time></trkpt><trkpt lat="45.02431" lon="7.6539833"><ele>243.5</ele><time>2026-05-01T10:17:52.354Z</time></trkpt><trkpt lat="45.0242533" lon="7.6541533"><ele>244.0</ele><time>2026-05-01T10:17:53.351Z</time></trkpt><trkpt lat="45.0242017" lon="7.6543267"><ele>244.25</ele><time>2026-05-01T10:17:54.35Z</time></trkpt><trkpt lat="45.024145" lon="7.6544983"><ele>244.5</ele><time>2026-05-01T10:17:55.349Z</time></trkpt><trkpt lat="45.02408" lon="7.6546717"><ele>244.75</ele><time>2026-05-01T10:17:56.35Z</time></trkpt><trkpt lat="45.0240217" lon="7.6548467"><ele>245.0</ele><time>2026-05-01T10:17:57.354Z</time></trkpt><trkpt lat="45.02396" lon="7.6550233"><ele>245.0</ele><time>2026-05-01T10:17:58.353Z</time></trkpt><trkpt lat="45.0239033" lon="7.6552017"><ele>245.0</ele><time>2026-05-01T10:17:59.352Z</time></trkpt><trkpt lat="45.0238567" lon="7.6553817"><ele>245.0</ele><time>2026-05-01T10:18:00.352Z</time></trkpt><trkpt lat="45.0238" lon="7.655545"><ele>245.0</ele><time>2026-05-01T10:18:01.353Z</time></trkpt><trkpt lat="45.023745" lon="7.65571"><ele>244.0</ele><time>2026-05-01T10:18:02.353Z</time></trkpt><trkpt lat="45.0236933" lon="7.655865"><ele>243.0</ele><time>2026-05-01T10:18:03.355Z</time></trkpt><trkpt lat="45.0236533" lon="7.6560283"><ele>242.0</ele><time>2026-05-01T10:18:04.352Z</time></trkpt><trkpt lat="45.0236067" lon="7.6561967"><ele>241.0</ele><time>2026-05-01T10:18:05.35Z</time></trkpt><trkpt lat="45.0235483" lon="7.65636"><ele>240.5</ele><time>2026-05-01T10:18:06.353Z</time></trkpt><trkpt lat="45.02348" lon="7.6565283"><ele>240.0</ele><time>2026-05-01T10:18:07.349Z</time></trkpt><trkpt lat="45.023415" lon="7.6567"><ele>239.5</ele><time>2026-05-01T10:18:08.351Z</time></trkpt><trkpt lat="45.02336" lon="7.6568833"><ele>239.0</ele><time>2026-05-01T10:18:09.353Z</time></trkpt><trkpt lat="45.02331" lon="7.6570717"><ele>237.66666666666669</ele><time>2026-05-01T10:18:10.355Z</time></trkpt><trkpt lat="45.0232633" lon="7.6572717"><ele>236.33333333333331</ele><time>2026-05-01T10:18:11.354Z</time></trkpt><trkpt lat="45.0232217" lon="7.657475"><ele>235.0</ele><time>2026-05-01T10:18:12.35Z</time></trkpt><trkpt lat="45.02318" lon="7.6576833"><ele>235.0</ele><time>2026-05-01T10:18:13.354Z</time></trkpt><trkpt lat="45.02314" lon="7.657885"><ele>235.0</ele><time>2026-05-01T10:18:14.35Z</time></trkpt><trkpt lat="45.0231017" lon="7.6580883"><ele>235.0</ele><time>2026-05-01T10:18:15.355Z</time></trkpt><trkpt lat="45.02306" lon="7.658295"><ele>235.0</ele><time>2026-05-01T10:18:16.353Z</time></trkpt><trkpt lat="45.0230167" lon="7.6585017"><ele>235.66666666666666</ele><time>2026-05-01T10:18:17.352Z</time></trkpt><trkpt lat="45.0229733" lon="7.6587067"><ele>236.33333333333331</ele><time>2026-05-01T10:18:18.352Z</time></trkpt><trkpt lat="45.02293" lon="7.6589133"><ele>237.0</ele><time>2026-05-01T10:18:19.352Z</time></trkpt><trkpt lat="45.02289" lon="7.6591217"><ele>237.0</ele><time>2026-05-01T10:18:20.353Z</time></trkpt><trkpt lat="45.0228467" lon="7.65933"><ele>237.0</ele><time>2026-05-01T10:18:21.355Z</time></trkpt><trkpt lat="45.0228033" lon="7.65954"><ele>237.0</ele><time>2026-05-01T10:18:22.354Z</time></trkpt><trkpt lat="45.0227617" lon="7.6597433"><ele>237.25</ele><time>2026-05-01T10:18:23.353Z</time></trkpt><trkpt lat="45.0227183" lon="7.65994"><ele>237.5</ele><time>2026-05-01T10:18:24.353Z</time></trkpt><trkpt lat="45.0226767" lon="7.660135"><ele>237.75</ele><time>2026-05-01T10:18:25.351Z</time></trkpt><trkpt lat="45.0226367" lon="7.6603233"><ele>238.0</ele><time>2026-05-01T10:18:26.351Z</time></trkpt><trkpt lat="45.0225983" lon="7.6605083"><ele>238.0</ele><time>2026-05-01T10:18:27.353Z</time></trkpt><trkpt lat="45.0225617" lon="7.66069"><ele>238.0</ele><time>2026-05-01T10:18:28.353Z</time></trkpt><trkpt lat="45.022525" lon="7.6608683"><ele>238.0</ele><time>2026-05-01T10:18:29.349Z</time></trkpt><trkpt lat="45.02249" lon="7.66104"><ele>238.0</ele><time>2026-05-01T10:18:30.35Z</time></trkpt><trkpt lat="45.022465" lon="7.6612033"><ele>238.2</ele><time>2026-05-01T10:18:31.351Z</time></trkpt><trkpt lat="45.0224333" lon="7.66134"><ele>238.4</ele><time>2026-05-01T10:18:32.351Z</time></trkpt><trkpt lat="45.0224067" lon="7.6614517"><ele>238.59999999999997</ele><time>2026-05-01T10:18:33.353Z</time></trkpt><trkpt lat="45.02238" lon="7.6615733"><ele>238.79999999999998</ele><time>2026-05-01T10:18:34.351Z</time></trkpt><trkpt lat="45.0223517" lon="7.6617183"><ele>239.0</ele><time>2026-05-01T10:18:35.35Z</time></trkpt><trkpt lat="45.0223217" lon="7.66187"><ele>239.25</ele><time>2026-05-01T10:18:36.354Z</time></trkpt><trkpt lat="45.0222917" lon="7.6620283"><ele>239.5</ele><time>2026-05-01T10:18:37.352Z</time></trkpt><trkpt lat="45.0222567" lon="7.662195"><ele>239.75</ele><time>2026-05-01T10:18:38.354Z</time></trkpt><trkpt lat="45.02222" lon="7.6623667"><ele>240.0</ele><time>2026-05-01T10:18:39.352Z</time></trkpt><trkpt lat="45.0221817" lon="7.6625417"><ele>240.0</ele><time>2026-05-01T10:18:40.352Z</time></trkpt><trkpt lat="45.0221567" lon="7.6627117"><ele>240.0</ele><time>2026-05-01T10:18:41.351Z</time></trkpt><trkpt lat="45.0221167" lon="7.66287"><ele>240.0</ele><time>2026-05-01T10:18:42.352Z</time></trkpt><trkpt lat="45.022065" lon="7.663005"><ele>240.0</ele><time>2026-05-01T10:18:43.35Z</time></trkpt><trkpt lat="45.0220383" lon="7.6631067"><ele>240.0</ele><time>2026-05-01T10:18:44.35Z</time></trkpt><trkpt lat="45.022015" lon="7.6631917"><ele>240.0</ele><time>2026-05-01T10:18:45.357Z</time></trkpt><trkpt lat="45.021955" lon="7.6632717"><ele>240.0</ele><time>2026-05-01T10:18:47.354Z</time></trkpt><trkpt lat="45.0218583" lon="7.6632467"><ele>240.0</ele><time>2026-05-01T10:18:49.349Z</time></trkpt><trkpt lat="45.0217717" lon="7.66322"><ele>240.0</ele><time>2026-05-01T10:18:50.35Z</time></trkpt><trkpt lat="45.0216733" lon="7.6631767"><ele>240.0</ele><time>2026-05-01T10:18:51.362Z</time></trkpt><trkpt lat="45.0215533" lon="7.663125"><ele>240.0</ele><time>2026-05-01T10:18:52.351Z</time></trkpt><trkpt lat="45.0214183" lon="7.6630533"><ele>240.0</ele><time>2026-05-01T10:18:53.353Z</time></trkpt><trkpt lat="45.0212967" lon="7.6629983"><ele>240.0</ele><time>2026-05-01T10:18:54.351Z</time></trkpt><trkpt lat="45.0211717" lon="7.6629467"><ele>240.0</ele><time>2026-05-01T10:18:55.353Z</time></trkpt><trkpt lat="45.0210433" lon="7.6628967"><ele>240.0</ele><time>2026-05-01T10:18:56.351Z</time></trkpt><trkpt lat="45.0209117" lon="7.6628483"><ele>240.0</ele><time>2026-05-01T10:18:57.353Z</time></trkpt><trkpt lat="45.02078" lon="7.6627967"><ele>240.0</ele><time>2026-05-01T10:18:58.351Z</time></trkpt><trkpt lat="45.020645" lon="7.6627517"><ele>240.0</ele><time>2026-05-01T10:18:59.35Z</time></trkpt><trkpt lat="45.0205133" lon="7.6626933"><ele>239.0</ele><time>2026-05-01T10:19:00.354Z</time></trkpt><trkpt lat="45.0203783" lon="7.66264"><ele>238.0</ele><time>2026-05-01T10:19:01.352Z</time></trkpt><trkpt lat="45.020245" lon="7.6625833"><ele>237.0</ele><time>2026-05-01T10:19:02.349Z</time></trkpt><trkpt lat="45.0201117" lon="7.6625283"><ele>236.0</ele><time>2026-05-01T10:19:03.354Z</time></trkpt><trkpt lat="45.01998" lon="7.66248"><ele>236.0</ele><time>2026-05-01T10:19:04.355Z</time></trkpt><trkpt lat="45.019845" lon="7.6624167"><ele>236.0</ele><time>2026-05-01T10:19:05.351Z</time></trkpt><trkpt lat="45.019705" lon="7.6623617"><ele>236.0</ele><time>2026-05-01T10:19:06.353Z</time></trkpt><trkpt lat="45.0195633" lon="7.6623067"><ele>236.0</ele><time>2026-05-01T10:19:07.351Z</time></trkpt><trkpt lat="45.01943" lon="7.6622467"><ele>236.0</ele><time>2026-05-01T10:19:08.35Z</time></trkpt><trkpt lat="45.01931" lon="7.6621917"><ele>236.00000000000003</ele><time>2026-05-01T10:19:09.353Z</time></trkpt><trkpt lat="45.0192033" lon="7.6621483"><ele>236.00000000000003</ele><time>2026-05-01T10:19:10.352Z</time></trkpt><trkpt lat="45.0191067" lon="7.6621183"><ele>236.0</ele><time>2026-05-01T10:19:11.353Z</time></trkpt><trkpt lat="45.0190283" lon="7.6620883"><ele>236.0</ele><time>2026-05-01T10:19:12.352Z</time></trkpt><trkpt lat="45.0189617" lon="7.6620717"><ele>235.66666666666669</ele><time>2026-05-01T10:19:13.351Z</time></trkpt><trkpt lat="45.0188617" lon="7.6620867"><ele>235.33333333333334</ele><time>2026-05-01T10:19:15.351Z</time></trkpt><trkpt lat="45.01876" lon="7.66204"><ele>235.0</ele><time>2026-05-01T10:20:08.354Z</time></trkpt><trkpt lat="45.018695" lon="7.6620167"><ele>234.66666666666669</ele><time>2026-05-01T10:20:09.352Z</time></trkpt><trkpt lat="45.0186183" lon="7.6619883"><ele>234.33333333333334</ele><time>2026-05-01T10:20:10.355Z</time></trkpt><trkpt lat="45.0185267" lon="7.6619517"><ele>234.0</ele><time>2026-05-01T10:20:11.355Z</time></trkpt><trkpt lat="45.0184367" lon="7.6619083"><ele>234.0</ele><time>2026-05-01T10:20:12.35Z</time></trkpt><trkpt lat="45.0183433" lon="7.6618667"><ele>234.0</ele><time>2026-05-01T10:20:13.352Z</time></trkpt><trkpt lat="45.0182533" lon="7.661825"><ele>234.0</ele><time>2026-05-01T10:20:14.35Z</time></trkpt><trkpt lat="45.0181717" lon="7.661785"><ele>234.0</ele><time>2026-05-01T10:20:15.355Z</time></trkpt><trkpt lat="45.0180933" lon="7.6617517"><ele>234.0</ele><time>2026-05-01T10:20:16.351Z</time></trkpt><trkpt lat="45.01802" lon="7.6617267"><ele>234.0</ele><time>2026-05-01T10:20:17.349Z</time></trkpt><trkpt lat="45.01792" lon="7.6616983"><ele>234.2</ele><time>2026-05-01T10:20:19.353Z</time></trkpt><trkpt lat="45.0178467" lon="7.6616767"><ele>234.39999999999998</ele><time>2026-05-01T10:20:22.349Z</time></trkpt><trkpt lat="45.0177533" lon="7.6616483"><ele>234.6</ele><time>2026-05-01T10:20:45.352Z</time></trkpt><trkpt lat="45.017645" lon="7.6616467"><ele>234.8</ele><time>2026-05-01T10:20:47.355Z</time></trkpt><trkpt lat="45.0175483" lon="7.6616867"><ele>235.0</ele><time>2026-05-01T10:20:49.354Z</time></trkpt><trkpt lat="45.0174817" lon="7.661765"><ele>235.16666666666666</ele><time>2026-05-01T10:20:51.349Z</time></trkpt><trkpt lat="45.01743" lon="7.6619017"><ele>235.33333333333331</ele><time>2026-05-01T10:20:53.35Z</time></trkpt><trkpt lat="45.017385" lon="7.66206"><ele>235.5</ele><time>2026-05-01T10:20:55.354Z</time></trkpt><trkpt lat="45.0173617" lon="7.6621483"><ele>235.66666666666669</ele><time>2026-05-01T10:20:56.351Z</time></trkpt><trkpt lat="45.0173417" lon="7.662235"><ele>235.83333333333334</ele><time>2026-05-01T10:20:57.356Z</time></trkpt><trkpt lat="45.0173233" lon="7.66233"><ele>236.0</ele><time>2026-05-01T10:20:58.353Z</time></trkpt><trkpt lat="45.0173033" lon="7.66242"><ele>236.00000000000003</ele><time>2026-05-01T10:20:59.356Z</time></trkpt><trkpt lat="45.0172783" lon="7.662565"><ele>236.0</ele><time>2026-05-01T10:21:01.354Z</time></trkpt><trkpt lat="45.0172717" lon="7.662685"><ele>236.0</ele><time>2026-05-01T10:21:03.352Z</time></trkpt><trkpt lat="45.017245" lon="7.6628067"><ele>236.0</ele><time>2026-05-01T10:21:05.355Z</time></trkpt><trkpt lat="45.0172233" lon="7.6629233"><ele>236.00000000000003</ele><time>2026-05-01T10:21:07.354Z</time></trkpt><trkpt lat="45.0172017" lon="7.66301"><ele>236.0</ele><time>2026-05-01T10:21:09.36Z</time></trkpt><trkpt lat="45.01719" lon="7.6631817"><ele>236.00000000000003</ele><time>2026-05-01T10:21:43.354Z</time></trkpt><trkpt lat="45.0171533" lon="7.6633467"><ele>236.0</ele><time>2026-05-01T10:21:45.353Z</time></trkpt><trkpt lat="45.0171283" lon="7.6634367"><ele>236.0</ele><time>2026-05-01T10:21:46.351Z</time></trkpt><trkpt lat="45.0171033" lon="7.6635417"><ele>236.0</ele><time>2026-05-01T10:21:47.352Z</time></trkpt><trkpt lat="45.0170767" lon="7.6636483"><ele>236.00000000000003</ele><time>2026-05-01T10:21:48.353Z</time></trkpt><trkpt lat="45.0170533" lon="7.663745"><ele>236.0</ele><time>2026-05-01T10:21:49.353Z</time></trkpt><trkpt lat="45.01702" lon="7.6639067"><ele>235.20000000000002</ele><time>2026-05-01T10:21:51.354Z</time></trkpt><trkpt lat="45.01695" lon="7.6639883"><ele>234.40000000000003</ele><time>2026-05-01T10:21:53.353Z</time></trkpt><trkpt lat="45.0168517" lon="7.6639817"><ele>233.6</ele><time>2026-05-01T10:21:55.354Z</time></trkpt><trkpt lat="45.01673" lon="7.6639483"><ele>232.8</ele><time>2026-05-01T10:21:57.349Z</time></trkpt><trkpt lat="45.016665" lon="7.6639233"><ele>232.0</ele><time>2026-05-01T10:21:58.355Z</time></trkpt><trkpt lat="45.01659" lon="7.663895"><ele>231.83333333333331</ele><time>2026-05-01T10:21:59.353Z</time></trkpt><trkpt lat="45.01652" lon="7.6638667"><ele>231.66666666666666</ele><time>2026-05-01T10:22:00.353Z</time></trkpt><trkpt lat="45.0164467" lon="7.6638417"><ele>231.5</ele><time>2026-05-01T10:22:01.355Z</time></trkpt><trkpt lat="45.0163667" lon="7.6638133"><ele>231.33333333333331</ele><time>2026-05-01T10:22:02.35Z</time></trkpt><trkpt lat="45.01628" lon="7.6637833"><ele>231.16666666666666</ele><time>2026-05-01T10:22:03.354Z</time></trkpt><trkpt lat="45.0161833" lon="7.66375"><ele>231.0</ele><time>2026-05-01T10:22:04.353Z</time></trkpt><trkpt lat="45.0160883" lon="7.6637233"><ele>231.0</ele><time>2026-05-01T10:22:05.352Z</time></trkpt><trkpt lat="45.0159967" lon="7.6636967"><ele>231.00000000000003</ele><time>2026-05-01T10:22:06.351Z</time></trkpt><trkpt lat="45.0159017" lon="7.6636667"><ele>231.00000000000003</ele><time>2026-05-01T10:22:07.354Z</time></trkpt><trkpt lat="45.0158067" lon="7.6636333"><ele>231.0</ele><time>2026-05-01T10:22:08.353Z</time></trkpt><trkpt lat="45.015705" lon="7.6635883"><ele>231.0</ele><time>2026-05-01T10:22:09.354Z</time></trkpt><trkpt lat="45.0156083" lon="7.663555"><ele>231.20000000000002</ele><time>2026-05-01T10:22:10.352Z</time></trkpt><trkpt lat="45.0155083" lon="7.6635217"><ele>231.40000000000003</ele><time>2026-05-01T10:22:11.352Z</time></trkpt><trkpt lat="45.0154117" lon="7.663495"><ele>231.6</ele><time>2026-05-01T10:22:12.353Z</time></trkpt><trkpt lat="45.01532" lon="7.663465"><ele>231.8</ele><time>2026-05-01T10:22:13.351Z</time></trkpt><trkpt lat="45.0152333" lon="7.6634333"><ele>232.0</ele><time>2026-05-01T10:22:14.354Z</time></trkpt><trkpt lat="45.0151517" lon="7.6634017"><ele>232.0</ele><time>2026-05-01T10:22:15.348Z</time></trkpt><trkpt lat="45.0150783" lon="7.6633783"><ele>232.0</ele><time>2026-05-01T10:22:16.352Z</time></trkpt><trkpt lat="45.0150133" lon="7.6633633"><ele>232.0</ele><time>2026-05-01T10:22:17.351Z</time></trkpt><trkpt lat="45.014935" lon="7.66335"><ele>232.0</ele><time>2026-05-01T10:22:19.351Z</time></trkpt><trkpt lat="45.0147567" lon="7.6632867"><ele>232.0</ele><time>2026-05-01T10:22:41.351Z</time></trkpt><trkpt lat="45.0146933" lon="7.6632867"><ele>232.33333333333331</ele><time>2026-05-01T10:22:42.353Z</time></trkpt><trkpt lat="45.01463" lon="7.6632933"><ele>232.66666666666666</ele><time>2026-05-01T10:22:43.354Z</time></trkpt><trkpt lat="45.0145633" lon="7.66329"><ele>233.0</ele><time>2026-05-01T10:22:44.352Z</time></trkpt><trkpt lat="45.0144733" lon="7.66336"><ele>233.33333333333331</ele><time>2026-05-01T10:22:45.354Z</time></trkpt><trkpt lat="45.0143783" lon="7.6634333"><ele>233.66666666666666</ele><time>2026-05-01T10:22:46.351Z</time></trkpt><trkpt lat="45.0143" lon="7.663535"><ele>234.0</ele><time>2026-05-01T10:22:47.351Z</time></trkpt><trkpt lat="45.014175" lon="7.6636083"><ele>233.0</ele><time>2026-05-01T10:22:48.353Z</time></trkpt><trkpt lat="45.0140667" lon="7.6636733"><ele>232.0</ele><time>2026-05-01T10:22:49.35Z</time></trkpt><trkpt lat="45.0139617" lon="7.663745"><ele>231.0</ele><time>2026-05-01T10:22:50.352Z</time></trkpt><trkpt lat="45.0138567" lon="7.6638283"><ele>230.0</ele><time>2026-05-01T10:22:51.354Z</time></trkpt><trkpt lat="45.013765" lon="7.663905"><ele>230.0</ele><time>2026-05-01T10:22:52.351Z</time></trkpt><trkpt lat="45.0136817" lon="7.663985"><ele>230.0</ele><time>2026-05-01T10:22:53.353Z</time></trkpt><trkpt lat="45.0136" lon="7.664055"><ele>230.0</ele><time>2026-05-01T10:22:54.353Z</time></trkpt><trkpt lat="45.0135217" lon="7.6641217"><ele>230.0</ele><time>2026-05-01T10:22:55.352Z</time></trkpt><trkpt lat="45.013445" lon="7.6641883"><ele>230.0</ele><time>2026-05-01T10:22:56.353Z</time></trkpt><trkpt lat="45.0133483" lon="7.6642533"><ele>229.8</ele><time>2026-05-01T10:22:57.353Z</time></trkpt><trkpt lat="45.01327" lon="7.6643117"><ele>229.6</ele><time>2026-05-01T10:22:58.351Z</time></trkpt><trkpt lat="45.0131933" lon="7.664365"><ele>229.39999999999998</ele><time>2026-05-01T10:22:59.355Z</time></trkpt><trkpt lat="45.0131117" lon="7.6644267"><ele>229.2</ele><time>2026-05-01T10:23:00.352Z</time></trkpt><trkpt lat="45.013025" lon="7.6644983"><ele>229.0</ele><time>2026-05-01T10:23:01.353Z</time></trkpt><trkpt lat="45.012935" lon="7.6645833"><ele>228.25</ele><time>2026-05-01T10:23:02.353Z</time></trkpt><trkpt lat="45.0128383" lon="7.6646583"><ele>227.5</ele><time>2026-05-01T10:23:03.353Z</time></trkpt><trkpt lat="45.012735" lon="7.6647533"><ele>226.75</ele><time>2026-05-01T10:23:04.354Z</time></trkpt><trkpt lat="45.0126283" lon="7.66484"><ele>226.0</ele><time>2026-05-01T10:23:05.355Z</time></trkpt><trkpt lat="45.0125183" lon="7.664925"><ele>226.0</ele><time>2026-05-01T10:23:06.351Z</time></trkpt><trkpt lat="45.0124033" lon="7.6650133"><ele>226.0</ele><time>2026-05-01T10:23:07.352Z</time></trkpt><trkpt lat="45.01229" lon="7.66511"><ele>226.0</ele><time>2026-05-01T10:23:08.35Z</time></trkpt><trkpt lat="45.0121733" lon="7.6652083"><ele>226.0</ele><time>2026-05-01T10:23:09.353Z</time></trkpt><trkpt lat="45.012055" lon="7.6653067"><ele>225.75</ele><time>2026-05-01T10:23:10.353Z</time></trkpt><trkpt lat="45.0119333" lon="7.6653983"><ele>225.5</ele><time>2026-05-01T10:23:11.353Z</time></trkpt><trkpt lat="45.0118083" lon="7.6654933"><ele>225.25</ele><time>2026-05-01T10:23:12.351Z</time></trkpt><trkpt lat="45.01169" lon="7.665585"><ele>225.0</ele><time>2026-05-01T10:23:13.352Z</time></trkpt><trkpt lat="45.0115783" lon="7.6656833"><ele>225.0</ele><time>2026-05-01T10:23:14.349Z</time></trkpt><trkpt lat="45.0114767" lon="7.6657783"><ele>225.0</ele><time>2026-05-01T10:23:15.355Z</time></trkpt><trkpt lat="45.0113817" lon="7.66586"><ele>225.0</ele><time>2026-05-01T10:23:16.348Z</time></trkpt><trkpt lat="45.0112917" lon="7.66593"><ele>225.0</ele><time>2026-05-01T10:23:17.35Z</time></trkpt><trkpt lat="45.0111983" lon="7.6659967"><ele>225.0</ele><time>2026-05-01T10:23:18.352Z</time></trkpt><trkpt lat="45.0111117" lon="7.6660617"><ele>225.0</ele><time>2026-05-01T10:23:19.352Z</time></trkpt><trkpt lat="45.011025" lon="7.6661267"><ele>225.0</ele><time>2026-05-01T10:23:20.35Z</time></trkpt><trkpt lat="45.0109433" lon="7.6661867"><ele>225.0</ele><time>2026-05-01T10:23:21.356Z</time></trkpt><trkpt lat="45.0108683" lon="7.66624"><ele>225.0</ele><time>2026-05-01T10:23:22.353Z</time></trkpt><trkpt lat="45.0107983" lon="7.66629"><ele>225.0</ele><time>2026-05-01T10:23:23.353Z</time></trkpt><trkpt lat="45.010735" lon="7.666335"><ele>225.0</ele><time>2026-05-01T10:23:24.354Z</time></trkpt><trkpt lat="45.0106417" lon="7.6664"><ele>225.2</ele><time>2026-05-01T10:23:26.353Z</time></trkpt><trkpt lat="45.0105683" lon="7.6664717"><ele>225.4</ele><time>2026-05-01T10:23:45.355Z</time></trkpt><trkpt lat="45.010505" lon="7.6665317"><ele>225.60000000000002</ele><time>2026-05-01T10:23:46.351Z</time></trkpt><trkpt lat="45.0104267" lon="7.6666017"><ele>225.8</ele><time>2026-05-01T10:23:47.35Z</time></trkpt><trkpt lat="45.010345" lon="7.6666717"><ele>226.0</ele><time>2026-05-01T10:23:48.355Z</time></trkpt><trkpt lat="45.010245" lon="7.66675"><ele>226.0</ele><time>2026-05-01T10:23:49.353Z</time></trkpt><trkpt lat="45.0101533" lon="7.6668217"><ele>226.0</ele><time>2026-05-01T10:23:50.35Z</time></trkpt><trkpt lat="45.0100567" lon="7.6668983"><ele>226.0</ele><time>2026-05-01T10:23:51.349Z</time></trkpt><trkpt lat="45.009955" lon="7.6669833"><ele>226.0</ele><time>2026-05-01T10:23:52.354Z</time></trkpt><trkpt lat="45.009845" lon="7.667065"><ele>226.5</ele><time>2026-05-01T10:23:53.35Z</time></trkpt><trkpt lat="45.0097317" lon="7.66715"><ele>227.0</ele><time>2026-05-01T10:23:54.351Z</time></trkpt><trkpt lat="45.00962" lon="7.6672317"><ele>227.5</ele><time>2026-05-01T10:23:55.352Z</time></trkpt><trkpt lat="45.0095133" lon="7.667305"><ele>228.0</ele><time>2026-05-01T10:23:56.351Z</time></trkpt><trkpt lat="45.0094167" lon="7.6673883"><ele>228.0</ele><time>2026-05-01T10:23:57.35Z</time></trkpt><trkpt lat="45.0093167" lon="7.6674583"><ele>228.0</ele><time>2026-05-01T10:23:58.351Z</time></trkpt><trkpt lat="45.009215" lon="7.667525"><ele>228.0</ele><time>2026-05-01T10:23:59.349Z</time></trkpt><trkpt lat="45.0091233" lon="7.6676017"><ele>228.0</ele><time>2026-05-01T10:24:00.356Z</time></trkpt><trkpt lat="45.0090383" lon="7.667665"><ele>228.0</ele><time>2026-05-01T10:24:01.35Z</time></trkpt><trkpt lat="45.0089583" lon="7.6677233"><ele>227.0</ele><time>2026-05-01T10:24:02.35Z</time></trkpt><trkpt lat="45.0088867" lon="7.6677783"><ele>226.0</ele><time>2026-05-01T10:24:03.353Z</time></trkpt><trkpt lat="45.0088233" lon="7.6678283"><ele>225.0</ele><time>2026-05-01T10:24:04.352Z</time></trkpt><trkpt lat="45.0087683" lon="7.667875"><ele>224.0</ele><time>2026-05-01T10:24:05.352Z</time></trkpt><trkpt lat="45.00869" lon="7.6679383"><ele>223.0</ele><time>2026-05-01T10:24:07.349Z</time></trkpt><trkpt lat="45.0085817" lon="7.6680033"><ele>222.0</ele><time>2026-05-01T10:24:28.35Z</time></trkpt><trkpt lat="45.0085167" lon="7.66803"><ele>222.0</ele><time>2026-05-01T10:24:29.35Z</time></trkpt><trkpt lat="45.00844" lon="7.6680617"><ele>222.0</ele><time>2026-05-01T10:24:30.352Z</time></trkpt><trkpt lat="45.0083567" lon="7.6680983"><ele>222.0</ele><time>2026-05-01T10:24:31.349Z</time></trkpt><trkpt lat="45.0082667" lon="7.668155"><ele>222.0</ele><time>2026-05-01T10:24:32.356Z</time></trkpt><trkpt lat="45.008175" lon="7.6682183"><ele>222.0</ele><time>2026-05-01T10:24:33.349Z</time></trkpt><trkpt lat="45.0080783" lon="7.6682917"><ele>222.0</ele><time>2026-05-01T10:24:34.349Z</time></trkpt><trkpt lat="45.0079767" lon="7.66837"><ele>222.0</ele><time>2026-05-01T10:24:35.351Z</time></trkpt><trkpt lat="45.0078717" lon="7.66846"><ele>222.0</ele><time>2026-05-01T10:24:36.351Z</time></trkpt><trkpt lat="45.0077617" lon="7.6685467"><ele>222.0</ele><time>2026-05-01T10:24:37.35Z</time></trkpt><trkpt lat="45.007645" lon="7.66864"><ele>222.75</ele><time>2026-05-01T10:24:38.348Z</time></trkpt><trkpt lat="45.0075233" lon="7.6687283"><ele>223.5</ele><time>2026-05-01T10:24:39.349Z</time></trkpt><trkpt lat="45.0074" lon="7.6688067"><ele>224.25</ele><time>2026-05-01T10:24:40.353Z</time></trkpt><trkpt lat="45.0072717" lon="7.6688867"><ele>225.0</ele><time>2026-05-01T10:24:41.351Z</time></trkpt><trkpt lat="45.0071333" lon="7.668965"><ele>225.0</ele><time>2026-05-01T10:24:42.353Z</time></trkpt><trkpt lat="45.006995" lon="7.6690467"><ele>225.0</ele><time>2026-05-01T10:24:43.357Z</time></trkpt><trkpt lat="45.0068467" lon="7.669125"><ele>225.0</ele><time>2026-05-01T10:24:44.349Z</time></trkpt><trkpt lat="45.0066933" lon="7.6692"><ele>224.33333333333331</ele><time>2026-05-01T10:24:45.35Z</time></trkpt><trkpt lat="45.00654" lon="7.669275"><ele>223.66666666666666</ele><time>2026-05-01T10:24:46.349Z</time></trkpt><trkpt lat="45.00638" lon="7.66935"><ele>223.0</ele><time>2026-05-01T10:24:47.351Z</time></trkpt><trkpt lat="45.0062133" lon="7.6694183"><ele>222.66666666666666</ele><time>2026-05-01T10:24:48.355Z</time></trkpt><trkpt lat="45.0060467" lon="7.6694833"><ele>222.33333333333331</ele><time>2026-05-01T10:24:49.352Z</time></trkpt><trkpt lat="45.0058817" lon="7.6695417"><ele>222.0</ele><time>2026-05-01T10:24:50.349Z</time></trkpt><trkpt lat="45.0057183" lon="7.6695983"><ele>222.0</ele><time>2026-05-01T10:24:51.351Z</time></trkpt><trkpt lat="45.0055567" lon="7.669655"><ele>222.0</ele><time>2026-05-01T10:24:52.354Z</time></trkpt><trkpt lat="45.0053967" lon="7.6697167"><ele>222.0</ele><time>2026-05-01T10:24:53.354Z</time></trkpt><trkpt lat="45.0052367" lon="7.669775"><ele>222.0</ele><time>2026-05-01T10:24:54.352Z</time></trkpt><trkpt lat="45.00508" lon="7.6698367"><ele>222.0</ele><time>2026-05-01T10:24:55.353Z</time></trkpt><trkpt lat="45.0049317" lon="7.6699"><ele>222.0</ele><time>2026-05-01T10:24:56.359Z</time></trkpt><trkpt lat="45.00479" lon="7.669965"><ele>223.0</ele><time>2026-05-01T10:24:57.349Z</time></trkpt><trkpt lat="45.0046483" lon="7.670025"><ele>224.0</ele><time>2026-05-01T10:24:58.351Z</time></trkpt><trkpt lat="45.0045133" lon="7.6700767"><ele>225.0</ele><time>2026-05-01T10:24:59.354Z</time></trkpt><trkpt lat="45.0043783" lon="7.670125"><ele>226.0</ele><time>2026-05-01T10:25:00.351Z</time></trkpt><trkpt lat="45.0042517" lon="7.670165"><ele>226.0</ele><time>2026-05-01T10:25:01.348Z</time></trkpt><trkpt lat="45.00411" lon="7.6702133"><ele>226.0</ele><time>2026-05-01T10:25:02.348Z</time></trkpt><trkpt lat="45.0039633" lon="7.67026"><ele>226.0</ele><time>2026-05-01T10:25:03.352Z</time></trkpt><trkpt lat="45.0038333" lon="7.670315"><ele>226.0</ele><time>2026-05-01T10:25:04.348Z</time></trkpt><trkpt lat="45.0037083" lon="7.6703733"><ele>225.8</ele><time>2026-05-01T10:25:05.347Z</time></trkpt><trkpt lat="45.003595" lon="7.67041"><ele>225.60000000000002</ele><time>2026-05-01T10:25:06.352Z</time></trkpt><trkpt lat="45.0035" lon="7.6704317"><ele>225.4</ele><time>2026-05-01T10:25:07.35Z</time></trkpt><trkpt lat="45.00342" lon="7.67044"><ele>225.2</ele><time>2026-05-01T10:25:08.348Z</time></trkpt><trkpt lat="45.003345" lon="7.670455"><ele>225.0</ele><time>2026-05-01T10:25:09.351Z</time></trkpt><trkpt lat="45.003265" lon="7.670475"><ele>224.83333333333334</ele><time>2026-05-01T10:25:10.348Z</time></trkpt><trkpt lat="45.0031817" lon="7.67049"><ele>224.66666666666669</ele><time>2026-05-01T10:25:11.348Z</time></trkpt><trkpt lat="45.0030917" lon="7.6705033"><ele>224.5</ele><time>2026-05-01T10:25:12.348Z</time></trkpt><trkpt lat="45.0030033" lon="7.670515"><ele>224.33333333333334</ele><time>2026-05-01T10:25:13.351Z</time></trkpt><trkpt lat="45.0029133" lon="7.6705283"><ele>224.16666666666669</ele><time>2026-05-01T10:25:14.352Z</time></trkpt><trkpt lat="45.0028317" lon="7.670535"><ele>224.0</ele><time>2026-05-01T10:25:15.35Z</time></trkpt><trkpt lat="45.0027617" lon="7.670545"><ele>224.00000000000003</ele><time>2026-05-01T10:25:16.35Z</time></trkpt><trkpt lat="45.0026933" lon="7.6705517"><ele>224.0</ele><time>2026-05-01T10:25:17.35Z</time></trkpt><trkpt lat="45.0025983" lon="7.6705467"><ele>224.0</ele><time>2026-05-01T10:25:19.35Z</time></trkpt><trkpt lat="45.002505" lon="7.6705333"><ele>224.0</ele><time>2026-05-01T10:25:37.35Z</time></trkpt><trkpt lat="45.0024433" lon="7.6705133"><ele>224.00000000000003</ele><time>2026-05-01T10:25:39.351Z</time></trkpt><trkpt lat="45.002345" lon="7.67053"><ele>224.0</ele><time>2026-05-01T10:25:42.353Z</time></trkpt><trkpt lat="45.002235" lon="7.6706067"><ele>223.83333333333334</ele><time>2026-05-01T10:25:44.349Z</time></trkpt><trkpt lat="45.0021733" lon="7.670655"><ele>223.66666666666669</ele><time>2026-05-01T10:25:45.352Z</time></trkpt><trkpt lat="45.0021" lon="7.6707117"><ele>223.5</ele><time>2026-05-01T10:25:46.349Z</time></trkpt><trkpt lat="45.0020183" lon="7.670775"><ele>223.33333333333331</ele><time>2026-05-01T10:25:47.354Z</time></trkpt><trkpt lat="45.0019367" lon="7.6708417"><ele>223.16666666666666</ele><time>2026-05-01T10:25:48.357Z</time></trkpt><trkpt lat="45.00185" lon="7.6709133"><ele>223.0</ele><time>2026-05-01T10:25:49.353Z</time></trkpt><trkpt lat="45.0017617" lon="7.670985"><ele>223.0</ele><time>2026-05-01T10:25:50.357Z</time></trkpt><trkpt lat="45.0016633" lon="7.6710633"><ele>223.0</ele><time>2026-05-01T10:25:51.354Z</time></trkpt><trkpt lat="45.00156" lon="7.6711417"><ele>223.0</ele><time>2026-05-01T10:25:52.35Z</time></trkpt><trkpt lat="45.0014533" lon="7.6712217"><ele>223.0</ele><time>2026-05-01T10:25:53.352Z</time></trkpt><trkpt lat="45.0013483" lon="7.6713033"><ele>223.0</ele><time>2026-05-01T10:25:54.353Z</time></trkpt><trkpt lat="45.00125" lon="7.671375"><ele>223.0</ele><time>2026-05-01T10:25:55.354Z</time></trkpt><trkpt lat="45.00116" lon="7.6714383"><ele>223.0</ele><time>2026-05-01T10:25:56.352Z</time></trkpt><trkpt lat="45.001075" lon="7.6714933"><ele>223.0</ele><time>2026-05-01T10:25:57.352Z</time></trkpt><trkpt lat="45.0009967" lon="7.67154"><ele>223.0</ele><time>2026-05-01T10:25:58.353Z</time></trkpt><trkpt lat="45.000925" lon="7.6715867"><ele>223.0</ele><time>2026-05-01T10:25:59.352Z</time></trkpt><trkpt lat="45.0008583" lon="7.671625"><ele>223.0</ele><time>2026-05-01T10:26:00.349Z</time></trkpt><trkpt lat="45.0007983" lon="7.671655"><ele>223.0</ele><time>2026-05-01T10:26:01.351Z</time></trkpt><trkpt lat="45.000705" lon="7.6717033"><ele>223.0</ele><time>2026-05-01T10:26:03.349Z</time></trkpt><trkpt lat="45.00055" lon="7.6717417"><ele>223.0</ele><time>2026-05-01T10:26:33.354Z</time></trkpt><trkpt lat="45.00043" lon="7.671765"><ele>222.8</ele><time>2026-05-01T10:26:35.353Z</time></trkpt><trkpt lat="45.00035" lon="7.6717733"><ele>222.60000000000002</ele><time>2026-05-01T10:26:36.354Z</time></trkpt><trkpt lat="45.000255" lon="7.671785"><ele>222.39999999999998</ele><time>2026-05-01T10:26:37.35Z</time></trkpt><trkpt lat="45.00015" lon="7.6717967"><ele>222.2</ele><time>2026-05-01T10:26:38.353Z</time></trkpt><trkpt lat="45.00004" lon="7.67181"><ele>222.0</ele><time>2026-05-01T10:26:39.35Z</time></trkpt><trkpt lat="44.9999217" lon="7.671825"><ele>222.0</ele><time>2026-05-01T10:26:40.356Z</time></trkpt><trkpt lat="44.9998133" lon="7.6718433"><ele>222.0</ele><time>2026-05-01T10:26:41.353Z</time></trkpt><trkpt lat="44.999705" lon="7.6718517"><ele>222.0</ele><time>2026-05-01T10:26:42.35Z</time></trkpt><trkpt lat="44.9996083" lon="7.671845"><ele>222.0</ele><time>2026-05-01T10:26:43.351Z</time></trkpt><trkpt lat="44.9995217" lon="7.67182"><ele>222.0</ele><time>2026-05-01T10:26:44.348Z</time></trkpt><trkpt lat="44.9994333" lon="7.6717833"><ele>222.0</ele><time>2026-05-01T10:26:45.351Z</time></trkpt><trkpt lat="44.9993467" lon="7.6717433"><ele>222.0</ele><time>2026-05-01T10:26:46.352Z</time></trkpt><trkpt lat="44.9992717" lon="7.671695"><ele>222.0</ele><time>2026-05-01T10:26:47.35Z</time></trkpt><trkpt lat="44.99921" lon="7.6716433"><ele>222.0</ele><time>2026-05-01T10:26:48.349Z</time></trkpt><trkpt lat="44.9991467" lon="7.67161"><ele>222.0</ele><time>2026-05-01T10:26:49.348Z</time></trkpt><trkpt lat="44.99903" lon="7.6716367"><ele>222.0</ele><time>2026-05-01T10:26:51.349Z</time></trkpt><trkpt lat="44.9989667" lon="7.6717017"><ele>222.8</ele><time>2026-05-01T10:26:52.353Z</time></trkpt><trkpt lat="44.998895" lon="7.67177"><ele>223.6</ele><time>2026-05-01T10:26:53.35Z</time></trkpt><trkpt lat="44.9988067" lon="7.6718183"><ele>224.40000000000003</ele><time>2026-05-01T10:26:54.35Z</time></trkpt><trkpt lat="44.9987067" lon="7.67185"><ele>225.20000000000002</ele><time>2026-05-01T10:26:55.355Z</time></trkpt><trkpt lat="44.9986033" lon="7.6718633"><ele>226.0</ele><time>2026-05-01T10:26:56.35Z</time></trkpt><trkpt lat="44.9985017" lon="7.6718617"><ele>225.99999999999997</ele><time>2026-05-01T10:26:57.353Z</time></trkpt><trkpt lat="44.9984133" lon="7.6718567"><ele>226.0</ele><time>2026-05-01T10:26:58.353Z</time></trkpt><trkpt lat="44.99835" lon="7.6718517"><ele>226.0</ele><time>2026-05-01T10:26:59.35Z</time></trkpt><trkpt lat="44.9982767" lon="7.6718283"><ele>226.0</ele><time>2026-05-01T10:27:02.352Z</time></trkpt><trkpt lat="44.9981867" lon="7.6718183"><ele>225.99999999999997</ele><time>2026-05-01T10:27:04.35Z</time></trkpt><trkpt lat="44.9981217" lon="7.6718217"><ele>226.0</ele><time>2026-05-01T10:27:05.354Z</time></trkpt><trkpt lat="44.9980433" lon="7.6718217"><ele>225.60000000000002</ele><time>2026-05-01T10:27:06.352Z</time></trkpt><trkpt lat="44.9979517" lon="7.6718217"><ele>225.20000000000002</ele><time>2026-05-01T10:27:07.349Z</time></trkpt><trkpt lat="44.9978517" lon="7.671815"><ele>224.79999999999998</ele><time>2026-05-01T10:27:08.352Z</time></trkpt><trkpt lat="44.9977433" lon="7.67181"><ele>224.39999999999998</ele><time>2026-05-01T10:27:09.353Z</time></trkpt><trkpt lat="44.9976233" lon="7.6718083"><ele>224.0</ele><time>2026-05-01T10:27:10.349Z</time></trkpt><trkpt lat="44.9974983" lon="7.6718033"><ele>223.5</ele><time>2026-05-01T10:27:11.355Z</time></trkpt><trkpt lat="44.9973633" lon="7.671795"><ele>223.0</ele><time>2026-05-01T10:27:12.35Z</time></trkpt><trkpt lat="44.9972167" lon="7.6717933"><ele>222.5</ele><time>2026-05-01T10:27:13.352Z</time></trkpt><trkpt lat="44.9970567" lon="7.67179"><ele>222.0</ele><time>2026-05-01T10:27:14.354Z</time></trkpt><trkpt lat="44.99688" lon="7.671785"><ele>222.0</ele><time>2026-05-01T10:27:15.354Z</time></trkpt><trkpt lat="44.9966867" lon="7.6717767"><ele>222.0</ele><time>2026-05-01T10:27:16.351Z</time></trkpt><trkpt lat="44.9964783" lon="7.671765"><ele>222.0</ele><time>2026-05-01T10:27:17.352Z</time></trkpt><trkpt lat="44.9962683" lon="7.671745"><ele>222.66666666666669</ele><time>2026-05-01T10:27:18.351Z</time></trkpt><trkpt lat="44.9960617" lon="7.6717183"><ele>223.33333333333334</ele><time>2026-05-01T10:27:19.349Z</time></trkpt><trkpt lat="44.9958517" lon="7.6716917"><ele>224.0</ele><time>2026-05-01T10:27:20.353Z</time></trkpt><trkpt lat="44.9956433" lon="7.6716717"><ele>222.66666666666669</ele><time>2026-05-01T10:27:21.352Z</time></trkpt><trkpt lat="44.9954383" lon="7.6716533"><ele>221.33333333333331</ele><time>2026-05-01T10:27:22.353Z</time></trkpt><trkpt lat="44.9952383" lon="7.671635"><ele>220.0</ele><time>2026-05-01T10:27:23.35Z</time></trkpt><trkpt lat="44.99504" lon="7.6716233"><ele>220.0</ele><time>2026-05-01T10:27:24.349Z</time></trkpt><trkpt lat="44.9948467" lon="7.67161"><ele>220.0</ele><time>2026-05-01T10:27:25.352Z</time></trkpt><trkpt lat="44.9946533" lon="7.671595"><ele>220.0</ele><time>2026-05-01T10:27:26.354Z</time></trkpt><trkpt lat="44.99446" lon="7.6715783"><ele>220.0</ele><time>2026-05-01T10:27:27.353Z</time></trkpt><trkpt lat="44.9942617" lon="7.6715633"><ele>220.0</ele><time>2026-05-01T10:27:28.35Z</time></trkpt><trkpt lat="44.9940667" lon="7.671545"><ele>220.0</ele><time>2026-05-01T10:27:29.35Z</time></trkpt><trkpt lat="44.99387" lon="7.6715283"><ele>220.33333333333331</ele><time>2026-05-01T10:27:30.354Z</time></trkpt><trkpt lat="44.99367" lon="7.6715117"><ele>220.66666666666669</ele><time>2026-05-01T10:27:31.353Z</time></trkpt><trkpt lat="44.9934717" lon="7.671495"><ele>221.0</ele><time>2026-05-01T10:27:32.359Z</time></trkpt><trkpt lat="44.993275" lon="7.6714783"><ele>221.33333333333334</ele><time>2026-05-01T10:27:33.354Z</time></trkpt><trkpt lat="44.9930783" lon="7.6714667"><ele>221.66666666666669</ele><time>2026-05-01T10:27:34.353Z</time></trkpt><trkpt lat="44.992885" lon="7.6714517"><ele>222.0</ele><time>2026-05-01T10:27:35.35Z</time></trkpt><trkpt lat="44.9926883" lon="7.67144"><ele>222.0</ele><time>2026-05-01T10:27:36.352Z</time></trkpt><trkpt lat="44.992495" lon="7.6714283"><ele>222.0</ele><time>2026-05-01T10:27:37.352Z</time></trkpt><trkpt lat="44.992305" lon="7.6714183"><ele>222.0</ele><time>2026-05-01T10:27:38.356Z</time></trkpt><trkpt lat="44.992115" lon="7.6714083"><ele>222.0</ele><time>2026-05-01T10:27:39.354Z</time></trkpt><trkpt lat="44.9919267" lon="7.6713967"><ele>222.0</ele><time>2026-05-01T10:27:40.351Z</time></trkpt><trkpt lat="44.99174" lon="7.6713833"><ele>222.0</ele><time>2026-05-01T10:27:41.352Z</time></trkpt><trkpt lat="44.9915633" lon="7.67137"><ele>222.0</ele><time>2026-05-01T10:27:42.349Z</time></trkpt><trkpt lat="44.9913967" lon="7.67136"><ele>222.0</ele><time>2026-05-01T10:27:43.351Z</time></trkpt><trkpt lat="44.9912367" lon="7.6713517"><ele>222.0</ele><time>2026-05-01T10:27:44.352Z</time></trkpt><trkpt lat="44.9910783" lon="7.67134"><ele>222.0</ele><time>2026-05-01T10:27:45.351Z</time></trkpt><trkpt lat="44.99092" lon="7.6713267"><ele>222.0</ele><time>2026-05-01T10:27:46.352Z</time></trkpt><trkpt lat="44.990755" lon="7.6713133"><ele>222.0</ele><time>2026-05-01T10:27:47.351Z</time></trkpt><trkpt lat="44.9905883" lon="7.6713"><ele>222.33333333333331</ele><time>2026-05-01T10:27:48.353Z</time></trkpt><trkpt lat="44.9904167" lon="7.671285"><ele>222.66666666666666</ele><time>2026-05-01T10:27:49.351Z</time></trkpt><trkpt lat="44.9902417" lon="7.6712683"><ele>223.0</ele><time>2026-05-01T10:27:50.351Z</time></trkpt><trkpt lat="44.990065" lon="7.67125"><ele>222.66666666666666</ele><time>2026-05-01T10:27:51.352Z</time></trkpt><trkpt lat="44.9898783" lon="7.671235"><ele>222.33333333333331</ele><time>2026-05-01T10:27:52.354Z</time></trkpt><trkpt lat="44.98969" lon="7.67122"><ele>222.0</ele><time>2026-05-01T10:27:53.351Z</time></trkpt><trkpt lat="44.9895017" lon="7.671205"><ele>222.0</ele><time>2026-05-01T10:27:54.352Z</time></trkpt><trkpt lat="44.989315" lon="7.67119"><ele>222.0</ele><time>2026-05-01T10:27:55.353Z</time></trkpt><trkpt lat="44.989135" lon="7.671175"><ele>222.0</ele><time>2026-05-01T10:27:56.359Z</time></trkpt><trkpt lat="44.9889633" lon="7.6711633"><ele>221.66666666666669</ele><time>2026-05-01T10:27:57.355Z</time></trkpt><trkpt lat="44.9887967" lon="7.6711517"><ele>221.33333333333334</ele><time>2026-05-01T10:27:58.355Z</time></trkpt><trkpt lat="44.9886417" lon="7.6711383"><ele>221.0</ele><time>2026-05-01T10:27:59.351Z</time></trkpt><trkpt lat="44.9884933" lon="7.6711267"><ele>221.0</ele><time>2026-05-01T10:28:00.348Z</time></trkpt><trkpt lat="44.988355" lon="7.671115"><ele>221.00000000000003</ele><time>2026-05-01T10:28:01.356Z</time></trkpt><trkpt lat="44.9882333" lon="7.671105"><ele>221.00000000000003</ele><time>2026-05-01T10:28:02.356Z</time></trkpt><trkpt lat="44.9881333" lon="7.671095"><ele>221.0</ele><time>2026-05-01T10:28:03.354Z</time></trkpt><trkpt lat="44.9880517" lon="7.6710883"><ele>221.0</ele><time>2026-05-01T10:28:04.35Z</time></trkpt><trkpt lat="44.98794" lon="7.6710783"><ele>220.8</ele><time>2026-05-01T10:28:06.352Z</time></trkpt><trkpt lat="44.9878683" lon="7.6710767"><ele>220.60000000000002</ele><time>2026-05-01T10:28:08.353Z</time></trkpt><trkpt lat="44.9877583" lon="7.6710517"><ele>220.4</ele><time>2026-05-01T10:28:19.349Z</time></trkpt><trkpt lat="44.98766" lon="7.6710467"><ele>220.2</ele><time>2026-05-01T10:28:20.36Z</time></trkpt><trkpt lat="44.9875533" lon="7.6710433"><ele>220.0</ele><time>2026-05-01T10:28:21.352Z</time></trkpt><trkpt lat="44.987435" lon="7.6710383"><ele>220.0</ele><time>2026-05-01T10:28:22.354Z</time></trkpt><trkpt lat="44.9873083" lon="7.6710283"><ele>220.0</ele><time>2026-05-01T10:28:23.353Z</time></trkpt><trkpt lat="44.9871783" lon="7.6710117"><ele>220.0</ele><time>2026-05-01T10:28:24.352Z</time></trkpt><trkpt lat="44.9870417" lon="7.6710083"><ele>220.0</ele><time>2026-05-01T10:28:25.351Z</time></trkpt><trkpt lat="44.9869" lon="7.6710017"><ele>220.0</ele><time>2026-05-01T10:28:26.351Z</time></trkpt><trkpt lat="44.9867483" lon="7.6709917"><ele>220.0</ele><time>2026-05-01T10:28:27.356Z</time></trkpt><trkpt lat="44.9865917" lon="7.6709783"><ele>220.0</ele><time>2026-05-01T10:28:28.356Z</time></trkpt><trkpt lat="44.986425" lon="7.6709667"><ele>221.0</ele><time>2026-05-01T10:28:29.348Z</time></trkpt><trkpt lat="44.9862533" lon="7.670955"><ele>222.0</ele><time>2026-05-01T10:28:30.351Z</time></trkpt><trkpt lat="44.9860817" lon="7.670945"><ele>223.0</ele><time>2026-05-01T10:28:31.349Z</time></trkpt><trkpt lat="44.9859067" lon="7.6709333"><ele>223.0</ele><time>2026-05-01T10:28:32.352Z</time></trkpt><trkpt lat="44.9857233" lon="7.6709217"><ele>223.0</ele><time>2026-05-01T10:28:33.353Z</time></trkpt><trkpt lat="44.9855367" lon="7.67091"><ele>223.0</ele><time>2026-05-01T10:28:34.35Z</time></trkpt><trkpt lat="44.985355" lon="7.6708967"><ele>223.0</ele><time>2026-05-01T10:28:35.358Z</time></trkpt><trkpt lat="44.9851817" lon="7.6708867"><ele>223.0</ele><time>2026-05-01T10:28:36.349Z</time></trkpt><trkpt lat="44.9850233" lon="7.6708733"><ele>223.0</ele><time>2026-05-01T10:28:37.35Z</time></trkpt><trkpt lat="44.9848767" lon="7.6708483"><ele>222.75</ele><time>2026-05-01T10:28:38.348Z</time></trkpt><trkpt lat="44.9847517" lon="7.6707983"><ele>222.5</ele><time>2026-05-01T10:28:39.349Z</time></trkpt><trkpt lat="44.9846417" lon="7.670725"><ele>222.25</ele><time>2026-05-01T10:28:40.352Z</time></trkpt><trkpt lat="44.984535" lon="7.6706633"><ele>222.0</ele><time>2026-05-01T10:28:41.35Z</time></trkpt><trkpt lat="44.984425" lon="7.6706467"><ele>222.0</ele><time>2026-05-01T10:28:42.351Z</time></trkpt><trkpt lat="44.9843017" lon="7.6706867"><ele>222.0</ele><time>2026-05-01T10:28:43.349Z</time></trkpt><trkpt lat="44.984175" lon="7.6707467"><ele>222.0</ele><time>2026-05-01T10:28:44.353Z</time></trkpt><trkpt lat="44.98403" lon="7.6707883"><ele>222.0</ele><time>2026-05-01T10:28:45.358Z</time></trkpt><trkpt lat="44.9838733" lon="7.6707933"><ele>222.0</ele><time>2026-05-01T10:28:46.354Z</time></trkpt><trkpt lat="44.983705" lon="7.6707833"><ele>222.0</ele><time>2026-05-01T10:28:47.352Z</time></trkpt><trkpt lat="44.9835283" lon="7.6707717"><ele>222.0</ele><time>2026-05-01T10:28:48.351Z</time></trkpt><trkpt lat="44.9833467" lon="7.67076"><ele>222.0</ele><time>2026-05-01T10:28:49.35Z</time></trkpt><trkpt lat="44.983165" lon="7.670745"><ele>222.0</ele><time>2026-05-01T10:28:50.362Z</time></trkpt><trkpt lat="44.9829883" lon="7.6707317"><ele>222.0</ele><time>2026-05-01T10:28:51.351Z</time></trkpt><trkpt lat="44.9828267" lon="7.6707217"><ele>222.0</ele><time>2026-05-01T10:28:52.35Z</time></trkpt><trkpt lat="44.982675" lon="7.6707133"><ele>222.0</ele><time>2026-05-01T10:28:53.349Z</time></trkpt><trkpt lat="44.9825333" lon="7.6707"><ele>222.0</ele><time>2026-05-01T10:28:54.351Z</time></trkpt><trkpt lat="44.982395" lon="7.6706817"><ele>222.0</ele><time>2026-05-01T10:28:55.357Z</time></trkpt><trkpt lat="44.9822533" lon="7.6706667"><ele>222.0</ele><time>2026-05-01T10:28:56.352Z</time></trkpt><trkpt lat="44.9821033" lon="7.670655"><ele>222.0</ele><time>2026-05-01T10:28:57.354Z</time></trkpt><trkpt lat="44.9819533" lon="7.670645"><ele>222.0</ele><time>2026-05-01T10:28:58.358Z</time></trkpt><trkpt lat="44.9817983" lon="7.6706367"><ele>222.0</ele><time>2026-05-01T10:28:59.35Z</time></trkpt><trkpt lat="44.98164" lon="7.6706267"><ele>222.0</ele><time>2026-05-01T10:29:00.353Z</time></trkpt><trkpt lat="44.98148" lon="7.670615"><ele>222.0</ele><time>2026-05-01T10:29:01.359Z</time></trkpt><trkpt lat="44.9813183" lon="7.6706017"><ele>222.0</ele><time>2026-05-01T10:29:02.355Z</time></trkpt><trkpt lat="44.98116" lon="7.6705917"><ele>222.0</ele><time>2026-05-01T10:29:03.352Z</time></trkpt><trkpt lat="44.9810117" lon="7.6705833"><ele>222.0</ele><time>2026-05-01T10:29:04.354Z</time></trkpt><trkpt lat="44.9808883" lon="7.670575"><ele>222.0</ele><time>2026-05-01T10:29:05.356Z</time></trkpt><trkpt lat="44.9807917" lon="7.6705667"><ele>222.39999999999998</ele><time>2026-05-01T10:29:06.352Z</time></trkpt><trkpt lat="44.9807183" lon="7.6705567"><ele>222.79999999999998</ele><time>2026-05-01T10:29:07.349Z</time></trkpt><trkpt lat="44.9806167" lon="7.670545"><ele>223.2</ele><time>2026-05-01T10:29:09.352Z</time></trkpt><trkpt lat="44.98052" lon="7.6705417"><ele>223.6</ele><time>2026-05-01T10:29:11.351Z</time></trkpt><trkpt lat="44.980395" lon="7.67054"><ele>224.0</ele><time>2026-05-01T10:29:13.352Z</time></trkpt><trkpt lat="44.9803167" lon="7.67054"><ele>224.0</ele><time>2026-05-01T10:29:14.352Z</time></trkpt><trkpt lat="44.98023" lon="7.6705383"><ele>223.99999999999997</ele><time>2026-05-01T10:29:15.352Z</time></trkpt><trkpt lat="44.9801367" lon="7.6705333"><ele>223.99999999999997</ele><time>2026-05-01T10:29:16.352Z</time></trkpt><trkpt lat="44.9800317" lon="7.670525"><ele>224.0</ele><time>2026-05-01T10:29:17.348Z</time></trkpt><trkpt lat="44.979925" lon="7.67052"><ele>224.0</ele><time>2026-05-01T10:29:18.355Z</time></trkpt><trkpt lat="44.9798183" lon="7.6705133"><ele>224.0</ele><time>2026-05-01T10:29:19.355Z</time></trkpt><trkpt lat="44.9797083" lon="7.6705067"><ele>224.0</ele><time>2026-05-01T10:29:20.353Z</time></trkpt><trkpt lat="44.9795967" lon="7.6704983"><ele>224.0</ele><time>2026-05-01T10:29:21.354Z</time></trkpt><trkpt lat="44.9794833" lon="7.6704917"><ele>224.0</ele><time>2026-05-01T10:29:22.353Z</time></trkpt><trkpt lat="44.9793617" lon="7.6704833"><ele>224.0</ele><time>2026-05-01T10:29:23.352Z</time></trkpt><trkpt lat="44.97925" lon="7.6704733"><ele>224.0</ele><time>2026-05-01T10:29:24.355Z</time></trkpt><trkpt lat="44.97913" lon="7.6704683"><ele>224.0</ele><time>2026-05-01T10:29:25.348Z</time></trkpt><trkpt lat="44.978995" lon="7.67047"><ele>224.0</ele><time>2026-05-01T10:29:26.354Z</time></trkpt><trkpt lat="44.9788433" lon="7.6704667"><ele>224.0</ele><time>2026-05-01T10:29:27.352Z</time></trkpt><trkpt lat="44.9786717" lon="7.670455"><ele>224.0</ele><time>2026-05-01T10:29:28.354Z</time></trkpt><trkpt lat="44.9784883" lon="7.670435"><ele>224.0</ele><time>2026-05-01T10:29:29.353Z</time></trkpt><trkpt lat="44.97831" lon="7.670415"><ele>223.66666666666669</ele><time>2026-05-01T10:29:30.35Z</time></trkpt><trkpt lat="44.9781317" lon="7.6703967"><ele>223.33333333333331</ele><time>2026-05-01T10:29:31.352Z</time></trkpt><trkpt lat="44.9779483" lon="7.6703833"><ele>223.0</ele><time>2026-05-01T10:29:32.354Z</time></trkpt><trkpt lat="44.9777617" lon="7.6703717"><ele>223.0</ele><time>2026-05-01T10:29:33.353Z</time></trkpt><trkpt lat="44.97757" lon="7.6703567"><ele>223.0</ele><time>2026-05-01T10:29:34.355Z</time></trkpt><trkpt lat="44.9773767" lon="7.6703433"><ele>223.0</ele><time>2026-05-01T10:29:35.355Z</time></trkpt><trkpt lat="44.9771867" lon="7.67033"><ele>223.33333333333331</ele><time>2026-05-01T10:29:36.352Z</time></trkpt><trkpt lat="44.9770033" lon="7.6703117"><ele>223.66666666666669</ele><time>2026-05-01T10:29:37.356Z</time></trkpt><trkpt lat="44.9768233" lon="7.6702917"><ele>224.0</ele><time>2026-05-01T10:29:38.351Z</time></trkpt><trkpt lat="44.97665" lon="7.6702717"><ele>224.0</ele><time>2026-05-01T10:29:39.349Z</time></trkpt><trkpt lat="44.9764883" lon="7.67025"><ele>224.0</ele><time>2026-05-01T10:29:40.351Z</time></trkpt><trkpt lat="44.9763383" lon="7.670225"><ele>224.0</ele><time>2026-05-01T10:29:41.351Z</time></trkpt><trkpt lat="44.9761967" lon="7.670195"><ele>224.0</ele><time>2026-05-01T10:29:42.35Z</time></trkpt><trkpt lat="44.9760617" lon="7.6701667"><ele>224.0</ele><time>2026-05-01T10:29:43.349Z</time></trkpt><trkpt lat="44.97594" lon="7.6701383"><ele>224.0</ele><time>2026-05-01T10:29:44.349Z</time></trkpt><trkpt lat="44.9758217" lon="7.6701083"><ele>224.0</ele><time>2026-05-01T10:29:45.349Z</time></trkpt><trkpt lat="44.9757117" lon="7.670075"><ele>223.79999999999998</ele><time>2026-05-01T10:29:46.349Z</time></trkpt><trkpt lat="44.9756117" lon="7.6700333"><ele>223.59999999999997</ele><time>2026-05-01T10:29:47.348Z</time></trkpt><trkpt lat="44.9755233" lon="7.6699733"><ele>223.4</ele><time>2026-05-01T10:29:48.351Z</time></trkpt><trkpt lat="44.97544" lon="7.6698883"><ele>223.2</ele><time>2026-05-01T10:29:49.349Z</time></trkpt><trkpt lat="44.9753583" lon="7.66979"><ele>223.0</ele><time>2026-05-01T10:29:50.349Z</time></trkpt><trkpt lat="44.975275" lon="7.6697033"><ele>223.0</ele><time>2026-05-01T10:29:51.352Z</time></trkpt><trkpt lat="44.9751883" lon="7.6696433"><ele>223.0</ele><time>2026-05-01T10:29:52.352Z</time></trkpt><trkpt lat="44.9750967" lon="7.669615"><ele>223.0</ele><time>2026-05-01T10:29:53.35Z</time></trkpt><trkpt lat="44.9749983" lon="7.6696233"><ele>223.0</ele><time>2026-05-01T10:29:54.354Z</time></trkpt><trkpt lat="44.9749" lon="7.66966"><ele>223.0</ele><time>2026-05-01T10:29:55.354Z</time></trkpt><trkpt lat="44.9747967" lon="7.6697183"><ele>223.5</ele><time>2026-05-01T10:29:56.354Z</time></trkpt><trkpt lat="44.9746817" lon="7.6697683"><ele>224.0</ele><time>2026-05-01T10:29:57.354Z</time></trkpt><trkpt lat="44.9745533" lon="7.6697967"><ele>224.5</ele><time>2026-05-01T10:29:58.355Z</time></trkpt><trkpt lat="44.9744117" lon="7.6698117"><ele>225.0</ele><time>2026-05-01T10:29:59.354Z</time></trkpt><trkpt lat="44.9742667" lon="7.6698133"><ele>224.66666666666669</ele><time>2026-05-01T10:30:00.352Z</time></trkpt><trkpt lat="44.974115" lon="7.669805"><ele>224.33333333333334</ele><time>2026-05-01T10:30:01.355Z</time></trkpt><trkpt lat="44.9739617" lon="7.66979"><ele>224.0</ele><time>2026-05-01T10:30:02.353Z</time></trkpt><trkpt lat="44.9738067" lon="7.6697717"><ele>224.0</ele><time>2026-05-01T10:30:03.356Z</time></trkpt><trkpt lat="44.973645" lon="7.6697533"><ele>224.0</ele><time>2026-05-01T10:30:04.355Z</time></trkpt><trkpt lat="44.973465" lon="7.6697417"><ele>224.0</ele><time>2026-05-01T10:30:05.351Z</time></trkpt><trkpt lat="44.9732683" lon="7.669735"><ele>224.33333333333334</ele><time>2026-05-01T10:30:06.352Z</time></trkpt><trkpt lat="44.97306" lon="7.669725"><ele>224.66666666666669</ele><time>2026-05-01T10:30:07.359Z</time></trkpt><trkpt lat="44.97285" lon="7.6697067"><ele>225.0</ele><time>2026-05-01T10:30:08.358Z</time></trkpt><trkpt lat="44.9726333" lon="7.6696933"><ele>224.66666666666669</ele><time>2026-05-01T10:30:09.361Z</time></trkpt><trkpt lat="44.9724117" lon="7.6696817"><ele>224.33333333333334</ele><time>2026-05-01T10:30:10.354Z</time></trkpt><trkpt lat="44.9721883" lon="7.6696717"><ele>224.0</ele><time>2026-05-01T10:30:11.353Z</time></trkpt><trkpt lat="44.9719583" lon="7.66966"><ele>224.0</ele><time>2026-05-01T10:30:12.352Z</time></trkpt><trkpt lat="44.9717183" lon="7.6696483"><ele>224.0</ele><time>2026-05-01T10:30:13.348Z</time></trkpt><trkpt lat="44.9714767" lon="7.6696333"><ele>224.5</ele><time>2026-05-01T10:30:14.349Z</time></trkpt><trkpt lat="44.9712367" lon="7.6696183"><ele>225.0</ele><time>2026-05-01T10:30:15.349Z</time></trkpt><trkpt lat="44.9709917" lon="7.6696033"><ele>223.5</ele><time>2026-05-01T10:30:16.349Z</time></trkpt><trkpt lat="44.97074" lon="7.6695933"><ele>222.0</ele><time>2026-05-01T10:30:17.351Z</time></trkpt><trkpt lat="44.970485" lon="7.66958"><ele>222.0</ele><time>2026-05-01T10:30:18.351Z</time></trkpt><trkpt lat="44.9702267" lon="7.6695667"><ele>222.0</ele><time>2026-05-01T10:30:19.352Z</time></trkpt><trkpt lat="44.969965" lon="7.6695533"><ele>223.5</ele><time>2026-05-01T10:30:20.352Z</time></trkpt><trkpt lat="44.969705" lon="7.6695383"><ele>225.0</ele><time>2026-05-01T10:30:21.353Z</time></trkpt><trkpt lat="44.969445" lon="7.6695217"><ele>224.5</ele><time>2026-05-01T10:30:22.352Z</time></trkpt><trkpt lat="44.9691917" lon="7.669505"><ele>224.0</ele><time>2026-05-01T10:30:23.352Z</time></trkpt><trkpt lat="44.9689433" lon="7.66949"><ele>224.0</ele><time>2026-05-01T10:30:24.352Z</time></trkpt><trkpt lat="44.9687033" lon="7.6694783"><ele>224.0</ele><time>2026-05-01T10:30:25.349Z</time></trkpt><trkpt lat="44.9684683" lon="7.66947"><ele>224.5</ele><time>2026-05-01T10:30:26.35Z</time></trkpt><trkpt lat="44.9682417" lon="7.66946"><ele>225.0</ele><time>2026-05-01T10:30:27.349Z</time></trkpt><trkpt lat="44.9680167" lon="7.66945"><ele>225.0</ele><time>2026-05-01T10:30:28.35Z</time></trkpt><trkpt lat="44.9677933" lon="7.6694417"><ele>225.0</ele><time>2026-05-01T10:30:29.349Z</time></trkpt><trkpt lat="44.9675717" lon="7.6694333"><ele>225.0</ele><time>2026-05-01T10:30:30.355Z</time></trkpt><trkpt lat="44.9673583" lon="7.6694233"><ele>225.0</ele><time>2026-05-01T10:30:31.356Z</time></trkpt><trkpt lat="44.96715" lon="7.66941"><ele>225.0</ele><time>2026-05-01T10:30:32.354Z</time></trkpt><trkpt lat="44.9669483" lon="7.6693967"><ele>225.0</ele><time>2026-05-01T10:30:33.348Z</time></trkpt><trkpt lat="44.9667567" lon="7.6693767"><ele>224.33333333333331</ele><time>2026-05-01T10:30:34.356Z</time></trkpt><trkpt lat="44.966575" lon="7.6693517"><ele>223.66666666666666</ele><time>2026-05-01T10:30:35.35Z</time></trkpt><trkpt lat="44.9664" lon="7.6693233"><ele>223.0</ele><time>2026-05-01T10:30:36.351Z</time></trkpt><trkpt lat="44.9662283" lon="7.6692933"><ele>223.0</ele><time>2026-05-01T10:30:37.349Z</time></trkpt><trkpt lat="44.9660617" lon="7.6692583"><ele>223.0</ele><time>2026-05-01T10:30:38.349Z</time></trkpt><trkpt lat="44.9658933" lon="7.6692183"><ele>223.0</ele><time>2026-05-01T10:30:39.354Z</time></trkpt><trkpt lat="44.9657267" lon="7.6691917"><ele>222.66666666666666</ele><time>2026-05-01T10:30:40.352Z</time></trkpt><trkpt lat="44.9655683" lon="7.669165"><ele>222.33333333333331</ele><time>2026-05-01T10:30:41.351Z</time></trkpt><trkpt lat="44.9654133" lon="7.66914"><ele>222.0</ele><time>2026-05-01T10:30:42.355Z</time></trkpt><trkpt lat="44.965265" lon="7.669105"><ele>222.0</ele><time>2026-05-01T10:30:43.351Z</time></trkpt><trkpt lat="44.965115" lon="7.6690583"><ele>222.0</ele><time>2026-05-01T10:30:44.352Z</time></trkpt><trkpt lat="44.9649617" lon="7.66901"><ele>222.0</ele><time>2026-05-01T10:30:45.35Z</time></trkpt><trkpt lat="44.9648033" lon="7.66897"><ele>223.0</ele><time>2026-05-01T10:30:46.351Z</time></trkpt><trkpt lat="44.964645" lon="7.6689133"><ele>224.0</ele><time>2026-05-01T10:30:47.355Z</time></trkpt><trkpt lat="44.96448" lon="7.6688517"><ele>225.0</ele><time>2026-05-01T10:30:48.353Z</time></trkpt><trkpt lat="44.9643067" lon="7.668805"><ele>225.33333333333331</ele><time>2026-05-01T10:30:49.351Z</time></trkpt><trkpt lat="44.964125" lon="7.6687617"><ele>225.66666666666666</ele><time>2026-05-01T10:30:50.349Z</time></trkpt><trkpt lat="44.96394" lon="7.6687133"><ele>226.0</ele><time>2026-05-01T10:30:51.353Z</time></trkpt><trkpt lat="44.963755" lon="7.6686633"><ele>226.0</ele><time>2026-05-01T10:30:52.353Z</time></trkpt><trkpt lat="44.9635717" lon="7.6686183"><ele>226.0</ele><time>2026-05-01T10:30:53.353Z</time></trkpt><trkpt lat="44.96339" lon="7.66857"><ele>226.0</ele><time>2026-05-01T10:30:54.349Z</time></trkpt><trkpt lat="44.9632117" lon="7.6685167"><ele>226.66666666666666</ele><time>2026-05-01T10:30:55.352Z</time></trkpt><trkpt lat="44.96303" lon="7.6684617"><ele>227.33333333333331</ele><time>2026-05-01T10:30:56.355Z</time></trkpt><trkpt lat="44.9628483" lon="7.66841"><ele>228.0</ele><time>2026-05-01T10:30:57.351Z</time></trkpt><trkpt lat="44.9626733" lon="7.6683567"><ele>227.66666666666669</ele><time>2026-05-01T10:30:58.35Z</time></trkpt><trkpt lat="44.9624983" lon="7.668305"><ele>227.33333333333334</ele><time>2026-05-01T10:30:59.354Z</time></trkpt><trkpt lat="44.962325" lon="7.6682617"><ele>227.0</ele><time>2026-05-01T10:31:00.354Z</time></trkpt><trkpt lat="44.9621483" lon="7.6682233"><ele>227.0</ele><time>2026-05-01T10:31:01.355Z</time></trkpt><trkpt lat="44.9619683" lon="7.6681883"><ele>227.0</ele><time>2026-05-01T10:31:02.351Z</time></trkpt><trkpt lat="44.9617917" lon="7.6681517"><ele>227.0</ele><time>2026-05-01T10:31:03.35Z</time></trkpt><trkpt lat="44.9616167" lon="7.668115"><ele>227.0</ele><time>2026-05-01T10:31:04.351Z</time></trkpt><trkpt lat="44.96145" lon="7.6680767"><ele>227.0</ele><time>2026-05-01T10:31:05.352Z</time></trkpt><trkpt lat="44.96129" lon="7.6680383"><ele>227.0</ele><time>2026-05-01T10:31:06.348Z</time></trkpt><trkpt lat="44.9611417" lon="7.6679967"><ele>227.0</ele><time>2026-05-01T10:31:07.349Z</time></trkpt><trkpt lat="44.961005" lon="7.6679617"><ele>227.0</ele><time>2026-05-01T10:31:08.354Z</time></trkpt><trkpt lat="44.96089" lon="7.6679283"><ele>227.0</ele><time>2026-05-01T10:31:09.35Z</time></trkpt><trkpt lat="44.9607967" lon="7.667885"><ele>227.0</ele><time>2026-05-01T10:31:10.35Z</time></trkpt><trkpt lat="44.9607233" lon="7.6678117"><ele>227.0</ele><time>2026-05-01T10:31:11.354Z</time></trkpt><trkpt lat="44.9606583" lon="7.6676933"><ele>226.75</ele><time>2026-05-01T10:31:12.354Z</time></trkpt><trkpt lat="44.9606" lon="7.6675467"><ele>226.5</ele><time>2026-05-01T10:31:13.351Z</time></trkpt><trkpt lat="44.9605433" lon="7.6673767"><ele>226.25</ele><time>2026-05-01T10:31:14.354Z</time></trkpt><trkpt lat="44.9604817" lon="7.66719"><ele>226.0</ele><time>2026-05-01T10:31:15.353Z</time></trkpt><trkpt lat="44.9604167" lon="7.66699"><ele>226.0</ele><time>2026-05-01T10:31:16.355Z</time></trkpt><trkpt lat="44.960345" lon="7.6667767"><ele>226.0</ele><time>2026-05-01T10:31:17.353Z</time></trkpt><trkpt lat="44.96027" lon="7.66655"><ele>226.0</ele><time>2026-05-01T10:31:18.353Z</time></trkpt><trkpt lat="44.96019" lon="7.6663083"><ele>226.0</ele><time>2026-05-01T10:31:19.353Z</time></trkpt><trkpt lat="44.9601067" lon="7.6660583"><ele>226.0</ele><time>2026-05-01T10:31:20.352Z</time></trkpt><trkpt lat="44.9600233" lon="7.66581"><ele>226.0</ele><time>2026-05-01T10:31:21.354Z</time></trkpt><trkpt lat="44.9599417" lon="7.6655617"><ele>226.0</ele><time>2026-05-01T10:31:22.354Z</time></trkpt><trkpt lat="44.9598583" lon="7.6653083"><ele>226.0</ele><time>2026-05-01T10:31:23.348Z</time></trkpt><trkpt lat="44.959775" lon="7.6650533"><ele>226.0</ele><time>2026-05-01T10:31:24.349Z</time></trkpt><trkpt lat="44.9596883" lon="7.6647933"><ele>226.0</ele><time>2026-05-01T10:31:25.354Z</time></trkpt><trkpt lat="44.9596033" lon="7.66453"><ele>226.0</ele><time>2026-05-01T10:31:26.349Z</time></trkpt><trkpt lat="44.9595133" lon="7.6642717"><ele>226.0</ele><time>2026-05-01T10:31:27.349Z</time></trkpt><trkpt lat="44.9594183" lon="7.664025"><ele>225.66666666666666</ele><time>2026-05-01T10:31:28.35Z</time></trkpt><trkpt lat="44.9593167" lon="7.6637917"><ele>225.33333333333331</ele><time>2026-05-01T10:31:29.352Z</time></trkpt><trkpt lat="44.9592083" lon="7.66358"><ele>225.0</ele><time>2026-05-01T10:31:30.354Z</time></trkpt><trkpt lat="44.9590933" lon="7.6633867"><ele>224.0</ele><time>2026-05-01T10:31:31.355Z</time></trkpt><trkpt lat="44.9589767" lon="7.66321"><ele>223.0</ele><time>2026-05-01T10:31:32.352Z</time></trkpt><trkpt lat="44.95886" lon="7.66305"><ele>222.0</ele><time>2026-05-01T10:31:33.355Z</time></trkpt><trkpt lat="44.9587367" lon="7.6629117"><ele>222.0</ele><time>2026-05-01T10:31:34.353Z</time></trkpt><trkpt lat="44.9586183" lon="7.66279"><ele>222.0</ele><time>2026-05-01T10:31:35.355Z</time></trkpt><trkpt lat="44.95851" lon="7.662685"><ele>222.0</ele><time>2026-05-01T10:31:36.351Z</time></trkpt><trkpt lat="44.9584167" lon="7.6625967"><ele>222.0</ele><time>2026-05-01T10:31:37.352Z</time></trkpt><trkpt lat="44.95834" lon="7.662525"><ele>222.8</ele><time>2026-05-01T10:31:38.348Z</time></trkpt><trkpt lat="44.95827" lon="7.662465"><ele>223.6</ele><time>2026-05-01T10:31:39.353Z</time></trkpt><trkpt lat="44.9581967" lon="7.662405"><ele>224.40000000000003</ele><time>2026-05-01T10:31:40.352Z</time></trkpt><trkpt lat="44.9581167" lon="7.6623367"><ele>225.20000000000002</ele><time>2026-05-01T10:31:41.353Z</time></trkpt><trkpt lat="44.9580317" lon="7.66225"><ele>226.0</ele><time>2026-05-01T10:31:42.354Z</time></trkpt><trkpt lat="44.95794" lon="7.6621433"><ele>226.0</ele><time>2026-05-01T10:31:43.354Z</time></trkpt><trkpt lat="44.9578383" lon="7.6620267"><ele>226.0</ele><time>2026-05-01T10:31:44.352Z</time></trkpt><trkpt lat="44.9577267" lon="7.6619033"><ele>226.0</ele><time>2026-05-01T10:31:45.352Z</time></trkpt><trkpt lat="44.9576083" lon="7.66177"><ele>226.0</ele><time>2026-05-01T10:31:46.353Z</time></trkpt><trkpt lat="44.9574867" lon="7.6616333"><ele>227.0</ele><time>2026-05-01T10:31:47.353Z</time></trkpt><trkpt lat="44.9573567" lon="7.6614917"><ele>228.0</ele><time>2026-05-01T10:31:48.351Z</time></trkpt><trkpt lat="44.9572233" lon="7.661345"><ele>229.0</ele><time>2026-05-01T10:31:49.353Z</time></trkpt><trkpt lat="44.9570883" lon="7.661195"><ele>228.33333333333331</ele><time>2026-05-01T10:31:50.353Z</time></trkpt><trkpt lat="44.9569517" lon="7.6610433"><ele>227.66666666666669</ele><time>2026-05-01T10:31:51.35Z</time></trkpt><trkpt lat="44.9568167" lon="7.6608917"><ele>227.0</ele><time>2026-05-01T10:31:52.35Z</time></trkpt><trkpt lat="44.9566783" lon="7.660735"><ele>227.0</ele><time>2026-05-01T10:31:53.353Z</time></trkpt><trkpt lat="44.956535" lon="7.660575"><ele>227.0</ele><time>2026-05-01T10:31:54.353Z</time></trkpt><trkpt lat="44.95639" lon="7.6604117"><ele>227.0</ele><time>2026-05-01T10:31:55.358Z</time></trkpt><trkpt lat="44.95624" lon="7.6602467"><ele>227.0</ele><time>2026-05-01T10:31:56.353Z</time></trkpt><trkpt lat="44.9560867" lon="7.6600817"><ele>227.0</ele><time>2026-05-01T10:31:57.351Z</time></trkpt><trkpt lat="44.95593" lon="7.6599133"><ele>227.0</ele><time>2026-05-01T10:31:58.354Z</time></trkpt><trkpt lat="44.9557733" lon="7.65974"><ele>227.0</ele><time>2026-05-01T10:31:59.352Z</time></trkpt><trkpt lat="44.9556167" lon="7.659565"><ele>227.0</ele><time>2026-05-01T10:32:00.355Z</time></trkpt><trkpt lat="44.9554567" lon="7.6593867"><ele>227.0</ele><time>2026-05-01T10:32:01.353Z</time></trkpt><trkpt lat="44.9552967" lon="7.659205"><ele>227.0</ele><time>2026-05-01T10:32:02.348Z</time></trkpt><trkpt lat="44.9551367" lon="7.6590267"><ele>227.0</ele><time>2026-05-01T10:32:03.357Z</time></trkpt><trkpt lat="44.95498" lon="7.6588517"><ele>227.0</ele><time>2026-05-01T10:32:04.354Z</time></trkpt><trkpt lat="44.95483" lon="7.65868"><ele>227.0</ele><time>2026-05-01T10:32:05.353Z</time></trkpt><trkpt lat="44.95469" lon="7.65851"><ele>227.0</ele><time>2026-05-01T10:32:06.354Z</time></trkpt><trkpt lat="44.9545683" lon="7.6583333"><ele>227.0</ele><time>2026-05-01T10:32:07.354Z</time></trkpt><trkpt lat="44.9544717" lon="7.6581383"><ele>227.0</ele><time>2026-05-01T10:32:08.353Z</time></trkpt><trkpt lat="44.954405" lon="7.6579167"><ele>227.0</ele><time>2026-05-01T10:32:09.352Z</time></trkpt><trkpt lat="44.95437" lon="7.6576717"><ele>227.0</ele><time>2026-05-01T10:32:10.353Z</time></trkpt><trkpt lat="44.9543417" lon="7.6574133"><ele>227.0</ele><time>2026-05-01T10:32:11.352Z</time></trkpt><trkpt lat="44.9543083" lon="7.657145"><ele>227.0</ele><time>2026-05-01T10:32:12.354Z</time></trkpt><trkpt lat="44.9542767" lon="7.65687"><ele>227.0</ele><time>2026-05-01T10:32:13.355Z</time></trkpt><trkpt lat="44.9542417" lon="7.65659"><ele>226.66666666666669</ele><time>2026-05-01T10:32:14.351Z</time></trkpt><trkpt lat="44.9542067" lon="7.656305"><ele>226.33333333333331</ele><time>2026-05-01T10:32:15.353Z</time></trkpt><trkpt lat="44.9541683" lon="7.6560217"><ele>226.0</ele><time>2026-05-01T10:32:16.353Z</time></trkpt><trkpt lat="44.95413" lon="7.6557417"><ele>225.66666666666666</ele><time>2026-05-01T10:32:17.359Z</time></trkpt><trkpt lat="44.954095" lon="7.655465"><ele>225.33333333333331</ele><time>2026-05-01T10:32:18.353Z</time></trkpt><trkpt lat="44.9540633" lon="7.655195"><ele>225.0</ele><time>2026-05-01T10:32:19.351Z</time></trkpt><trkpt lat="44.9540317" lon="7.6549283"><ele>225.66666666666669</ele><time>2026-05-01T10:32:20.45Z</time></trkpt><trkpt lat="44.9539967" lon="7.654665"><ele>226.33333333333334</ele><time>2026-05-01T10:32:21.352Z</time></trkpt><trkpt lat="44.95396" lon="7.6544017"><ele>227.0</ele><time>2026-05-01T10:32:22.352Z</time></trkpt><trkpt lat="44.95392" lon="7.6541417"><ele>227.0</ele><time>2026-05-01T10:32:23.354Z</time></trkpt><trkpt lat="44.9538783" lon="7.65388"><ele>227.0</ele><time>2026-05-01T10:32:24.35Z</time></trkpt><trkpt lat="44.9538267" lon="7.6536233"><ele>227.0</ele><time>2026-05-01T10:32:25.359Z</time></trkpt><trkpt lat="44.95376" lon="7.6533783"><ele>227.0</ele><time>2026-05-01T10:32:26.355Z</time></trkpt><trkpt lat="44.953675" lon="7.6531483"><ele>227.0</ele><time>2026-05-01T10:32:27.35Z</time></trkpt><trkpt lat="44.9535667" lon="7.6529317"><ele>227.0</ele><time>2026-05-01T10:32:28.35Z</time></trkpt><trkpt lat="44.9534433" lon="7.6527283"><ele>228.33333333333334</ele><time>2026-05-01T10:32:29.357Z</time></trkpt><trkpt lat="44.9533117" lon="7.6525367"><ele>229.66666666666669</ele><time>2026-05-01T10:32:30.351Z</time></trkpt><trkpt lat="44.9531817" lon="7.6523517"><ele>231.0</ele><time>2026-05-01T10:32:31.354Z</time></trkpt><trkpt lat="44.95306" lon="7.6521783"><ele>231.0</ele><time>2026-05-01T10:32:32.35Z</time></trkpt><trkpt lat="44.9529517" lon="7.6520117"><ele>231.0</ele><time>2026-05-01T10:32:33.352Z</time></trkpt><trkpt lat="44.9528567" lon="7.65185"><ele>231.0</ele><time>2026-05-01T10:32:34.35Z</time></trkpt><trkpt lat="44.9527783" lon="7.6516933"><ele>231.0</ele><time>2026-05-01T10:32:35.355Z</time></trkpt><trkpt lat="44.9527167" lon="7.6515517"><ele>230.33333333333334</ele><time>2026-05-01T10:32:36.354Z</time></trkpt><trkpt lat="44.9526717" lon="7.65142"><ele>229.66666666666669</ele><time>2026-05-01T10:32:37.35Z</time></trkpt><trkpt lat="44.9526417" lon="7.651295"><ele>229.0</ele><time>2026-05-01T10:32:38.351Z</time></trkpt><trkpt lat="44.95263" lon="7.6511817"><ele>228.33333333333334</ele><time>2026-05-01T10:32:39.351Z</time></trkpt><trkpt lat="44.9526383" lon="7.6510667"><ele>227.66666666666669</ele><time>2026-05-01T10:32:40.351Z</time></trkpt><trkpt lat="44.9526383" lon="7.6509517"><ele>227.0</ele><time>2026-05-01T10:32:41.354Z</time></trkpt><trkpt lat="44.9526233" lon="7.6508467"><ele>227.0</ele><time>2026-05-01T10:32:42.349Z</time></trkpt><trkpt lat="44.952585" lon="7.6507517"><ele>227.0</ele><time>2026-05-01T10:32:43.353Z</time></trkpt><trkpt lat="44.95253" lon="7.6506917"><ele>227.0</ele><time>2026-05-01T10:32:44.348Z</time></trkpt><trkpt lat="44.9524233" lon="7.6507183"><ele>227.0</ele><time>2026-05-01T10:32:45.35Z</time></trkpt><trkpt lat="44.9523117" lon="7.6507483"><ele>227.0</ele><time>2026-05-01T10:32:46.353Z</time></trkpt><trkpt lat="44.9521917" lon="7.65075"><ele>227.5</ele><time>2026-05-01T10:32:47.354Z</time></trkpt><trkpt lat="44.9520667" lon="7.6507133"><ele>228.0</ele><time>2026-05-01T10:32:48.355Z</time></trkpt><trkpt lat="44.951955" lon="7.6506367"><ele>228.5</ele><time>2026-05-01T10:32:49.353Z</time></trkpt><trkpt lat="44.9518567" lon="7.6505183"><ele>229.0</ele><time>2026-05-01T10:32:50.353Z</time></trkpt><trkpt lat="44.9517617" lon="7.6503683"><ele>229.33333333333331</ele><time>2026-05-01T10:32:51.353Z</time></trkpt><trkpt lat="44.9516683" lon="7.650195"><ele>229.66666666666669</ele><time>2026-05-01T10:32:52.352Z</time></trkpt><trkpt lat="44.951575" lon="7.650005"><ele>230.0</ele><time>2026-05-01T10:32:53.353Z</time></trkpt><trkpt lat="44.95149" lon="7.6497967"><ele>230.0</ele><time>2026-05-01T10:32:54.351Z</time></trkpt><trkpt lat="44.9514133" lon="7.64957"><ele>230.0</ele><time>2026-05-01T10:32:55.353Z</time></trkpt><trkpt lat="44.9513417" lon="7.64933"><ele>230.0</ele><time>2026-05-01T10:32:56.356Z</time></trkpt><trkpt lat="44.951275" lon="7.649085"><ele>229.66666666666669</ele><time>2026-05-01T10:32:57.356Z</time></trkpt><trkpt lat="44.951215" lon="7.6488333"><ele>229.33333333333331</ele><time>2026-05-01T10:32:58.353Z</time></trkpt><trkpt lat="44.951165" lon="7.648575"><ele>229.0</ele><time>2026-05-01T10:32:59.353Z</time></trkpt><trkpt lat="44.9511317" lon="7.6483133"><ele>229.0</ele><time>2026-05-01T10:33:00.353Z</time></trkpt><trkpt lat="44.951115" lon="7.6480467"><ele>229.0</ele><time>2026-05-01T10:33:01.354Z</time></trkpt><trkpt lat="44.9511167" lon="7.6477783"><ele>229.0</ele><time>2026-05-01T10:33:02.355Z</time></trkpt><trkpt lat="44.9511333" lon="7.6475083"><ele>229.0</ele><time>2026-05-01T10:33:03.355Z</time></trkpt><trkpt lat="44.9511583" lon="7.6472433"><ele>229.0</ele><time>2026-05-01T10:33:04.352Z</time></trkpt><trkpt lat="44.9511867" lon="7.6469933"><ele>229.0</ele><time>2026-05-01T10:33:05.352Z</time></trkpt><trkpt lat="44.9512017" lon="7.6467533"><ele>229.0</ele><time>2026-05-01T10:33:06.356Z</time></trkpt><trkpt lat="44.9512" lon="7.6465217"><ele>229.0</ele><time>2026-05-01T10:33:07.351Z</time></trkpt><trkpt lat="44.951175" lon="7.6462917"><ele>229.0</ele><time>2026-05-01T10:33:08.354Z</time></trkpt><trkpt lat="44.95113" lon="7.6460717"><ele>229.33333333333331</ele><time>2026-05-01T10:33:09.349Z</time></trkpt><trkpt lat="44.9510633" lon="7.6458633"><ele>229.66666666666669</ele><time>2026-05-01T10:33:10.353Z</time></trkpt><trkpt lat="44.95097" lon="7.6456633"><ele>230.0</ele><time>2026-05-01T10:33:11.351Z</time></trkpt><trkpt lat="44.950855" lon="7.6454783"><ele>230.0</ele><time>2026-05-01T10:33:12.351Z</time></trkpt><trkpt lat="44.9507267" lon="7.6453017"><ele>230.0</ele><time>2026-05-01T10:33:13.351Z</time></trkpt><trkpt lat="44.9505983" lon="7.6451217"><ele>230.0</ele><time>2026-05-01T10:33:14.35Z</time></trkpt><trkpt lat="44.950485" lon="7.6449283"><ele>230.0</ele><time>2026-05-01T10:33:15.35Z</time></trkpt><trkpt lat="44.9503917" lon="7.6447283"><ele>230.0</ele><time>2026-05-01T10:33:16.352Z</time></trkpt><trkpt lat="44.9503217" lon="7.6445367"><ele>230.0</ele><time>2026-05-01T10:33:17.35Z</time></trkpt><trkpt lat="44.9502733" lon="7.6443667"><ele>230.0</ele><time>2026-05-01T10:33:18.35Z</time></trkpt><trkpt lat="44.9502467" lon="7.64421"><ele>230.0</ele><time>2026-05-01T10:33:19.35Z</time></trkpt><trkpt lat="44.95023" lon="7.644055"><ele>230.0</ele><time>2026-05-01T10:33:20.349Z</time></trkpt><trkpt lat="44.9502033" lon="7.6439017"><ele>230.0</ele><time>2026-05-01T10:33:21.351Z</time></trkpt><trkpt lat="44.95017" lon="7.643735"><ele>230.0</ele><time>2026-05-01T10:33:22.351Z</time></trkpt><trkpt lat="44.9501417" lon="7.6435467"><ele>230.0</ele><time>2026-05-01T10:33:23.352Z</time></trkpt><trkpt lat="44.950115" lon="7.6433417"><ele>230.0</ele><time>2026-05-01T10:33:24.352Z</time></trkpt><trkpt lat="44.9500867" lon="7.6431283"><ele>230.0</ele><time>2026-05-01T10:33:25.35Z</time></trkpt><trkpt lat="44.9500567" lon="7.6429033"><ele>230.33333333333334</ele><time>2026-05-01T10:33:26.356Z</time></trkpt><trkpt lat="44.9500267" lon="7.64267"><ele>230.66666666666669</ele><time>2026-05-01T10:33:27.354Z</time></trkpt><trkpt lat="44.9499917" lon="7.6424283"><ele>231.0</ele><time>2026-05-01T10:33:28.349Z</time></trkpt><trkpt lat="44.94996" lon="7.6421783"><ele>231.0</ele><time>2026-05-01T10:33:29.354Z</time></trkpt><trkpt lat="44.9499283" lon="7.6419283"><ele>231.0</ele><time>2026-05-01T10:33:30.354Z</time></trkpt><trkpt lat="44.9499" lon="7.6416733"><ele>231.0</ele><time>2026-05-01T10:33:31.353Z</time></trkpt><trkpt lat="44.9498683" lon="7.6414133"><ele>231.0</ele><time>2026-05-01T10:33:32.353Z</time></trkpt><trkpt lat="44.9498367" lon="7.6411533"><ele>231.0</ele><time>2026-05-01T10:33:33.352Z</time></trkpt><trkpt lat="44.9498033" lon="7.6409"><ele>231.0</ele><time>2026-05-01T10:33:34.351Z</time></trkpt><trkpt lat="44.9497733" lon="7.640645"><ele>231.33333333333331</ele><time>2026-05-01T10:33:35.352Z</time></trkpt><trkpt lat="44.9497433" lon="7.64039"><ele>231.66666666666666</ele><time>2026-05-01T10:33:36.349Z</time></trkpt><trkpt lat="44.9497083" lon="7.640145"><ele>232.0</ele><time>2026-05-01T10:33:37.35Z</time></trkpt><trkpt lat="44.9496767" lon="7.639915"><ele>232.25</ele><time>2026-05-01T10:33:38.352Z</time></trkpt><trkpt lat="44.9496517" lon="7.6397017"><ele>232.5</ele><time>2026-05-01T10:33:39.351Z</time></trkpt><trkpt lat="44.949625" lon="7.639515"><ele>232.75</ele><time>2026-05-01T10:33:40.351Z</time></trkpt><trkpt lat="44.94961" lon="7.6393633"><ele>233.0</ele><time>2026-05-01T10:33:41.357Z</time></trkpt><trkpt lat="44.9496" lon="7.6392433"><ele>233.0</ele><time>2026-05-01T10:33:42.351Z</time></trkpt><trkpt lat="44.9495983" lon="7.6391383"><ele>233.0</ele><time>2026-05-01T10:33:43.357Z</time></trkpt><trkpt lat="44.9495967" lon="7.639045"><ele>233.0</ele><time>2026-05-01T10:33:44.35Z</time></trkpt><trkpt lat="44.9495617" lon="7.638915"><ele>233.0</ele><time>2026-05-01T10:33:46.351Z</time></trkpt><trkpt lat="44.9494383" lon="7.638915"><ele>233.0</ele><time>2026-05-01T10:33:48.348Z</time></trkpt><trkpt lat="44.9493383" lon="7.6389317"><ele>233.0</ele><time>2026-05-01T10:33:49.349Z</time></trkpt><trkpt lat="44.94923" lon="7.6389317"><ele>233.0</ele><time>2026-05-01T10:33:50.351Z</time></trkpt><trkpt lat="44.9491167" lon="7.6389217"><ele>233.0</ele><time>2026-05-01T10:33:51.351Z</time></trkpt><trkpt lat="44.9489933" lon="7.6389033"><ele>233.0</ele><time>2026-05-01T10:33:52.355Z</time></trkpt><trkpt lat="44.9488817" lon="7.6388917"><ele>233.2</ele><time>2026-05-01T10:33:53.353Z</time></trkpt><trkpt lat="44.9487833" lon="7.638875"><ele>233.4</ele><time>2026-05-01T10:33:54.352Z</time></trkpt><trkpt lat="44.9486883" lon="7.638845"><ele>233.59999999999997</ele><time>2026-05-01T10:33:55.352Z</time></trkpt><trkpt lat="44.94859" lon="7.6387867"><ele>233.79999999999998</ele><time>2026-05-01T10:33:56.354Z</time></trkpt><trkpt lat="44.94849" lon="7.6387133"><ele>234.0</ele><time>2026-05-01T10:33:57.348Z</time></trkpt><trkpt lat="44.948375" lon="7.6386317"><ele>234.5</ele><time>2026-05-01T10:33:58.355Z</time></trkpt><trkpt lat="44.9482567" lon="7.63855"><ele>235.0</ele><time>2026-05-01T10:33:59.35Z</time></trkpt><trkpt lat="44.9481367" lon="7.6384617"><ele>235.5</ele><time>2026-05-01T10:34:00.349Z</time></trkpt><trkpt lat="44.9480117" lon="7.6383717"><ele>236.0</ele><time>2026-05-01T10:34:01.351Z</time></trkpt><trkpt lat="44.9478817" lon="7.6382917"><ele>236.0</ele><time>2026-05-01T10:34:02.349Z</time></trkpt><trkpt lat="44.9477467" lon="7.63822"><ele>236.0</ele><time>2026-05-01T10:34:03.352Z</time></trkpt><trkpt lat="44.9476067" lon="7.6381533"><ele>236.0</ele><time>2026-05-01T10:34:04.354Z</time></trkpt><trkpt lat="44.9474683" lon="7.6380967"><ele>236.0</ele><time>2026-05-01T10:34:05.353Z</time></trkpt><trkpt lat="44.9473317" lon="7.638045"><ele>236.25</ele><time>2026-05-01T10:34:06.353Z</time></trkpt><trkpt lat="44.9471917" lon="7.6379983"><ele>236.5</ele><time>2026-05-01T10:34:07.354Z</time></trkpt><trkpt lat="44.9470467" lon="7.6379517"><ele>236.75</ele><time>2026-05-01T10:34:08.354Z</time></trkpt><trkpt lat="44.9469017" lon="7.6378967"><ele>237.0</ele><time>2026-05-01T10:34:09.351Z</time></trkpt><trkpt lat="44.94675" lon="7.6378567"><ele>237.25</ele><time>2026-05-01T10:34:10.354Z</time></trkpt><trkpt lat="44.9466067" lon="7.6378217"><ele>237.5</ele><time>2026-05-01T10:34:11.357Z</time></trkpt><trkpt lat="44.9464667" lon="7.6377967"><ele>237.75</ele><time>2026-05-01T10:34:12.351Z</time></trkpt><trkpt lat="44.9463383" lon="7.637775"><ele>238.0</ele><time>2026-05-01T10:34:13.352Z</time></trkpt><trkpt lat="44.9462267" lon="7.63775"><ele>237.60000000000002</ele><time>2026-05-01T10:34:14.352Z</time></trkpt><trkpt lat="44.946125" lon="7.6377333"><ele>237.20000000000002</ele><time>2026-05-01T10:34:15.354Z</time></trkpt><trkpt lat="44.94602" lon="7.63772"><ele>236.8</ele><time>2026-05-01T10:34:16.354Z</time></trkpt><trkpt lat="44.94591" lon="7.6377067"><ele>236.4</ele><time>2026-05-01T10:34:17.351Z</time></trkpt><trkpt lat="44.9457933" lon="7.6376917"><ele>236.0</ele><time>2026-05-01T10:34:18.352Z</time></trkpt><trkpt lat="44.9456683" lon="7.6376767"><ele>236.0</ele><time>2026-05-01T10:34:19.352Z</time></trkpt><trkpt lat="44.945535" lon="7.6376633"><ele>236.0</ele><time>2026-05-01T10:34:20.349Z</time></trkpt><trkpt lat="44.9453967" lon="7.6376483"><ele>236.0</ele><time>2026-05-01T10:34:21.352Z</time></trkpt><trkpt lat="44.9452583" lon="7.6376267"><ele>236.0</ele><time>2026-05-01T10:34:22.348Z</time></trkpt><trkpt lat="44.945125" lon="7.6376033"><ele>236.0</ele><time>2026-05-01T10:34:23.351Z</time></trkpt><trkpt lat="44.944995" lon="7.6375767"><ele>236.0</ele><time>2026-05-01T10:34:24.354Z</time></trkpt><trkpt lat="44.9448617" lon="7.63755"><ele>236.0</ele><time>2026-05-01T10:34:25.352Z</time></trkpt><trkpt lat="44.9447267" lon="7.6375233"><ele>236.0</ele><time>2026-05-01T10:34:26.348Z</time></trkpt><trkpt lat="44.9445917" lon="7.637475"><ele>236.0</ele><time>2026-05-01T10:34:27.354Z</time></trkpt><trkpt lat="44.9444617" lon="7.637415"><ele>236.0</ele><time>2026-05-01T10:34:28.351Z</time></trkpt><trkpt lat="44.9443383" lon="7.6373583"><ele>236.0</ele><time>2026-05-01T10:34:29.352Z</time></trkpt><trkpt lat="44.9442283" lon="7.6373067"><ele>236.0</ele><time>2026-05-01T10:34:30.352Z</time></trkpt><trkpt lat="44.9441417" lon="7.6372683"><ele>235.83333333333334</ele><time>2026-05-01T10:34:31.353Z</time></trkpt><trkpt lat="44.94408" lon="7.6372467"><ele>235.66666666666669</ele><time>2026-05-01T10:34:32.352Z</time></trkpt><trkpt lat="44.9440067" lon="7.6372417"><ele>235.5</ele><time>2026-05-01T10:34:34.354Z</time></trkpt><trkpt lat="44.9439033" lon="7.6373083"><ele>235.33333333333331</ele><time>2026-05-01T10:34:36.352Z</time></trkpt><trkpt lat="44.94385" lon="7.6373783"><ele>235.16666666666666</ele><time>2026-05-01T10:34:37.351Z</time></trkpt><trkpt lat="44.943785" lon="7.6374717"><ele>235.0</ele><time>2026-05-01T10:34:38.352Z</time></trkpt><trkpt lat="44.943705" lon="7.6375717"><ele>235.0</ele><time>2026-05-01T10:34:39.349Z</time></trkpt><trkpt lat="44.9436083" lon="7.63767"><ele>235.0</ele><time>2026-05-01T10:34:40.352Z</time></trkpt><trkpt lat="44.9434967" lon="7.6377733"><ele>235.0</ele><time>2026-05-01T10:34:41.351Z</time></trkpt><trkpt lat="44.9433733" lon="7.637885"><ele>235.0</ele><time>2026-05-01T10:34:42.349Z</time></trkpt><trkpt lat="44.943255" lon="7.6379967"><ele>235.0</ele><time>2026-05-01T10:34:43.349Z</time></trkpt><trkpt lat="44.9431417" lon="7.6381067"><ele>235.0</ele><time>2026-05-01T10:34:44.35Z</time></trkpt><trkpt lat="44.9430383" lon="7.63822"><ele>235.0</ele><time>2026-05-01T10:34:45.355Z</time></trkpt><trkpt lat="44.942945" lon="7.638315"><ele>235.0</ele><time>2026-05-01T10:34:46.351Z</time></trkpt><trkpt lat="44.9428717" lon="7.6383967"><ele>234.99999999999997</ele><time>2026-05-01T10:34:47.352Z</time></trkpt><trkpt lat="44.9427983" lon="7.6384483"><ele>235.0</ele><time>2026-05-01T10:34:48.354Z</time></trkpt><trkpt lat="44.9427283" lon="7.6384717"><ele>235.0</ele><time>2026-05-01T10:34:49.352Z</time></trkpt><trkpt lat="44.9426533" lon="7.6384767"><ele>235.0</ele><time>2026-05-01T10:34:50.358Z</time></trkpt><trkpt lat="44.942575" lon="7.6384967"><ele>234.99999999999997</ele><time>2026-05-01T10:34:51.353Z</time></trkpt><trkpt lat="44.9425117" lon="7.6385433"><ele>235.0</ele><time>2026-05-01T10:34:52.354Z</time></trkpt><trkpt lat="44.9424833" lon="7.6386683"><ele>234.75</ele><time>2026-05-01T10:34:53.349Z</time></trkpt><trkpt lat="44.942465" lon="7.6388067"><ele>234.5</ele><time>2026-05-01T10:34:54.353Z</time></trkpt><trkpt lat="44.942445" lon="7.63898"><ele>234.25</ele><time>2026-05-01T10:34:55.35Z</time></trkpt><trkpt lat="44.9424083" lon="7.6391633"><ele>234.0</ele><time>2026-05-01T10:34:56.35Z</time></trkpt><trkpt lat="44.942355" lon="7.6393583"><ele>234.33333333333331</ele><time>2026-05-01T10:34:57.351Z</time></trkpt><trkpt lat="44.9422933" lon="7.6395567"><ele>234.66666666666666</ele><time>2026-05-01T10:34:58.355Z</time></trkpt><trkpt lat="44.9422233" lon="7.63976"><ele>235.0</ele><time>2026-05-01T10:34:59.354Z</time></trkpt><trkpt lat="44.9421483" lon="7.6399683"><ele>235.0</ele><time>2026-05-01T10:35:00.354Z</time></trkpt><trkpt lat="44.9420667" lon="7.64018"><ele>235.0</ele><time>2026-05-01T10:35:01.348Z</time></trkpt><trkpt lat="44.94198" lon="7.6403967"><ele>235.0</ele><time>2026-05-01T10:35:02.349Z</time></trkpt><trkpt lat="44.94189" lon="7.6406133"><ele>234.66666666666666</ele><time>2026-05-01T10:35:03.354Z</time></trkpt><trkpt lat="44.9417917" lon="7.6408383"><ele>234.33333333333331</ele><time>2026-05-01T10:35:04.353Z</time></trkpt><trkpt lat="44.94169" lon="7.641065"><ele>234.0</ele><time>2026-05-01T10:35:05.351Z</time></trkpt><trkpt lat="44.9415917" lon="7.6412817"><ele>234.0</ele><time>2026-05-01T10:35:06.349Z</time></trkpt><trkpt lat="44.9415" lon="7.6414917"><ele>234.0</ele><time>2026-05-01T10:35:07.351Z</time></trkpt><trkpt lat="44.9414083" lon="7.6416983"><ele>234.0</ele><time>2026-05-01T10:35:08.353Z</time></trkpt><trkpt lat="44.9413167" lon="7.6419033"><ele>234.0</ele><time>2026-05-01T10:35:09.354Z</time></trkpt><trkpt lat="44.941225" lon="7.6421117"><ele>234.0</ele><time>2026-05-01T10:35:10.355Z</time></trkpt><trkpt lat="44.94113" lon="7.6423233"><ele>234.0</ele><time>2026-05-01T10:35:11.353Z</time></trkpt><trkpt lat="44.9410333" lon="7.64254"><ele>234.0</ele><time>2026-05-01T10:35:12.353Z</time></trkpt><trkpt lat="44.9409333" lon="7.6427683"><ele>234.0</ele><time>2026-05-01T10:35:13.351Z</time></trkpt><trkpt lat="44.9408333" lon="7.6429967"><ele>234.0</ele><time>2026-05-01T10:35:14.353Z</time></trkpt><trkpt lat="44.94073" lon="7.643225"><ele>233.33333333333331</ele><time>2026-05-01T10:35:15.358Z</time></trkpt><trkpt lat="44.9406233" lon="7.6434583"><ele>232.66666666666666</ele><time>2026-05-01T10:35:16.354Z</time></trkpt><trkpt lat="44.9405183" lon="7.6436967"><ele>232.0</ele><time>2026-05-01T10:35:17.357Z</time></trkpt><trkpt lat="44.940415" lon="7.643935"><ele>232.0</ele><time>2026-05-01T10:35:18.357Z</time></trkpt><trkpt lat="44.9403083" lon="7.644175"><ele>232.0</ele><time>2026-05-01T10:35:19.354Z</time></trkpt><trkpt lat="44.9401983" lon="7.6444233"><ele>232.0</ele><time>2026-05-01T10:35:20.353Z</time></trkpt><trkpt lat="44.9400883" lon="7.6446767"><ele>231.66666666666666</ele><time>2026-05-01T10:35:21.353Z</time></trkpt><trkpt lat="44.9399733" lon="7.6449333"><ele>231.33333333333331</ele><time>2026-05-01T10:35:22.354Z</time></trkpt><trkpt lat="44.9398583" lon="7.6451933"><ele>231.0</ele><time>2026-05-01T10:35:23.35Z</time></trkpt><trkpt lat="44.93974" lon="7.6454567"><ele>231.0</ele><time>2026-05-01T10:35:24.354Z</time></trkpt><trkpt lat="44.9396233" lon="7.6457217"><ele>231.0</ele><time>2026-05-01T10:35:25.353Z</time></trkpt><trkpt lat="44.9395017" lon="7.645995"><ele>231.0</ele><time>2026-05-01T10:35:26.352Z</time></trkpt><trkpt lat="44.9393783" lon="7.6462717"><ele>230.5</ele><time>2026-05-01T10:35:27.35Z</time></trkpt><trkpt lat="44.9392533" lon="7.6465533"><ele>230.0</ele><time>2026-05-01T10:35:28.354Z</time></trkpt><trkpt lat="44.9391283" lon="7.6468383"><ele>231.0</ele><time>2026-05-01T10:35:29.354Z</time></trkpt><trkpt lat="44.9390033" lon="7.6471217"><ele>232.0</ele><time>2026-05-01T10:35:30.353Z</time></trkpt><trkpt lat="44.9388783" lon="7.6474033"><ele>232.0</ele><time>2026-05-01T10:35:31.354Z</time></trkpt><trkpt lat="44.9387517" lon="7.6476883"><ele>232.0</ele><time>2026-05-01T10:35:32.352Z</time></trkpt><trkpt lat="44.9386267" lon="7.64797"><ele>232.0</ele><time>2026-05-01T10:35:33.354Z</time></trkpt><trkpt lat="44.9385033" lon="7.6482567"><ele>232.0</ele><time>2026-05-01T10:35:34.356Z</time></trkpt><trkpt lat="44.9383833" lon="7.648545"><ele>231.5</ele><time>2026-05-01T10:35:35.356Z</time></trkpt><trkpt lat="44.9382667" lon="7.64884"><ele>231.0</ele><time>2026-05-01T10:35:36.352Z</time></trkpt><trkpt lat="44.9381533" lon="7.6491383"><ele>231.0</ele><time>2026-05-01T10:35:37.351Z</time></trkpt><trkpt lat="44.938045" lon="7.6494417"><ele>231.0</ele><time>2026-05-01T10:35:38.351Z</time></trkpt><trkpt lat="44.93794" lon="7.64975"><ele>231.0</ele><time>2026-05-01T10:35:39.351Z</time></trkpt><trkpt lat="44.9378367" lon="7.6500617"><ele>231.0</ele><time>2026-05-01T10:35:40.355Z</time></trkpt><trkpt lat="44.9377367" lon="7.6503783"><ele>231.0</ele><time>2026-05-01T10:35:41.354Z</time></trkpt><trkpt lat="44.93764" lon="7.6507"><ele>231.0</ele><time>2026-05-01T10:35:42.351Z</time></trkpt><trkpt lat="44.937545" lon="7.651025"><ele>231.5</ele><time>2026-05-01T10:35:43.349Z</time></trkpt><trkpt lat="44.9374517" lon="7.6513533"><ele>232.0</ele><time>2026-05-01T10:35:44.351Z</time></trkpt><trkpt lat="44.9373583" lon="7.6516867"><ele>232.0</ele><time>2026-05-01T10:35:45.353Z</time></trkpt><trkpt lat="44.9372633" lon="7.6520183"><ele>232.0</ele><time>2026-05-01T10:35:46.353Z</time></trkpt><trkpt lat="44.9371667" lon="7.6523467"><ele>232.0</ele><time>2026-05-01T10:35:47.35Z</time></trkpt><trkpt lat="44.9370683" lon="7.6526733"><ele>232.0</ele><time>2026-05-01T10:35:48.352Z</time></trkpt><trkpt lat="44.93696" lon="7.65299"><ele>231.5</ele><time>2026-05-01T10:35:49.353Z</time></trkpt><trkpt lat="44.9368367" lon="7.6532983"><ele>231.0</ele><time>2026-05-01T10:35:50.358Z</time></trkpt><trkpt lat="44.9366983" lon="7.653595"><ele>230.5</ele><time>2026-05-01T10:35:51.354Z</time></trkpt><trkpt lat="44.9365467" lon="7.653875"><ele>230.0</ele><time>2026-05-01T10:35:52.359Z</time></trkpt><trkpt lat="44.9363817" lon="7.6541383"><ele>230.0</ele><time>2026-05-01T10:35:53.352Z</time></trkpt><trkpt lat="44.936205" lon="7.65438"><ele>230.0</ele><time>2026-05-01T10:35:54.353Z</time></trkpt><trkpt lat="44.9360183" lon="7.6546083"><ele>230.0</ele><time>2026-05-01T10:35:55.351Z</time></trkpt><trkpt lat="44.9358217" lon="7.6548217"><ele>230.0</ele><time>2026-05-01T10:35:56.349Z</time></trkpt><trkpt lat="44.9356167" lon="7.65502"><ele>230.0</ele><time>2026-05-01T10:35:57.351Z</time></trkpt><trkpt lat="44.935405" lon="7.6552033"><ele>230.0</ele><time>2026-05-01T10:35:58.354Z</time></trkpt><trkpt lat="44.9351833" lon="7.65537"><ele>231.0</ele><time>2026-05-01T10:35:59.354Z</time></trkpt><trkpt lat="44.93496" lon="7.6555233"><ele>232.0</ele><time>2026-05-01T10:36:00.354Z</time></trkpt><trkpt lat="44.93473" lon="7.6556667"><ele>232.0</ele><time>2026-05-01T10:36:01.352Z</time></trkpt><trkpt lat="44.9344983" lon="7.6557967"><ele>232.0</ele><time>2026-05-01T10:36:02.354Z</time></trkpt><trkpt lat="44.93426" lon="7.6559083"><ele>231.0</ele><time>2026-05-01T10:36:03.353Z</time></trkpt><trkpt lat="44.9340217" lon="7.6560033"><ele>230.0</ele><time>2026-05-01T10:36:04.352Z</time></trkpt><trkpt lat="44.9337783" lon="7.656085"><ele>230.5</ele><time>2026-05-01T10:36:05.352Z</time></trkpt><trkpt lat="44.9335317" lon="7.6561533"><ele>231.0</ele><time>2026-05-01T10:36:06.353Z</time></trkpt><trkpt lat="44.9332867" lon="7.6562033"><ele>230.0</ele><time>2026-05-01T10:36:07.351Z</time></trkpt><trkpt lat="44.9330367" lon="7.656235"><ele>229.0</ele><time>2026-05-01T10:36:08.352Z</time></trkpt><trkpt lat="44.9327817" lon="7.656255"><ele>229.0</ele><time>2026-05-01T10:36:09.353Z</time></trkpt><trkpt lat="44.9325267" lon="7.6562683"><ele>229.0</ele><time>2026-05-01T10:36:10.348Z</time></trkpt><trkpt lat="44.9322683" lon="7.65628"><ele>229.0</ele><time>2026-05-01T10:36:11.351Z</time></trkpt><trkpt lat="44.9320117" lon="7.6562967"><ele>229.0</ele><time>2026-05-01T10:36:12.355Z</time></trkpt><trkpt lat="44.93176" lon="7.6563217"><ele>230.0</ele><time>2026-05-01T10:36:13.354Z</time></trkpt><trkpt lat="44.93151" lon="7.6563583"><ele>231.0</ele><time>2026-05-01T10:36:14.351Z</time></trkpt><trkpt lat="44.931265" lon="7.65641"><ele>231.0</ele><time>2026-05-01T10:36:15.351Z</time></trkpt><trkpt lat="44.9310267" lon="7.6564767"><ele>231.0</ele><time>2026-05-01T10:36:16.35Z</time></trkpt><trkpt lat="44.93079" lon="7.6565517"><ele>230.5</ele><time>2026-05-01T10:36:17.351Z</time></trkpt><trkpt lat="44.9305533" lon="7.656645"><ele>230.0</ele><time>2026-05-01T10:36:18.353Z</time></trkpt><trkpt lat="44.9303183" lon="7.6567533"><ele>230.0</ele><time>2026-05-01T10:36:19.354Z</time></trkpt><trkpt lat="44.930085" lon="7.656875"><ele>230.0</ele><time>2026-05-01T10:36:20.355Z</time></trkpt><trkpt lat="44.9298533" lon="7.657015"><ele>230.5</ele><time>2026-05-01T10:36:21.354Z</time></trkpt><trkpt lat="44.929625" lon="7.6571667"><ele>231.0</ele><time>2026-05-01T10:36:22.355Z</time></trkpt><trkpt lat="44.9293983" lon="7.657335"><ele>231.0</ele><time>2026-05-01T10:36:23.351Z</time></trkpt><trkpt lat="44.929175" lon="7.6575217"><ele>231.0</ele><time>2026-05-01T10:36:24.353Z</time></trkpt><trkpt lat="44.9289583" lon="7.6577233"><ele>230.5</ele><time>2026-05-01T10:36:25.359Z</time></trkpt><trkpt lat="44.9287483" lon="7.6579417"><ele>230.0</ele><time>2026-05-01T10:36:26.352Z</time></trkpt><trkpt lat="44.92854" lon="7.6581683"><ele>230.5</ele><time>2026-05-01T10:36:27.351Z</time></trkpt><trkpt lat="44.928335" lon="7.6584017"><ele>231.0</ele><time>2026-05-01T10:36:28.354Z</time></trkpt><trkpt lat="44.9281283" lon="7.6586383"><ele>231.0</ele><time>2026-05-01T10:36:29.351Z</time></trkpt><trkpt lat="44.9279183" lon="7.6588717"><ele>231.0</ele><time>2026-05-01T10:36:30.353Z</time></trkpt><trkpt lat="44.9277033" lon="7.65911"><ele>231.0</ele><time>2026-05-01T10:36:31.352Z</time></trkpt><trkpt lat="44.9274867" lon="7.6593533"><ele>231.0</ele><time>2026-05-01T10:36:32.351Z</time></trkpt><trkpt lat="44.927265" lon="7.659605"><ele>232.5</ele><time>2026-05-01T10:36:33.352Z</time></trkpt><trkpt lat="44.92704" lon="7.6598533"><ele>234.0</ele><time>2026-05-01T10:36:34.349Z</time></trkpt><trkpt lat="44.926815" lon="7.660105"><ele>233.5</ele><time>2026-05-01T10:36:35.354Z</time></trkpt><trkpt lat="44.92659" lon="7.660355"><ele>233.0</ele><time>2026-05-01T10:36:36.352Z</time></trkpt><trkpt lat="44.9263633" lon="7.66061"><ele>233.0</ele><time>2026-05-01T10:36:37.348Z</time></trkpt><trkpt lat="44.92614" lon="7.6608617"><ele>233.0</ele><time>2026-05-01T10:36:38.349Z</time></trkpt><trkpt lat="44.9259167" lon="7.6611117"><ele>232.0</ele><time>2026-05-01T10:36:39.354Z</time></trkpt><trkpt lat="44.925695" lon="7.6613633"><ele>231.0</ele><time>2026-05-01T10:36:40.352Z</time></trkpt><trkpt lat="44.92547" lon="7.6616133"><ele>231.0</ele><time>2026-05-01T10:36:41.352Z</time></trkpt><trkpt lat="44.9252467" lon="7.6618633"><ele>231.0</ele><time>2026-05-01T10:36:42.35Z</time></trkpt><trkpt lat="44.9250233" lon="7.6621117"><ele>230.0</ele><time>2026-05-01T10:36:43.352Z</time></trkpt><trkpt lat="44.9248033" lon="7.6623583"><ele>229.0</ele><time>2026-05-01T10:36:44.351Z</time></trkpt><trkpt lat="44.9245817" lon="7.6625967"><ele>228.5</ele><time>2026-05-01T10:36:45.352Z</time></trkpt><trkpt lat="44.92435" lon="7.6628267"><ele>228.0</ele><time>2026-05-01T10:36:46.352Z</time></trkpt><trkpt lat="44.9241083" lon="7.66304"><ele>229.0</ele><time>2026-05-01T10:36:47.353Z</time></trkpt><trkpt lat="44.9238583" lon="7.6632383"><ele>230.0</ele><time>2026-05-01T10:36:48.354Z</time></trkpt><trkpt lat="44.9236" lon="7.6634133"><ele>231.0</ele><time>2026-05-01T10:36:49.353Z</time></trkpt><trkpt lat="44.9233333" lon="7.6635683"><ele>232.0</ele><time>2026-05-01T10:36:50.354Z</time></trkpt><trkpt lat="44.92306" lon="7.6637"><ele>232.0</ele><time>2026-05-01T10:36:51.353Z</time></trkpt><trkpt lat="44.9227817" lon="7.6638083"><ele>232.0</ele><time>2026-05-01T10:36:52.354Z</time></trkpt><trkpt lat="44.9224983" lon="7.6638983"><ele>232.5</ele><time>2026-05-01T10:36:53.352Z</time></trkpt><trkpt lat="44.9222133" lon="7.6639767"><ele>233.0</ele><time>2026-05-01T10:36:54.356Z</time></trkpt><trkpt lat="44.921925" lon="7.6640567"><ele>233.0</ele><time>2026-05-01T10:36:55.354Z</time></trkpt><trkpt lat="44.9216333" lon="7.664135"><ele>233.0</ele><time>2026-05-01T10:36:56.353Z</time></trkpt><trkpt lat="44.9213417" lon="7.6642167"><ele>233.0</ele><time>2026-05-01T10:36:57.354Z</time></trkpt><trkpt lat="44.9210483" lon="7.6643"><ele>233.0</ele><time>2026-05-01T10:36:58.354Z</time></trkpt><trkpt lat="44.9207517" lon="7.664385"><ele>232.0</ele><time>2026-05-01T10:36:59.353Z</time></trkpt><trkpt lat="44.9204517" lon="7.66447"><ele>231.0</ele><time>2026-05-01T10:37:00.354Z</time></trkpt><trkpt lat="44.92015" lon="7.6645533"><ele>232.5</ele><time>2026-05-01T10:37:01.351Z</time></trkpt><trkpt lat="44.919845" lon="7.66464"><ele>234.0</ele><time>2026-05-01T10:37:02.355Z</time></trkpt><trkpt lat="44.9195367" lon="7.6647267"><ele>233.5</ele><time>2026-05-01T10:37:03.355Z</time></trkpt><trkpt lat="44.9192267" lon="7.664815"><ele>233.0</ele><time>2026-05-01T10:37:04.352Z</time></trkpt><trkpt lat="44.918915" lon="7.6649033"><ele>233.0</ele><time>2026-05-01T10:37:05.357Z</time></trkpt><trkpt lat="44.9186017" lon="7.6649933"><ele>233.0</ele><time>2026-05-01T10:37:06.353Z</time></trkpt><trkpt lat="44.9182867" lon="7.6650817"><ele>233.5</ele><time>2026-05-01T10:37:07.356Z</time></trkpt><trkpt lat="44.9179733" lon="7.6651733"><ele>234.0</ele><time>2026-05-01T10:37:08.353Z</time></trkpt><trkpt lat="44.9176633" lon="7.6652633"><ele>232.0</ele><time>2026-05-01T10:37:09.352Z</time></trkpt><trkpt lat="44.917355" lon="7.665355"><ele>230.0</ele><time>2026-05-01T10:37:10.352Z</time></trkpt><trkpt lat="44.9170483" lon="7.665445"><ele>230.0</ele><time>2026-05-01T10:37:11.353Z</time></trkpt><trkpt lat="44.9167467" lon="7.6655317"><ele>230.0</ele><time>2026-05-01T10:37:12.354Z</time></trkpt><trkpt lat="44.91645" lon="7.665615"><ele>231.0</ele><time>2026-05-01T10:37:13.354Z</time></trkpt><trkpt lat="44.9161617" lon="7.6656983"><ele>232.0</ele><time>2026-05-01T10:37:14.352Z</time></trkpt><trkpt lat="44.9158833" lon="7.665775"><ele>232.0</ele><time>2026-05-01T10:37:15.358Z</time></trkpt><trkpt lat="44.9156183" lon="7.66585"><ele>232.0</ele><time>2026-05-01T10:37:16.355Z</time></trkpt><trkpt lat="44.915365" lon="7.6659217"><ele>232.0</ele><time>2026-05-01T10:37:17.351Z</time></trkpt><trkpt lat="44.9151183" lon="7.66599"><ele>232.0</ele><time>2026-05-01T10:37:18.351Z</time></trkpt><trkpt lat="44.91488" lon="7.6660567"><ele>232.0</ele><time>2026-05-01T10:37:19.354Z</time></trkpt><trkpt lat="44.9146517" lon="7.6661233"><ele>232.0</ele><time>2026-05-01T10:37:20.35Z</time></trkpt><trkpt lat="44.9144367" lon="7.6661933"><ele>232.33333333333331</ele><time>2026-05-01T10:37:21.354Z</time></trkpt><trkpt lat="44.9142367" lon="7.6662817"><ele>232.66666666666669</ele><time>2026-05-01T10:37:22.352Z</time></trkpt><trkpt lat="44.91405" lon="7.666395"><ele>233.0</ele><time>2026-05-01T10:37:23.353Z</time></trkpt><trkpt lat="44.9138783" lon="7.666525"><ele>233.0</ele><time>2026-05-01T10:37:24.353Z</time></trkpt><trkpt lat="44.91372" lon="7.6666717"><ele>233.0</ele><time>2026-05-01T10:37:25.353Z</time></trkpt><trkpt lat="44.9135733" lon="7.6668267"><ele>233.0</ele><time>2026-05-01T10:37:26.354Z</time></trkpt><trkpt lat="44.9134417" lon="7.6669983"><ele>234.0</ele><time>2026-05-01T10:37:27.353Z</time></trkpt><trkpt lat="44.9133217" lon="7.667185"><ele>235.0</ele><time>2026-05-01T10:37:28.354Z</time></trkpt><trkpt lat="44.9132133" lon="7.6673833"><ele>236.0</ele><time>2026-05-01T10:37:29.354Z</time></trkpt><trkpt lat="44.9131167" lon="7.66759"><ele>235.66666666666669</ele><time>2026-05-01T10:37:30.354Z</time></trkpt><trkpt lat="44.9130267" lon="7.6678"><ele>235.33333333333331</ele><time>2026-05-01T10:37:31.353Z</time></trkpt><trkpt lat="44.9129433" lon="7.66801"><ele>235.0</ele><time>2026-05-01T10:37:32.357Z</time></trkpt><trkpt lat="44.9128633" lon="7.668225"><ele>235.0</ele><time>2026-05-01T10:37:33.352Z</time></trkpt><trkpt lat="44.9127783" lon="7.6684367"><ele>235.0</ele><time>2026-05-01T10:37:34.35Z</time></trkpt><trkpt lat="44.9126983" lon="7.668645"><ele>235.0</ele><time>2026-05-01T10:37:35.355Z</time></trkpt><trkpt lat="44.9126167" lon="7.6688383"><ele>235.0</ele><time>2026-05-01T10:37:36.351Z</time></trkpt><trkpt lat="44.9125367" lon="7.66903"><ele>235.0</ele><time>2026-05-01T10:37:37.349Z</time></trkpt><trkpt lat="44.9124583" lon="7.66922"><ele>235.0</ele><time>2026-05-01T10:37:38.348Z</time></trkpt><trkpt lat="44.9123767" lon="7.6694133"><ele>234.66666666666666</ele><time>2026-05-01T10:37:39.354Z</time></trkpt><trkpt lat="44.9122983" lon="7.6696033"><ele>234.33333333333331</ele><time>2026-05-01T10:37:40.35Z</time></trkpt><trkpt lat="44.91222" lon="7.6697883"><ele>234.0</ele><time>2026-05-01T10:37:41.355Z</time></trkpt><trkpt lat="44.9121383" lon="7.6699667"><ele>234.0</ele><time>2026-05-01T10:37:42.353Z</time></trkpt><trkpt lat="44.9120633" lon="7.6701367"><ele>233.99999999999997</ele><time>2026-05-01T10:37:43.354Z</time></trkpt><trkpt lat="44.911995" lon="7.6702733"><ele>233.99999999999997</ele><time>2026-05-01T10:37:44.351Z</time></trkpt><trkpt lat="44.9119283" lon="7.6703783"><ele>234.0</ele><time>2026-05-01T10:37:45.354Z</time></trkpt><trkpt lat="44.911855" lon="7.6704417"><ele>234.0</ele><time>2026-05-01T10:37:46.351Z</time></trkpt><trkpt lat="44.911785" lon="7.6704783"><ele>234.2</ele><time>2026-05-01T10:37:47.355Z</time></trkpt><trkpt lat="44.911725" lon="7.6705183"><ele>234.39999999999998</ele><time>2026-05-01T10:37:48.353Z</time></trkpt><trkpt lat="44.911675" lon="7.6706783"><ele>234.6</ele><time>2026-05-01T10:37:50.349Z</time></trkpt><trkpt lat="44.91167" lon="7.6708183"><ele>234.8</ele><time>2026-05-01T10:37:51.349Z</time></trkpt><trkpt lat="44.911635" lon="7.6709733"><ele>235.0</ele><time>2026-05-01T10:37:52.348Z</time></trkpt><trkpt lat="44.9115833" lon="7.6711417"><ele>235.0</ele><time>2026-05-01T10:37:53.349Z</time></trkpt><trkpt lat="44.9115183" lon="7.6713083"><ele>235.0</ele><time>2026-05-01T10:37:54.347Z</time></trkpt><trkpt lat="44.9114583" lon="7.6714867"><ele>235.0</ele><time>2026-05-01T10:37:55.354Z</time></trkpt><trkpt lat="44.9113983" lon="7.6716717"><ele>235.0</ele><time>2026-05-01T10:37:56.348Z</time></trkpt><trkpt lat="44.9113433" lon="7.6718567"><ele>235.0</ele><time>2026-05-01T10:37:57.349Z</time></trkpt><trkpt lat="44.9112883" lon="7.6720483"><ele>235.0</ele><time>2026-05-01T10:37:58.353Z</time></trkpt><trkpt lat="44.9112333" lon="7.6722417"><ele>235.0</ele><time>2026-05-01T10:37:59.35Z</time></trkpt><trkpt lat="44.911185" lon="7.6724217"><ele>235.0</ele><time>2026-05-01T10:38:00.35Z</time></trkpt><trkpt lat="44.9111367" lon="7.67258"><ele>234.99999999999997</ele><time>2026-05-01T10:38:01.352Z</time></trkpt><trkpt lat="44.9110833" lon="7.672705"><ele>235.0</ele><time>2026-05-01T10:38:02.352Z</time></trkpt><trkpt lat="44.9110267" lon="7.672795"><ele>235.0</ele><time>2026-05-01T10:38:03.356Z</time></trkpt><trkpt lat="44.9109633" lon="7.672865"><ele>235.0</ele><time>2026-05-01T10:38:04.35Z</time></trkpt><trkpt lat="44.9109133" lon="7.6729333"><ele>234.99999999999997</ele><time>2026-05-01T10:38:05.352Z</time></trkpt><trkpt lat="44.9108767" lon="7.67301"><ele>235.0</ele><time>2026-05-01T10:38:06.353Z</time></trkpt><trkpt lat="44.91089" lon="7.6731167"><ele>235.2</ele><time>2026-05-01T10:38:07.349Z</time></trkpt><trkpt lat="44.910925" lon="7.6732283"><ele>235.4</ele><time>2026-05-01T10:38:08.353Z</time></trkpt><trkpt lat="44.9109533" lon="7.6733583"><ele>235.60000000000002</ele><time>2026-05-01T10:38:09.35Z</time></trkpt><trkpt lat="44.9109533" lon="7.67351"><ele>235.8</ele><time>2026-05-01T10:38:10.35Z</time></trkpt><trkpt lat="44.910935" lon="7.673675"><ele>236.0</ele><time>2026-05-01T10:38:11.349Z</time></trkpt><trkpt lat="44.9109183" lon="7.6738383"><ele>235.8</ele><time>2026-05-01T10:38:12.349Z</time></trkpt><trkpt lat="44.9109033" lon="7.6739917"><ele>235.60000000000002</ele><time>2026-05-01T10:38:13.351Z</time></trkpt><trkpt lat="44.9108867" lon="7.6741367"><ele>235.4</ele><time>2026-05-01T10:38:14.35Z</time></trkpt><trkpt lat="44.9108717" lon="7.6742717"><ele>235.2</ele><time>2026-05-01T10:38:15.353Z</time></trkpt><trkpt lat="44.910865" lon="7.6743917"><ele>235.0</ele><time>2026-05-01T10:38:16.35Z</time></trkpt><trkpt lat="44.91086" lon="7.6745033"><ele>235.0</ele><time>2026-05-01T10:38:17.354Z</time></trkpt><trkpt lat="44.9108517" lon="7.674605"><ele>234.99999999999997</ele><time>2026-05-01T10:38:18.351Z</time></trkpt><trkpt lat="44.9108433" lon="7.6747017"><ele>235.0</ele><time>2026-05-01T10:38:19.348Z</time></trkpt><trkpt lat="44.9108283" lon="7.67479"><ele>235.0</ele><time>2026-05-01T10:38:20.35Z</time></trkpt><trkpt lat="44.91082" lon="7.6748933"><ele>234.99999999999997</ele><time>2026-05-01T10:38:21.352Z</time></trkpt><trkpt lat="44.9108117" lon="7.6750017"><ele>235.0</ele><time>2026-05-01T10:38:22.35Z</time></trkpt><trkpt lat="44.9108" lon="7.6751167"><ele>235.0</ele><time>2026-05-01T10:38:23.349Z</time></trkpt><trkpt lat="44.9107883" lon="7.6752317"><ele>235.2</ele><time>2026-05-01T10:38:24.351Z</time></trkpt><trkpt lat="44.9107783" lon="7.6753467"><ele>235.4</ele><time>2026-05-01T10:38:25.351Z</time></trkpt><trkpt lat="44.9107667" lon="7.67547"><ele>235.60000000000002</ele><time>2026-05-01T10:38:26.348Z</time></trkpt><trkpt lat="44.9107467" lon="7.6755967"><ele>235.8</ele><time>2026-05-01T10:38:27.354Z</time></trkpt><trkpt lat="44.9107167" lon="7.6757283"><ele>236.0</ele><time>2026-05-01T10:38:28.348Z</time></trkpt><trkpt lat="44.9106867" lon="7.6758517"><ele>236.0</ele><time>2026-05-01T10:38:29.35Z</time></trkpt><trkpt lat="44.9106617" lon="7.675965"><ele>236.00000000000003</ele><time>2026-05-01T10:38:30.353Z</time></trkpt><trkpt lat="44.9106433" lon="7.6760717"><ele>236.00000000000003</ele><time>2026-05-01T10:38:31.351Z</time></trkpt><trkpt lat="44.9106117" lon="7.67616"><ele>236.0</ele><time>2026-05-01T10:38:32.35Z</time></trkpt><trkpt lat="44.910535" lon="7.676285"><ele>236.0</ele><time>2026-05-01T10:38:34.349Z</time></trkpt><trkpt lat="44.9104183" lon="7.6763033"><ele>236.0</ele><time>2026-05-01T10:38:36.348Z</time></trkpt><trkpt lat="44.9103367" lon="7.6762833"><ele>236.00000000000003</ele><time>2026-05-01T10:38:37.351Z</time></trkpt><trkpt lat="44.9102467" lon="7.6762633"><ele>236.00000000000003</ele><time>2026-05-01T10:38:38.352Z</time></trkpt><trkpt lat="44.910155" lon="7.6762417"><ele>236.0</ele><time>2026-05-01T10:38:39.354Z</time></trkpt><trkpt lat="44.9100583" lon="7.67622"><ele>236.0</ele><time>2026-05-01T10:38:40.351Z</time></trkpt><trkpt lat="44.9099617" lon="7.6761983"><ele>236.0</ele><time>2026-05-01T10:38:41.351Z</time></trkpt><trkpt lat="44.9098617" lon="7.676175"><ele>236.00000000000003</ele><time>2026-05-01T10:38:42.347Z</time></trkpt><trkpt lat="44.9097583" lon="7.6761467"><ele>236.00000000000003</ele><time>2026-05-01T10:38:43.352Z</time></trkpt><trkpt lat="44.9096583" lon="7.67611"><ele>236.0</ele><time>2026-05-01T10:38:44.35Z</time></trkpt><trkpt lat="44.9095633" lon="7.6760683"><ele>236.0</ele><time>2026-05-01T10:38:45.349Z</time></trkpt><trkpt lat="44.90948" lon="7.6760217"><ele>236.33333333333334</ele><time>2026-05-01T10:38:46.351Z</time></trkpt><trkpt lat="44.9094017" lon="7.6759733"><ele>236.66666666666669</ele><time>2026-05-01T10:38:47.351Z</time></trkpt><trkpt lat="44.9093317" lon="7.6759183"><ele>237.0</ele><time>2026-05-01T10:38:48.352Z</time></trkpt><trkpt lat="44.9092717" lon="7.6758617"><ele>237.33333333333331</ele><time>2026-05-01T10:38:49.352Z</time></trkpt><trkpt lat="44.90921" lon="7.6757983"><ele>237.66666666666666</ele><time>2026-05-01T10:38:50.349Z</time></trkpt><trkpt lat="44.9091417" lon="7.6757267"><ele>238.0</ele><time>2026-05-01T10:38:51.351Z</time></trkpt><trkpt lat="44.9090733" lon="7.6756517"><ele>238.16666666666666</ele><time>2026-05-01T10:38:52.353Z</time></trkpt><trkpt lat="44.909" lon="7.67559"><ele>238.33333333333331</ele><time>2026-05-01T10:38:53.351Z</time></trkpt><trkpt lat="44.908925" lon="7.67554"><ele>238.5</ele><time>2026-05-01T10:38:54.356Z</time></trkpt><trkpt lat="44.9088433" lon="7.675505"><ele>238.66666666666669</ele><time>2026-05-01T10:38:55.353Z</time></trkpt><trkpt lat="44.9087633" lon="7.67546"><ele>238.83333333333334</ele><time>2026-05-01T10:38:56.351Z</time></trkpt><trkpt lat="44.9086817" lon="7.6754117"><ele>239.0</ele><time>2026-05-01T10:38:57.356Z</time></trkpt><trkpt lat="44.9086033" lon="7.675365"><ele>239.00000000000003</ele><time>2026-05-01T10:38:58.351Z</time></trkpt><trkpt lat="44.9085217" lon="7.6753167"><ele>239.0</ele><time>2026-05-01T10:38:59.354Z</time></trkpt><trkpt lat="44.9084433" lon="7.67527"><ele>239.0</ele><time>2026-05-01T10:39:00.353Z</time></trkpt><trkpt lat="44.908365" lon="7.6752233"><ele>239.0</ele><time>2026-05-01T10:39:01.352Z</time></trkpt><trkpt lat="44.908275" lon="7.6751783"><ele>239.00000000000003</ele><time>2026-05-01T10:39:02.352Z</time></trkpt><trkpt lat="44.9081883" lon="7.67513"><ele>239.0</ele><time>2026-05-01T10:39:03.353Z</time></trkpt><trkpt lat="44.9080983" lon="7.67508"><ele>239.00000000000003</ele><time>2026-05-01T10:39:04.353Z</time></trkpt><trkpt lat="44.908015" lon="7.6750367"><ele>239.0</ele><time>2026-05-01T10:39:05.354Z</time></trkpt><trkpt lat="44.907935" lon="7.675"><ele>239.0</ele><time>2026-05-01T10:39:06.352Z</time></trkpt><trkpt lat="44.907865" lon="7.6749617"><ele>239.0</ele><time>2026-05-01T10:39:07.354Z</time></trkpt><trkpt lat="44.9077967" lon="7.6749267"><ele>239.00000000000003</ele><time>2026-05-01T10:39:08.354Z</time></trkpt><trkpt lat="44.9077367" lon="7.6748933"><ele>239.0</ele><time>2026-05-01T10:39:09.355Z</time></trkpt><trkpt lat="44.9076383" lon="7.6748167"><ele>239.5</ele><time>2026-05-01T10:39:11.352Z</time></trkpt><trkpt lat="44.9075467" lon="7.674735"><ele>240.0</ele><time>2026-05-01T10:39:13.357Z</time></trkpt><trkpt lat="44.9074333" lon="7.6746917"><ele>240.5</ele><time>2026-05-01T10:39:15.352Z</time></trkpt><trkpt lat="44.9073167" lon="7.67464"><ele>241.0</ele><time>2026-05-01T10:39:17.349Z</time></trkpt><trkpt lat="44.90722" lon="7.67458"><ele>241.0</ele><time>2026-05-01T10:39:19.354Z</time></trkpt><trkpt lat="44.9071383" lon="7.67452"><ele>241.00000000000003</ele><time>2026-05-01T10:39:21.353Z</time></trkpt><trkpt lat="44.9070633" lon="7.6744567"><ele>241.00000000000003</ele><time>2026-05-01T10:39:23.354Z</time></trkpt><trkpt lat="44.906995" lon="7.6744067"><ele>241.0</ele><time>2026-05-01T10:39:25.357Z</time></trkpt><trkpt lat="44.9069167" lon="7.67436"><ele>241.0</ele><time>2026-05-01T10:39:27.358Z</time></trkpt><trkpt lat="44.9068117" lon="7.6743"><ele>240.83333333333331</ele><time>2026-05-01T10:39:29.349Z</time></trkpt><trkpt lat="44.90671" lon="7.6742633"><ele>240.66666666666666</ele><time>2026-05-01T10:39:31.354Z</time></trkpt><trkpt lat="44.906605" lon="7.674255"><ele>240.5</ele><time>2026-05-01T10:39:33.355Z</time></trkpt><trkpt lat="44.9065383" lon="7.6742433"><ele>240.33333333333331</ele><time>2026-05-01T10:39:34.351Z</time></trkpt><trkpt lat="44.90646" lon="7.67422"><ele>240.16666666666666</ele><time>2026-05-01T10:39:35.352Z</time></trkpt><trkpt lat="44.906375" lon="7.67419"><ele>240.0</ele><time>2026-05-01T10:39:36.349Z</time></trkpt><trkpt lat="44.90629" lon="7.6741533"><ele>240.0</ele><time>2026-05-01T10:39:37.35Z</time></trkpt><trkpt lat="44.90621" lon="7.67412"><ele>240.0</ele><time>2026-05-01T10:39:38.35Z</time></trkpt><trkpt lat="44.90613" lon="7.6740883"><ele>240.0</ele><time>2026-05-01T10:39:39.354Z</time></trkpt><trkpt lat="44.9060533" lon="7.6740583"><ele>240.0</ele><time>2026-05-01T10:39:40.355Z</time></trkpt><trkpt lat="44.9059833" lon="7.6740367"><ele>240.0</ele><time>2026-05-01T10:39:41.351Z</time></trkpt><trkpt lat="44.9058567" lon="7.6740133"><ele>240.0</ele><time>2026-05-01T10:39:43.354Z</time></trkpt><trkpt lat="44.9057833" lon="7.67398"><ele>240.2</ele><time>2026-05-01T10:39:44.353Z</time></trkpt><trkpt lat="44.905705" lon="7.6739417"><ele>240.4</ele><time>2026-05-01T10:39:45.355Z</time></trkpt><trkpt lat="44.9056167" lon="7.6739067"><ele>240.60000000000002</ele><time>2026-05-01T10:39:46.353Z</time></trkpt><trkpt lat="44.9055217" lon="7.6738717"><ele>240.8</ele><time>2026-05-01T10:39:47.353Z</time></trkpt><trkpt lat="44.9054217" lon="7.6738333"><ele>241.0</ele><time>2026-05-01T10:39:48.351Z</time></trkpt><trkpt lat="44.905325" lon="7.6737967"><ele>241.0</ele><time>2026-05-01T10:39:49.356Z</time></trkpt><trkpt lat="44.90523" lon="7.6737633"><ele>241.00000000000003</ele><time>2026-05-01T10:39:50.354Z</time></trkpt><trkpt lat="44.9051283" lon="7.6737283"><ele>241.00000000000003</ele><time>2026-05-01T10:39:51.356Z</time></trkpt><trkpt lat="44.905025" lon="7.6736933"><ele>241.0</ele><time>2026-05-01T10:39:52.353Z</time></trkpt><trkpt lat="44.9049183" lon="7.6736617"><ele>241.0</ele><time>2026-05-01T10:39:53.352Z</time></trkpt><trkpt lat="44.9048083" lon="7.6736317"><ele>240.4</ele><time>2026-05-01T10:39:54.353Z</time></trkpt><trkpt lat="44.9046983" lon="7.6735983"><ele>239.8</ele><time>2026-05-01T10:39:55.355Z</time></trkpt><trkpt lat="44.90459" lon="7.6735617"><ele>239.20000000000002</ele><time>2026-05-01T10:39:56.35Z</time></trkpt><trkpt lat="44.9044867" lon="7.6735233"><ele>238.60000000000002</ele><time>2026-05-01T10:39:57.353Z</time></trkpt><trkpt lat="44.9043867" lon="7.673485"><ele>238.0</ele><time>2026-05-01T10:39:58.353Z</time></trkpt><trkpt lat="44.9042917" lon="7.673445"><ele>237.99999999999997</ele><time>2026-05-01T10:39:59.356Z</time></trkpt><trkpt lat="44.9042033" lon="7.673395"><ele>238.0</ele><time>2026-05-01T10:40:00.354Z</time></trkpt><trkpt lat="44.90412" lon="7.67335"><ele>238.0</ele><time>2026-05-01T10:40:01.357Z</time></trkpt><trkpt lat="44.904045" lon="7.67332"><ele>238.0</ele><time>2026-05-01T10:40:02.353Z</time></trkpt><trkpt lat="44.903975" lon="7.673305"><ele>237.99999999999997</ele><time>2026-05-01T10:40:03.353Z</time></trkpt><trkpt lat="44.9039017" lon="7.6732817"><ele>238.0</ele><time>2026-05-01T10:40:04.35Z</time></trkpt><trkpt lat="44.9038267" lon="7.6732417"><ele>238.0</ele><time>2026-05-01T10:40:05.35Z</time></trkpt><trkpt lat="44.903745" lon="7.6731933"><ele>238.0</ele><time>2026-05-01T10:40:06.351Z</time></trkpt><trkpt lat="44.90366" lon="7.6731417"><ele>238.0</ele><time>2026-05-01T10:40:07.352Z</time></trkpt><trkpt lat="44.903565" lon="7.6730933"><ele>238.0</ele><time>2026-05-01T10:40:08.353Z</time></trkpt><trkpt lat="44.9034683" lon="7.6730367"><ele>238.0</ele><time>2026-05-01T10:40:09.354Z</time></trkpt><trkpt lat="44.9033717" lon="7.6729783"><ele>238.0</ele><time>2026-05-01T10:40:10.352Z</time></trkpt><trkpt lat="44.90327" lon="7.6729117"><ele>238.0</ele><time>2026-05-01T10:40:11.353Z</time></trkpt><trkpt lat="44.9031617" lon="7.67285"><ele>238.0</ele><time>2026-05-01T10:40:12.353Z</time></trkpt><trkpt lat="44.9030483" lon="7.6727917"><ele>238.0</ele><time>2026-05-01T10:40:13.354Z</time></trkpt><trkpt lat="44.90294" lon="7.6727217"><ele>238.0</ele><time>2026-05-01T10:40:14.354Z</time></trkpt><trkpt lat="44.90283" lon="7.6726533"><ele>238.0</ele><time>2026-05-01T10:40:15.352Z</time></trkpt><trkpt lat="44.9027183" lon="7.6725933"><ele>238.0</ele><time>2026-05-01T10:40:16.349Z</time></trkpt><trkpt lat="44.9026033" lon="7.6725283"><ele>238.0</ele><time>2026-05-01T10:40:17.352Z</time></trkpt><trkpt lat="44.902485" lon="7.672465"><ele>238.0</ele><time>2026-05-01T10:40:18.351Z</time></trkpt><trkpt lat="44.90237" lon="7.6724017"><ele>238.0</ele><time>2026-05-01T10:40:19.354Z</time></trkpt><trkpt lat="44.9022483" lon="7.672355"><ele>238.0</ele><time>2026-05-01T10:40:20.358Z</time></trkpt><trkpt lat="44.9021233" lon="7.6723"><ele>238.0</ele><time>2026-05-01T10:40:21.353Z</time></trkpt><trkpt lat="44.901995" lon="7.67224"><ele>238.0</ele><time>2026-05-01T10:40:22.356Z</time></trkpt><trkpt lat="44.9018583" lon="7.672175"><ele>238.0</ele><time>2026-05-01T10:40:23.357Z</time></trkpt><trkpt lat="44.90172" lon="7.672105"><ele>238.0</ele><time>2026-05-01T10:40:24.352Z</time></trkpt><trkpt lat="44.9015817" lon="7.6720333"><ele>238.0</ele><time>2026-05-01T10:40:25.352Z</time></trkpt><trkpt lat="44.9014483" lon="7.671965"><ele>238.0</ele><time>2026-05-01T10:40:26.353Z</time></trkpt><trkpt lat="44.9013133" lon="7.6718967"><ele>238.0</ele><time>2026-05-01T10:40:27.357Z</time></trkpt><trkpt lat="44.9011717" lon="7.67183"><ele>238.0</ele><time>2026-05-01T10:40:28.354Z</time></trkpt><trkpt lat="44.90103" lon="7.6717633"><ele>238.0</ele><time>2026-05-01T10:40:29.354Z</time></trkpt><trkpt lat="44.9008867" lon="7.6716917"><ele>238.0</ele><time>2026-05-01T10:40:30.349Z</time></trkpt><trkpt lat="44.90074" lon="7.67162"><ele>238.0</ele><time>2026-05-01T10:40:31.351Z</time></trkpt><trkpt lat="44.9005917" lon="7.6715467"><ele>238.0</ele><time>2026-05-01T10:40:32.35Z</time></trkpt><trkpt lat="44.9004417" lon="7.6714717"><ele>238.0</ele><time>2026-05-01T10:40:33.354Z</time></trkpt><trkpt lat="44.9002883" lon="7.6713917"><ele>238.0</ele><time>2026-05-01T10:40:34.358Z</time></trkpt><trkpt lat="44.9001283" lon="7.6713133"><ele>238.0</ele><time>2026-05-01T10:40:35.351Z</time></trkpt><trkpt lat="44.8999667" lon="7.6712333"><ele>238.33333333333331</ele><time>2026-05-01T10:40:36.352Z</time></trkpt><trkpt lat="44.8998" lon="7.6711517"><ele>238.66666666666669</ele><time>2026-05-01T10:40:37.352Z</time></trkpt><trkpt lat="44.899625" lon="7.6710733"><ele>239.0</ele><time>2026-05-01T10:40:38.349Z</time></trkpt><trkpt lat="44.8994483" lon="7.6709933"><ele>238.33333333333334</ele><time>2026-05-01T10:40:39.352Z</time></trkpt><trkpt lat="44.8992733" lon="7.67091"><ele>237.66666666666669</ele><time>2026-05-01T10:40:40.351Z</time></trkpt><trkpt lat="44.8990967" lon="7.670825"><ele>237.0</ele><time>2026-05-01T10:40:41.353Z</time></trkpt><trkpt lat="44.8989183" lon="7.67074"><ele>237.0</ele><time>2026-05-01T10:40:42.353Z</time></trkpt><trkpt lat="44.8987383" lon="7.6706567"><ele>237.0</ele><time>2026-05-01T10:40:43.351Z</time></trkpt><trkpt lat="44.8985583" lon="7.6705733"><ele>237.0</ele><time>2026-05-01T10:40:44.351Z</time></trkpt><trkpt lat="44.8983783" lon="7.6704883"><ele>237.0</ele><time>2026-05-01T10:40:45.355Z</time></trkpt><trkpt lat="44.8981933" lon="7.6704033"><ele>237.0</ele><time>2026-05-01T10:40:46.351Z</time></trkpt><trkpt lat="44.8980133" lon="7.67032"><ele>237.0</ele><time>2026-05-01T10:40:47.353Z</time></trkpt><trkpt lat="44.897835" lon="7.670235"><ele>237.0</ele><time>2026-05-01T10:40:48.353Z</time></trkpt><trkpt lat="44.8976633" lon="7.6701567"><ele>237.0</ele><time>2026-05-01T10:40:49.351Z</time></trkpt><trkpt lat="44.8974983" lon="7.6700833"><ele>237.0</ele><time>2026-05-01T10:40:50.349Z</time></trkpt><trkpt lat="44.8973417" lon="7.6700233"><ele>237.25</ele><time>2026-05-01T10:40:51.351Z</time></trkpt><trkpt lat="44.89719" lon="7.6699817"><ele>237.5</ele><time>2026-05-01T10:40:52.35Z</time></trkpt><trkpt lat="44.897045" lon="7.669955"><ele>237.75</ele><time>2026-05-01T10:40:53.351Z</time></trkpt><trkpt lat="44.8969067" lon="7.66994"><ele>238.0</ele><time>2026-05-01T10:40:54.356Z</time></trkpt><trkpt lat="44.896775" lon="7.6699383"><ele>238.0</ele><time>2026-05-01T10:40:55.349Z</time></trkpt><trkpt lat="44.8966517" lon="7.66995"><ele>238.0</ele><time>2026-05-01T10:40:56.351Z</time></trkpt><trkpt lat="44.89655" lon="7.6699633"><ele>238.0</ele><time>2026-05-01T10:40:57.348Z</time></trkpt><trkpt lat="44.89646" lon="7.6699717"><ele>238.0</ele><time>2026-05-01T10:40:58.353Z</time></trkpt><trkpt lat="44.8963767" lon="7.669955"><ele>238.0</ele><time>2026-05-01T10:40:59.351Z</time></trkpt><trkpt lat="44.8962967" lon="7.6699067"><ele>238.0</ele><time>2026-05-01T10:41:00.35Z</time></trkpt><trkpt lat="44.89621" lon="7.6698533"><ele>238.0</ele><time>2026-05-01T10:41:01.347Z</time></trkpt><trkpt lat="44.8961083" lon="7.6698"><ele>238.0</ele><time>2026-05-01T10:41:02.347Z</time></trkpt><trkpt lat="44.8959933" lon="7.6697517"><ele>238.0</ele><time>2026-05-01T10:41:03.349Z</time></trkpt><trkpt lat="44.8958667" lon="7.6697167"><ele>238.0</ele><time>2026-05-01T10:41:04.352Z</time></trkpt><trkpt lat="44.89573" lon="7.6696867"><ele>238.0</ele><time>2026-05-01T10:41:05.351Z</time></trkpt><trkpt lat="44.8955817" lon="7.6696617"><ele>238.0</ele><time>2026-05-01T10:41:06.351Z</time></trkpt><trkpt lat="44.8954283" lon="7.669635"><ele>238.0</ele><time>2026-05-01T10:41:07.351Z</time></trkpt><trkpt lat="44.8952717" lon="7.6696083"><ele>238.0</ele><time>2026-05-01T10:41:08.349Z</time></trkpt><trkpt lat="44.8951133" lon="7.66958"><ele>238.0</ele><time>2026-05-01T10:41:09.352Z</time></trkpt><trkpt lat="44.8949567" lon="7.6695517"><ele>238.0</ele><time>2026-05-01T10:41:10.354Z</time></trkpt><trkpt lat="44.8948017" lon="7.66952"><ele>237.66666666666666</ele><time>2026-05-01T10:41:11.351Z</time></trkpt><trkpt lat="44.8946467" lon="7.6694917"><ele>237.33333333333331</ele><time>2026-05-01T10:41:12.353Z</time></trkpt><trkpt lat="44.8944867" lon="7.6694667"><ele>237.0</ele><time>2026-05-01T10:41:13.352Z</time></trkpt><trkpt lat="44.8943267" lon="7.6694383"><ele>237.66666666666669</ele><time>2026-05-01T10:41:14.352Z</time></trkpt><trkpt lat="44.8941667" lon="7.66941"><ele>238.33333333333334</ele><time>2026-05-01T10:41:15.353Z</time></trkpt><trkpt lat="44.8940083" lon="7.6693817"><ele>239.0</ele><time>2026-05-01T10:41:16.354Z</time></trkpt><trkpt lat="44.8938533" lon="7.669355"><ele>239.0</ele><time>2026-05-01T10:41:17.352Z</time></trkpt><trkpt lat="44.8936983" lon="7.6693267"><ele>239.0</ele><time>2026-05-01T10:41:18.353Z</time></trkpt><trkpt lat="44.8935433" lon="7.6692983"><ele>239.0</ele><time>2026-05-01T10:41:19.35Z</time></trkpt><trkpt lat="44.8933867" lon="7.66927"><ele>238.33333333333334</ele><time>2026-05-01T10:41:20.353Z</time></trkpt><trkpt lat="44.89323" lon="7.66924"><ele>237.66666666666669</ele><time>2026-05-01T10:41:21.351Z</time></trkpt><trkpt lat="44.8930733" lon="7.6692067"><ele>237.0</ele><time>2026-05-01T10:41:22.352Z</time></trkpt><trkpt lat="44.89292" lon="7.6691783"><ele>237.0</ele><time>2026-05-01T10:41:23.352Z</time></trkpt><trkpt lat="44.8927717" lon="7.6691517"><ele>237.0</ele><time>2026-05-01T10:41:24.354Z</time></trkpt><trkpt lat="44.8926333" lon="7.6691233"><ele>237.0</ele><time>2026-05-01T10:41:25.354Z</time></trkpt><trkpt lat="44.8925067" lon="7.6690967"><ele>237.0</ele><time>2026-05-01T10:41:26.357Z</time></trkpt><trkpt lat="44.8923967" lon="7.66907"><ele>237.16666666666666</ele><time>2026-05-01T10:41:27.352Z</time></trkpt><trkpt lat="44.8923033" lon="7.66904"><ele>237.33333333333331</ele><time>2026-05-01T10:41:28.351Z</time></trkpt><trkpt lat="44.8922283" lon="7.6690117"><ele>237.5</ele><time>2026-05-01T10:41:29.349Z</time></trkpt><trkpt lat="44.892135" lon="7.668955"><ele>237.66666666666666</ele><time>2026-05-01T10:41:31.352Z</time></trkpt><trkpt lat="44.89208" lon="7.6689067"><ele>237.83333333333331</ele><time>2026-05-01T10:41:33.353Z</time></trkpt><trkpt lat="44.892015" lon="7.668835"><ele>238.0</ele><time>2026-05-01T10:41:35.349Z</time></trkpt><trkpt lat="44.891915" lon="7.6687467"><ele>237.99999999999997</ele><time>2026-05-01T10:41:37.348Z</time></trkpt><trkpt lat="44.8918433" lon="7.6687283"><ele>238.0</ele><time>2026-05-01T10:41:38.353Z</time></trkpt><trkpt lat="44.891765" lon="7.6687367"><ele>238.0</ele><time>2026-05-01T10:41:39.352Z</time></trkpt><trkpt lat="44.8916783" lon="7.6687767"><ele>238.0</ele><time>2026-05-01T10:41:40.35Z</time></trkpt><trkpt lat="44.8915883" lon="7.66882"><ele>237.99999999999997</ele><time>2026-05-01T10:41:41.353Z</time></trkpt><trkpt lat="44.89149" lon="7.6688567"><ele>238.0</ele><time>2026-05-01T10:41:42.348Z</time></trkpt><trkpt lat="44.8913817" lon="7.668875"><ele>237.75</ele><time>2026-05-01T10:41:43.348Z</time></trkpt><trkpt lat="44.891265" lon="7.668875"><ele>237.5</ele><time>2026-05-01T10:41:44.354Z</time></trkpt><trkpt lat="44.891145" lon="7.66886"><ele>237.25</ele><time>2026-05-01T10:41:45.353Z</time></trkpt><trkpt lat="44.8910167" lon="7.6688367"><ele>237.0</ele><time>2026-05-01T10:41:46.35Z</time></trkpt><trkpt lat="44.8908917" lon="7.6688083"><ele>237.5</ele><time>2026-05-01T10:41:47.354Z</time></trkpt><trkpt lat="44.8907617" lon="7.6687817"><ele>238.0</ele><time>2026-05-01T10:41:48.357Z</time></trkpt><trkpt lat="44.890625" lon="7.6687517"><ele>238.5</ele><time>2026-05-01T10:41:49.353Z</time></trkpt><trkpt lat="44.8904783" lon="7.6687233"><ele>239.0</ele><time>2026-05-01T10:41:50.354Z</time></trkpt><trkpt lat="44.8903267" lon="7.6686967"><ele>239.0</ele><time>2026-05-01T10:41:51.354Z</time></trkpt><trkpt lat="44.890165" lon="7.668665"><ele>239.0</ele><time>2026-05-01T10:41:52.352Z</time></trkpt><trkpt lat="44.8899917" lon="7.6686317"><ele>239.0</ele><time>2026-05-01T10:41:53.352Z</time></trkpt><trkpt lat="44.8898083" lon="7.6685967"><ele>238.33333333333334</ele><time>2026-05-01T10:41:54.355Z</time></trkpt><trkpt lat="44.8896183" lon="7.6685633"><ele>237.66666666666669</ele><time>2026-05-01T10:41:55.355Z</time></trkpt><trkpt lat="44.889425" lon="7.6685267"><ele>237.0</ele><time>2026-05-01T10:41:56.35Z</time></trkpt><trkpt lat="44.8892283" lon="7.6684883"><ele>236.66666666666669</ele><time>2026-05-01T10:41:57.354Z</time></trkpt><trkpt lat="44.8890283" lon="7.6684533"><ele>236.33333333333334</ele><time>2026-05-01T10:41:58.353Z</time></trkpt><trkpt lat="44.8888267" lon="7.6684167"><ele>236.0</ele><time>2026-05-01T10:41:59.351Z</time></trkpt><trkpt lat="44.888625" lon="7.6683817"><ele>236.33333333333334</ele><time>2026-05-01T10:42:00.354Z</time></trkpt><trkpt lat="44.8884217" lon="7.6683417"><ele>236.66666666666669</ele><time>2026-05-01T10:42:01.353Z</time></trkpt><trkpt lat="44.888215" lon="7.6683017"><ele>237.0</ele><time>2026-05-01T10:42:02.354Z</time></trkpt><trkpt lat="44.8880033" lon="7.6682533"><ele>237.0</ele><time>2026-05-01T10:42:03.351Z</time></trkpt><trkpt lat="44.8877917" lon="7.668205"><ele>237.0</ele><time>2026-05-01T10:42:04.353Z</time></trkpt><trkpt lat="44.887575" lon="7.668155"><ele>237.0</ele><time>2026-05-01T10:42:05.352Z</time></trkpt><trkpt lat="44.8873633" lon="7.6681"><ele>237.0</ele><time>2026-05-01T10:42:06.349Z</time></trkpt><trkpt lat="44.8871567" lon="7.6680467"><ele>237.0</ele><time>2026-05-01T10:42:07.35Z</time></trkpt><trkpt lat="44.8869583" lon="7.6679983"><ele>237.0</ele><time>2026-05-01T10:42:08.351Z</time></trkpt><trkpt lat="44.88677" lon="7.6679517"><ele>236.33333333333331</ele><time>2026-05-01T10:42:09.353Z</time></trkpt><trkpt lat="44.8865917" lon="7.6679083"><ele>235.66666666666666</ele><time>2026-05-01T10:42:10.349Z</time></trkpt><trkpt lat="44.8864267" lon="7.6678717"><ele>235.0</ele><time>2026-05-01T10:42:11.359Z</time></trkpt><trkpt lat="44.8862767" lon="7.66786"><ele>235.0</ele><time>2026-05-01T10:42:12.353Z</time></trkpt><trkpt lat="44.8861433" lon="7.667855"><ele>235.0</ele><time>2026-05-01T10:42:13.351Z</time></trkpt><trkpt lat="44.886025" lon="7.6678367"><ele>235.0</ele><time>2026-05-01T10:42:14.351Z</time></trkpt><trkpt lat="44.8859183" lon="7.6678133"><ele>235.0</ele><time>2026-05-01T10:42:15.354Z</time></trkpt><trkpt lat="44.8858333" lon="7.6677967"><ele>235.0</ele><time>2026-05-01T10:42:16.352Z</time></trkpt><trkpt lat="44.8857317" lon="7.6677717"><ele>235.2</ele><time>2026-05-01T10:42:18.351Z</time></trkpt><trkpt lat="44.8856517" lon="7.6677417"><ele>235.4</ele><time>2026-05-01T10:42:21.353Z</time></trkpt><trkpt lat="44.885555" lon="7.667715"><ele>235.60000000000002</ele><time>2026-05-01T10:42:23.351Z</time></trkpt><trkpt lat="44.8854517" lon="7.667735"><ele>235.8</ele><time>2026-05-01T10:42:25.349Z</time></trkpt><trkpt lat="44.88542" lon="7.6678567"><ele>236.0</ele><time>2026-05-01T10:42:27.356Z</time></trkpt><trkpt lat="44.8854967" lon="7.668"><ele>236.0</ele><time>2026-05-01T10:42:29.353Z</time></trkpt><trkpt lat="44.8855817" lon="7.6680433"><ele>236.00000000000003</ele><time>2026-05-01T10:42:30.352Z</time></trkpt><trkpt lat="44.8856883" lon="7.6680667"><ele>236.00000000000003</ele><time>2026-05-01T10:42:31.351Z</time></trkpt><trkpt lat="44.8857983" lon="7.66808"><ele>236.0</ele><time>2026-05-01T10:42:32.351Z</time></trkpt><trkpt lat="44.8859117" lon="7.6680933"><ele>236.0</ele><time>2026-05-01T10:42:33.358Z</time></trkpt><trkpt lat="44.8860217" lon="7.6681117"><ele>235.8</ele><time>2026-05-01T10:42:34.348Z</time></trkpt><trkpt lat="44.8861217" lon="7.6681283"><ele>235.60000000000002</ele><time>2026-05-01T10:42:35.354Z</time></trkpt><trkpt lat="44.886215" lon="7.66814"><ele>235.4</ele><time>2026-05-01T10:42:36.348Z</time></trkpt><trkpt lat="44.8862933" lon="7.6681417"><ele>235.2</ele><time>2026-05-01T10:42:37.354Z</time></trkpt><trkpt lat="44.8863617" lon="7.6681233"><ele>235.0</ele><time>2026-05-01T10:42:38.353Z</time></trkpt><trkpt lat="44.8864533" lon="7.6680367"><ele>235.0</ele><time>2026-05-01T10:42:40.352Z</time></trkpt><trkpt lat="44.8865567" lon="7.667965"><ele>235.0</ele><time>2026-05-01T10:42:42.356Z</time></trkpt><trkpt lat="44.8866317" lon="7.6679667"><ele>235.0</ele><time>2026-05-01T10:42:43.357Z</time></trkpt><trkpt lat="44.8867317" lon="7.6679933"><ele>235.0</ele><time>2026-05-01T10:42:44.351Z</time></trkpt><trkpt lat="44.8868617" lon="7.66803"><ele>235.0</ele><time>2026-05-01T10:42:45.362Z</time></trkpt><trkpt lat="44.8870083" lon="7.66807"><ele>235.66666666666666</ele><time>2026-05-01T10:42:46.348Z</time></trkpt><trkpt lat="44.887165" lon="7.66811"><ele>236.33333333333331</ele><time>2026-05-01T10:42:47.352Z</time></trkpt><trkpt lat="44.8873333" lon="7.6681517"><ele>237.0</ele><time>2026-05-01T10:42:48.353Z</time></trkpt><trkpt lat="44.8875083" lon="7.668195"><ele>237.0</ele><time>2026-05-01T10:42:49.353Z</time></trkpt><trkpt lat="44.88768" lon="7.66824"><ele>237.0</ele><time>2026-05-01T10:42:50.354Z</time></trkpt><trkpt lat="44.8878617" lon="7.6682817"><ele>237.0</ele><time>2026-05-01T10:42:51.35Z</time></trkpt><trkpt lat="44.8880533" lon="7.6683233"><ele>237.0</ele><time>2026-05-01T10:42:52.351Z</time></trkpt><trkpt lat="44.888255" lon="7.668365"><ele>237.0</ele><time>2026-05-01T10:42:53.347Z</time></trkpt><trkpt lat="44.8884633" lon="7.6684067"><ele>237.0</ele><time>2026-05-01T10:42:54.354Z</time></trkpt><trkpt lat="44.8886817" lon="7.66845"><ele>237.0</ele><time>2026-05-01T10:42:55.351Z</time></trkpt><trkpt lat="44.8889" lon="7.66849"><ele>237.0</ele><time>2026-05-01T10:42:56.353Z</time></trkpt><trkpt lat="44.889115" lon="7.66853"><ele>237.0</ele><time>2026-05-01T10:42:57.353Z</time></trkpt><trkpt lat="44.8893283" lon="7.66857"><ele>237.33333333333331</ele><time>2026-05-01T10:42:58.351Z</time></trkpt><trkpt lat="44.8895383" lon="7.668615"><ele>237.66666666666666</ele><time>2026-05-01T10:42:59.353Z</time></trkpt><trkpt lat="44.8897417" lon="7.6686533"><ele>238.0</ele><time>2026-05-01T10:43:00.354Z</time></trkpt><trkpt lat="44.889945" lon="7.6686883"><ele>238.33333333333331</ele><time>2026-05-01T10:43:01.353Z</time></trkpt><trkpt lat="44.89015" lon="7.6687233"><ele>238.66666666666669</ele><time>2026-05-01T10:43:02.348Z</time></trkpt><trkpt lat="44.8903567" lon="7.66876"><ele>239.0</ele><time>2026-05-01T10:43:03.356Z</time></trkpt><trkpt lat="44.8905583" lon="7.6687967"><ele>239.0</ele><time>2026-05-01T10:43:04.352Z</time></trkpt><trkpt lat="44.89075" lon="7.6688333"><ele>239.0</ele><time>2026-05-01T10:43:05.353Z</time></trkpt><trkpt lat="44.8909233" lon="7.6688683"><ele>239.0</ele><time>2026-05-01T10:43:06.353Z</time></trkpt><trkpt lat="44.89108" lon="7.6688983"><ele>238.5</ele><time>2026-05-01T10:43:07.355Z</time></trkpt><trkpt lat="44.8912167" lon="7.66893"><ele>238.0</ele><time>2026-05-01T10:43:08.349Z</time></trkpt><trkpt lat="44.8913383" lon="7.6689683"><ele>237.5</ele><time>2026-05-01T10:43:09.355Z</time></trkpt><trkpt lat="44.8914467" lon="7.669025"><ele>237.0</ele><time>2026-05-01T10:43:10.351Z</time></trkpt><trkpt lat="44.8915383" lon="7.6691067"><ele>237.0</ele><time>2026-05-01T10:43:11.352Z</time></trkpt><trkpt lat="44.8916183" lon="7.6691983"><ele>237.0</ele><time>2026-05-01T10:43:12.351Z</time></trkpt><trkpt lat="44.8917033" lon="7.6692767"><ele>237.0</ele><time>2026-05-01T10:43:13.354Z</time></trkpt><trkpt lat="44.8917917" lon="7.6693167"><ele>237.0</ele><time>2026-05-01T10:43:14.352Z</time></trkpt><trkpt lat="44.8918767" lon="7.66933"><ele>237.0</ele><time>2026-05-01T10:43:15.353Z</time></trkpt><trkpt lat="44.8919583" lon="7.6693033"><ele>237.2</ele><time>2026-05-01T10:43:16.354Z</time></trkpt><trkpt lat="44.8920183" lon="7.6692033"><ele>237.39999999999998</ele><time>2026-05-01T10:43:17.352Z</time></trkpt><trkpt lat="44.89206" lon="7.66908"><ele>237.60000000000002</ele><time>2026-05-01T10:43:18.352Z</time></trkpt><trkpt lat="44.89207" lon="7.6689483"><ele>237.8</ele><time>2026-05-01T10:43:19.351Z</time></trkpt><trkpt lat="44.89203" lon="7.66883"><ele>238.0</ele><time>2026-05-01T10:43:20.351Z</time></trkpt><trkpt lat="44.891965" lon="7.6687317"><ele>238.0</ele><time>2026-05-01T10:43:21.356Z</time></trkpt><trkpt lat="44.8918733" lon="7.6686617"><ele>238.0</ele><time>2026-05-01T10:43:22.35Z</time></trkpt><trkpt lat="44.8917783" lon="7.668595"><ele>238.0</ele><time>2026-05-01T10:43:23.353Z</time></trkpt><trkpt lat="44.89169" lon="7.6685133"><ele>238.0</ele><time>2026-05-01T10:43:24.35Z</time></trkpt><trkpt lat="44.8916067" lon="7.6684367"><ele>238.0</ele><time>2026-05-01T10:43:25.35Z</time></trkpt><trkpt lat="44.8915233" lon="7.6684033"><ele>237.83333333333331</ele><time>2026-05-01T10:43:26.349Z</time></trkpt><trkpt lat="44.89144" lon="7.6684017"><ele>237.66666666666666</ele><time>2026-05-01T10:43:27.35Z</time></trkpt><trkpt lat="44.8913617" lon="7.6684517"><ele>237.5</ele><time>2026-05-01T10:43:28.35Z</time></trkpt><trkpt lat="44.8912867" lon="7.668555"><ele>237.33333333333331</ele><time>2026-05-01T10:43:29.35Z</time></trkpt><trkpt lat="44.8912083" lon="7.6686117"><ele>237.16666666666666</ele><time>2026-05-01T10:43:30.348Z</time></trkpt><trkpt lat="44.89113" lon="7.6686283"><ele>237.0</ele><time>2026-05-01T10:43:31.349Z</time></trkpt><trkpt lat="44.8910533" lon="7.6686033"><ele>237.0</ele><time>2026-05-01T10:43:32.355Z</time></trkpt><trkpt lat="44.89098" lon="7.6685367"><ele>237.0</ele><time>2026-05-01T10:43:33.355Z</time></trkpt><trkpt lat="44.89089" lon="7.668395"><ele>237.0</ele><time>2026-05-01T10:43:34.35Z</time></trkpt><trkpt lat="44.8907867" lon="7.66825"><ele>237.0</ele><time>2026-05-01T10:43:35.354Z</time></trkpt><trkpt lat="44.8906717" lon="7.6680967"><ele>237.0</ele><time>2026-05-01T10:43:36.356Z</time></trkpt><trkpt lat="44.8905483" lon="7.6679417"><ele>237.0</ele><time>2026-05-01T10:43:37.35Z</time></trkpt><trkpt lat="44.89042" lon="7.6677917"><ele>237.0</ele><time>2026-05-01T10:43:38.354Z</time></trkpt><trkpt lat="44.890285" lon="7.6676417"><ele>237.0</ele><time>2026-05-01T10:43:39.352Z</time></trkpt><trkpt lat="44.8901417" lon="7.667485"><ele>237.0</ele><time>2026-05-01T10:43:40.351Z</time></trkpt><trkpt lat="44.889995" lon="7.66732"><ele>237.0</ele><time>2026-05-01T10:43:41.351Z</time></trkpt><trkpt lat="44.8898367" lon="7.66715"><ele>237.0</ele><time>2026-05-01T10:43:42.354Z</time></trkpt><trkpt lat="44.8896733" lon="7.666985"><ele>237.0</ele><time>2026-05-01T10:43:43.348Z</time></trkpt><trkpt lat="44.8895083" lon="7.6668217"><ele>237.0</ele><time>2026-05-01T10:43:44.352Z</time></trkpt><trkpt lat="44.8893417" lon="7.66666"><ele>237.0</ele><time>2026-05-01T10:43:45.356Z</time></trkpt><trkpt lat="44.88918" lon="7.6665"><ele>237.0</ele><time>2026-05-01T10:43:46.352Z</time></trkpt><trkpt lat="44.8890283" lon="7.6663433"><ele>237.0</ele><time>2026-05-01T10:43:47.352Z</time></trkpt><trkpt lat="44.8888883" lon="7.6661717"><ele>237.0</ele><time>2026-05-01T10:43:48.353Z</time></trkpt><trkpt lat="44.888765" lon="7.6659717"><ele>237.0</ele><time>2026-05-01T10:43:49.351Z</time></trkpt><trkpt lat="44.88865" lon="7.6657583"><ele>237.0</ele><time>2026-05-01T10:43:50.352Z</time></trkpt><trkpt lat="44.8885217" lon="7.66554"><ele>237.66666666666669</ele><time>2026-05-01T10:43:51.351Z</time></trkpt><trkpt lat="44.8883783" lon="7.66532"><ele>238.33333333333334</ele><time>2026-05-01T10:43:52.351Z</time></trkpt><trkpt lat="44.8882317" lon="7.6650867"><ele>239.0</ele><time>2026-05-01T10:43:53.352Z</time></trkpt><trkpt lat="44.8880833" lon="7.6648467"><ele>239.0</ele><time>2026-05-01T10:43:54.352Z</time></trkpt><trkpt lat="44.887935" lon="7.6646067"><ele>239.0</ele><time>2026-05-01T10:43:55.352Z</time></trkpt><trkpt lat="44.8877867" lon="7.66436"><ele>238.0</ele><time>2026-05-01T10:43:56.352Z</time></trkpt><trkpt lat="44.88764" lon="7.6641"><ele>237.0</ele><time>2026-05-01T10:43:57.352Z</time></trkpt><trkpt lat="44.8875033" lon="7.6638233"><ele>236.0</ele><time>2026-05-01T10:43:58.357Z</time></trkpt><trkpt lat="44.8873767" lon="7.663525"><ele>235.0</ele><time>2026-05-01T10:43:59.355Z</time></trkpt><trkpt lat="44.8872567" lon="7.6632133"><ele>235.0</ele><time>2026-05-01T10:44:00.35Z</time></trkpt><trkpt lat="44.8871367" lon="7.662895"><ele>235.0</ele><time>2026-05-01T10:44:01.35Z</time></trkpt><trkpt lat="44.8870067" lon="7.662575"><ele>234.5</ele><time>2026-05-01T10:44:02.349Z</time></trkpt><trkpt lat="44.8868667" lon="7.6622567"><ele>234.0</ele><time>2026-05-01T10:44:03.353Z</time></trkpt><trkpt lat="44.8867233" lon="7.661945"><ele>235.5</ele><time>2026-05-01T10:44:04.352Z</time></trkpt><trkpt lat="44.8865867" lon="7.66163"><ele>237.0</ele><time>2026-05-01T10:44:05.352Z</time></trkpt><trkpt lat="44.8864617" lon="7.6613067"><ele>236.5</ele><time>2026-05-01T10:44:06.35Z</time></trkpt><trkpt lat="44.8863483" lon="7.66097"><ele>236.0</ele><time>2026-05-01T10:44:07.351Z</time></trkpt><trkpt lat="44.886245" lon="7.6606283"><ele>236.0</ele><time>2026-05-01T10:44:08.353Z</time></trkpt><trkpt lat="44.8861433" lon="7.6602867"><ele>236.0</ele><time>2026-05-01T10:44:09.35Z</time></trkpt><trkpt lat="44.8860333" lon="7.6599583"><ele>236.0</ele><time>2026-05-01T10:44:10.351Z</time></trkpt><trkpt lat="44.8859133" lon="7.6596567"><ele>236.0</ele><time>2026-05-01T10:44:11.354Z</time></trkpt><trkpt lat="44.8857817" lon="7.659375"><ele>236.0</ele><time>2026-05-01T10:44:12.35Z</time></trkpt><trkpt lat="44.8856517" lon="7.6591033"><ele>236.0</ele><time>2026-05-01T10:44:13.351Z</time></trkpt><trkpt lat="44.8855267" lon="7.6588417"><ele>235.33333333333334</ele><time>2026-05-01T10:44:14.349Z</time></trkpt><trkpt lat="44.8854067" lon="7.6585867"><ele>234.66666666666669</ele><time>2026-05-01T10:44:15.35Z</time></trkpt><trkpt lat="44.885285" lon="7.65833"><ele>234.0</ele><time>2026-05-01T10:44:16.349Z</time></trkpt><trkpt lat="44.8851633" lon="7.6580733"><ele>234.5</ele><time>2026-05-01T10:44:17.354Z</time></trkpt><trkpt lat="44.8850317" lon="7.6578183"><ele>235.0</ele><time>2026-05-01T10:44:18.352Z</time></trkpt><trkpt lat="44.8848933" lon="7.6575633"><ele>235.5</ele><time>2026-05-01T10:44:19.353Z</time></trkpt><trkpt lat="44.88475" lon="7.6573033"><ele>236.0</ele><time>2026-05-01T10:44:20.348Z</time></trkpt><trkpt lat="44.8846017" lon="7.6570433"><ele>236.0</ele><time>2026-05-01T10:44:21.353Z</time></trkpt><trkpt lat="44.884445" lon="7.6567867"><ele>236.0</ele><time>2026-05-01T10:44:22.351Z</time></trkpt><trkpt lat="44.8842783" lon="7.6565383"><ele>237.0</ele><time>2026-05-01T10:44:23.35Z</time></trkpt><trkpt lat="44.8841033" lon="7.6563033"><ele>238.0</ele><time>2026-05-01T10:44:24.352Z</time></trkpt><trkpt lat="44.8839217" lon="7.65607"><ele>238.0</ele><time>2026-05-01T10:44:25.35Z</time></trkpt><trkpt lat="44.8837383" lon="7.6558383"><ele>238.0</ele><time>2026-05-01T10:44:26.355Z</time></trkpt><trkpt lat="44.8835467" lon="7.6556183"><ele>238.0</ele><time>2026-05-01T10:44:27.358Z</time></trkpt><trkpt lat="44.8833483" lon="7.65541"><ele>238.0</ele><time>2026-05-01T10:44:28.352Z</time></trkpt><trkpt lat="44.8831417" lon="7.6552117"><ele>238.0</ele><time>2026-05-01T10:44:29.352Z</time></trkpt><trkpt lat="44.8829333" lon="7.6550167"><ele>238.0</ele><time>2026-05-01T10:44:30.354Z</time></trkpt><trkpt lat="44.8827283" lon="7.65482"><ele>238.0</ele><time>2026-05-01T10:44:31.352Z</time></trkpt><trkpt lat="44.8825267" lon="7.6546233"><ele>238.0</ele><time>2026-05-01T10:44:32.353Z</time></trkpt><trkpt lat="44.8823267" lon="7.6544183"><ele>238.0</ele><time>2026-05-01T10:44:33.353Z</time></trkpt><trkpt lat="44.8821283" lon="7.6542017"><ele>238.0</ele><time>2026-05-01T10:44:34.353Z</time></trkpt><trkpt lat="44.88193" lon="7.6539833"><ele>237.0</ele><time>2026-05-01T10:44:35.352Z</time></trkpt><trkpt lat="44.8817267" lon="7.6537567"><ele>236.0</ele><time>2026-05-01T10:44:36.351Z</time></trkpt><trkpt lat="44.8815167" lon="7.6535367"><ele>236.0</ele><time>2026-05-01T10:44:37.349Z</time></trkpt><trkpt lat="44.881295" lon="7.6533233"><ele>236.0</ele><time>2026-05-01T10:44:38.35Z</time></trkpt><trkpt lat="44.88107" lon="7.6531183"><ele>236.0</ele><time>2026-05-01T10:44:39.354Z</time></trkpt><trkpt lat="44.88084" lon="7.6529133"><ele>236.0</ele><time>2026-05-01T10:44:40.353Z</time></trkpt><trkpt lat="44.8806067" lon="7.6527067"><ele>235.5</ele><time>2026-05-01T10:44:41.355Z</time></trkpt><trkpt lat="44.88037" lon="7.6524917"><ele>235.0</ele><time>2026-05-01T10:44:42.354Z</time></trkpt><trkpt lat="44.88013" lon="7.65227"><ele>235.5</ele><time>2026-05-01T10:44:43.357Z</time></trkpt><trkpt lat="44.8798833" lon="7.652035"><ele>236.0</ele><time>2026-05-01T10:44:44.356Z</time></trkpt><trkpt lat="44.8796333" lon="7.6517833"><ele>236.0</ele><time>2026-05-01T10:44:45.357Z</time></trkpt><trkpt lat="44.8793817" lon="7.65152"><ele>236.0</ele><time>2026-05-01T10:44:46.355Z</time></trkpt><trkpt lat="44.8791317" lon="7.6512467"><ele>236.0</ele><time>2026-05-01T10:44:47.352Z</time></trkpt><trkpt lat="44.8788883" lon="7.6509667"><ele>236.0</ele><time>2026-05-01T10:44:48.354Z</time></trkpt><trkpt lat="44.8786533" lon="7.65068"><ele>236.5</ele><time>2026-05-01T10:44:49.355Z</time></trkpt><trkpt lat="44.87843" lon="7.650405"><ele>237.0</ele><time>2026-05-01T10:44:50.353Z</time></trkpt><trkpt lat="44.8782083" lon="7.6501483"><ele>237.0</ele><time>2026-05-01T10:44:51.354Z</time></trkpt><trkpt lat="44.8779833" lon="7.6499167"><ele>237.0</ele><time>2026-05-01T10:44:52.35Z</time></trkpt><trkpt lat="44.877745" lon="7.6497133"><ele>237.0</ele><time>2026-05-01T10:44:53.355Z</time></trkpt><trkpt lat="44.8774917" lon="7.6495283"><ele>237.0</ele><time>2026-05-01T10:44:54.351Z</time></trkpt><trkpt lat="44.8772317" lon="7.6493533"><ele>236.5</ele><time>2026-05-01T10:44:55.354Z</time></trkpt><trkpt lat="44.87697" lon="7.6491683"><ele>236.0</ele><time>2026-05-01T10:44:56.353Z</time></trkpt><trkpt lat="44.8767133" lon="7.648965"><ele>237.0</ele><time>2026-05-01T10:44:57.353Z</time></trkpt><trkpt lat="44.87646" lon="7.6487367"><ele>238.0</ele><time>2026-05-01T10:44:58.359Z</time></trkpt><trkpt lat="44.8762067" lon="7.6484917"><ele>238.0</ele><time>2026-05-01T10:44:59.352Z</time></trkpt><trkpt lat="44.8759467" lon="7.6482417"><ele>238.0</ele><time>2026-05-01T10:45:00.354Z</time></trkpt><trkpt lat="44.875685" lon="7.6479883"><ele>237.0</ele><time>2026-05-01T10:45:01.356Z</time></trkpt><trkpt lat="44.8754233" lon="7.6477367"><ele>236.0</ele><time>2026-05-01T10:45:02.351Z</time></trkpt><trkpt lat="44.875165" lon="7.6474883"><ele>236.5</ele><time>2026-05-01T10:45:03.348Z</time></trkpt><trkpt lat="44.87491" lon="7.6472417"><ele>237.0</ele><time>2026-05-01T10:45:04.349Z</time></trkpt><trkpt lat="44.8746583" lon="7.6469967"><ele>237.5</ele><time>2026-05-01T10:45:05.352Z</time></trkpt><trkpt lat="44.8744117" lon="7.6467483"><ele>238.0</ele><time>2026-05-01T10:45:06.352Z</time></trkpt><trkpt lat="44.874175" lon="7.6464883"><ele>237.5</ele><time>2026-05-01T10:45:07.352Z</time></trkpt><trkpt lat="44.8739533" lon="7.6462083"><ele>237.0</ele><time>2026-05-01T10:45:08.35Z</time></trkpt><trkpt lat="44.8737433" lon="7.6459133"><ele>237.0</ele><time>2026-05-01T10:45:09.353Z</time></trkpt><trkpt lat="44.87353" lon="7.6456167"><ele>237.0</ele><time>2026-05-01T10:45:10.354Z</time></trkpt><trkpt lat="44.8733133" lon="7.6453217"><ele>237.0</ele><time>2026-05-01T10:45:11.35Z</time></trkpt><trkpt lat="44.873095" lon="7.6450283"><ele>237.0</ele><time>2026-05-01T10:45:12.352Z</time></trkpt><trkpt lat="44.872875" lon="7.6447417"><ele>237.5</ele><time>2026-05-01T10:45:13.353Z</time></trkpt><trkpt lat="44.8726583" lon="7.6444567"><ele>238.0</ele><time>2026-05-01T10:45:14.353Z</time></trkpt><trkpt lat="44.8724417" lon="7.6441767"><ele>238.0</ele><time>2026-05-01T10:45:15.351Z</time></trkpt><trkpt lat="44.87222" lon="7.6439033"><ele>238.0</ele><time>2026-05-01T10:45:16.353Z</time></trkpt><trkpt lat="44.871995" lon="7.6436433"><ele>238.5</ele><time>2026-05-01T10:45:17.351Z</time></trkpt><trkpt lat="44.8717617" lon="7.6434"><ele>239.0</ele><time>2026-05-01T10:45:18.356Z</time></trkpt><trkpt lat="44.8715317" lon="7.643165"><ele>239.0</ele><time>2026-05-01T10:45:19.356Z</time></trkpt><trkpt lat="44.8713017" lon="7.6429367"><ele>239.0</ele><time>2026-05-01T10:45:20.351Z</time></trkpt><trkpt lat="44.87108" lon="7.6427133"><ele>240.5</ele><time>2026-05-01T10:45:21.352Z</time></trkpt><trkpt lat="44.8708667" lon="7.6424983"><ele>242.0</ele><time>2026-05-01T10:45:22.352Z</time></trkpt><trkpt lat="44.8706583" lon="7.6422917"><ele>242.0</ele><time>2026-05-01T10:45:23.349Z</time></trkpt><trkpt lat="44.87045" lon="7.6421017"><ele>242.0</ele><time>2026-05-01T10:45:24.359Z</time></trkpt><trkpt lat="44.870245" lon="7.6419217"><ele>242.0</ele><time>2026-05-01T10:45:25.349Z</time></trkpt><trkpt lat="44.8700433" lon="7.6417467"><ele>242.0</ele><time>2026-05-01T10:45:26.354Z</time></trkpt><trkpt lat="44.8698417" lon="7.6415767"><ele>242.0</ele><time>2026-05-01T10:45:27.355Z</time></trkpt><trkpt lat="44.8696433" lon="7.6414083"><ele>242.0</ele><time>2026-05-01T10:45:28.354Z</time></trkpt><trkpt lat="44.86945" lon="7.6412367"><ele>242.0</ele><time>2026-05-01T10:45:29.35Z</time></trkpt><trkpt lat="44.8692567" lon="7.6410633"><ele>242.0</ele><time>2026-05-01T10:45:30.349Z</time></trkpt><trkpt lat="44.8690567" lon="7.640895"><ele>242.0</ele><time>2026-05-01T10:45:31.352Z</time></trkpt><trkpt lat="44.868855" lon="7.6407283"><ele>242.0</ele><time>2026-05-01T10:45:32.347Z</time></trkpt><trkpt lat="44.8686483" lon="7.6405567"><ele>242.0</ele><time>2026-05-01T10:45:33.351Z</time></trkpt><trkpt lat="44.8684433" lon="7.6403717"><ele>242.0</ele><time>2026-05-01T10:45:34.351Z</time></trkpt><trkpt lat="44.868235" lon="7.64017"><ele>241.0</ele><time>2026-05-01T10:45:35.351Z</time></trkpt><trkpt lat="44.8680267" lon="7.6399633"><ele>240.0</ele><time>2026-05-01T10:45:36.349Z</time></trkpt><trkpt lat="44.86782" lon="7.63975"><ele>240.0</ele><time>2026-05-01T10:45:37.354Z</time></trkpt><trkpt lat="44.8676167" lon="7.6395333"><ele>240.0</ele><time>2026-05-01T10:45:38.355Z</time></trkpt><trkpt lat="44.86742" lon="7.6393233"><ele>240.0</ele><time>2026-05-01T10:45:39.351Z</time></trkpt><trkpt lat="44.8672267" lon="7.6391133"><ele>240.0</ele><time>2026-05-01T10:45:40.35Z</time></trkpt><trkpt lat="44.8670333" lon="7.6388983"><ele>240.0</ele><time>2026-05-01T10:45:41.348Z</time></trkpt><trkpt lat="44.86683" lon="7.63869"><ele>240.0</ele><time>2026-05-01T10:45:42.351Z</time></trkpt><trkpt lat="44.8666183" lon="7.63849"><ele>240.0</ele><time>2026-05-01T10:45:43.353Z</time></trkpt><trkpt lat="44.8664033" lon="7.638295"><ele>240.0</ele><time>2026-05-01T10:45:44.35Z</time></trkpt><trkpt lat="44.866185" lon="7.6380983"><ele>240.0</ele><time>2026-05-01T10:45:45.353Z</time></trkpt><trkpt lat="44.865965" lon="7.6379017"><ele>240.0</ele><time>2026-05-01T10:45:46.352Z</time></trkpt><trkpt lat="44.865745" lon="7.6376983"><ele>239.5</ele><time>2026-05-01T10:45:47.35Z</time></trkpt><trkpt lat="44.8655233" lon="7.6374867"><ele>239.0</ele><time>2026-05-01T10:45:48.35Z</time></trkpt><trkpt lat="44.8653" lon="7.63727"><ele>239.5</ele><time>2026-05-01T10:45:49.349Z</time></trkpt><trkpt lat="44.8650733" lon="7.6370483"><ele>240.0</ele><time>2026-05-01T10:45:50.353Z</time></trkpt><trkpt lat="44.8648433" lon="7.636825"><ele>240.0</ele><time>2026-05-01T10:45:51.354Z</time></trkpt><trkpt lat="44.8646117" lon="7.6365983"><ele>240.0</ele><time>2026-05-01T10:45:52.355Z</time></trkpt><trkpt lat="44.86438" lon="7.63637"><ele>240.0</ele><time>2026-05-01T10:45:53.353Z</time></trkpt><trkpt lat="44.86415" lon="7.6361417"><ele>240.0</ele><time>2026-05-01T10:45:54.349Z</time></trkpt><trkpt lat="44.8639217" lon="7.6359083"><ele>240.0</ele><time>2026-05-01T10:45:55.353Z</time></trkpt><trkpt lat="44.8636933" lon="7.6356683"><ele>240.0</ele><time>2026-05-01T10:45:56.35Z</time></trkpt><trkpt lat="44.863465" lon="7.6354217"><ele>240.5</ele><time>2026-05-01T10:45:57.355Z</time></trkpt><trkpt lat="44.8632367" lon="7.6351733"><ele>241.0</ele><time>2026-05-01T10:45:58.354Z</time></trkpt><trkpt lat="44.8630083" lon="7.6349283"><ele>241.0</ele><time>2026-05-01T10:45:59.351Z</time></trkpt><trkpt lat="44.8627783" lon="7.6346883"><ele>241.0</ele><time>2026-05-01T10:46:00.349Z</time></trkpt><trkpt lat="44.86255" lon="7.634455"><ele>240.5</ele><time>2026-05-01T10:46:01.354Z</time></trkpt><trkpt lat="44.8623183" lon="7.6342283"><ele>240.0</ele><time>2026-05-01T10:46:02.352Z</time></trkpt><trkpt lat="44.8620917" lon="7.634005"><ele>240.0</ele><time>2026-05-01T10:46:03.355Z</time></trkpt><trkpt lat="44.8618717" lon="7.6337917"><ele>240.0</ele><time>2026-05-01T10:46:04.354Z</time></trkpt><trkpt lat="44.8616583" lon="7.6335783"><ele>239.5</ele><time>2026-05-01T10:46:05.351Z</time></trkpt><trkpt lat="44.8614567" lon="7.6333683"><ele>239.0</ele><time>2026-05-01T10:46:06.35Z</time></trkpt><trkpt lat="44.861265" lon="7.6331617"><ele>239.0</ele><time>2026-05-01T10:46:07.352Z</time></trkpt><trkpt lat="44.8610933" lon="7.63295"><ele>239.0</ele><time>2026-05-01T10:46:08.351Z</time></trkpt><trkpt lat="44.86094" lon="7.6327383"><ele>239.0</ele><time>2026-05-01T10:46:09.353Z</time></trkpt><trkpt lat="44.8607917" lon="7.6325133"><ele>240.5</ele><time>2026-05-01T10:46:10.35Z</time></trkpt><trkpt lat="44.860645" lon="7.6322767"><ele>242.0</ele><time>2026-05-01T10:46:11.351Z</time></trkpt><trkpt lat="44.8604983" lon="7.632025"><ele>241.5</ele><time>2026-05-01T10:46:12.348Z</time></trkpt><trkpt lat="44.8603533" lon="7.6317617"><ele>241.0</ele><time>2026-05-01T10:46:13.355Z</time></trkpt><trkpt lat="44.8602033" lon="7.63149"><ele>241.0</ele><time>2026-05-01T10:46:14.351Z</time></trkpt><trkpt lat="44.8600533" lon="7.6312083"><ele>241.0</ele><time>2026-05-01T10:46:15.352Z</time></trkpt><trkpt lat="44.8599017" lon="7.6309217"><ele>241.0</ele><time>2026-05-01T10:46:16.35Z</time></trkpt><trkpt lat="44.85975" lon="7.6306283"><ele>241.0</ele><time>2026-05-01T10:46:17.351Z</time></trkpt><trkpt lat="44.8596" lon="7.63033"><ele>240.5</ele><time>2026-05-01T10:46:18.353Z</time></trkpt><trkpt lat="44.859445" lon="7.63003"><ele>240.0</ele><time>2026-05-01T10:46:19.355Z</time></trkpt><trkpt lat="44.8592883" lon="7.62973"><ele>240.5</ele><time>2026-05-01T10:46:20.349Z</time></trkpt><trkpt lat="44.8591283" lon="7.6294317"><ele>241.0</ele><time>2026-05-01T10:46:21.349Z</time></trkpt><trkpt lat="44.8589783" lon="7.6291333"><ele>241.0</ele><time>2026-05-01T10:46:22.351Z</time></trkpt><trkpt lat="44.85884" lon="7.6288333"><ele>241.0</ele><time>2026-05-01T10:46:23.352Z</time></trkpt><trkpt lat="44.8587133" lon="7.6285317"><ele>241.5</ele><time>2026-05-01T10:46:24.353Z</time></trkpt><trkpt lat="44.8586033" lon="7.6282233"><ele>242.0</ele><time>2026-05-01T10:46:25.353Z</time></trkpt><trkpt lat="44.8585033" lon="7.6279117"><ele>242.0</ele><time>2026-05-01T10:46:26.353Z</time></trkpt><trkpt lat="44.8584133" lon="7.6276033"><ele>242.0</ele><time>2026-05-01T10:46:27.349Z</time></trkpt><trkpt lat="44.8583283" lon="7.6273083"><ele>242.0</ele><time>2026-05-01T10:46:28.354Z</time></trkpt><trkpt lat="44.858245" lon="7.62703"><ele>242.0</ele><time>2026-05-01T10:46:29.35Z</time></trkpt><trkpt lat="44.85816" lon="7.6267717"><ele>242.0</ele><time>2026-05-01T10:46:30.356Z</time></trkpt><trkpt lat="44.8580733" lon="7.6265367"><ele>242.0</ele><time>2026-05-01T10:46:31.353Z</time></trkpt><trkpt lat="44.8579783" lon="7.6263183"><ele>242.0</ele><time>2026-05-01T10:46:32.352Z</time></trkpt><trkpt lat="44.8578733" lon="7.6261067"><ele>242.0</ele><time>2026-05-01T10:46:33.349Z</time></trkpt><trkpt lat="44.8577567" lon="7.6259017"><ele>242.0</ele><time>2026-05-01T10:46:34.351Z</time></trkpt><trkpt lat="44.857635" lon="7.6257067"><ele>242.0</ele><time>2026-05-01T10:46:35.353Z</time></trkpt><trkpt lat="44.8575017" lon="7.6255167"><ele>242.0</ele><time>2026-05-01T10:46:36.354Z</time></trkpt><trkpt lat="44.85736" lon="7.6253317"><ele>242.0</ele><time>2026-05-01T10:46:37.354Z</time></trkpt><trkpt lat="44.85721" lon="7.6251517"><ele>242.0</ele><time>2026-05-01T10:46:38.353Z</time></trkpt><trkpt lat="44.8570533" lon="7.6249767"><ele>242.0</ele><time>2026-05-01T10:46:39.351Z</time></trkpt><trkpt lat="44.8568883" lon="7.6248067"><ele>241.66666666666669</ele><time>2026-05-01T10:46:40.352Z</time></trkpt><trkpt lat="44.856715" lon="7.6246383"><ele>241.33333333333331</ele><time>2026-05-01T10:46:41.35Z</time></trkpt><trkpt lat="44.85654" lon="7.62447"><ele>241.0</ele><time>2026-05-01T10:46:42.352Z</time></trkpt><trkpt lat="44.85636" lon="7.6243"><ele>241.0</ele><time>2026-05-01T10:46:43.349Z</time></trkpt><trkpt lat="44.856185" lon="7.6241283"><ele>241.0</ele><time>2026-05-01T10:46:44.353Z</time></trkpt><trkpt lat="44.8560117" lon="7.6239533"><ele>241.0</ele><time>2026-05-01T10:46:45.349Z</time></trkpt><trkpt lat="44.8558483" lon="7.6237733"><ele>242.33333333333331</ele><time>2026-05-01T10:46:46.35Z</time></trkpt><trkpt lat="44.8556967" lon="7.62358"><ele>243.66666666666669</ele><time>2026-05-01T10:46:47.356Z</time></trkpt><trkpt lat="44.8555567" lon="7.6233683"><ele>245.0</ele><time>2026-05-01T10:46:48.354Z</time></trkpt><trkpt lat="44.8554267" lon="7.62314"><ele>245.0</ele><time>2026-05-01T10:46:49.354Z</time></trkpt><trkpt lat="44.8553" lon="7.6229017"><ele>245.0</ele><time>2026-05-01T10:46:50.353Z</time></trkpt><trkpt lat="44.8551717" lon="7.62266"><ele>245.0</ele><time>2026-05-01T10:46:51.353Z</time></trkpt><trkpt lat="44.85505" lon="7.62241"><ele>244.33333333333334</ele><time>2026-05-01T10:46:52.352Z</time></trkpt><trkpt lat="44.8549317" lon="7.6221483"><ele>243.66666666666669</ele><time>2026-05-01T10:46:53.352Z</time></trkpt><trkpt lat="44.8548167" lon="7.6218817"><ele>243.0</ele><time>2026-05-01T10:46:54.355Z</time></trkpt><trkpt lat="44.854705" lon="7.6216083"><ele>242.66666666666669</ele><time>2026-05-01T10:46:55.352Z</time></trkpt><trkpt lat="44.854595" lon="7.621335"><ele>242.33333333333334</ele><time>2026-05-01T10:46:56.353Z</time></trkpt><trkpt lat="44.8544883" lon="7.6210583"><ele>242.0</ele><time>2026-05-01T10:46:57.353Z</time></trkpt><trkpt lat="44.8543817" lon="7.620785"><ele>242.33333333333334</ele><time>2026-05-01T10:46:58.355Z</time></trkpt><trkpt lat="44.8542733" lon="7.6205183"><ele>242.66666666666669</ele><time>2026-05-01T10:46:59.354Z</time></trkpt><trkpt lat="44.8541617" lon="7.6202633"><ele>243.0</ele><time>2026-05-01T10:47:00.353Z</time></trkpt><trkpt lat="44.8540483" lon="7.6200167"><ele>242.0</ele><time>2026-05-01T10:47:01.351Z</time></trkpt><trkpt lat="44.8539367" lon="7.6197833"><ele>241.0</ele><time>2026-05-01T10:47:02.351Z</time></trkpt><trkpt lat="44.853835" lon="7.6195633"><ele>240.0</ele><time>2026-05-01T10:47:03.356Z</time></trkpt><trkpt lat="44.8537417" lon="7.61935"><ele>239.66666666666669</ele><time>2026-05-01T10:47:04.35Z</time></trkpt><trkpt lat="44.853655" lon="7.6191467"><ele>239.33333333333334</ele><time>2026-05-01T10:47:05.35Z</time></trkpt><trkpt lat="44.85358" lon="7.6189533"><ele>239.0</ele><time>2026-05-01T10:47:06.35Z</time></trkpt><trkpt lat="44.85352" lon="7.6187817"><ele>239.6</ele><time>2026-05-01T10:47:07.351Z</time></trkpt><trkpt lat="44.8534717" lon="7.6186333"><ele>240.2</ele><time>2026-05-01T10:47:08.353Z</time></trkpt><trkpt lat="44.8534417" lon="7.618505"><ele>240.79999999999998</ele><time>2026-05-01T10:47:09.354Z</time></trkpt><trkpt lat="44.8534233" lon="7.6183967"><ele>241.39999999999998</ele><time>2026-05-01T10:47:10.352Z</time></trkpt><trkpt lat="44.8533967" lon="7.618255"><ele>242.0</ele><time>2026-05-01T10:47:12.352Z</time></trkpt><trkpt lat="44.8533267" lon="7.6181933"><ele>242.0</ele><time>2026-05-01T10:47:16.35Z</time></trkpt><trkpt lat="44.8532067" lon="7.61827"><ele>242.0</ele><time>2026-05-01T10:47:18.355Z</time></trkpt><trkpt lat="44.8531283" lon="7.6183517"><ele>242.0</ele><time>2026-05-01T10:47:19.357Z</time></trkpt><trkpt lat="44.8530367" lon="7.6184583"><ele>242.0</ele><time>2026-05-01T10:47:20.353Z</time></trkpt><trkpt lat="44.8529333" lon="7.618575"><ele>242.0</ele><time>2026-05-01T10:47:21.352Z</time></trkpt><trkpt lat="44.85282" lon="7.6187017"><ele>242.0</ele><time>2026-05-01T10:47:22.354Z</time></trkpt><trkpt lat="44.852695" lon="7.6188417"><ele>242.0</ele><time>2026-05-01T10:47:23.355Z</time></trkpt><trkpt lat="44.8525617" lon="7.6189883"><ele>242.0</ele><time>2026-05-01T10:47:24.354Z</time></trkpt><trkpt lat="44.852425" lon="7.61914"><ele>242.0</ele><time>2026-05-01T10:47:25.355Z</time></trkpt><trkpt lat="44.852285" lon="7.6192933"><ele>242.0</ele><time>2026-05-01T10:47:26.356Z</time></trkpt><trkpt lat="44.852145" lon="7.6194517"><ele>242.0</ele><time>2026-05-01T10:47:27.353Z</time></trkpt><trkpt lat="44.8520033" lon="7.6196067"><ele>242.0</ele><time>2026-05-01T10:47:28.355Z</time></trkpt><trkpt lat="44.85186" lon="7.6197567"><ele>242.0</ele><time>2026-05-01T10:47:29.355Z</time></trkpt><trkpt lat="44.8517117" lon="7.6198967"><ele>242.0</ele><time>2026-05-01T10:47:30.351Z</time></trkpt><trkpt lat="44.851555" lon="7.6200283"><ele>242.0</ele><time>2026-05-01T10:47:31.352Z</time></trkpt><trkpt lat="44.85139" lon="7.62015"><ele>242.0</ele><time>2026-05-01T10:47:32.353Z</time></trkpt><trkpt lat="44.8512217" lon="7.62027"><ele>242.33333333333334</ele><time>2026-05-01T10:47:33.357Z</time></trkpt><trkpt lat="44.8510517" lon="7.6203867"><ele>242.66666666666669</ele><time>2026-05-01T10:47:34.35Z</time></trkpt><trkpt lat="44.850875" lon="7.6205067"><ele>243.0</ele><time>2026-05-01T10:47:35.352Z</time></trkpt><trkpt lat="44.8506983" lon="7.6206233"><ele>242.33333333333331</ele><time>2026-05-01T10:47:36.353Z</time></trkpt><trkpt lat="44.850525" lon="7.6207383"><ele>241.66666666666666</ele><time>2026-05-01T10:47:37.351Z</time></trkpt><trkpt lat="44.8503533" lon="7.62085"><ele>241.0</ele><time>2026-05-01T10:47:38.351Z</time></trkpt><trkpt lat="44.8501817" lon="7.6209533"><ele>241.0</ele><time>2026-05-01T10:47:39.356Z</time></trkpt><trkpt lat="44.8500017" lon="7.6210483"><ele>241.0</ele><time>2026-05-01T10:47:40.353Z</time></trkpt><trkpt lat="44.8498183" lon="7.6211233"><ele>241.0</ele><time>2026-05-01T10:47:41.356Z</time></trkpt><trkpt lat="44.8496367" lon="7.6211917"><ele>241.0</ele><time>2026-05-01T10:47:42.35Z</time></trkpt><trkpt lat="44.8494533" lon="7.6212583"><ele>241.0</ele><time>2026-05-01T10:47:43.351Z</time></trkpt><trkpt lat="44.849275" lon="7.6213217"><ele>241.0</ele><time>2026-05-01T10:47:44.348Z</time></trkpt><trkpt lat="44.849105" lon="7.621385"><ele>240.66666666666666</ele><time>2026-05-01T10:47:45.352Z</time></trkpt><trkpt lat="44.8489433" lon="7.62145"><ele>240.33333333333331</ele><time>2026-05-01T10:47:46.352Z</time></trkpt><trkpt lat="44.8487933" lon="7.6215167"><ele>240.0</ele><time>2026-05-01T10:47:47.356Z</time></trkpt><trkpt lat="44.8486517" lon="7.6215817"><ele>240.0</ele><time>2026-05-01T10:47:48.352Z</time></trkpt><trkpt lat="44.848525" lon="7.6216433"><ele>240.0</ele><time>2026-05-01T10:47:49.351Z</time></trkpt><trkpt lat="44.8484067" lon="7.6216983"><ele>240.0</ele><time>2026-05-01T10:47:50.354Z</time></trkpt><trkpt lat="44.8483083" lon="7.6217383"><ele>240.0</ele><time>2026-05-01T10:47:51.353Z</time></trkpt><trkpt lat="44.84824" lon="7.6217483"><ele>240.0</ele><time>2026-05-01T10:47:52.354Z</time></trkpt><trkpt lat="44.8481283" lon="7.6216867"><ele>239.75</ele><time>2026-05-01T10:47:54.35Z</time></trkpt><trkpt lat="44.84807" lon="7.6215083"><ele>239.5</ele><time>2026-05-01T10:47:56.353Z</time></trkpt><trkpt lat="44.84806" lon="7.6213767"><ele>239.25</ele><time>2026-05-01T10:47:57.355Z</time></trkpt><trkpt lat="44.8480683" lon="7.621225"><ele>239.0</ele><time>2026-05-01T10:47:58.352Z</time></trkpt><trkpt lat="44.8481017" lon="7.621065"><ele>239.5</ele><time>2026-05-01T10:47:59.357Z</time></trkpt><trkpt lat="44.8481533" lon="7.6208967"><ele>240.0</ele><time>2026-05-01T10:48:00.352Z</time></trkpt><trkpt lat="44.8482183" lon="7.620725"><ele>240.5</ele><time>2026-05-01T10:48:01.351Z</time></trkpt><trkpt lat="44.84828" lon="7.620545"><ele>241.0</ele><time>2026-05-01T10:48:02.353Z</time></trkpt><trkpt lat="44.8483233" lon="7.6203517"><ele>241.75</ele><time>2026-05-01T10:48:03.35Z</time></trkpt><trkpt lat="44.84834" lon="7.6201467"><ele>242.5</ele><time>2026-05-01T10:48:04.353Z</time></trkpt><trkpt lat="44.8483333" lon="7.6199383"><ele>243.25</ele><time>2026-05-01T10:48:05.354Z</time></trkpt><trkpt lat="44.84831" lon="7.619735"><ele>244.0</ele><time>2026-05-01T10:48:06.356Z</time></trkpt><trkpt lat="44.8482883" lon="7.61954"><ele>243.79999999999998</ele><time>2026-05-01T10:48:07.355Z</time></trkpt><trkpt lat="44.8482667" lon="7.6193533"><ele>243.59999999999997</ele><time>2026-05-01T10:48:08.35Z</time></trkpt><trkpt lat="44.8482517" lon="7.6191883"><ele>243.4</ele><time>2026-05-01T10:48:09.356Z</time></trkpt><trkpt lat="44.8482283" lon="7.6190483"><ele>243.2</ele><time>2026-05-01T10:48:10.352Z</time></trkpt><trkpt lat="44.8482017" lon="7.618935"><ele>243.0</ele><time>2026-05-01T10:48:11.352Z</time></trkpt><trkpt lat="44.8481683" lon="7.618835"><ele>243.0</ele><time>2026-05-01T10:48:12.355Z</time></trkpt><trkpt lat="44.8481367" lon="7.6187417"><ele>243.0</ele><time>2026-05-01T10:48:13.354Z</time></trkpt><trkpt lat="44.8481" lon="7.6186517"><ele>243.0</ele><time>2026-05-01T10:48:14.359Z</time></trkpt><trkpt lat="44.84806" lon="7.6185667"><ele>243.0</ele><time>2026-05-01T10:48:15.353Z</time></trkpt><trkpt lat="44.8480233" lon="7.6184833"><ele>243.0</ele><time>2026-05-01T10:48:16.351Z</time></trkpt><trkpt lat="44.84798" lon="7.6183967"><ele>243.0</ele><time>2026-05-01T10:48:17.351Z</time></trkpt><trkpt lat="44.84793" lon="7.6183017"><ele>243.0</ele><time>2026-05-01T10:48:18.352Z</time></trkpt><trkpt lat="44.8478767" lon="7.6181933"><ele>243.0</ele><time>2026-05-01T10:48:19.356Z</time></trkpt><trkpt lat="44.8478167" lon="7.6180767"><ele>243.0</ele><time>2026-05-01T10:48:20.358Z</time></trkpt><trkpt lat="44.8477517" lon="7.617955"><ele>243.0</ele><time>2026-05-01T10:48:21.351Z</time></trkpt><trkpt lat="44.8476783" lon="7.61783"><ele>243.0</ele><time>2026-05-01T10:48:22.351Z</time></trkpt><trkpt lat="44.8476" lon="7.6177083"><ele>243.0</ele><time>2026-05-01T10:48:23.353Z</time></trkpt><trkpt lat="44.8475117" lon="7.6175917"><ele>242.25</ele><time>2026-05-01T10:48:24.355Z</time></trkpt><trkpt lat="44.8474183" lon="7.617475"><ele>241.5</ele><time>2026-05-01T10:48:25.352Z</time></trkpt><trkpt lat="44.8473217" lon="7.6173583"><ele>240.75</ele><time>2026-05-01T10:48:26.353Z</time></trkpt><trkpt lat="44.8472167" lon="7.6172467"><ele>240.0</ele><time>2026-05-01T10:48:27.35Z</time></trkpt><trkpt lat="44.8471083" lon="7.61714"><ele>240.0</ele><time>2026-05-01T10:48:28.352Z</time></trkpt><trkpt lat="44.8469933" lon="7.61704"><ele>240.0</ele><time>2026-05-01T10:48:29.358Z</time></trkpt><trkpt lat="44.8468767" lon="7.6169433"><ele>240.0</ele><time>2026-05-01T10:48:30.355Z</time></trkpt><trkpt lat="44.8467583" lon="7.61686"><ele>240.0</ele><time>2026-05-01T10:48:31.349Z</time></trkpt><trkpt lat="44.84664" lon="7.6167917"><ele>240.4</ele><time>2026-05-01T10:48:32.355Z</time></trkpt><trkpt lat="44.8465233" lon="7.616745"><ele>240.8</ele><time>2026-05-01T10:48:33.353Z</time></trkpt><trkpt lat="44.846415" lon="7.6167083"><ele>241.2</ele><time>2026-05-01T10:48:34.352Z</time></trkpt><trkpt lat="44.8463117" lon="7.6166783"><ele>241.6</ele><time>2026-05-01T10:48:35.353Z</time></trkpt><trkpt lat="44.8462083" lon="7.6166433"><ele>242.0</ele><time>2026-05-01T10:48:36.354Z</time></trkpt><trkpt lat="44.8461033" lon="7.616605"><ele>242.0</ele><time>2026-05-01T10:48:37.354Z</time></trkpt><trkpt lat="44.8459967" lon="7.6165683"><ele>242.0</ele><time>2026-05-01T10:48:38.357Z</time></trkpt><trkpt lat="44.8458917" lon="7.61653"><ele>242.0</ele><time>2026-05-01T10:48:39.357Z</time></trkpt><trkpt lat="44.8457867" lon="7.6164967"><ele>242.0</ele><time>2026-05-01T10:48:40.36Z</time></trkpt><trkpt lat="44.84569" lon="7.6164717"><ele>242.0</ele><time>2026-05-01T10:48:41.351Z</time></trkpt><trkpt lat="44.8456033" lon="7.6164267"><ele>242.0</ele><time>2026-05-01T10:48:42.354Z</time></trkpt><trkpt lat="44.8455217" lon="7.61637"><ele>242.0</ele><time>2026-05-01T10:48:43.356Z</time></trkpt><trkpt lat="44.8454467" lon="7.6163033"><ele>242.0</ele><time>2026-05-01T10:48:44.358Z</time></trkpt><trkpt lat="44.845375" lon="7.6162167"><ele>242.0</ele><time>2026-05-01T10:48:45.355Z</time></trkpt><trkpt lat="44.8453133" lon="7.6161117"><ele>242.0</ele><time>2026-05-01T10:48:46.348Z</time></trkpt><trkpt lat="44.8452567" lon="7.6159833"><ele>242.2</ele><time>2026-05-01T10:48:47.349Z</time></trkpt><trkpt lat="44.8452117" lon="7.615845"><ele>242.39999999999998</ele><time>2026-05-01T10:48:48.356Z</time></trkpt><trkpt lat="44.8451717" lon="7.6157083"><ele>242.60000000000002</ele><time>2026-05-01T10:48:49.359Z</time></trkpt><trkpt lat="44.8451367" lon="7.615575"><ele>242.8</ele><time>2026-05-01T10:48:50.359Z</time></trkpt><trkpt lat="44.845105" lon="7.6154517"><ele>243.0</ele><time>2026-05-01T10:48:51.355Z</time></trkpt><trkpt lat="44.8450767" lon="7.6153517"><ele>243.2</ele><time>2026-05-01T10:48:52.355Z</time></trkpt><trkpt lat="44.8450633" lon="7.6152283"><ele>243.4</ele><time>2026-05-01T10:48:54.353Z</time></trkpt><trkpt lat="44.8451183" lon="7.61517"><ele>243.59999999999997</ele><time>2026-05-01T10:49:07.349Z</time></trkpt><trkpt lat="44.8452083" lon="7.6151233"><ele>243.79999999999998</ele><time>2026-05-01T10:49:09.352Z</time></trkpt><trkpt lat="44.8453267" lon="7.615035"><ele>244.0</ele><time>2026-05-01T10:49:11.359Z</time></trkpt><trkpt lat="44.8453967" lon="7.6149767"><ele>243.66666666666666</ele><time>2026-05-01T10:49:12.355Z</time></trkpt><trkpt lat="44.8454717" lon="7.6149183"><ele>243.33333333333331</ele><time>2026-05-01T10:49:13.354Z</time></trkpt><trkpt lat="44.8455467" lon="7.6148617"><ele>243.0</ele><time>2026-05-01T10:49:14.358Z</time></trkpt><trkpt lat="44.8456233" lon="7.614805"><ele>242.66666666666669</ele><time>2026-05-01T10:49:15.35Z</time></trkpt><trkpt lat="44.8457017" lon="7.614745"><ele>242.33333333333334</ele><time>2026-05-01T10:49:16.355Z</time></trkpt><trkpt lat="44.845785" lon="7.61468"><ele>242.0</ele><time>2026-05-01T10:49:17.354Z</time></trkpt><trkpt lat="44.845875" lon="7.6146117"><ele>242.25</ele><time>2026-05-01T10:49:18.352Z</time></trkpt><trkpt lat="44.8459683" lon="7.6145383"><ele>242.5</ele><time>2026-05-01T10:49:19.353Z</time></trkpt><trkpt lat="44.846065" lon="7.6144633"><ele>242.75</ele><time>2026-05-01T10:49:20.356Z</time></trkpt><trkpt lat="44.8461667" lon="7.6143867"><ele>243.0</ele><time>2026-05-01T10:49:21.356Z</time></trkpt><trkpt lat="44.84627" lon="7.6143067"><ele>243.0</ele><time>2026-05-01T10:49:22.358Z</time></trkpt><trkpt lat="44.8463767" lon="7.614225"><ele>243.0</ele><time>2026-05-01T10:49:23.355Z</time></trkpt><trkpt lat="44.846485" lon="7.61414"><ele>243.0</ele><time>2026-05-01T10:49:24.355Z</time></trkpt><trkpt lat="44.8465917" lon="7.6140567"><ele>243.0</ele><time>2026-05-01T10:49:25.355Z</time></trkpt><trkpt lat="44.8466967" lon="7.6139767"><ele>243.25</ele><time>2026-05-01T10:49:26.352Z</time></trkpt><trkpt lat="44.8468" lon="7.6138983"><ele>243.5</ele><time>2026-05-01T10:49:27.356Z</time></trkpt><trkpt lat="44.8469017" lon="7.6138217"><ele>243.75</ele><time>2026-05-01T10:49:28.355Z</time></trkpt><trkpt lat="44.847" lon="7.6137467"><ele>244.0</ele><time>2026-05-01T10:49:29.355Z</time></trkpt><trkpt lat="44.8471" lon="7.61367"><ele>244.0</ele><time>2026-05-01T10:49:30.351Z</time></trkpt><trkpt lat="44.847195" lon="7.6135967"><ele>243.99999999999997</ele><time>2026-05-01T10:49:31.353Z</time></trkpt><trkpt lat="44.8472867" lon="7.6135267"><ele>243.99999999999997</ele><time>2026-05-01T10:49:32.356Z</time></trkpt><trkpt lat="44.8473767" lon="7.6134583"><ele>244.0</ele><time>2026-05-01T10:49:33.353Z</time></trkpt><trkpt lat="44.847465" lon="7.613395"><ele>244.0</ele><time>2026-05-01T10:49:34.351Z</time></trkpt><trkpt lat="44.8475483" lon="7.61333"><ele>243.83333333333331</ele><time>2026-05-01T10:49:35.351Z</time></trkpt><trkpt lat="44.8476283" lon="7.6132667"><ele>243.66666666666666</ele><time>2026-05-01T10:49:36.356Z</time></trkpt><trkpt lat="44.847705" lon="7.613205"><ele>243.5</ele><time>2026-05-01T10:49:37.356Z</time></trkpt><trkpt lat="44.8477783" lon="7.613145"><ele>243.33333333333331</ele><time>2026-05-01T10:49:38.358Z</time></trkpt><trkpt lat="44.8478433" lon="7.613085"><ele>243.16666666666666</ele><time>2026-05-01T10:49:39.356Z</time></trkpt><trkpt lat="44.8479067" lon="7.6130267"><ele>243.0</ele><time>2026-05-01T10:49:40.355Z</time></trkpt><trkpt lat="44.84797" lon="7.612965"><ele>243.0</ele><time>2026-05-01T10:49:41.351Z</time></trkpt><trkpt lat="44.8480383" lon="7.6128967"><ele>243.0</ele><time>2026-05-01T10:49:42.359Z</time></trkpt><trkpt lat="44.8481117" lon="7.6128233"><ele>243.0</ele><time>2026-05-01T10:49:43.356Z</time></trkpt><trkpt lat="44.8481917" lon="7.612745"><ele>243.0</ele><time>2026-05-01T10:49:44.356Z</time></trkpt><trkpt lat="44.848275" lon="7.6126617"><ele>243.0</ele><time>2026-05-01T10:49:45.357Z</time></trkpt><trkpt lat="44.8483567" lon="7.61257"><ele>243.0</ele><time>2026-05-01T10:49:46.354Z</time></trkpt><trkpt lat="44.8484417" lon="7.612475"><ele>243.0</ele><time>2026-05-01T10:49:47.349Z</time></trkpt><trkpt lat="44.8485183" lon="7.6123833"><ele>243.0</ele><time>2026-05-01T10:49:48.354Z</time></trkpt><trkpt lat="44.84859" lon="7.6122917"><ele>243.0</ele><time>2026-05-01T10:49:49.356Z</time></trkpt><trkpt lat="44.8486533" lon="7.6122067"><ele>243.0</ele><time>2026-05-01T10:49:50.354Z</time></trkpt><trkpt lat="44.8487067" lon="7.6121283"><ele>243.0</ele><time>2026-05-01T10:49:51.355Z</time></trkpt><trkpt lat="44.8487717" lon="7.61203"><ele>243.0</ele><time>2026-05-01T10:49:53.355Z</time></trkpt><trkpt lat="44.848845" lon="7.6120317"><ele>243.0</ele><time>2026-05-01T10:50:04.351Z</time></trkpt><trkpt lat="44.8489317" lon="7.612135"><ele>243.0</ele><time>2026-05-01T10:50:06.35Z</time></trkpt><trkpt lat="44.8489933" lon="7.6122233"><ele>243.0</ele><time>2026-05-01T10:50:07.352Z</time></trkpt><trkpt lat="44.84907" lon="7.61232"><ele>243.0</ele><time>2026-05-01T10:50:08.355Z</time></trkpt><trkpt lat="44.8491583" lon="7.6124333"><ele>243.0</ele><time>2026-05-01T10:50:09.35Z</time></trkpt><trkpt lat="44.8492533" lon="7.6125567"><ele>243.0</ele><time>2026-05-01T10:50:10.354Z</time></trkpt><trkpt lat="44.8493583" lon="7.6126867"><ele>243.0</ele><time>2026-05-01T10:50:11.358Z</time></trkpt><trkpt lat="44.8494767" lon="7.6128283"><ele>242.66666666666669</ele><time>2026-05-01T10:50:12.351Z</time></trkpt><trkpt lat="44.8496" lon="7.6129717"><ele>242.33333333333334</ele><time>2026-05-01T10:50:13.355Z</time></trkpt><trkpt lat="44.8497233" lon="7.6131233"><ele>242.0</ele><time>2026-05-01T10:50:14.357Z</time></trkpt><trkpt lat="44.8498483" lon="7.6132783"><ele>242.0</ele><time>2026-05-01T10:50:15.353Z</time></trkpt><trkpt lat="44.84997" lon="7.6134317"><ele>242.0</ele><time>2026-05-01T10:50:16.352Z</time></trkpt><trkpt lat="44.8500883" lon="7.613585"><ele>242.0</ele><time>2026-05-01T10:50:17.351Z</time></trkpt><trkpt lat="44.8502" lon="7.6137333"><ele>242.0</ele><time>2026-05-01T10:50:18.352Z</time></trkpt><trkpt lat="44.8503067" lon="7.613875"><ele>242.0</ele><time>2026-05-01T10:50:19.351Z</time></trkpt><trkpt lat="44.8504083" lon="7.6140083"><ele>242.0</ele><time>2026-05-01T10:50:20.353Z</time></trkpt><trkpt lat="44.8505017" lon="7.6141367"><ele>242.0</ele><time>2026-05-01T10:50:21.356Z</time></trkpt><trkpt lat="44.8505983" lon="7.6142617"><ele>242.0</ele><time>2026-05-01T10:50:22.349Z</time></trkpt><trkpt lat="44.8507" lon="7.61439"><ele>242.0</ele><time>2026-05-01T10:50:23.349Z</time></trkpt><trkpt lat="44.8508067" lon="7.6145267"><ele>242.0</ele><time>2026-05-01T10:50:24.352Z</time></trkpt><trkpt lat="44.8509183" lon="7.6146667"><ele>242.0</ele><time>2026-05-01T10:50:25.355Z</time></trkpt><trkpt lat="44.85103" lon="7.61481"><ele>242.33333333333334</ele><time>2026-05-01T10:50:26.349Z</time></trkpt><trkpt lat="44.851145" lon="7.614955"><ele>242.66666666666669</ele><time>2026-05-01T10:50:27.355Z</time></trkpt><trkpt lat="44.8512517" lon="7.6151067"><ele>243.0</ele><time>2026-05-01T10:50:28.35Z</time></trkpt><trkpt lat="44.8513567" lon="7.6152583"><ele>242.66666666666669</ele><time>2026-05-01T10:50:29.352Z</time></trkpt><trkpt lat="44.8514633" lon="7.61541"><ele>242.33333333333334</ele><time>2026-05-01T10:50:30.354Z</time></trkpt><trkpt lat="44.8515733" lon="7.6155667"><ele>242.0</ele><time>2026-05-01T10:50:31.352Z</time></trkpt><trkpt lat="44.8516867" lon="7.6157233"><ele>242.0</ele><time>2026-05-01T10:50:32.353Z</time></trkpt><trkpt lat="44.8518" lon="7.615875"><ele>242.0</ele><time>2026-05-01T10:50:33.353Z</time></trkpt><trkpt lat="44.8519117" lon="7.6160267"><ele>242.0</ele><time>2026-05-01T10:50:34.351Z</time></trkpt><trkpt lat="44.8520183" lon="7.6161767"><ele>242.0</ele><time>2026-05-01T10:50:35.355Z</time></trkpt><trkpt lat="44.852125" lon="7.6163267"><ele>242.0</ele><time>2026-05-01T10:50:36.352Z</time></trkpt><trkpt lat="44.8522283" lon="7.6164717"><ele>242.0</ele><time>2026-05-01T10:50:37.352Z</time></trkpt><trkpt lat="44.8523283" lon="7.6166133"><ele>242.0</ele><time>2026-05-01T10:50:38.353Z</time></trkpt><trkpt lat="44.85242" lon="7.6167533"><ele>242.0</ele><time>2026-05-01T10:50:39.356Z</time></trkpt><trkpt lat="44.8525067" lon="7.61688"><ele>242.0</ele><time>2026-05-01T10:50:40.354Z</time></trkpt><trkpt lat="44.8525867" lon="7.617"><ele>242.0</ele><time>2026-05-01T10:50:41.354Z</time></trkpt><trkpt lat="44.8526583" lon="7.6171167"><ele>242.0</ele><time>2026-05-01T10:50:42.353Z</time></trkpt><trkpt lat="44.8527267" lon="7.6172283"><ele>241.83333333333334</ele><time>2026-05-01T10:50:43.353Z</time></trkpt><trkpt lat="44.8527883" lon="7.6173333"><ele>241.66666666666669</ele><time>2026-05-01T10:50:44.353Z</time></trkpt><trkpt lat="44.8528467" lon="7.6174333"><ele>241.5</ele><time>2026-05-01T10:50:45.355Z</time></trkpt><trkpt lat="44.8528983" lon="7.6175317"><ele>241.33333333333331</ele><time>2026-05-01T10:50:46.353Z</time></trkpt><trkpt lat="44.85294" lon="7.6176183"><ele>241.16666666666666</ele><time>2026-05-01T10:50:47.352Z</time></trkpt><trkpt lat="44.85299" lon="7.617725"><ele>241.0</ele><time>2026-05-01T10:50:49.354Z</time></trkpt><trkpt lat="44.85302" lon="7.6178117"><ele>241.20000000000002</ele><time>2026-05-01T10:51:29.353Z</time></trkpt><trkpt lat="44.8531133" lon="7.6179283"><ele>241.40000000000003</ele><time>2026-05-01T10:51:31.352Z</time></trkpt><trkpt lat="44.8531467" lon="7.61801"><ele>241.6</ele><time>2026-05-01T10:51:32.354Z</time></trkpt><trkpt lat="44.8531917" lon="7.6181617"><ele>241.8</ele><time>2026-05-01T10:51:34.351Z</time></trkpt><trkpt lat="44.8531833" lon="7.6182867"><ele>242.0</ele><time>2026-05-01T10:51:36.354Z</time></trkpt><trkpt lat="44.853115" lon="7.618365"><ele>242.00000000000003</ele><time>2026-05-01T10:51:38.356Z</time></trkpt><trkpt lat="44.853065" lon="7.61842"><ele>242.0</ele><time>2026-05-01T10:51:39.351Z</time></trkpt><trkpt lat="44.8530017" lon="7.6184917"><ele>242.0</ele><time>2026-05-01T10:51:40.354Z</time></trkpt><trkpt lat="44.85293" lon="7.61857"><ele>242.0</ele><time>2026-05-01T10:51:41.352Z</time></trkpt><trkpt lat="44.8528533" lon="7.6186533"><ele>242.00000000000003</ele><time>2026-05-01T10:51:42.355Z</time></trkpt><trkpt lat="44.852775" lon="7.6187383"><ele>242.0</ele><time>2026-05-01T10:51:43.354Z</time></trkpt><trkpt lat="44.8526917" lon="7.6188317"><ele>242.0</ele><time>2026-05-01T10:51:44.355Z</time></trkpt><trkpt lat="44.8526033" lon="7.61893"><ele>242.0</ele><time>2026-05-01T10:51:45.354Z</time></trkpt><trkpt lat="44.8525067" lon="7.6190367"><ele>242.0</ele><time>2026-05-01T10:51:46.352Z</time></trkpt><trkpt lat="44.852405" lon="7.6191483"><ele>242.0</ele><time>2026-05-01T10:51:47.355Z</time></trkpt><trkpt lat="44.8522983" lon="7.6192667"><ele>242.0</ele><time>2026-05-01T10:51:48.354Z</time></trkpt><trkpt lat="44.8521883" lon="7.6193883"><ele>242.0</ele><time>2026-05-01T10:51:49.353Z</time></trkpt><trkpt lat="44.85208" lon="7.6195117"><ele>242.0</ele><time>2026-05-01T10:51:50.35Z</time></trkpt><trkpt lat="44.8519667" lon="7.619635"><ele>242.0</ele><time>2026-05-01T10:51:51.355Z</time></trkpt><trkpt lat="44.8518483" lon="7.6197633"><ele>242.0</ele><time>2026-05-01T10:51:52.352Z</time></trkpt><trkpt lat="44.8517233" lon="7.619885"><ele>242.0</ele><time>2026-05-01T10:51:53.354Z</time></trkpt><trkpt lat="44.85159" lon="7.6199967"><ele>242.0</ele><time>2026-05-01T10:51:54.35Z</time></trkpt><trkpt lat="44.85145" lon="7.6201017"><ele>242.0</ele><time>2026-05-01T10:51:55.353Z</time></trkpt><trkpt lat="44.8513033" lon="7.6202067"><ele>242.0</ele><time>2026-05-01T10:51:56.354Z</time></trkpt><trkpt lat="44.8511467" lon="7.6203133"><ele>242.0</ele><time>2026-05-01T10:51:57.355Z</time></trkpt><trkpt lat="44.8509767" lon="7.6204267"><ele>241.66666666666669</ele><time>2026-05-01T10:51:58.349Z</time></trkpt><trkpt lat="44.8507983" lon="7.6205483"><ele>241.33333333333331</ele><time>2026-05-01T10:51:59.351Z</time></trkpt><trkpt lat="44.85062" lon="7.6206667"><ele>241.0</ele><time>2026-05-01T10:52:00.353Z</time></trkpt><trkpt lat="44.850445" lon="7.62078"><ele>241.0</ele><time>2026-05-01T10:52:01.351Z</time></trkpt><trkpt lat="44.8502667" lon="7.6208917"><ele>241.0</ele><time>2026-05-01T10:52:02.351Z</time></trkpt><trkpt lat="44.8500867" lon="7.6209983"><ele>241.0</ele><time>2026-05-01T10:52:03.351Z</time></trkpt><trkpt lat="44.8499" lon="7.6210867"><ele>241.0</ele><time>2026-05-01T10:52:04.353Z</time></trkpt><trkpt lat="44.8497117" lon="7.6211617"><ele>241.0</ele><time>2026-05-01T10:52:05.353Z</time></trkpt><trkpt lat="44.8495217" lon="7.6212317"><ele>241.0</ele><time>2026-05-01T10:52:06.354Z</time></trkpt><trkpt lat="44.84933" lon="7.6213"><ele>240.66666666666666</ele><time>2026-05-01T10:52:07.349Z</time></trkpt><trkpt lat="44.8491433" lon="7.6213733"><ele>240.33333333333331</ele><time>2026-05-01T10:52:08.348Z</time></trkpt><trkpt lat="44.848965" lon="7.6214517"><ele>240.0</ele><time>2026-05-01T10:52:09.35Z</time></trkpt><trkpt lat="44.8487967" lon="7.6215233"><ele>240.0</ele><time>2026-05-01T10:52:10.348Z</time></trkpt><trkpt lat="44.8486367" lon="7.6215983"><ele>240.0</ele><time>2026-05-01T10:52:11.353Z</time></trkpt><trkpt lat="44.8484983" lon="7.621665"><ele>240.0</ele><time>2026-05-01T10:52:12.353Z</time></trkpt><trkpt lat="44.8483867" lon="7.6217217"><ele>240.0</ele><time>2026-05-01T10:52:13.35Z</time></trkpt><trkpt lat="44.848295" lon="7.62176"><ele>239.83333333333334</ele><time>2026-05-01T10:52:14.349Z</time></trkpt><trkpt lat="44.8482267" lon="7.6217667"><ele>239.66666666666669</ele><time>2026-05-01T10:52:15.351Z</time></trkpt><trkpt lat="44.84815" lon="7.6216933"><ele>239.5</ele><time>2026-05-01T10:52:17.354Z</time></trkpt><trkpt lat="44.84812" lon="7.6215683"><ele>239.33333333333334</ele><time>2026-05-01T10:52:19.357Z</time></trkpt><trkpt lat="44.848105" lon="7.6214367"><ele>239.16666666666669</ele><time>2026-05-01T10:52:21.351Z</time></trkpt><trkpt lat="44.84806" lon="7.62133"><ele>239.0</ele><time>2026-05-01T10:52:23.351Z</time></trkpt><trkpt lat="44.84801" lon="7.6212667"><ele>239.0</ele><time>2026-05-01T10:52:25.359Z</time></trkpt><trkpt lat="44.84795" lon="7.6212017"><ele>238.99999999999997</ele><time>2026-05-01T10:52:27.352Z</time></trkpt><trkpt lat="44.8478783" lon="7.6211233"><ele>238.99999999999997</ele><time>2026-05-01T10:52:29.352Z</time></trkpt><trkpt lat="44.8477883" lon="7.621015"><ele>239.0</ele><time>2026-05-01T10:52:31.349Z</time></trkpt><trkpt lat="44.8477367" lon="7.6209533"><ele>239.0</ele><time>2026-05-01T10:52:32.354Z</time></trkpt><trkpt lat="44.84765" lon="7.620855"><ele>239.16666666666669</ele><time>2026-05-01T10:52:34.347Z</time></trkpt><trkpt lat="44.847565" lon="7.6207683"><ele>239.33333333333334</ele><time>2026-05-01T10:52:36.354Z</time></trkpt><trkpt lat="44.8475" lon="7.620685"><ele>239.5</ele><time>2026-05-01T10:52:38.356Z</time></trkpt><trkpt lat="44.8474483" lon="7.6206267"><ele>239.66666666666669</ele><time>2026-05-01T10:52:40.35Z</time></trkpt><trkpt lat="44.847355" lon="7.620625"><ele>239.83333333333334</ele><time>2026-05-01T10:52:43.356Z</time></trkpt><trkpt lat="44.8472817" lon="7.6206867"><ele>240.0</ele><time>2026-05-01T10:52:45.361Z</time></trkpt><trkpt lat="44.8471933" lon="7.6207917"><ele>240.0</ele><time>2026-05-01T10:52:47.351Z</time></trkpt><trkpt lat="44.8471133" lon="7.6208783"><ele>240.0</ele><time>2026-05-01T10:52:49.358Z</time></trkpt><trkpt lat="44.8470133" lon="7.6209617"><ele>240.0</ele><time>2026-05-01T10:52:51.358Z</time></trkpt><trkpt lat="44.84691" lon="7.6210067"><ele>240.0</ele><time>2026-05-01T10:52:53.356Z</time></trkpt><trkpt lat="44.8468" lon="7.62104"><ele>240.0</ele><time>2026-05-01T10:52:55.353Z</time></trkpt><trkpt lat="44.8467317" lon="7.6210517"><ele>239.5</ele><time>2026-05-01T10:52:56.355Z</time></trkpt><trkpt lat="44.8466533" lon="7.6210583"><ele>239.0</ele><time>2026-05-01T10:52:57.356Z</time></trkpt><trkpt lat="44.8465733" lon="7.6210583"><ele>238.5</ele><time>2026-05-01T10:52:58.354Z</time></trkpt><trkpt lat="44.8464917" lon="7.6210567"><ele>238.0</ele><time>2026-05-01T10:52:59.352Z</time></trkpt><trkpt lat="44.846405" lon="7.6210467"><ele>237.5</ele><time>2026-05-01T10:53:00.358Z</time></trkpt><trkpt lat="44.8463167" lon="7.6210333"><ele>237.0</ele><time>2026-05-01T10:53:01.352Z</time></trkpt><trkpt lat="44.8462317" lon="7.6210133"><ele>237.0</ele><time>2026-05-01T10:53:02.357Z</time></trkpt><trkpt lat="44.846155" lon="7.6209983"><ele>237.0</ele><time>2026-05-01T10:53:03.355Z</time></trkpt><trkpt lat="44.846075" lon="7.6209717"><ele>237.0</ele><time>2026-05-01T10:53:04.354Z</time></trkpt><trkpt lat="44.84599" lon="7.62094"><ele>237.0</ele><time>2026-05-01T10:53:05.352Z</time></trkpt><trkpt lat="44.845905" lon="7.6209083"><ele>237.0</ele><time>2026-05-01T10:53:06.352Z</time></trkpt><trkpt lat="44.845815" lon="7.6208717"><ele>237.0</ele><time>2026-05-01T10:53:07.352Z</time></trkpt><trkpt lat="44.8457183" lon="7.6208333"><ele>237.2</ele><time>2026-05-01T10:53:08.353Z</time></trkpt><trkpt lat="44.84562" lon="7.6207933"><ele>237.39999999999998</ele><time>2026-05-01T10:53:09.354Z</time></trkpt><trkpt lat="44.8455217" lon="7.620755"><ele>237.60000000000002</ele><time>2026-05-01T10:53:10.353Z</time></trkpt><trkpt lat="44.845425" lon="7.6207167"><ele>237.8</ele><time>2026-05-01T10:53:11.352Z</time></trkpt><trkpt lat="44.8453367" lon="7.6206783"><ele>238.0</ele><time>2026-05-01T10:53:12.355Z</time></trkpt><trkpt lat="44.8452533" lon="7.6206433"><ele>237.99999999999997</ele><time>2026-05-01T10:53:13.349Z</time></trkpt><trkpt lat="44.845175" lon="7.6206217"><ele>238.0</ele><time>2026-05-01T10:53:14.349Z</time></trkpt><trkpt lat="44.845095" lon="7.620605"><ele>238.0</ele><time>2026-05-01T10:53:15.353Z</time></trkpt><trkpt lat="44.8450067" lon="7.6205983"><ele>238.0</ele><time>2026-05-01T10:53:16.351Z</time></trkpt><trkpt lat="44.8449117" lon="7.6205967"><ele>237.99999999999997</ele><time>2026-05-01T10:53:17.351Z</time></trkpt><trkpt lat="44.8448133" lon="7.6205967"><ele>238.0</ele><time>2026-05-01T10:53:18.354Z</time></trkpt><trkpt lat="44.8447083" lon="7.6205983"><ele>238.0</ele><time>2026-05-01T10:53:19.355Z</time></trkpt><trkpt lat="44.8446033" lon="7.6206017"><ele>238.0</ele><time>2026-05-01T10:53:20.349Z</time></trkpt><trkpt lat="44.8444967" lon="7.62061"><ele>238.0</ele><time>2026-05-01T10:53:21.35Z</time></trkpt><trkpt lat="44.844395" lon="7.6206183"><ele>238.0</ele><time>2026-05-01T10:53:22.351Z</time></trkpt><trkpt lat="44.844295" lon="7.620635"><ele>238.0</ele><time>2026-05-01T10:53:23.353Z</time></trkpt><trkpt lat="44.844195" lon="7.62065"><ele>238.2</ele><time>2026-05-01T10:53:24.355Z</time></trkpt><trkpt lat="44.8440967" lon="7.620665"><ele>238.4</ele><time>2026-05-01T10:53:25.355Z</time></trkpt><trkpt lat="44.8439983" lon="7.6206783"><ele>238.59999999999997</ele><time>2026-05-01T10:53:26.352Z</time></trkpt><trkpt lat="44.8439083" lon="7.620695"><ele>238.79999999999998</ele><time>2026-05-01T10:53:27.352Z</time></trkpt><trkpt lat="44.843825" lon="7.6207133"><ele>239.0</ele><time>2026-05-01T10:53:28.354Z</time></trkpt><trkpt lat="44.84375" lon="7.6207367"><ele>239.00000000000003</ele><time>2026-05-01T10:53:29.353Z</time></trkpt><trkpt lat="44.8436767" lon="7.62076"><ele>239.0</ele><time>2026-05-01T10:53:30.352Z</time></trkpt><trkpt lat="44.8435967" lon="7.620785"><ele>239.0</ele><time>2026-05-01T10:53:31.355Z</time></trkpt><trkpt lat="44.8435117" lon="7.6208117"><ele>239.0</ele><time>2026-05-01T10:53:32.354Z</time></trkpt><trkpt lat="44.8434333" lon="7.6208367"><ele>239.00000000000003</ele><time>2026-05-01T10:53:33.353Z</time></trkpt><trkpt lat="44.843355" lon="7.6208567"><ele>239.0</ele><time>2026-05-01T10:53:34.35Z</time></trkpt><trkpt lat="44.843275" lon="7.6208767"><ele>238.83333333333334</ele><time>2026-05-01T10:53:35.355Z</time></trkpt><trkpt lat="44.8431983" lon="7.6209017"><ele>238.66666666666669</ele><time>2026-05-01T10:53:36.357Z</time></trkpt><trkpt lat="44.8431217" lon="7.6209317"><ele>238.5</ele><time>2026-05-01T10:53:37.354Z</time></trkpt><trkpt lat="44.8430417" lon="7.6209583"><ele>238.33333333333331</ele><time>2026-05-01T10:53:38.35Z</time></trkpt><trkpt lat="44.8429683" lon="7.6209817"><ele>238.16666666666666</ele><time>2026-05-01T10:53:39.356Z</time></trkpt><trkpt lat="44.8429033" lon="7.6210083"><ele>238.0</ele><time>2026-05-01T10:53:40.35Z</time></trkpt><trkpt lat="44.8428167" lon="7.6210333"><ele>237.99999999999997</ele><time>2026-05-01T10:53:42.35Z</time></trkpt><trkpt lat="44.8427367" lon="7.6210567"><ele>238.0</ele><time>2026-05-01T10:53:57.354Z</time></trkpt><trkpt lat="44.8426683" lon="7.6210683"><ele>238.0</ele><time>2026-05-01T10:53:59.355Z</time></trkpt><trkpt lat="44.8425967" lon="7.6211017"><ele>238.0</ele><time>2026-05-01T10:54:02.354Z</time></trkpt><trkpt lat="44.8425217" lon="7.6211433"><ele>237.99999999999997</ele><time>2026-05-01T10:54:06.349Z</time></trkpt><trkpt lat="44.8424617" lon="7.62118"><ele>238.0</ele><time>2026-05-01T10:54:10.354Z</time></trkpt><trkpt lat="44.8425083" lon="7.6210783"><ele>237.99999999999997</ele><time>2026-05-01T10:54:15.358Z</time></trkpt><trkpt lat="44.8426133" lon="7.621065"><ele>238.0</ele><time>2026-05-01T10:54:17.349Z</time></trkpt><trkpt lat="44.8426983" lon="7.62105"><ele>238.0</ele><time>2026-05-01T10:54:19.353Z</time></trkpt><trkpt lat="44.8427817" lon="7.621115"><ele>238.0</ele><time>2026-05-01T10:54:30.351Z</time></trkpt><trkpt lat="44.8427117" lon="7.6211583"><ele>237.99999999999997</ele><time>2026-05-01T10:54:49.351Z</time></trkpt><trkpt lat="44.842655" lon="7.6211983"><ele>238.0</ele><time>2026-05-01T10:54:51.352Z</time></trkpt><trkpt lat="44.8425733" lon="7.6212467"><ele>238.2</ele><time>2026-05-01T10:54:53.356Z</time></trkpt><trkpt lat="44.84248" lon="7.6212933"><ele>238.4</ele><time>2026-05-01T10:54:55.35Z</time></trkpt><trkpt lat="44.8423933" lon="7.6213433"><ele>238.59999999999997</ele><time>2026-05-01T10:54:57.354Z</time></trkpt><trkpt lat="44.8422933" lon="7.6214017"><ele>238.79999999999998</ele><time>2026-05-01T10:54:59.352Z</time></trkpt><trkpt lat="44.8422183" lon="7.6214433"><ele>239.0</ele><time>2026-05-01T10:55:01.35Z</time></trkpt><trkpt lat="44.8421217" lon="7.6214933"><ele>239.0</ele><time>2026-05-01T10:55:04.355Z</time></trkpt><trkpt lat="44.842015" lon="7.6215483"><ele>238.99999999999997</ele><time>2026-05-01T10:55:06.351Z</time></trkpt><trkpt lat="44.841915" lon="7.6215917"><ele>238.99999999999997</ele><time>2026-05-01T10:55:08.362Z</time></trkpt><trkpt lat="44.8418133" lon="7.6216267"><ele>239.0</ele><time>2026-05-01T10:55:10.355Z</time></trkpt><trkpt lat="44.8417267" lon="7.62165"><ele>239.0</ele><time>2026-05-01T10:55:12.358Z</time></trkpt><trkpt lat="44.84165" lon="7.6216683"><ele>238.79999999999998</ele><time>2026-05-01T10:55:14.354Z</time></trkpt><trkpt lat="44.841565" lon="7.6216767"><ele>238.59999999999997</ele><time>2026-05-01T10:55:16.35Z</time></trkpt><trkpt lat="44.841445" lon="7.6216867"><ele>238.4</ele><time>2026-05-01T10:55:18.353Z</time></trkpt><trkpt lat="44.8413817" lon="7.6216917"><ele>238.2</ele><time>2026-05-01T10:55:19.353Z</time></trkpt><trkpt lat="44.8412767" lon="7.62171"><ele>238.0</ele><time>2026-05-01T10:55:21.352Z</time></trkpt><trkpt lat="44.84118" lon="7.62172"><ele>238.0</ele><time>2026-05-01T10:55:23.353Z</time></trkpt><trkpt lat="44.8410733" lon="7.621725"><ele>238.0</ele><time>2026-05-01T10:55:25.349Z</time></trkpt><trkpt lat="44.84095" lon="7.6217333"><ele>238.0</ele><time>2026-05-01T10:55:27.353Z</time></trkpt><trkpt lat="44.840885" lon="7.6217333"><ele>238.0</ele><time>2026-05-01T10:55:28.352Z</time></trkpt><trkpt lat="44.8407717" lon="7.6217283"><ele>238.0</ele><time>2026-05-01T10:55:30.349Z</time></trkpt><trkpt lat="44.8406733" lon="7.6217233"><ele>237.4</ele><time>2026-05-01T10:55:32.348Z</time></trkpt><trkpt lat="44.84056" lon="7.6217133"><ele>236.8</ele><time>2026-05-01T10:55:34.353Z</time></trkpt><trkpt lat="44.8404667" lon="7.6217017"><ele>236.2</ele><time>2026-05-01T10:55:36.351Z</time></trkpt><trkpt lat="44.840375" lon="7.621685"><ele>235.6</ele><time>2026-05-01T10:55:39.355Z</time></trkpt><trkpt lat="44.8403" lon="7.6216667"><ele>235.0</ele><time>2026-05-01T10:55:41.352Z</time></trkpt><trkpt lat="44.8401983" lon="7.6216383"><ele>235.49999999999997</ele><time>2026-05-01T10:55:43.36Z</time></trkpt><trkpt lat="44.8401" lon="7.621605"><ele>236.0</ele><time>2026-05-01T10:55:45.354Z</time></trkpt><trkpt lat="44.84003" lon="7.62157"><ele>236.5</ele><time>2026-05-01T10:55:47.35Z</time></trkpt><trkpt lat="44.8399633" lon="7.6215333"><ele>237.0</ele><time>2026-05-01T10:55:49.354Z</time></trkpt><trkpt lat="44.8398933" lon="7.62149"><ele>237.49999999999997</ele><time>2026-05-01T10:55:51.354Z</time></trkpt><trkpt lat="44.8398267" lon="7.6214433"><ele>238.0</ele><time>2026-05-01T10:55:53.349Z</time></trkpt><trkpt lat="44.8397633" lon="7.621395"><ele>237.99999999999997</ele><time>2026-05-01T10:55:55.354Z</time></trkpt><trkpt lat="44.8396917" lon="7.62135"><ele>238.0</ele><time>2026-05-01T10:55:57.355Z</time></trkpt><trkpt lat="44.8396133" lon="7.6212883"><ele>238.0</ele><time>2026-05-01T10:56:00.353Z</time></trkpt><trkpt lat="44.8395433" lon="7.62124"><ele>238.0</ele><time>2026-05-01T10:56:02.36Z</time></trkpt><trkpt lat="44.839485" lon="7.621205"><ele>237.99999999999997</ele><time>2026-05-01T10:56:04.352Z</time></trkpt><trkpt lat="44.8394017" lon="7.62115"><ele>238.0</ele><time>2026-05-01T10:56:06.35Z</time></trkpt><trkpt lat="44.839335" lon="7.6210783"><ele>237.83333333333331</ele><time>2026-05-01T10:56:08.354Z</time></trkpt><trkpt lat="44.839265" lon="7.6210233"><ele>237.66666666666666</ele><time>2026-05-01T10:56:10.354Z</time></trkpt><trkpt lat="44.8391983" lon="7.6209717"><ele>237.5</ele><time>2026-05-01T10:56:12.353Z</time></trkpt><trkpt lat="44.8391233" lon="7.6209017"><ele>237.33333333333331</ele><time>2026-05-01T10:56:15.349Z</time></trkpt><trkpt lat="44.839045" lon="7.6208333"><ele>237.16666666666666</ele><time>2026-05-01T10:56:17.352Z</time></trkpt><trkpt lat="44.8389633" lon="7.6207517"><ele>237.0</ele><time>2026-05-01T10:56:19.353Z</time></trkpt><trkpt lat="44.8388767" lon="7.620665"><ele>237.0</ele><time>2026-05-01T10:56:21.352Z</time></trkpt><trkpt lat="44.8388" lon="7.6206"><ele>237.0</ele><time>2026-05-01T10:56:23.349Z</time></trkpt><trkpt lat="44.8387167" lon="7.6205467"><ele>237.0</ele><time>2026-05-01T10:56:25.352Z</time></trkpt><trkpt lat="44.8386483" lon="7.6205033"><ele>237.0</ele><time>2026-05-01T10:56:27.353Z</time></trkpt><trkpt lat="44.8385517" lon="7.62045"><ele>237.0</ele><time>2026-05-01T10:56:53.354Z</time></trkpt><trkpt lat="44.8384883" lon="7.6204117"><ele>237.0</ele><time>2026-05-01T10:56:56.354Z</time></trkpt><trkpt lat="44.8384117" lon="7.6203833"><ele>237.16666666666666</ele><time>2026-05-01T10:57:05.356Z</time></trkpt><trkpt lat="44.8383333" lon="7.6203467"><ele>237.33333333333331</ele><time>2026-05-01T10:57:07.348Z</time></trkpt><trkpt lat="44.8382633" lon="7.6203167"><ele>237.5</ele><time>2026-05-01T10:57:09.355Z</time></trkpt><trkpt lat="44.8381667" lon="7.6202783"><ele>237.66666666666666</ele><time>2026-05-01T10:57:15.356Z</time></trkpt><trkpt lat="44.838095" lon="7.6202667"><ele>237.83333333333331</ele><time>2026-05-01T10:57:17.354Z</time></trkpt><trkpt lat="44.8380167" lon="7.6202633"><ele>238.0</ele><time>2026-05-01T10:57:19.35Z</time></trkpt><trkpt lat="44.83794" lon="7.6202683"><ele>238.14285714285714</ele><time>2026-05-01T10:57:21.352Z</time></trkpt><trkpt lat="44.8378533" lon="7.620275"><ele>238.28571428571428</ele><time>2026-05-01T10:57:24.354Z</time></trkpt><trkpt lat="44.83779" lon="7.620275"><ele>238.42857142857144</ele><time>2026-05-01T10:57:27.35Z</time></trkpt><trkpt lat="44.837725" lon="7.6202767"><ele>238.57142857142858</ele><time>2026-05-01T10:57:30.35Z</time></trkpt><trkpt lat="44.8376567" lon="7.6202683"><ele>238.71428571428572</ele><time>2026-05-01T10:57:33.359Z</time></trkpt><trkpt lat="44.8375933" lon="7.6202733"><ele>238.8571428571429</ele><time>2026-05-01T10:57:35.353Z</time></trkpt><trkpt lat="44.8375067" lon="7.6202783"><ele>239.00000000000003</ele><time>2026-05-01T10:57:38.357Z</time></trkpt><trkpt lat="44.8374417" lon="7.620275"><ele>239.0</ele><time>2026-05-01T10:57:40.355Z</time></trkpt><trkpt lat="44.8373583" lon="7.6202833"><ele>238.99999999999997</ele><time>2026-05-01T10:57:42.348Z</time></trkpt><trkpt lat="44.83727" lon="7.62029"><ele>238.99999999999997</ele><time>2026-05-01T10:57:44.354Z</time></trkpt><trkpt lat="44.8371567" lon="7.6203"><ele>239.0</ele><time>2026-05-01T10:57:46.348Z</time></trkpt><trkpt lat="44.8370367" lon="7.6203267"><ele>239.0</ele><time>2026-05-01T10:57:48.351Z</time></trkpt><trkpt lat="44.8369417" lon="7.62035"><ele>238.79999999999998</ele><time>2026-05-01T10:57:50.356Z</time></trkpt><trkpt lat="44.8368417" lon="7.620385"><ele>238.59999999999997</ele><time>2026-05-01T10:57:52.355Z</time></trkpt><trkpt lat="44.8367517" lon="7.6204217"><ele>238.4</ele><time>2026-05-01T10:57:54.352Z</time></trkpt><trkpt lat="44.8366633" lon="7.6204583"><ele>238.2</ele><time>2026-05-01T10:57:56.357Z</time></trkpt><trkpt lat="44.8365467" lon="7.6204983"><ele>238.0</ele><time>2026-05-01T10:57:58.35Z</time></trkpt><trkpt lat="44.83648" lon="7.62052"><ele>237.83333333333331</ele><time>2026-05-01T10:57:59.354Z</time></trkpt><trkpt lat="44.8364133" lon="7.6205383"><ele>237.66666666666666</ele><time>2026-05-01T10:58:00.353Z</time></trkpt><trkpt lat="44.8363017" lon="7.620575"><ele>237.5</ele><time>2026-05-01T10:58:02.35Z</time></trkpt><trkpt lat="44.8362333" lon="7.6206133"><ele>237.33333333333331</ele><time>2026-05-01T10:58:03.352Z</time></trkpt><trkpt lat="44.836165" lon="7.6206767"><ele>237.16666666666666</ele><time>2026-05-01T10:58:04.353Z</time></trkpt><trkpt lat="44.8360833" lon="7.6207567"><ele>237.0</ele><time>2026-05-01T10:58:05.356Z</time></trkpt><trkpt lat="44.8359967" lon="7.6208367"><ele>237.2</ele><time>2026-05-01T10:58:06.35Z</time></trkpt><trkpt lat="44.8359117" lon="7.6209183"><ele>237.39999999999998</ele><time>2026-05-01T10:58:07.353Z</time></trkpt><trkpt lat="44.8358333" lon="7.6210067"><ele>237.60000000000002</ele><time>2026-05-01T10:58:08.354Z</time></trkpt><trkpt lat="44.8357567" lon="7.62111"><ele>237.8</ele><time>2026-05-01T10:58:09.353Z</time></trkpt><trkpt lat="44.8356883" lon="7.62122"><ele>238.0</ele><time>2026-05-01T10:58:10.352Z</time></trkpt><trkpt lat="44.8356217" lon="7.6213283"><ele>237.66666666666666</ele><time>2026-05-01T10:58:11.353Z</time></trkpt><trkpt lat="44.8355617" lon="7.6214383"><ele>237.33333333333331</ele><time>2026-05-01T10:58:12.353Z</time></trkpt><trkpt lat="44.83551" lon="7.6215367"><ele>237.0</ele><time>2026-05-01T10:58:13.351Z</time></trkpt><trkpt lat="44.8354617" lon="7.6216233"><ele>236.66666666666669</ele><time>2026-05-01T10:58:14.355Z</time></trkpt><trkpt lat="44.8354167" lon="7.6216917"><ele>236.33333333333334</ele><time>2026-05-01T10:58:15.354Z</time></trkpt><trkpt lat="44.835335" lon="7.621785"><ele>236.0</ele><time>2026-05-01T10:58:17.354Z</time></trkpt><trkpt lat="44.835235" lon="7.6218517"><ele>236.00000000000003</ele><time>2026-05-01T10:58:19.352Z</time></trkpt><trkpt lat="44.83517" lon="7.6218667"><ele>236.0</ele><time>2026-05-01T10:58:20.354Z</time></trkpt><trkpt lat="44.8350983" lon="7.6218883"><ele>236.0</ele><time>2026-05-01T10:58:21.357Z</time></trkpt><trkpt lat="44.8350183" lon="7.6219067"><ele>236.0</ele><time>2026-05-01T10:58:22.353Z</time></trkpt><trkpt lat="44.8349283" lon="7.6219133"><ele>236.00000000000003</ele><time>2026-05-01T10:58:23.355Z</time></trkpt><trkpt lat="44.834825" lon="7.62191"><ele>236.0</ele><time>2026-05-01T10:58:24.356Z</time></trkpt><trkpt lat="44.83472" lon="7.6218917"><ele>237.0</ele><time>2026-05-01T10:58:25.352Z</time></trkpt><trkpt lat="44.8346167" lon="7.6218617"><ele>238.00000000000003</ele><time>2026-05-01T10:58:26.355Z</time></trkpt><trkpt lat="44.83451" lon="7.6218233"><ele>239.00000000000003</ele><time>2026-05-01T10:58:27.353Z</time></trkpt><trkpt lat="44.834405" lon="7.6217833"><ele>240.0</ele><time>2026-05-01T10:58:28.352Z</time></trkpt><trkpt lat="44.8343" lon="7.6217367"><ele>241.0</ele><time>2026-05-01T10:58:29.353Z</time></trkpt><trkpt lat="44.8341967" lon="7.62169"><ele>241.0</ele><time>2026-05-01T10:58:30.354Z</time></trkpt><trkpt lat="44.8340933" lon="7.6216433"><ele>241.00000000000003</ele><time>2026-05-01T10:58:31.353Z</time></trkpt><trkpt lat="44.833995" lon="7.6216083"><ele>241.00000000000003</ele><time>2026-05-01T10:58:32.351Z</time></trkpt><trkpt lat="44.8339" lon="7.62158"><ele>241.0</ele><time>2026-05-01T10:58:33.354Z</time></trkpt><trkpt lat="44.8338" lon="7.6215567"><ele>241.0</ele><time>2026-05-01T10:58:34.351Z</time></trkpt><trkpt lat="44.8336967" lon="7.6215417"><ele>241.0</ele><time>2026-05-01T10:58:35.351Z</time></trkpt><trkpt lat="44.8335933" lon="7.6215333"><ele>241.00000000000003</ele><time>2026-05-01T10:58:36.351Z</time></trkpt><trkpt lat="44.833485" lon="7.62153"><ele>241.00000000000003</ele><time>2026-05-01T10:58:37.352Z</time></trkpt><trkpt lat="44.8333733" lon="7.6215283"><ele>241.0</ele><time>2026-05-01T10:58:38.349Z</time></trkpt><trkpt lat="44.8332617" lon="7.6215283"><ele>241.0</ele><time>2026-05-01T10:58:39.351Z</time></trkpt><trkpt lat="44.8331517" lon="7.6215367"><ele>240.8</ele><time>2026-05-01T10:58:40.349Z</time></trkpt><trkpt lat="44.83304" lon="7.621555"><ele>240.60000000000002</ele><time>2026-05-01T10:58:41.351Z</time></trkpt><trkpt lat="44.83293" lon="7.6215683"><ele>240.4</ele><time>2026-05-01T10:58:42.35Z</time></trkpt><trkpt lat="44.8328217" lon="7.6215917"><ele>240.2</ele><time>2026-05-01T10:58:43.351Z</time></trkpt><trkpt lat="44.83271" lon="7.6216167"><ele>240.0</ele><time>2026-05-01T10:58:44.349Z</time></trkpt><trkpt lat="44.8325917" lon="7.6216417"><ele>240.0</ele><time>2026-05-01T10:58:45.349Z</time></trkpt><trkpt lat="44.832475" lon="7.6216667"><ele>240.0</ele><time>2026-05-01T10:58:46.353Z</time></trkpt><trkpt lat="44.83236" lon="7.621685"><ele>240.0</ele><time>2026-05-01T10:58:47.355Z</time></trkpt><trkpt lat="44.8322417" lon="7.621695"><ele>240.0</ele><time>2026-05-01T10:58:48.353Z</time></trkpt><trkpt lat="44.8321233" lon="7.6217"><ele>240.0</ele><time>2026-05-01T10:58:49.355Z</time></trkpt><trkpt lat="44.83201" lon="7.621695"><ele>240.0</ele><time>2026-05-01T10:58:50.354Z</time></trkpt><trkpt lat="44.8319117" lon="7.6216883"><ele>240.0</ele><time>2026-05-01T10:58:51.351Z</time></trkpt><trkpt lat="44.83183" lon="7.62168"><ele>240.0</ele><time>2026-05-01T10:58:52.349Z</time></trkpt><trkpt lat="44.831765" lon="7.6216783"><ele>240.0</ele><time>2026-05-01T10:58:53.349Z</time></trkpt><trkpt lat="44.8316867" lon="7.621695"><ele>240.0</ele><time>2026-05-01T10:58:55.353Z</time></trkpt><trkpt lat="44.8316067" lon="7.6217283"><ele>240.0</ele><time>2026-05-01T10:58:59.351Z</time></trkpt><trkpt lat="44.8315367" lon="7.6217567"><ele>240.0</ele><time>2026-05-01T10:59:01.354Z</time></trkpt><trkpt lat="44.8314383" lon="7.62178"><ele>240.0</ele><time>2026-05-01T10:59:03.353Z</time></trkpt><trkpt lat="44.8313183" lon="7.62182"><ele>240.0</ele><time>2026-05-01T10:59:05.356Z</time></trkpt><trkpt lat="44.83119" lon="7.6218533"><ele>240.0</ele><time>2026-05-01T10:59:07.354Z</time></trkpt><trkpt lat="44.831125" lon="7.62187"><ele>240.0</ele><time>2026-05-01T10:59:08.351Z</time></trkpt><trkpt lat="44.8310533" lon="7.6218967"><ele>240.0</ele><time>2026-05-01T10:59:09.357Z</time></trkpt><trkpt lat="44.8309767" lon="7.6219317"><ele>240.0</ele><time>2026-05-01T10:59:10.353Z</time></trkpt><trkpt lat="44.830895" lon="7.621965"><ele>240.0</ele><time>2026-05-01T10:59:11.353Z</time></trkpt><trkpt lat="44.8308083" lon="7.6220017"><ele>240.0</ele><time>2026-05-01T10:59:12.352Z</time></trkpt><trkpt lat="44.8307233" lon="7.6220367"><ele>240.0</ele><time>2026-05-01T10:59:13.352Z</time></trkpt><trkpt lat="44.830635" lon="7.6220767"><ele>239.6</ele><time>2026-05-01T10:59:14.353Z</time></trkpt><trkpt lat="44.8305483" lon="7.6221133"><ele>239.2</ele><time>2026-05-01T10:59:15.357Z</time></trkpt><trkpt lat="44.8304617" lon="7.6221517"><ele>238.8</ele><time>2026-05-01T10:59:16.353Z</time></trkpt><trkpt lat="44.8303717" lon="7.6221883"><ele>238.4</ele><time>2026-05-01T10:59:17.348Z</time></trkpt><trkpt lat="44.8302783" lon="7.6222217"><ele>238.0</ele><time>2026-05-01T10:59:18.353Z</time></trkpt><trkpt lat="44.8301917" lon="7.6222583"><ele>238.16666666666666</ele><time>2026-05-01T10:59:19.354Z</time></trkpt><trkpt lat="44.8301117" lon="7.622295"><ele>238.33333333333331</ele><time>2026-05-01T10:59:20.356Z</time></trkpt><trkpt lat="44.8300383" lon="7.6223317"><ele>238.5</ele><time>2026-05-01T10:59:21.354Z</time></trkpt><trkpt lat="44.829975" lon="7.622365"><ele>238.66666666666669</ele><time>2026-05-01T10:59:22.35Z</time></trkpt><trkpt lat="44.8298733" lon="7.62241"><ele>238.83333333333334</ele><time>2026-05-01T10:59:24.349Z</time></trkpt><trkpt lat="44.8297833" lon="7.6223717"><ele>239.0</ele><time>2026-05-01T10:59:26.35Z</time></trkpt><trkpt lat="44.82975" lon="7.6222933"><ele>239.0</ele><time>2026-05-01T10:59:27.354Z</time></trkpt><trkpt lat="44.8297167" lon="7.622185"><ele>238.99999999999997</ele><time>2026-05-01T10:59:28.349Z</time></trkpt><trkpt lat="44.8296733" lon="7.6220733"><ele>238.99999999999997</ele><time>2026-05-01T10:59:29.348Z</time></trkpt><trkpt lat="44.8296267" lon="7.621945"><ele>239.0</ele><time>2026-05-01T10:59:30.35Z</time></trkpt><trkpt lat="44.8295733" lon="7.6218183"><ele>239.0</ele><time>2026-05-01T10:59:31.35Z</time></trkpt><trkpt lat="44.82951" lon="7.6216833"><ele>239.0</ele><time>2026-05-01T10:59:32.354Z</time></trkpt><trkpt lat="44.8294417" lon="7.6215433"><ele>239.0</ele><time>2026-05-01T10:59:33.35Z</time></trkpt><trkpt lat="44.8293683" lon="7.6213983"><ele>239.0</ele><time>2026-05-01T10:59:34.353Z</time></trkpt><trkpt lat="44.8293033" lon="7.62125"><ele>239.0</ele><time>2026-05-01T10:59:35.353Z</time></trkpt><trkpt lat="44.82925" lon="7.6210883"><ele>239.0</ele><time>2026-05-01T10:59:36.351Z</time></trkpt><trkpt lat="44.829205" lon="7.6209183"><ele>239.0</ele><time>2026-05-01T10:59:37.358Z</time></trkpt><trkpt lat="44.8291617" lon="7.62075"><ele>239.0</ele><time>2026-05-01T10:59:38.349Z</time></trkpt><trkpt lat="44.82912" lon="7.62059"><ele>239.0</ele><time>2026-05-01T10:59:39.355Z</time></trkpt><trkpt lat="44.8290817" lon="7.6204533"><ele>239.00000000000003</ele><time>2026-05-01T10:59:40.351Z</time></trkpt><trkpt lat="44.829055" lon="7.6203517"><ele>239.0</ele><time>2026-05-01T10:59:41.354Z</time></trkpt><trkpt lat="44.828995" lon="7.6202517"><ele>239.0</ele><time>2026-05-01T10:59:43.354Z</time></trkpt><trkpt lat="44.8289317" lon="7.6202567"><ele>239.0</ele><time>2026-05-01T10:59:45.352Z</time></trkpt><trkpt lat="44.8289033" lon="7.6204"><ele>239.00000000000003</ele><time>2026-05-01T10:59:47.354Z</time></trkpt><trkpt lat="44.828895" lon="7.620525"><ele>239.0</ele><time>2026-05-01T10:59:48.351Z</time></trkpt><trkpt lat="44.8288783" lon="7.62068"><ele>239.0</ele><time>2026-05-01T10:59:49.358Z</time></trkpt><trkpt lat="44.8288567" lon="7.62085"><ele>239.0</ele><time>2026-05-01T10:59:50.351Z</time></trkpt><trkpt lat="44.8288267" lon="7.6210233"><ele>239.0</ele><time>2026-05-01T10:59:51.355Z</time></trkpt><trkpt lat="44.8287833" lon="7.6212067"><ele>239.0</ele><time>2026-05-01T10:59:52.352Z</time></trkpt><trkpt lat="44.8287267" lon="7.6213917"><ele>238.33333333333334</ele><time>2026-05-01T10:59:53.348Z</time></trkpt><trkpt lat="44.82866" lon="7.621585"><ele>237.66666666666669</ele><time>2026-05-01T10:59:54.353Z</time></trkpt><trkpt lat="44.8285833" lon="7.6217817"><ele>237.0</ele><time>2026-05-01T10:59:55.35Z</time></trkpt><trkpt lat="44.828495" lon="7.621975"><ele>237.66666666666669</ele><time>2026-05-01T10:59:56.352Z</time></trkpt><trkpt lat="44.8284" lon="7.6221617"><ele>238.33333333333334</ele><time>2026-05-01T10:59:57.348Z</time></trkpt><trkpt lat="44.8282983" lon="7.6223383"><ele>239.0</ele><time>2026-05-01T10:59:58.351Z</time></trkpt><trkpt lat="44.828195" lon="7.6225"><ele>239.0</ele><time>2026-05-01T10:59:59.352Z</time></trkpt><trkpt lat="44.828095" lon="7.62264"><ele>239.0</ele><time>2026-05-01T11:00:00.352Z</time></trkpt><trkpt lat="44.828" lon="7.6227617"><ele>239.0</ele><time>2026-05-01T11:00:01.353Z</time></trkpt><trkpt lat="44.82792" lon="7.6228567"><ele>239.0</ele><time>2026-05-01T11:00:02.349Z</time></trkpt><trkpt lat="44.8278517" lon="7.6229317"><ele>238.79999999999998</ele><time>2026-05-01T11:00:03.356Z</time></trkpt><trkpt lat="44.827785" lon="7.623"><ele>238.59999999999997</ele><time>2026-05-01T11:00:04.351Z</time></trkpt><trkpt lat="44.8277067" lon="7.6230733"><ele>238.4</ele><time>2026-05-01T11:00:05.355Z</time></trkpt><trkpt lat="44.8276133" lon="7.62315"><ele>238.2</ele><time>2026-05-01T11:00:06.354Z</time></trkpt><trkpt lat="44.8275017" lon="7.6232317"><ele>238.0</ele><time>2026-05-01T11:00:07.352Z</time></trkpt><trkpt lat="44.8273767" lon="7.6233117"><ele>238.0</ele><time>2026-05-01T11:00:08.356Z</time></trkpt><trkpt lat="44.82724" lon="7.6233983"><ele>238.0</ele><time>2026-05-01T11:00:09.352Z</time></trkpt><trkpt lat="44.8270933" lon="7.6234883"><ele>238.0</ele><time>2026-05-01T11:00:10.359Z</time></trkpt><trkpt lat="44.8269383" lon="7.6235833"><ele>237.0</ele><time>2026-05-01T11:00:11.353Z</time></trkpt><trkpt lat="44.8267783" lon="7.6236817"><ele>236.0</ele><time>2026-05-01T11:00:12.352Z</time></trkpt><trkpt lat="44.8266083" lon="7.6237867"><ele>235.0</ele><time>2026-05-01T11:00:13.355Z</time></trkpt><trkpt lat="44.8264383" lon="7.62389"><ele>235.0</ele><time>2026-05-01T11:00:14.349Z</time></trkpt><trkpt lat="44.8262683" lon="7.62399"><ele>235.0</ele><time>2026-05-01T11:00:15.352Z</time></trkpt><trkpt lat="44.8261033" lon="7.6240917"><ele>235.0</ele><time>2026-05-01T11:00:16.352Z</time></trkpt><trkpt lat="44.825935" lon="7.6241933"><ele>236.66666666666666</ele><time>2026-05-01T11:00:17.353Z</time></trkpt><trkpt lat="44.825765" lon="7.6242967"><ele>238.33333333333331</ele><time>2026-05-01T11:00:18.353Z</time></trkpt><trkpt lat="44.825595" lon="7.6244"><ele>240.0</ele><time>2026-05-01T11:00:19.352Z</time></trkpt><trkpt lat="44.825425" lon="7.6245033"><ele>240.33333333333331</ele><time>2026-05-01T11:00:20.354Z</time></trkpt><trkpt lat="44.825255" lon="7.6246067"><ele>240.66666666666666</ele><time>2026-05-01T11:00:21.357Z</time></trkpt><trkpt lat="44.8250833" lon="7.6247117"><ele>241.0</ele><time>2026-05-01T11:00:22.351Z</time></trkpt><trkpt lat="44.8249133" lon="7.6248133"><ele>240.33333333333331</ele><time>2026-05-01T11:00:23.349Z</time></trkpt><trkpt lat="44.8247433" lon="7.624915"><ele>239.66666666666669</ele><time>2026-05-01T11:00:24.355Z</time></trkpt><trkpt lat="44.8245783" lon="7.6250167"><ele>239.0</ele><time>2026-05-01T11:00:25.353Z</time></trkpt><trkpt lat="44.82442" lon="7.6251133"><ele>239.33333333333334</ele><time>2026-05-01T11:00:26.35Z</time></trkpt><trkpt lat="44.8242683" lon="7.6252"><ele>239.66666666666669</ele><time>2026-05-01T11:00:27.352Z</time></trkpt><trkpt lat="44.8241233" lon="7.62527"><ele>240.0</ele><time>2026-05-01T11:00:28.351Z</time></trkpt><trkpt lat="44.82398" lon="7.625325"><ele>240.0</ele><time>2026-05-01T11:00:29.354Z</time></trkpt><trkpt lat="44.8238483" lon="7.625365"><ele>240.0</ele><time>2026-05-01T11:00:30.353Z</time></trkpt><trkpt lat="44.8237283" lon="7.625395"><ele>240.0</ele><time>2026-05-01T11:00:31.354Z</time></trkpt><trkpt lat="44.8236217" lon="7.6254183"><ele>240.0</ele><time>2026-05-01T11:00:32.352Z</time></trkpt><trkpt lat="44.8235233" lon="7.625425"><ele>240.0</ele><time>2026-05-01T11:00:33.355Z</time></trkpt><trkpt lat="44.823435" lon="7.6254133"><ele>240.0</ele><time>2026-05-01T11:00:34.354Z</time></trkpt><trkpt lat="44.8233583" lon="7.6254083"><ele>240.0</ele><time>2026-05-01T11:00:35.353Z</time></trkpt><trkpt lat="44.823295" lon="7.6254233"><ele>240.0</ele><time>2026-05-01T11:00:36.357Z</time></trkpt><trkpt lat="44.8231983" lon="7.6255317"><ele>240.0</ele><time>2026-05-01T11:00:38.352Z</time></trkpt><trkpt lat="44.823175" lon="7.6256317"><ele>240.0</ele><time>2026-05-01T11:00:39.354Z</time></trkpt><trkpt lat="44.82315" lon="7.6257433"><ele>240.0</ele><time>2026-05-01T11:00:40.352Z</time></trkpt><trkpt lat="44.8231067" lon="7.6258483"><ele>240.0</ele><time>2026-05-01T11:00:41.353Z</time></trkpt><trkpt lat="44.82304" lon="7.625935"><ele>240.0</ele><time>2026-05-01T11:00:42.351Z</time></trkpt><trkpt lat="44.8229433" lon="7.6259983"><ele>240.0</ele><time>2026-05-01T11:00:43.35Z</time></trkpt><trkpt lat="44.8228367" lon="7.62606"><ele>240.0</ele><time>2026-05-01T11:00:44.348Z</time></trkpt><trkpt lat="44.82273" lon="7.6261233"><ele>240.4</ele><time>2026-05-01T11:00:45.352Z</time></trkpt><trkpt lat="44.8226283" lon="7.6261817"><ele>240.8</ele><time>2026-05-01T11:00:46.352Z</time></trkpt><trkpt lat="44.8225333" lon="7.6262367"><ele>241.2</ele><time>2026-05-01T11:00:47.357Z</time></trkpt><trkpt lat="44.8224417" lon="7.62629"><ele>241.6</ele><time>2026-05-01T11:00:48.357Z</time></trkpt><trkpt lat="44.8223567" lon="7.626345"><ele>242.0</ele><time>2026-05-01T11:00:49.357Z</time></trkpt><trkpt lat="44.82228" lon="7.6264"><ele>242.0</ele><time>2026-05-01T11:00:50.351Z</time></trkpt><trkpt lat="44.822215" lon="7.62646"><ele>241.99999999999997</ele><time>2026-05-01T11:00:51.353Z</time></trkpt><trkpt lat="44.8221667" lon="7.62653"><ele>242.0</ele><time>2026-05-01T11:00:52.354Z</time></trkpt><trkpt lat="44.8221483" lon="7.6266183"><ele>242.0</ele><time>2026-05-01T11:00:53.354Z</time></trkpt><trkpt lat="44.82215" lon="7.6267217"><ele>241.99999999999997</ele><time>2026-05-01T11:00:54.355Z</time></trkpt><trkpt lat="44.8221633" lon="7.6268233"><ele>242.0</ele><time>2026-05-01T11:00:55.352Z</time></trkpt><trkpt lat="44.8221917" lon="7.626935"><ele>242.0</ele><time>2026-05-01T11:00:56.355Z</time></trkpt><trkpt lat="44.8222217" lon="7.62706"><ele>241.5</ele><time>2026-05-01T11:00:57.355Z</time></trkpt><trkpt lat="44.8222583" lon="7.6272"><ele>241.0</ele><time>2026-05-01T11:00:58.356Z</time></trkpt><trkpt lat="44.8223067" lon="7.627345"><ele>240.5</ele><time>2026-05-01T11:00:59.35Z</time></trkpt><trkpt lat="44.82237" lon="7.6275017"><ele>240.0</ele><time>2026-05-01T11:01:00.354Z</time></trkpt><trkpt lat="44.8224383" lon="7.6276617"><ele>240.25</ele><time>2026-05-01T11:01:01.353Z</time></trkpt><trkpt lat="44.822505" lon="7.6278217"><ele>240.5</ele><time>2026-05-01T11:01:02.352Z</time></trkpt><trkpt lat="44.8225783" lon="7.627995"><ele>240.75</ele><time>2026-05-01T11:01:03.352Z</time></trkpt><trkpt lat="44.82265" lon="7.6281767"><ele>241.0</ele><time>2026-05-01T11:01:04.355Z</time></trkpt><trkpt lat="44.8227317" lon="7.62837"><ele>241.0</ele><time>2026-05-01T11:01:05.354Z</time></trkpt><trkpt lat="44.8228083" lon="7.62857"><ele>241.0</ele><time>2026-05-01T11:01:06.351Z</time></trkpt><trkpt lat="44.82289" lon="7.62878"><ele>241.0</ele><time>2026-05-01T11:01:07.355Z</time></trkpt><trkpt lat="44.8229767" lon="7.629"><ele>240.66666666666666</ele><time>2026-05-01T11:01:08.353Z</time></trkpt><trkpt lat="44.82307" lon="7.629235"><ele>240.33333333333331</ele><time>2026-05-01T11:01:09.354Z</time></trkpt><trkpt lat="44.8231633" lon="7.6294817"><ele>240.0</ele><time>2026-05-01T11:01:10.352Z</time></trkpt><trkpt lat="44.8232583" lon="7.62973"><ele>240.0</ele><time>2026-05-01T11:01:11.351Z</time></trkpt><trkpt lat="44.8233433" lon="7.6299567"><ele>240.0</ele><time>2026-05-01T11:01:12.351Z</time></trkpt><trkpt lat="44.8234217" lon="7.63016"><ele>240.0</ele><time>2026-05-01T11:01:13.351Z</time></trkpt><trkpt lat="44.8234917" lon="7.6303467"><ele>240.0</ele><time>2026-05-01T11:01:14.354Z</time></trkpt><trkpt lat="44.82355" lon="7.6305083"><ele>240.0</ele><time>2026-05-01T11:01:15.352Z</time></trkpt><trkpt lat="44.8236033" lon="7.63065"><ele>240.0</ele><time>2026-05-01T11:01:16.351Z</time></trkpt><trkpt lat="44.8236533" lon="7.6307767"><ele>240.0</ele><time>2026-05-01T11:01:17.348Z</time></trkpt><trkpt lat="44.8237" lon="7.6309033"><ele>240.0</ele><time>2026-05-01T11:01:18.354Z</time></trkpt><trkpt lat="44.8237483" lon="7.6310333"><ele>240.25</ele><time>2026-05-01T11:01:19.354Z</time></trkpt><trkpt lat="44.8238" lon="7.63117"><ele>240.5</ele><time>2026-05-01T11:01:20.352Z</time></trkpt><trkpt lat="44.8238533" lon="7.6313117"><ele>240.75</ele><time>2026-05-01T11:01:21.354Z</time></trkpt><trkpt lat="44.8239067" lon="7.631455"><ele>241.0</ele><time>2026-05-01T11:01:22.355Z</time></trkpt><trkpt lat="44.82396" lon="7.6316017"><ele>241.0</ele><time>2026-05-01T11:01:23.354Z</time></trkpt><trkpt lat="44.8240183" lon="7.63175"><ele>241.0</ele><time>2026-05-01T11:01:24.353Z</time></trkpt><trkpt lat="44.8240767" lon="7.6319017"><ele>241.0</ele><time>2026-05-01T11:01:25.352Z</time></trkpt><trkpt lat="44.824135" lon="7.6320533"><ele>241.0</ele><time>2026-05-01T11:01:26.352Z</time></trkpt><trkpt lat="44.824195" lon="7.6322083"><ele>241.0</ele><time>2026-05-01T11:01:27.354Z</time></trkpt><trkpt lat="44.8242583" lon="7.6323633"><ele>241.0</ele><time>2026-05-01T11:01:28.353Z</time></trkpt><trkpt lat="44.82432" lon="7.63252"><ele>241.0</ele><time>2026-05-01T11:01:29.358Z</time></trkpt><trkpt lat="44.824385" lon="7.6326833"><ele>241.0</ele><time>2026-05-01T11:01:30.353Z</time></trkpt><trkpt lat="44.8244517" lon="7.63285"><ele>240.25</ele><time>2026-05-01T11:01:31.352Z</time></trkpt><trkpt lat="44.82452" lon="7.6330267"><ele>239.5</ele><time>2026-05-01T11:01:32.358Z</time></trkpt><trkpt lat="44.8245883" lon="7.6332117"><ele>238.75</ele><time>2026-05-01T11:01:33.353Z</time></trkpt><trkpt lat="44.8246583" lon="7.6334017"><ele>238.0</ele><time>2026-05-01T11:01:34.354Z</time></trkpt><trkpt lat="44.8247317" lon="7.6335967"><ele>238.33333333333331</ele><time>2026-05-01T11:01:35.354Z</time></trkpt><trkpt lat="44.8248083" lon="7.6337983"><ele>238.66666666666669</ele><time>2026-05-01T11:01:36.349Z</time></trkpt><trkpt lat="44.8248867" lon="7.634005"><ele>239.0</ele><time>2026-05-01T11:01:37.357Z</time></trkpt><trkpt lat="44.8249667" lon="7.63422"><ele>239.0</ele><time>2026-05-01T11:01:38.354Z</time></trkpt><trkpt lat="44.8250433" lon="7.6344367"><ele>239.0</ele><time>2026-05-01T11:01:39.354Z</time></trkpt><trkpt lat="44.8251167" lon="7.6346567"><ele>239.0</ele><time>2026-05-01T11:01:40.352Z</time></trkpt><trkpt lat="44.825175" lon="7.6348933"><ele>239.0</ele><time>2026-05-01T11:01:41.352Z</time></trkpt><trkpt lat="44.825215" lon="7.6351467"><ele>239.0</ele><time>2026-05-01T11:01:42.352Z</time></trkpt><trkpt lat="44.8252333" lon="7.63541"><ele>239.0</ele><time>2026-05-01T11:01:43.352Z</time></trkpt><trkpt lat="44.8252267" lon="7.6356867"><ele>239.0</ele><time>2026-05-01T11:01:44.352Z</time></trkpt><trkpt lat="44.8252017" lon="7.63597"><ele>239.0</ele><time>2026-05-01T11:01:45.352Z</time></trkpt><trkpt lat="44.8251733" lon="7.6362633"><ele>239.0</ele><time>2026-05-01T11:01:46.35Z</time></trkpt><trkpt lat="44.825145" lon="7.6365633"><ele>239.0</ele><time>2026-05-01T11:01:47.353Z</time></trkpt><trkpt lat="44.8251117" lon="7.636865"><ele>239.0</ele><time>2026-05-01T11:01:48.348Z</time></trkpt><trkpt lat="44.8250767" lon="7.63717"><ele>239.0</ele><time>2026-05-01T11:01:49.353Z</time></trkpt><trkpt lat="44.8250433" lon="7.6374817"><ele>239.0</ele><time>2026-05-01T11:01:50.352Z</time></trkpt><trkpt lat="44.8250167" lon="7.63779"><ele>239.0</ele><time>2026-05-01T11:01:51.349Z</time></trkpt><trkpt lat="44.8250017" lon="7.6380833"><ele>239.0</ele><time>2026-05-01T11:01:52.353Z</time></trkpt><trkpt lat="44.8250017" lon="7.6383683"><ele>239.33333333333334</ele><time>2026-05-01T11:01:53.352Z</time></trkpt><trkpt lat="44.8250217" lon="7.638655"><ele>239.66666666666669</ele><time>2026-05-01T11:01:54.35Z</time></trkpt><trkpt lat="44.82506" lon="7.63894"><ele>240.0</ele><time>2026-05-01T11:01:55.351Z</time></trkpt><trkpt lat="44.825125" lon="7.6392233"><ele>239.0</ele><time>2026-05-01T11:01:56.352Z</time></trkpt><trkpt lat="44.825215" lon="7.6394933"><ele>238.0</ele><time>2026-05-01T11:01:57.357Z</time></trkpt><trkpt lat="44.825325" lon="7.63975"><ele>237.0</ele><time>2026-05-01T11:01:58.354Z</time></trkpt><trkpt lat="44.8254567" lon="7.64"><ele>237.0</ele><time>2026-05-01T11:01:59.352Z</time></trkpt><trkpt lat="44.8256" lon="7.6402433"><ele>237.0</ele><time>2026-05-01T11:02:00.35Z</time></trkpt><trkpt lat="44.82575" lon="7.6404917"><ele>237.5</ele><time>2026-05-01T11:02:01.349Z</time></trkpt><trkpt lat="44.8259083" lon="7.64074"><ele>238.0</ele><time>2026-05-01T11:02:02.354Z</time></trkpt><trkpt lat="44.82607" lon="7.64099"><ele>239.0</ele><time>2026-05-01T11:02:03.355Z</time></trkpt><trkpt lat="44.82623" lon="7.6412433"><ele>240.0</ele><time>2026-05-01T11:02:04.353Z</time></trkpt><trkpt lat="44.8263867" lon="7.64149"><ele>240.0</ele><time>2026-05-01T11:02:05.353Z</time></trkpt><trkpt lat="44.8265433" lon="7.6417383"><ele>240.0</ele><time>2026-05-01T11:02:06.354Z</time></trkpt><trkpt lat="44.8267017" lon="7.6419883"><ele>240.0</ele><time>2026-05-01T11:02:07.355Z</time></trkpt><trkpt lat="44.82686" lon="7.6422367"><ele>240.0</ele><time>2026-05-01T11:02:08.354Z</time></trkpt><trkpt lat="44.82702" lon="7.6424883"><ele>240.0</ele><time>2026-05-01T11:02:09.35Z</time></trkpt><trkpt lat="44.8271817" lon="7.6427433"><ele>240.0</ele><time>2026-05-01T11:02:10.354Z</time></trkpt><trkpt lat="44.827345" lon="7.6430017"><ele>239.5</ele><time>2026-05-01T11:02:11.35Z</time></trkpt><trkpt lat="44.8275117" lon="7.6432617"><ele>239.0</ele><time>2026-05-01T11:02:12.355Z</time></trkpt><trkpt lat="44.82768" lon="7.6435267"><ele>239.5</ele><time>2026-05-01T11:02:13.355Z</time></trkpt><trkpt lat="44.82785" lon="7.6437917"><ele>240.0</ele><time>2026-05-01T11:02:14.351Z</time></trkpt><trkpt lat="44.8280217" lon="7.6440617"><ele>240.0</ele><time>2026-05-01T11:02:15.357Z</time></trkpt><trkpt lat="44.8281983" lon="7.6443367"><ele>240.0</ele><time>2026-05-01T11:02:16.354Z</time></trkpt><trkpt lat="44.8283767" lon="7.6446133"><ele>239.5</ele><time>2026-05-01T11:02:17.351Z</time></trkpt><trkpt lat="44.8285533" lon="7.6448933"><ele>239.0</ele><time>2026-05-01T11:02:18.357Z</time></trkpt><trkpt lat="44.82873" lon="7.6451767"><ele>239.0</ele><time>2026-05-01T11:02:19.354Z</time></trkpt><trkpt lat="44.828905" lon="7.64546"><ele>239.0</ele><time>2026-05-01T11:02:20.351Z</time></trkpt><trkpt lat="44.82908" lon="7.6457483"><ele>239.0</ele><time>2026-05-01T11:02:21.35Z</time></trkpt><trkpt lat="44.8292517" lon="7.6460417"><ele>239.0</ele><time>2026-05-01T11:02:22.353Z</time></trkpt><trkpt lat="44.8294167" lon="7.6463433"><ele>239.0</ele><time>2026-05-01T11:02:23.352Z</time></trkpt><trkpt lat="44.829575" lon="7.6466517"><ele>239.0</ele><time>2026-05-01T11:02:24.351Z</time></trkpt><trkpt lat="44.82973" lon="7.64697"><ele>238.5</ele><time>2026-05-01T11:02:25.35Z</time></trkpt><trkpt lat="44.8298783" lon="7.6472917"><ele>238.0</ele><time>2026-05-01T11:02:26.348Z</time></trkpt><trkpt lat="44.8300233" lon="7.6476183"><ele>238.0</ele><time>2026-05-01T11:02:27.356Z</time></trkpt><trkpt lat="44.8301583" lon="7.64795"><ele>238.0</ele><time>2026-05-01T11:02:28.35Z</time></trkpt><trkpt lat="44.830285" lon="7.6482867"><ele>239.0</ele><time>2026-05-01T11:02:29.35Z</time></trkpt><trkpt lat="44.8304083" lon="7.6486267"><ele>240.0</ele><time>2026-05-01T11:02:30.349Z</time></trkpt><trkpt lat="44.83052" lon="7.6489733"><ele>240.0</ele><time>2026-05-01T11:02:31.35Z</time></trkpt><trkpt lat="44.830625" lon="7.649325"><ele>240.0</ele><time>2026-05-01T11:02:32.351Z</time></trkpt><trkpt lat="44.8307233" lon="7.6496783"><ele>240.5</ele><time>2026-05-01T11:02:33.351Z</time></trkpt><trkpt lat="44.8308133" lon="7.6500317"><ele>241.0</ele><time>2026-05-01T11:02:34.354Z</time></trkpt><trkpt lat="44.8308933" lon="7.6503817"><ele>239.5</ele><time>2026-05-01T11:02:35.349Z</time></trkpt><trkpt lat="44.8309633" lon="7.6507283"><ele>238.0</ele><time>2026-05-01T11:02:36.348Z</time></trkpt><trkpt lat="44.8310267" lon="7.6510567"><ele>238.33333333333331</ele><time>2026-05-01T11:02:37.357Z</time></trkpt><trkpt lat="44.8310833" lon="7.6513717"><ele>238.66666666666669</ele><time>2026-05-01T11:02:38.358Z</time></trkpt><trkpt lat="44.8311367" lon="7.65167"><ele>239.0</ele><time>2026-05-01T11:02:39.357Z</time></trkpt><trkpt lat="44.8311867" lon="7.6519717"><ele>239.0</ele><time>2026-05-01T11:02:40.366Z</time></trkpt><trkpt lat="44.8312383" lon="7.6522733"><ele>239.0</ele><time>2026-05-01T11:02:41.352Z</time></trkpt><trkpt lat="44.83129" lon="7.6525817"><ele>239.0</ele><time>2026-05-01T11:02:42.35Z</time></trkpt><trkpt lat="44.8313417" lon="7.6528967"><ele>239.0</ele><time>2026-05-01T11:02:43.354Z</time></trkpt><trkpt lat="44.83139" lon="7.653215"><ele>239.0</ele><time>2026-05-01T11:02:44.35Z</time></trkpt><trkpt lat="44.831445" lon="7.653535"><ele>238.66666666666669</ele><time>2026-05-01T11:02:45.35Z</time></trkpt><trkpt lat="44.8314933" lon="7.6538383"><ele>238.33333333333331</ele><time>2026-05-01T11:02:46.349Z</time></trkpt><trkpt lat="44.8315433" lon="7.65413"><ele>238.0</ele><time>2026-05-01T11:02:47.35Z</time></trkpt><trkpt lat="44.8315917" lon="7.654405"><ele>238.0</ele><time>2026-05-01T11:02:48.351Z</time></trkpt><trkpt lat="44.8316483" lon="7.6546667"><ele>238.0</ele><time>2026-05-01T11:02:49.351Z</time></trkpt><trkpt lat="44.83171" lon="7.6549117"><ele>238.0</ele><time>2026-05-01T11:02:50.354Z</time></trkpt><trkpt lat="44.83178" lon="7.65514"><ele>237.66666666666666</ele><time>2026-05-01T11:02:51.356Z</time></trkpt><trkpt lat="44.83186" lon="7.6553483"><ele>237.33333333333331</ele><time>2026-05-01T11:02:52.353Z</time></trkpt><trkpt lat="44.83195" lon="7.655535"><ele>237.0</ele><time>2026-05-01T11:02:53.35Z</time></trkpt><trkpt lat="44.8320433" lon="7.6557217"><ele>237.0</ele><time>2026-05-01T11:02:54.348Z</time></trkpt><trkpt lat="44.8321467" lon="7.6559183"><ele>237.0</ele><time>2026-05-01T11:02:55.352Z</time></trkpt><trkpt lat="44.8322533" lon="7.6561233"><ele>237.0</ele><time>2026-05-01T11:02:56.449Z</time></trkpt><trkpt lat="44.8323633" lon="7.6563317"><ele>237.33333333333331</ele><time>2026-05-01T11:02:57.352Z</time></trkpt><trkpt lat="44.832475" lon="7.656545"><ele>237.66666666666666</ele><time>2026-05-01T11:02:58.354Z</time></trkpt><trkpt lat="44.8325867" lon="7.65676"><ele>238.0</ele><time>2026-05-01T11:02:59.354Z</time></trkpt><trkpt lat="44.8327" lon="7.656975"><ele>238.0</ele><time>2026-05-01T11:03:00.357Z</time></trkpt><trkpt lat="44.832815" lon="7.6571917"><ele>238.0</ele><time>2026-05-01T11:03:01.357Z</time></trkpt><trkpt lat="44.832925" lon="7.6574033"><ele>238.0</ele><time>2026-05-01T11:03:02.354Z</time></trkpt><trkpt lat="44.83303" lon="7.657605"><ele>238.33333333333331</ele><time>2026-05-01T11:03:03.351Z</time></trkpt><trkpt lat="44.83313" lon="7.6577917"><ele>238.66666666666669</ele><time>2026-05-01T11:03:04.355Z</time></trkpt><trkpt lat="44.8332233" lon="7.657965"><ele>239.0</ele><time>2026-05-01T11:03:05.35Z</time></trkpt><trkpt lat="44.8333017" lon="7.6581133"><ele>239.00000000000003</ele><time>2026-05-01T11:03:06.355Z</time></trkpt><trkpt lat="44.833355" lon="7.6582233"><ele>239.0</ele><time>2026-05-01T11:03:07.355Z</time></trkpt><trkpt lat="44.8333883" lon="7.65831"><ele>239.0</ele><time>2026-05-01T11:03:09.35Z</time></trkpt><trkpt lat="44.8334483" lon="7.6583933"><ele>239.0</ele><time>2026-05-01T11:03:27.354Z</time></trkpt><trkpt lat="44.8334533" lon="7.6582717"><ele>239.00000000000003</ele><time>2026-05-01T11:03:30.355Z</time></trkpt><trkpt lat="44.8334167" lon="7.6581983"><ele>239.0</ele><time>2026-05-01T11:03:31.351Z</time></trkpt><trkpt lat="44.8333633" lon="7.658105"><ele>239.0</ele><time>2026-05-01T11:03:32.35Z</time></trkpt><trkpt lat="44.8333017" lon="7.6579883"><ele>239.0</ele><time>2026-05-01T11:03:33.351Z</time></trkpt><trkpt lat="44.8332317" lon="7.6578567"><ele>239.0</ele><time>2026-05-01T11:03:34.354Z</time></trkpt><trkpt lat="44.83315" lon="7.65771"><ele>239.0</ele><time>2026-05-01T11:03:35.351Z</time></trkpt><trkpt lat="44.8330667" lon="7.657555"><ele>238.66666666666669</ele><time>2026-05-01T11:03:36.351Z</time></trkpt><trkpt lat="44.832975" lon="7.65739"><ele>238.33333333333331</ele><time>2026-05-01T11:03:37.352Z</time></trkpt><trkpt lat="44.83288" lon="7.657215"><ele>238.0</ele><time>2026-05-01T11:03:38.352Z</time></trkpt><trkpt lat="44.83278" lon="7.657025"><ele>238.0</ele><time>2026-05-01T11:03:39.353Z</time></trkpt><trkpt lat="44.8326733" lon="7.65683"><ele>238.0</ele><time>2026-05-01T11:03:40.353Z</time></trkpt><trkpt lat="44.832565" lon="7.65663"><ele>238.0</ele><time>2026-05-01T11:03:41.355Z</time></trkpt><trkpt lat="44.832455" lon="7.656425"><ele>238.0</ele><time>2026-05-01T11:03:42.351Z</time></trkpt><trkpt lat="44.8323433" lon="7.656215"><ele>238.0</ele><time>2026-05-01T11:03:43.351Z</time></trkpt><trkpt lat="44.83223" lon="7.6560067"><ele>238.0</ele><time>2026-05-01T11:03:44.357Z</time></trkpt><trkpt lat="44.83212" lon="7.6558083"><ele>237.75</ele><time>2026-05-01T11:03:45.352Z</time></trkpt><trkpt lat="44.83202" lon="7.655625"><ele>237.5</ele><time>2026-05-01T11:03:46.348Z</time></trkpt><trkpt lat="44.831935" lon="7.65546"><ele>237.25</ele><time>2026-05-01T11:03:47.353Z</time></trkpt><trkpt lat="44.8318667" lon="7.6553217"><ele>237.0</ele><time>2026-05-01T11:03:48.351Z</time></trkpt><trkpt lat="44.8318117" lon="7.6552117"><ele>237.2</ele><time>2026-05-01T11:03:49.355Z</time></trkpt><trkpt lat="44.83176" lon="7.6551233"><ele>237.39999999999998</ele><time>2026-05-01T11:03:50.35Z</time></trkpt><trkpt lat="44.8316617" lon="7.6550583"><ele>237.60000000000002</ele><time>2026-05-01T11:03:52.356Z</time></trkpt><trkpt lat="44.8315933" lon="7.6550567"><ele>237.8</ele><time>2026-05-01T11:03:53.358Z</time></trkpt><trkpt lat="44.831505" lon="7.6550583"><ele>238.0</ele><time>2026-05-01T11:03:54.351Z</time></trkpt><trkpt lat="44.83139" lon="7.655055"><ele>238.0</ele><time>2026-05-01T11:03:55.355Z</time></trkpt><trkpt lat="44.8312483" lon="7.6550467"><ele>238.0</ele><time>2026-05-01T11:03:56.356Z</time></trkpt><trkpt lat="44.8310883" lon="7.6550383"><ele>238.0</ele><time>2026-05-01T11:03:57.358Z</time></trkpt><trkpt lat="44.8309167" lon="7.655025"><ele>238.33333333333331</ele><time>2026-05-01T11:03:58.35Z</time></trkpt><trkpt lat="44.8307367" lon="7.6550117"><ele>238.66666666666669</ele><time>2026-05-01T11:03:59.354Z</time></trkpt><trkpt lat="44.8305467" lon="7.655"><ele>239.0</ele><time>2026-05-01T11:04:00.349Z</time></trkpt><trkpt lat="44.8303567" lon="7.6549867"><ele>239.0</ele><time>2026-05-01T11:04:01.352Z</time></trkpt><trkpt lat="44.8301683" lon="7.6549767"><ele>239.0</ele><time>2026-05-01T11:04:02.352Z</time></trkpt><trkpt lat="44.8299783" lon="7.6549667"><ele>239.0</ele><time>2026-05-01T11:04:03.356Z</time></trkpt><trkpt lat="44.82979" lon="7.654955"><ele>239.33333333333334</ele><time>2026-05-01T11:04:04.356Z</time></trkpt><trkpt lat="44.8296067" lon="7.6549417"><ele>239.66666666666669</ele><time>2026-05-01T11:04:05.352Z</time></trkpt><trkpt lat="44.8294317" lon="7.65493"><ele>240.0</ele><time>2026-05-01T11:04:06.352Z</time></trkpt><trkpt lat="44.829265" lon="7.65492"><ele>240.0</ele><time>2026-05-01T11:04:07.354Z</time></trkpt><trkpt lat="44.829105" lon="7.654915"><ele>240.0</ele><time>2026-05-01T11:04:08.353Z</time></trkpt><trkpt lat="44.8289483" lon="7.6549117"><ele>240.0</ele><time>2026-05-01T11:04:09.356Z</time></trkpt><trkpt lat="44.828795" lon="7.6549133"><ele>240.0</ele><time>2026-05-01T11:04:10.349Z</time></trkpt><trkpt lat="44.8286417" lon="7.6549217"><ele>240.0</ele><time>2026-05-01T11:04:11.353Z</time></trkpt><trkpt lat="44.8284867" lon="7.6549267"><ele>240.0</ele><time>2026-05-01T11:04:12.353Z</time></trkpt><trkpt lat="44.82833" lon="7.6549283"><ele>240.0</ele><time>2026-05-01T11:04:13.351Z</time></trkpt><trkpt lat="44.828175" lon="7.6549267"><ele>240.0</ele><time>2026-05-01T11:04:14.353Z</time></trkpt><trkpt lat="44.8280217" lon="7.6549217"><ele>240.0</ele><time>2026-05-01T11:04:15.355Z</time></trkpt><trkpt lat="44.8278667" lon="7.6549117"><ele>240.0</ele><time>2026-05-01T11:04:16.356Z</time></trkpt><trkpt lat="44.82771" lon="7.6548933"><ele>240.0</ele><time>2026-05-01T11:04:17.354Z</time></trkpt><trkpt lat="44.8275483" lon="7.65487"><ele>240.0</ele><time>2026-05-01T11:04:18.353Z</time></trkpt><trkpt lat="44.827385" lon="7.6548433"><ele>240.33333333333331</ele><time>2026-05-01T11:04:19.354Z</time></trkpt><trkpt lat="44.82722" lon="7.6548167"><ele>240.66666666666666</ele><time>2026-05-01T11:04:20.353Z</time></trkpt><trkpt lat="44.827055" lon="7.6547883"><ele>241.0</ele><time>2026-05-01T11:04:21.355Z</time></trkpt><trkpt lat="44.8268933" lon="7.6547617"><ele>241.25</ele><time>2026-05-01T11:04:22.355Z</time></trkpt><trkpt lat="44.8267367" lon="7.654735"><ele>241.5</ele><time>2026-05-01T11:04:23.353Z</time></trkpt><trkpt lat="44.82659" lon="7.6547083"><ele>241.75</ele><time>2026-05-01T11:04:24.355Z</time></trkpt><trkpt lat="44.8264517" lon="7.6546867"><ele>242.0</ele><time>2026-05-01T11:04:25.356Z</time></trkpt><trkpt lat="44.8263217" lon="7.6546633"><ele>242.0</ele><time>2026-05-01T11:04:26.354Z</time></trkpt><trkpt lat="44.8262067" lon="7.6546433"><ele>242.0</ele><time>2026-05-01T11:04:27.35Z</time></trkpt><trkpt lat="44.8261017" lon="7.6546283"><ele>242.0</ele><time>2026-05-01T11:04:28.352Z</time></trkpt><trkpt lat="44.8260017" lon="7.6546217"><ele>242.0</ele><time>2026-05-01T11:04:29.353Z</time></trkpt><trkpt lat="44.8259" lon="7.65464"><ele>242.0</ele><time>2026-05-01T11:04:30.354Z</time></trkpt><trkpt lat="44.82579" lon="7.6546817"><ele>241.75</ele><time>2026-05-01T11:04:31.355Z</time></trkpt><trkpt lat="44.8256767" lon="7.6547483"><ele>241.5</ele><time>2026-05-01T11:04:32.352Z</time></trkpt><trkpt lat="44.8255617" lon="7.6548167"><ele>241.25</ele><time>2026-05-01T11:04:33.352Z</time></trkpt><trkpt lat="44.8254467" lon="7.654875"><ele>241.0</ele><time>2026-05-01T11:04:34.351Z</time></trkpt><trkpt lat="44.8253317" lon="7.6549183"><ele>241.0</ele><time>2026-05-01T11:04:35.349Z</time></trkpt><trkpt lat="44.8252033" lon="7.654925"><ele>241.0</ele><time>2026-05-01T11:04:36.361Z</time></trkpt><trkpt lat="44.8250633" lon="7.6549133"><ele>241.0</ele><time>2026-05-01T11:04:37.351Z</time></trkpt><trkpt lat="44.824915" lon="7.6548833"><ele>241.0</ele><time>2026-05-01T11:04:38.354Z</time></trkpt><trkpt lat="44.8247617" lon="7.65485"><ele>241.0</ele><time>2026-05-01T11:04:39.354Z</time></trkpt><trkpt lat="44.8246033" lon="7.6548167"><ele>241.0</ele><time>2026-05-01T11:04:40.35Z</time></trkpt><trkpt lat="44.8244433" lon="7.65479"><ele>241.0</ele><time>2026-05-01T11:04:41.356Z</time></trkpt><trkpt lat="44.82428" lon="7.65477"><ele>240.66666666666666</ele><time>2026-05-01T11:04:42.355Z</time></trkpt><trkpt lat="44.82412" lon="7.654745"><ele>240.33333333333331</ele><time>2026-05-01T11:04:43.356Z</time></trkpt><trkpt lat="44.82396" lon="7.65472"><ele>240.0</ele><time>2026-05-01T11:04:44.354Z</time></trkpt><trkpt lat="44.823805" lon="7.6546917"><ele>240.0</ele><time>2026-05-01T11:04:45.349Z</time></trkpt><trkpt lat="44.8236533" lon="7.654665"><ele>240.0</ele><time>2026-05-01T11:04:46.351Z</time></trkpt><trkpt lat="44.8235017" lon="7.6546383"><ele>240.0</ele><time>2026-05-01T11:04:47.355Z</time></trkpt><trkpt lat="44.8233533" lon="7.65461"><ele>240.0</ele><time>2026-05-01T11:04:48.358Z</time></trkpt><trkpt lat="44.8232083" lon="7.654585"><ele>240.0</ele><time>2026-05-01T11:04:49.357Z</time></trkpt><trkpt lat="44.8230733" lon="7.65456"><ele>240.0</ele><time>2026-05-01T11:04:50.354Z</time></trkpt><trkpt lat="44.822945" lon="7.654545"><ele>240.0</ele><time>2026-05-01T11:04:51.355Z</time></trkpt><trkpt lat="44.8228217" lon="7.6545417"><ele>240.0</ele><time>2026-05-01T11:04:52.355Z</time></trkpt><trkpt lat="44.8227017" lon="7.65456"><ele>240.0</ele><time>2026-05-01T11:04:53.351Z</time></trkpt><trkpt lat="44.8225767" lon="7.6546"><ele>240.0</ele><time>2026-05-01T11:04:54.35Z</time></trkpt><trkpt lat="44.82245" lon="7.6546533"><ele>240.0</ele><time>2026-05-01T11:04:55.35Z</time></trkpt><trkpt lat="44.8223167" lon="7.65472"><ele>240.0</ele><time>2026-05-01T11:04:56.355Z</time></trkpt><trkpt lat="44.822185" lon="7.6547867"><ele>240.0</ele><time>2026-05-01T11:04:57.353Z</time></trkpt><trkpt lat="44.8220567" lon="7.65485"><ele>240.0</ele><time>2026-05-01T11:04:58.354Z</time></trkpt><trkpt lat="44.821935" lon="7.65491"><ele>240.0</ele><time>2026-05-01T11:04:59.352Z</time></trkpt><trkpt lat="44.8218183" lon="7.6549683"><ele>240.0</ele><time>2026-05-01T11:05:00.354Z</time></trkpt><trkpt lat="44.8217083" lon="7.65502"><ele>240.0</ele><time>2026-05-01T11:05:01.352Z</time></trkpt><trkpt lat="44.8216017" lon="7.6550667"><ele>240.0</ele><time>2026-05-01T11:05:02.351Z</time></trkpt><trkpt lat="44.8214967" lon="7.6551183"><ele>240.0</ele><time>2026-05-01T11:05:03.355Z</time></trkpt><trkpt lat="44.8214017" lon="7.6551667"><ele>240.0</ele><time>2026-05-01T11:05:04.349Z</time></trkpt><trkpt lat="44.8213167" lon="7.6552083"><ele>240.0</ele><time>2026-05-01T11:05:05.352Z</time></trkpt><trkpt lat="44.821245" lon="7.6552467"><ele>240.0</ele><time>2026-05-01T11:05:06.349Z</time></trkpt><trkpt lat="44.82118" lon="7.65528"><ele>240.0</ele><time>2026-05-01T11:05:07.352Z</time></trkpt><trkpt lat="44.8211183" lon="7.6553117"><ele>240.0</ele><time>2026-05-01T11:05:08.351Z</time></trkpt><trkpt lat="44.82102" lon="7.6553483"><ele>240.0</ele><time>2026-05-01T11:05:10.349Z</time></trkpt><trkpt lat="44.8209283" lon="7.6553717"><ele>240.0</ele><time>2026-05-01T11:05:19.35Z</time></trkpt><trkpt lat="44.82085" lon="7.6554"><ele>240.0</ele><time>2026-05-01T11:05:21.349Z</time></trkpt><trkpt lat="44.8207783" lon="7.6554167"><ele>240.0</ele><time>2026-05-01T11:05:23.358Z</time></trkpt><trkpt lat="44.82074" lon="7.6555167"><ele>240.0</ele><time>2026-05-01T11:05:27.352Z</time></trkpt><trkpt lat="44.8207567" lon="7.65562"><ele>240.0</ele><time>2026-05-01T11:05:29.348Z</time></trkpt><trkpt lat="44.8207817" lon="7.655765"><ele>240.0</ele><time>2026-05-01T11:05:31.355Z</time></trkpt><trkpt lat="44.8207967" lon="7.6559467"><ele>240.0</ele><time>2026-05-01T11:05:33.351Z</time></trkpt><trkpt lat="44.8208" lon="7.6560483"><ele>240.0</ele><time>2026-05-01T11:05:34.351Z</time></trkpt><trkpt lat="44.8208017" lon="7.6561483"><ele>240.0</ele><time>2026-05-01T11:05:35.349Z</time></trkpt><trkpt lat="44.8208033" lon="7.6562467"><ele>240.0</ele><time>2026-05-01T11:05:36.352Z</time></trkpt><trkpt lat="44.8208033" lon="7.6563367"><ele>240.0</ele><time>2026-05-01T11:05:37.353Z</time></trkpt><trkpt lat="44.8208" lon="7.6565"><ele>240.0</ele><time>2026-05-01T11:05:39.353Z</time></trkpt><trkpt lat="44.8208033" lon="7.656605"><ele>240.0</ele><time>2026-05-01T11:05:41.353Z</time></trkpt><trkpt lat="44.8208083" lon="7.6567083"><ele>240.0</ele><time>2026-05-01T11:05:44.353Z</time></trkpt><trkpt lat="44.820805" lon="7.6568833"><ele>240.0</ele><time>2026-05-01T11:05:46.35Z</time></trkpt><trkpt lat="44.8208017" lon="7.6569967"><ele>240.0</ele><time>2026-05-01T11:05:47.352Z</time></trkpt><trkpt lat="44.8208" lon="7.6571133"><ele>240.0</ele><time>2026-05-01T11:05:48.355Z</time></trkpt><trkpt lat="44.8207967" lon="7.65723"><ele>240.0</ele><time>2026-05-01T11:05:49.356Z</time></trkpt><trkpt lat="44.8207917" lon="7.657355"><ele>240.0</ele><time>2026-05-01T11:05:50.354Z</time></trkpt><trkpt lat="44.8207867" lon="7.6574867"><ele>240.0</ele><time>2026-05-01T11:05:51.355Z</time></trkpt><trkpt lat="44.82078" lon="7.657625"><ele>240.0</ele><time>2026-05-01T11:05:52.353Z</time></trkpt><trkpt lat="44.8207717" lon="7.6577683"><ele>240.0</ele><time>2026-05-01T11:05:53.35Z</time></trkpt><trkpt lat="44.8207633" lon="7.6579167"><ele>240.0</ele><time>2026-05-01T11:05:54.35Z</time></trkpt><trkpt lat="44.82076" lon="7.6580633"><ele>240.2</ele><time>2026-05-01T11:05:55.358Z</time></trkpt><trkpt lat="44.820755" lon="7.6582117"><ele>240.4</ele><time>2026-05-01T11:05:56.351Z</time></trkpt><trkpt lat="44.8207483" lon="7.6583583"><ele>240.60000000000002</ele><time>2026-05-01T11:05:57.355Z</time></trkpt><trkpt lat="44.8207417" lon="7.6585033"><ele>240.8</ele><time>2026-05-01T11:05:58.353Z</time></trkpt><trkpt lat="44.820735" lon="7.6586483"><ele>241.0</ele><time>2026-05-01T11:05:59.351Z</time></trkpt><trkpt lat="44.8207283" lon="7.6587817"><ele>241.0</ele><time>2026-05-01T11:06:00.353Z</time></trkpt><trkpt lat="44.8207183" lon="7.6589117"><ele>241.00000000000003</ele><time>2026-05-01T11:06:01.354Z</time></trkpt><trkpt lat="44.8207133" lon="7.659035"><ele>241.00000000000003</ele><time>2026-05-01T11:06:02.349Z</time></trkpt><trkpt lat="44.8207083" lon="7.6591617"><ele>241.0</ele><time>2026-05-01T11:06:03.358Z</time></trkpt><trkpt lat="44.8207033" lon="7.6592917"><ele>241.0</ele><time>2026-05-01T11:06:04.351Z</time></trkpt><trkpt lat="44.8206967" lon="7.6594283"><ele>241.0</ele><time>2026-05-01T11:06:05.35Z</time></trkpt><trkpt lat="44.82069" lon="7.65957"><ele>241.00000000000003</ele><time>2026-05-01T11:06:06.354Z</time></trkpt><trkpt lat="44.8206833" lon="7.6597133"><ele>241.00000000000003</ele><time>2026-05-01T11:06:07.35Z</time></trkpt><trkpt lat="44.8206767" lon="7.659855"><ele>241.0</ele><time>2026-05-01T11:06:08.35Z</time></trkpt><trkpt lat="44.8206683" lon="7.6599967"><ele>241.0</ele><time>2026-05-01T11:06:09.351Z</time></trkpt><trkpt lat="44.82066" lon="7.6601367"><ele>241.0</ele><time>2026-05-01T11:06:10.352Z</time></trkpt><trkpt lat="44.82065" lon="7.6602783"><ele>241.00000000000003</ele><time>2026-05-01T11:06:11.349Z</time></trkpt><trkpt lat="44.8206417" lon="7.6604167"><ele>241.00000000000003</ele><time>2026-05-01T11:06:12.352Z</time></trkpt><trkpt lat="44.8206367" lon="7.6605583"><ele>241.0</ele><time>2026-05-01T11:06:13.351Z</time></trkpt><trkpt lat="44.8206317" lon="7.6606967"><ele>241.0</ele><time>2026-05-01T11:06:14.356Z</time></trkpt><trkpt lat="44.820625" lon="7.6608333"><ele>240.99999999999997</ele><time>2026-05-01T11:06:15.348Z</time></trkpt><trkpt lat="44.8206183" lon="7.6609683"><ele>241.0</ele><time>2026-05-01T11:06:16.352Z</time></trkpt><trkpt lat="44.8206133" lon="7.6611"><ele>241.0</ele><time>2026-05-01T11:06:17.35Z</time></trkpt><trkpt lat="44.82061" lon="7.661225"><ele>241.0</ele><time>2026-05-01T11:06:18.347Z</time></trkpt><trkpt lat="44.8206033" lon="7.6613417"><ele>240.99999999999997</ele><time>2026-05-01T11:06:19.352Z</time></trkpt><trkpt lat="44.8205983" lon="7.661435"><ele>241.0</ele><time>2026-05-01T11:06:20.357Z</time></trkpt><trkpt lat="44.8205717" lon="7.661545"><ele>240.66666666666666</ele><time>2026-05-01T11:06:22.352Z</time></trkpt><trkpt lat="44.8205017" lon="7.661575"><ele>240.33333333333331</ele><time>2026-05-01T11:06:24.353Z</time></trkpt><trkpt lat="44.8204383" lon="7.661565"><ele>240.0</ele><time>2026-05-01T11:06:25.353Z</time></trkpt><trkpt lat="44.8203583" lon="7.6615433"><ele>239.66666666666669</ele><time>2026-05-01T11:06:26.359Z</time></trkpt><trkpt lat="44.8202617" lon="7.66151"><ele>239.33333333333334</ele><time>2026-05-01T11:06:27.352Z</time></trkpt><trkpt lat="44.820145" lon="7.6614817"><ele>239.0</ele><time>2026-05-01T11:06:28.352Z</time></trkpt><trkpt lat="44.8200133" lon="7.66145"><ele>239.0</ele><time>2026-05-01T11:06:29.352Z</time></trkpt><trkpt lat="44.8198667" lon="7.6614117"><ele>239.0</ele><time>2026-05-01T11:06:30.352Z</time></trkpt><trkpt lat="44.819715" lon="7.661375"><ele>239.0</ele><time>2026-05-01T11:06:31.353Z</time></trkpt><trkpt lat="44.819555" lon="7.6613467"><ele>239.0</ele><time>2026-05-01T11:06:32.353Z</time></trkpt><trkpt lat="44.8193867" lon="7.6613333"><ele>239.0</ele><time>2026-05-01T11:06:33.354Z</time></trkpt><trkpt lat="44.819215" lon="7.6613283"><ele>239.0</ele><time>2026-05-01T11:06:34.351Z</time></trkpt><trkpt lat="44.81903" lon="7.661335"><ele>239.33333333333334</ele><time>2026-05-01T11:06:35.352Z</time></trkpt><trkpt lat="44.818835" lon="7.6613483"><ele>239.66666666666669</ele><time>2026-05-01T11:06:36.351Z</time></trkpt><trkpt lat="44.8186267" lon="7.6613683"><ele>240.0</ele><time>2026-05-01T11:06:37.356Z</time></trkpt><trkpt lat="44.8184183" lon="7.6613867"><ele>240.66666666666669</ele><time>2026-05-01T11:06:38.35Z</time></trkpt><trkpt lat="44.81821" lon="7.661405"><ele>241.33333333333334</ele><time>2026-05-01T11:06:39.354Z</time></trkpt><trkpt lat="44.8180067" lon="7.6614167"><ele>242.0</ele><time>2026-05-01T11:06:40.353Z</time></trkpt><trkpt lat="44.8178" lon="7.661435"><ele>241.66666666666669</ele><time>2026-05-01T11:06:41.354Z</time></trkpt><trkpt lat="44.81759" lon="7.6614567"><ele>241.33333333333331</ele><time>2026-05-01T11:06:42.354Z</time></trkpt><trkpt lat="44.81738" lon="7.6614767"><ele>241.0</ele><time>2026-05-01T11:06:43.355Z</time></trkpt><trkpt lat="44.817165" lon="7.6614983"><ele>241.0</ele><time>2026-05-01T11:06:44.356Z</time></trkpt><trkpt lat="44.81695" lon="7.66152"><ele>241.0</ele><time>2026-05-01T11:06:45.357Z</time></trkpt><trkpt lat="44.8167333" lon="7.6615433"><ele>241.0</ele><time>2026-05-01T11:06:46.353Z</time></trkpt><trkpt lat="44.8165133" lon="7.6615633"><ele>241.0</ele><time>2026-05-01T11:06:47.356Z</time></trkpt><trkpt lat="44.8162917" lon="7.661585"><ele>241.0</ele><time>2026-05-01T11:06:48.355Z</time></trkpt><trkpt lat="44.8160717" lon="7.6616017"><ele>241.0</ele><time>2026-05-01T11:06:49.353Z</time></trkpt><trkpt lat="44.8158533" lon="7.6616183"><ele>241.33333333333331</ele><time>2026-05-01T11:06:50.352Z</time></trkpt><trkpt lat="44.8156383" lon="7.66163"><ele>241.66666666666669</ele><time>2026-05-01T11:06:51.352Z</time></trkpt><trkpt lat="44.8154267" lon="7.6616433"><ele>242.0</ele><time>2026-05-01T11:06:52.352Z</time></trkpt><trkpt lat="44.8152233" lon="7.66166"><ele>242.0</ele><time>2026-05-01T11:06:53.353Z</time></trkpt><trkpt lat="44.81503" lon="7.661675"><ele>242.0</ele><time>2026-05-01T11:06:54.35Z</time></trkpt><trkpt lat="44.8148367" lon="7.6616933"><ele>242.0</ele><time>2026-05-01T11:06:55.354Z</time></trkpt><trkpt lat="44.81464" lon="7.661715"><ele>242.0</ele><time>2026-05-01T11:06:56.351Z</time></trkpt><trkpt lat="44.8144467" lon="7.6617367"><ele>242.0</ele><time>2026-05-01T11:06:57.35Z</time></trkpt><trkpt lat="44.8142567" lon="7.6617533"><ele>242.0</ele><time>2026-05-01T11:06:58.354Z</time></trkpt><trkpt lat="44.8140667" lon="7.6617733"><ele>242.0</ele><time>2026-05-01T11:06:59.355Z</time></trkpt><trkpt lat="44.8138767" lon="7.66179"><ele>242.0</ele><time>2026-05-01T11:07:00.351Z</time></trkpt><trkpt lat="44.8136867" lon="7.6618083"><ele>242.0</ele><time>2026-05-01T11:07:01.351Z</time></trkpt><trkpt lat="44.8134967" lon="7.6618283"><ele>242.66666666666669</ele><time>2026-05-01T11:07:02.355Z</time></trkpt><trkpt lat="44.8133067" lon="7.661855"><ele>243.33333333333331</ele><time>2026-05-01T11:07:03.354Z</time></trkpt><trkpt lat="44.813115" lon="7.661885"><ele>244.0</ele><time>2026-05-01T11:07:04.351Z</time></trkpt><trkpt lat="44.8129183" lon="7.6619083"><ele>244.0</ele><time>2026-05-01T11:07:05.351Z</time></trkpt><trkpt lat="44.8127183" lon="7.6619233"><ele>244.0</ele><time>2026-05-01T11:07:06.353Z</time></trkpt><trkpt lat="44.8125167" lon="7.6619317"><ele>244.0</ele><time>2026-05-01T11:07:07.356Z</time></trkpt><trkpt lat="44.8123133" lon="7.6619417"><ele>243.66666666666666</ele><time>2026-05-01T11:07:08.352Z</time></trkpt><trkpt lat="44.8121017" lon="7.6619583"><ele>243.33333333333331</ele><time>2026-05-01T11:07:09.356Z</time></trkpt><trkpt lat="44.8118917" lon="7.6619767"><ele>243.0</ele><time>2026-05-01T11:07:10.353Z</time></trkpt><trkpt lat="44.81168" lon="7.6619967"><ele>243.0</ele><time>2026-05-01T11:07:11.358Z</time></trkpt><trkpt lat="44.8114683" lon="7.662015"><ele>243.0</ele><time>2026-05-01T11:07:12.356Z</time></trkpt><trkpt lat="44.8112533" lon="7.6620333"><ele>243.0</ele><time>2026-05-01T11:07:13.354Z</time></trkpt><trkpt lat="44.8110383" lon="7.6620517"><ele>243.0</ele><time>2026-05-01T11:07:14.355Z</time></trkpt><trkpt lat="44.810825" lon="7.6620667"><ele>243.0</ele><time>2026-05-01T11:07:15.351Z</time></trkpt><trkpt lat="44.8106117" lon="7.662085"><ele>243.0</ele><time>2026-05-01T11:07:16.353Z</time></trkpt><trkpt lat="44.8103967" lon="7.6621033"><ele>243.0</ele><time>2026-05-01T11:07:17.354Z</time></trkpt><trkpt lat="44.8101783" lon="7.66212"><ele>243.0</ele><time>2026-05-01T11:07:18.353Z</time></trkpt><trkpt lat="44.8099467" lon="7.6621367"><ele>243.5</ele><time>2026-05-01T11:07:19.352Z</time></trkpt><trkpt lat="44.8097117" lon="7.662155"><ele>244.0</ele><time>2026-05-01T11:07:20.354Z</time></trkpt><trkpt lat="44.8094767" lon="7.6621733"><ele>244.0</ele><time>2026-05-01T11:07:21.355Z</time></trkpt><trkpt lat="44.80925" lon="7.6621867"><ele>244.0</ele><time>2026-05-01T11:07:22.349Z</time></trkpt><trkpt lat="44.80904" lon="7.6621983"><ele>244.0</ele><time>2026-05-01T11:07:23.352Z</time></trkpt><trkpt lat="44.8088483" lon="7.6622167"><ele>244.0</ele><time>2026-05-01T11:07:24.356Z</time></trkpt><trkpt lat="44.808675" lon="7.6622367"><ele>244.0</ele><time>2026-05-01T11:07:25.357Z</time></trkpt><trkpt lat="44.8085217" lon="7.66225"><ele>244.0</ele><time>2026-05-01T11:07:26.351Z</time></trkpt><trkpt lat="44.80837" lon="7.66227"><ele>244.33333333333331</ele><time>2026-05-01T11:07:27.355Z</time></trkpt><trkpt lat="44.8082117" lon="7.66229"><ele>244.66666666666669</ele><time>2026-05-01T11:07:28.355Z</time></trkpt><trkpt lat="44.8080417" lon="7.6623083"><ele>245.0</ele><time>2026-05-01T11:07:29.354Z</time></trkpt><trkpt lat="44.8078567" lon="7.6623267"><ele>244.33333333333334</ele><time>2026-05-01T11:07:30.354Z</time></trkpt><trkpt lat="44.8076583" lon="7.662345"><ele>243.66666666666669</ele><time>2026-05-01T11:07:31.354Z</time></trkpt><trkpt lat="44.8074417" lon="7.662365"><ele>243.0</ele><time>2026-05-01T11:07:32.354Z</time></trkpt><trkpt lat="44.80722" lon="7.662385"><ele>243.0</ele><time>2026-05-01T11:07:33.351Z</time></trkpt><trkpt lat="44.8070117" lon="7.662405"><ele>243.0</ele><time>2026-05-01T11:07:34.354Z</time></trkpt><trkpt lat="44.8068217" lon="7.6624217"><ele>243.0</ele><time>2026-05-01T11:07:35.353Z</time></trkpt><trkpt lat="44.8066417" lon="7.6624417"><ele>243.33333333333331</ele><time>2026-05-01T11:07:36.349Z</time></trkpt><trkpt lat="44.8064583" lon="7.6624667"><ele>243.66666666666666</ele><time>2026-05-01T11:07:37.353Z</time></trkpt><trkpt lat="44.806265" lon="7.6624917"><ele>244.0</ele><time>2026-05-01T11:07:38.353Z</time></trkpt><trkpt lat="44.8060633" lon="7.6625117"><ele>244.66666666666666</ele><time>2026-05-01T11:07:39.355Z</time></trkpt><trkpt lat="44.805855" lon="7.6625317"><ele>245.33333333333331</ele><time>2026-05-01T11:07:40.352Z</time></trkpt><trkpt lat="44.8056383" lon="7.6625467"><ele>246.0</ele><time>2026-05-01T11:07:41.35Z</time></trkpt><trkpt lat="44.8054167" lon="7.662565"><ele>246.0</ele><time>2026-05-01T11:07:42.351Z</time></trkpt><trkpt lat="44.805195" lon="7.662585"><ele>246.0</ele><time>2026-05-01T11:07:43.35Z</time></trkpt><trkpt lat="44.804985" lon="7.6626033"><ele>246.0</ele><time>2026-05-01T11:07:44.353Z</time></trkpt><trkpt lat="44.8047833" lon="7.6626217"><ele>245.66666666666669</ele><time>2026-05-01T11:07:45.355Z</time></trkpt><trkpt lat="44.8045933" lon="7.66264"><ele>245.33333333333334</ele><time>2026-05-01T11:07:46.35Z</time></trkpt><trkpt lat="44.8044167" lon="7.6626567"><ele>245.0</ele><time>2026-05-01T11:07:47.354Z</time></trkpt><trkpt lat="44.8042517" lon="7.662675"><ele>245.0</ele><time>2026-05-01T11:07:48.351Z</time></trkpt><trkpt lat="44.8041017" lon="7.6626867"><ele>245.0</ele><time>2026-05-01T11:07:49.351Z</time></trkpt><trkpt lat="44.80396" lon="7.662695"><ele>245.0</ele><time>2026-05-01T11:07:50.358Z</time></trkpt><trkpt lat="44.803825" lon="7.6627083"><ele>245.0</ele><time>2026-05-01T11:07:51.354Z</time></trkpt><trkpt lat="44.8036967" lon="7.6627233"><ele>245.0</ele><time>2026-05-01T11:07:52.353Z</time></trkpt><trkpt lat="44.8035683" lon="7.6627567"><ele>245.0</ele><time>2026-05-01T11:07:53.351Z</time></trkpt><trkpt lat="44.8034467" lon="7.6628117"><ele>245.0</ele><time>2026-05-01T11:07:54.349Z</time></trkpt><trkpt lat="44.8033317" lon="7.6628933"><ele>245.0</ele><time>2026-05-01T11:07:55.355Z</time></trkpt><trkpt lat="44.8032183" lon="7.663005"><ele>244.33333333333334</ele><time>2026-05-01T11:07:56.352Z</time></trkpt><trkpt lat="44.8031" lon="7.6631367"><ele>243.66666666666669</ele><time>2026-05-01T11:07:57.355Z</time></trkpt><trkpt lat="44.8029767" lon="7.6632917"><ele>243.0</ele><time>2026-05-01T11:07:58.351Z</time></trkpt><trkpt lat="44.8028433" lon="7.663465"><ele>243.0</ele><time>2026-05-01T11:07:59.352Z</time></trkpt><trkpt lat="44.8027067" lon="7.6636367"><ele>243.0</ele><time>2026-05-01T11:08:00.352Z</time></trkpt><trkpt lat="44.8025717" lon="7.663805"><ele>243.0</ele><time>2026-05-01T11:08:01.349Z</time></trkpt><trkpt lat="44.80243" lon="7.66398"><ele>243.66666666666669</ele><time>2026-05-01T11:08:02.351Z</time></trkpt><trkpt lat="44.8022817" lon="7.6641617"><ele>244.33333333333334</ele><time>2026-05-01T11:08:03.351Z</time></trkpt><trkpt lat="44.8021317" lon="7.6643483"><ele>245.0</ele><time>2026-05-01T11:08:04.35Z</time></trkpt><trkpt lat="44.8019833" lon="7.6645333"><ele>245.0</ele><time>2026-05-01T11:08:05.349Z</time></trkpt><trkpt lat="44.8018367" lon="7.6647183"><ele>245.0</ele><time>2026-05-01T11:08:06.353Z</time></trkpt><trkpt lat="44.8016833" lon="7.6649017"><ele>245.0</ele><time>2026-05-01T11:08:07.352Z</time></trkpt><trkpt lat="44.80153" lon="7.6650833"><ele>245.0</ele><time>2026-05-01T11:08:08.352Z</time></trkpt><trkpt lat="44.80139" lon="7.6652567"><ele>245.0</ele><time>2026-05-01T11:08:09.356Z</time></trkpt><trkpt lat="44.8012567" lon="7.6654217"><ele>245.0</ele><time>2026-05-01T11:08:10.35Z</time></trkpt><trkpt lat="44.80113" lon="7.665575"><ele>245.33333333333334</ele><time>2026-05-01T11:08:11.352Z</time></trkpt><trkpt lat="44.8010067" lon="7.665725"><ele>245.66666666666669</ele><time>2026-05-01T11:08:12.355Z</time></trkpt><trkpt lat="44.8008867" lon="7.6658717"><ele>246.0</ele><time>2026-05-01T11:08:13.353Z</time></trkpt><trkpt lat="44.8007767" lon="7.666005"><ele>245.75</ele><time>2026-05-01T11:08:14.351Z</time></trkpt><trkpt lat="44.8006733" lon="7.666125"><ele>245.5</ele><time>2026-05-01T11:08:15.354Z</time></trkpt><trkpt lat="44.8005733" lon="7.66623"><ele>245.25</ele><time>2026-05-01T11:08:16.353Z</time></trkpt><trkpt lat="44.8004767" lon="7.6663083"><ele>245.0</ele><time>2026-05-01T11:08:17.353Z</time></trkpt><trkpt lat="44.80036" lon="7.6663683"><ele>245.0</ele><time>2026-05-01T11:08:18.355Z</time></trkpt><trkpt lat="44.8002317" lon="7.666405"><ele>245.0</ele><time>2026-05-01T11:08:19.35Z</time></trkpt><trkpt lat="44.8000883" lon="7.666445"><ele>245.0</ele><time>2026-05-01T11:08:20.352Z</time></trkpt><trkpt lat="44.7999317" lon="7.6664767"><ele>245.0</ele><time>2026-05-01T11:08:21.353Z</time></trkpt><trkpt lat="44.7997633" lon="7.6665117"><ele>245.33333333333334</ele><time>2026-05-01T11:08:22.355Z</time></trkpt><trkpt lat="44.799585" lon="7.666555"><ele>245.66666666666669</ele><time>2026-05-01T11:08:23.351Z</time></trkpt><trkpt lat="44.7993983" lon="7.6665983"><ele>246.0</ele><time>2026-05-01T11:08:24.351Z</time></trkpt><trkpt lat="44.7992067" lon="7.666635"><ele>246.33333333333331</ele><time>2026-05-01T11:08:25.352Z</time></trkpt><trkpt lat="44.7990183" lon="7.66667"><ele>246.66666666666666</ele><time>2026-05-01T11:08:26.351Z</time></trkpt><trkpt lat="44.79883" lon="7.6667017"><ele>247.0</ele><time>2026-05-01T11:08:27.354Z</time></trkpt><trkpt lat="44.79864" lon="7.6667333"><ele>246.66666666666666</ele><time>2026-05-01T11:08:28.352Z</time></trkpt><trkpt lat="44.7984483" lon="7.666775"><ele>246.33333333333331</ele><time>2026-05-01T11:08:29.352Z</time></trkpt><trkpt lat="44.7982533" lon="7.6668067"><ele>246.0</ele><time>2026-05-01T11:08:30.354Z</time></trkpt><trkpt lat="44.798055" lon="7.6668433"><ele>246.0</ele><time>2026-05-01T11:08:31.355Z</time></trkpt><trkpt lat="44.7978517" lon="7.6668833"><ele>246.0</ele><time>2026-05-01T11:08:32.351Z</time></trkpt><trkpt lat="44.7976533" lon="7.6669183"><ele>246.0</ele><time>2026-05-01T11:08:33.358Z</time></trkpt><trkpt lat="44.7974583" lon="7.6669533"><ele>246.33333333333331</ele><time>2026-05-01T11:08:34.354Z</time></trkpt><trkpt lat="44.7972683" lon="7.6669767"><ele>246.66666666666666</ele><time>2026-05-01T11:08:35.35Z</time></trkpt><trkpt lat="44.7970783" lon="7.667"><ele>247.0</ele><time>2026-05-01T11:08:36.353Z</time></trkpt><trkpt lat="44.7968867" lon="7.6670133"><ele>247.33333333333331</ele><time>2026-05-01T11:08:37.352Z</time></trkpt><trkpt lat="44.7966917" lon="7.6670217"><ele>247.66666666666669</ele><time>2026-05-01T11:08:38.351Z</time></trkpt><trkpt lat="44.796495" lon="7.66703"><ele>248.0</ele><time>2026-05-01T11:08:39.355Z</time></trkpt><trkpt lat="44.7962967" lon="7.6670367"><ele>248.0</ele><time>2026-05-01T11:08:40.353Z</time></trkpt><trkpt lat="44.7961" lon="7.6670433"><ele>248.0</ele><time>2026-05-01T11:08:41.353Z</time></trkpt><trkpt lat="44.7959033" lon="7.6670533"><ele>248.0</ele><time>2026-05-01T11:08:42.354Z</time></trkpt><trkpt lat="44.7957117" lon="7.6670633"><ele>248.33333333333334</ele><time>2026-05-01T11:08:43.353Z</time></trkpt><trkpt lat="44.7955233" lon="7.6670683"><ele>248.66666666666669</ele><time>2026-05-01T11:08:44.35Z</time></trkpt><trkpt lat="44.795345" lon="7.6670767"><ele>249.0</ele><time>2026-05-01T11:08:45.358Z</time></trkpt><trkpt lat="44.7951767" lon="7.667085"><ele>249.66666666666669</ele><time>2026-05-01T11:08:46.355Z</time></trkpt><trkpt lat="44.79502" lon="7.6671"><ele>250.33333333333334</ele><time>2026-05-01T11:08:47.353Z</time></trkpt><trkpt lat="44.7948667" lon="7.667125"><ele>251.0</ele><time>2026-05-01T11:08:48.348Z</time></trkpt><trkpt lat="44.7947117" lon="7.667155"><ele>251.0</ele><time>2026-05-01T11:08:49.352Z</time></trkpt><trkpt lat="44.7945517" lon="7.6671983"><ele>251.0</ele><time>2026-05-01T11:08:50.35Z</time></trkpt><trkpt lat="44.7943917" lon="7.6672533"><ele>251.0</ele><time>2026-05-01T11:08:51.349Z</time></trkpt><trkpt lat="44.7942267" lon="7.6673167"><ele>250.66666666666669</ele><time>2026-05-01T11:08:52.353Z</time></trkpt><trkpt lat="44.7940633" lon="7.6673817"><ele>250.33333333333331</ele><time>2026-05-01T11:08:53.351Z</time></trkpt><trkpt lat="44.7938917" lon="7.66745"><ele>250.0</ele><time>2026-05-01T11:08:54.352Z</time></trkpt><trkpt lat="44.7937167" lon="7.6675133"><ele>250.0</ele><time>2026-05-01T11:08:55.352Z</time></trkpt><trkpt lat="44.7935467" lon="7.6675717"><ele>250.0</ele><time>2026-05-01T11:08:56.352Z</time></trkpt><trkpt lat="44.7933783" lon="7.667635"><ele>250.0</ele><time>2026-05-01T11:08:57.355Z</time></trkpt><trkpt lat="44.7932167" lon="7.6676983"><ele>249.66666666666666</ele><time>2026-05-01T11:08:58.35Z</time></trkpt><trkpt lat="44.793055" lon="7.6677683"><ele>249.33333333333331</ele><time>2026-05-01T11:08:59.354Z</time></trkpt><trkpt lat="44.7928917" lon="7.6678467"><ele>249.0</ele><time>2026-05-01T11:09:00.352Z</time></trkpt><trkpt lat="44.7927217" lon="7.6679333"><ele>249.0</ele><time>2026-05-01T11:09:01.35Z</time></trkpt><trkpt lat="44.79255" lon="7.6680367"><ele>249.0</ele><time>2026-05-01T11:09:02.352Z</time></trkpt><trkpt lat="44.792375" lon="7.668145"><ele>249.0</ele><time>2026-05-01T11:09:03.354Z</time></trkpt><trkpt lat="44.7921983" lon="7.6682533"><ele>249.0</ele><time>2026-05-01T11:09:04.354Z</time></trkpt><trkpt lat="44.7920183" lon="7.6683617"><ele>249.0</ele><time>2026-05-01T11:09:05.358Z</time></trkpt><trkpt lat="44.7918317" lon="7.66847"><ele>249.0</ele><time>2026-05-01T11:09:06.352Z</time></trkpt><trkpt lat="44.7916483" lon="7.6685833"><ele>249.0</ele><time>2026-05-01T11:09:07.353Z</time></trkpt><trkpt lat="44.7914633" lon="7.6686967"><ele>249.0</ele><time>2026-05-01T11:09:08.353Z</time></trkpt><trkpt lat="44.791285" lon="7.6688117"><ele>249.0</ele><time>2026-05-01T11:09:09.355Z</time></trkpt><trkpt lat="44.7911" lon="7.6689233"><ele>248.66666666666669</ele><time>2026-05-01T11:09:10.353Z</time></trkpt><trkpt lat="44.7909167" lon="7.6690383"><ele>248.33333333333334</ele><time>2026-05-01T11:09:11.355Z</time></trkpt><trkpt lat="44.7907367" lon="7.6691483"><ele>248.0</ele><time>2026-05-01T11:09:12.353Z</time></trkpt><trkpt lat="44.7905667" lon="7.669255"><ele>248.0</ele><time>2026-05-01T11:09:13.35Z</time></trkpt><trkpt lat="44.7904017" lon="7.66936"><ele>248.0</ele><time>2026-05-01T11:09:14.352Z</time></trkpt><trkpt lat="44.79024" lon="7.669465"><ele>248.0</ele><time>2026-05-01T11:09:15.355Z</time></trkpt><trkpt lat="44.7900767" lon="7.6695733"><ele>248.33333333333334</ele><time>2026-05-01T11:09:16.357Z</time></trkpt><trkpt lat="44.78991" lon="7.6696767"><ele>248.66666666666669</ele><time>2026-05-01T11:09:17.35Z</time></trkpt><trkpt lat="44.78974" lon="7.6697833"><ele>249.0</ele><time>2026-05-01T11:09:18.351Z</time></trkpt><trkpt lat="44.7895683" lon="7.6698933"><ele>249.0</ele><time>2026-05-01T11:09:19.353Z</time></trkpt><trkpt lat="44.7893967" lon="7.67"><ele>249.0</ele><time>2026-05-01T11:09:20.352Z</time></trkpt><trkpt lat="44.7892233" lon="7.67011"><ele>249.0</ele><time>2026-05-01T11:09:21.351Z</time></trkpt><trkpt lat="44.7890533" lon="7.6702133"><ele>249.0</ele><time>2026-05-01T11:09:22.351Z</time></trkpt><trkpt lat="44.7888867" lon="7.670315"><ele>249.0</ele><time>2026-05-01T11:09:23.35Z</time></trkpt><trkpt lat="44.78873" lon="7.6704083"><ele>249.0</ele><time>2026-05-01T11:09:24.352Z</time></trkpt><trkpt lat="44.7885767" lon="7.6705017"><ele>249.5</ele><time>2026-05-01T11:09:25.354Z</time></trkpt><trkpt lat="44.7884283" lon="7.67059"><ele>250.0</ele><time>2026-05-01T11:09:26.349Z</time></trkpt><trkpt lat="44.7882883" lon="7.67067"><ele>250.5</ele><time>2026-05-01T11:09:27.354Z</time></trkpt><trkpt lat="44.788165" lon="7.6707417"><ele>251.0</ele><time>2026-05-01T11:09:28.353Z</time></trkpt><trkpt lat="44.7880533" lon="7.670805"><ele>251.00000000000003</ele><time>2026-05-01T11:09:29.351Z</time></trkpt><trkpt lat="44.787955" lon="7.6708617"><ele>251.0</ele><time>2026-05-01T11:09:30.351Z</time></trkpt><trkpt lat="44.787875" lon="7.6709083"><ele>251.0</ele><time>2026-05-01T11:09:31.349Z</time></trkpt><trkpt lat="44.7878067" lon="7.670945"><ele>251.0</ele><time>2026-05-01T11:09:32.35Z</time></trkpt><trkpt lat="44.7877283" lon="7.670985"><ele>251.00000000000003</ele><time>2026-05-01T11:09:34.351Z</time></trkpt><trkpt lat="44.7876683" lon="7.6710233"><ele>251.0</ele><time>2026-05-01T11:09:36.353Z</time></trkpt><trkpt lat="44.7876167" lon="7.67108"><ele>251.66666666666669</ele><time>2026-05-01T11:09:39.352Z</time></trkpt><trkpt lat="44.7875733" lon="7.6711483"><ele>252.33333333333334</ele><time>2026-05-01T11:09:44.35Z</time></trkpt><trkpt lat="44.787515" lon="7.6712733"><ele>253.0</ele><time>2026-05-01T11:10:14.355Z</time></trkpt><trkpt lat="44.78749" lon="7.6713867"><ele>253.66666666666669</ele><time>2026-05-01T11:10:16.349Z</time></trkpt><trkpt lat="44.78747" lon="7.6715417"><ele>254.33333333333334</ele><time>2026-05-01T11:10:18.351Z</time></trkpt><trkpt lat="44.7874633" lon="7.67163"><ele>255.0</ele><time>2026-05-01T11:10:19.356Z</time></trkpt><trkpt lat="44.787455" lon="7.67173"><ele>255.0</ele><time>2026-05-01T11:10:20.35Z</time></trkpt><trkpt lat="44.7874483" lon="7.67184"><ele>255.0</ele><time>2026-05-01T11:10:21.351Z</time></trkpt><trkpt lat="44.787435" lon="7.6719567"><ele>255.0</ele><time>2026-05-01T11:10:22.355Z</time></trkpt><trkpt lat="44.7874283" lon="7.6720783"><ele>255.0</ele><time>2026-05-01T11:10:23.352Z</time></trkpt><trkpt lat="44.78742" lon="7.6722083"><ele>255.0</ele><time>2026-05-01T11:10:24.352Z</time></trkpt><trkpt lat="44.78741" lon="7.6723533"><ele>255.0</ele><time>2026-05-01T11:10:25.355Z</time></trkpt><trkpt lat="44.7873967" lon="7.672525"><ele>255.0</ele><time>2026-05-01T11:10:26.353Z</time></trkpt><trkpt lat="44.78738" lon="7.6727167"><ele>255.0</ele><time>2026-05-01T11:10:27.354Z</time></trkpt><trkpt lat="44.787365" lon="7.6729283"><ele>255.0</ele><time>2026-05-01T11:10:28.353Z</time></trkpt><trkpt lat="44.7873533" lon="7.6731633"><ele>255.0</ele><time>2026-05-01T11:10:29.355Z</time></trkpt><trkpt lat="44.7873383" lon="7.6734383"><ele>255.0</ele><time>2026-05-01T11:10:30.356Z</time></trkpt><trkpt lat="44.7873233" lon="7.6737467"><ele>255.0</ele><time>2026-05-01T11:10:31.356Z</time></trkpt><trkpt lat="44.787305" lon="7.6740717"><ele>255.0</ele><time>2026-05-01T11:10:32.351Z</time></trkpt><trkpt lat="44.7872883" lon="7.6744083"><ele>255.0</ele><time>2026-05-01T11:10:33.353Z</time></trkpt><trkpt lat="44.7872683" lon="7.6747717"><ele>255.0</ele><time>2026-05-01T11:10:34.351Z</time></trkpt><trkpt lat="44.7872467" lon="7.67514"><ele>255.0</ele><time>2026-05-01T11:10:35.354Z</time></trkpt><trkpt lat="44.7872283" lon="7.6754917"><ele>253.5</ele><time>2026-05-01T11:10:36.356Z</time></trkpt><trkpt lat="44.7872133" lon="7.67582"><ele>252.0</ele><time>2026-05-01T11:10:37.349Z</time></trkpt><trkpt lat="44.7872" lon="7.6761317"><ele>251.66666666666669</ele><time>2026-05-01T11:10:38.353Z</time></trkpt><trkpt lat="44.787185" lon="7.6764217"><ele>251.33333333333334</ele><time>2026-05-01T11:10:39.353Z</time></trkpt><trkpt lat="44.7871667" lon="7.6767"><ele>251.0</ele><time>2026-05-01T11:10:40.354Z</time></trkpt><trkpt lat="44.7871483" lon="7.67697"><ele>251.0</ele><time>2026-05-01T11:10:41.355Z</time></trkpt><trkpt lat="44.787135" lon="7.67723"><ele>251.0</ele><time>2026-05-01T11:10:42.354Z</time></trkpt><trkpt lat="44.78712" lon="7.6774833"><ele>251.0</ele><time>2026-05-01T11:10:43.353Z</time></trkpt><trkpt lat="44.787105" lon="7.677725"><ele>251.0</ele><time>2026-05-01T11:10:44.353Z</time></trkpt><trkpt lat="44.787085" lon="7.6779533"><ele>251.0</ele><time>2026-05-01T11:10:45.351Z</time></trkpt><trkpt lat="44.787065" lon="7.6781667"><ele>251.0</ele><time>2026-05-01T11:10:46.35Z</time></trkpt><trkpt lat="44.7870533" lon="7.6783667"><ele>251.0</ele><time>2026-05-01T11:10:47.349Z</time></trkpt><trkpt lat="44.787035" lon="7.678555"><ele>251.0</ele><time>2026-05-01T11:10:48.349Z</time></trkpt><trkpt lat="44.78702" lon="7.6787317"><ele>251.0</ele><time>2026-05-01T11:10:49.367Z</time></trkpt><trkpt lat="44.7870067" lon="7.67889"><ele>251.0</ele><time>2026-05-01T11:10:50.353Z</time></trkpt><trkpt lat="44.786995" lon="7.6790317"><ele>251.00000000000003</ele><time>2026-05-01T11:10:51.351Z</time></trkpt><trkpt lat="44.7869817" lon="7.679145"><ele>251.0</ele><time>2026-05-01T11:10:52.354Z</time></trkpt><trkpt lat="44.7869783" lon="7.679245"><ele>251.0</ele><time>2026-05-01T11:10:53.353Z</time></trkpt><trkpt lat="44.7869683" lon="7.679335"><ele>251.0</ele><time>2026-05-01T11:10:54.354Z</time></trkpt><trkpt lat="44.7869233" lon="7.6794917"><ele>251.00000000000003</ele><time>2026-05-01T11:10:56.354Z</time></trkpt><trkpt lat="44.7868933" lon="7.6795717"><ele>251.0</ele><time>2026-05-01T11:10:57.353Z</time></trkpt><trkpt lat="44.78686" lon="7.67966"><ele>252.66666666666669</ele><time>2026-05-01T11:10:58.353Z</time></trkpt><trkpt lat="44.786815" lon="7.6797533"><ele>254.33333333333334</ele><time>2026-05-01T11:10:59.352Z</time></trkpt><trkpt lat="44.7867733" lon="7.6798583"><ele>256.0</ele><time>2026-05-01T11:11:00.353Z</time></trkpt><trkpt lat="44.786735" lon="7.6799617"><ele>257.6666666666667</ele><time>2026-05-01T11:11:01.353Z</time></trkpt><trkpt lat="44.7866967" lon="7.6800633"><ele>259.3333333333333</ele><time>2026-05-01T11:11:02.356Z</time></trkpt><trkpt lat="44.7866633" lon="7.6801633"><ele>261.0</ele><time>2026-05-01T11:11:03.352Z</time></trkpt><trkpt lat="44.7866283" lon="7.6802567"><ele>259.6666666666667</ele><time>2026-05-01T11:11:04.349Z</time></trkpt><trkpt lat="44.7865933" lon="7.6803483"><ele>258.3333333333333</ele><time>2026-05-01T11:11:05.354Z</time></trkpt><trkpt lat="44.7865617" lon="7.6804383"><ele>257.0</ele><time>2026-05-01T11:11:06.358Z</time></trkpt><trkpt lat="44.786515" lon="7.6805883"><ele>255.66666666666666</ele><time>2026-05-01T11:11:08.35Z</time></trkpt><trkpt lat="44.7864783" lon="7.680695"><ele>254.33333333333331</ele><time>2026-05-01T11:11:10.349Z</time></trkpt><trkpt lat="44.7864233" lon="7.68074"><ele>253.0</ele><time>2026-05-01T11:11:12.351Z</time></trkpt><trkpt lat="44.7863133" lon="7.6807383"><ele>253.0</ele><time>2026-05-01T11:11:14.351Z</time></trkpt><trkpt lat="44.7862317" lon="7.6807283"><ele>253.0</ele><time>2026-05-01T11:11:15.356Z</time></trkpt><trkpt lat="44.78613" lon="7.6807183"><ele>253.0</ele><time>2026-05-01T11:11:16.352Z</time></trkpt><trkpt lat="44.786015" lon="7.6807083"><ele>253.0</ele><time>2026-05-01T11:11:17.351Z</time></trkpt><trkpt lat="44.785895" lon="7.6806967"><ele>253.0</ele><time>2026-05-01T11:11:18.352Z</time></trkpt><trkpt lat="44.7857667" lon="7.6806867"><ele>253.25</ele><time>2026-05-01T11:11:19.355Z</time></trkpt><trkpt lat="44.7856267" lon="7.6806817"><ele>253.5</ele><time>2026-05-01T11:11:20.355Z</time></trkpt><trkpt lat="44.7854767" lon="7.6806683"><ele>253.75</ele><time>2026-05-01T11:11:21.356Z</time></trkpt><trkpt lat="44.7853217" lon="7.6806583"><ele>254.0</ele><time>2026-05-01T11:11:22.355Z</time></trkpt><trkpt lat="44.7851633" lon="7.6806517"><ele>254.0</ele><time>2026-05-01T11:11:23.355Z</time></trkpt><trkpt lat="44.7849967" lon="7.680645"><ele>254.0</ele><time>2026-05-01T11:11:24.354Z</time></trkpt><trkpt lat="44.7848217" lon="7.6806367"><ele>254.0</ele><time>2026-05-01T11:11:25.354Z</time></trkpt><trkpt lat="44.7846417" lon="7.68063"><ele>254.0</ele><time>2026-05-01T11:11:26.355Z</time></trkpt><trkpt lat="44.7844583" lon="7.680615"><ele>254.0</ele><time>2026-05-01T11:11:27.354Z</time></trkpt><trkpt lat="44.7842717" lon="7.680605"><ele>254.0</ele><time>2026-05-01T11:11:28.349Z</time></trkpt><trkpt lat="44.7840883" lon="7.680595"><ele>255.0</ele><time>2026-05-01T11:11:29.354Z</time></trkpt><trkpt lat="44.783905" lon="7.6805883"><ele>256.0</ele><time>2026-05-01T11:11:30.355Z</time></trkpt><trkpt lat="44.7837183" lon="7.6805783"><ele>257.0</ele><time>2026-05-01T11:11:31.354Z</time></trkpt><trkpt lat="44.78353" lon="7.6805683"><ele>257.0</ele><time>2026-05-01T11:11:32.352Z</time></trkpt><trkpt lat="44.7833417" lon="7.6805567"><ele>257.0</ele><time>2026-05-01T11:11:33.357Z</time></trkpt><trkpt lat="44.78315" lon="7.6805467"><ele>257.0</ele><time>2026-05-01T11:11:34.354Z</time></trkpt><trkpt lat="44.782955" lon="7.6805317"><ele>257.0</ele><time>2026-05-01T11:11:35.357Z</time></trkpt><trkpt lat="44.78276" lon="7.6805167"><ele>257.0</ele><time>2026-05-01T11:11:36.357Z</time></trkpt><trkpt lat="44.7825667" lon="7.680505"><ele>257.0</ele><time>2026-05-01T11:11:37.353Z</time></trkpt><trkpt lat="44.7823717" lon="7.680495"><ele>257.0</ele><time>2026-05-01T11:11:38.354Z</time></trkpt><trkpt lat="44.782175" lon="7.6804833"><ele>257.0</ele><time>2026-05-01T11:11:39.358Z</time></trkpt><trkpt lat="44.7819767" lon="7.68047"><ele>257.0</ele><time>2026-05-01T11:11:40.357Z</time></trkpt><trkpt lat="44.7817733" lon="7.6804567"><ele>257.0</ele><time>2026-05-01T11:11:41.354Z</time></trkpt><trkpt lat="44.7815683" lon="7.680445"><ele>257.0</ele><time>2026-05-01T11:11:42.349Z</time></trkpt><trkpt lat="44.781365" lon="7.680435"><ele>257.0</ele><time>2026-05-01T11:11:43.355Z</time></trkpt><trkpt lat="44.7811617" lon="7.680425"><ele>257.6666666666667</ele><time>2026-05-01T11:11:44.355Z</time></trkpt><trkpt lat="44.7809567" lon="7.6804167"><ele>258.3333333333333</ele><time>2026-05-01T11:11:45.353Z</time></trkpt><trkpt lat="44.7807533" lon="7.6804067"><ele>259.0</ele><time>2026-05-01T11:11:46.353Z</time></trkpt><trkpt lat="44.7805467" lon="7.6803933"><ele>259.0</ele><time>2026-05-01T11:11:47.356Z</time></trkpt><trkpt lat="44.7803417" lon="7.6803833"><ele>259.0</ele><time>2026-05-01T11:11:48.355Z</time></trkpt><trkpt lat="44.7801333" lon="7.6803733"><ele>259.0</ele><time>2026-05-01T11:11:49.35Z</time></trkpt><trkpt lat="44.7799233" lon="7.6803617"><ele>257.66666666666663</ele><time>2026-05-01T11:11:50.356Z</time></trkpt><trkpt lat="44.7797133" lon="7.68035"><ele>256.3333333333333</ele><time>2026-05-01T11:11:51.355Z</time></trkpt><trkpt lat="44.7795" lon="7.680335"><ele>255.0</ele><time>2026-05-01T11:11:52.353Z</time></trkpt><trkpt lat="44.77929" lon="7.68032"><ele>255.0</ele><time>2026-05-01T11:11:53.354Z</time></trkpt><trkpt lat="44.7790817" lon="7.6803067"><ele>255.0</ele><time>2026-05-01T11:11:54.356Z</time></trkpt><trkpt lat="44.7788717" lon="7.680295"><ele>255.0</ele><time>2026-05-01T11:11:55.356Z</time></trkpt><trkpt lat="44.778665" lon="7.6802833"><ele>255.33333333333331</ele><time>2026-05-01T11:11:56.354Z</time></trkpt><trkpt lat="44.7784583" lon="7.680275"><ele>255.66666666666666</ele><time>2026-05-01T11:11:57.354Z</time></trkpt><trkpt lat="44.77825" lon="7.6802683"><ele>256.0</ele><time>2026-05-01T11:11:58.349Z</time></trkpt><trkpt lat="44.7780467" lon="7.6802583"><ele>258.66666666666663</ele><time>2026-05-01T11:11:59.352Z</time></trkpt><trkpt lat="44.777845" lon="7.68024"><ele>261.3333333333333</ele><time>2026-05-01T11:12:00.354Z</time></trkpt><trkpt lat="44.7776433" lon="7.680225"><ele>264.0</ele><time>2026-05-01T11:12:01.355Z</time></trkpt><trkpt lat="44.77744" lon="7.6802117"><ele>264.0</ele><time>2026-05-01T11:12:02.36Z</time></trkpt><trkpt lat="44.7772333" lon="7.6802"><ele>264.0</ele><time>2026-05-01T11:12:03.359Z</time></trkpt><trkpt lat="44.7770283" lon="7.680185"><ele>264.0</ele><time>2026-05-01T11:12:04.354Z</time></trkpt><trkpt lat="44.7768267" lon="7.6801683"><ele>264.3333333333333</ele><time>2026-05-01T11:12:05.353Z</time></trkpt><trkpt lat="44.7766233" lon="7.6801567"><ele>264.66666666666663</ele><time>2026-05-01T11:12:06.36Z</time></trkpt><trkpt lat="44.7764183" lon="7.6801417"><ele>265.0</ele><time>2026-05-01T11:12:07.353Z</time></trkpt><trkpt lat="44.7762167" lon="7.680125"><ele>265.0</ele><time>2026-05-01T11:12:08.35Z</time></trkpt><trkpt lat="44.776025" lon="7.68011"><ele>265.0</ele><time>2026-05-01T11:12:09.352Z</time></trkpt><trkpt lat="44.77584" lon="7.6800983"><ele>265.0</ele><time>2026-05-01T11:12:10.354Z</time></trkpt><trkpt lat="44.77566" lon="7.680085"><ele>264.3333333333333</ele><time>2026-05-01T11:12:11.357Z</time></trkpt><trkpt lat="44.7754833" lon="7.6800717"><ele>263.6666666666667</ele><time>2026-05-01T11:12:12.351Z</time></trkpt><trkpt lat="44.775305" lon="7.6800633"><ele>263.0</ele><time>2026-05-01T11:12:13.354Z</time></trkpt><trkpt lat="44.77513" lon="7.6800533"><ele>263.0</ele><time>2026-05-01T11:12:14.354Z</time></trkpt><trkpt lat="44.774955" lon="7.6800467"><ele>263.0</ele><time>2026-05-01T11:12:15.355Z</time></trkpt><trkpt lat="44.7747817" lon="7.68004"><ele>263.0</ele><time>2026-05-01T11:12:16.352Z</time></trkpt><trkpt lat="44.77461" lon="7.6800333"><ele>263.0</ele><time>2026-05-01T11:12:17.353Z</time></trkpt><trkpt lat="44.7744383" lon="7.68003"><ele>263.0</ele><time>2026-05-01T11:12:18.355Z</time></trkpt><trkpt lat="44.77427" lon="7.6800267"><ele>263.0</ele><time>2026-05-01T11:12:19.352Z</time></trkpt><trkpt lat="44.7741017" lon="7.680025"><ele>262.6666666666667</ele><time>2026-05-01T11:12:20.357Z</time></trkpt><trkpt lat="44.7739367" lon="7.6800217"><ele>262.3333333333333</ele><time>2026-05-01T11:12:21.357Z</time></trkpt><trkpt lat="44.77377" lon="7.6800167"><ele>262.0</ele><time>2026-05-01T11:12:22.356Z</time></trkpt><trkpt lat="44.773605" lon="7.68001"><ele>262.0</ele><time>2026-05-01T11:12:23.355Z</time></trkpt><trkpt lat="44.77344" lon="7.6799983"><ele>262.0</ele><time>2026-05-01T11:12:24.354Z</time></trkpt><trkpt lat="44.773275" lon="7.6799867"><ele>262.0</ele><time>2026-05-01T11:12:25.357Z</time></trkpt><trkpt lat="44.7731117" lon="7.6799717"><ele>262.0</ele><time>2026-05-01T11:12:26.353Z</time></trkpt><trkpt lat="44.7729483" lon="7.6799617"><ele>262.0</ele><time>2026-05-01T11:12:27.355Z</time></trkpt><trkpt lat="44.772785" lon="7.6799583"><ele>262.0</ele><time>2026-05-01T11:12:28.355Z</time></trkpt><trkpt lat="44.772625" lon="7.6799517"><ele>262.66666666666663</ele><time>2026-05-01T11:12:29.36Z</time></trkpt><trkpt lat="44.7724633" lon="7.6799367"><ele>263.3333333333333</ele><time>2026-05-01T11:12:30.352Z</time></trkpt><trkpt lat="44.772305" lon="7.679925"><ele>264.0</ele><time>2026-05-01T11:12:31.351Z</time></trkpt><trkpt lat="44.77215" lon="7.6799117"><ele>264.0</ele><time>2026-05-01T11:12:32.35Z</time></trkpt><trkpt lat="44.7719967" lon="7.6798983"><ele>264.0</ele><time>2026-05-01T11:12:33.35Z</time></trkpt><trkpt lat="44.771845" lon="7.6798833"><ele>264.0</ele><time>2026-05-01T11:12:34.351Z</time></trkpt><trkpt lat="44.7716933" lon="7.6798717"><ele>263.75</ele><time>2026-05-01T11:12:35.357Z</time></trkpt><trkpt lat="44.771545" lon="7.67986"><ele>263.5</ele><time>2026-05-01T11:12:36.352Z</time></trkpt><trkpt lat="44.7714067" lon="7.679845"><ele>263.25</ele><time>2026-05-01T11:12:37.352Z</time></trkpt><trkpt lat="44.771285" lon="7.6798317"><ele>263.0</ele><time>2026-05-01T11:12:38.352Z</time></trkpt><trkpt lat="44.7711833" lon="7.6798233"><ele>263.0</ele><time>2026-05-01T11:12:39.352Z</time></trkpt><trkpt lat="44.7710967" lon="7.6798217"><ele>263.0</ele><time>2026-05-01T11:12:40.353Z</time></trkpt><trkpt lat="44.7710267" lon="7.6798283"><ele>263.0</ele><time>2026-05-01T11:12:41.352Z</time></trkpt><trkpt lat="44.7709333" lon="7.6798833"><ele>263.0</ele><time>2026-05-01T11:12:43.351Z</time></trkpt><trkpt lat="44.7709417" lon="7.6799917"><ele>263.0</ele><time>2026-05-01T11:12:45.355Z</time></trkpt><trkpt lat="44.7709733" lon="7.680075"><ele>263.0</ele><time>2026-05-01T11:12:46.352Z</time></trkpt><trkpt lat="44.7710067" lon="7.680175"><ele>262.2</ele><time>2026-05-01T11:12:47.356Z</time></trkpt><trkpt lat="44.77104" lon="7.6803033"><ele>261.4</ele><time>2026-05-01T11:12:48.353Z</time></trkpt><trkpt lat="44.77106" lon="7.68044"><ele>260.59999999999997</ele><time>2026-05-01T11:12:49.351Z</time></trkpt><trkpt lat="44.7710817" lon="7.68059"><ele>259.8</ele><time>2026-05-01T11:12:50.352Z</time></trkpt><trkpt lat="44.7711" lon="7.6807633"><ele>259.0</ele><time>2026-05-01T11:12:51.351Z</time></trkpt><trkpt lat="44.77113" lon="7.6809217"><ele>259.0</ele><time>2026-05-01T11:12:52.352Z</time></trkpt><trkpt lat="44.7711583" lon="7.6810833"><ele>259.0</ele><time>2026-05-01T11:12:53.349Z</time></trkpt><trkpt lat="44.7711883" lon="7.6812417"><ele>259.0</ele><time>2026-05-01T11:12:54.353Z</time></trkpt><trkpt lat="44.77122" lon="7.6814083"><ele>259.0</ele><time>2026-05-01T11:12:55.35Z</time></trkpt><trkpt lat="44.77126" lon="7.681585"><ele>259.25</ele><time>2026-05-01T11:12:56.354Z</time></trkpt><trkpt lat="44.7712983" lon="7.6817617"><ele>259.5</ele><time>2026-05-01T11:12:57.353Z</time></trkpt><trkpt lat="44.7713317" lon="7.68194"><ele>259.75</ele><time>2026-05-01T11:12:58.351Z</time></trkpt><trkpt lat="44.7713683" lon="7.682125"><ele>260.0</ele><time>2026-05-01T11:12:59.354Z</time></trkpt><trkpt lat="44.7714033" lon="7.682315"><ele>260.0</ele><time>2026-05-01T11:13:00.352Z</time></trkpt><trkpt lat="44.7714433" lon="7.6824967"><ele>260.0</ele><time>2026-05-01T11:13:01.353Z</time></trkpt><trkpt lat="44.7714783" lon="7.68267"><ele>260.0</ele><time>2026-05-01T11:13:02.354Z</time></trkpt><trkpt lat="44.7715133" lon="7.6828333"><ele>260.0</ele><time>2026-05-01T11:13:03.358Z</time></trkpt><trkpt lat="44.7715533" lon="7.6829883"><ele>260.0</ele><time>2026-05-01T11:13:04.351Z</time></trkpt><trkpt lat="44.771595" lon="7.6831467"><ele>260.0</ele><time>2026-05-01T11:13:05.354Z</time></trkpt><trkpt lat="44.7716383" lon="7.683315"><ele>260.0</ele><time>2026-05-01T11:13:06.356Z</time></trkpt><trkpt lat="44.7716817" lon="7.68349"><ele>260.0</ele><time>2026-05-01T11:13:07.354Z</time></trkpt><trkpt lat="44.7717283" lon="7.6836767"><ele>260.0</ele><time>2026-05-01T11:13:08.351Z</time></trkpt><trkpt lat="44.7717683" lon="7.6838733"><ele>260.0</ele><time>2026-05-01T11:13:09.353Z</time></trkpt><trkpt lat="44.77181" lon="7.6840767"><ele>260.0</ele><time>2026-05-01T11:13:10.35Z</time></trkpt><trkpt lat="44.77185" lon="7.68428"><ele>260.0</ele><time>2026-05-01T11:13:11.352Z</time></trkpt><trkpt lat="44.7718883" lon="7.6844833"><ele>260.25</ele><time>2026-05-01T11:13:12.356Z</time></trkpt><trkpt lat="44.7719217" lon="7.6846817"><ele>260.5</ele><time>2026-05-01T11:13:13.352Z</time></trkpt><trkpt lat="44.7719583" lon="7.684875"><ele>260.75</ele><time>2026-05-01T11:13:14.354Z</time></trkpt><trkpt lat="44.77199" lon="7.6850533"><ele>261.0</ele><time>2026-05-01T11:13:15.358Z</time></trkpt><trkpt lat="44.7720183" lon="7.6852217"><ele>260.6</ele><time>2026-05-01T11:13:16.352Z</time></trkpt><trkpt lat="44.7720433" lon="7.6853717"><ele>260.20000000000005</ele><time>2026-05-01T11:13:17.354Z</time></trkpt><trkpt lat="44.7720667" lon="7.6855"><ele>259.79999999999995</ele><time>2026-05-01T11:13:18.358Z</time></trkpt><trkpt lat="44.7720917" lon="7.685615"><ele>259.4</ele><time>2026-05-01T11:13:19.355Z</time></trkpt><trkpt lat="44.7721183" lon="7.6857267"><ele>259.0</ele><time>2026-05-01T11:13:20.351Z</time></trkpt><trkpt lat="44.7721483" lon="7.6858417"><ele>259.0</ele><time>2026-05-01T11:13:21.352Z</time></trkpt><trkpt lat="44.7721783" lon="7.6859633"><ele>259.0</ele><time>2026-05-01T11:13:22.352Z</time></trkpt><trkpt lat="44.7722017" lon="7.6860967"><ele>259.0</ele><time>2026-05-01T11:13:23.352Z</time></trkpt><trkpt lat="44.7722217" lon="7.6862383"><ele>259.0</ele><time>2026-05-01T11:13:24.355Z</time></trkpt><trkpt lat="44.772245" lon="7.686385"><ele>259.0</ele><time>2026-05-01T11:13:25.355Z</time></trkpt><trkpt lat="44.7722667" lon="7.6865583"><ele>258.5</ele><time>2026-05-01T11:13:26.354Z</time></trkpt><trkpt lat="44.7722733" lon="7.6867417"><ele>258.0</ele><time>2026-05-01T11:13:27.354Z</time></trkpt><trkpt lat="44.77228" lon="7.6869383"><ele>257.5</ele><time>2026-05-01T11:13:28.353Z</time></trkpt><trkpt lat="44.7722917" lon="7.68715"><ele>257.0</ele><time>2026-05-01T11:13:29.352Z</time></trkpt><trkpt lat="44.7723067" lon="7.6873817"><ele>257.0</ele><time>2026-05-01T11:13:30.354Z</time></trkpt><trkpt lat="44.7723233" lon="7.6876267"><ele>257.0</ele><time>2026-05-01T11:13:31.352Z</time></trkpt><trkpt lat="44.77234" lon="7.687875"><ele>257.0</ele><time>2026-05-01T11:13:32.352Z</time></trkpt><trkpt lat="44.7723583" lon="7.6881267"><ele>257.33333333333337</ele><time>2026-05-01T11:13:33.353Z</time></trkpt><trkpt lat="44.7723833" lon="7.6883817"><ele>257.6666666666667</ele><time>2026-05-01T11:13:34.352Z</time></trkpt><trkpt lat="44.7724133" lon="7.68864"><ele>258.0</ele><time>2026-05-01T11:13:35.359Z</time></trkpt><trkpt lat="44.7724467" lon="7.6889017"><ele>258.3333333333333</ele><time>2026-05-01T11:13:36.362Z</time></trkpt><trkpt lat="44.7724783" lon="7.6891567"><ele>258.66666666666663</ele><time>2026-05-01T11:13:37.351Z</time></trkpt><trkpt lat="44.7725067" lon="7.689405"><ele>259.0</ele><time>2026-05-01T11:13:38.351Z</time></trkpt><trkpt lat="44.772535" lon="7.689645"><ele>259.3333333333333</ele><time>2026-05-01T11:13:39.355Z</time></trkpt><trkpt lat="44.7725617" lon="7.689875"><ele>259.6666666666667</ele><time>2026-05-01T11:13:40.351Z</time></trkpt><trkpt lat="44.7725917" lon="7.6900883"><ele>260.0</ele><time>2026-05-01T11:13:41.352Z</time></trkpt><trkpt lat="44.77263" lon="7.6902917"><ele>260.6666666666667</ele><time>2026-05-01T11:13:42.352Z</time></trkpt><trkpt lat="44.7726767" lon="7.6904883"><ele>261.3333333333333</ele><time>2026-05-01T11:13:43.35Z</time></trkpt><trkpt lat="44.7727383" lon="7.6906817"><ele>262.0</ele><time>2026-05-01T11:13:44.351Z</time></trkpt><trkpt lat="44.7728183" lon="7.6908683"><ele>262.0</ele><time>2026-05-01T11:13:45.353Z</time></trkpt><trkpt lat="44.7729083" lon="7.69106"><ele>262.0</ele><time>2026-05-01T11:13:46.353Z</time></trkpt><trkpt lat="44.773005" lon="7.6912617"><ele>262.0</ele><time>2026-05-01T11:13:47.351Z</time></trkpt><trkpt lat="44.7731" lon="7.6914717"><ele>261.3333333333333</ele><time>2026-05-01T11:13:48.352Z</time></trkpt><trkpt lat="44.7731933" lon="7.6916917"><ele>260.6666666666667</ele><time>2026-05-01T11:13:49.354Z</time></trkpt><trkpt lat="44.7732833" lon="7.6919183"><ele>260.0</ele><time>2026-05-01T11:13:50.355Z</time></trkpt><trkpt lat="44.77336" lon="7.6921517"><ele>259.33333333333337</ele><time>2026-05-01T11:13:51.349Z</time></trkpt><trkpt lat="44.773425" lon="7.6923917"><ele>258.6666666666667</ele><time>2026-05-01T11:13:52.352Z</time></trkpt><trkpt lat="44.7734883" lon="7.69264"><ele>258.0</ele><time>2026-05-01T11:13:53.349Z</time></trkpt><trkpt lat="44.77355" lon="7.6928917"><ele>257.6666666666667</ele><time>2026-05-01T11:13:54.353Z</time></trkpt><trkpt lat="44.77361" lon="7.6931533"><ele>257.33333333333337</ele><time>2026-05-01T11:13:55.352Z</time></trkpt><trkpt lat="44.7736633" lon="7.69342"><ele>257.0</ele><time>2026-05-01T11:13:56.353Z</time></trkpt><trkpt lat="44.7737183" lon="7.69369"><ele>256.6666666666667</ele><time>2026-05-01T11:13:57.356Z</time></trkpt><trkpt lat="44.7737783" lon="7.6939633"><ele>256.3333333333333</ele><time>2026-05-01T11:13:58.351Z</time></trkpt><trkpt lat="44.7738367" lon="7.69424"><ele>256.0</ele><time>2026-05-01T11:13:59.353Z</time></trkpt><trkpt lat="44.7738983" lon="7.6945183"><ele>256.0</ele><time>2026-05-01T11:14:00.352Z</time></trkpt><trkpt lat="44.7739567" lon="7.694805"><ele>256.0</ele><time>2026-05-01T11:14:01.355Z</time></trkpt><trkpt lat="44.7740167" lon="7.695095"><ele>256.0</ele><time>2026-05-01T11:14:02.352Z</time></trkpt><trkpt lat="44.774075" lon="7.6953867"><ele>256.3333333333333</ele><time>2026-05-01T11:14:03.355Z</time></trkpt><trkpt lat="44.774135" lon="7.6956817"><ele>256.6666666666667</ele><time>2026-05-01T11:14:04.354Z</time></trkpt><trkpt lat="44.7741967" lon="7.6959783"><ele>257.0</ele><time>2026-05-01T11:14:05.349Z</time></trkpt><trkpt lat="44.774255" lon="7.696275"><ele>257.0</ele><time>2026-05-01T11:14:06.358Z</time></trkpt><trkpt lat="44.7743167" lon="7.6965683"><ele>257.0</ele><time>2026-05-01T11:14:07.358Z</time></trkpt><trkpt lat="44.7743817" lon="7.6968617"><ele>257.0</ele><time>2026-05-01T11:14:08.355Z</time></trkpt><trkpt lat="44.7744417" lon="7.6971583"><ele>257.0</ele><time>2026-05-01T11:14:09.356Z</time></trkpt><trkpt lat="44.77449" lon="7.6974567"><ele>257.0</ele><time>2026-05-01T11:14:10.352Z</time></trkpt><trkpt lat="44.774525" lon="7.6977567"><ele>257.0</ele><time>2026-05-01T11:14:11.352Z</time></trkpt><trkpt lat="44.7745533" lon="7.69806"><ele>257.0</ele><time>2026-05-01T11:14:12.353Z</time></trkpt><trkpt lat="44.7745817" lon="7.69836"><ele>257.0</ele><time>2026-05-01T11:14:13.357Z</time></trkpt><trkpt lat="44.7746067" lon="7.69866"><ele>257.0</ele><time>2026-05-01T11:14:14.355Z</time></trkpt><trkpt lat="44.7746333" lon="7.698955"><ele>256.6666666666667</ele><time>2026-05-01T11:14:15.356Z</time></trkpt><trkpt lat="44.77466" lon="7.6992417"><ele>256.3333333333333</ele><time>2026-05-01T11:14:16.352Z</time></trkpt><trkpt lat="44.7746817" lon="7.6995217"><ele>256.0</ele><time>2026-05-01T11:14:17.354Z</time></trkpt><trkpt lat="44.7747" lon="7.699785"><ele>255.75</ele><time>2026-05-01T11:14:18.353Z</time></trkpt><trkpt lat="44.7747167" lon="7.7000233"><ele>255.5</ele><time>2026-05-01T11:14:19.352Z</time></trkpt><trkpt lat="44.774725" lon="7.7002267"><ele>255.25</ele><time>2026-05-01T11:14:20.352Z</time></trkpt><trkpt lat="44.7747283" lon="7.7004033"><ele>255.0</ele><time>2026-05-01T11:14:21.355Z</time></trkpt><trkpt lat="44.774715" lon="7.7005617"><ele>254.8</ele><time>2026-05-01T11:14:22.352Z</time></trkpt><trkpt lat="44.7746817" lon="7.7007017"><ele>254.6</ele><time>2026-05-01T11:14:23.352Z</time></trkpt><trkpt lat="44.7746383" lon="7.700825"><ele>254.39999999999998</ele><time>2026-05-01T11:14:24.354Z</time></trkpt><trkpt lat="44.7746033" lon="7.7009583"><ele>254.2</ele><time>2026-05-01T11:14:25.354Z</time></trkpt><trkpt lat="44.7745933" lon="7.7011067"><ele>254.0</ele><time>2026-05-01T11:14:26.356Z</time></trkpt><trkpt lat="44.7746167" lon="7.7012567"><ele>254.0</ele><time>2026-05-01T11:14:27.353Z</time></trkpt><trkpt lat="44.774655" lon="7.7014133"><ele>254.0</ele><time>2026-05-01T11:14:28.354Z</time></trkpt><trkpt lat="44.7746883" lon="7.7015917"><ele>254.0</ele><time>2026-05-01T11:14:29.354Z</time></trkpt><trkpt lat="44.7747017" lon="7.7017933"><ele>254.0</ele><time>2026-05-01T11:14:30.357Z</time></trkpt><trkpt lat="44.7747" lon="7.7020133"><ele>254.0</ele><time>2026-05-01T11:14:31.354Z</time></trkpt><trkpt lat="44.7746883" lon="7.7022433"><ele>254.0</ele><time>2026-05-01T11:14:32.355Z</time></trkpt><trkpt lat="44.7746683" lon="7.7024817"><ele>254.0</ele><time>2026-05-01T11:14:33.356Z</time></trkpt><trkpt lat="44.774635" lon="7.7027183"><ele>253.66666666666669</ele><time>2026-05-01T11:14:34.357Z</time></trkpt><trkpt lat="44.7745817" lon="7.7029567"><ele>253.33333333333331</ele><time>2026-05-01T11:14:35.354Z</time></trkpt><trkpt lat="44.7745133" lon="7.7032017"><ele>253.0</ele><time>2026-05-01T11:14:36.354Z</time></trkpt><trkpt lat="44.7744383" lon="7.703455"><ele>254.0</ele><time>2026-05-01T11:14:37.355Z</time></trkpt><trkpt lat="44.7743633" lon="7.7037083"><ele>255.0</ele><time>2026-05-01T11:14:38.355Z</time></trkpt><trkpt lat="44.77429" lon="7.703965"><ele>256.0</ele><time>2026-05-01T11:14:39.355Z</time></trkpt><trkpt lat="44.7742233" lon="7.7042367"><ele>256.0</ele><time>2026-05-01T11:14:40.357Z</time></trkpt><trkpt lat="44.7741683" lon="7.7045233"><ele>256.0</ele><time>2026-05-01T11:14:41.354Z</time></trkpt><trkpt lat="44.7741233" lon="7.7048233"><ele>256.0</ele><time>2026-05-01T11:14:42.355Z</time></trkpt><trkpt lat="44.7740917" lon="7.7051367"><ele>255.0</ele><time>2026-05-01T11:14:43.352Z</time></trkpt><trkpt lat="44.77407" lon="7.705455"><ele>254.0</ele><time>2026-05-01T11:14:44.356Z</time></trkpt><trkpt lat="44.7740633" lon="7.7057783"><ele>254.5</ele><time>2026-05-01T11:14:45.35Z</time></trkpt><trkpt lat="44.774075" lon="7.706105"><ele>255.0</ele><time>2026-05-01T11:14:46.352Z</time></trkpt><trkpt lat="44.7741067" lon="7.7064367"><ele>255.0</ele><time>2026-05-01T11:14:47.354Z</time></trkpt><trkpt lat="44.77415" lon="7.7067683"><ele>255.0</ele><time>2026-05-01T11:14:48.354Z</time></trkpt><trkpt lat="44.7742033" lon="7.7071"><ele>255.0</ele><time>2026-05-01T11:14:49.355Z</time></trkpt><trkpt lat="44.7742583" lon="7.7074333"><ele>255.0</ele><time>2026-05-01T11:14:50.349Z</time></trkpt><trkpt lat="44.774305" lon="7.70777"><ele>255.0</ele><time>2026-05-01T11:14:51.351Z</time></trkpt><trkpt lat="44.7743583" lon="7.7081067"><ele>255.0</ele><time>2026-05-01T11:14:52.352Z</time></trkpt><trkpt lat="44.774415" lon="7.7084433"><ele>255.0</ele><time>2026-05-01T11:14:53.354Z</time></trkpt><trkpt lat="44.7744733" lon="7.7087817"><ele>255.0</ele><time>2026-05-01T11:14:54.352Z</time></trkpt><trkpt lat="44.7745283" lon="7.7091217"><ele>254.5</ele><time>2026-05-01T11:14:55.353Z</time></trkpt><trkpt lat="44.77457" lon="7.7094617"><ele>254.0</ele><time>2026-05-01T11:14:56.356Z</time></trkpt><trkpt lat="44.77461" lon="7.7098067"><ele>254.0</ele><time>2026-05-01T11:14:57.356Z</time></trkpt><trkpt lat="44.7746467" lon="7.7101567"><ele>254.0</ele><time>2026-05-01T11:14:58.353Z</time></trkpt><trkpt lat="44.77468" lon="7.710505"><ele>254.0</ele><time>2026-05-01T11:14:59.354Z</time></trkpt><trkpt lat="44.7747117" lon="7.7108583"><ele>254.0</ele><time>2026-05-01T11:15:00.353Z</time></trkpt><trkpt lat="44.7747417" lon="7.7112117"><ele>254.0</ele><time>2026-05-01T11:15:01.354Z</time></trkpt><trkpt lat="44.7747717" lon="7.711565"><ele>254.0</ele><time>2026-05-01T11:15:02.351Z</time></trkpt><trkpt lat="44.7748017" lon="7.7119183"><ele>254.0</ele><time>2026-05-01T11:15:03.354Z</time></trkpt><trkpt lat="44.7748333" lon="7.71227"><ele>254.0</ele><time>2026-05-01T11:15:04.35Z</time></trkpt><trkpt lat="44.7748667" lon="7.7126117"><ele>254.5</ele><time>2026-05-01T11:15:05.35Z</time></trkpt><trkpt lat="44.77491" lon="7.71294"><ele>255.0</ele><time>2026-05-01T11:15:06.354Z</time></trkpt><trkpt lat="44.77497" lon="7.7132583"><ele>255.0</ele><time>2026-05-01T11:15:07.357Z</time></trkpt><trkpt lat="44.7750517" lon="7.713565"><ele>255.0</ele><time>2026-05-01T11:15:08.351Z</time></trkpt><trkpt lat="44.7751483" lon="7.713865"><ele>254.5</ele><time>2026-05-01T11:15:09.356Z</time></trkpt><trkpt lat="44.7752617" lon="7.7141567"><ele>254.0</ele><time>2026-05-01T11:15:10.353Z</time></trkpt><trkpt lat="44.77539" lon="7.714445"><ele>254.0</ele><time>2026-05-01T11:15:11.351Z</time></trkpt><trkpt lat="44.7755217" lon="7.7147317"><ele>254.0</ele><time>2026-05-01T11:15:12.353Z</time></trkpt><trkpt lat="44.7756483" lon="7.7150167"><ele>254.5</ele><time>2026-05-01T11:15:13.352Z</time></trkpt><trkpt lat="44.7757633" lon="7.7153017"><ele>255.0</ele><time>2026-05-01T11:15:14.351Z</time></trkpt><trkpt lat="44.7758583" lon="7.7155967"><ele>255.0</ele><time>2026-05-01T11:15:15.353Z</time></trkpt><trkpt lat="44.7759283" lon="7.715905"><ele>255.0</ele><time>2026-05-01T11:15:16.352Z</time></trkpt><trkpt lat="44.77598" lon="7.7162267"><ele>255.0</ele><time>2026-05-01T11:15:17.354Z</time></trkpt><trkpt lat="44.776015" lon="7.7165533"><ele>255.0</ele><time>2026-05-01T11:15:18.356Z</time></trkpt><trkpt lat="44.7760433" lon="7.7168867"><ele>254.5</ele><time>2026-05-01T11:15:19.353Z</time></trkpt><trkpt lat="44.7760683" lon="7.7172283"><ele>254.0</ele><time>2026-05-01T11:15:20.353Z</time></trkpt><trkpt lat="44.7760933" lon="7.7175783"><ele>253.5</ele><time>2026-05-01T11:15:21.352Z</time></trkpt><trkpt lat="44.77612" lon="7.7179317"><ele>253.0</ele><time>2026-05-01T11:15:22.355Z</time></trkpt><trkpt lat="44.7761467" lon="7.71829"><ele>253.0</ele><time>2026-05-01T11:15:23.353Z</time></trkpt><trkpt lat="44.776175" lon="7.718655"><ele>253.0</ele><time>2026-05-01T11:15:24.355Z</time></trkpt><trkpt lat="44.7762033" lon="7.7190233"><ele>253.0</ele><time>2026-05-01T11:15:25.355Z</time></trkpt><trkpt lat="44.7762317" lon="7.719395"><ele>253.0</ele><time>2026-05-01T11:15:26.354Z</time></trkpt><trkpt lat="44.77626" lon="7.7197667"><ele>253.0</ele><time>2026-05-01T11:15:27.355Z</time></trkpt><trkpt lat="44.7762883" lon="7.7201367"><ele>253.0</ele><time>2026-05-01T11:15:28.356Z</time></trkpt><trkpt lat="44.77632" lon="7.720505"><ele>253.0</ele><time>2026-05-01T11:15:29.353Z</time></trkpt><trkpt lat="44.776355" lon="7.7208617"><ele>253.0</ele><time>2026-05-01T11:15:30.353Z</time></trkpt><trkpt lat="44.7763833" lon="7.7212"><ele>253.33333333333331</ele><time>2026-05-01T11:15:31.352Z</time></trkpt><trkpt lat="44.77641" lon="7.72152"><ele>253.66666666666669</ele><time>2026-05-01T11:15:32.35Z</time></trkpt><trkpt lat="44.776435" lon="7.7218283"><ele>254.0</ele><time>2026-05-01T11:15:33.355Z</time></trkpt><trkpt lat="44.77646" lon="7.7221317"><ele>254.0</ele><time>2026-05-01T11:15:34.356Z</time></trkpt><trkpt lat="44.7764833" lon="7.7224317"><ele>254.0</ele><time>2026-05-01T11:15:35.351Z</time></trkpt><trkpt lat="44.776505" lon="7.7227367"><ele>254.0</ele><time>2026-05-01T11:15:36.353Z</time></trkpt><trkpt lat="44.77653" lon="7.72305"><ele>254.0</ele><time>2026-05-01T11:15:37.352Z</time></trkpt><trkpt lat="44.7765567" lon="7.7233667"><ele>254.0</ele><time>2026-05-01T11:15:38.355Z</time></trkpt><trkpt lat="44.7765817" lon="7.72368"><ele>254.0</ele><time>2026-05-01T11:15:39.355Z</time></trkpt><trkpt lat="44.7766167" lon="7.72399"><ele>254.0</ele><time>2026-05-01T11:15:40.352Z</time></trkpt><trkpt lat="44.77666" lon="7.72429"><ele>254.0</ele><time>2026-05-01T11:15:41.354Z</time></trkpt><trkpt lat="44.776715" lon="7.724575"><ele>254.0</ele><time>2026-05-01T11:15:42.354Z</time></trkpt><trkpt lat="44.7767833" lon="7.7248483"><ele>254.0</ele><time>2026-05-01T11:15:43.353Z</time></trkpt><trkpt lat="44.7768633" lon="7.7251183"><ele>254.0</ele><time>2026-05-01T11:15:44.359Z</time></trkpt><trkpt lat="44.776955" lon="7.725385"><ele>253.66666666666669</ele><time>2026-05-01T11:15:45.357Z</time></trkpt><trkpt lat="44.7770567" lon="7.7256533"><ele>253.33333333333331</ele><time>2026-05-01T11:15:46.355Z</time></trkpt><trkpt lat="44.777165" lon="7.725925"><ele>253.0</ele><time>2026-05-01T11:15:47.356Z</time></trkpt><trkpt lat="44.7772783" lon="7.726205"><ele>252.5</ele><time>2026-05-01T11:15:48.352Z</time></trkpt><trkpt lat="44.77739" lon="7.726485"><ele>252.0</ele><time>2026-05-01T11:15:49.354Z</time></trkpt><trkpt lat="44.7775017" lon="7.7267683"><ele>252.5</ele><time>2026-05-01T11:15:50.356Z</time></trkpt><trkpt lat="44.7776133" lon="7.7270483"><ele>253.0</ele><time>2026-05-01T11:15:51.352Z</time></trkpt><trkpt lat="44.7777233" lon="7.7273283"><ele>253.0</ele><time>2026-05-01T11:15:52.353Z</time></trkpt><trkpt lat="44.777835" lon="7.7276033"><ele>253.0</ele><time>2026-05-01T11:15:53.352Z</time></trkpt><trkpt lat="44.77794" lon="7.72787"><ele>253.0</ele><time>2026-05-01T11:15:54.353Z</time></trkpt><trkpt lat="44.7780417" lon="7.72812"><ele>253.0</ele><time>2026-05-01T11:15:55.357Z</time></trkpt><trkpt lat="44.778135" lon="7.72835"><ele>253.0</ele><time>2026-05-01T11:15:56.358Z</time></trkpt><trkpt lat="44.7782167" lon="7.72856"><ele>253.0</ele><time>2026-05-01T11:15:57.357Z</time></trkpt><trkpt lat="44.778285" lon="7.7287483"><ele>253.2</ele><time>2026-05-01T11:15:58.353Z</time></trkpt><trkpt lat="44.7783367" lon="7.7289133"><ele>253.4</ele><time>2026-05-01T11:15:59.353Z</time></trkpt><trkpt lat="44.7783733" lon="7.7290617"><ele>253.59999999999997</ele><time>2026-05-01T11:16:00.348Z</time></trkpt><trkpt lat="44.7783833" lon="7.7292033"><ele>253.79999999999998</ele><time>2026-05-01T11:16:01.351Z</time></trkpt><trkpt lat="44.7783867" lon="7.7293367"><ele>254.0</ele><time>2026-05-01T11:16:02.354Z</time></trkpt><trkpt lat="44.7784017" lon="7.7294583"><ele>254.2</ele><time>2026-05-01T11:16:03.349Z</time></trkpt><trkpt lat="44.7784367" lon="7.7295683"><ele>254.39999999999998</ele><time>2026-05-01T11:16:04.353Z</time></trkpt><trkpt lat="44.7785017" lon="7.729665"><ele>254.6</ele><time>2026-05-01T11:16:05.35Z</time></trkpt><trkpt lat="44.7785917" lon="7.7297717"><ele>254.8</ele><time>2026-05-01T11:16:06.352Z</time></trkpt><trkpt lat="44.77868" lon="7.7299017"><ele>255.0</ele><time>2026-05-01T11:16:07.35Z</time></trkpt><trkpt lat="44.7787517" lon="7.7300667"><ele>255.5</ele><time>2026-05-01T11:16:08.353Z</time></trkpt><trkpt lat="44.7788183" lon="7.7302467"><ele>256.0</ele><time>2026-05-01T11:16:09.355Z</time></trkpt><trkpt lat="44.7788817" lon="7.7304333"><ele>256.5</ele><time>2026-05-01T11:16:10.355Z</time></trkpt><trkpt lat="44.778935" lon="7.73062"><ele>257.0</ele><time>2026-05-01T11:16:11.351Z</time></trkpt><trkpt lat="44.778985" lon="7.7308067"><ele>257.0</ele><time>2026-05-01T11:16:12.353Z</time></trkpt><trkpt lat="44.7790283" lon="7.731"><ele>257.0</ele><time>2026-05-01T11:16:13.353Z</time></trkpt><trkpt lat="44.7790667" lon="7.7311983"><ele>257.0</ele><time>2026-05-01T11:16:14.353Z</time></trkpt><trkpt lat="44.77911" lon="7.7314033"><ele>257.0</ele><time>2026-05-01T11:16:15.355Z</time></trkpt><trkpt lat="44.779155" lon="7.731615"><ele>257.0</ele><time>2026-05-01T11:16:16.353Z</time></trkpt><trkpt lat="44.7792067" lon="7.7318233"><ele>257.0</ele><time>2026-05-01T11:16:17.35Z</time></trkpt><trkpt lat="44.779255" lon="7.7320317"><ele>257.0</ele><time>2026-05-01T11:16:18.351Z</time></trkpt><trkpt lat="44.7793033" lon="7.73224"><ele>256.6666666666667</ele><time>2026-05-01T11:16:19.355Z</time></trkpt><trkpt lat="44.7793483" lon="7.7324483"><ele>256.3333333333333</ele><time>2026-05-01T11:16:20.355Z</time></trkpt><trkpt lat="44.7793933" lon="7.7326517"><ele>256.0</ele><time>2026-05-01T11:16:21.352Z</time></trkpt><trkpt lat="44.7794383" lon="7.7328567"><ele>256.25</ele><time>2026-05-01T11:16:22.357Z</time></trkpt><trkpt lat="44.779485" lon="7.733055"><ele>256.5</ele><time>2026-05-01T11:16:23.355Z</time></trkpt><trkpt lat="44.77953" lon="7.7332483"><ele>256.75</ele><time>2026-05-01T11:16:24.355Z</time></trkpt><trkpt lat="44.779575" lon="7.7334333"><ele>257.0</ele><time>2026-05-01T11:16:25.355Z</time></trkpt><trkpt lat="44.77962" lon="7.7336067"><ele>257.0</ele><time>2026-05-01T11:16:26.355Z</time></trkpt><trkpt lat="44.779665" lon="7.7337683"><ele>257.0</ele><time>2026-05-01T11:16:27.352Z</time></trkpt><trkpt lat="44.77971" lon="7.7339217"><ele>257.0</ele><time>2026-05-01T11:16:28.354Z</time></trkpt><trkpt lat="44.77975" lon="7.7340583"><ele>257.0</ele><time>2026-05-01T11:16:29.353Z</time></trkpt><trkpt lat="44.7797833" lon="7.73417"><ele>257.0</ele><time>2026-05-01T11:16:30.355Z</time></trkpt><trkpt lat="44.7798" lon="7.7342933"><ele>257.0</ele><time>2026-05-01T11:16:32.35Z</time></trkpt><trkpt lat="44.7797867" lon="7.7342033"><ele>257.0</ele><time>2026-05-01T11:17:22.351Z</time></trkpt><trkpt lat="44.77972" lon="7.73411"><ele>257.0</ele><time>2026-05-01T11:17:25.355Z</time></trkpt><trkpt lat="44.7797067" lon="7.7340083"><ele>257.0</ele><time>2026-05-01T11:20:50.352Z</time></trkpt><trkpt lat="44.77971" lon="7.733905"><ele>257.0</ele><time>2026-05-01T11:20:53.355Z</time></trkpt><trkpt lat="44.7796917" lon="7.7337367"><ele>257.0</ele><time>2026-05-01T11:20:55.352Z</time></trkpt><trkpt lat="44.7796683" lon="7.73364"><ele>257.2</ele><time>2026-05-01T11:20:56.351Z</time></trkpt><trkpt lat="44.7796383" lon="7.7335283"><ele>257.4</ele><time>2026-05-01T11:20:57.354Z</time></trkpt><trkpt lat="44.7796083" lon="7.733405"><ele>257.6</ele><time>2026-05-01T11:20:58.352Z</time></trkpt><trkpt lat="44.7795783" lon="7.7332683"><ele>257.8</ele><time>2026-05-01T11:20:59.352Z</time></trkpt><trkpt lat="44.7795483" lon="7.7331317"><ele>258.0</ele><time>2026-05-01T11:21:00.352Z</time></trkpt><trkpt lat="44.7795183" lon="7.732995"><ele>258.0</ele><time>2026-05-01T11:21:01.353Z</time></trkpt><trkpt lat="44.7794867" lon="7.7328533"><ele>258.0</ele><time>2026-05-01T11:21:02.355Z</time></trkpt><trkpt lat="44.779455" lon="7.73271"><ele>258.0</ele><time>2026-05-01T11:21:03.351Z</time></trkpt><trkpt lat="44.7794183" lon="7.73256"><ele>258.0</ele><time>2026-05-01T11:21:04.355Z</time></trkpt><trkpt lat="44.7793817" lon="7.7324067"><ele>258.0</ele><time>2026-05-01T11:21:05.353Z</time></trkpt><trkpt lat="44.7793433" lon="7.7322517"><ele>257.75</ele><time>2026-05-01T11:21:06.348Z</time></trkpt><trkpt lat="44.7793067" lon="7.7320967"><ele>257.5</ele><time>2026-05-01T11:21:07.352Z</time></trkpt><trkpt lat="44.7792717" lon="7.73194"><ele>257.25</ele><time>2026-05-01T11:21:08.357Z</time></trkpt><trkpt lat="44.7792333" lon="7.7317733"><ele>257.0</ele><time>2026-05-01T11:21:09.354Z</time></trkpt><trkpt lat="44.779195" lon="7.7316"><ele>257.0</ele><time>2026-05-01T11:21:10.354Z</time></trkpt><trkpt lat="44.779155" lon="7.7314217"><ele>257.0</ele><time>2026-05-01T11:21:11.355Z</time></trkpt><trkpt lat="44.7791133" lon="7.7312367"><ele>257.0</ele><time>2026-05-01T11:21:12.355Z</time></trkpt><trkpt lat="44.779065" lon="7.7310483"><ele>257.0</ele><time>2026-05-01T11:21:13.355Z</time></trkpt><trkpt lat="44.779015" lon="7.7308567"><ele>257.0</ele><time>2026-05-01T11:21:14.351Z</time></trkpt><trkpt lat="44.7789717" lon="7.7306767"><ele>257.0</ele><time>2026-05-01T11:21:15.354Z</time></trkpt><trkpt lat="44.7789317" lon="7.730505"><ele>257.0</ele><time>2026-05-01T11:21:16.355Z</time></trkpt><trkpt lat="44.7788933" lon="7.73034"><ele>257.0</ele><time>2026-05-01T11:21:17.355Z</time></trkpt><trkpt lat="44.7788567" lon="7.730185"><ele>256.83333333333337</ele><time>2026-05-01T11:21:18.351Z</time></trkpt><trkpt lat="44.7788183" lon="7.7300467"><ele>256.6666666666667</ele><time>2026-05-01T11:21:19.353Z</time></trkpt><trkpt lat="44.7787767" lon="7.72992"><ele>256.5</ele><time>2026-05-01T11:21:20.35Z</time></trkpt><trkpt lat="44.7787433" lon="7.7298083"><ele>256.3333333333333</ele><time>2026-05-01T11:21:21.355Z</time></trkpt><trkpt lat="44.77872" lon="7.7297033"><ele>256.16666666666663</ele><time>2026-05-01T11:21:22.355Z</time></trkpt><trkpt lat="44.77871" lon="7.7296"><ele>256.0</ele><time>2026-05-01T11:21:23.354Z</time></trkpt><trkpt lat="44.7787067" lon="7.729505"><ele>256.0</ele><time>2026-05-01T11:21:24.353Z</time></trkpt><trkpt lat="44.7787033" lon="7.7294133"><ele>255.99999999999997</ele><time>2026-05-01T11:21:25.352Z</time></trkpt><trkpt lat="44.7786917" lon="7.7293217"><ele>256.0</ele><time>2026-05-01T11:21:26.347Z</time></trkpt><trkpt lat="44.7786617" lon="7.7292333"><ele>256.0</ele><time>2026-05-01T11:21:27.352Z</time></trkpt><trkpt lat="44.778615" lon="7.7291683"><ele>255.99999999999997</ele><time>2026-05-01T11:21:28.35Z</time></trkpt><trkpt lat="44.778545" lon="7.7291433"><ele>256.0</ele><time>2026-05-01T11:21:29.351Z</time></trkpt><trkpt lat="44.7784467" lon="7.7291817"><ele>256.0</ele><time>2026-05-01T11:21:30.352Z</time></trkpt><trkpt lat="44.7783467" lon="7.7292367"><ele>255.5</ele><time>2026-05-01T11:21:31.353Z</time></trkpt><trkpt lat="44.778235" lon="7.7292833"><ele>255.0</ele><time>2026-05-01T11:21:32.355Z</time></trkpt><trkpt lat="44.77812" lon="7.7293033"><ele>254.5</ele><time>2026-05-01T11:21:33.351Z</time></trkpt><trkpt lat="44.7779933" lon="7.72931"><ele>254.0</ele><time>2026-05-01T11:21:34.353Z</time></trkpt><trkpt lat="44.77786" lon="7.72932"><ele>254.0</ele><time>2026-05-01T11:21:35.352Z</time></trkpt><trkpt lat="44.7777167" lon="7.7293317"><ele>254.0</ele><time>2026-05-01T11:21:36.353Z</time></trkpt><trkpt lat="44.777565" lon="7.72935"><ele>254.0</ele><time>2026-05-01T11:21:37.36Z</time></trkpt><trkpt lat="44.7774067" lon="7.7293733"><ele>253.33333333333334</ele><time>2026-05-01T11:21:38.352Z</time></trkpt><trkpt lat="44.7772433" lon="7.72941"><ele>252.66666666666669</ele><time>2026-05-01T11:21:39.354Z</time></trkpt><trkpt lat="44.7770767" lon="7.7294567"><ele>252.0</ele><time>2026-05-01T11:21:40.352Z</time></trkpt><trkpt lat="44.7769" lon="7.729515"><ele>252.33333333333331</ele><time>2026-05-01T11:21:41.354Z</time></trkpt><trkpt lat="44.7767183" lon="7.72958"><ele>252.66666666666666</ele><time>2026-05-01T11:21:42.352Z</time></trkpt><trkpt lat="44.77653" lon="7.7296567"><ele>253.0</ele><time>2026-05-01T11:21:43.35Z</time></trkpt><trkpt lat="44.7763367" lon="7.729735"><ele>253.0</ele><time>2026-05-01T11:21:44.354Z</time></trkpt><trkpt lat="44.7761433" lon="7.72981"><ele>253.0</ele><time>2026-05-01T11:21:45.355Z</time></trkpt><trkpt lat="44.7759517" lon="7.729885"><ele>253.0</ele><time>2026-05-01T11:21:46.352Z</time></trkpt><trkpt lat="44.7757583" lon="7.7299667"><ele>253.66666666666666</ele><time>2026-05-01T11:21:47.354Z</time></trkpt><trkpt lat="44.7755617" lon="7.730045"><ele>254.33333333333331</ele><time>2026-05-01T11:21:48.353Z</time></trkpt><trkpt lat="44.77536" lon="7.730125"><ele>255.0</ele><time>2026-05-01T11:21:49.354Z</time></trkpt><trkpt lat="44.7751533" lon="7.730205"><ele>254.0</ele><time>2026-05-01T11:21:50.354Z</time></trkpt><trkpt lat="44.7749367" lon="7.73029"><ele>253.0</ele><time>2026-05-01T11:21:51.357Z</time></trkpt><trkpt lat="44.7747133" lon="7.73038"><ele>253.0</ele><time>2026-05-01T11:21:52.354Z</time></trkpt><trkpt lat="44.7744817" lon="7.7304717"><ele>253.0</ele><time>2026-05-01T11:21:53.352Z</time></trkpt><trkpt lat="44.7742433" lon="7.730565"><ele>254.5</ele><time>2026-05-01T11:21:54.352Z</time></trkpt><trkpt lat="44.7740067" lon="7.7306567"><ele>256.0</ele><time>2026-05-01T11:21:55.354Z</time></trkpt><trkpt lat="44.7737683" lon="7.7307517"><ele>256.0</ele><time>2026-05-01T11:21:56.355Z</time></trkpt><trkpt lat="44.7735283" lon="7.730845"><ele>256.0</ele><time>2026-05-01T11:21:57.358Z</time></trkpt><trkpt lat="44.773285" lon="7.7309383"><ele>256.0</ele><time>2026-05-01T11:21:58.355Z</time></trkpt><trkpt lat="44.7730367" lon="7.7310367"><ele>256.0</ele><time>2026-05-01T11:21:59.349Z</time></trkpt><trkpt lat="44.7727867" lon="7.7311383"><ele>256.0</ele><time>2026-05-01T11:22:00.352Z</time></trkpt><trkpt lat="44.7725317" lon="7.7312367"><ele>256.0</ele><time>2026-05-01T11:22:01.353Z</time></trkpt><trkpt lat="44.7722717" lon="7.7313367"><ele>256.0</ele><time>2026-05-01T11:22:02.354Z</time></trkpt><trkpt lat="44.77201" lon="7.7314367"><ele>256.0</ele><time>2026-05-01T11:22:03.348Z</time></trkpt><trkpt lat="44.7717433" lon="7.73154"><ele>255.5</ele><time>2026-05-01T11:22:04.351Z</time></trkpt><trkpt lat="44.771475" lon="7.731645"><ele>255.0</ele><time>2026-05-01T11:22:05.351Z</time></trkpt><trkpt lat="44.771205" lon="7.73175"><ele>255.5</ele><time>2026-05-01T11:22:06.353Z</time></trkpt><trkpt lat="44.7709333" lon="7.7318567"><ele>256.0</ele><time>2026-05-01T11:22:07.353Z</time></trkpt><trkpt lat="44.7706617" lon="7.7319617"><ele>256.0</ele><time>2026-05-01T11:22:08.356Z</time></trkpt><trkpt lat="44.7703883" lon="7.7320717"><ele>256.0</ele><time>2026-05-01T11:22:09.355Z</time></trkpt><trkpt lat="44.7701167" lon="7.7321817"><ele>256.0</ele><time>2026-05-01T11:22:10.354Z</time></trkpt><trkpt lat="44.7698483" lon="7.7322883"><ele>256.0</ele><time>2026-05-01T11:22:11.353Z</time></trkpt><trkpt lat="44.7695767" lon="7.7323967"><ele>256.5</ele><time>2026-05-01T11:22:12.354Z</time></trkpt><trkpt lat="44.7693067" lon="7.7325067"><ele>257.0</ele><time>2026-05-01T11:22:13.356Z</time></trkpt><trkpt lat="44.7690367" lon="7.7326217"><ele>256.0</ele><time>2026-05-01T11:22:14.354Z</time></trkpt><trkpt lat="44.7687667" lon="7.7327367"><ele>255.0</ele><time>2026-05-01T11:22:15.355Z</time></trkpt><trkpt lat="44.7684933" lon="7.7328483"><ele>255.0</ele><time>2026-05-01T11:22:16.352Z</time></trkpt><trkpt lat="44.7682217" lon="7.73295"><ele>255.0</ele><time>2026-05-01T11:22:17.355Z</time></trkpt><trkpt lat="44.76795" lon="7.73305"><ele>255.5</ele><time>2026-05-01T11:22:18.354Z</time></trkpt><trkpt lat="44.7676767" lon="7.7331533"><ele>256.0</ele><time>2026-05-01T11:22:19.354Z</time></trkpt><trkpt lat="44.7674" lon="7.7332583"><ele>256.0</ele><time>2026-05-01T11:22:20.353Z</time></trkpt><trkpt lat="44.7671233" lon="7.7333617"><ele>256.0</ele><time>2026-05-01T11:22:21.354Z</time></trkpt><trkpt lat="44.76685" lon="7.7334683"><ele>256.5</ele><time>2026-05-01T11:22:22.355Z</time></trkpt><trkpt lat="44.766575" lon="7.7335733"><ele>257.0</ele><time>2026-05-01T11:22:23.353Z</time></trkpt><trkpt lat="44.7663" lon="7.73368"><ele>257.0</ele><time>2026-05-01T11:22:24.354Z</time></trkpt><trkpt lat="44.7660267" lon="7.7337867"><ele>257.0</ele><time>2026-05-01T11:22:25.351Z</time></trkpt><trkpt lat="44.7657533" lon="7.7338933"><ele>257.0</ele><time>2026-05-01T11:22:26.351Z</time></trkpt><trkpt lat="44.7654767" lon="7.7340017"><ele>257.0</ele><time>2026-05-01T11:22:27.354Z</time></trkpt><trkpt lat="44.7652017" lon="7.7341083"><ele>258.0</ele><time>2026-05-01T11:22:28.355Z</time></trkpt><trkpt lat="44.7649233" lon="7.734215"><ele>259.0</ele><time>2026-05-01T11:22:29.354Z</time></trkpt><trkpt lat="44.764645" lon="7.7343217"><ele>258.5</ele><time>2026-05-01T11:22:30.352Z</time></trkpt><trkpt lat="44.7643633" lon="7.7344267"><ele>258.0</ele><time>2026-05-01T11:22:31.353Z</time></trkpt><trkpt lat="44.76408" lon="7.7345383"><ele>258.5</ele><time>2026-05-01T11:22:32.353Z</time></trkpt><trkpt lat="44.7637967" lon="7.7346483"><ele>259.0</ele><time>2026-05-01T11:22:33.351Z</time></trkpt><trkpt lat="44.7635167" lon="7.7347567"><ele>259.0</ele><time>2026-05-01T11:22:34.353Z</time></trkpt><trkpt lat="44.7632367" lon="7.734865"><ele>259.0</ele><time>2026-05-01T11:22:35.357Z</time></trkpt><trkpt lat="44.7629617" lon="7.73497"><ele>259.0</ele><time>2026-05-01T11:22:36.357Z</time></trkpt><trkpt lat="44.7626867" lon="7.7350783"><ele>259.0</ele><time>2026-05-01T11:22:37.354Z</time></trkpt><trkpt lat="44.76242" lon="7.73518"><ele>259.0</ele><time>2026-05-01T11:22:38.355Z</time></trkpt><trkpt lat="44.762165" lon="7.7352733"><ele>259.0</ele><time>2026-05-01T11:22:39.356Z</time></trkpt><trkpt lat="44.7619217" lon="7.735355"><ele>258.5</ele><time>2026-05-01T11:22:40.353Z</time></trkpt><trkpt lat="44.761685" lon="7.7354283"><ele>258.0</ele><time>2026-05-01T11:22:41.35Z</time></trkpt><trkpt lat="44.7614617" lon="7.7354867"><ele>258.0</ele><time>2026-05-01T11:22:42.351Z</time></trkpt><trkpt lat="44.7612483" lon="7.7355267"><ele>258.0</ele><time>2026-05-01T11:22:43.353Z</time></trkpt><trkpt lat="44.761045" lon="7.7355583"><ele>258.0</ele><time>2026-05-01T11:22:44.352Z</time></trkpt><trkpt lat="44.76086" lon="7.7355867"><ele>258.6666666666667</ele><time>2026-05-01T11:22:45.351Z</time></trkpt><trkpt lat="44.7606967" lon="7.735605"><ele>259.33333333333337</ele><time>2026-05-01T11:22:46.35Z</time></trkpt><trkpt lat="44.760545" lon="7.7356133"><ele>260.0</ele><time>2026-05-01T11:22:47.352Z</time></trkpt><trkpt lat="44.7604033" lon="7.7356017"><ele>260.0</ele><time>2026-05-01T11:22:48.352Z</time></trkpt><trkpt lat="44.7602583" lon="7.7355833"><ele>260.0</ele><time>2026-05-01T11:22:49.353Z</time></trkpt><trkpt lat="44.7601083" lon="7.735585"><ele>260.0</ele><time>2026-05-01T11:22:50.355Z</time></trkpt><trkpt lat="44.7599467" lon="7.7355983"><ele>260.33333333333337</ele><time>2026-05-01T11:22:51.353Z</time></trkpt><trkpt lat="44.759775" lon="7.7355917"><ele>260.6666666666667</ele><time>2026-05-01T11:22:52.355Z</time></trkpt><trkpt lat="44.7595883" lon="7.7355633"><ele>261.0</ele><time>2026-05-01T11:22:53.355Z</time></trkpt><trkpt lat="44.75939" lon="7.7355233"><ele>260.6666666666667</ele><time>2026-05-01T11:22:54.356Z</time></trkpt><trkpt lat="44.7591867" lon="7.7354867"><ele>260.33333333333337</ele><time>2026-05-01T11:22:55.352Z</time></trkpt><trkpt lat="44.7589783" lon="7.735445"><ele>260.0</ele><time>2026-05-01T11:22:56.351Z</time></trkpt><trkpt lat="44.758765" lon="7.7353917"><ele>260.0</ele><time>2026-05-01T11:22:57.357Z</time></trkpt><trkpt lat="44.7585533" lon="7.7353333"><ele>260.0</ele><time>2026-05-01T11:22:58.351Z</time></trkpt><trkpt lat="44.758345" lon="7.735275"><ele>260.0</ele><time>2026-05-01T11:22:59.349Z</time></trkpt><trkpt lat="44.7581433" lon="7.7352133"><ele>260.0</ele><time>2026-05-01T11:23:00.351Z</time></trkpt><trkpt lat="44.75794" lon="7.7351517"><ele>260.0</ele><time>2026-05-01T11:23:01.353Z</time></trkpt><trkpt lat="44.7577367" lon="7.7350917"><ele>260.0</ele><time>2026-05-01T11:23:02.351Z</time></trkpt><trkpt lat="44.7575333" lon="7.73503"><ele>260.33333333333337</ele><time>2026-05-01T11:23:03.357Z</time></trkpt><trkpt lat="44.7573383" lon="7.7349683"><ele>260.6666666666667</ele><time>2026-05-01T11:23:04.353Z</time></trkpt><trkpt lat="44.757145" lon="7.7349083"><ele>261.0</ele><time>2026-05-01T11:23:05.354Z</time></trkpt><trkpt lat="44.75695" lon="7.7348517"><ele>260.6666666666667</ele><time>2026-05-01T11:23:06.357Z</time></trkpt><trkpt lat="44.7567533" lon="7.7347933"><ele>260.33333333333337</ele><time>2026-05-01T11:23:07.35Z</time></trkpt><trkpt lat="44.7565517" lon="7.7347317"><ele>260.0</ele><time>2026-05-01T11:23:08.355Z</time></trkpt><trkpt lat="44.7563483" lon="7.7346683"><ele>260.0</ele><time>2026-05-01T11:23:09.353Z</time></trkpt><trkpt lat="44.75614" lon="7.7346067"><ele>260.0</ele><time>2026-05-01T11:23:10.349Z</time></trkpt><trkpt lat="44.7559267" lon="7.7345417"><ele>260.0</ele><time>2026-05-01T11:23:11.353Z</time></trkpt><trkpt lat="44.7557117" lon="7.7344767"><ele>260.0</ele><time>2026-05-01T11:23:12.35Z</time></trkpt><trkpt lat="44.755495" lon="7.73441"><ele>260.0</ele><time>2026-05-01T11:23:13.354Z</time></trkpt><trkpt lat="44.7552867" lon="7.734345"><ele>260.0</ele><time>2026-05-01T11:23:14.35Z</time></trkpt><trkpt lat="44.755085" lon="7.7342817"><ele>260.33333333333337</ele><time>2026-05-01T11:23:15.353Z</time></trkpt><trkpt lat="44.754895" lon="7.7342233"><ele>260.6666666666667</ele><time>2026-05-01T11:23:16.35Z</time></trkpt><trkpt lat="44.754715" lon="7.7341717"><ele>261.0</ele><time>2026-05-01T11:23:17.353Z</time></trkpt><trkpt lat="44.7545517" lon="7.7341217"><ele>261.0</ele><time>2026-05-01T11:23:18.354Z</time></trkpt><trkpt lat="44.7544067" lon="7.73408"><ele>261.0</ele><time>2026-05-01T11:23:19.35Z</time></trkpt><trkpt lat="44.7542867" lon="7.7340467"><ele>261.0</ele><time>2026-05-01T11:23:20.351Z</time></trkpt><trkpt lat="44.754195" lon="7.7340217"><ele>261.0</ele><time>2026-05-01T11:23:21.351Z</time></trkpt><trkpt lat="44.7541217" lon="7.7340133"><ele>261.0</ele><time>2026-05-01T11:23:22.35Z</time></trkpt><trkpt lat="44.7540517" lon="7.7340767"><ele>261.2</ele><time>2026-05-01T11:23:24.352Z</time></trkpt><trkpt lat="44.75404" lon="7.7342117"><ele>261.40000000000003</ele><time>2026-05-01T11:23:26.355Z</time></trkpt><trkpt lat="44.7540417" lon="7.7343067"><ele>261.6</ele><time>2026-05-01T11:23:27.35Z</time></trkpt><trkpt lat="44.7540467" lon="7.7344317"><ele>261.8</ele><time>2026-05-01T11:23:28.35Z</time></trkpt><trkpt lat="44.7540667" lon="7.7345917"><ele>262.0</ele><time>2026-05-01T11:23:29.349Z</time></trkpt><trkpt lat="44.7540917" lon="7.73476"><ele>262.0</ele><time>2026-05-01T11:23:30.353Z</time></trkpt><trkpt lat="44.7541267" lon="7.7349283"><ele>262.0</ele><time>2026-05-01T11:23:31.354Z</time></trkpt><trkpt lat="44.7541683" lon="7.7350883"><ele>262.0</ele><time>2026-05-01T11:23:32.355Z</time></trkpt><trkpt lat="44.7542117" lon="7.7352383"><ele>262.0</ele><time>2026-05-01T11:23:33.355Z</time></trkpt><trkpt lat="44.754255" lon="7.7353683"><ele>261.8333333333333</ele><time>2026-05-01T11:23:34.353Z</time></trkpt><trkpt lat="44.7543" lon="7.7354683"><ele>261.66666666666663</ele><time>2026-05-01T11:23:35.355Z</time></trkpt><trkpt lat="44.7543517" lon="7.7355383"><ele>261.5</ele><time>2026-05-01T11:23:36.347Z</time></trkpt><trkpt lat="44.7544433" lon="7.7356233"><ele>261.3333333333333</ele><time>2026-05-01T11:23:38.354Z</time></trkpt><trkpt lat="44.7545233" lon="7.7356817"><ele>261.1666666666667</ele><time>2026-05-01T11:23:51.356Z</time></trkpt><trkpt lat="44.7545683" lon="7.7357467"><ele>261.0</ele><time>2026-05-01T11:23:52.355Z</time></trkpt><trkpt lat="44.754615" lon="7.7358267"><ele>261.0</ele><time>2026-05-01T11:23:53.351Z</time></trkpt><trkpt lat="44.75467" lon="7.7359183"><ele>261.0</ele><time>2026-05-01T11:23:54.354Z</time></trkpt><trkpt lat="44.7547317" lon="7.7360233"><ele>261.0</ele><time>2026-05-01T11:23:55.349Z</time></trkpt><trkpt lat="44.7547983" lon="7.7361383"><ele>261.0</ele><time>2026-05-01T11:23:56.354Z</time></trkpt><trkpt lat="44.754865" lon="7.73626"><ele>261.0</ele><time>2026-05-01T11:23:57.356Z</time></trkpt><trkpt lat="44.754925" lon="7.7363983"><ele>261.0</ele><time>2026-05-01T11:23:58.354Z</time></trkpt><trkpt lat="44.7549833" lon="7.7365333"><ele>261.0</ele><time>2026-05-01T11:23:59.352Z</time></trkpt><trkpt lat="44.7550467" lon="7.7366567"><ele>261.0</ele><time>2026-05-01T11:24:00.351Z</time></trkpt><trkpt lat="44.7551267" lon="7.7367817"><ele>261.0</ele><time>2026-05-01T11:24:01.351Z</time></trkpt><trkpt lat="44.7552067" lon="7.7369067"><ele>261.0</ele><time>2026-05-01T11:24:02.348Z</time></trkpt><trkpt lat="44.7552783" lon="7.7370267"><ele>261.0</ele><time>2026-05-01T11:24:03.351Z</time></trkpt><trkpt lat="44.7553333" lon="7.7371433"><ele>261.0</ele><time>2026-05-01T11:24:04.353Z</time></trkpt><trkpt lat="44.7553767" lon="7.7372733"><ele>261.0</ele><time>2026-05-01T11:24:05.352Z</time></trkpt><trkpt lat="44.7554017" lon="7.7374117"><ele>261.0</ele><time>2026-05-01T11:24:06.352Z</time></trkpt><trkpt lat="44.7554133" lon="7.7375583"><ele>261.0</ele><time>2026-05-01T11:24:07.35Z</time></trkpt><trkpt lat="44.7554233" lon="7.7377083"><ele>261.0</ele><time>2026-05-01T11:24:08.35Z</time></trkpt><trkpt lat="44.755435" lon="7.7378483"><ele>261.0</ele><time>2026-05-01T11:24:09.354Z</time></trkpt><trkpt lat="44.7554567" lon="7.737975"><ele>261.0</ele><time>2026-05-01T11:24:10.352Z</time></trkpt><trkpt lat="44.7554883" lon="7.738105"><ele>261.0</ele><time>2026-05-01T11:24:11.358Z</time></trkpt><trkpt lat="44.7555267" lon="7.7382383"><ele>261.0</ele><time>2026-05-01T11:24:12.351Z</time></trkpt><trkpt lat="44.7555683" lon="7.7383567"><ele>261.0</ele><time>2026-05-01T11:24:13.352Z</time></trkpt><trkpt lat="44.755615" lon="7.73848"><ele>261.0</ele><time>2026-05-01T11:24:14.349Z</time></trkpt><trkpt lat="44.7556683" lon="7.7386017"><ele>261.0</ele><time>2026-05-01T11:24:15.352Z</time></trkpt><trkpt lat="44.7557283" lon="7.7387283"><ele>261.0</ele><time>2026-05-01T11:24:16.354Z</time></trkpt><trkpt lat="44.7557917" lon="7.73886"><ele>261.0</ele><time>2026-05-01T11:24:17.353Z</time></trkpt><trkpt lat="44.755855" lon="7.7389867"><ele>261.0</ele><time>2026-05-01T11:24:18.354Z</time></trkpt><trkpt lat="44.75591" lon="7.739095"><ele>261.0</ele><time>2026-05-01T11:24:19.356Z</time></trkpt><trkpt lat="44.7559517" lon="7.7391883"><ele>261.0</ele><time>2026-05-01T11:24:20.352Z</time></trkpt><trkpt lat="44.7559783" lon="7.7392767"><ele>261.0</ele><time>2026-05-01T11:24:21.351Z</time></trkpt><trkpt lat="44.755995" lon="7.73937"><ele>261.0</ele><time>2026-05-01T11:24:22.354Z</time></trkpt><trkpt lat="44.7560033" lon="7.739485"><ele>261.0</ele><time>2026-05-01T11:24:23.356Z</time></trkpt><trkpt lat="44.7560183" lon="7.7396217"><ele>261.0</ele><time>2026-05-01T11:24:24.355Z</time></trkpt><trkpt lat="44.7560333" lon="7.7397733"><ele>261.0</ele><time>2026-05-01T11:24:25.357Z</time></trkpt><trkpt lat="44.7560483" lon="7.7399317"><ele>261.0</ele><time>2026-05-01T11:24:26.352Z</time></trkpt><trkpt lat="44.756065" lon="7.740075"><ele>261.0</ele><time>2026-05-01T11:24:27.355Z</time></trkpt><trkpt lat="44.7560783" lon="7.7402033"><ele>261.0</ele><time>2026-05-01T11:24:28.353Z</time></trkpt><trkpt lat="44.7560883" lon="7.7403167"><ele>261.0</ele><time>2026-05-01T11:24:29.353Z</time></trkpt><trkpt lat="44.75608" lon="7.7404417"><ele>261.0</ele><time>2026-05-01T11:24:31.352Z</time></trkpt><trkpt lat="44.75602" lon="7.7405033"><ele>261.0</ele><time>2026-05-01T11:24:33.358Z</time></trkpt><trkpt lat="44.7559067" lon="7.7405317"><ele>261.0</ele><time>2026-05-01T11:24:35.354Z</time></trkpt><trkpt lat="44.7558083" lon="7.7405467"><ele>261.0</ele><time>2026-05-01T11:24:36.353Z</time></trkpt><trkpt lat="44.7556983" lon="7.7405617"><ele>261.0</ele><time>2026-05-01T11:24:37.351Z</time></trkpt><trkpt lat="44.7555767" lon="7.7405783"><ele>261.0</ele><time>2026-05-01T11:24:38.349Z</time></trkpt><trkpt lat="44.755445" lon="7.7405983"><ele>261.0</ele><time>2026-05-01T11:24:39.353Z</time></trkpt><trkpt lat="44.75531" lon="7.7406217"><ele>261.0</ele><time>2026-05-01T11:24:40.354Z</time></trkpt><trkpt lat="44.755175" lon="7.7406467"><ele>261.0</ele><time>2026-05-01T11:24:41.353Z</time></trkpt><trkpt lat="44.75504" lon="7.74067"><ele>261.0</ele><time>2026-05-01T11:24:42.353Z</time></trkpt><trkpt lat="44.754905" lon="7.7406933"><ele>261.0</ele><time>2026-05-01T11:24:43.353Z</time></trkpt><trkpt lat="44.7547733" lon="7.7407183"><ele>261.0</ele><time>2026-05-01T11:24:44.353Z</time></trkpt><trkpt lat="44.75465" lon="7.740745"><ele>261.0</ele><time>2026-05-01T11:24:45.355Z</time></trkpt><trkpt lat="44.7545367" lon="7.7407683"><ele>261.0</ele><time>2026-05-01T11:24:46.355Z</time></trkpt><trkpt lat="44.7544183" lon="7.74079"><ele>261.0</ele><time>2026-05-01T11:24:47.351Z</time></trkpt><trkpt lat="44.7542983" lon="7.7408117"><ele>261.25</ele><time>2026-05-01T11:24:48.353Z</time></trkpt><trkpt lat="44.7541783" lon="7.7408317"><ele>261.5</ele><time>2026-05-01T11:24:49.353Z</time></trkpt><trkpt lat="44.7540617" lon="7.7408533"><ele>261.75</ele><time>2026-05-01T11:24:50.354Z</time></trkpt><trkpt lat="44.7539517" lon="7.7408733"><ele>262.0</ele><time>2026-05-01T11:24:51.354Z</time></trkpt><trkpt lat="44.75385" lon="7.74089"><ele>262.0</ele><time>2026-05-01T11:24:52.356Z</time></trkpt><trkpt lat="44.75376" lon="7.740905"><ele>262.0</ele><time>2026-05-01T11:24:53.352Z</time></trkpt><trkpt lat="44.7536817" lon="7.7409183"><ele>262.0</ele><time>2026-05-01T11:24:54.356Z</time></trkpt><trkpt lat="44.753615" lon="7.7409283"><ele>262.0</ele><time>2026-05-01T11:24:55.358Z</time></trkpt><trkpt lat="44.7535" lon="7.7409467"><ele>262.0</ele><time>2026-05-01T11:24:57.356Z</time></trkpt><trkpt lat="44.7534033" lon="7.7409617"><ele>262.2</ele><time>2026-05-01T11:24:59.353Z</time></trkpt><trkpt lat="44.75331" lon="7.7409683"><ele>262.4</ele><time>2026-05-01T11:25:01.351Z</time></trkpt><trkpt lat="44.7531883" lon="7.7409783"><ele>262.6</ele><time>2026-05-01T11:25:03.357Z</time></trkpt><trkpt lat="44.7531083" lon="7.7409883"><ele>262.8</ele><time>2026-05-01T11:25:04.353Z</time></trkpt><trkpt lat="44.7530167" lon="7.7410067"><ele>263.0</ele><time>2026-05-01T11:25:05.351Z</time></trkpt><trkpt lat="44.75293" lon="7.741025"><ele>263.0</ele><time>2026-05-01T11:25:06.355Z</time></trkpt><trkpt lat="44.7528383" lon="7.7410467"><ele>263.0</ele><time>2026-05-01T11:25:07.357Z</time></trkpt><trkpt lat="44.752745" lon="7.74107"><ele>263.0</ele><time>2026-05-01T11:25:08.353Z</time></trkpt><trkpt lat="44.7526483" lon="7.7410917"><ele>263.0</ele><time>2026-05-01T11:25:09.355Z</time></trkpt><trkpt lat="44.752545" lon="7.74111"><ele>263.0</ele><time>2026-05-01T11:25:10.354Z</time></trkpt><trkpt lat="44.7524367" lon="7.7411233"><ele>262.75</ele><time>2026-05-01T11:25:11.349Z</time></trkpt><trkpt lat="44.7523233" lon="7.7411333"><ele>262.5</ele><time>2026-05-01T11:25:12.355Z</time></trkpt><trkpt lat="44.7522067" lon="7.7411583"><ele>262.25</ele><time>2026-05-01T11:25:13.353Z</time></trkpt><trkpt lat="44.75209" lon="7.74119"><ele>262.0</ele><time>2026-05-01T11:25:14.354Z</time></trkpt><trkpt lat="44.751975" lon="7.7412217"><ele>262.75</ele><time>2026-05-01T11:25:15.354Z</time></trkpt><trkpt lat="44.7518717" lon="7.7412383"><ele>263.5</ele><time>2026-05-01T11:25:16.357Z</time></trkpt><trkpt lat="44.7517683" lon="7.74125"><ele>264.25</ele><time>2026-05-01T11:25:17.355Z</time></trkpt><trkpt lat="44.7516517" lon="7.74127"><ele>265.0</ele><time>2026-05-01T11:25:18.353Z</time></trkpt><trkpt lat="44.7515267" lon="7.7412917"><ele>265.0</ele><time>2026-05-01T11:25:19.355Z</time></trkpt><trkpt lat="44.751395" lon="7.7413117"><ele>265.0</ele><time>2026-05-01T11:25:20.352Z</time></trkpt><trkpt lat="44.7512583" lon="7.74134"><ele>265.0</ele><time>2026-05-01T11:25:21.354Z</time></trkpt><trkpt lat="44.7511183" lon="7.741375"><ele>265.0</ele><time>2026-05-01T11:25:22.352Z</time></trkpt><trkpt lat="44.7509767" lon="7.7414133"><ele>264.0</ele><time>2026-05-01T11:25:23.35Z</time></trkpt><trkpt lat="44.75083" lon="7.7414483"><ele>263.0</ele><time>2026-05-01T11:25:24.354Z</time></trkpt><trkpt lat="44.7506817" lon="7.7414733"><ele>262.0</ele><time>2026-05-01T11:25:25.354Z</time></trkpt><trkpt lat="44.7505317" lon="7.741495"><ele>261.0</ele><time>2026-05-01T11:25:26.353Z</time></trkpt><trkpt lat="44.7503783" lon="7.7415183"><ele>261.0</ele><time>2026-05-01T11:25:27.355Z</time></trkpt><trkpt lat="44.7502217" lon="7.7415383"><ele>261.0</ele><time>2026-05-01T11:25:28.355Z</time></trkpt><trkpt lat="44.750065" lon="7.7415567"><ele>261.0</ele><time>2026-05-01T11:25:29.353Z</time></trkpt><trkpt lat="44.749905" lon="7.7415717"><ele>261.0</ele><time>2026-05-01T11:25:30.352Z</time></trkpt><trkpt lat="44.749745" lon="7.741585"><ele>261.0</ele><time>2026-05-01T11:25:31.354Z</time></trkpt><trkpt lat="44.7495917" lon="7.7415967"><ele>261.0</ele><time>2026-05-01T11:25:32.352Z</time></trkpt><trkpt lat="44.7494433" lon="7.74162"><ele>261.5</ele><time>2026-05-01T11:25:33.354Z</time></trkpt><trkpt lat="44.7493017" lon="7.7416533"><ele>262.0</ele><time>2026-05-01T11:25:34.354Z</time></trkpt><trkpt lat="44.7491617" lon="7.7416767"><ele>262.5</ele><time>2026-05-01T11:25:35.353Z</time></trkpt><trkpt lat="44.7490133" lon="7.741705"><ele>263.0</ele><time>2026-05-01T11:25:36.354Z</time></trkpt><trkpt lat="44.7488667" lon="7.7417433"><ele>263.0</ele><time>2026-05-01T11:25:37.356Z</time></trkpt><trkpt lat="44.7487183" lon="7.7417767"><ele>263.0</ele><time>2026-05-01T11:25:38.358Z</time></trkpt><trkpt lat="44.748565" lon="7.7418017"><ele>263.0</ele><time>2026-05-01T11:25:39.355Z</time></trkpt><trkpt lat="44.74841" lon="7.741825"><ele>263.0</ele><time>2026-05-01T11:25:40.358Z</time></trkpt><trkpt lat="44.7482483" lon="7.7418483"><ele>263.0</ele><time>2026-05-01T11:25:41.356Z</time></trkpt><trkpt lat="44.7480917" lon="7.74187"><ele>263.0</ele><time>2026-05-01T11:25:42.365Z</time></trkpt><trkpt lat="44.747935" lon="7.741895"><ele>263.0</ele><time>2026-05-01T11:25:43.363Z</time></trkpt><trkpt lat="44.7477783" lon="7.7419167"><ele>263.0</ele><time>2026-05-01T11:25:44.357Z</time></trkpt><trkpt lat="44.7476233" lon="7.7419383"><ele>263.0</ele><time>2026-05-01T11:25:45.355Z</time></trkpt><trkpt lat="44.74747" lon="7.7419633"><ele>262.6666666666667</ele><time>2026-05-01T11:25:46.355Z</time></trkpt><trkpt lat="44.7473167" lon="7.7419867"><ele>262.3333333333333</ele><time>2026-05-01T11:25:47.354Z</time></trkpt><trkpt lat="44.7471633" lon="7.74201"><ele>262.0</ele><time>2026-05-01T11:25:48.354Z</time></trkpt><trkpt lat="44.7470117" lon="7.7420333"><ele>262.3333333333333</ele><time>2026-05-01T11:25:49.355Z</time></trkpt><trkpt lat="44.746855" lon="7.7420633"><ele>262.6666666666667</ele><time>2026-05-01T11:25:50.353Z</time></trkpt><trkpt lat="44.7466967" lon="7.7420933"><ele>263.0</ele><time>2026-05-01T11:25:51.354Z</time></trkpt><trkpt lat="44.7465367" lon="7.7421217"><ele>263.0</ele><time>2026-05-01T11:25:52.351Z</time></trkpt><trkpt lat="44.7463783" lon="7.7421467"><ele>263.0</ele><time>2026-05-01T11:25:53.354Z</time></trkpt><trkpt lat="44.7462217" lon="7.74217"><ele>263.0</ele><time>2026-05-01T11:25:54.355Z</time></trkpt><trkpt lat="44.7460667" lon="7.7421967"><ele>264.0</ele><time>2026-05-01T11:25:55.355Z</time></trkpt><trkpt lat="44.74591" lon="7.7422267"><ele>265.0</ele><time>2026-05-01T11:25:56.348Z</time></trkpt><trkpt lat="44.7457533" lon="7.7422533"><ele>266.0</ele><time>2026-05-01T11:25:57.356Z</time></trkpt><trkpt lat="44.7455983" lon="7.7422717"><ele>266.0</ele><time>2026-05-01T11:25:58.349Z</time></trkpt><trkpt lat="44.74544" lon="7.7422933"><ele>266.0</ele><time>2026-05-01T11:25:59.351Z</time></trkpt><trkpt lat="44.7452783" lon="7.7423183"><ele>266.0</ele><time>2026-05-01T11:26:00.351Z</time></trkpt><trkpt lat="44.7451133" lon="7.7423467"><ele>265.5</ele><time>2026-05-01T11:26:01.353Z</time></trkpt><trkpt lat="44.744955" lon="7.7423717"><ele>265.0</ele><time>2026-05-01T11:26:02.349Z</time></trkpt><trkpt lat="44.7448067" lon="7.7423983"><ele>264.5</ele><time>2026-05-01T11:26:03.352Z</time></trkpt><trkpt lat="44.74467" lon="7.742415"><ele>264.0</ele><time>2026-05-01T11:26:04.349Z</time></trkpt><trkpt lat="44.7445367" lon="7.7424283"><ele>264.0</ele><time>2026-05-01T11:26:05.352Z</time></trkpt><trkpt lat="44.7444233" lon="7.7424367"><ele>264.0</ele><time>2026-05-01T11:26:06.349Z</time></trkpt><trkpt lat="44.7443383" lon="7.7424417"><ele>264.0</ele><time>2026-05-01T11:26:07.351Z</time></trkpt><trkpt lat="44.7442267" lon="7.7424483"><ele>264.0</ele><time>2026-05-01T11:26:09.352Z</time></trkpt><trkpt lat="44.7441567" lon="7.7424817"><ele>264.0</ele><time>2026-05-01T11:26:11.353Z</time></trkpt><trkpt lat="44.7441217" lon="7.7426083"><ele>263.8</ele><time>2026-05-01T11:26:13.349Z</time></trkpt><trkpt lat="44.744115" lon="7.7427183"><ele>263.59999999999997</ele><time>2026-05-01T11:26:14.355Z</time></trkpt><trkpt lat="44.7441083" lon="7.74287"><ele>263.4</ele><time>2026-05-01T11:26:15.354Z</time></trkpt><trkpt lat="44.7440967" lon="7.7430383"><ele>263.2</ele><time>2026-05-01T11:26:16.349Z</time></trkpt><trkpt lat="44.7440817" lon="7.7432117"><ele>263.0</ele><time>2026-05-01T11:26:17.352Z</time></trkpt><trkpt lat="44.7440633" lon="7.7434033"><ele>263.0</ele><time>2026-05-01T11:26:18.356Z</time></trkpt><trkpt lat="44.7440333" lon="7.7436067"><ele>263.0</ele><time>2026-05-01T11:26:19.352Z</time></trkpt><trkpt lat="44.7439967" lon="7.74381"><ele>263.0</ele><time>2026-05-01T11:26:20.358Z</time></trkpt><trkpt lat="44.7439583" lon="7.7440183"><ele>263.0</ele><time>2026-05-01T11:26:21.356Z</time></trkpt><trkpt lat="44.743915" lon="7.7442367"><ele>263.33333333333337</ele><time>2026-05-01T11:26:22.355Z</time></trkpt><trkpt lat="44.7438667" lon="7.744465"><ele>263.6666666666667</ele><time>2026-05-01T11:26:23.352Z</time></trkpt><trkpt lat="44.74382" lon="7.7447067"><ele>264.0</ele><time>2026-05-01T11:26:24.353Z</time></trkpt><trkpt lat="44.743775" lon="7.7449533"><ele>264.0</ele><time>2026-05-01T11:26:25.351Z</time></trkpt><trkpt lat="44.74373" lon="7.7452067"><ele>264.0</ele><time>2026-05-01T11:26:26.353Z</time></trkpt><trkpt lat="44.7436883" lon="7.7454633"><ele>264.0</ele><time>2026-05-01T11:26:27.355Z</time></trkpt><trkpt lat="44.7436483" lon="7.7457217"><ele>264.3333333333333</ele><time>2026-05-01T11:26:28.354Z</time></trkpt><trkpt lat="44.7436167" lon="7.7459817"><ele>264.66666666666663</ele><time>2026-05-01T11:26:29.354Z</time></trkpt><trkpt lat="44.7436033" lon="7.746245"><ele>265.0</ele><time>2026-05-01T11:26:30.353Z</time></trkpt><trkpt lat="44.7436067" lon="7.746505"><ele>264.66666666666663</ele><time>2026-05-01T11:26:31.356Z</time></trkpt><trkpt lat="44.7436117" lon="7.7467533"><ele>264.3333333333333</ele><time>2026-05-01T11:26:32.354Z</time></trkpt><trkpt lat="44.7436117" lon="7.7469933"><ele>264.0</ele><time>2026-05-01T11:26:33.355Z</time></trkpt><trkpt lat="44.7436083" lon="7.7472283"><ele>264.0</ele><time>2026-05-01T11:26:34.354Z</time></trkpt><trkpt lat="44.7435983" lon="7.7474533"><ele>264.0</ele><time>2026-05-01T11:26:35.35Z</time></trkpt><trkpt lat="44.74357" lon="7.74766"><ele>264.0</ele><time>2026-05-01T11:26:36.354Z</time></trkpt><trkpt lat="44.7435217" lon="7.7478567"><ele>263.6666666666667</ele><time>2026-05-01T11:26:37.353Z</time></trkpt><trkpt lat="44.74345" lon="7.7480417"><ele>263.33333333333337</ele><time>2026-05-01T11:26:38.353Z</time></trkpt><trkpt lat="44.74336" lon="7.74822"><ele>263.0</ele><time>2026-05-01T11:26:39.355Z</time></trkpt><trkpt lat="44.74327" lon="7.74841"><ele>263.0</ele><time>2026-05-01T11:26:40.355Z</time></trkpt><trkpt lat="44.743195" lon="7.748615"><ele>263.0</ele><time>2026-05-01T11:26:41.353Z</time></trkpt><trkpt lat="44.7431467" lon="7.7488433"><ele>263.0</ele><time>2026-05-01T11:26:42.354Z</time></trkpt><trkpt lat="44.7431117" lon="7.7490833"><ele>263.0</ele><time>2026-05-01T11:26:43.355Z</time></trkpt><trkpt lat="44.7430833" lon="7.7493333"><ele>263.0</ele><time>2026-05-01T11:26:44.352Z</time></trkpt><trkpt lat="44.743055" lon="7.7495833"><ele>263.0</ele><time>2026-05-01T11:26:45.356Z</time></trkpt><trkpt lat="44.743025" lon="7.74983"><ele>263.33333333333337</ele><time>2026-05-01T11:26:46.353Z</time></trkpt><trkpt lat="44.7429967" lon="7.7500717"><ele>263.6666666666667</ele><time>2026-05-01T11:26:47.351Z</time></trkpt><trkpt lat="44.7429683" lon="7.75031"><ele>264.0</ele><time>2026-05-01T11:26:48.353Z</time></trkpt><trkpt lat="44.7429383" lon="7.7505483"><ele>264.0</ele><time>2026-05-01T11:26:49.352Z</time></trkpt><trkpt lat="44.7429067" lon="7.750785"><ele>264.0</ele><time>2026-05-01T11:26:50.356Z</time></trkpt><trkpt lat="44.7428733" lon="7.7510117"><ele>264.0</ele><time>2026-05-01T11:26:51.355Z</time></trkpt><trkpt lat="44.742845" lon="7.751225"><ele>264.0</ele><time>2026-05-01T11:26:52.353Z</time></trkpt><trkpt lat="44.7428233" lon="7.75142"><ele>264.0</ele><time>2026-05-01T11:26:53.353Z</time></trkpt><trkpt lat="44.742815" lon="7.7516083"><ele>264.0</ele><time>2026-05-01T11:26:54.352Z</time></trkpt><trkpt lat="44.742825" lon="7.7518"><ele>264.0</ele><time>2026-05-01T11:26:55.355Z</time></trkpt><trkpt lat="44.7428533" lon="7.7519883"><ele>264.0</ele><time>2026-05-01T11:26:56.351Z</time></trkpt><trkpt lat="44.7428833" lon="7.752165"><ele>264.0</ele><time>2026-05-01T11:26:57.356Z</time></trkpt><trkpt lat="44.7429083" lon="7.75233"><ele>264.0</ele><time>2026-05-01T11:26:58.356Z</time></trkpt><trkpt lat="44.74292" lon="7.7524833"><ele>264.0</ele><time>2026-05-01T11:26:59.348Z</time></trkpt><trkpt lat="44.7429167" lon="7.7526367"><ele>264.0</ele><time>2026-05-01T11:27:00.355Z</time></trkpt><trkpt lat="44.7428967" lon="7.7527867"><ele>264.0</ele><time>2026-05-01T11:27:01.355Z</time></trkpt><trkpt lat="44.742855" lon="7.7529383"><ele>264.0</ele><time>2026-05-01T11:27:02.353Z</time></trkpt><trkpt lat="44.742805" lon="7.7531"><ele>264.0</ele><time>2026-05-01T11:27:03.356Z</time></trkpt><trkpt lat="44.7427467" lon="7.753265"><ele>264.25</ele><time>2026-05-01T11:27:04.352Z</time></trkpt><trkpt lat="44.74269" lon="7.75343"><ele>264.5</ele><time>2026-05-01T11:27:05.354Z</time></trkpt><trkpt lat="44.7426383" lon="7.75359"><ele>264.75</ele><time>2026-05-01T11:27:06.354Z</time></trkpt><trkpt lat="44.74259" lon="7.7537367"><ele>265.0</ele><time>2026-05-01T11:27:07.354Z</time></trkpt><trkpt lat="44.74255" lon="7.753865"><ele>265.2</ele><time>2026-05-01T11:27:08.352Z</time></trkpt><trkpt lat="44.7425167" lon="7.7539717"><ele>265.4</ele><time>2026-05-01T11:27:09.351Z</time></trkpt><trkpt lat="44.74249" lon="7.75406"><ele>265.6</ele><time>2026-05-01T11:27:10.354Z</time></trkpt><trkpt lat="44.7424533" lon="7.7542133"><ele>265.8</ele><time>2026-05-01T11:27:12.355Z</time></trkpt><trkpt lat="44.742435" lon="7.7543783"><ele>266.0</ele><time>2026-05-01T11:27:14.36Z</time></trkpt><trkpt lat="44.7424333" lon="7.754475"><ele>265.6666666666667</ele><time>2026-05-01T11:27:15.355Z</time></trkpt><trkpt lat="44.7424333" lon="7.754585"><ele>265.33333333333337</ele><time>2026-05-01T11:27:16.352Z</time></trkpt><trkpt lat="44.7424383" lon="7.7547033"><ele>265.0</ele><time>2026-05-01T11:27:17.355Z</time></trkpt><trkpt lat="44.74245" lon="7.75483"><ele>264.6666666666667</ele><time>2026-05-01T11:27:18.353Z</time></trkpt><trkpt lat="44.7424617" lon="7.75496"><ele>264.3333333333333</ele><time>2026-05-01T11:27:19.358Z</time></trkpt><trkpt lat="44.74247" lon="7.7550933"><ele>264.0</ele><time>2026-05-01T11:27:20.358Z</time></trkpt><trkpt lat="44.7424817" lon="7.7552367"><ele>264.0</ele><time>2026-05-01T11:27:21.354Z</time></trkpt><trkpt lat="44.742495" lon="7.7553933"><ele>264.0</ele><time>2026-05-01T11:27:22.356Z</time></trkpt><trkpt lat="44.7425083" lon="7.7555617"><ele>264.0</ele><time>2026-05-01T11:27:23.356Z</time></trkpt><trkpt lat="44.742525" lon="7.755745"><ele>264.0</ele><time>2026-05-01T11:27:24.354Z</time></trkpt><trkpt lat="44.7425417" lon="7.7559417"><ele>264.0</ele><time>2026-05-01T11:27:25.354Z</time></trkpt><trkpt lat="44.7425583" lon="7.756155"><ele>264.0</ele><time>2026-05-01T11:27:26.351Z</time></trkpt><trkpt lat="44.7425783" lon="7.7563883"><ele>264.0</ele><time>2026-05-01T11:27:27.354Z</time></trkpt><trkpt lat="44.7426" lon="7.7566383"><ele>264.0</ele><time>2026-05-01T11:27:28.354Z</time></trkpt><trkpt lat="44.74262" lon="7.756895"><ele>264.0</ele><time>2026-05-01T11:27:29.354Z</time></trkpt><trkpt lat="44.7426467" lon="7.7571517"><ele>264.0</ele><time>2026-05-01T11:27:30.354Z</time></trkpt><trkpt lat="44.74267" lon="7.7574183"><ele>264.0</ele><time>2026-05-01T11:27:31.351Z</time></trkpt><trkpt lat="44.7426933" lon="7.7576967"><ele>264.0</ele><time>2026-05-01T11:27:32.353Z</time></trkpt><trkpt lat="44.7427167" lon="7.7579867"><ele>264.0</ele><time>2026-05-01T11:27:33.365Z</time></trkpt><trkpt lat="44.7427383" lon="7.7582833"><ele>264.0</ele><time>2026-05-01T11:27:34.35Z</time></trkpt><trkpt lat="44.7427617" lon="7.7585817"><ele>264.0</ele><time>2026-05-01T11:27:35.354Z</time></trkpt><trkpt lat="44.742785" lon="7.7588767"><ele>264.0</ele><time>2026-05-01T11:27:36.356Z</time></trkpt><trkpt lat="44.7428067" lon="7.75917"><ele>264.0</ele><time>2026-05-01T11:27:37.354Z</time></trkpt><trkpt lat="44.7428283" lon="7.7594583"><ele>264.0</ele><time>2026-05-01T11:27:38.358Z</time></trkpt><trkpt lat="44.7428517" lon="7.7597367"><ele>264.0</ele><time>2026-05-01T11:27:39.352Z</time></trkpt><trkpt lat="44.7428733" lon="7.76001"><ele>264.0</ele><time>2026-05-01T11:27:40.354Z</time></trkpt><trkpt lat="44.7429" lon="7.7602733"><ele>264.0</ele><time>2026-05-01T11:27:41.352Z</time></trkpt><trkpt lat="44.7429367" lon="7.760525"><ele>264.0</ele><time>2026-05-01T11:27:42.353Z</time></trkpt><trkpt lat="44.7429883" lon="7.76077"><ele>264.0</ele><time>2026-05-01T11:27:43.351Z</time></trkpt><trkpt lat="44.7430633" lon="7.7610017"><ele>264.0</ele><time>2026-05-01T11:27:44.352Z</time></trkpt><trkpt lat="44.7431533" lon="7.761225"><ele>264.0</ele><time>2026-05-01T11:27:45.354Z</time></trkpt><trkpt lat="44.7432433" lon="7.761435"><ele>264.3333333333333</ele><time>2026-05-01T11:27:46.353Z</time></trkpt><trkpt lat="44.74333" lon="7.761635"><ele>264.66666666666663</ele><time>2026-05-01T11:27:47.353Z</time></trkpt><trkpt lat="44.74341" lon="7.7618167"><ele>265.0</ele><time>2026-05-01T11:27:48.353Z</time></trkpt><trkpt lat="44.7434817" lon="7.7619733"><ele>265.0</ele><time>2026-05-01T11:27:49.35Z</time></trkpt><trkpt lat="44.7435433" lon="7.762105"><ele>265.0</ele><time>2026-05-01T11:27:50.35Z</time></trkpt><trkpt lat="44.7435683" lon="7.76219"><ele>265.0</ele><time>2026-05-01T11:27:51.352Z</time></trkpt><trkpt lat="44.74356" lon="7.76231"><ele>265.0</ele><time>2026-05-01T11:27:53.356Z</time></trkpt><trkpt lat="44.74347" lon="7.7623867"><ele>265.0</ele><time>2026-05-01T11:27:55.356Z</time></trkpt><trkpt lat="44.74338" lon="7.7624083"><ele>265.25</ele><time>2026-05-01T11:27:56.353Z</time></trkpt><trkpt lat="44.7432667" lon="7.76242"><ele>265.5</ele><time>2026-05-01T11:27:57.354Z</time></trkpt><trkpt lat="44.743135" lon="7.7624283"><ele>265.75</ele><time>2026-05-01T11:27:58.358Z</time></trkpt><trkpt lat="44.7429917" lon="7.7624383"><ele>266.0</ele><time>2026-05-01T11:27:59.351Z</time></trkpt><trkpt lat="44.7428383" lon="7.7624517"><ele>265.6666666666667</ele><time>2026-05-01T11:28:00.353Z</time></trkpt><trkpt lat="44.7426767" lon="7.7624617"><ele>265.3333333333333</ele><time>2026-05-01T11:28:01.355Z</time></trkpt><trkpt lat="44.7425183" lon="7.762475"><ele>265.0</ele><time>2026-05-01T11:28:02.349Z</time></trkpt><trkpt lat="44.7423667" lon="7.762485"><ele>265.0</ele><time>2026-05-01T11:28:03.35Z</time></trkpt><trkpt lat="44.7422267" lon="7.762495"><ele>265.0</ele><time>2026-05-01T11:28:04.354Z</time></trkpt><trkpt lat="44.742105" lon="7.7625017"><ele>265.0</ele><time>2026-05-01T11:28:05.351Z</time></trkpt><trkpt lat="44.7420067" lon="7.7625017"><ele>265.0</ele><time>2026-05-01T11:28:06.353Z</time></trkpt><trkpt lat="44.7419383" lon="7.762495"><ele>265.0</ele><time>2026-05-01T11:28:07.349Z</time></trkpt><trkpt lat="44.7418683" lon="7.7624717"><ele>264.8333333333333</ele><time>2026-05-01T11:28:09.354Z</time></trkpt><trkpt lat="44.7418217" lon="7.7623933"><ele>264.66666666666663</ele><time>2026-05-01T11:28:26.355Z</time></trkpt><trkpt lat="44.741755" lon="7.7622867"><ele>264.5</ele><time>2026-05-01T11:28:28.353Z</time></trkpt><trkpt lat="44.7417133" lon="7.7622183"><ele>264.3333333333333</ele><time>2026-05-01T11:28:29.349Z</time></trkpt><trkpt lat="44.7416733" lon="7.7621467"><ele>264.1666666666667</ele><time>2026-05-01T11:28:30.349Z</time></trkpt><trkpt lat="44.7416017" lon="7.76199"><ele>264.0</ele><time>2026-05-01T11:28:32.353Z</time></trkpt><trkpt lat="44.741565" lon="7.7619033"><ele>264.0</ele><time>2026-05-01T11:28:33.354Z</time></trkpt><trkpt lat="44.74153" lon="7.7618167"><ele>264.0</ele><time>2026-05-01T11:28:34.35Z</time></trkpt><trkpt lat="44.741495" lon="7.761735"><ele>264.0</ele><time>2026-05-01T11:28:35.352Z</time></trkpt><trkpt lat="44.7414567" lon="7.7616517"><ele>264.0</ele><time>2026-05-01T11:28:36.352Z</time></trkpt><trkpt lat="44.74142" lon="7.761565"><ele>264.0</ele><time>2026-05-01T11:28:37.353Z</time></trkpt><trkpt lat="44.74138" lon="7.7614733"><ele>264.0</ele><time>2026-05-01T11:28:38.351Z</time></trkpt><trkpt lat="44.7413383" lon="7.7613817"><ele>264.0</ele><time>2026-05-01T11:28:39.355Z</time></trkpt><trkpt lat="44.7412967" lon="7.7612933"><ele>264.0</ele><time>2026-05-01T11:28:40.354Z</time></trkpt><trkpt lat="44.7412583" lon="7.7612117"><ele>264.0</ele><time>2026-05-01T11:28:41.355Z</time></trkpt><trkpt lat="44.7411917" lon="7.7610783"><ele>264.0</ele><time>2026-05-01T11:28:43.351Z</time></trkpt><trkpt lat="44.741145" lon="7.76097"><ele>264.0</ele><time>2026-05-01T11:28:45.357Z</time></trkpt><trkpt lat="44.741095" lon="7.76086"><ele>264.0</ele><time>2026-05-01T11:28:47.356Z</time></trkpt><trkpt lat="44.7410267" lon="7.7607167"><ele>264.3333333333333</ele><time>2026-05-01T11:28:49.356Z</time></trkpt><trkpt lat="44.7409817" lon="7.7606333"><ele>264.6666666666667</ele><time>2026-05-01T11:28:50.355Z</time></trkpt><trkpt lat="44.7409333" lon="7.7605483"><ele>265.0</ele><time>2026-05-01T11:28:51.356Z</time></trkpt><trkpt lat="44.74088" lon="7.760465"><ele>265.33333333333337</ele><time>2026-05-01T11:28:52.355Z</time></trkpt><trkpt lat="44.7408283" lon="7.7603833"><ele>265.6666666666667</ele><time>2026-05-01T11:28:53.35Z</time></trkpt><trkpt lat="44.740775" lon="7.7603033"><ele>266.0</ele><time>2026-05-01T11:28:54.356Z</time></trkpt><trkpt lat="44.7407217" lon="7.7602267"><ele>265.8</ele><time>2026-05-01T11:28:55.35Z</time></trkpt><trkpt lat="44.7406733" lon="7.7601583"><ele>265.6</ele><time>2026-05-01T11:28:56.354Z</time></trkpt><trkpt lat="44.7405933" lon="7.76004"><ele>265.4</ele><time>2026-05-01T11:28:58.354Z</time></trkpt><trkpt lat="44.740515" lon="7.759925"><ele>265.2</ele><time>2026-05-01T11:29:00.353Z</time></trkpt><trkpt lat="44.7404233" lon="7.7597983"><ele>265.0</ele><time>2026-05-01T11:29:02.353Z</time></trkpt><trkpt lat="44.74037" lon="7.7597267"><ele>265.0</ele><time>2026-05-01T11:29:03.353Z</time></trkpt><trkpt lat="44.740315" lon="7.7596517"><ele>265.0</ele><time>2026-05-01T11:29:04.355Z</time></trkpt><trkpt lat="44.740255" lon="7.7595783"><ele>265.0</ele><time>2026-05-01T11:29:05.349Z</time></trkpt><trkpt lat="44.7401917" lon="7.7595067"><ele>265.0</ele><time>2026-05-01T11:29:06.354Z</time></trkpt><trkpt lat="44.74013" lon="7.75944"><ele>265.0</ele><time>2026-05-01T11:29:07.356Z</time></trkpt><trkpt lat="44.740065" lon="7.7593733"><ele>265.0</ele><time>2026-05-01T11:29:08.352Z</time></trkpt><trkpt lat="44.7399933" lon="7.7593083"><ele>265.0</ele><time>2026-05-01T11:29:09.356Z</time></trkpt><trkpt lat="44.7399267" lon="7.7592467"><ele>265.0</ele><time>2026-05-01T11:29:10.351Z</time></trkpt><trkpt lat="44.739865" lon="7.759195"><ele>265.0</ele><time>2026-05-01T11:29:11.351Z</time></trkpt><trkpt lat="44.7397983" lon="7.7591433"><ele>265.0</ele><time>2026-05-01T11:29:12.352Z</time></trkpt><trkpt lat="44.7397283" lon="7.7590867"><ele>265.0</ele><time>2026-05-01T11:29:13.354Z</time></trkpt><trkpt lat="44.7396517" lon="7.7590317"><ele>265.0</ele><time>2026-05-01T11:29:14.352Z</time></trkpt><trkpt lat="44.7395833" lon="7.7589817"><ele>265.0</ele><time>2026-05-01T11:29:15.349Z</time></trkpt><trkpt lat="44.7395183" lon="7.758935"><ele>265.0</ele><time>2026-05-01T11:29:16.352Z</time></trkpt><trkpt lat="44.739455" lon="7.7588883"><ele>265.0</ele><time>2026-05-01T11:29:17.354Z</time></trkpt><trkpt lat="44.7393967" lon="7.7588417"><ele>265.0</ele><time>2026-05-01T11:29:18.355Z</time></trkpt><trkpt lat="44.7393017" lon="7.7587983"><ele>265.0</ele><time>2026-05-01T11:29:20.354Z</time></trkpt><trkpt lat="44.7392167" lon="7.758835"><ele>265.0</ele><time>2026-05-01T11:29:22.357Z</time></trkpt><trkpt lat="44.7391417" lon="7.758865"><ele>265.0</ele><time>2026-05-01T11:29:23.355Z</time></trkpt><trkpt lat="44.739045" lon="7.7588983"><ele>265.0</ele><time>2026-05-01T11:29:24.353Z</time></trkpt><trkpt lat="44.7389267" lon="7.75893"><ele>265.0</ele><time>2026-05-01T11:29:25.349Z</time></trkpt><trkpt lat="44.7388067" lon="7.758965"><ele>265.0</ele><time>2026-05-01T11:29:26.354Z</time></trkpt><trkpt lat="44.7386833" lon="7.7589933"><ele>265.0</ele><time>2026-05-01T11:29:27.35Z</time></trkpt><trkpt lat="44.7385533" lon="7.75902"><ele>265.0</ele><time>2026-05-01T11:29:28.351Z</time></trkpt><trkpt lat="44.738425" lon="7.7590517"><ele>265.0</ele><time>2026-05-01T11:29:29.351Z</time></trkpt><trkpt lat="44.7383083" lon="7.75908"><ele>265.0</ele><time>2026-05-01T11:29:30.352Z</time></trkpt><trkpt lat="44.7382017" lon="7.75911"><ele>265.0</ele><time>2026-05-01T11:29:31.352Z</time></trkpt><trkpt lat="44.7381067" lon="7.7591383"><ele>265.0</ele><time>2026-05-01T11:29:32.349Z</time></trkpt><trkpt lat="44.7380267" lon="7.75915"><ele>265.0</ele><time>2026-05-01T11:29:33.35Z</time></trkpt><trkpt lat="44.737955" lon="7.759145"><ele>265.0</ele><time>2026-05-01T11:29:34.353Z</time></trkpt><trkpt lat="44.7378833" lon="7.7591217"><ele>265.0</ele><time>2026-05-01T11:29:35.355Z</time></trkpt><trkpt lat="44.7378033" lon="7.7590967"><ele>265.0</ele><time>2026-05-01T11:29:36.349Z</time></trkpt><trkpt lat="44.73771" lon="7.759095"><ele>265.25</ele><time>2026-05-01T11:29:37.35Z</time></trkpt><trkpt lat="44.7375967" lon="7.759125"><ele>265.5</ele><time>2026-05-01T11:29:38.35Z</time></trkpt><trkpt lat="44.7374783" lon="7.75918"><ele>265.75</ele><time>2026-05-01T11:29:39.356Z</time></trkpt><trkpt lat="44.737355" lon="7.7592633"><ele>266.0</ele><time>2026-05-01T11:29:40.354Z</time></trkpt><trkpt lat="44.7372317" lon="7.7593617"><ele>266.0</ele><time>2026-05-01T11:29:41.352Z</time></trkpt><trkpt lat="44.7371067" lon="7.75947"><ele>266.0</ele><time>2026-05-01T11:29:42.351Z</time></trkpt><trkpt lat="44.7369683" lon="7.7595933"><ele>266.0</ele><time>2026-05-01T11:29:43.35Z</time></trkpt><trkpt lat="44.73682" lon="7.7597283"><ele>266.0</ele><time>2026-05-01T11:29:44.351Z</time></trkpt><trkpt lat="44.7366683" lon="7.7598667"><ele>266.0</ele><time>2026-05-01T11:29:45.353Z</time></trkpt><trkpt lat="44.7365117" lon="7.7600083"><ele>266.0</ele><time>2026-05-01T11:29:46.35Z</time></trkpt><trkpt lat="44.7363483" lon="7.76015"><ele>266.0</ele><time>2026-05-01T11:29:47.356Z</time></trkpt><trkpt lat="44.7361783" lon="7.760295"><ele>266.0</ele><time>2026-05-01T11:29:48.354Z</time></trkpt><trkpt lat="44.7359933" lon="7.7604367"><ele>266.0</ele><time>2026-05-01T11:29:49.355Z</time></trkpt><trkpt lat="44.7357917" lon="7.7605683"><ele>266.5</ele><time>2026-05-01T11:29:50.354Z</time></trkpt><trkpt lat="44.7355783" lon="7.7606983"><ele>267.0</ele><time>2026-05-01T11:29:51.351Z</time></trkpt><trkpt lat="44.7353617" lon="7.76082"><ele>266.5</ele><time>2026-05-01T11:29:52.351Z</time></trkpt><trkpt lat="44.7351467" lon="7.7609383"><ele>266.0</ele><time>2026-05-01T11:29:53.352Z</time></trkpt><trkpt lat="44.73493" lon="7.76104"><ele>265.0</ele><time>2026-05-01T11:29:54.352Z</time></trkpt><trkpt lat="44.734705" lon="7.7611183"><ele>264.0</ele><time>2026-05-01T11:29:55.352Z</time></trkpt><trkpt lat="44.73447" lon="7.7611683"><ele>264.0</ele><time>2026-05-01T11:29:56.356Z</time></trkpt><trkpt lat="44.73423" lon="7.7611983"><ele>264.0</ele><time>2026-05-01T11:29:57.356Z</time></trkpt><trkpt lat="44.7339833" lon="7.7612317"><ele>264.0</ele><time>2026-05-01T11:29:58.351Z</time></trkpt><trkpt lat="44.7337333" lon="7.7612667"><ele>264.0</ele><time>2026-05-01T11:29:59.354Z</time></trkpt><trkpt lat="44.73348" lon="7.7612983"><ele>265.5</ele><time>2026-05-01T11:30:00.357Z</time></trkpt><trkpt lat="44.7332217" lon="7.7613233"><ele>267.0</ele><time>2026-05-01T11:30:01.357Z</time></trkpt><trkpt lat="44.73296" lon="7.7613433"><ele>267.0</ele><time>2026-05-01T11:30:02.353Z</time></trkpt><trkpt lat="44.7326983" lon="7.7613583"><ele>267.0</ele><time>2026-05-01T11:30:03.354Z</time></trkpt><trkpt lat="44.7324383" lon="7.7613667"><ele>267.0</ele><time>2026-05-01T11:30:04.352Z</time></trkpt><trkpt lat="44.732175" lon="7.761375"><ele>267.0</ele><time>2026-05-01T11:30:05.354Z</time></trkpt><trkpt lat="44.73191" lon="7.7613883"><ele>266.5</ele><time>2026-05-01T11:30:06.351Z</time></trkpt><trkpt lat="44.7316417" lon="7.7614017"><ele>266.0</ele><time>2026-05-01T11:30:07.357Z</time></trkpt><trkpt lat="44.7313683" lon="7.761415"><ele>266.0</ele><time>2026-05-01T11:30:08.353Z</time></trkpt><trkpt lat="44.731095" lon="7.7614283"><ele>266.0</ele><time>2026-05-01T11:30:09.354Z</time></trkpt><trkpt lat="44.73082" lon="7.7614383"><ele>266.5</ele><time>2026-05-01T11:30:10.353Z</time></trkpt><trkpt lat="44.7305467" lon="7.761445"><ele>267.0</ele><time>2026-05-01T11:30:11.35Z</time></trkpt><trkpt lat="44.730275" lon="7.761455"><ele>266.5</ele><time>2026-05-01T11:30:12.349Z</time></trkpt><trkpt lat="44.73001" lon="7.7614667"><ele>266.0</ele><time>2026-05-01T11:30:13.352Z</time></trkpt><trkpt lat="44.7297433" lon="7.7614767"><ele>266.0</ele><time>2026-05-01T11:30:14.35Z</time></trkpt><trkpt lat="44.7294833" lon="7.7614817"><ele>266.0</ele><time>2026-05-01T11:30:15.353Z</time></trkpt><trkpt lat="44.72923" lon="7.7614917"><ele>266.5</ele><time>2026-05-01T11:30:16.352Z</time></trkpt><trkpt lat="44.7289817" lon="7.76151"><ele>267.0</ele><time>2026-05-01T11:30:17.355Z</time></trkpt><trkpt lat="44.7287417" lon="7.7615433"><ele>267.5</ele><time>2026-05-01T11:30:18.36Z</time></trkpt><trkpt lat="44.72851" lon="7.7615917"><ele>268.0</ele><time>2026-05-01T11:30:19.352Z</time></trkpt><trkpt lat="44.7282817" lon="7.7616533"><ele>268.0</ele><time>2026-05-01T11:30:20.358Z</time></trkpt><trkpt lat="44.72805" lon="7.7617233"><ele>268.0</ele><time>2026-05-01T11:30:21.361Z</time></trkpt><trkpt lat="44.72782" lon="7.7617933"><ele>268.0</ele><time>2026-05-01T11:30:22.353Z</time></trkpt><trkpt lat="44.72759" lon="7.7618617"><ele>268.0</ele><time>2026-05-01T11:30:23.353Z</time></trkpt><trkpt lat="44.7273617" lon="7.7619283"><ele>268.0</ele><time>2026-05-01T11:30:24.355Z</time></trkpt><trkpt lat="44.7271333" lon="7.761995"><ele>268.0</ele><time>2026-05-01T11:30:25.353Z</time></trkpt><trkpt lat="44.726905" lon="7.7620617"><ele>268.0</ele><time>2026-05-01T11:30:26.35Z</time></trkpt><trkpt lat="44.7266867" lon="7.762125"><ele>268.0</ele><time>2026-05-01T11:30:27.354Z</time></trkpt><trkpt lat="44.7264817" lon="7.7621817"><ele>268.0</ele><time>2026-05-01T11:30:28.351Z</time></trkpt><trkpt lat="44.726295" lon="7.7622367"><ele>268.0</ele><time>2026-05-01T11:30:29.352Z</time></trkpt><trkpt lat="44.7261267" lon="7.7623083"><ele>268.0</ele><time>2026-05-01T11:30:30.354Z</time></trkpt><trkpt lat="44.7259783" lon="7.762415"><ele>268.0</ele><time>2026-05-01T11:30:31.356Z</time></trkpt><trkpt lat="44.7258467" lon="7.762565"><ele>268.0</ele><time>2026-05-01T11:30:32.353Z</time></trkpt><trkpt lat="44.72572" lon="7.76276"><ele>268.0</ele><time>2026-05-01T11:30:33.355Z</time></trkpt><trkpt lat="44.7255883" lon="7.7629733"><ele>268.0</ele><time>2026-05-01T11:30:34.355Z</time></trkpt><trkpt lat="44.7254517" lon="7.7632017"><ele>268.0</ele><time>2026-05-01T11:30:35.354Z</time></trkpt><trkpt lat="44.72531" lon="7.7634367"><ele>268.0</ele><time>2026-05-01T11:30:36.354Z</time></trkpt><trkpt lat="44.725165" lon="7.763685"><ele>268.0</ele><time>2026-05-01T11:30:37.353Z</time></trkpt><trkpt lat="44.7250167" lon="7.7639317"><ele>268.5</ele><time>2026-05-01T11:30:38.355Z</time></trkpt><trkpt lat="44.72487" lon="7.7641783"><ele>269.0</ele><time>2026-05-01T11:30:39.355Z</time></trkpt><trkpt lat="44.7247183" lon="7.764425"><ele>268.33333333333337</ele><time>2026-05-01T11:30:40.352Z</time></trkpt><trkpt lat="44.7245717" lon="7.7646717"><ele>267.6666666666667</ele><time>2026-05-01T11:30:41.352Z</time></trkpt><trkpt lat="44.72443" lon="7.76491"><ele>267.0</ele><time>2026-05-01T11:30:42.352Z</time></trkpt><trkpt lat="44.7242917" lon="7.7651433"><ele>267.6666666666667</ele><time>2026-05-01T11:30:43.351Z</time></trkpt><trkpt lat="44.724155" lon="7.7653717"><ele>268.33333333333337</ele><time>2026-05-01T11:30:44.352Z</time></trkpt><trkpt lat="44.7240233" lon="7.7655917"><ele>269.0</ele><time>2026-05-01T11:30:45.356Z</time></trkpt><trkpt lat="44.7238917" lon="7.7658117"><ele>269.6666666666667</ele><time>2026-05-01T11:30:46.353Z</time></trkpt><trkpt lat="44.72376" lon="7.766035"><ele>270.3333333333333</ele><time>2026-05-01T11:30:47.352Z</time></trkpt><trkpt lat="44.7236233" lon="7.7662667"><ele>271.0</ele><time>2026-05-01T11:30:48.35Z</time></trkpt><trkpt lat="44.7234817" lon="7.766505"><ele>270.66666666666663</ele><time>2026-05-01T11:30:49.353Z</time></trkpt><trkpt lat="44.7233367" lon="7.7667417"><ele>270.3333333333333</ele><time>2026-05-01T11:30:50.353Z</time></trkpt><trkpt lat="44.7231883" lon="7.7669833"><ele>270.0</ele><time>2026-05-01T11:30:51.353Z</time></trkpt><trkpt lat="44.7230433" lon="7.7672317"><ele>270.0</ele><time>2026-05-01T11:30:52.35Z</time></trkpt><trkpt lat="44.7228933" lon="7.76748"><ele>270.0</ele><time>2026-05-01T11:30:53.353Z</time></trkpt><trkpt lat="44.72274" lon="7.7677317"><ele>270.5</ele><time>2026-05-01T11:30:54.353Z</time></trkpt><trkpt lat="44.722585" lon="7.7679883"><ele>271.0</ele><time>2026-05-01T11:30:55.349Z</time></trkpt><trkpt lat="44.72244" lon="7.7682367"><ele>271.0</ele><time>2026-05-01T11:30:56.354Z</time></trkpt><trkpt lat="44.7223067" lon="7.7684733"><ele>271.0</ele><time>2026-05-01T11:30:57.354Z</time></trkpt><trkpt lat="44.7221733" lon="7.7686967"><ele>271.0</ele><time>2026-05-01T11:30:58.353Z</time></trkpt><trkpt lat="44.7220283" lon="7.768905"><ele>271.0</ele><time>2026-05-01T11:30:59.351Z</time></trkpt><trkpt lat="44.7218633" lon="7.7690983"><ele>271.0</ele><time>2026-05-01T11:31:00.356Z</time></trkpt><trkpt lat="44.7216833" lon="7.7692633"><ele>271.0</ele><time>2026-05-01T11:31:01.36Z</time></trkpt><trkpt lat="44.7214933" lon="7.7694083"><ele>271.3333333333333</ele><time>2026-05-01T11:31:02.351Z</time></trkpt><trkpt lat="44.721295" lon="7.769545"><ele>271.6666666666667</ele><time>2026-05-01T11:31:03.356Z</time></trkpt><trkpt lat="44.7211" lon="7.7696683"><ele>272.0</ele><time>2026-05-01T11:31:04.354Z</time></trkpt><trkpt lat="44.7209133" lon="7.7697817"><ele>272.0</ele><time>2026-05-01T11:31:05.349Z</time></trkpt><trkpt lat="44.7207417" lon="7.7698867"><ele>272.0</ele><time>2026-05-01T11:31:06.356Z</time></trkpt><trkpt lat="44.7206" lon="7.7699817"><ele>272.0</ele><time>2026-05-01T11:31:07.351Z</time></trkpt><trkpt lat="44.7204867" lon="7.7700767"><ele>272.0</ele><time>2026-05-01T11:31:08.352Z</time></trkpt><trkpt lat="44.7204017" lon="7.770195"><ele>272.0</ele><time>2026-05-01T11:31:09.353Z</time></trkpt><trkpt lat="44.7203467" lon="7.77034"><ele>272.0</ele><time>2026-05-01T11:31:10.355Z</time></trkpt><trkpt lat="44.7203183" lon="7.7705117"><ele>272.0</ele><time>2026-05-01T11:31:11.357Z</time></trkpt><trkpt lat="44.7203033" lon="7.7707117"><ele>272.0</ele><time>2026-05-01T11:31:12.352Z</time></trkpt><trkpt lat="44.7203" lon="7.7709167"><ele>272.0</ele><time>2026-05-01T11:31:13.352Z</time></trkpt><trkpt lat="44.720315" lon="7.7711183"><ele>272.0</ele><time>2026-05-01T11:31:14.352Z</time></trkpt><trkpt lat="44.7203433" lon="7.7713217"><ele>272.0</ele><time>2026-05-01T11:31:15.35Z</time></trkpt><trkpt lat="44.7203883" lon="7.7715283"><ele>272.0</ele><time>2026-05-01T11:31:16.357Z</time></trkpt><trkpt lat="44.7204433" lon="7.771745"><ele>272.0</ele><time>2026-05-01T11:31:17.353Z</time></trkpt><trkpt lat="44.7205067" lon="7.77198"><ele>272.0</ele><time>2026-05-01T11:31:18.354Z</time></trkpt><trkpt lat="44.720575" lon="7.7722317"><ele>272.0</ele><time>2026-05-01T11:31:19.353Z</time></trkpt><trkpt lat="44.7206483" lon="7.7724933"><ele>272.0</ele><time>2026-05-01T11:31:20.356Z</time></trkpt><trkpt lat="44.7207233" lon="7.7727667"><ele>272.0</ele><time>2026-05-01T11:31:21.355Z</time></trkpt><trkpt lat="44.7208017" lon="7.7730533"><ele>272.0</ele><time>2026-05-01T11:31:22.353Z</time></trkpt><trkpt lat="44.7208817" lon="7.7733517"><ele>272.0</ele><time>2026-05-01T11:31:23.355Z</time></trkpt><trkpt lat="44.7209617" lon="7.7736583"><ele>272.5</ele><time>2026-05-01T11:31:24.354Z</time></trkpt><trkpt lat="44.7210433" lon="7.77397"><ele>273.0</ele><time>2026-05-01T11:31:25.35Z</time></trkpt><trkpt lat="44.7211267" lon="7.7742883"><ele>272.5</ele><time>2026-05-01T11:31:26.351Z</time></trkpt><trkpt lat="44.7212117" lon="7.7746133"><ele>272.0</ele><time>2026-05-01T11:31:27.353Z</time></trkpt><trkpt lat="44.7213017" lon="7.7749433"><ele>271.0</ele><time>2026-05-01T11:31:28.355Z</time></trkpt><trkpt lat="44.7213917" lon="7.7752733"><ele>270.0</ele><time>2026-05-01T11:31:29.352Z</time></trkpt><trkpt lat="44.72148" lon="7.7755967"><ele>270.0</ele><time>2026-05-01T11:31:30.35Z</time></trkpt><trkpt lat="44.721565" lon="7.77591"><ele>270.0</ele><time>2026-05-01T11:31:31.353Z</time></trkpt><trkpt lat="44.721645" lon="7.7762067"><ele>270.6666666666667</ele><time>2026-05-01T11:31:32.353Z</time></trkpt><trkpt lat="44.72172" lon="7.7764867"><ele>271.33333333333337</ele><time>2026-05-01T11:31:33.353Z</time></trkpt><trkpt lat="44.7217933" lon="7.7767533"><ele>272.0</ele><time>2026-05-01T11:31:34.351Z</time></trkpt><trkpt lat="44.7218617" lon="7.777005"><ele>272.33333333333337</ele><time>2026-05-01T11:31:35.355Z</time></trkpt><trkpt lat="44.721925" lon="7.77724"><ele>272.6666666666667</ele><time>2026-05-01T11:31:36.356Z</time></trkpt><trkpt lat="44.7219767" lon="7.77745"><ele>273.0</ele><time>2026-05-01T11:31:37.358Z</time></trkpt><trkpt lat="44.7220117" lon="7.7776333"><ele>273.0</ele><time>2026-05-01T11:31:38.355Z</time></trkpt><trkpt lat="44.7220233" lon="7.7777933"><ele>273.0</ele><time>2026-05-01T11:31:39.358Z</time></trkpt><trkpt lat="44.7220017" lon="7.7779283"><ele>273.0</ele><time>2026-05-01T11:31:40.349Z</time></trkpt><trkpt lat="44.7219433" lon="7.7780333"><ele>273.0</ele><time>2026-05-01T11:31:41.351Z</time></trkpt><trkpt lat="44.7218617" lon="7.7781067"><ele>273.0</ele><time>2026-05-01T11:31:42.35Z</time></trkpt><trkpt lat="44.72177" lon="7.7781633"><ele>272.6</ele><time>2026-05-01T11:31:43.351Z</time></trkpt><trkpt lat="44.7216767" lon="7.778215"><ele>272.20000000000005</ele><time>2026-05-01T11:31:44.35Z</time></trkpt><trkpt lat="44.7215783" lon="7.7782617"><ele>271.8</ele><time>2026-05-01T11:31:45.354Z</time></trkpt><trkpt lat="44.7214733" lon="7.7783117"><ele>271.40000000000003</ele><time>2026-05-01T11:31:46.353Z</time></trkpt><trkpt lat="44.72137" lon="7.77838"><ele>271.0</ele><time>2026-05-01T11:31:47.349Z</time></trkpt><trkpt lat="44.7212733" lon="7.7784783"><ele>270.75</ele><time>2026-05-01T11:31:48.351Z</time></trkpt><trkpt lat="44.7211867" lon="7.77859"><ele>270.5</ele><time>2026-05-01T11:31:49.349Z</time></trkpt><trkpt lat="44.7211067" lon="7.7787117"><ele>270.25</ele><time>2026-05-01T11:31:50.349Z</time></trkpt><trkpt lat="44.72104" lon="7.77884"><ele>270.0</ele><time>2026-05-01T11:31:51.355Z</time></trkpt><trkpt lat="44.72099" lon="7.7789817"><ele>270.4</ele><time>2026-05-01T11:31:52.349Z</time></trkpt><trkpt lat="44.72096" lon="7.7791383"><ele>270.8</ele><time>2026-05-01T11:31:53.353Z</time></trkpt><trkpt lat="44.7209467" lon="7.7792933"><ele>271.2</ele><time>2026-05-01T11:31:54.35Z</time></trkpt><trkpt lat="44.7209367" lon="7.7794433"><ele>271.6</ele><time>2026-05-01T11:31:55.35Z</time></trkpt><trkpt lat="44.720915" lon="7.7795917"><ele>272.0</ele><time>2026-05-01T11:31:56.356Z</time></trkpt><trkpt lat="44.7208667" lon="7.7797317"><ele>272.0</ele><time>2026-05-01T11:31:57.349Z</time></trkpt><trkpt lat="44.720785" lon="7.7798483"><ele>272.0</ele><time>2026-05-01T11:31:58.35Z</time></trkpt><trkpt lat="44.7206867" lon="7.7799617"><ele>272.0</ele><time>2026-05-01T11:31:59.349Z</time></trkpt><trkpt lat="44.72058" lon="7.78008"><ele>272.0</ele><time>2026-05-01T11:32:00.35Z</time></trkpt><trkpt lat="44.7204667" lon="7.7801817"><ele>270.75</ele><time>2026-05-01T11:32:01.358Z</time></trkpt><trkpt lat="44.720345" lon="7.7802717"><ele>269.5</ele><time>2026-05-01T11:32:02.349Z</time></trkpt><trkpt lat="44.7202167" lon="7.7803467"><ele>268.25</ele><time>2026-05-01T11:32:03.349Z</time></trkpt><trkpt lat="44.720085" lon="7.78041"><ele>267.0</ele><time>2026-05-01T11:32:04.349Z</time></trkpt><trkpt lat="44.7199483" lon="7.780465"><ele>267.0</ele><time>2026-05-01T11:32:05.349Z</time></trkpt><trkpt lat="44.71981" lon="7.78052"><ele>267.0</ele><time>2026-05-01T11:32:06.352Z</time></trkpt><trkpt lat="44.7196817" lon="7.780585"><ele>267.0</ele><time>2026-05-01T11:32:07.35Z</time></trkpt><trkpt lat="44.71956" lon="7.7806733"><ele>267.0</ele><time>2026-05-01T11:32:08.35Z</time></trkpt><trkpt lat="44.7194517" lon="7.780785"><ele>267.75</ele><time>2026-05-01T11:32:09.354Z</time></trkpt><trkpt lat="44.7193517" lon="7.7809033"><ele>268.5</ele><time>2026-05-01T11:32:10.353Z</time></trkpt><trkpt lat="44.71925" lon="7.78103"><ele>269.25</ele><time>2026-05-01T11:32:11.353Z</time></trkpt><trkpt lat="44.719145" lon="7.78115"><ele>270.0</ele><time>2026-05-01T11:32:12.351Z</time></trkpt><trkpt lat="44.719045" lon="7.7812667"><ele>270.0</ele><time>2026-05-01T11:32:13.351Z</time></trkpt><trkpt lat="44.7189483" lon="7.78137"><ele>270.0</ele><time>2026-05-01T11:32:14.352Z</time></trkpt><trkpt lat="44.718855" lon="7.78146"><ele>270.0</ele><time>2026-05-01T11:32:15.357Z</time></trkpt><trkpt lat="44.7187617" lon="7.7815383"><ele>270.0</ele><time>2026-05-01T11:32:16.353Z</time></trkpt><trkpt lat="44.718675" lon="7.781605"><ele>270.0</ele><time>2026-05-01T11:32:17.351Z</time></trkpt><trkpt lat="44.71858" lon="7.7816433"><ele>270.6</ele><time>2026-05-01T11:32:18.355Z</time></trkpt><trkpt lat="44.7184867" lon="7.7816767"><ele>271.2</ele><time>2026-05-01T11:32:19.351Z</time></trkpt><trkpt lat="44.71839" lon="7.78171"><ele>271.8</ele><time>2026-05-01T11:32:20.355Z</time></trkpt><trkpt lat="44.7183" lon="7.7817517"><ele>272.4</ele><time>2026-05-01T11:32:21.356Z</time></trkpt><trkpt lat="44.71821" lon="7.781795"><ele>273.0</ele><time>2026-05-01T11:32:22.354Z</time></trkpt><trkpt lat="44.7181233" lon="7.7818383"><ele>273.1666666666667</ele><time>2026-05-01T11:32:23.353Z</time></trkpt><trkpt lat="44.7180483" lon="7.7818817"><ele>273.3333333333333</ele><time>2026-05-01T11:32:24.357Z</time></trkpt><trkpt lat="44.7179867" lon="7.781915"><ele>273.5</ele><time>2026-05-01T11:32:25.353Z</time></trkpt><trkpt lat="44.717905" lon="7.781975"><ele>273.66666666666663</ele><time>2026-05-01T11:32:27.362Z</time></trkpt><trkpt lat="44.71783" lon="7.7820083"><ele>273.8333333333333</ele><time>2026-05-01T11:32:35.353Z</time></trkpt><trkpt lat="44.7177133" lon="7.7820217"><ele>274.0</ele><time>2026-05-01T11:32:37.355Z</time></trkpt><trkpt lat="44.7176133" lon="7.7820683"><ele>274.0</ele><time>2026-05-01T11:32:39.353Z</time></trkpt><trkpt lat="44.7175717" lon="7.782145"><ele>274.0</ele><time>2026-05-01T11:32:41.351Z</time></trkpt><trkpt lat="44.7175633" lon="7.7822467"><ele>274.0</ele><time>2026-05-01T11:32:43.355Z</time></trkpt><trkpt lat="44.717565" lon="7.782405"><ele>274.0</ele><time>2026-05-01T11:32:45.353Z</time></trkpt><trkpt lat="44.7175683" lon="7.7825117"><ele>274.0</ele><time>2026-05-01T11:32:46.351Z</time></trkpt><trkpt lat="44.7175767" lon="7.7826217"><ele>274.0</ele><time>2026-05-01T11:32:47.354Z</time></trkpt><trkpt lat="44.7175883" lon="7.7827367"><ele>274.2</ele><time>2026-05-01T11:32:48.353Z</time></trkpt><trkpt lat="44.7176033" lon="7.7828617"><ele>274.4</ele><time>2026-05-01T11:32:49.352Z</time></trkpt><trkpt lat="44.7176217" lon="7.7829967"><ele>274.6</ele><time>2026-05-01T11:32:50.356Z</time></trkpt><trkpt lat="44.7176417" lon="7.7831283"><ele>274.8</ele><time>2026-05-01T11:32:51.353Z</time></trkpt><trkpt lat="44.7176617" lon="7.7832483"><ele>275.0</ele><time>2026-05-01T11:32:52.357Z</time></trkpt><trkpt lat="44.7176783" lon="7.7833617"><ele>275.0</ele><time>2026-05-01T11:32:53.355Z</time></trkpt><trkpt lat="44.7176833" lon="7.7834667"><ele>275.0</ele><time>2026-05-01T11:32:54.355Z</time></trkpt><trkpt lat="44.71768" lon="7.783565"><ele>275.0</ele><time>2026-05-01T11:32:55.353Z</time></trkpt><trkpt lat="44.7176633" lon="7.7836567"><ele>275.0</ele><time>2026-05-01T11:32:56.354Z</time></trkpt><trkpt lat="44.717635" lon="7.7837483"><ele>275.0</ele><time>2026-05-01T11:32:57.353Z</time></trkpt><trkpt lat="44.7175933" lon="7.7838467"><ele>275.0</ele><time>2026-05-01T11:32:58.353Z</time></trkpt><trkpt lat="44.7175467" lon="7.783945"><ele>275.0</ele><time>2026-05-01T11:32:59.351Z</time></trkpt><trkpt lat="44.7174967" lon="7.78404"><ele>274.5</ele><time>2026-05-01T11:33:00.35Z</time></trkpt><trkpt lat="44.7174483" lon="7.784135"><ele>274.0</ele><time>2026-05-01T11:33:01.353Z</time></trkpt><trkpt lat="44.7174033" lon="7.7842283"><ele>273.5</ele><time>2026-05-01T11:33:02.35Z</time></trkpt><trkpt lat="44.7173567" lon="7.7843217"><ele>273.0</ele><time>2026-05-01T11:33:03.354Z</time></trkpt><trkpt lat="44.717305" lon="7.784415"><ele>272.5</ele><time>2026-05-01T11:33:04.359Z</time></trkpt><trkpt lat="44.7172533" lon="7.78451"><ele>272.0</ele><time>2026-05-01T11:33:05.35Z</time></trkpt><trkpt lat="44.7172033" lon="7.7846033"><ele>272.1666666666667</ele><time>2026-05-01T11:33:06.349Z</time></trkpt><trkpt lat="44.7171517" lon="7.784695"><ele>272.33333333333337</ele><time>2026-05-01T11:33:07.352Z</time></trkpt><trkpt lat="44.7170983" lon="7.78479"><ele>272.5</ele><time>2026-05-01T11:33:08.349Z</time></trkpt><trkpt lat="44.7170433" lon="7.784885"><ele>272.6666666666667</ele><time>2026-05-01T11:33:09.349Z</time></trkpt><trkpt lat="44.7169917" lon="7.78497"><ele>272.8333333333333</ele><time>2026-05-01T11:33:10.353Z</time></trkpt><trkpt lat="44.7169433" lon="7.78505"><ele>273.0</ele><time>2026-05-01T11:33:11.354Z</time></trkpt><trkpt lat="44.716895" lon="7.78513"><ele>272.57142857142856</ele><time>2026-05-01T11:33:12.353Z</time></trkpt><trkpt lat="44.71685" lon="7.7852117"><ele>272.1428571428571</ele><time>2026-05-01T11:33:13.354Z</time></trkpt><trkpt lat="44.7168067" lon="7.7852983"><ele>271.7142857142857</ele><time>2026-05-01T11:33:14.355Z</time></trkpt><trkpt lat="44.716775" lon="7.785385"><ele>271.2857142857143</ele><time>2026-05-01T11:33:15.353Z</time></trkpt><trkpt lat="44.716745" lon="7.7854683"><ele>270.85714285714283</ele><time>2026-05-01T11:33:16.354Z</time></trkpt><trkpt lat="44.7167117" lon="7.7855467"><ele>270.42857142857144</ele><time>2026-05-01T11:33:17.348Z</time></trkpt><trkpt lat="44.7166783" lon="7.7856233"><ele>270.0</ele><time>2026-05-01T11:33:18.351Z</time></trkpt><trkpt lat="44.716645" lon="7.7857017"><ele>270.0</ele><time>2026-05-01T11:33:19.351Z</time></trkpt><trkpt lat="44.7165833" lon="7.7858467"><ele>270.0</ele><time>2026-05-01T11:33:21.353Z</time></trkpt><trkpt lat="44.7165283" lon="7.7859817"><ele>270.0</ele><time>2026-05-01T11:33:23.358Z</time></trkpt><trkpt lat="44.7164683" lon="7.78612"><ele>270.0</ele><time>2026-05-01T11:33:25.353Z</time></trkpt><trkpt lat="44.71639" lon="7.7862467"><ele>269.5</ele><time>2026-05-01T11:33:27.358Z</time></trkpt><trkpt lat="44.7163133" lon="7.7863533"><ele>269.0</ele><time>2026-05-01T11:33:29.351Z</time></trkpt><trkpt lat="44.71624" lon="7.7864517"><ele>268.5</ele><time>2026-05-01T11:33:31.352Z</time></trkpt><trkpt lat="44.7161833" lon="7.7865183"><ele>268.0</ele><time>2026-05-01T11:33:33.355Z</time></trkpt><trkpt lat="44.71613" lon="7.7865767"><ele>267.5</ele><time>2026-05-01T11:33:35.35Z</time></trkpt><trkpt lat="44.7160733" lon="7.78665"><ele>267.0</ele><time>2026-05-01T11:33:37.35Z</time></trkpt><trkpt lat="44.716025" lon="7.78673"><ele>267.3333333333333</ele><time>2026-05-01T11:33:39.354Z</time></trkpt><trkpt lat="44.71598" lon="7.7868133"><ele>267.6666666666667</ele><time>2026-05-01T11:33:41.353Z</time></trkpt><trkpt lat="44.7159283" lon="7.7869083"><ele>268.0</ele><time>2026-05-01T11:33:44.353Z</time></trkpt><trkpt lat="44.71588" lon="7.7869933"><ele>268.33333333333337</ele><time>2026-05-01T11:33:48.353Z</time></trkpt><trkpt lat="44.71584" lon="7.787065"><ele>268.6666666666667</ele><time>2026-05-01T11:33:51.353Z</time></trkpt><trkpt lat="44.715785" lon="7.7871433"><ele>269.0</ele><time>2026-05-01T11:33:53.354Z</time></trkpt><trkpt lat="44.7157167" lon="7.78723"><ele>269.0</ele><time>2026-05-01T11:33:55.35Z</time></trkpt><trkpt lat="44.7156633" lon="7.787295"><ele>269.0</ele><time>2026-05-01T11:33:57.357Z</time></trkpt><trkpt lat="44.7156083" lon="7.7873833"><ele>269.0</ele><time>2026-05-01T11:34:00.355Z</time></trkpt><trkpt lat="44.71554" lon="7.7874917"><ele>269.0</ele><time>2026-05-01T11:34:02.355Z</time></trkpt><trkpt lat="44.71548" lon="7.7875533"><ele>269.0</ele><time>2026-05-01T11:34:04.351Z</time></trkpt><trkpt lat="44.7154017" lon="7.787555"><ele>269.0</ele><time>2026-05-01T11:34:06.356Z</time></trkpt><trkpt lat="44.715315" lon="7.787455"><ele>269.0</ele><time>2026-05-01T11:34:08.35Z</time></trkpt><trkpt lat="44.7152433" lon="7.7873167"><ele>269.0</ele><time>2026-05-01T11:34:10.349Z</time></trkpt><trkpt lat="44.7151983" lon="7.787245"><ele>269.0</ele><time>2026-05-01T11:34:11.354Z</time></trkpt><trkpt lat="44.7151533" lon="7.7871817"><ele>269.0</ele><time>2026-05-01T11:34:12.351Z</time></trkpt><trkpt lat="44.7150767" lon="7.787075"><ele>269.0</ele><time>2026-05-01T11:34:14.351Z</time></trkpt><trkpt lat="44.715025" lon="7.7869817"><ele>269.0</ele><time>2026-05-01T11:34:16.35Z</time></trkpt><trkpt lat="44.71497" lon="7.7868933"><ele>270.4</ele><time>2026-05-01T11:34:18.352Z</time></trkpt><trkpt lat="44.7149167" lon="7.7868083"><ele>271.79999999999995</ele><time>2026-05-01T11:34:20.353Z</time></trkpt><trkpt lat="44.7148633" lon="7.786725"><ele>273.20000000000005</ele><time>2026-05-01T11:34:22.355Z</time></trkpt><trkpt lat="44.7148067" lon="7.7866267"><ele>274.6</ele><time>2026-05-01T11:34:24.351Z</time></trkpt><trkpt lat="44.714725" lon="7.78649"><ele>276.0</ele><time>2026-05-01T11:34:26.352Z</time></trkpt><trkpt lat="44.7146733" lon="7.7863917"><ele>276.0</ele><time>2026-05-01T11:34:27.35Z</time></trkpt><trkpt lat="44.7146117" lon="7.786285"><ele>276.0</ele><time>2026-05-01T11:34:28.353Z</time></trkpt><trkpt lat="44.714545" lon="7.7861717"><ele>276.0</ele><time>2026-05-01T11:34:29.351Z</time></trkpt><trkpt lat="44.71447" lon="7.7860533"><ele>276.0</ele><time>2026-05-01T11:34:30.353Z</time></trkpt><trkpt lat="44.7143917" lon="7.785925"><ele>276.0</ele><time>2026-05-01T11:34:31.354Z</time></trkpt><trkpt lat="44.7143117" lon="7.7857917"><ele>275.8</ele><time>2026-05-01T11:34:32.355Z</time></trkpt><trkpt lat="44.7142367" lon="7.7856683"><ele>275.6</ele><time>2026-05-01T11:34:33.352Z</time></trkpt><trkpt lat="44.71417" lon="7.7855567"><ele>275.4</ele><time>2026-05-01T11:34:34.352Z</time></trkpt><trkpt lat="44.7141083" lon="7.7854583"><ele>275.2</ele><time>2026-05-01T11:34:35.352Z</time></trkpt><trkpt lat="44.71405" lon="7.78537"><ele>275.0</ele><time>2026-05-01T11:34:36.352Z</time></trkpt><trkpt lat="44.7139983" lon="7.7852983"><ele>275.0</ele><time>2026-05-01T11:34:37.355Z</time></trkpt><trkpt lat="44.7139283" lon="7.7851883"><ele>275.0</ele><time>2026-05-01T11:34:39.349Z</time></trkpt><trkpt lat="44.713865" lon="7.7851333"><ele>275.0</ele><time>2026-05-01T11:34:41.354Z</time></trkpt><trkpt lat="44.7137717" lon="7.7851333"><ele>275.0</ele><time>2026-05-01T11:34:43.352Z</time></trkpt><trkpt lat="44.713715" lon="7.785175"><ele>275.0</ele><time>2026-05-01T11:34:44.354Z</time></trkpt><trkpt lat="44.7136383" lon="7.785255"><ele>275.0</ele><time>2026-05-01T11:34:45.352Z</time></trkpt><trkpt lat="44.7135433" lon="7.785365"><ele>275.25</ele><time>2026-05-01T11:34:46.351Z</time></trkpt><trkpt lat="44.7134433" lon="7.7854817"><ele>275.5</ele><time>2026-05-01T11:34:47.354Z</time></trkpt><trkpt lat="44.7133333" lon="7.7856133"><ele>275.75</ele><time>2026-05-01T11:34:48.354Z</time></trkpt><trkpt lat="44.7132083" lon="7.7857567"><ele>276.0</ele><time>2026-05-01T11:34:49.356Z</time></trkpt><trkpt lat="44.7130817" lon="7.7858983"><ele>275.6666666666667</ele><time>2026-05-01T11:34:50.356Z</time></trkpt><trkpt lat="44.7129417" lon="7.786055"><ele>275.33333333333337</ele><time>2026-05-01T11:34:51.36Z</time></trkpt><trkpt lat="44.7127917" lon="7.7862217"><ele>275.0</ele><time>2026-05-01T11:34:52.352Z</time></trkpt><trkpt lat="44.7126317" lon="7.7863917"><ele>275.33333333333337</ele><time>2026-05-01T11:34:53.353Z</time></trkpt><trkpt lat="44.7124733" lon="7.7865617"><ele>275.6666666666667</ele><time>2026-05-01T11:34:54.351Z</time></trkpt><trkpt lat="44.7123133" lon="7.7867333"><ele>276.0</ele><time>2026-05-01T11:34:55.354Z</time></trkpt><trkpt lat="44.7121517" lon="7.7869033"><ele>276.0</ele><time>2026-05-01T11:34:56.353Z</time></trkpt><trkpt lat="44.711985" lon="7.787075"><ele>276.0</ele><time>2026-05-01T11:34:57.353Z</time></trkpt><trkpt lat="44.7118183" lon="7.7872433"><ele>276.0</ele><time>2026-05-01T11:34:58.354Z</time></trkpt><trkpt lat="44.7116483" lon="7.7874083"><ele>276.0</ele><time>2026-05-01T11:34:59.353Z</time></trkpt><trkpt lat="44.7114767" lon="7.7875683"><ele>276.0</ele><time>2026-05-01T11:35:00.355Z</time></trkpt><trkpt lat="44.711305" lon="7.7877317"><ele>276.0</ele><time>2026-05-01T11:35:01.352Z</time></trkpt><trkpt lat="44.7111383" lon="7.7879083"><ele>276.3333333333333</ele><time>2026-05-01T11:35:02.349Z</time></trkpt><trkpt lat="44.7109867" lon="7.788095"><ele>276.66666666666663</ele><time>2026-05-01T11:35:03.352Z</time></trkpt><trkpt lat="44.710845" lon="7.7882767"><ele>277.0</ele><time>2026-05-01T11:35:04.351Z</time></trkpt><trkpt lat="44.7107167" lon="7.788455"><ele>276.3333333333333</ele><time>2026-05-01T11:35:05.356Z</time></trkpt><trkpt lat="44.7106" lon="7.788625"><ele>275.6666666666667</ele><time>2026-05-01T11:35:06.351Z</time></trkpt><trkpt lat="44.7104883" lon="7.7887933"><ele>275.0</ele><time>2026-05-01T11:35:07.352Z</time></trkpt><trkpt lat="44.7103867" lon="7.78896"><ele>275.0</ele><time>2026-05-01T11:35:08.353Z</time></trkpt><trkpt lat="44.7102933" lon="7.7891217"><ele>275.0</ele><time>2026-05-01T11:35:09.353Z</time></trkpt><trkpt lat="44.7102067" lon="7.789285"><ele>275.0</ele><time>2026-05-01T11:35:10.353Z</time></trkpt><trkpt lat="44.710115" lon="7.7894517"><ele>275.0</ele><time>2026-05-01T11:35:11.353Z</time></trkpt><trkpt lat="44.7100317" lon="7.78962"><ele>275.25</ele><time>2026-05-01T11:35:12.352Z</time></trkpt><trkpt lat="44.709955" lon="7.7897833"><ele>275.5</ele><time>2026-05-01T11:35:13.357Z</time></trkpt><trkpt lat="44.7098967" lon="7.7899417"><ele>275.75</ele><time>2026-05-01T11:35:14.35Z</time></trkpt><trkpt lat="44.7098667" lon="7.7900967"><ele>276.0</ele><time>2026-05-01T11:35:15.358Z</time></trkpt><trkpt lat="44.709865" lon="7.7902517"><ele>275.5</ele><time>2026-05-01T11:35:16.352Z</time></trkpt><trkpt lat="44.7098917" lon="7.7904067"><ele>275.0</ele><time>2026-05-01T11:35:17.351Z</time></trkpt><trkpt lat="44.7099383" lon="7.7905567"><ele>274.5</ele><time>2026-05-01T11:35:18.356Z</time></trkpt><trkpt lat="44.7099967" lon="7.790715"><ele>274.0</ele><time>2026-05-01T11:35:19.357Z</time></trkpt><trkpt lat="44.7100617" lon="7.7908783"><ele>274.25</ele><time>2026-05-01T11:35:20.356Z</time></trkpt><trkpt lat="44.7101317" lon="7.791035"><ele>274.5</ele><time>2026-05-01T11:35:21.356Z</time></trkpt><trkpt lat="44.7101833" lon="7.7911933"><ele>274.75</ele><time>2026-05-01T11:35:22.352Z</time></trkpt><trkpt lat="44.7102033" lon="7.7913583"><ele>275.0</ele><time>2026-05-01T11:35:23.353Z</time></trkpt><trkpt lat="44.7101917" lon="7.7915083"><ele>275.0</ele><time>2026-05-01T11:35:24.353Z</time></trkpt><trkpt lat="44.71016" lon="7.7916317"><ele>275.0</ele><time>2026-05-01T11:35:25.355Z</time></trkpt><trkpt lat="44.7100767" lon="7.7917233"><ele>275.0</ele><time>2026-05-01T11:35:26.35Z</time></trkpt><trkpt lat="44.70998" lon="7.79179"><ele>275.0</ele><time>2026-05-01T11:35:27.355Z</time></trkpt><trkpt lat="44.7098567" lon="7.7918533"><ele>275.0</ele><time>2026-05-01T11:35:28.352Z</time></trkpt><trkpt lat="44.7097117" lon="7.79191"><ele>275.33333333333337</ele><time>2026-05-01T11:35:29.353Z</time></trkpt><trkpt lat="44.7095683" lon="7.7919583"><ele>275.6666666666667</ele><time>2026-05-01T11:35:30.35Z</time></trkpt><trkpt lat="44.7094117" lon="7.7920117"><ele>276.0</ele><time>2026-05-01T11:35:31.35Z</time></trkpt><trkpt lat="44.7092517" lon="7.7920783"><ele>276.0</ele><time>2026-05-01T11:35:32.353Z</time></trkpt><trkpt lat="44.7090883" lon="7.7921467"><ele>276.0</ele><time>2026-05-01T11:35:33.353Z</time></trkpt><trkpt lat="44.7089233" lon="7.79221"><ele>276.0</ele><time>2026-05-01T11:35:34.355Z</time></trkpt><trkpt lat="44.708765" lon="7.7922717"><ele>276.0</ele><time>2026-05-01T11:35:35.353Z</time></trkpt><trkpt lat="44.70862" lon="7.7923317"><ele>276.0</ele><time>2026-05-01T11:35:36.353Z</time></trkpt><trkpt lat="44.7084867" lon="7.7924017"><ele>276.0</ele><time>2026-05-01T11:35:37.353Z</time></trkpt><trkpt lat="44.7083583" lon="7.7925017"><ele>276.0</ele><time>2026-05-01T11:35:38.354Z</time></trkpt><trkpt lat="44.7082383" lon="7.7926283"><ele>277.3333333333333</ele><time>2026-05-01T11:35:39.356Z</time></trkpt><trkpt lat="44.7081133" lon="7.7927717"><ele>278.66666666666663</ele><time>2026-05-01T11:35:40.355Z</time></trkpt><trkpt lat="44.7079817" lon="7.7929283"><ele>280.0</ele><time>2026-05-01T11:35:41.352Z</time></trkpt><trkpt lat="44.7078467" lon="7.7930933"><ele>280.3333333333333</ele><time>2026-05-01T11:35:42.351Z</time></trkpt><trkpt lat="44.707705" lon="7.79327"><ele>280.6666666666667</ele><time>2026-05-01T11:35:43.353Z</time></trkpt><trkpt lat="44.7075583" lon="7.7934567"><ele>281.0</ele><time>2026-05-01T11:35:44.353Z</time></trkpt><trkpt lat="44.7074083" lon="7.7936517"><ele>281.0</ele><time>2026-05-01T11:35:45.353Z</time></trkpt><trkpt lat="44.7072617" lon="7.7938517"><ele>281.0</ele><time>2026-05-01T11:35:46.354Z</time></trkpt><trkpt lat="44.7071183" lon="7.79405"><ele>281.0</ele><time>2026-05-01T11:35:47.351Z</time></trkpt><trkpt lat="44.706975" lon="7.79426"><ele>281.0</ele><time>2026-05-01T11:35:48.357Z</time></trkpt><trkpt lat="44.7068333" lon="7.7944767"><ele>281.0</ele><time>2026-05-01T11:35:49.351Z</time></trkpt><trkpt lat="44.7066933" lon="7.7947083"><ele>281.0</ele><time>2026-05-01T11:35:50.354Z</time></trkpt><trkpt lat="44.7065533" lon="7.7949383"><ele>280.6666666666667</ele><time>2026-05-01T11:35:51.357Z</time></trkpt><trkpt lat="44.7064167" lon="7.7951717"><ele>280.3333333333333</ele><time>2026-05-01T11:35:52.358Z</time></trkpt><trkpt lat="44.7062767" lon="7.795415"><ele>280.0</ele><time>2026-05-01T11:35:53.354Z</time></trkpt><trkpt lat="44.7061367" lon="7.79566"><ele>279.5</ele><time>2026-05-01T11:35:54.354Z</time></trkpt><trkpt lat="44.7059967" lon="7.795915"><ele>279.0</ele><time>2026-05-01T11:35:55.351Z</time></trkpt><trkpt lat="44.70586" lon="7.796175"><ele>278.5</ele><time>2026-05-01T11:35:56.348Z</time></trkpt><trkpt lat="44.7057183" lon="7.7964467"><ele>278.0</ele><time>2026-05-01T11:35:57.352Z</time></trkpt><trkpt lat="44.70558" lon="7.796715"><ele>277.5</ele><time>2026-05-01T11:35:58.353Z</time></trkpt><trkpt lat="44.7054367" lon="7.796975"><ele>277.0</ele><time>2026-05-01T11:35:59.352Z</time></trkpt><trkpt lat="44.7052883" lon="7.79722"><ele>278.0</ele><time>2026-05-01T11:36:00.356Z</time></trkpt><trkpt lat="44.705125" lon="7.7974533"><ele>279.0</ele><time>2026-05-01T11:36:01.349Z</time></trkpt><trkpt lat="44.704955" lon="7.79768"><ele>279.0</ele><time>2026-05-01T11:36:02.353Z</time></trkpt><trkpt lat="44.70478" lon="7.7979017"><ele>279.0</ele><time>2026-05-01T11:36:03.352Z</time></trkpt><trkpt lat="44.7046017" lon="7.79812"><ele>279.0</ele><time>2026-05-01T11:36:04.351Z</time></trkpt><trkpt lat="44.7044267" lon="7.79833"><ele>279.0</ele><time>2026-05-01T11:36:05.354Z</time></trkpt><trkpt lat="44.7042517" lon="7.79853"><ele>279.0</ele><time>2026-05-01T11:36:06.352Z</time></trkpt><trkpt lat="44.7040667" lon="7.79872"><ele>279.0</ele><time>2026-05-01T11:36:07.352Z</time></trkpt><trkpt lat="44.7038833" lon="7.7989067"><ele>279.0</ele><time>2026-05-01T11:36:08.352Z</time></trkpt><trkpt lat="44.7036967" lon="7.799095"><ele>279.0</ele><time>2026-05-01T11:36:09.355Z</time></trkpt><trkpt lat="44.7035133" lon="7.7992733"><ele>279.3333333333333</ele><time>2026-05-01T11:36:10.357Z</time></trkpt><trkpt lat="44.70333" lon="7.7994517"><ele>279.66666666666663</ele><time>2026-05-01T11:36:11.354Z</time></trkpt><trkpt lat="44.70315" lon="7.7996333"><ele>280.0</ele><time>2026-05-01T11:36:12.354Z</time></trkpt><trkpt lat="44.7029783" lon="7.7998133"><ele>280.0</ele><time>2026-05-01T11:36:13.349Z</time></trkpt><trkpt lat="44.7028183" lon="7.799985"><ele>280.0</ele><time>2026-05-01T11:36:14.349Z</time></trkpt><trkpt lat="44.7026633" lon="7.80016"><ele>280.0</ele><time>2026-05-01T11:36:15.354Z</time></trkpt><trkpt lat="44.7025167" lon="7.800345"><ele>280.66666666666663</ele><time>2026-05-01T11:36:16.349Z</time></trkpt><trkpt lat="44.7023783" lon="7.8005467"><ele>281.3333333333333</ele><time>2026-05-01T11:36:17.354Z</time></trkpt><trkpt lat="44.70225" lon="7.8007517"><ele>282.0</ele><time>2026-05-01T11:36:18.354Z</time></trkpt><trkpt lat="44.7021283" lon="7.8009517"><ele>282.0</ele><time>2026-05-01T11:36:19.354Z</time></trkpt><trkpt lat="44.7020233" lon="7.8011417"><ele>282.0</ele><time>2026-05-01T11:36:20.35Z</time></trkpt><trkpt lat="44.7019367" lon="7.8012967"><ele>282.0</ele><time>2026-05-01T11:36:21.35Z</time></trkpt><trkpt lat="44.701875" lon="7.8014133"><ele>282.0</ele><time>2026-05-01T11:36:22.351Z</time></trkpt><trkpt lat="44.70184" lon="7.8015183"><ele>282.0</ele><time>2026-05-01T11:36:23.353Z</time></trkpt><trkpt lat="44.7018183" lon="7.801635"><ele>282.0</ele><time>2026-05-01T11:36:24.355Z</time></trkpt><trkpt lat="44.7018167" lon="7.80176"><ele>282.0</ele><time>2026-05-01T11:36:25.355Z</time></trkpt><trkpt lat="44.7018167" lon="7.8018967"><ele>282.0</ele><time>2026-05-01T11:36:26.352Z</time></trkpt><trkpt lat="44.70182" lon="7.8020483"><ele>282.0</ele><time>2026-05-01T11:36:27.35Z</time></trkpt><trkpt lat="44.7018267" lon="7.8022067"><ele>281.5</ele><time>2026-05-01T11:36:28.348Z</time></trkpt><trkpt lat="44.7018367" lon="7.80237"><ele>281.0</ele><time>2026-05-01T11:36:29.354Z</time></trkpt><trkpt lat="44.7018517" lon="7.8025383"><ele>280.5</ele><time>2026-05-01T11:36:30.353Z</time></trkpt><trkpt lat="44.7018683" lon="7.8027217"><ele>280.0</ele><time>2026-05-01T11:36:31.354Z</time></trkpt><trkpt lat="44.7018867" lon="7.80292"><ele>279.3333333333333</ele><time>2026-05-01T11:36:32.354Z</time></trkpt><trkpt lat="44.70191" lon="7.80313"><ele>278.6666666666667</ele><time>2026-05-01T11:36:33.35Z</time></trkpt><trkpt lat="44.701935" lon="7.80335"><ele>278.0</ele><time>2026-05-01T11:36:34.353Z</time></trkpt><trkpt lat="44.7019667" lon="7.8035817"><ele>276.0</ele><time>2026-05-01T11:36:35.349Z</time></trkpt><trkpt lat="44.7020033" lon="7.8038233"><ele>274.0</ele><time>2026-05-01T11:36:36.355Z</time></trkpt><trkpt lat="44.7020433" lon="7.80407"><ele>272.0</ele><time>2026-05-01T11:36:37.352Z</time></trkpt><trkpt lat="44.7020867" lon="7.804325"><ele>272.0</ele><time>2026-05-01T11:36:38.353Z</time></trkpt><trkpt lat="44.702135" lon="7.8045883"><ele>272.0</ele><time>2026-05-01T11:36:39.355Z</time></trkpt><trkpt lat="44.7021817" lon="7.804855"><ele>272.0</ele><time>2026-05-01T11:36:40.352Z</time></trkpt><trkpt lat="44.7022317" lon="7.8051217"><ele>272.33333333333337</ele><time>2026-05-01T11:36:41.354Z</time></trkpt><trkpt lat="44.7022817" lon="7.8053983"><ele>272.6666666666667</ele><time>2026-05-01T11:36:42.354Z</time></trkpt><trkpt lat="44.70233" lon="7.8056883"><ele>273.0</ele><time>2026-05-01T11:36:43.352Z</time></trkpt><trkpt lat="44.702385" lon="7.8059917"><ele>273.0</ele><time>2026-05-01T11:36:44.353Z</time></trkpt><trkpt lat="44.7024433" lon="7.806305"><ele>273.0</ele><time>2026-05-01T11:36:45.354Z</time></trkpt><trkpt lat="44.702505" lon="7.80663"><ele>273.0</ele><time>2026-05-01T11:36:46.35Z</time></trkpt><trkpt lat="44.7025633" lon="7.8069617"><ele>273.0</ele><time>2026-05-01T11:36:47.353Z</time></trkpt><trkpt lat="44.70262" lon="7.80729"><ele>273.0</ele><time>2026-05-01T11:36:48.357Z</time></trkpt><trkpt lat="44.7026767" lon="7.807615"><ele>273.0</ele><time>2026-05-01T11:36:49.355Z</time></trkpt><trkpt lat="44.702735" lon="7.807935"><ele>272.3333333333333</ele><time>2026-05-01T11:36:50.36Z</time></trkpt><trkpt lat="44.7027883" lon="7.8082433"><ele>271.66666666666663</ele><time>2026-05-01T11:36:51.361Z</time></trkpt><trkpt lat="44.70284" lon="7.80854"><ele>271.0</ele><time>2026-05-01T11:36:52.354Z</time></trkpt><trkpt lat="44.7028933" lon="7.8088233"><ele>270.66666666666663</ele><time>2026-05-01T11:36:53.356Z</time></trkpt><trkpt lat="44.702965" lon="7.809095"><ele>270.3333333333333</ele><time>2026-05-01T11:36:54.351Z</time></trkpt><trkpt lat="44.7030533" lon="7.8093583"><ele>270.0</ele><time>2026-05-01T11:36:55.354Z</time></trkpt><trkpt lat="44.7031467" lon="7.8096183"><ele>270.0</ele><time>2026-05-01T11:36:56.352Z</time></trkpt><trkpt lat="44.7032267" lon="7.809885"><ele>270.0</ele><time>2026-05-01T11:36:57.354Z</time></trkpt><trkpt lat="44.7032883" lon="7.8101633"><ele>270.0</ele><time>2026-05-01T11:36:58.354Z</time></trkpt><trkpt lat="44.70333" lon="7.8104567"><ele>269.6666666666667</ele><time>2026-05-01T11:36:59.352Z</time></trkpt><trkpt lat="44.7033517" lon="7.8107633"><ele>269.33333333333337</ele><time>2026-05-01T11:37:00.348Z</time></trkpt><trkpt lat="44.7033533" lon="7.811075"><ele>269.0</ele><time>2026-05-01T11:37:01.349Z</time></trkpt><trkpt lat="44.7033467" lon="7.8113967"><ele>269.0</ele><time>2026-05-01T11:37:02.358Z</time></trkpt><trkpt lat="44.70334" lon="7.81172"><ele>269.0</ele><time>2026-05-01T11:37:03.355Z</time></trkpt><trkpt lat="44.7033317" lon="7.8120467"><ele>269.5</ele><time>2026-05-01T11:37:04.354Z</time></trkpt><trkpt lat="44.7033183" lon="7.8123733"><ele>270.0</ele><time>2026-05-01T11:37:05.355Z</time></trkpt><trkpt lat="44.7033" lon="7.8126983"><ele>270.3333333333333</ele><time>2026-05-01T11:37:06.354Z</time></trkpt><trkpt lat="44.703275" lon="7.8130083"><ele>270.66666666666663</ele><time>2026-05-01T11:37:07.351Z</time></trkpt><trkpt lat="44.703245" lon="7.8133017"><ele>271.0</ele><time>2026-05-01T11:37:08.353Z</time></trkpt><trkpt lat="44.703205" lon="7.8135767"><ele>271.3333333333333</ele><time>2026-05-01T11:37:09.351Z</time></trkpt><trkpt lat="44.7031567" lon="7.8138533"><ele>271.6666666666667</ele><time>2026-05-01T11:37:10.352Z</time></trkpt><trkpt lat="44.7030983" lon="7.8141283"><ele>272.0</ele><time>2026-05-01T11:37:11.352Z</time></trkpt><trkpt lat="44.70303" lon="7.8144017"><ele>272.0</ele><time>2026-05-01T11:37:12.353Z</time></trkpt><trkpt lat="44.7029533" lon="7.81467"><ele>272.0</ele><time>2026-05-01T11:37:13.353Z</time></trkpt><trkpt lat="44.70287" lon="7.8149417"><ele>272.0</ele><time>2026-05-01T11:37:14.353Z</time></trkpt><trkpt lat="44.702785" lon="7.815215"><ele>272.33333333333337</ele><time>2026-05-01T11:37:15.353Z</time></trkpt><trkpt lat="44.7027" lon="7.8154783"><ele>272.6666666666667</ele><time>2026-05-01T11:37:16.352Z</time></trkpt><trkpt lat="44.7026117" lon="7.8157267"><ele>273.0</ele><time>2026-05-01T11:37:17.349Z</time></trkpt><trkpt lat="44.7025133" lon="7.8159467"><ele>273.3333333333333</ele><time>2026-05-01T11:37:18.349Z</time></trkpt><trkpt lat="44.70239" lon="7.816135"><ele>273.66666666666663</ele><time>2026-05-01T11:37:19.354Z</time></trkpt><trkpt lat="44.70225" lon="7.81631"><ele>274.0</ele><time>2026-05-01T11:37:20.351Z</time></trkpt><trkpt lat="44.7020933" lon="7.8164817"><ele>274.0</ele><time>2026-05-01T11:37:21.355Z</time></trkpt><trkpt lat="44.7019317" lon="7.8166567"><ele>274.0</ele><time>2026-05-01T11:37:22.349Z</time></trkpt><trkpt lat="44.70177" lon="7.8168267"><ele>274.0</ele><time>2026-05-01T11:37:23.355Z</time></trkpt><trkpt lat="44.7016117" lon="7.8169933"><ele>273.3333333333333</ele><time>2026-05-01T11:37:24.349Z</time></trkpt><trkpt lat="44.701465" lon="7.8171483"><ele>272.6666666666667</ele><time>2026-05-01T11:37:25.354Z</time></trkpt><trkpt lat="44.70134" lon="7.8173067"><ele>272.0</ele><time>2026-05-01T11:37:26.352Z</time></trkpt><trkpt lat="44.7012433" lon="7.81748"><ele>272.0</ele><time>2026-05-01T11:37:27.354Z</time></trkpt><trkpt lat="44.7011683" lon="7.8176833"><ele>272.0</ele><time>2026-05-01T11:37:28.351Z</time></trkpt><trkpt lat="44.7011167" lon="7.81791"><ele>272.0</ele><time>2026-05-01T11:37:29.355Z</time></trkpt><trkpt lat="44.701075" lon="7.8181483"><ele>272.33333333333337</ele><time>2026-05-01T11:37:30.354Z</time></trkpt><trkpt lat="44.7010333" lon="7.8184067"><ele>272.6666666666667</ele><time>2026-05-01T11:37:31.351Z</time></trkpt><trkpt lat="44.7009967" lon="7.8186717"><ele>273.0</ele><time>2026-05-01T11:37:32.351Z</time></trkpt><trkpt lat="44.7009633" lon="7.8189533"><ele>273.0</ele><time>2026-05-01T11:37:33.353Z</time></trkpt><trkpt lat="44.7009333" lon="7.81924"><ele>273.0</ele><time>2026-05-01T11:37:34.356Z</time></trkpt><trkpt lat="44.7008933" lon="7.8195283"><ele>273.0</ele><time>2026-05-01T11:37:35.353Z</time></trkpt><trkpt lat="44.7008617" lon="7.8198167"><ele>272.6666666666667</ele><time>2026-05-01T11:37:36.354Z</time></trkpt><trkpt lat="44.7008367" lon="7.820095"><ele>272.33333333333337</ele><time>2026-05-01T11:37:37.351Z</time></trkpt><trkpt lat="44.70081" lon="7.8203683"><ele>272.0</ele><time>2026-05-01T11:37:38.354Z</time></trkpt><trkpt lat="44.7007717" lon="7.8206283"><ele>271.6666666666667</ele><time>2026-05-01T11:37:39.35Z</time></trkpt><trkpt lat="44.70073" lon="7.820895"><ele>271.3333333333333</ele><time>2026-05-01T11:37:40.353Z</time></trkpt><trkpt lat="44.70068" lon="7.8211617"><ele>271.0</ele><time>2026-05-01T11:37:41.351Z</time></trkpt><trkpt lat="44.7006217" lon="7.82143"><ele>271.0</ele><time>2026-05-01T11:37:42.351Z</time></trkpt><trkpt lat="44.7005533" lon="7.82169"><ele>271.0</ele><time>2026-05-01T11:37:43.35Z</time></trkpt><trkpt lat="44.700475" lon="7.8219483"><ele>271.0</ele><time>2026-05-01T11:37:44.353Z</time></trkpt><trkpt lat="44.70039" lon="7.8222033"><ele>271.0</ele><time>2026-05-01T11:37:45.352Z</time></trkpt><trkpt lat="44.700295" lon="7.8224583"><ele>271.0</ele><time>2026-05-01T11:37:46.352Z</time></trkpt><trkpt lat="44.70019" lon="7.82271"><ele>271.0</ele><time>2026-05-01T11:37:47.353Z</time></trkpt><trkpt lat="44.7000783" lon="7.8229617"><ele>272.0</ele><time>2026-05-01T11:37:48.352Z</time></trkpt><trkpt lat="44.6999633" lon="7.8232217"><ele>273.0</ele><time>2026-05-01T11:37:49.351Z</time></trkpt><trkpt lat="44.6998517" lon="7.823485"><ele>274.0</ele><time>2026-05-01T11:37:50.35Z</time></trkpt><trkpt lat="44.69974" lon="7.8237517"><ele>274.3333333333333</ele><time>2026-05-01T11:37:51.353Z</time></trkpt><trkpt lat="44.6996283" lon="7.8240133"><ele>274.6666666666667</ele><time>2026-05-01T11:37:52.353Z</time></trkpt><trkpt lat="44.6995233" lon="7.824285"><ele>275.0</ele><time>2026-05-01T11:37:53.351Z</time></trkpt><trkpt lat="44.6994267" lon="7.824575"><ele>275.0</ele><time>2026-05-01T11:37:54.357Z</time></trkpt><trkpt lat="44.6993333" lon="7.8248733"><ele>275.0</ele><time>2026-05-01T11:37:55.354Z</time></trkpt><trkpt lat="44.6992433" lon="7.825185"><ele>275.0</ele><time>2026-05-01T11:37:56.349Z</time></trkpt><trkpt lat="44.6991583" lon="7.825505"><ele>275.0</ele><time>2026-05-01T11:37:57.352Z</time></trkpt><trkpt lat="44.6990817" lon="7.8258317"><ele>274.5</ele><time>2026-05-01T11:37:58.352Z</time></trkpt><trkpt lat="44.6990167" lon="7.8261617"><ele>274.0</ele><time>2026-05-01T11:37:59.354Z</time></trkpt><trkpt lat="44.6989583" lon="7.8264967"><ele>275.0</ele><time>2026-05-01T11:38:00.353Z</time></trkpt><trkpt lat="44.6989167" lon="7.826835"><ele>276.0</ele><time>2026-05-01T11:38:01.349Z</time></trkpt><trkpt lat="44.6988917" lon="7.8271717"><ele>276.0</ele><time>2026-05-01T11:38:02.353Z</time></trkpt><trkpt lat="44.6988817" lon="7.82751"><ele>276.0</ele><time>2026-05-01T11:38:03.35Z</time></trkpt><trkpt lat="44.6988867" lon="7.827845"><ele>276.0</ele><time>2026-05-01T11:38:04.351Z</time></trkpt><trkpt lat="44.6989" lon="7.8281767"><ele>276.0</ele><time>2026-05-01T11:38:05.35Z</time></trkpt><trkpt lat="44.6989167" lon="7.828495"><ele>276.0</ele><time>2026-05-01T11:38:06.351Z</time></trkpt><trkpt lat="44.6989283" lon="7.8287983"><ele>276.0</ele><time>2026-05-01T11:38:07.351Z</time></trkpt><trkpt lat="44.6989317" lon="7.829085"><ele>276.0</ele><time>2026-05-01T11:38:08.348Z</time></trkpt><trkpt lat="44.6989233" lon="7.8293567"><ele>276.3333333333333</ele><time>2026-05-01T11:38:09.35Z</time></trkpt><trkpt lat="44.6988983" lon="7.8296133"><ele>276.66666666666663</ele><time>2026-05-01T11:38:10.352Z</time></trkpt><trkpt lat="44.69886" lon="7.8298567"><ele>277.0</ele><time>2026-05-01T11:38:11.352Z</time></trkpt><trkpt lat="44.6988267" lon="7.8301"><ele>277.0</ele><time>2026-05-01T11:38:12.352Z</time></trkpt><trkpt lat="44.6988167" lon="7.8303433"><ele>277.0</ele><time>2026-05-01T11:38:13.354Z</time></trkpt><trkpt lat="44.6988383" lon="7.8305867"><ele>277.0</ele><time>2026-05-01T11:38:14.352Z</time></trkpt><trkpt lat="44.6989" lon="7.8308317"><ele>277.0</ele><time>2026-05-01T11:38:15.353Z</time></trkpt><trkpt lat="44.69898" lon="7.83107"><ele>277.0</ele><time>2026-05-01T11:38:16.35Z</time></trkpt><trkpt lat="44.6990667" lon="7.8313083"><ele>277.0</ele><time>2026-05-01T11:38:17.354Z</time></trkpt><trkpt lat="44.6991433" lon="7.831545"><ele>277.0</ele><time>2026-05-01T11:38:18.352Z</time></trkpt><trkpt lat="44.6992033" lon="7.831775"><ele>277.0</ele><time>2026-05-01T11:38:19.349Z</time></trkpt><trkpt lat="44.69924" lon="7.8320017"><ele>277.0</ele><time>2026-05-01T11:38:20.352Z</time></trkpt><trkpt lat="44.699255" lon="7.832225"><ele>276.75</ele><time>2026-05-01T11:38:21.352Z</time></trkpt><trkpt lat="44.6992467" lon="7.8324367"><ele>276.5</ele><time>2026-05-01T11:38:22.352Z</time></trkpt><trkpt lat="44.6992183" lon="7.832635"><ele>276.25</ele><time>2026-05-01T11:38:23.35Z</time></trkpt><trkpt lat="44.6991783" lon="7.8328133"><ele>276.0</ele><time>2026-05-01T11:38:24.354Z</time></trkpt><trkpt lat="44.699125" lon="7.8329633"><ele>276.0</ele><time>2026-05-01T11:38:25.353Z</time></trkpt><trkpt lat="44.6990633" lon="7.83308"><ele>276.0</ele><time>2026-05-01T11:38:26.349Z</time></trkpt><trkpt lat="44.6990017" lon="7.8331783"><ele>276.0</ele><time>2026-05-01T11:38:27.352Z</time></trkpt><trkpt lat="44.6989517" lon="7.8332667"><ele>276.0</ele><time>2026-05-01T11:38:28.349Z</time></trkpt><trkpt lat="44.6989183" lon="7.83336"><ele>276.0</ele><time>2026-05-01T11:38:29.348Z</time></trkpt><trkpt lat="44.6989033" lon="7.833455"><ele>276.0</ele><time>2026-05-01T11:38:30.353Z</time></trkpt><trkpt lat="44.698915" lon="7.833545"><ele>276.2</ele><time>2026-05-01T11:38:31.35Z</time></trkpt><trkpt lat="44.6989617" lon="7.833635"><ele>276.40000000000003</ele><time>2026-05-01T11:38:32.351Z</time></trkpt><trkpt lat="44.6990367" lon="7.8337283"><ele>276.6</ele><time>2026-05-01T11:38:33.348Z</time></trkpt><trkpt lat="44.699095" lon="7.83387"><ele>276.8</ele><time>2026-05-01T11:38:34.35Z</time></trkpt><trkpt lat="44.6991233" lon="7.8340433"><ele>277.0</ele><time>2026-05-01T11:38:35.351Z</time></trkpt><trkpt lat="44.6991333" lon="7.8342433"><ele>277.0</ele><time>2026-05-01T11:38:36.355Z</time></trkpt><trkpt lat="44.6991533" lon="7.8344617"><ele>277.0</ele><time>2026-05-01T11:38:37.353Z</time></trkpt><trkpt lat="44.6991817" lon="7.8347017"><ele>277.0</ele><time>2026-05-01T11:38:38.351Z</time></trkpt><trkpt lat="44.69923" lon="7.83495"><ele>276.66666666666663</ele><time>2026-05-01T11:38:39.353Z</time></trkpt><trkpt lat="44.6992933" lon="7.8351933"><ele>276.3333333333333</ele><time>2026-05-01T11:38:40.352Z</time></trkpt><trkpt lat="44.69937" lon="7.835435"><ele>276.0</ele><time>2026-05-01T11:38:41.354Z</time></trkpt><trkpt lat="44.699455" lon="7.835675"><ele>276.0</ele><time>2026-05-01T11:38:42.352Z</time></trkpt><trkpt lat="44.6995433" lon="7.8359167"><ele>276.0</ele><time>2026-05-01T11:38:43.35Z</time></trkpt><trkpt lat="44.6996283" lon="7.8361567"><ele>276.0</ele><time>2026-05-01T11:38:44.355Z</time></trkpt><trkpt lat="44.6997133" lon="7.836385"><ele>276.0</ele><time>2026-05-01T11:38:45.351Z</time></trkpt><trkpt lat="44.6997967" lon="7.83661"><ele>276.0</ele><time>2026-05-01T11:38:46.352Z</time></trkpt><trkpt lat="44.6998783" lon="7.836835"><ele>276.0</ele><time>2026-05-01T11:38:47.351Z</time></trkpt><trkpt lat="44.69996" lon="7.83706"><ele>276.0</ele><time>2026-05-01T11:38:48.35Z</time></trkpt><trkpt lat="44.7000433" lon="7.837275"><ele>276.0</ele><time>2026-05-01T11:38:49.349Z</time></trkpt><trkpt lat="44.70012" lon="7.8374767"><ele>276.0</ele><time>2026-05-01T11:38:50.351Z</time></trkpt><trkpt lat="44.7001833" lon="7.83765"><ele>275.8333333333333</ele><time>2026-05-01T11:38:51.357Z</time></trkpt><trkpt lat="44.7002317" lon="7.8377883"><ele>275.6666666666667</ele><time>2026-05-01T11:38:52.352Z</time></trkpt><trkpt lat="44.7002633" lon="7.837895"><ele>275.5</ele><time>2026-05-01T11:38:53.349Z</time></trkpt><trkpt lat="44.70027" lon="7.8379933"><ele>275.33333333333337</ele><time>2026-05-01T11:38:54.35Z</time></trkpt><trkpt lat="44.7002483" lon="7.83809"><ele>275.1666666666667</ele><time>2026-05-01T11:38:55.352Z</time></trkpt><trkpt lat="44.7002367" lon="7.8381917"><ele>275.0</ele><time>2026-05-01T11:38:56.353Z</time></trkpt><trkpt lat="44.70025" lon="7.8382983"><ele>275.0</ele><time>2026-05-01T11:38:57.354Z</time></trkpt><trkpt lat="44.7002883" lon="7.8383917"><ele>275.0</ele><time>2026-05-01T11:38:58.35Z</time></trkpt><trkpt lat="44.7003283" lon="7.8384683"><ele>275.0</ele><time>2026-05-01T11:38:59.352Z</time></trkpt><trkpt lat="44.7003583" lon="7.8385467"><ele>275.0</ele><time>2026-05-01T11:39:00.35Z</time></trkpt><trkpt lat="44.70037" lon="7.8386967"><ele>275.0</ele><time>2026-05-01T11:39:02.351Z</time></trkpt><trkpt lat="44.700355" lon="7.8388183"><ele>275.0</ele><time>2026-05-01T11:39:04.353Z</time></trkpt><trkpt lat="44.7003133" lon="7.8389"><ele>275.1666666666667</ele><time>2026-05-01T11:39:06.352Z</time></trkpt><trkpt lat="44.7002617" lon="7.8389567"><ele>275.33333333333337</ele><time>2026-05-01T11:39:08.352Z</time></trkpt><trkpt lat="44.7002133" lon="7.8390167"><ele>275.5</ele><time>2026-05-01T11:39:10.355Z</time></trkpt><trkpt lat="44.7001983" lon="7.8391183"><ele>275.6666666666667</ele><time>2026-05-01T11:39:12.353Z</time></trkpt><trkpt lat="44.700275" lon="7.8391783"><ele>275.8333333333333</ele><time>2026-05-01T11:39:14.354Z</time></trkpt><trkpt lat="44.7003783" lon="7.839105"><ele>276.0</ele><time>2026-05-01T11:39:16.351Z</time></trkpt><trkpt lat="44.70045" lon="7.8389767"><ele>276.5</ele><time>2026-05-01T11:39:18.352Z</time></trkpt><trkpt lat="44.7004633" lon="7.83884"><ele>277.0</ele><time>2026-05-01T11:39:20.354Z</time></trkpt><trkpt lat="44.700445" lon="7.8387233"><ele>277.5</ele><time>2026-05-01T11:39:22.357Z</time></trkpt><trkpt lat="44.7004433" lon="7.83862"><ele>278.0</ele><time>2026-05-01T11:39:24.354Z</time></trkpt><trkpt lat="44.70049" lon="7.8385317"><ele>278.5</ele><time>2026-05-01T11:39:27.353Z</time></trkpt><trkpt lat="44.70056" lon="7.8386267"><ele>279.0</ele><time>2026-05-01T11:39:30.356Z</time></trkpt><trkpt lat="44.700585" lon="7.8387117"><ele>279.0</ele><time>2026-05-01T11:39:31.353Z</time></trkpt><trkpt lat="44.7006167" lon="7.8388183"><ele>279.0</ele><time>2026-05-01T11:39:32.352Z</time></trkpt><trkpt lat="44.700655" lon="7.83893"><ele>279.0</ele><time>2026-05-01T11:39:33.354Z</time></trkpt><trkpt lat="44.7006933" lon="7.8390383"><ele>279.0</ele><time>2026-05-01T11:39:34.351Z</time></trkpt><trkpt lat="44.7007317" lon="7.8391467"><ele>279.0</ele><time>2026-05-01T11:39:35.349Z</time></trkpt><trkpt lat="44.700775" lon="7.8392633"><ele>279.0</ele><time>2026-05-01T11:39:36.355Z</time></trkpt><trkpt lat="44.70082" lon="7.839385"><ele>278.8</ele><time>2026-05-01T11:39:37.354Z</time></trkpt><trkpt lat="44.700865" lon="7.8395133"><ele>278.59999999999997</ele><time>2026-05-01T11:39:38.352Z</time></trkpt><trkpt lat="44.7009133" lon="7.8396467"><ele>278.4</ele><time>2026-05-01T11:39:39.354Z</time></trkpt><trkpt lat="44.7009617" lon="7.83978"><ele>278.2</ele><time>2026-05-01T11:39:40.351Z</time></trkpt><trkpt lat="44.7010083" lon="7.8399083"><ele>278.0</ele><time>2026-05-01T11:39:41.351Z</time></trkpt><trkpt lat="44.7010517" lon="7.8400283"><ele>278.2</ele><time>2026-05-01T11:39:42.349Z</time></trkpt><trkpt lat="44.701095" lon="7.840145"><ele>278.4</ele><time>2026-05-01T11:39:43.354Z</time></trkpt><trkpt lat="44.7011367" lon="7.8402617"><ele>278.59999999999997</ele><time>2026-05-01T11:39:44.358Z</time></trkpt><trkpt lat="44.70118" lon="7.84038"><ele>278.8</ele><time>2026-05-01T11:39:45.35Z</time></trkpt><trkpt lat="44.701225" lon="7.8405017"><ele>279.0</ele><time>2026-05-01T11:39:46.349Z</time></trkpt><trkpt lat="44.7012683" lon="7.8406283"><ele>279.0</ele><time>2026-05-01T11:39:47.35Z</time></trkpt><trkpt lat="44.7013067" lon="7.84076"><ele>279.0</ele><time>2026-05-01T11:39:48.352Z</time></trkpt><trkpt lat="44.7013467" lon="7.840895"><ele>279.0</ele><time>2026-05-01T11:39:49.35Z</time></trkpt><trkpt lat="44.7013867" lon="7.841035"><ele>279.0</ele><time>2026-05-01T11:39:50.349Z</time></trkpt><trkpt lat="44.7014217" lon="7.8411783"><ele>279.0</ele><time>2026-05-01T11:39:51.352Z</time></trkpt><trkpt lat="44.7014533" lon="7.84132"><ele>279.0</ele><time>2026-05-01T11:39:52.352Z</time></trkpt><trkpt lat="44.7014867" lon="7.841455"><ele>279.0</ele><time>2026-05-01T11:39:53.35Z</time></trkpt><trkpt lat="44.7015183" lon="7.8415883"><ele>279.0</ele><time>2026-05-01T11:39:54.351Z</time></trkpt><trkpt lat="44.70155" lon="7.84172"><ele>279.0</ele><time>2026-05-01T11:39:55.357Z</time></trkpt><trkpt lat="44.7015783" lon="7.8418467"><ele>279.0</ele><time>2026-05-01T11:39:56.349Z</time></trkpt><trkpt lat="44.7015983" lon="7.8419483"><ele>279.0</ele><time>2026-05-01T11:39:57.354Z</time></trkpt><trkpt lat="44.7016117" lon="7.8420933"><ele>279.0</ele><time>2026-05-01T11:40:17.351Z</time></trkpt><trkpt lat="44.7015633" lon="7.8421867"><ele>279.0</ele><time>2026-05-01T11:40:19.356Z</time></trkpt><trkpt lat="44.7014883" lon="7.8422533"><ele>279.0</ele><time>2026-05-01T11:40:21.35Z</time></trkpt><trkpt lat="44.7013783" lon="7.8423183"><ele>279.0</ele><time>2026-05-01T11:40:23.351Z</time></trkpt><trkpt lat="44.7013167" lon="7.8423633"><ele>279.0</ele><time>2026-05-01T11:40:24.354Z</time></trkpt><trkpt lat="44.7012567" lon="7.8424067"><ele>279.0</ele><time>2026-05-01T11:40:25.352Z</time></trkpt><trkpt lat="44.7011933" lon="7.8424517"><ele>279.0</ele><time>2026-05-01T11:40:26.352Z</time></trkpt><trkpt lat="44.7011283" lon="7.8425"><ele>279.0</ele><time>2026-05-01T11:40:27.352Z</time></trkpt><trkpt lat="44.70106" lon="7.8425567"><ele>279.0</ele><time>2026-05-01T11:40:28.353Z</time></trkpt><trkpt lat="44.7009767" lon="7.8426"><ele>279.0</ele><time>2026-05-01T11:40:29.352Z</time></trkpt><trkpt lat="44.7009067" lon="7.842665"><ele>279.3333333333333</ele><time>2026-05-01T11:40:30.352Z</time></trkpt><trkpt lat="44.700835" lon="7.8427317"><ele>279.6666666666667</ele><time>2026-05-01T11:40:31.353Z</time></trkpt><trkpt lat="44.70076" lon="7.8427967"><ele>280.0</ele><time>2026-05-01T11:40:32.352Z</time></trkpt><trkpt lat="44.70068" lon="7.8428617"><ele>280.33333333333337</ele><time>2026-05-01T11:40:33.352Z</time></trkpt><trkpt lat="44.7006017" lon="7.84293"><ele>280.6666666666667</ele><time>2026-05-01T11:40:34.35Z</time></trkpt><trkpt lat="44.700525" lon="7.8429983"><ele>281.0</ele><time>2026-05-01T11:40:35.352Z</time></trkpt><trkpt lat="44.70045" lon="7.8430667"><ele>281.0</ele><time>2026-05-01T11:40:36.351Z</time></trkpt><trkpt lat="44.70037" lon="7.84314"><ele>281.0</ele><time>2026-05-01T11:40:37.351Z</time></trkpt><trkpt lat="44.70029" lon="7.84321"><ele>281.0</ele><time>2026-05-01T11:40:38.352Z</time></trkpt><trkpt lat="44.7002083" lon="7.8432817"><ele>281.0</ele><time>2026-05-01T11:40:39.354Z</time></trkpt><trkpt lat="44.700125" lon="7.8433483"><ele>281.0</ele><time>2026-05-01T11:40:40.353Z</time></trkpt><trkpt lat="44.70005" lon="7.84341"><ele>280.83333333333337</ele><time>2026-05-01T11:40:41.353Z</time></trkpt><trkpt lat="44.6999783" lon="7.84347"><ele>280.6666666666667</ele><time>2026-05-01T11:40:42.348Z</time></trkpt><trkpt lat="44.6999067" lon="7.8435317"><ele>280.5</ele><time>2026-05-01T11:40:43.355Z</time></trkpt><trkpt lat="44.6998383" lon="7.8435967"><ele>280.3333333333333</ele><time>2026-05-01T11:40:44.351Z</time></trkpt><trkpt lat="44.6997733" lon="7.8436583"><ele>280.16666666666663</ele><time>2026-05-01T11:40:45.355Z</time></trkpt><trkpt lat="44.6997117" lon="7.8437133"><ele>280.0</ele><time>2026-05-01T11:40:46.354Z</time></trkpt><trkpt lat="44.69965" lon="7.8437633"><ele>280.0</ele><time>2026-05-01T11:40:47.352Z</time></trkpt><trkpt lat="44.6995933" lon="7.8438067"><ele>280.0</ele><time>2026-05-01T11:40:48.351Z</time></trkpt><trkpt lat="44.6995383" lon="7.8438533"><ele>280.0</ele><time>2026-05-01T11:40:49.35Z</time></trkpt><trkpt lat="44.6994817" lon="7.8439033"><ele>280.0</ele><time>2026-05-01T11:40:50.35Z</time></trkpt><trkpt lat="44.6994217" lon="7.8439583"><ele>280.0</ele><time>2026-05-01T11:40:51.349Z</time></trkpt><trkpt lat="44.6993567" lon="7.8440183"><ele>280.0</ele><time>2026-05-01T11:40:52.352Z</time></trkpt><trkpt lat="44.6992883" lon="7.8440783"><ele>280.0</ele><time>2026-05-01T11:40:53.349Z</time></trkpt><trkpt lat="44.69922" lon="7.8441417"><ele>280.0</ele><time>2026-05-01T11:40:54.353Z</time></trkpt><trkpt lat="44.69915" lon="7.8442067"><ele>280.0</ele><time>2026-05-01T11:40:55.351Z</time></trkpt><trkpt lat="44.6990783" lon="7.8442717"><ele>280.0</ele><time>2026-05-01T11:40:56.351Z</time></trkpt><trkpt lat="44.6990117" lon="7.844335"><ele>280.0</ele><time>2026-05-01T11:40:57.349Z</time></trkpt><trkpt lat="44.698945" lon="7.8444017"><ele>280.0</ele><time>2026-05-01T11:40:58.349Z</time></trkpt><trkpt lat="44.6988783" lon="7.844455"><ele>280.0</ele><time>2026-05-01T11:40:59.35Z</time></trkpt><trkpt lat="44.6988183" lon="7.8445067"><ele>279.8</ele><time>2026-05-01T11:41:00.352Z</time></trkpt><trkpt lat="44.6987633" lon="7.8445517"><ele>279.6</ele><time>2026-05-01T11:41:01.352Z</time></trkpt><trkpt lat="44.6986617" lon="7.8446417"><ele>279.4</ele><time>2026-05-01T11:41:03.353Z</time></trkpt><trkpt lat="44.6985817" lon="7.8447017"><ele>279.2</ele><time>2026-05-01T11:41:05.35Z</time></trkpt><trkpt lat="44.698495" lon="7.8447467"><ele>279.0</ele><time>2026-05-01T11:41:07.354Z</time></trkpt><trkpt lat="44.6983717" lon="7.8448033"><ele>278.8333333333333</ele><time>2026-05-01T11:41:09.352Z</time></trkpt><trkpt lat="44.6983017" lon="7.844825"><ele>278.6666666666667</ele><time>2026-05-01T11:41:10.351Z</time></trkpt><trkpt lat="44.6982233" lon="7.8448533"><ele>278.5</ele><time>2026-05-01T11:41:11.35Z</time></trkpt><trkpt lat="44.698135" lon="7.8448767"><ele>278.33333333333337</ele><time>2026-05-01T11:41:12.354Z</time></trkpt><trkpt lat="44.698045" lon="7.844905"><ele>278.1666666666667</ele><time>2026-05-01T11:41:13.355Z</time></trkpt><trkpt lat="44.69795" lon="7.8449267"><ele>278.0</ele><time>2026-05-01T11:41:14.353Z</time></trkpt><trkpt lat="44.697845" lon="7.84495"><ele>278.0</ele><time>2026-05-01T11:41:15.35Z</time></trkpt><trkpt lat="44.69774" lon="7.8449733"><ele>278.0</ele><time>2026-05-01T11:41:16.351Z</time></trkpt><trkpt lat="44.6976433" lon="7.844995"><ele>278.0</ele><time>2026-05-01T11:41:17.351Z</time></trkpt><trkpt lat="44.6975467" lon="7.8450133"><ele>278.0</ele><time>2026-05-01T11:41:18.352Z</time></trkpt><trkpt lat="44.6974483" lon="7.8450317"><ele>278.0</ele><time>2026-05-01T11:41:19.349Z</time></trkpt><trkpt lat="44.6973517" lon="7.8450483"><ele>278.0</ele><time>2026-05-01T11:41:20.352Z</time></trkpt><trkpt lat="44.69726" lon="7.8450617"><ele>278.0</ele><time>2026-05-01T11:41:21.351Z</time></trkpt><trkpt lat="44.697175" lon="7.8450783"><ele>278.0</ele><time>2026-05-01T11:41:22.357Z</time></trkpt><trkpt lat="44.6970933" lon="7.8450933"><ele>278.0</ele><time>2026-05-01T11:41:23.351Z</time></trkpt><trkpt lat="44.6970167" lon="7.8451083"><ele>278.0</ele><time>2026-05-01T11:41:24.349Z</time></trkpt><trkpt lat="44.6969433" lon="7.8451183"><ele>278.0</ele><time>2026-05-01T11:41:25.355Z</time></trkpt><trkpt lat="44.696875" lon="7.8451317"><ele>278.42857142857144</ele><time>2026-05-01T11:41:26.347Z</time></trkpt><trkpt lat="44.6968067" lon="7.8451433"><ele>278.8571428571429</ele><time>2026-05-01T11:41:27.349Z</time></trkpt><trkpt lat="44.696735" lon="7.8451517"><ele>279.28571428571433</ele><time>2026-05-01T11:41:28.348Z</time></trkpt><trkpt lat="44.69666" lon="7.8451583"><ele>279.7142857142857</ele><time>2026-05-01T11:41:29.351Z</time></trkpt><trkpt lat="44.6965867" lon="7.84517"><ele>280.14285714285717</ele><time>2026-05-01T11:41:30.352Z</time></trkpt><trkpt lat="44.696515" lon="7.84518"><ele>280.5714285714286</ele><time>2026-05-01T11:41:31.356Z</time></trkpt><trkpt lat="44.6964483" lon="7.8451933"><ele>281.0</ele><time>2026-05-01T11:41:32.349Z</time></trkpt><trkpt lat="44.6963817" lon="7.8452117"><ele>281.0</ele><time>2026-05-01T11:41:33.356Z</time></trkpt><trkpt lat="44.6963167" lon="7.8452317"><ele>281.0</ele><time>2026-05-01T11:41:34.352Z</time></trkpt><trkpt lat="44.6962517" lon="7.8452483"><ele>281.0</ele><time>2026-05-01T11:41:35.355Z</time></trkpt><trkpt lat="44.6961883" lon="7.8452633"><ele>281.0</ele><time>2026-05-01T11:41:36.352Z</time></trkpt><trkpt lat="44.6961233" lon="7.845275"><ele>281.0</ele><time>2026-05-01T11:41:37.353Z</time></trkpt><trkpt lat="44.6960017" lon="7.8453017"><ele>281.0</ele><time>2026-05-01T11:41:39.352Z</time></trkpt><trkpt lat="44.6959367" lon="7.8453083"><ele>280.6666666666667</ele><time>2026-05-01T11:41:40.352Z</time></trkpt><trkpt lat="44.695835" lon="7.84531"><ele>280.33333333333337</ele><time>2026-05-01T11:41:42.354Z</time></trkpt><trkpt lat="44.6957433" lon="7.845335"><ele>280.0</ele><time>2026-05-01T11:41:45.352Z</time></trkpt><trkpt lat="44.6956667" lon="7.8453533"><ele>279.6666666666667</ele><time>2026-05-01T11:41:47.349Z</time></trkpt><trkpt lat="44.6956167" lon="7.84541"><ele>279.3333333333333</ele><time>2026-05-01T11:41:49.353Z</time></trkpt><trkpt lat="44.6957117" lon="7.8454367"><ele>279.0</ele><time>2026-05-01T11:41:54.36Z</time></trkpt><trkpt lat="44.6958383" lon="7.8453933"><ele>279.0</ele><time>2026-05-01T11:41:56.351Z</time></trkpt><trkpt lat="44.695915" lon="7.845375"><ele>279.0</ele><time>2026-05-01T11:41:57.351Z</time></trkpt><trkpt lat="44.6959967" lon="7.8453633"><ele>279.0</ele><time>2026-05-01T11:41:58.353Z</time></trkpt><trkpt lat="44.6960917" lon="7.8453433"><ele>279.0</ele><time>2026-05-01T11:41:59.348Z</time></trkpt><trkpt lat="44.6961833" lon="7.84532"><ele>279.0</ele><time>2026-05-01T11:42:00.353Z</time></trkpt><trkpt lat="44.6962717" lon="7.8452933"><ele>279.0</ele><time>2026-05-01T11:42:01.352Z</time></trkpt><trkpt lat="44.696365" lon="7.8452617"><ele>279.0</ele><time>2026-05-01T11:42:02.355Z</time></trkpt><trkpt lat="44.6964567" lon="7.84523"><ele>279.0</ele><time>2026-05-01T11:42:03.358Z</time></trkpt><trkpt lat="44.6965417" lon="7.8452"><ele>279.0</ele><time>2026-05-01T11:42:04.358Z</time></trkpt><trkpt lat="44.6966183" lon="7.84516"><ele>279.0</ele><time>2026-05-01T11:42:05.351Z</time></trkpt><trkpt lat="44.6966917" lon="7.8451133"><ele>279.0</ele><time>2026-05-01T11:42:06.348Z</time></trkpt><trkpt lat="44.6967533" lon="7.8449817"><ele>279.0</ele><time>2026-05-01T11:42:08.349Z</time></trkpt><trkpt lat="44.6967183" lon="7.84483"><ele>279.0</ele><time>2026-05-01T11:42:10.351Z</time></trkpt><trkpt lat="44.69668" lon="7.8447"><ele>279.0</ele><time>2026-05-01T11:42:12.351Z</time></trkpt></trkseg><trkseg><trkpt lat="44.696645" lon="7.84474"><ele>279.0</ele><time>2026-05-01T12:26:04.35Z</time></trkpt><trkpt lat="44.6966583" lon="7.84486"><ele>279.0</ele><time>2026-05-01T12:26:06.353Z</time></trkpt><trkpt lat="44.696675" lon="7.845"><ele>279.0</ele><time>2026-05-01T12:26:08.352Z</time></trkpt><trkpt lat="44.6966717" lon="7.8450933"><ele>279.0</ele><time>2026-05-01T12:26:12.353Z</time></trkpt><trkpt lat="44.696565" lon="7.8451617"><ele>279.0</ele><time>2026-05-01T12:26:15.363Z</time></trkpt><trkpt lat="44.6964917" lon="7.8451833"><ele>279.0</ele><time>2026-05-01T12:26:16.352Z</time></trkpt><trkpt lat="44.696425" lon="7.8452"><ele>278.99999999999994</ele><time>2026-05-01T12:26:17.349Z</time></trkpt><trkpt lat="44.6963533" lon="7.8452217"><ele>279.0</ele><time>2026-05-01T12:26:18.35Z</time></trkpt><trkpt lat="44.6962783" lon="7.84524"><ele>279.0</ele><time>2026-05-01T12:26:19.35Z</time></trkpt><trkpt lat="44.6962067" lon="7.8452533"><ele>279.0</ele><time>2026-05-01T12:26:20.353Z</time></trkpt><trkpt lat="44.6961417" lon="7.8452633"><ele>279.0</ele><time>2026-05-01T12:26:21.352Z</time></trkpt><trkpt lat="44.69607" lon="7.8452733"><ele>278.99999999999994</ele><time>2026-05-01T12:26:22.35Z</time></trkpt><trkpt lat="44.6959933" lon="7.8452883"><ele>279.0</ele><time>2026-05-01T12:26:23.354Z</time></trkpt><trkpt lat="44.6959067" lon="7.8453083"><ele>279.0</ele><time>2026-05-01T12:26:24.352Z</time></trkpt><trkpt lat="44.6958133" lon="7.8453283"><ele>279.0</ele><time>2026-05-01T12:26:25.349Z</time></trkpt><trkpt lat="44.6957283" lon="7.8453483"><ele>279.0</ele><time>2026-05-01T12:26:26.356Z</time></trkpt><trkpt lat="44.6956467" lon="7.8453783"><ele>279.0</ele><time>2026-05-01T12:26:27.356Z</time></trkpt><trkpt lat="44.6955717" lon="7.8454333"><ele>279.0</ele><time>2026-05-01T12:26:28.349Z</time></trkpt><trkpt lat="44.6955033" lon="7.8455267"><ele>279.0</ele><time>2026-05-01T12:26:29.351Z</time></trkpt><trkpt lat="44.6954417" lon="7.8456417"><ele>279.0</ele><time>2026-05-01T12:26:30.352Z</time></trkpt><trkpt lat="44.6953883" lon="7.8457683"><ele>279.0</ele><time>2026-05-01T12:26:31.352Z</time></trkpt><trkpt lat="44.6953367" lon="7.8458967"><ele>279.0</ele><time>2026-05-01T12:26:32.355Z</time></trkpt><trkpt lat="44.695285" lon="7.8460133"><ele>279.0</ele><time>2026-05-01T12:26:33.353Z</time></trkpt><trkpt lat="44.69524" lon="7.84612"><ele>279.0</ele><time>2026-05-01T12:26:34.353Z</time></trkpt><trkpt lat="44.6952" lon="7.8462183"><ele>278.6666666666667</ele><time>2026-05-01T12:26:35.352Z</time></trkpt><trkpt lat="44.69516" lon="7.846315"><ele>278.3333333333333</ele><time>2026-05-01T12:26:36.35Z</time></trkpt><trkpt lat="44.6951167" lon="7.8464183"><ele>278.0</ele><time>2026-05-01T12:26:37.351Z</time></trkpt><trkpt lat="44.695075" lon="7.8465267"><ele>277.66666666666663</ele><time>2026-05-01T12:26:38.352Z</time></trkpt><trkpt lat="44.6950317" lon="7.846635"><ele>277.3333333333333</ele><time>2026-05-01T12:26:39.354Z</time></trkpt><trkpt lat="44.69499" lon="7.8467417"><ele>277.0</ele><time>2026-05-01T12:26:40.354Z</time></trkpt><trkpt lat="44.69495" lon="7.846845"><ele>277.0</ele><time>2026-05-01T12:26:41.354Z</time></trkpt><trkpt lat="44.6949083" lon="7.8469467"><ele>277.0</ele><time>2026-05-01T12:26:42.352Z</time></trkpt><trkpt lat="44.694865" lon="7.8470567"><ele>277.0</ele><time>2026-05-01T12:26:43.35Z</time></trkpt><trkpt lat="44.6948183" lon="7.8471733"><ele>277.0</ele><time>2026-05-01T12:26:44.35Z</time></trkpt><trkpt lat="44.6947683" lon="7.8472983"><ele>277.0</ele><time>2026-05-01T12:26:45.352Z</time></trkpt><trkpt lat="44.6947233" lon="7.8474333"><ele>277.0</ele><time>2026-05-01T12:26:46.352Z</time></trkpt><trkpt lat="44.6946767" lon="7.8475683"><ele>277.0</ele><time>2026-05-01T12:26:47.352Z</time></trkpt><trkpt lat="44.69463" lon="7.847695"><ele>277.0</ele><time>2026-05-01T12:26:48.351Z</time></trkpt><trkpt lat="44.694585" lon="7.8478167"><ele>277.0</ele><time>2026-05-01T12:26:49.351Z</time></trkpt><trkpt lat="44.694545" lon="7.8479267"><ele>277.0</ele><time>2026-05-01T12:26:50.349Z</time></trkpt><trkpt lat="44.6945067" lon="7.8480333"><ele>277.0</ele><time>2026-05-01T12:26:51.354Z</time></trkpt><trkpt lat="44.6944667" lon="7.8481433"><ele>277.0</ele><time>2026-05-01T12:26:52.35Z</time></trkpt><trkpt lat="44.6944317" lon="7.848255"><ele>277.0</ele><time>2026-05-01T12:26:53.349Z</time></trkpt><trkpt lat="44.694395" lon="7.848365"><ele>277.0</ele><time>2026-05-01T12:26:54.352Z</time></trkpt><trkpt lat="44.69436" lon="7.848475"><ele>277.0</ele><time>2026-05-01T12:26:55.351Z</time></trkpt><trkpt lat="44.6943267" lon="7.8485783"><ele>277.0</ele><time>2026-05-01T12:26:56.351Z</time></trkpt><trkpt lat="44.6942917" lon="7.8486733"><ele>277.16666666666663</ele><time>2026-05-01T12:26:57.351Z</time></trkpt><trkpt lat="44.69426" lon="7.8487633"><ele>277.3333333333333</ele><time>2026-05-01T12:26:58.35Z</time></trkpt><trkpt lat="44.69423" lon="7.8488517"><ele>277.5</ele><time>2026-05-01T12:26:59.353Z</time></trkpt><trkpt lat="44.6941967" lon="7.848935"><ele>277.6666666666667</ele><time>2026-05-01T12:27:00.352Z</time></trkpt><trkpt lat="44.694165" lon="7.8490133"><ele>277.83333333333337</ele><time>2026-05-01T12:27:01.35Z</time></trkpt><trkpt lat="44.6941017" lon="7.8491483"><ele>278.0</ele><time>2026-05-01T12:27:03.349Z</time></trkpt><trkpt lat="44.6940383" lon="7.84925"><ele>278.1666666666667</ele><time>2026-05-01T12:27:05.353Z</time></trkpt><trkpt lat="44.6939733" lon="7.84931"><ele>278.33333333333337</ele><time>2026-05-01T12:27:07.354Z</time></trkpt><trkpt lat="44.69392" lon="7.849375"><ele>278.5</ele><time>2026-05-01T12:27:09.35Z</time></trkpt><trkpt lat="44.6938633" lon="7.8494717"><ele>278.6666666666667</ele><time>2026-05-01T12:27:12.349Z</time></trkpt><trkpt lat="44.6938" lon="7.8495833"><ele>278.8333333333333</ele><time>2026-05-01T12:27:14.357Z</time></trkpt><trkpt lat="44.6937567" lon="7.8496667"><ele>279.0</ele><time>2026-05-01T12:27:15.348Z</time></trkpt><trkpt lat="44.6937067" lon="7.8497617"><ele>279.0</ele><time>2026-05-01T12:27:16.351Z</time></trkpt><trkpt lat="44.6936583" lon="7.8498533"><ele>279.0</ele><time>2026-05-01T12:27:17.348Z</time></trkpt><trkpt lat="44.6936117" lon="7.8499367"><ele>279.0</ele><time>2026-05-01T12:27:18.348Z</time></trkpt><trkpt lat="44.69357" lon="7.8500083"><ele>279.0</ele><time>2026-05-01T12:27:19.35Z</time></trkpt><trkpt lat="44.6934917" lon="7.8501717"><ele>279.0</ele><time>2026-05-01T12:27:21.351Z</time></trkpt><trkpt lat="44.69345" lon="7.850285"><ele>279.2</ele><time>2026-05-01T12:27:22.353Z</time></trkpt><trkpt lat="44.6934167" lon="7.8504167"><ele>279.4</ele><time>2026-05-01T12:27:23.348Z</time></trkpt><trkpt lat="44.6933767" lon="7.8505617"><ele>279.6</ele><time>2026-05-01T12:27:24.353Z</time></trkpt><trkpt lat="44.693335" lon="7.8507167"><ele>279.8</ele><time>2026-05-01T12:27:25.354Z</time></trkpt><trkpt lat="44.6932883" lon="7.8508733"><ele>280.0</ele><time>2026-05-01T12:27:26.349Z</time></trkpt><trkpt lat="44.69324" lon="7.8510367"><ele>280.0</ele><time>2026-05-01T12:27:27.356Z</time></trkpt><trkpt lat="44.693185" lon="7.8512017"><ele>280.0</ele><time>2026-05-01T12:27:28.352Z</time></trkpt><trkpt lat="44.6931233" lon="7.8513733"><ele>280.0</ele><time>2026-05-01T12:27:29.35Z</time></trkpt><trkpt lat="44.6930517" lon="7.851555"><ele>280.0</ele><time>2026-05-01T12:27:30.354Z</time></trkpt><trkpt lat="44.6929783" lon="7.85174"><ele>280.3333333333333</ele><time>2026-05-01T12:27:31.351Z</time></trkpt><trkpt lat="44.6929067" lon="7.8519317"><ele>280.6666666666667</ele><time>2026-05-01T12:27:32.351Z</time></trkpt><trkpt lat="44.692835" lon="7.8521267"><ele>281.0</ele><time>2026-05-01T12:27:33.355Z</time></trkpt><trkpt lat="44.6927717" lon="7.8523133"><ele>280.6666666666667</ele><time>2026-05-01T12:27:34.351Z</time></trkpt><trkpt lat="44.6927117" lon="7.8525"><ele>280.3333333333333</ele><time>2026-05-01T12:27:35.35Z</time></trkpt><trkpt lat="44.6926517" lon="7.8526933"><ele>280.0</ele><time>2026-05-01T12:27:36.352Z</time></trkpt><trkpt lat="44.692595" lon="7.8528967"><ele>280.0</ele><time>2026-05-01T12:27:37.351Z</time></trkpt><trkpt lat="44.6925417" lon="7.853105"><ele>280.0</ele><time>2026-05-01T12:27:38.351Z</time></trkpt><trkpt lat="44.692495" lon="7.8533167"><ele>280.0</ele><time>2026-05-01T12:27:39.362Z</time></trkpt><trkpt lat="44.692455" lon="7.8535317"><ele>280.0</ele><time>2026-05-01T12:27:40.354Z</time></trkpt><trkpt lat="44.6924217" lon="7.8537433"><ele>280.0</ele><time>2026-05-01T12:27:41.349Z</time></trkpt><trkpt lat="44.692395" lon="7.8539433"><ele>280.0</ele><time>2026-05-01T12:27:42.354Z</time></trkpt><trkpt lat="44.692375" lon="7.8541267"><ele>280.0</ele><time>2026-05-01T12:27:43.35Z</time></trkpt><trkpt lat="44.69236" lon="7.8542917"><ele>279.8333333333333</ele><time>2026-05-01T12:27:44.354Z</time></trkpt><trkpt lat="44.6923483" lon="7.8544333"><ele>279.66666666666663</ele><time>2026-05-01T12:27:45.351Z</time></trkpt><trkpt lat="44.692335" lon="7.8545517"><ele>279.5</ele><time>2026-05-01T12:27:46.35Z</time></trkpt><trkpt lat="44.6923133" lon="7.8546667"><ele>279.3333333333333</ele><time>2026-05-01T12:27:48.351Z</time></trkpt><trkpt lat="44.6922833" lon="7.854745"><ele>279.1666666666667</ele><time>2026-05-01T12:27:50.359Z</time></trkpt><trkpt lat="44.6921967" lon="7.85483"><ele>279.0</ele><time>2026-05-01T12:27:52.353Z</time></trkpt><trkpt lat="44.6921333" lon="7.85485"><ele>279.0</ele><time>2026-05-01T12:27:53.35Z</time></trkpt><trkpt lat="44.6920533" lon="7.854855"><ele>279.0</ele><time>2026-05-01T12:27:54.352Z</time></trkpt><trkpt lat="44.6919583" lon="7.85485"><ele>279.0</ele><time>2026-05-01T12:27:55.349Z</time></trkpt><trkpt lat="44.6918583" lon="7.8548433"><ele>279.0</ele><time>2026-05-01T12:27:56.349Z</time></trkpt><trkpt lat="44.691765" lon="7.854835"><ele>279.0</ele><time>2026-05-01T12:27:57.353Z</time></trkpt><trkpt lat="44.69167" lon="7.85482"><ele>279.2</ele><time>2026-05-01T12:27:58.35Z</time></trkpt><trkpt lat="44.6915717" lon="7.854805"><ele>279.4</ele><time>2026-05-01T12:27:59.349Z</time></trkpt><trkpt lat="44.6914733" lon="7.8547933"><ele>279.6</ele><time>2026-05-01T12:28:00.35Z</time></trkpt><trkpt lat="44.6913767" lon="7.8547833"><ele>279.8</ele><time>2026-05-01T12:28:01.351Z</time></trkpt><trkpt lat="44.6912833" lon="7.854775"><ele>280.0</ele><time>2026-05-01T12:28:02.351Z</time></trkpt><trkpt lat="44.6911917" lon="7.854765"><ele>280.0</ele><time>2026-05-01T12:28:03.349Z</time></trkpt><trkpt lat="44.6911" lon="7.854755"><ele>280.0</ele><time>2026-05-01T12:28:04.352Z</time></trkpt><trkpt lat="44.69101" lon="7.854745"><ele>280.0</ele><time>2026-05-01T12:28:05.35Z</time></trkpt><trkpt lat="44.69092" lon="7.8547367"><ele>280.0</ele><time>2026-05-01T12:28:06.35Z</time></trkpt><trkpt lat="44.69083" lon="7.85473"><ele>280.0</ele><time>2026-05-01T12:28:07.35Z</time></trkpt><trkpt lat="44.6907433" lon="7.85472"><ele>280.0</ele><time>2026-05-01T12:28:08.351Z</time></trkpt><trkpt lat="44.6906617" lon="7.8547167"><ele>280.0</ele><time>2026-05-01T12:28:09.35Z</time></trkpt><trkpt lat="44.6905867" lon="7.8547217"><ele>280.0</ele><time>2026-05-01T12:28:10.35Z</time></trkpt><trkpt lat="44.69052" lon="7.8547317"><ele>280.0</ele><time>2026-05-01T12:28:11.348Z</time></trkpt><trkpt lat="44.6904517" lon="7.8547333"><ele>280.0</ele><time>2026-05-01T12:28:12.348Z</time></trkpt><trkpt lat="44.6903783" lon="7.8547333"><ele>280.0</ele><time>2026-05-01T12:28:13.352Z</time></trkpt><trkpt lat="44.690305" lon="7.854745"><ele>280.0</ele><time>2026-05-01T12:28:14.35Z</time></trkpt><trkpt lat="44.6902333" lon="7.8547867"><ele>279.8</ele><time>2026-05-01T12:28:15.349Z</time></trkpt><trkpt lat="44.690165" lon="7.8548717"><ele>279.6</ele><time>2026-05-01T12:28:16.348Z</time></trkpt><trkpt lat="44.6900867" lon="7.8549317"><ele>279.4</ele><time>2026-05-01T12:28:17.352Z</time></trkpt><trkpt lat="44.6899933" lon="7.854975"><ele>279.2</ele><time>2026-05-01T12:28:18.351Z</time></trkpt><trkpt lat="44.6898817" lon="7.8550117"><ele>279.0</ele><time>2026-05-01T12:28:19.353Z</time></trkpt><trkpt lat="44.6897567" lon="7.855045"><ele>279.0</ele><time>2026-05-01T12:28:20.349Z</time></trkpt><trkpt lat="44.689625" lon="7.8550717"><ele>279.0</ele><time>2026-05-01T12:28:21.352Z</time></trkpt><trkpt lat="44.6894867" lon="7.8550817"><ele>279.0</ele><time>2026-05-01T12:28:22.35Z</time></trkpt><trkpt lat="44.6893417" lon="7.85508"><ele>279.0</ele><time>2026-05-01T12:28:23.35Z</time></trkpt><trkpt lat="44.68919" lon="7.8550667"><ele>279.0</ele><time>2026-05-01T12:28:24.357Z</time></trkpt><trkpt lat="44.6890367" lon="7.8550417"><ele>279.0</ele><time>2026-05-01T12:28:25.352Z</time></trkpt><trkpt lat="44.68888" lon="7.8549983"><ele>279.0</ele><time>2026-05-01T12:28:26.353Z</time></trkpt><trkpt lat="44.6887217" lon="7.854945"><ele>277.3333333333333</ele><time>2026-05-01T12:28:27.35Z</time></trkpt><trkpt lat="44.6885567" lon="7.8548867"><ele>275.66666666666663</ele><time>2026-05-01T12:28:28.351Z</time></trkpt><trkpt lat="44.6883917" lon="7.8548233"><ele>274.0</ele><time>2026-05-01T12:28:29.352Z</time></trkpt><trkpt lat="44.6882267" lon="7.8547517"><ele>274.0</ele><time>2026-05-01T12:28:30.355Z</time></trkpt><trkpt lat="44.6880633" lon="7.854665"><ele>274.0</ele><time>2026-05-01T12:28:31.349Z</time></trkpt><trkpt lat="44.6879083" lon="7.8545517"><ele>274.0</ele><time>2026-05-01T12:28:32.352Z</time></trkpt><trkpt lat="44.68776" lon="7.8544117"><ele>272.0</ele><time>2026-05-01T12:28:33.352Z</time></trkpt><trkpt lat="44.6876183" lon="7.8542567"><ele>270.0</ele><time>2026-05-01T12:28:34.351Z</time></trkpt><trkpt lat="44.687475" lon="7.8540883"><ele>268.0</ele><time>2026-05-01T12:28:35.351Z</time></trkpt><trkpt lat="44.6873383" lon="7.853915"><ele>268.0</ele><time>2026-05-01T12:28:36.35Z</time></trkpt><trkpt lat="44.6872" lon="7.8537333"><ele>268.0</ele><time>2026-05-01T12:28:37.35Z</time></trkpt><trkpt lat="44.6870583" lon="7.8535467"><ele>268.0</ele><time>2026-05-01T12:28:38.352Z</time></trkpt><trkpt lat="44.6869133" lon="7.8533583"><ele>265.3333333333333</ele><time>2026-05-01T12:28:39.358Z</time></trkpt><trkpt lat="44.6867667" lon="7.85317"><ele>262.6666666666667</ele><time>2026-05-01T12:28:40.357Z</time></trkpt><trkpt lat="44.6866217" lon="7.85299"><ele>260.0</ele><time>2026-05-01T12:28:41.356Z</time></trkpt><trkpt lat="44.6864767" lon="7.8528217"><ele>260.0</ele><time>2026-05-01T12:28:42.353Z</time></trkpt><trkpt lat="44.6863267" lon="7.8526683"><ele>260.0</ele><time>2026-05-01T12:28:43.356Z</time></trkpt><trkpt lat="44.6861783" lon="7.8525283"><ele>260.0</ele><time>2026-05-01T12:28:44.352Z</time></trkpt><trkpt lat="44.68603" lon="7.8523983"><ele>259.0</ele><time>2026-05-01T12:28:45.352Z</time></trkpt><trkpt lat="44.6858833" lon="7.85228"><ele>258.0</ele><time>2026-05-01T12:28:46.349Z</time></trkpt><trkpt lat="44.68574" lon="7.8521717"><ele>257.0</ele><time>2026-05-01T12:28:47.352Z</time></trkpt><trkpt lat="44.6856133" lon="7.8520767"><ele>257.0</ele><time>2026-05-01T12:28:48.349Z</time></trkpt><trkpt lat="44.68549" lon="7.8519917"><ele>257.0</ele><time>2026-05-01T12:28:49.352Z</time></trkpt><trkpt lat="44.6853717" lon="7.8519133"><ele>257.0</ele><time>2026-05-01T12:28:50.351Z</time></trkpt><trkpt lat="44.6852533" lon="7.851845"><ele>257.0</ele><time>2026-05-01T12:28:51.353Z</time></trkpt><trkpt lat="44.6851333" lon="7.8517883"><ele>256.33333333333337</ele><time>2026-05-01T12:28:52.348Z</time></trkpt><trkpt lat="44.6850033" lon="7.8517417"><ele>255.66666666666669</ele><time>2026-05-01T12:28:53.353Z</time></trkpt><trkpt lat="44.684855" lon="7.8517"><ele>255.0</ele><time>2026-05-01T12:28:54.355Z</time></trkpt><trkpt lat="44.684685" lon="7.8516567"><ele>255.0</ele><time>2026-05-01T12:28:55.351Z</time></trkpt><trkpt lat="44.6844933" lon="7.8516183"><ele>255.0</ele><time>2026-05-01T12:28:56.35Z</time></trkpt><trkpt lat="44.6843" lon="7.851605"><ele>255.0</ele><time>2026-05-01T12:28:57.351Z</time></trkpt><trkpt lat="44.6840983" lon="7.85161"><ele>250.66666666666669</ele><time>2026-05-01T12:28:58.35Z</time></trkpt><trkpt lat="44.6838933" lon="7.8516267"><ele>246.33333333333334</ele><time>2026-05-01T12:28:59.349Z</time></trkpt><trkpt lat="44.6836833" lon="7.851645"><ele>242.0</ele><time>2026-05-01T12:29:00.352Z</time></trkpt><trkpt lat="44.6834767" lon="7.8516667"><ele>239.66666666666669</ele><time>2026-05-01T12:29:01.352Z</time></trkpt><trkpt lat="44.6832683" lon="7.8516917"><ele>237.33333333333331</ele><time>2026-05-01T12:29:02.356Z</time></trkpt><trkpt lat="44.683055" lon="7.8517217"><ele>235.0</ele><time>2026-05-01T12:29:03.357Z</time></trkpt><trkpt lat="44.6828383" lon="7.85176"><ele>230.66666666666666</ele><time>2026-05-01T12:29:04.351Z</time></trkpt><trkpt lat="44.6826217" lon="7.8517983"><ele>226.33333333333331</ele><time>2026-05-01T12:29:05.357Z</time></trkpt><trkpt lat="44.6824033" lon="7.851835"><ele>222.0</ele><time>2026-05-01T12:29:06.354Z</time></trkpt><trkpt lat="44.68218" lon="7.85187"><ele>222.0</ele><time>2026-05-01T12:29:07.361Z</time></trkpt><trkpt lat="44.6819567" lon="7.851905"><ele>222.0</ele><time>2026-05-01T12:29:08.356Z</time></trkpt><trkpt lat="44.6817333" lon="7.8519367"><ele>222.0</ele><time>2026-05-01T12:29:09.353Z</time></trkpt><trkpt lat="44.6815233" lon="7.85198"><ele>221.66666666666669</ele><time>2026-05-01T12:29:10.351Z</time></trkpt><trkpt lat="44.681305" lon="7.85201"><ele>221.33333333333334</ele><time>2026-05-01T12:29:11.352Z</time></trkpt><trkpt lat="44.6810817" lon="7.85204"><ele>221.0</ele><time>2026-05-01T12:29:12.354Z</time></trkpt><trkpt lat="44.6808617" lon="7.852065"><ele>220.0</ele><time>2026-05-01T12:29:13.356Z</time></trkpt><trkpt lat="44.6806433" lon="7.8520933"><ele>219.0</ele><time>2026-05-01T12:29:14.352Z</time></trkpt><trkpt lat="44.680425" lon="7.852135"><ele>218.0</ele><time>2026-05-01T12:29:15.352Z</time></trkpt><trkpt lat="44.6802" lon="7.852175"><ele>218.0</ele><time>2026-05-01T12:29:16.354Z</time></trkpt><trkpt lat="44.679975" lon="7.852215"><ele>218.0</ele><time>2026-05-01T12:29:17.351Z</time></trkpt><trkpt lat="44.6797583" lon="7.8522517"><ele>218.0</ele><time>2026-05-01T12:29:18.359Z</time></trkpt><trkpt lat="44.67954" lon="7.8522883"><ele>218.66666666666669</ele><time>2026-05-01T12:29:19.352Z</time></trkpt><trkpt lat="44.6793217" lon="7.8523267"><ele>219.33333333333331</ele><time>2026-05-01T12:29:20.354Z</time></trkpt><trkpt lat="44.6791" lon="7.8523617"><ele>220.0</ele><time>2026-05-01T12:29:21.353Z</time></trkpt><trkpt lat="44.6788783" lon="7.8524033"><ele>220.0</ele><time>2026-05-01T12:29:22.354Z</time></trkpt><trkpt lat="44.6786467" lon="7.8524467"><ele>220.0</ele><time>2026-05-01T12:29:23.351Z</time></trkpt><trkpt lat="44.6784167" lon="7.8524833"><ele>219.5</ele><time>2026-05-01T12:29:24.356Z</time></trkpt><trkpt lat="44.6781867" lon="7.8525233"><ele>219.0</ele><time>2026-05-01T12:29:25.352Z</time></trkpt><trkpt lat="44.6779533" lon="7.8525667"><ele>220.5</ele><time>2026-05-01T12:29:26.353Z</time></trkpt><trkpt lat="44.67772" lon="7.8526133"><ele>222.0</ele><time>2026-05-01T12:29:27.352Z</time></trkpt><trkpt lat="44.6774817" lon="7.8526583"><ele>222.5</ele><time>2026-05-01T12:29:28.354Z</time></trkpt><trkpt lat="44.6772433" lon="7.852705"><ele>223.0</ele><time>2026-05-01T12:29:29.352Z</time></trkpt><trkpt lat="44.677005" lon="7.8527533"><ele>222.5</ele><time>2026-05-01T12:29:30.353Z</time></trkpt><trkpt lat="44.6767633" lon="7.8527933"><ele>222.0</ele><time>2026-05-01T12:29:31.356Z</time></trkpt><trkpt lat="44.6765217" lon="7.8528217"><ele>222.0</ele><time>2026-05-01T12:29:32.354Z</time></trkpt><trkpt lat="44.6762833" lon="7.8528533"><ele>222.0</ele><time>2026-05-01T12:29:33.355Z</time></trkpt><trkpt lat="44.676045" lon="7.85289"><ele>221.5</ele><time>2026-05-01T12:29:34.35Z</time></trkpt><trkpt lat="44.675815" lon="7.852925"><ele>221.0</ele><time>2026-05-01T12:29:35.349Z</time></trkpt><trkpt lat="44.6755867" lon="7.852965"><ele>221.0</ele><time>2026-05-01T12:29:36.351Z</time></trkpt><trkpt lat="44.67536" lon="7.8530067"><ele>221.0</ele><time>2026-05-01T12:29:37.352Z</time></trkpt><trkpt lat="44.6751317" lon="7.85305"><ele>221.0</ele><time>2026-05-01T12:29:38.353Z</time></trkpt><trkpt lat="44.6749033" lon="7.8530917"><ele>221.0</ele><time>2026-05-01T12:29:39.352Z</time></trkpt><trkpt lat="44.674685" lon="7.8531317"><ele>221.0</ele><time>2026-05-01T12:29:40.352Z</time></trkpt><trkpt lat="44.67448" lon="7.853165"><ele>221.0</ele><time>2026-05-01T12:29:41.361Z</time></trkpt><trkpt lat="44.6742917" lon="7.8531983"><ele>221.0</ele><time>2026-05-01T12:29:42.356Z</time></trkpt><trkpt lat="44.6741117" lon="7.8532317"><ele>222.0</ele><time>2026-05-01T12:29:43.357Z</time></trkpt><trkpt lat="44.6739367" lon="7.85326"><ele>223.0</ele><time>2026-05-01T12:29:44.359Z</time></trkpt><trkpt lat="44.67376" lon="7.85329"><ele>224.0</ele><time>2026-05-01T12:29:45.353Z</time></trkpt><trkpt lat="44.6735867" lon="7.8533183"><ele>224.33333333333334</ele><time>2026-05-01T12:29:46.352Z</time></trkpt><trkpt lat="44.6734117" lon="7.85335"><ele>224.66666666666669</ele><time>2026-05-01T12:29:47.351Z</time></trkpt><trkpt lat="44.6732333" lon="7.8533833"><ele>225.0</ele><time>2026-05-01T12:29:48.352Z</time></trkpt><trkpt lat="44.673055" lon="7.8534117"><ele>225.0</ele><time>2026-05-01T12:29:49.352Z</time></trkpt><trkpt lat="44.67288" lon="7.8534383"><ele>225.0</ele><time>2026-05-01T12:29:50.355Z</time></trkpt><trkpt lat="44.6727083" lon="7.8534667"><ele>225.0</ele><time>2026-05-01T12:29:51.352Z</time></trkpt><trkpt lat="44.6725417" lon="7.8534983"><ele>226.0</ele><time>2026-05-01T12:29:52.355Z</time></trkpt><trkpt lat="44.6723617" lon="7.8535333"><ele>227.0</ele><time>2026-05-01T12:29:53.352Z</time></trkpt><trkpt lat="44.6721833" lon="7.8535633"><ele>228.0</ele><time>2026-05-01T12:29:54.354Z</time></trkpt><trkpt lat="44.6720017" lon="7.853595"><ele>226.66666666666669</ele><time>2026-05-01T12:29:55.352Z</time></trkpt><trkpt lat="44.6718133" lon="7.85363"><ele>225.33333333333334</ele><time>2026-05-01T12:29:56.353Z</time></trkpt><trkpt lat="44.6716217" lon="7.8536617"><ele>224.0</ele><time>2026-05-01T12:29:57.352Z</time></trkpt><trkpt lat="44.67143" lon="7.853695"><ele>224.0</ele><time>2026-05-01T12:29:58.355Z</time></trkpt><trkpt lat="44.6712333" lon="7.8537233"><ele>224.0</ele><time>2026-05-01T12:29:59.355Z</time></trkpt><trkpt lat="44.6710367" lon="7.85375"><ele>224.0</ele><time>2026-05-01T12:30:00.352Z</time></trkpt><trkpt lat="44.6708367" lon="7.85378"><ele>222.66666666666669</ele><time>2026-05-01T12:30:01.353Z</time></trkpt><trkpt lat="44.6706367" lon="7.853815"><ele>221.33333333333331</ele><time>2026-05-01T12:30:02.351Z</time></trkpt><trkpt lat="44.6704333" lon="7.8538483"><ele>220.0</ele><time>2026-05-01T12:30:03.355Z</time></trkpt><trkpt lat="44.6702283" lon="7.85388"><ele>220.0</ele><time>2026-05-01T12:30:04.349Z</time></trkpt><trkpt lat="44.6700217" lon="7.8539117"><ele>220.0</ele><time>2026-05-01T12:30:05.355Z</time></trkpt><trkpt lat="44.6698183" lon="7.853945"><ele>220.0</ele><time>2026-05-01T12:30:06.349Z</time></trkpt><trkpt lat="44.669615" lon="7.8539767"><ele>220.0</ele><time>2026-05-01T12:30:07.352Z</time></trkpt><trkpt lat="44.66941" lon="7.85401"><ele>220.0</ele><time>2026-05-01T12:30:08.354Z</time></trkpt><trkpt lat="44.6692017" lon="7.8540433"><ele>220.0</ele><time>2026-05-01T12:30:09.352Z</time></trkpt><trkpt lat="44.6689883" lon="7.8540767"><ele>220.0</ele><time>2026-05-01T12:30:10.354Z</time></trkpt><trkpt lat="44.66877" lon="7.8541117"><ele>220.0</ele><time>2026-05-01T12:30:11.35Z</time></trkpt><trkpt lat="44.6685517" lon="7.854145"><ele>220.0</ele><time>2026-05-01T12:30:12.35Z</time></trkpt><trkpt lat="44.6683333" lon="7.8541817"><ele>220.0</ele><time>2026-05-01T12:30:13.352Z</time></trkpt><trkpt lat="44.6681233" lon="7.854215"><ele>220.0</ele><time>2026-05-01T12:30:14.351Z</time></trkpt><trkpt lat="44.6679233" lon="7.8542467"><ele>220.0</ele><time>2026-05-01T12:30:15.352Z</time></trkpt><trkpt lat="44.6677333" lon="7.8542767"><ele>219.33333333333331</ele><time>2026-05-01T12:30:16.349Z</time></trkpt><trkpt lat="44.6675517" lon="7.8543033"><ele>218.66666666666669</ele><time>2026-05-01T12:30:17.35Z</time></trkpt><trkpt lat="44.6673833" lon="7.854325"><ele>218.0</ele><time>2026-05-01T12:30:18.349Z</time></trkpt><trkpt lat="44.6672233" lon="7.8543417"><ele>218.0</ele><time>2026-05-01T12:30:19.349Z</time></trkpt><trkpt lat="44.6670717" lon="7.8543533"><ele>218.0</ele><time>2026-05-01T12:30:20.352Z</time></trkpt><trkpt lat="44.666935" lon="7.854355"><ele>218.0</ele><time>2026-05-01T12:30:21.349Z</time></trkpt><trkpt lat="44.66681" lon="7.854335"><ele>218.0</ele><time>2026-05-01T12:30:22.351Z</time></trkpt><trkpt lat="44.6667" lon="7.8542933"><ele>218.2</ele><time>2026-05-01T12:30:23.35Z</time></trkpt><trkpt lat="44.6665933" lon="7.854255"><ele>218.4</ele><time>2026-05-01T12:30:24.351Z</time></trkpt><trkpt lat="44.66649" lon="7.8542517"><ele>218.59999999999997</ele><time>2026-05-01T12:30:25.352Z</time></trkpt><trkpt lat="44.6663883" lon="7.8542983"><ele>218.79999999999998</ele><time>2026-05-01T12:30:26.352Z</time></trkpt><trkpt lat="44.666285" lon="7.8543783"><ele>219.0</ele><time>2026-05-01T12:30:27.351Z</time></trkpt><trkpt lat="44.6661717" lon="7.8544567"><ele>219.0</ele><time>2026-05-01T12:30:28.353Z</time></trkpt><trkpt lat="44.6660417" lon="7.8545083"><ele>219.0</ele><time>2026-05-01T12:30:29.351Z</time></trkpt><trkpt lat="44.665895" lon="7.854535"><ele>219.0</ele><time>2026-05-01T12:30:30.353Z</time></trkpt><trkpt lat="44.6657333" lon="7.8545467"><ele>219.0</ele><time>2026-05-01T12:30:31.354Z</time></trkpt><trkpt lat="44.665565" lon="7.85455"><ele>219.0</ele><time>2026-05-01T12:30:32.348Z</time></trkpt><trkpt lat="44.6653983" lon="7.8545517"><ele>219.0</ele><time>2026-05-01T12:30:33.349Z</time></trkpt><trkpt lat="44.66524" lon="7.8545517"><ele>219.0</ele><time>2026-05-01T12:30:34.352Z</time></trkpt><trkpt lat="44.66508" lon="7.85455"><ele>219.0</ele><time>2026-05-01T12:30:35.353Z</time></trkpt><trkpt lat="44.6649067" lon="7.8545517"><ele>219.0</ele><time>2026-05-01T12:30:36.356Z</time></trkpt><trkpt lat="44.664715" lon="7.85456"><ele>219.0</ele><time>2026-05-01T12:30:37.357Z</time></trkpt><trkpt lat="44.6645133" lon="7.85456"><ele>219.33333333333331</ele><time>2026-05-01T12:30:38.352Z</time></trkpt><trkpt lat="44.6643033" lon="7.8545483"><ele>219.66666666666666</ele><time>2026-05-01T12:30:39.349Z</time></trkpt><trkpt lat="44.6640883" lon="7.8545383"><ele>220.0</ele><time>2026-05-01T12:30:40.349Z</time></trkpt><trkpt lat="44.6638733" lon="7.8545217"><ele>220.0</ele><time>2026-05-01T12:30:41.355Z</time></trkpt><trkpt lat="44.663655" lon="7.8545133"><ele>220.0</ele><time>2026-05-01T12:30:42.35Z</time></trkpt><trkpt lat="44.6634367" lon="7.85451"><ele>220.0</ele><time>2026-05-01T12:30:43.359Z</time></trkpt><trkpt lat="44.66323" lon="7.85451"><ele>219.0</ele><time>2026-05-01T12:30:44.356Z</time></trkpt><trkpt lat="44.6630467" lon="7.8545117"><ele>218.0</ele><time>2026-05-01T12:30:45.358Z</time></trkpt><trkpt lat="44.6628933" lon="7.85451"><ele>217.0</ele><time>2026-05-01T12:30:46.349Z</time></trkpt><trkpt lat="44.662765" lon="7.854495"><ele>217.0</ele><time>2026-05-01T12:30:47.35Z</time></trkpt><trkpt lat="44.6626583" lon="7.8544483"><ele>217.0</ele><time>2026-05-01T12:30:48.348Z</time></trkpt><trkpt lat="44.6625717" lon="7.8543667"><ele>217.0</ele><time>2026-05-01T12:30:49.349Z</time></trkpt><trkpt lat="44.662485" lon="7.8542867"><ele>217.0</ele><time>2026-05-01T12:30:50.36Z</time></trkpt><trkpt lat="44.6624" lon="7.8542383"><ele>217.0</ele><time>2026-05-01T12:30:51.351Z</time></trkpt><trkpt lat="44.6623167" lon="7.854205"><ele>217.0</ele><time>2026-05-01T12:30:52.355Z</time></trkpt><trkpt lat="44.66222" lon="7.8541883"><ele>217.0</ele><time>2026-05-01T12:30:53.352Z</time></trkpt><trkpt lat="44.6621083" lon="7.8542783"><ele>217.0</ele><time>2026-05-01T12:30:54.352Z</time></trkpt><trkpt lat="44.661975" lon="7.854375"><ele>217.0</ele><time>2026-05-01T12:30:55.355Z</time></trkpt><trkpt lat="44.6618283" lon="7.85446"><ele>217.33333333333331</ele><time>2026-05-01T12:30:56.353Z</time></trkpt><trkpt lat="44.6616617" lon="7.8544967"><ele>217.66666666666669</ele><time>2026-05-01T12:30:57.353Z</time></trkpt><trkpt lat="44.6614817" lon="7.85453"><ele>218.0</ele><time>2026-05-01T12:30:58.353Z</time></trkpt><trkpt lat="44.6612883" lon="7.85457"><ele>214.66666666666669</ele><time>2026-05-01T12:30:59.353Z</time></trkpt><trkpt lat="44.661085" lon="7.85462"><ele>211.33333333333331</ele><time>2026-05-01T12:31:00.349Z</time></trkpt><trkpt lat="44.6608667" lon="7.8547"><ele>208.0</ele><time>2026-05-01T12:31:01.351Z</time></trkpt><trkpt lat="44.6606317" lon="7.8548017"><ele>208.0</ele><time>2026-05-01T12:31:02.353Z</time></trkpt><trkpt lat="44.6603817" lon="7.8549067"><ele>208.0</ele><time>2026-05-01T12:31:03.358Z</time></trkpt><trkpt lat="44.6601233" lon="7.855005"><ele>208.5</ele><time>2026-05-01T12:31:04.356Z</time></trkpt><trkpt lat="44.6598617" lon="7.8551067"><ele>209.0</ele><time>2026-05-01T12:31:05.35Z</time></trkpt><trkpt lat="44.6595933" lon="7.8552133"><ele>206.0</ele><time>2026-05-01T12:31:06.353Z</time></trkpt><trkpt lat="44.659325" lon="7.8553217"><ele>203.0</ele><time>2026-05-01T12:31:07.352Z</time></trkpt><trkpt lat="44.659065" lon="7.8554217"><ele>203.0</ele><time>2026-05-01T12:31:08.355Z</time></trkpt><trkpt lat="44.658815" lon="7.85551"><ele>203.0</ele><time>2026-05-01T12:31:09.353Z</time></trkpt><trkpt lat="44.658575" lon="7.8555917"><ele>206.5</ele><time>2026-05-01T12:31:10.35Z</time></trkpt><trkpt lat="44.65835" lon="7.8556783"><ele>210.0</ele><time>2026-05-01T12:31:11.353Z</time></trkpt><trkpt lat="44.658135" lon="7.85576"><ele>210.0</ele><time>2026-05-01T12:31:12.348Z</time></trkpt><trkpt lat="44.657935" lon="7.8558383"><ele>210.0</ele><time>2026-05-01T12:31:13.349Z</time></trkpt><trkpt lat="44.6577567" lon="7.8559067"><ele>210.0</ele><time>2026-05-01T12:31:14.356Z</time></trkpt><trkpt lat="44.6575917" lon="7.8559783"><ele>210.66666666666669</ele><time>2026-05-01T12:31:15.35Z</time></trkpt><trkpt lat="44.6574383" lon="7.856045"><ele>211.33333333333334</ele><time>2026-05-01T12:31:16.353Z</time></trkpt><trkpt lat="44.6572883" lon="7.8561167"><ele>212.0</ele><time>2026-05-01T12:31:17.35Z</time></trkpt><trkpt lat="44.6571267" lon="7.8561917"><ele>212.0</ele><time>2026-05-01T12:31:18.351Z</time></trkpt><trkpt lat="44.6569633" lon="7.8562817"><ele>212.0</ele><time>2026-05-01T12:31:19.349Z</time></trkpt><trkpt lat="44.6568017" lon="7.85638"><ele>212.0</ele><time>2026-05-01T12:31:20.353Z</time></trkpt><trkpt lat="44.6566467" lon="7.8564733"><ele>213.5</ele><time>2026-05-01T12:31:21.355Z</time></trkpt><trkpt lat="44.6565083" lon="7.85656"><ele>215.0</ele><time>2026-05-01T12:31:22.355Z</time></trkpt><trkpt lat="44.6563867" lon="7.85662"><ele>216.5</ele><time>2026-05-01T12:31:23.351Z</time></trkpt><trkpt lat="44.656285" lon="7.85664"><ele>218.0</ele><time>2026-05-01T12:31:24.354Z</time></trkpt><trkpt lat="44.6561983" lon="7.8566233"><ele>218.0</ele><time>2026-05-01T12:31:25.351Z</time></trkpt><trkpt lat="44.656145" lon="7.8565517"><ele>218.0</ele><time>2026-05-01T12:31:26.348Z</time></trkpt><trkpt lat="44.6561217" lon="7.85644"><ele>218.0</ele><time>2026-05-01T12:31:27.358Z</time></trkpt><trkpt lat="44.656105" lon="7.85629"><ele>218.0</ele><time>2026-05-01T12:31:28.354Z</time></trkpt><trkpt lat="44.6560867" lon="7.85612"><ele>218.0</ele><time>2026-05-01T12:31:29.349Z</time></trkpt><trkpt lat="44.65606" lon="7.85593"><ele>232.0</ele><time>2026-05-01T12:31:30.35Z</time></trkpt><trkpt lat="44.6560317" lon="7.85572"><ele>246.0</ele><time>2026-05-01T12:31:31.352Z</time></trkpt><trkpt lat="44.655995" lon="7.8554917"><ele>260.0</ele><time>2026-05-01T12:31:32.354Z</time></trkpt><trkpt lat="44.6559517" lon="7.8552467"><ele>257.33333333333337</ele><time>2026-05-01T12:31:33.352Z</time></trkpt><trkpt lat="44.6558917" lon="7.8549967"><ele>254.66666666666669</ele><time>2026-05-01T12:31:34.353Z</time></trkpt><trkpt lat="44.6558033" lon="7.8547483"><ele>252.0</ele><time>2026-05-01T12:31:35.352Z</time></trkpt><trkpt lat="44.655695" lon="7.8545067"><ele>246.66666666666669</ele><time>2026-05-01T12:31:36.35Z</time></trkpt><trkpt lat="44.6555783" lon="7.8542683"><ele>241.33333333333334</ele><time>2026-05-01T12:31:37.351Z</time></trkpt><trkpt lat="44.6554667" lon="7.8540433"><ele>236.0</ele><time>2026-05-01T12:31:38.349Z</time></trkpt><trkpt lat="44.6553717" lon="7.8538433"><ele>236.0</ele><time>2026-05-01T12:31:39.348Z</time></trkpt><trkpt lat="44.6552933" lon="7.8536817"><ele>236.00000000000003</ele><time>2026-05-01T12:31:40.352Z</time></trkpt><trkpt lat="44.6552217" lon="7.853565"><ele>236.00000000000003</ele><time>2026-05-01T12:31:41.352Z</time></trkpt><trkpt lat="44.6551567" lon="7.8535167"><ele>236.0</ele><time>2026-05-01T12:31:42.355Z</time></trkpt><trkpt lat="44.6550567" lon="7.8535767"><ele>236.0</ele><time>2026-05-01T12:31:44.351Z</time></trkpt><trkpt lat="44.6550733" lon="7.85377"><ele>239.20000000000002</ele><time>2026-05-01T12:31:46.349Z</time></trkpt><trkpt lat="44.6551317" lon="7.853895"><ele>242.40000000000003</ele><time>2026-05-01T12:31:47.356Z</time></trkpt><trkpt lat="44.655195" lon="7.8540317"><ele>245.6</ele><time>2026-05-01T12:31:48.35Z</time></trkpt><trkpt lat="44.6552567" lon="7.8541717"><ele>248.8</ele><time>2026-05-01T12:31:49.352Z</time></trkpt><trkpt lat="44.6553033" lon="7.8543067"><ele>252.0</ele><time>2026-05-01T12:31:50.351Z</time></trkpt><trkpt lat="44.6553233" lon="7.8544117"><ele>252.0</ele><time>2026-05-01T12:31:51.352Z</time></trkpt><trkpt lat="44.6552933" lon="7.8545167"><ele>252.0</ele><time>2026-05-01T12:31:53.352Z</time></trkpt><trkpt lat="44.6552233" lon="7.8544783"><ele>252.0</ele><time>2026-05-01T12:31:55.354Z</time></trkpt><trkpt lat="44.6551933" lon="7.8543717"><ele>252.0</ele><time>2026-05-01T12:31:56.354Z</time></trkpt><trkpt lat="44.655155" lon="7.854265"><ele>252.0</ele><time>2026-05-01T12:31:57.35Z</time></trkpt><trkpt lat="44.6550933" lon="7.8541417"><ele>252.0</ele><time>2026-05-01T12:31:58.349Z</time></trkpt><trkpt lat="44.655005" lon="7.854035"><ele>255.0</ele><time>2026-05-01T12:31:59.351Z</time></trkpt><trkpt lat="44.6549067" lon="7.8539633"><ele>258.0</ele><time>2026-05-01T12:32:00.35Z</time></trkpt><trkpt lat="44.654805" lon="7.853945"><ele>261.0</ele><time>2026-05-01T12:32:01.35Z</time></trkpt><trkpt lat="44.654705" lon="7.853975"><ele>264.0</ele><time>2026-05-01T12:32:02.35Z</time></trkpt><trkpt lat="44.6546083" lon="7.854055"><ele>267.0</ele><time>2026-05-01T12:32:03.352Z</time></trkpt><trkpt lat="44.6545167" lon="7.854155"><ele>267.5</ele><time>2026-05-01T12:32:04.355Z</time></trkpt><trkpt lat="44.6544217" lon="7.8542833"><ele>268.0</ele><time>2026-05-01T12:32:05.353Z</time></trkpt><trkpt lat="44.65431" lon="7.8544117"><ele>268.5</ele><time>2026-05-01T12:32:06.354Z</time></trkpt><trkpt lat="44.6541917" lon="7.8545133"><ele>269.0</ele><time>2026-05-01T12:32:07.353Z</time></trkpt><trkpt lat="44.6540667" lon="7.8545833"><ele>272.25</ele><time>2026-05-01T12:32:08.349Z</time></trkpt><trkpt lat="44.6539367" lon="7.85465"><ele>275.5</ele><time>2026-05-01T12:32:09.351Z</time></trkpt><trkpt lat="44.653795" lon="7.854735"><ele>278.75</ele><time>2026-05-01T12:32:10.353Z</time></trkpt><trkpt lat="44.653655" lon="7.8548233"><ele>282.0</ele><time>2026-05-01T12:32:11.351Z</time></trkpt><trkpt lat="44.6535083" lon="7.8548867"><ele>282.3333333333333</ele><time>2026-05-01T12:32:12.349Z</time></trkpt><trkpt lat="44.6533567" lon="7.8549467"><ele>282.66666666666663</ele><time>2026-05-01T12:32:13.35Z</time></trkpt><trkpt lat="44.6532067" lon="7.8549967"><ele>283.0</ele><time>2026-05-01T12:32:14.352Z</time></trkpt><trkpt lat="44.6530633" lon="7.8550433"><ele>283.0</ele><time>2026-05-01T12:32:15.353Z</time></trkpt><trkpt lat="44.65293" lon="7.8550867"><ele>283.0</ele><time>2026-05-01T12:32:16.353Z</time></trkpt><trkpt lat="44.6528" lon="7.8551333"><ele>283.0</ele><time>2026-05-01T12:32:17.352Z</time></trkpt><trkpt lat="44.6526833" lon="7.8551667"><ele>283.0</ele><time>2026-05-01T12:32:18.354Z</time></trkpt><trkpt lat="44.6525683" lon="7.8551883"><ele>284.4</ele><time>2026-05-01T12:32:19.352Z</time></trkpt><trkpt lat="44.65247" lon="7.8551967"><ele>285.8</ele><time>2026-05-01T12:32:20.348Z</time></trkpt><trkpt lat="44.652375" lon="7.8552"><ele>287.2</ele><time>2026-05-01T12:32:21.352Z</time></trkpt><trkpt lat="44.6522833" lon="7.8552083"><ele>288.6</ele><time>2026-05-01T12:32:22.352Z</time></trkpt><trkpt lat="44.652195" lon="7.8552233"><ele>290.0</ele><time>2026-05-01T12:32:23.356Z</time></trkpt><trkpt lat="44.6521117" lon="7.85525"><ele>290.0</ele><time>2026-05-01T12:32:24.353Z</time></trkpt><trkpt lat="44.6520417" lon="7.8552983"><ele>290.0</ele><time>2026-05-01T12:32:25.353Z</time></trkpt><trkpt lat="44.65199" lon="7.8553633"><ele>290.0</ele><time>2026-05-01T12:32:26.358Z</time></trkpt><trkpt lat="44.6519483" lon="7.85546"><ele>290.0</ele><time>2026-05-01T12:32:27.35Z</time></trkpt><trkpt lat="44.6519283" lon="7.8555783"><ele>290.0</ele><time>2026-05-01T12:32:28.35Z</time></trkpt><trkpt lat="44.6519367" lon="7.855735"><ele>290.0</ele><time>2026-05-01T12:32:29.349Z</time></trkpt><trkpt lat="44.6519583" lon="7.8559067"><ele>290.75</ele><time>2026-05-01T12:32:30.349Z</time></trkpt><trkpt lat="44.651975" lon="7.8560733"><ele>291.5</ele><time>2026-05-01T12:32:31.35Z</time></trkpt><trkpt lat="44.6519883" lon="7.85624"><ele>292.25</ele><time>2026-05-01T12:32:32.349Z</time></trkpt><trkpt lat="44.652" lon="7.8564117"><ele>293.0</ele><time>2026-05-01T12:32:33.352Z</time></trkpt><trkpt lat="44.6520083" lon="7.8565933"><ele>293.0</ele><time>2026-05-01T12:32:34.351Z</time></trkpt><trkpt lat="44.6520167" lon="7.8567717"><ele>293.0</ele><time>2026-05-01T12:32:35.35Z</time></trkpt><trkpt lat="44.6520233" lon="7.8569367"><ele>293.0</ele><time>2026-05-01T12:32:36.349Z</time></trkpt><trkpt lat="44.6520267" lon="7.8570883"><ele>293.0</ele><time>2026-05-01T12:32:37.35Z</time></trkpt><trkpt lat="44.65203" lon="7.857225"><ele>293.0</ele><time>2026-05-01T12:32:38.35Z</time></trkpt><trkpt lat="44.6520317" lon="7.857355"><ele>293.0</ele><time>2026-05-01T12:32:39.351Z</time></trkpt><trkpt lat="44.6520367" lon="7.85749"><ele>293.0</ele><time>2026-05-01T12:32:40.35Z</time></trkpt><trkpt lat="44.6520433" lon="7.8576183"><ele>293.0</ele><time>2026-05-01T12:32:41.351Z</time></trkpt><trkpt lat="44.6520433" lon="7.85774"><ele>293.0</ele><time>2026-05-01T12:32:42.352Z</time></trkpt><trkpt lat="44.6520417" lon="7.8578483"><ele>293.0</ele><time>2026-05-01T12:32:43.349Z</time></trkpt><trkpt lat="44.6520367" lon="7.85794"><ele>293.0</ele><time>2026-05-01T12:32:44.35Z</time></trkpt><trkpt lat="44.6520183" lon="7.8580417"><ele>293.0</ele><time>2026-05-01T12:32:46.353Z</time></trkpt><trkpt lat="44.6519217" lon="7.8580567"><ele>293.0</ele><time>2026-05-01T12:32:48.349Z</time></trkpt><trkpt lat="44.6518383" lon="7.8580633"><ele>293.0</ele><time>2026-05-01T12:32:49.35Z</time></trkpt><trkpt lat="44.6517517" lon="7.85807"><ele>293.0</ele><time>2026-05-01T12:32:50.356Z</time></trkpt><trkpt lat="44.6516633" lon="7.858075"><ele>293.0</ele><time>2026-05-01T12:32:51.349Z</time></trkpt><trkpt lat="44.6515767" lon="7.8580817"><ele>293.0</ele><time>2026-05-01T12:32:52.354Z</time></trkpt><trkpt lat="44.6514933" lon="7.8580883"><ele>293.0</ele><time>2026-05-01T12:32:53.351Z</time></trkpt><trkpt lat="44.651405" lon="7.85809"><ele>293.0</ele><time>2026-05-01T12:32:54.35Z</time></trkpt><trkpt lat="44.65131" lon="7.85809"><ele>293.0</ele><time>2026-05-01T12:32:55.35Z</time></trkpt><trkpt lat="44.651215" lon="7.858095"><ele>293.0</ele><time>2026-05-01T12:32:56.349Z</time></trkpt><trkpt lat="44.6511167" lon="7.8581"><ele>293.2</ele><time>2026-05-01T12:32:57.35Z</time></trkpt><trkpt lat="44.6510217" lon="7.858105"><ele>293.4</ele><time>2026-05-01T12:32:58.351Z</time></trkpt><trkpt lat="44.6509283" lon="7.8581083"><ele>293.59999999999997</ele><time>2026-05-01T12:32:59.349Z</time></trkpt><trkpt lat="44.650835" lon="7.8581117"><ele>293.8</ele><time>2026-05-01T12:33:00.352Z</time></trkpt><trkpt lat="44.6507417" lon="7.858115"><ele>294.0</ele><time>2026-05-01T12:33:01.352Z</time></trkpt><trkpt lat="44.65065" lon="7.858115"><ele>294.0</ele><time>2026-05-01T12:33:02.355Z</time></trkpt><trkpt lat="44.6505583" lon="7.8581183"><ele>294.0</ele><time>2026-05-01T12:33:03.356Z</time></trkpt><trkpt lat="44.6504633" lon="7.8581217"><ele>294.0</ele><time>2026-05-01T12:33:04.354Z</time></trkpt><trkpt lat="44.650365" lon="7.8581317"><ele>294.0</ele><time>2026-05-01T12:33:05.356Z</time></trkpt><trkpt lat="44.6502617" lon="7.8581383"><ele>294.0</ele><time>2026-05-01T12:33:06.352Z</time></trkpt><trkpt lat="44.6501567" lon="7.85814"><ele>293.59999999999997</ele><time>2026-05-01T12:33:07.353Z</time></trkpt><trkpt lat="44.6500517" lon="7.8581417"><ele>293.2</ele><time>2026-05-01T12:33:08.352Z</time></trkpt><trkpt lat="44.6499433" lon="7.8581467"><ele>292.79999999999995</ele><time>2026-05-01T12:33:09.352Z</time></trkpt><trkpt lat="44.6498383" lon="7.85815"><ele>292.4</ele><time>2026-05-01T12:33:10.354Z</time></trkpt><trkpt lat="44.6497333" lon="7.858155"><ele>292.0</ele><time>2026-05-01T12:33:11.352Z</time></trkpt><trkpt lat="44.6496333" lon="7.8581617"><ele>292.0</ele><time>2026-05-01T12:33:12.35Z</time></trkpt><trkpt lat="44.6495317" lon="7.8581717"><ele>292.0</ele><time>2026-05-01T12:33:13.353Z</time></trkpt><trkpt lat="44.6494283" lon="7.85818"><ele>292.0</ele><time>2026-05-01T12:33:14.352Z</time></trkpt><trkpt lat="44.6493217" lon="7.8581833"><ele>292.0</ele><time>2026-05-01T12:33:15.351Z</time></trkpt><trkpt lat="44.6492167" lon="7.8581817"><ele>292.0</ele><time>2026-05-01T12:33:16.35Z</time></trkpt><trkpt lat="44.649105" lon="7.8581783"><ele>291.5</ele><time>2026-05-01T12:33:17.353Z</time></trkpt><trkpt lat="44.64899" lon="7.858175"><ele>291.0</ele><time>2026-05-01T12:33:18.452Z</time></trkpt><trkpt lat="44.6488683" lon="7.8581767"><ele>290.5</ele><time>2026-05-01T12:33:19.353Z</time></trkpt><trkpt lat="44.64874" lon="7.8581783"><ele>290.0</ele><time>2026-05-01T12:33:20.351Z</time></trkpt><trkpt lat="44.6486083" lon="7.8581783"><ele>290.0</ele><time>2026-05-01T12:33:21.35Z</time></trkpt><trkpt lat="44.64847" lon="7.8581783"><ele>290.0</ele><time>2026-05-01T12:33:22.351Z</time></trkpt><trkpt lat="44.64833" lon="7.8581767"><ele>290.0</ele><time>2026-05-01T12:33:23.354Z</time></trkpt><trkpt lat="44.64819" lon="7.858175"><ele>290.0</ele><time>2026-05-01T12:33:24.354Z</time></trkpt><trkpt lat="44.64805" lon="7.8581733"><ele>290.0</ele><time>2026-05-01T12:33:25.351Z</time></trkpt><trkpt lat="44.6479083" lon="7.8581733"><ele>290.0</ele><time>2026-05-01T12:33:26.352Z</time></trkpt><trkpt lat="44.6477667" lon="7.8581733"><ele>290.0</ele><time>2026-05-01T12:33:27.352Z</time></trkpt><trkpt lat="44.6476183" lon="7.858175"><ele>290.0</ele><time>2026-05-01T12:33:28.354Z</time></trkpt><trkpt lat="44.647465" lon="7.858175"><ele>290.0</ele><time>2026-05-01T12:33:29.359Z</time></trkpt><trkpt lat="44.6473067" lon="7.8581783"><ele>290.0</ele><time>2026-05-01T12:33:30.353Z</time></trkpt><trkpt lat="44.6471433" lon="7.8581833"><ele>290.0</ele><time>2026-05-01T12:33:31.35Z</time></trkpt><trkpt lat="44.64698" lon="7.8581783"><ele>290.0</ele><time>2026-05-01T12:33:32.352Z</time></trkpt><trkpt lat="44.6468133" lon="7.858175"><ele>290.0</ele><time>2026-05-01T12:33:33.356Z</time></trkpt><trkpt lat="44.6466417" lon="7.8581783"><ele>290.0</ele><time>2026-05-01T12:33:34.351Z</time></trkpt><trkpt lat="44.646465" lon="7.8581817"><ele>290.0</ele><time>2026-05-01T12:33:35.356Z</time></trkpt><trkpt lat="44.6462833" lon="7.8581833"><ele>290.0</ele><time>2026-05-01T12:33:36.351Z</time></trkpt><trkpt lat="44.646095" lon="7.8581833"><ele>290.0</ele><time>2026-05-01T12:33:37.354Z</time></trkpt><trkpt lat="44.6459017" lon="7.858185"><ele>290.0</ele><time>2026-05-01T12:33:38.351Z</time></trkpt><trkpt lat="44.645705" lon="7.8581833"><ele>290.0</ele><time>2026-05-01T12:33:39.353Z</time></trkpt><trkpt lat="44.6455133" lon="7.8581833"><ele>290.0</ele><time>2026-05-01T12:33:40.35Z</time></trkpt><trkpt lat="44.6453183" lon="7.858185"><ele>289.6666666666667</ele><time>2026-05-01T12:33:41.352Z</time></trkpt><trkpt lat="44.6451183" lon="7.8581867"><ele>289.3333333333333</ele><time>2026-05-01T12:33:42.356Z</time></trkpt><trkpt lat="44.6449167" lon="7.8581883"><ele>289.0</ele><time>2026-05-01T12:33:43.354Z</time></trkpt><trkpt lat="44.6447267" lon="7.858185"><ele>289.0</ele><time>2026-05-01T12:33:44.355Z</time></trkpt><trkpt lat="44.6445417" lon="7.858185"><ele>289.0</ele><time>2026-05-01T12:33:45.352Z</time></trkpt><trkpt lat="44.6443583" lon="7.8581883"><ele>289.0</ele><time>2026-05-01T12:33:46.349Z</time></trkpt><trkpt lat="44.6441733" lon="7.858185"><ele>289.0</ele><time>2026-05-01T12:33:47.355Z</time></trkpt><trkpt lat="44.643995" lon="7.8581767"><ele>289.0</ele><time>2026-05-01T12:33:48.355Z</time></trkpt><trkpt lat="44.6438217" lon="7.8581633"><ele>289.0</ele><time>2026-05-01T12:33:49.351Z</time></trkpt><trkpt lat="44.643655" lon="7.8581367"><ele>289.0</ele><time>2026-05-01T12:33:50.351Z</time></trkpt><trkpt lat="44.6434917" lon="7.8581067"><ele>289.0</ele><time>2026-05-01T12:33:51.352Z</time></trkpt><trkpt lat="44.6433267" lon="7.8580733"><ele>289.0</ele><time>2026-05-01T12:33:52.355Z</time></trkpt><trkpt lat="44.6431633" lon="7.8580367"><ele>289.0</ele><time>2026-05-01T12:33:53.35Z</time></trkpt><trkpt lat="44.6429917" lon="7.858"><ele>289.0</ele><time>2026-05-01T12:33:54.351Z</time></trkpt><trkpt lat="44.6428133" lon="7.8579683"><ele>289.0</ele><time>2026-05-01T12:33:55.35Z</time></trkpt><trkpt lat="44.64263" lon="7.8579333"><ele>289.66666666666663</ele><time>2026-05-01T12:33:56.353Z</time></trkpt><trkpt lat="44.6424417" lon="7.8578983"><ele>290.3333333333333</ele><time>2026-05-01T12:33:57.35Z</time></trkpt><trkpt lat="44.6422483" lon="7.85786"><ele>291.0</ele><time>2026-05-01T12:33:58.352Z</time></trkpt><trkpt lat="44.6420517" lon="7.85782"><ele>290.3333333333333</ele><time>2026-05-01T12:33:59.35Z</time></trkpt><trkpt lat="44.64185" lon="7.8577783"><ele>289.66666666666663</ele><time>2026-05-01T12:34:00.352Z</time></trkpt><trkpt lat="44.6416433" lon="7.8577367"><ele>289.0</ele><time>2026-05-01T12:34:01.355Z</time></trkpt><trkpt lat="44.6414383" lon="7.857695"><ele>289.0</ele><time>2026-05-01T12:34:02.357Z</time></trkpt><trkpt lat="44.6412267" lon="7.8576517"><ele>289.0</ele><time>2026-05-01T12:34:03.355Z</time></trkpt><trkpt lat="44.6410117" lon="7.8576083"><ele>289.0</ele><time>2026-05-01T12:34:04.35Z</time></trkpt><trkpt lat="44.6407917" lon="7.8575633"><ele>289.0</ele><time>2026-05-01T12:34:05.354Z</time></trkpt><trkpt lat="44.6405667" lon="7.8575233"><ele>289.0</ele><time>2026-05-01T12:34:06.349Z</time></trkpt><trkpt lat="44.6403317" lon="7.8574933"><ele>289.0</ele><time>2026-05-01T12:34:07.352Z</time></trkpt><trkpt lat="44.6400883" lon="7.8574767"><ele>289.0</ele><time>2026-05-01T12:34:08.35Z</time></trkpt><trkpt lat="44.6398367" lon="7.8574717"><ele>289.0</ele><time>2026-05-01T12:34:09.354Z</time></trkpt><trkpt lat="44.63958" lon="7.857475"><ele>289.0</ele><time>2026-05-01T12:34:10.353Z</time></trkpt><trkpt lat="44.6393233" lon="7.85748"><ele>289.0</ele><time>2026-05-01T12:34:11.354Z</time></trkpt><trkpt lat="44.639065" lon="7.8574817"><ele>289.0</ele><time>2026-05-01T12:34:12.355Z</time></trkpt><trkpt lat="44.6388017" lon="7.857485"><ele>289.0</ele><time>2026-05-01T12:34:13.352Z</time></trkpt><trkpt lat="44.6385333" lon="7.8574867"><ele>289.0</ele><time>2026-05-01T12:34:14.351Z</time></trkpt><trkpt lat="44.6382583" lon="7.8574917"><ele>289.0</ele><time>2026-05-01T12:34:15.352Z</time></trkpt><trkpt lat="44.63798" lon="7.857495"><ele>289.0</ele><time>2026-05-01T12:34:16.351Z</time></trkpt><trkpt lat="44.6377" lon="7.8574967"><ele>289.5</ele><time>2026-05-01T12:34:17.349Z</time></trkpt><trkpt lat="44.6374183" lon="7.8575"><ele>290.0</ele><time>2026-05-01T12:34:18.353Z</time></trkpt><trkpt lat="44.6371333" lon="7.8575017"><ele>290.0</ele><time>2026-05-01T12:34:19.353Z</time></trkpt><trkpt lat="44.6368517" lon="7.8575067"><ele>290.0</ele><time>2026-05-01T12:34:20.35Z</time></trkpt><trkpt lat="44.63658" lon="7.8575133"><ele>290.0</ele><time>2026-05-01T12:34:21.349Z</time></trkpt><trkpt lat="44.6363233" lon="7.8575167"><ele>290.0</ele><time>2026-05-01T12:34:22.351Z</time></trkpt><trkpt lat="44.6360817" lon="7.8575217"><ele>290.0</ele><time>2026-05-01T12:34:23.349Z</time></trkpt><trkpt lat="44.63585" lon="7.857525"><ele>290.0</ele><time>2026-05-01T12:34:24.348Z</time></trkpt><trkpt lat="44.63563" lon="7.8575267"><ele>290.0</ele><time>2026-05-01T12:34:25.354Z</time></trkpt><trkpt lat="44.63542" lon="7.8575267"><ele>290.0</ele><time>2026-05-01T12:34:26.35Z</time></trkpt><trkpt lat="44.6352317" lon="7.8575283"><ele>290.0</ele><time>2026-05-01T12:34:27.351Z</time></trkpt><trkpt lat="44.635065" lon="7.857525"><ele>290.25</ele><time>2026-05-01T12:34:28.352Z</time></trkpt><trkpt lat="44.6349233" lon="7.85751"><ele>290.5</ele><time>2026-05-01T12:34:29.352Z</time></trkpt><trkpt lat="44.6348017" lon="7.8574867"><ele>290.75</ele><time>2026-05-01T12:34:30.353Z</time></trkpt><trkpt lat="44.634685" lon="7.857485"><ele>291.0</ele><time>2026-05-01T12:34:31.35Z</time></trkpt><trkpt lat="44.6345633" lon="7.8575033"><ele>290.75</ele><time>2026-05-01T12:34:32.352Z</time></trkpt><trkpt lat="44.6344317" lon="7.8575217"><ele>290.5</ele><time>2026-05-01T12:34:33.349Z</time></trkpt><trkpt lat="44.634285" lon="7.85753"><ele>290.25</ele><time>2026-05-01T12:34:34.349Z</time></trkpt><trkpt lat="44.6341283" lon="7.85754"><ele>290.0</ele><time>2026-05-01T12:34:35.351Z</time></trkpt><trkpt lat="44.633965" lon="7.8575533"><ele>290.0</ele><time>2026-05-01T12:34:36.354Z</time></trkpt><trkpt lat="44.6337883" lon="7.8575667"><ele>290.0</ele><time>2026-05-01T12:34:37.35Z</time></trkpt><trkpt lat="44.6336033" lon="7.8575817"><ele>290.0</ele><time>2026-05-01T12:34:38.349Z</time></trkpt><trkpt lat="44.6334083" lon="7.857595"><ele>290.0</ele><time>2026-05-01T12:34:39.354Z</time></trkpt><trkpt lat="44.6332067" lon="7.857615"><ele>290.0</ele><time>2026-05-01T12:34:40.354Z</time></trkpt><trkpt lat="44.6329983" lon="7.8576367"><ele>290.0</ele><time>2026-05-01T12:34:41.354Z</time></trkpt><trkpt lat="44.6327867" lon="7.8576583"><ele>289.6666666666667</ele><time>2026-05-01T12:34:42.349Z</time></trkpt><trkpt lat="44.6325667" lon="7.857675"><ele>289.3333333333333</ele><time>2026-05-01T12:34:43.351Z</time></trkpt><trkpt lat="44.6323417" lon="7.8576967"><ele>289.0</ele><time>2026-05-01T12:34:44.353Z</time></trkpt><trkpt lat="44.6321133" lon="7.8577233"><ele>290.0</ele><time>2026-05-01T12:34:45.349Z</time></trkpt><trkpt lat="44.63188" lon="7.8577483"><ele>291.0</ele><time>2026-05-01T12:34:46.356Z</time></trkpt><trkpt lat="44.63165" lon="7.857775"><ele>291.0</ele><time>2026-05-01T12:34:47.35Z</time></trkpt><trkpt lat="44.63142" lon="7.8578"><ele>291.0</ele><time>2026-05-01T12:34:48.357Z</time></trkpt><trkpt lat="44.6311883" lon="7.8578267"><ele>292.0</ele><time>2026-05-01T12:34:49.353Z</time></trkpt><trkpt lat="44.6309567" lon="7.8578533"><ele>293.0</ele><time>2026-05-01T12:34:50.356Z</time></trkpt><trkpt lat="44.6307233" lon="7.85788"><ele>293.0</ele><time>2026-05-01T12:34:51.355Z</time></trkpt><trkpt lat="44.6304883" lon="7.8579067"><ele>293.0</ele><time>2026-05-01T12:34:52.349Z</time></trkpt><trkpt lat="44.63025" lon="7.8579333"><ele>292.5</ele><time>2026-05-01T12:34:53.353Z</time></trkpt><trkpt lat="44.63001" lon="7.857965"><ele>292.0</ele><time>2026-05-01T12:34:54.354Z</time></trkpt><trkpt lat="44.6297683" lon="7.857995"><ele>292.0</ele><time>2026-05-01T12:34:55.357Z</time></trkpt><trkpt lat="44.6295283" lon="7.8580233"><ele>292.0</ele><time>2026-05-01T12:34:56.355Z</time></trkpt><trkpt lat="44.6292867" lon="7.8580533"><ele>292.0</ele><time>2026-05-01T12:34:57.351Z</time></trkpt><trkpt lat="44.6290467" lon="7.858085"><ele>292.0</ele><time>2026-05-01T12:34:58.354Z</time></trkpt><trkpt lat="44.6288067" lon="7.858115"><ele>292.0</ele><time>2026-05-01T12:34:59.352Z</time></trkpt><trkpt lat="44.6285683" lon="7.858145"><ele>292.0</ele><time>2026-05-01T12:35:00.355Z</time></trkpt><trkpt lat="44.6283333" lon="7.85817"><ele>292.0</ele><time>2026-05-01T12:35:01.354Z</time></trkpt><trkpt lat="44.6281" lon="7.8581967"><ele>292.0</ele><time>2026-05-01T12:35:02.348Z</time></trkpt><trkpt lat="44.6278667" lon="7.858225"><ele>292.0</ele><time>2026-05-01T12:35:03.357Z</time></trkpt><trkpt lat="44.627635" lon="7.8582517"><ele>292.0</ele><time>2026-05-01T12:35:04.354Z</time></trkpt><trkpt lat="44.6274033" lon="7.8582783"><ele>292.0</ele><time>2026-05-01T12:35:05.354Z</time></trkpt><trkpt lat="44.62717" lon="7.8583033"><ele>292.0</ele><time>2026-05-01T12:35:06.354Z</time></trkpt><trkpt lat="44.6269383" lon="7.85833"><ele>292.5</ele><time>2026-05-01T12:35:07.352Z</time></trkpt><trkpt lat="44.62671" lon="7.85836"><ele>293.0</ele><time>2026-05-01T12:35:08.349Z</time></trkpt><trkpt lat="44.6264833" lon="7.8583917"><ele>293.0</ele><time>2026-05-01T12:35:09.351Z</time></trkpt><trkpt lat="44.6262533" lon="7.8584167"><ele>293.0</ele><time>2026-05-01T12:35:10.35Z</time></trkpt><trkpt lat="44.6260233" lon="7.8584383"><ele>292.5</ele><time>2026-05-01T12:35:11.351Z</time></trkpt><trkpt lat="44.6257917" lon="7.8584633"><ele>292.0</ele><time>2026-05-01T12:35:12.353Z</time></trkpt><trkpt lat="44.62556" lon="7.8584917"><ele>292.0</ele><time>2026-05-01T12:35:13.354Z</time></trkpt><trkpt lat="44.6253217" lon="7.8585217"><ele>292.0</ele><time>2026-05-01T12:35:14.349Z</time></trkpt><trkpt lat="44.625085" lon="7.8585533"><ele>292.5</ele><time>2026-05-01T12:35:15.349Z</time></trkpt><trkpt lat="44.62485" lon="7.85858"><ele>293.0</ele><time>2026-05-01T12:35:16.351Z</time></trkpt><trkpt lat="44.6246183" lon="7.8586067"><ele>293.0</ele><time>2026-05-01T12:35:17.35Z</time></trkpt><trkpt lat="44.624395" lon="7.8586317"><ele>293.0</ele><time>2026-05-01T12:35:18.354Z</time></trkpt><trkpt lat="44.6241867" lon="7.8586583"><ele>293.0</ele><time>2026-05-01T12:35:19.349Z</time></trkpt><trkpt lat="44.6239867" lon="7.8586833"><ele>293.0</ele><time>2026-05-01T12:35:20.354Z</time></trkpt><trkpt lat="44.6238017" lon="7.858705"><ele>293.0</ele><time>2026-05-01T12:35:21.351Z</time></trkpt><trkpt lat="44.6236417" lon="7.8587217"><ele>293.0</ele><time>2026-05-01T12:35:22.354Z</time></trkpt><trkpt lat="44.623515" lon="7.8587267"><ele>293.0</ele><time>2026-05-01T12:35:23.352Z</time></trkpt><trkpt lat="44.6234083" lon="7.85871"><ele>293.0</ele><time>2026-05-01T12:35:24.354Z</time></trkpt><trkpt lat="44.6233167" lon="7.8586717"><ele>293.0</ele><time>2026-05-01T12:35:25.351Z</time></trkpt><trkpt lat="44.6232217" lon="7.8586433"><ele>293.0</ele><time>2026-05-01T12:35:26.351Z</time></trkpt><trkpt lat="44.62312" lon="7.8586483"><ele>293.0</ele><time>2026-05-01T12:35:27.354Z</time></trkpt><trkpt lat="44.6230083" lon="7.8586967"><ele>293.0</ele><time>2026-05-01T12:35:28.354Z</time></trkpt><trkpt lat="44.6228817" lon="7.8587533"><ele>293.0</ele><time>2026-05-01T12:35:29.353Z</time></trkpt><trkpt lat="44.62274" lon="7.858795"><ele>293.0</ele><time>2026-05-01T12:35:30.353Z</time></trkpt><trkpt lat="44.6225833" lon="7.8588283"><ele>293.0</ele><time>2026-05-01T12:35:31.351Z</time></trkpt><trkpt lat="44.6224133" lon="7.8588583"><ele>293.0</ele><time>2026-05-01T12:35:32.349Z</time></trkpt><trkpt lat="44.6222333" lon="7.8588833"><ele>293.0</ele><time>2026-05-01T12:35:33.35Z</time></trkpt><trkpt lat="44.6220417" lon="7.8589083"><ele>293.0</ele><time>2026-05-01T12:35:34.349Z</time></trkpt><trkpt lat="44.62184" lon="7.858935"><ele>293.6666666666667</ele><time>2026-05-01T12:35:35.349Z</time></trkpt><trkpt lat="44.6216267" lon="7.85896"><ele>294.3333333333333</ele><time>2026-05-01T12:35:36.348Z</time></trkpt><trkpt lat="44.621405" lon="7.858985"><ele>295.0</ele><time>2026-05-01T12:35:37.35Z</time></trkpt><trkpt lat="44.62118" lon="7.85901"><ele>295.0</ele><time>2026-05-01T12:35:38.349Z</time></trkpt><trkpt lat="44.6209533" lon="7.8590333"><ele>295.0</ele><time>2026-05-01T12:35:39.349Z</time></trkpt><trkpt lat="44.6207233" lon="7.8590583"><ele>295.0</ele><time>2026-05-01T12:35:40.35Z</time></trkpt><trkpt lat="44.6204883" lon="7.8590867"><ele>295.0</ele><time>2026-05-01T12:35:41.352Z</time></trkpt><trkpt lat="44.6202483" lon="7.8591133"><ele>295.0</ele><time>2026-05-01T12:35:42.351Z</time></trkpt><trkpt lat="44.6200017" lon="7.85914"><ele>295.0</ele><time>2026-05-01T12:35:43.351Z</time></trkpt><trkpt lat="44.6197533" lon="7.85917"><ele>295.0</ele><time>2026-05-01T12:35:44.353Z</time></trkpt><trkpt lat="44.619505" lon="7.8591983"><ele>295.0</ele><time>2026-05-01T12:35:45.352Z</time></trkpt><trkpt lat="44.6192533" lon="7.8592267"><ele>294.5</ele><time>2026-05-01T12:35:46.352Z</time></trkpt><trkpt lat="44.6189967" lon="7.8592567"><ele>294.0</ele><time>2026-05-01T12:35:47.353Z</time></trkpt><trkpt lat="44.6187367" lon="7.8592867"><ele>294.5</ele><time>2026-05-01T12:35:48.352Z</time></trkpt><trkpt lat="44.618475" lon="7.8593167"><ele>295.0</ele><time>2026-05-01T12:35:49.353Z</time></trkpt><trkpt lat="44.6182083" lon="7.859345"><ele>295.0</ele><time>2026-05-01T12:35:50.351Z</time></trkpt><trkpt lat="44.6179367" lon="7.859375"><ele>295.0</ele><time>2026-05-01T12:35:51.354Z</time></trkpt><trkpt lat="44.617665" lon="7.859405"><ele>295.0</ele><time>2026-05-01T12:35:52.355Z</time></trkpt><trkpt lat="44.6173917" lon="7.859435"><ele>295.0</ele><time>2026-05-01T12:35:53.353Z</time></trkpt><trkpt lat="44.6171167" lon="7.8594667"><ele>295.5</ele><time>2026-05-01T12:35:54.351Z</time></trkpt><trkpt lat="44.61684" lon="7.8594983"><ele>296.0</ele><time>2026-05-01T12:35:55.351Z</time></trkpt><trkpt lat="44.6165683" lon="7.8595317"><ele>296.0</ele><time>2026-05-01T12:35:56.352Z</time></trkpt><trkpt lat="44.6162967" lon="7.8595633"><ele>296.0</ele><time>2026-05-01T12:35:57.35Z</time></trkpt><trkpt lat="44.6160233" lon="7.8595933"><ele>296.5</ele><time>2026-05-01T12:35:58.35Z</time></trkpt><trkpt lat="44.6157517" lon="7.859625"><ele>297.0</ele><time>2026-05-01T12:35:59.35Z</time></trkpt><trkpt lat="44.6154783" lon="7.859655"><ele>298.5</ele><time>2026-05-01T12:36:00.352Z</time></trkpt><trkpt lat="44.6152" lon="7.859685"><ele>300.0</ele><time>2026-05-01T12:36:01.351Z</time></trkpt><trkpt lat="44.6149217" lon="7.8597183"><ele>300.0</ele><time>2026-05-01T12:36:02.352Z</time></trkpt><trkpt lat="44.61464" lon="7.8597517"><ele>300.0</ele><time>2026-05-01T12:36:03.356Z</time></trkpt><trkpt lat="44.614355" lon="7.8597883"><ele>300.5</ele><time>2026-05-01T12:36:04.35Z</time></trkpt><trkpt lat="44.61407" lon="7.859825"><ele>301.0</ele><time>2026-05-01T12:36:05.352Z</time></trkpt><trkpt lat="44.6137833" lon="7.85986"><ele>300.5</ele><time>2026-05-01T12:36:06.35Z</time></trkpt><trkpt lat="44.6134967" lon="7.8598917"><ele>300.0</ele><time>2026-05-01T12:36:07.351Z</time></trkpt><trkpt lat="44.6132117" lon="7.8599267"><ele>300.0</ele><time>2026-05-01T12:36:08.352Z</time></trkpt><trkpt lat="44.612925" lon="7.8599617"><ele>300.0</ele><time>2026-05-01T12:36:09.353Z</time></trkpt><trkpt lat="44.6126383" lon="7.859995"><ele>302.0</ele><time>2026-05-01T12:36:10.353Z</time></trkpt><trkpt lat="44.6123517" lon="7.8600283"><ele>304.0</ele><time>2026-05-01T12:36:11.35Z</time></trkpt><trkpt lat="44.6120717" lon="7.86006"><ele>305.0</ele><time>2026-05-01T12:36:12.349Z</time></trkpt><trkpt lat="44.6117967" lon="7.8600883"><ele>306.0</ele><time>2026-05-01T12:36:13.351Z</time></trkpt><trkpt lat="44.6115333" lon="7.86012"><ele>306.0</ele><time>2026-05-01T12:36:14.35Z</time></trkpt><trkpt lat="44.6112917" lon="7.8601483"><ele>306.0</ele><time>2026-05-01T12:36:15.349Z</time></trkpt><trkpt lat="44.611075" lon="7.8601867"><ele>310.3333333333333</ele><time>2026-05-01T12:36:16.35Z</time></trkpt><trkpt lat="44.610875" lon="7.8602517"><ele>314.66666666666663</ele><time>2026-05-01T12:36:17.35Z</time></trkpt><trkpt lat="44.6106883" lon="7.8603467"><ele>319.0</ele><time>2026-05-01T12:36:18.352Z</time></trkpt><trkpt lat="44.610515" lon="7.8604833"><ele>319.0</ele><time>2026-05-01T12:36:19.353Z</time></trkpt><trkpt lat="44.6103517" lon="7.8606517"><ele>319.0</ele><time>2026-05-01T12:36:20.353Z</time></trkpt><trkpt lat="44.6101833" lon="7.8608333"><ele>319.0</ele><time>2026-05-01T12:36:21.35Z</time></trkpt><trkpt lat="44.61001" lon="7.86102"><ele>319.0</ele><time>2026-05-01T12:36:22.353Z</time></trkpt><trkpt lat="44.6098367" lon="7.8612117"><ele>319.0</ele><time>2026-05-01T12:36:23.348Z</time></trkpt><trkpt lat="44.60966" lon="7.8614167"><ele>319.0</ele><time>2026-05-01T12:36:24.357Z</time></trkpt><trkpt lat="44.609485" lon="7.8616283"><ele>319.0</ele><time>2026-05-01T12:36:25.356Z</time></trkpt><trkpt lat="44.609305" lon="7.8618417"><ele>319.5</ele><time>2026-05-01T12:36:26.353Z</time></trkpt><trkpt lat="44.6091217" lon="7.862055"><ele>320.0</ele><time>2026-05-01T12:36:27.351Z</time></trkpt><trkpt lat="44.6089367" lon="7.86227"><ele>320.0</ele><time>2026-05-01T12:36:28.353Z</time></trkpt><trkpt lat="44.6087483" lon="7.8624867"><ele>320.0</ele><time>2026-05-01T12:36:29.356Z</time></trkpt><trkpt lat="44.6085583" lon="7.862705"><ele>320.5</ele><time>2026-05-01T12:36:30.359Z</time></trkpt><trkpt lat="44.6083667" lon="7.8629217"><ele>321.0</ele><time>2026-05-01T12:36:31.352Z</time></trkpt><trkpt lat="44.6081733" lon="7.8631417"><ele>321.0</ele><time>2026-05-01T12:36:32.35Z</time></trkpt><trkpt lat="44.6079767" lon="7.8633633"><ele>321.0</ele><time>2026-05-01T12:36:33.352Z</time></trkpt><trkpt lat="44.6077783" lon="7.8635883"><ele>321.0</ele><time>2026-05-01T12:36:34.351Z</time></trkpt><trkpt lat="44.6075767" lon="7.863815"><ele>321.0</ele><time>2026-05-01T12:36:35.351Z</time></trkpt><trkpt lat="44.607375" lon="7.8640383"><ele>321.0</ele><time>2026-05-01T12:36:36.353Z</time></trkpt><trkpt lat="44.607175" lon="7.8642583"><ele>321.0</ele><time>2026-05-01T12:36:37.351Z</time></trkpt><trkpt lat="44.6069783" lon="7.864475"><ele>322.0</ele><time>2026-05-01T12:36:38.352Z</time></trkpt><trkpt lat="44.6067917" lon="7.8646817"><ele>323.0</ele><time>2026-05-01T12:36:39.35Z</time></trkpt><trkpt lat="44.6066167" lon="7.8648767"><ele>323.0</ele><time>2026-05-01T12:36:40.351Z</time></trkpt><trkpt lat="44.6064467" lon="7.8650633"><ele>323.0</ele><time>2026-05-01T12:36:41.351Z</time></trkpt><trkpt lat="44.606285" lon="7.8652417"><ele>323.0</ele><time>2026-05-01T12:36:42.353Z</time></trkpt><trkpt lat="44.6061367" lon="7.8654083"><ele>323.33333333333337</ele><time>2026-05-01T12:36:43.349Z</time></trkpt><trkpt lat="44.605995" lon="7.8655667"><ele>323.6666666666667</ele><time>2026-05-01T12:36:44.35Z</time></trkpt><trkpt lat="44.6058583" lon="7.865715"><ele>324.0</ele><time>2026-05-01T12:36:45.354Z</time></trkpt><trkpt lat="44.605725" lon="7.8658583"><ele>323.0</ele><time>2026-05-01T12:36:46.356Z</time></trkpt><trkpt lat="44.605605" lon="7.865995"><ele>322.0</ele><time>2026-05-01T12:36:47.35Z</time></trkpt><trkpt lat="44.6054883" lon="7.86613"><ele>321.0</ele><time>2026-05-01T12:36:48.352Z</time></trkpt><trkpt lat="44.605375" lon="7.8662617"><ele>321.25</ele><time>2026-05-01T12:36:49.348Z</time></trkpt><trkpt lat="44.6052633" lon="7.8663883"><ele>321.5</ele><time>2026-05-01T12:36:50.354Z</time></trkpt><trkpt lat="44.60515" lon="7.8665167"><ele>321.75</ele><time>2026-05-01T12:36:51.353Z</time></trkpt><trkpt lat="44.6050333" lon="7.8666433"><ele>322.0</ele><time>2026-05-01T12:36:52.355Z</time></trkpt><trkpt lat="44.6049133" lon="7.86677"><ele>322.0</ele><time>2026-05-01T12:36:53.348Z</time></trkpt><trkpt lat="44.60479" lon="7.8669067"><ele>322.0</ele><time>2026-05-01T12:36:54.354Z</time></trkpt><trkpt lat="44.604665" lon="7.8670533"><ele>322.0</ele><time>2026-05-01T12:36:55.355Z</time></trkpt><trkpt lat="44.6045417" lon="7.8672017"><ele>322.3333333333333</ele><time>2026-05-01T12:36:56.355Z</time></trkpt><trkpt lat="44.6044117" lon="7.86735"><ele>322.6666666666667</ele><time>2026-05-01T12:36:57.355Z</time></trkpt><trkpt lat="44.60428" lon="7.8674983"><ele>323.0</ele><time>2026-05-01T12:36:58.352Z</time></trkpt><trkpt lat="44.604145" lon="7.86765"><ele>323.0</ele><time>2026-05-01T12:36:59.352Z</time></trkpt><trkpt lat="44.6040067" lon="7.8678033"><ele>323.0</ele><time>2026-05-01T12:37:00.355Z</time></trkpt><trkpt lat="44.6038667" lon="7.86796"><ele>323.0</ele><time>2026-05-01T12:37:01.354Z</time></trkpt><trkpt lat="44.6037333" lon="7.8681117"><ele>323.33333333333337</ele><time>2026-05-01T12:37:02.354Z</time></trkpt><trkpt lat="44.6036" lon="7.8682667"><ele>323.6666666666667</ele><time>2026-05-01T12:37:03.351Z</time></trkpt><trkpt lat="44.6034617" lon="7.8684233"><ele>324.0</ele><time>2026-05-01T12:37:04.351Z</time></trkpt><trkpt lat="44.6033233" lon="7.8685783"><ele>324.3333333333333</ele><time>2026-05-01T12:37:05.351Z</time></trkpt><trkpt lat="44.6031867" lon="7.8687317"><ele>324.66666666666663</ele><time>2026-05-01T12:37:06.352Z</time></trkpt><trkpt lat="44.6030517" lon="7.8688817"><ele>325.0</ele><time>2026-05-01T12:37:07.351Z</time></trkpt><trkpt lat="44.60292" lon="7.869025"><ele>325.66666666666663</ele><time>2026-05-01T12:37:08.353Z</time></trkpt><trkpt lat="44.6027883" lon="7.8691633"><ele>326.3333333333333</ele><time>2026-05-01T12:37:09.351Z</time></trkpt><trkpt lat="44.6026567" lon="7.8693"><ele>327.0</ele><time>2026-05-01T12:37:10.353Z</time></trkpt><trkpt lat="44.6025267" lon="7.86942"><ele>327.0</ele><time>2026-05-01T12:37:11.355Z</time></trkpt><trkpt lat="44.6023933" lon="7.86951"><ele>327.0</ele><time>2026-05-01T12:37:12.349Z</time></trkpt><trkpt lat="44.60226" lon="7.869575"><ele>327.0</ele><time>2026-05-01T12:37:13.35Z</time></trkpt><trkpt lat="44.6021217" lon="7.8696217"><ele>327.0</ele><time>2026-05-01T12:37:14.351Z</time></trkpt><trkpt lat="44.60198" lon="7.8696517"><ele>327.0</ele><time>2026-05-01T12:37:15.353Z</time></trkpt><trkpt lat="44.601835" lon="7.8696817"><ele>327.0</ele><time>2026-05-01T12:37:16.354Z</time></trkpt><trkpt lat="44.60169" lon="7.869715"><ele>327.0</ele><time>2026-05-01T12:37:17.354Z</time></trkpt><trkpt lat="44.6015383" lon="7.8697467"><ele>327.0</ele><time>2026-05-01T12:37:18.355Z</time></trkpt><trkpt lat="44.601385" lon="7.8697783"><ele>327.0</ele><time>2026-05-01T12:37:19.356Z</time></trkpt><trkpt lat="44.6012283" lon="7.86981"><ele>327.0</ele><time>2026-05-01T12:37:20.349Z</time></trkpt><trkpt lat="44.6010683" lon="7.8698383"><ele>327.0</ele><time>2026-05-01T12:37:21.36Z</time></trkpt><trkpt lat="44.600905" lon="7.8698667"><ele>327.0</ele><time>2026-05-01T12:37:22.355Z</time></trkpt><trkpt lat="44.60074" lon="7.8698983"><ele>327.0</ele><time>2026-05-01T12:37:23.352Z</time></trkpt><trkpt lat="44.6005717" lon="7.8699283"><ele>327.0</ele><time>2026-05-01T12:37:24.359Z</time></trkpt><trkpt lat="44.6004017" lon="7.8699567"><ele>327.0</ele><time>2026-05-01T12:37:25.351Z</time></trkpt><trkpt lat="44.6002333" lon="7.8699817"><ele>327.0</ele><time>2026-05-01T12:37:26.355Z</time></trkpt><trkpt lat="44.6000683" lon="7.8700067"><ele>327.0</ele><time>2026-05-01T12:37:27.353Z</time></trkpt><trkpt lat="44.5999133" lon="7.87003"><ele>327.0</ele><time>2026-05-01T12:37:28.351Z</time></trkpt><trkpt lat="44.599765" lon="7.8700533"><ele>327.0</ele><time>2026-05-01T12:37:29.353Z</time></trkpt><trkpt lat="44.5996167" lon="7.8700767"><ele>327.0</ele><time>2026-05-01T12:37:30.351Z</time></trkpt><trkpt lat="44.599465" lon="7.8701067"><ele>326.6666666666667</ele><time>2026-05-01T12:37:31.352Z</time></trkpt><trkpt lat="44.5993133" lon="7.8701367"><ele>326.33333333333337</ele><time>2026-05-01T12:37:32.35Z</time></trkpt><trkpt lat="44.59916" lon="7.87016"><ele>326.0</ele><time>2026-05-01T12:37:33.352Z</time></trkpt><trkpt lat="44.5990033" lon="7.8701833"><ele>326.0</ele><time>2026-05-01T12:37:34.353Z</time></trkpt><trkpt lat="44.598845" lon="7.8702133"><ele>326.0</ele><time>2026-05-01T12:37:35.352Z</time></trkpt><trkpt lat="44.5986867" lon="7.87024"><ele>326.0</ele><time>2026-05-01T12:37:36.353Z</time></trkpt><trkpt lat="44.5985267" lon="7.8702683"><ele>326.33333333333337</ele><time>2026-05-01T12:37:37.352Z</time></trkpt><trkpt lat="44.59837" lon="7.8702917"><ele>326.6666666666667</ele><time>2026-05-01T12:37:38.349Z</time></trkpt><trkpt lat="44.59821" lon="7.8703183"><ele>327.0</ele><time>2026-05-01T12:37:39.353Z</time></trkpt><trkpt lat="44.5980483" lon="7.8703417"><ele>327.0</ele><time>2026-05-01T12:37:40.349Z</time></trkpt><trkpt lat="44.5978867" lon="7.8703667"><ele>327.0</ele><time>2026-05-01T12:37:41.349Z</time></trkpt><trkpt lat="44.59773" lon="7.87039"><ele>327.0</ele><time>2026-05-01T12:37:42.352Z</time></trkpt><trkpt lat="44.59758" lon="7.8704117"><ele>327.0</ele><time>2026-05-01T12:37:43.35Z</time></trkpt><trkpt lat="44.59744" lon="7.8704283"><ele>327.0</ele><time>2026-05-01T12:37:44.352Z</time></trkpt><trkpt lat="44.5973217" lon="7.8704467"><ele>327.0</ele><time>2026-05-01T12:37:45.35Z</time></trkpt><trkpt lat="44.5972233" lon="7.8704633"><ele>327.0</ele><time>2026-05-01T12:37:46.354Z</time></trkpt><trkpt lat="44.5971483" lon="7.8704567"><ele>327.0</ele><time>2026-05-01T12:37:47.353Z</time></trkpt><trkpt lat="44.5970817" lon="7.8704367"><ele>327.0</ele><time>2026-05-01T12:37:48.351Z</time></trkpt><trkpt lat="44.5969917" lon="7.870365"><ele>327.0</ele><time>2026-05-01T12:37:50.352Z</time></trkpt><trkpt lat="44.5969967" lon="7.8702483"><ele>327.0</ele><time>2026-05-01T12:37:51.354Z</time></trkpt><trkpt lat="44.5969917" lon="7.8701217"><ele>327.0</ele><time>2026-05-01T12:37:52.353Z</time></trkpt><trkpt lat="44.5969667" lon="7.8700183"><ele>327.0</ele><time>2026-05-01T12:37:53.349Z</time></trkpt><trkpt lat="44.596925" lon="7.86994"><ele>327.0</ele><time>2026-05-01T12:37:54.351Z</time></trkpt><trkpt lat="44.5968583" lon="7.8698783"><ele>327.0</ele><time>2026-05-01T12:37:55.349Z</time></trkpt><trkpt lat="44.5967733" lon="7.869835"><ele>327.0</ele><time>2026-05-01T12:37:56.354Z</time></trkpt><trkpt lat="44.5966733" lon="7.8698117"><ele>327.0</ele><time>2026-05-01T12:37:57.356Z</time></trkpt><trkpt lat="44.596555" lon="7.869795"><ele>327.0</ele><time>2026-05-01T12:37:58.35Z</time></trkpt><trkpt lat="44.5964283" lon="7.8697767"><ele>327.0</ele><time>2026-05-01T12:37:59.35Z</time></trkpt><trkpt lat="44.5962933" lon="7.869755"><ele>327.25</ele><time>2026-05-01T12:38:00.352Z</time></trkpt><trkpt lat="44.5961567" lon="7.8697367"><ele>327.5</ele><time>2026-05-01T12:38:01.349Z</time></trkpt><trkpt lat="44.5960083" lon="7.869715"><ele>327.75</ele><time>2026-05-01T12:38:02.35Z</time></trkpt><trkpt lat="44.5958583" lon="7.8696933"><ele>328.0</ele><time>2026-05-01T12:38:03.355Z</time></trkpt><trkpt lat="44.5957167" lon="7.869675"><ele>328.0</ele><time>2026-05-01T12:38:04.35Z</time></trkpt><trkpt lat="44.5955767" lon="7.8696567"><ele>328.0</ele><time>2026-05-01T12:38:05.357Z</time></trkpt><trkpt lat="44.59544" lon="7.8696417"><ele>328.0</ele><time>2026-05-01T12:38:06.352Z</time></trkpt><trkpt lat="44.5953067" lon="7.869625"><ele>328.0</ele><time>2026-05-01T12:38:07.35Z</time></trkpt><trkpt lat="44.59517" lon="7.8696067"><ele>328.0</ele><time>2026-05-01T12:38:08.352Z</time></trkpt><trkpt lat="44.595035" lon="7.8695867"><ele>328.0</ele><time>2026-05-01T12:38:09.35Z</time></trkpt><trkpt lat="44.5949017" lon="7.8695683"><ele>328.0</ele><time>2026-05-01T12:38:10.349Z</time></trkpt><trkpt lat="44.5947717" lon="7.86955"><ele>328.0</ele><time>2026-05-01T12:38:11.348Z</time></trkpt><trkpt lat="44.5946483" lon="7.8695283"><ele>328.0</ele><time>2026-05-01T12:38:12.349Z</time></trkpt><trkpt lat="44.59453" lon="7.8695083"><ele>328.0</ele><time>2026-05-01T12:38:13.35Z</time></trkpt><trkpt lat="44.5944217" lon="7.86949"><ele>328.0</ele><time>2026-05-01T12:38:14.353Z</time></trkpt><trkpt lat="44.5943217" lon="7.869475"><ele>328.0</ele><time>2026-05-01T12:38:15.356Z</time></trkpt><trkpt lat="44.59425" lon="7.8694617"><ele>328.0</ele><time>2026-05-01T12:38:16.35Z</time></trkpt><trkpt lat="44.59415" lon="7.8694717"><ele>328.0</ele><time>2026-05-01T12:38:18.349Z</time></trkpt><trkpt lat="44.5941083" lon="7.8695767"><ele>328.0</ele><time>2026-05-01T12:38:20.35Z</time></trkpt><trkpt lat="44.5941267" lon="7.8697467"><ele>328.0</ele><time>2026-05-01T12:38:22.352Z</time></trkpt><trkpt lat="44.5941433" lon="7.8698667"><ele>328.0</ele><time>2026-05-01T12:38:23.349Z</time></trkpt><trkpt lat="44.59416" lon="7.869995"><ele>328.0</ele><time>2026-05-01T12:38:24.35Z</time></trkpt><trkpt lat="44.59417" lon="7.870125"><ele>328.0</ele><time>2026-05-01T12:38:25.355Z</time></trkpt><trkpt lat="44.5941767" lon="7.8702583"><ele>328.0</ele><time>2026-05-01T12:38:26.353Z</time></trkpt><trkpt lat="44.594185" lon="7.8704017"><ele>328.0</ele><time>2026-05-01T12:38:27.354Z</time></trkpt><trkpt lat="44.5941883" lon="7.87055"><ele>328.0</ele><time>2026-05-01T12:38:28.352Z</time></trkpt><trkpt lat="44.594195" lon="7.870695"><ele>328.0</ele><time>2026-05-01T12:38:29.353Z</time></trkpt><trkpt lat="44.5942033" lon="7.8708317"><ele>328.2</ele><time>2026-05-01T12:38:30.352Z</time></trkpt><trkpt lat="44.5942133" lon="7.8709717"><ele>328.4</ele><time>2026-05-01T12:38:31.351Z</time></trkpt><trkpt lat="44.5942233" lon="7.87111"><ele>328.59999999999997</ele><time>2026-05-01T12:38:32.353Z</time></trkpt><trkpt lat="44.5942317" lon="7.8712483"><ele>328.79999999999995</ele><time>2026-05-01T12:38:33.351Z</time></trkpt><trkpt lat="44.59424" lon="7.8713883"><ele>329.0</ele><time>2026-05-01T12:38:34.353Z</time></trkpt><trkpt lat="44.59425" lon="7.871535"><ele>329.0</ele><time>2026-05-01T12:38:35.353Z</time></trkpt><trkpt lat="44.5942633" lon="7.871685"><ele>329.0</ele><time>2026-05-01T12:38:36.355Z</time></trkpt><trkpt lat="44.5942817" lon="7.871835"><ele>329.0</ele><time>2026-05-01T12:38:37.352Z</time></trkpt><trkpt lat="44.5942967" lon="7.8719867"><ele>329.0</ele><time>2026-05-01T12:38:38.354Z</time></trkpt><trkpt lat="44.594305" lon="7.87214"><ele>329.0</ele><time>2026-05-01T12:38:39.351Z</time></trkpt><trkpt lat="44.5943133" lon="7.8722983"><ele>328.25</ele><time>2026-05-01T12:38:40.353Z</time></trkpt><trkpt lat="44.5943183" lon="7.872465"><ele>327.5</ele><time>2026-05-01T12:38:41.35Z</time></trkpt><trkpt lat="44.5943183" lon="7.8726333"><ele>326.75</ele><time>2026-05-01T12:38:42.352Z</time></trkpt><trkpt lat="44.59431" lon="7.8728033"><ele>326.0</ele><time>2026-05-01T12:38:43.353Z</time></trkpt><trkpt lat="44.5943" lon="7.8729683"><ele>325.25</ele><time>2026-05-01T12:38:44.351Z</time></trkpt><trkpt lat="44.594285" lon="7.8731383"><ele>324.5</ele><time>2026-05-01T12:38:45.357Z</time></trkpt><trkpt lat="44.5942633" lon="7.8733083"><ele>323.75</ele><time>2026-05-01T12:38:46.353Z</time></trkpt><trkpt lat="44.5942433" lon="7.8734817"><ele>323.0</ele><time>2026-05-01T12:38:47.348Z</time></trkpt><trkpt lat="44.5942233" lon="7.8736683"><ele>321.25</ele><time>2026-05-01T12:38:48.351Z</time></trkpt><trkpt lat="44.59421" lon="7.8738533"><ele>319.5</ele><time>2026-05-01T12:38:49.355Z</time></trkpt><trkpt lat="44.5942183" lon="7.8740483"><ele>317.75</ele><time>2026-05-01T12:38:50.356Z</time></trkpt><trkpt lat="44.594235" lon="7.8742567"><ele>316.0</ele><time>2026-05-01T12:38:51.352Z</time></trkpt><trkpt lat="44.5942533" lon="7.8744733"><ele>313.66666666666663</ele><time>2026-05-01T12:38:52.355Z</time></trkpt><trkpt lat="44.59427" lon="7.8747017"><ele>311.3333333333333</ele><time>2026-05-01T12:38:53.349Z</time></trkpt><trkpt lat="44.594295" lon="7.87493"><ele>309.0</ele><time>2026-05-01T12:38:54.355Z</time></trkpt><trkpt lat="44.5943167" lon="7.87515"><ele>306.0</ele><time>2026-05-01T12:38:55.357Z</time></trkpt><trkpt lat="44.594335" lon="7.8753617"><ele>303.0</ele><time>2026-05-01T12:38:56.35Z</time></trkpt><trkpt lat="44.5943617" lon="7.8755767"><ele>300.0</ele><time>2026-05-01T12:38:57.351Z</time></trkpt><trkpt lat="44.5943983" lon="7.8757783"><ele>297.25</ele><time>2026-05-01T12:38:58.351Z</time></trkpt><trkpt lat="44.5944517" lon="7.87597"><ele>294.5</ele><time>2026-05-01T12:38:59.35Z</time></trkpt><trkpt lat="44.5945067" lon="7.876155"><ele>291.75</ele><time>2026-05-01T12:39:00.348Z</time></trkpt><trkpt lat="44.59456" lon="7.8763333"><ele>289.0</ele><time>2026-05-01T12:39:01.353Z</time></trkpt><trkpt lat="44.5946067" lon="7.8765117"><ele>295.66666666666663</ele><time>2026-05-01T12:39:02.349Z</time></trkpt><trkpt lat="44.5946217" lon="7.8767033"><ele>302.3333333333333</ele><time>2026-05-01T12:39:03.354Z</time></trkpt><trkpt lat="44.5946117" lon="7.87692"><ele>309.0</ele><time>2026-05-01T12:39:04.356Z</time></trkpt><trkpt lat="44.5945817" lon="7.8771533"><ele>309.0</ele><time>2026-05-01T12:39:05.353Z</time></trkpt><trkpt lat="44.59454" lon="7.8773983"><ele>309.0</ele><time>2026-05-01T12:39:06.349Z</time></trkpt><trkpt lat="44.5944983" lon="7.877635"><ele>309.0</ele><time>2026-05-01T12:39:07.35Z</time></trkpt><trkpt lat="44.5944617" lon="7.8778667"><ele>303.25</ele><time>2026-05-01T12:39:08.354Z</time></trkpt><trkpt lat="44.59444" lon="7.8780883"><ele>297.5</ele><time>2026-05-01T12:39:09.353Z</time></trkpt><trkpt lat="44.5944233" lon="7.8782817"><ele>291.75</ele><time>2026-05-01T12:39:10.352Z</time></trkpt><trkpt lat="44.5944183" lon="7.878445"><ele>286.0</ele><time>2026-05-01T12:39:11.351Z</time></trkpt><trkpt lat="44.5944067" lon="7.8785667"><ele>286.0</ele><time>2026-05-01T12:39:12.351Z</time></trkpt><trkpt lat="44.59439" lon="7.8786683"><ele>286.0</ele><time>2026-05-01T12:39:13.349Z</time></trkpt><trkpt lat="44.5942967" lon="7.878735"><ele>286.0</ele><time>2026-05-01T12:39:15.348Z</time></trkpt><trkpt lat="44.5942217" lon="7.8785767"><ele>286.0</ele><time>2026-05-01T12:39:17.351Z</time></trkpt><trkpt lat="44.5942017" lon="7.8784367"><ele>286.0</ele><time>2026-05-01T12:39:18.35Z</time></trkpt><trkpt lat="44.594195" lon="7.8782567"><ele>286.0</ele><time>2026-05-01T12:39:19.348Z</time></trkpt><trkpt lat="44.5941817" lon="7.8780433"><ele>286.0</ele><time>2026-05-01T12:39:20.352Z</time></trkpt><trkpt lat="44.5941667" lon="7.877825"><ele>286.0</ele><time>2026-05-01T12:39:21.354Z</time></trkpt><trkpt lat="44.5941517" lon="7.8776017"><ele>286.0</ele><time>2026-05-01T12:39:22.349Z</time></trkpt><trkpt lat="44.5941367" lon="7.8773883"><ele>286.0</ele><time>2026-05-01T12:39:23.349Z</time></trkpt><trkpt lat="44.5941233" lon="7.8771833"><ele>286.0</ele><time>2026-05-01T12:39:24.353Z</time></trkpt><trkpt lat="44.59411" lon="7.876995"><ele>286.0</ele><time>2026-05-01T12:39:25.352Z</time></trkpt><trkpt lat="44.5940917" lon="7.8768383"><ele>286.0</ele><time>2026-05-01T12:39:26.353Z</time></trkpt><trkpt lat="44.5940617" lon="7.8767217"><ele>286.0</ele><time>2026-05-01T12:39:27.356Z</time></trkpt><trkpt lat="44.5940217" lon="7.8766333"><ele>286.0</ele><time>2026-05-01T12:39:28.353Z</time></trkpt><trkpt lat="44.5939533" lon="7.8766217"><ele>286.0</ele><time>2026-05-01T12:39:29.352Z</time></trkpt><trkpt lat="44.5938783" lon="7.876655"><ele>286.0</ele><time>2026-05-01T12:39:30.351Z</time></trkpt><trkpt lat="44.59383" lon="7.8767583"><ele>286.0</ele><time>2026-05-01T12:39:31.353Z</time></trkpt><trkpt lat="44.5938067" lon="7.8769033"><ele>286.0</ele><time>2026-05-01T12:39:32.354Z</time></trkpt><trkpt lat="44.5937867" lon="7.877075"><ele>286.0</ele><time>2026-05-01T12:39:33.352Z</time></trkpt><trkpt lat="44.593755" lon="7.877275"><ele>286.0</ele><time>2026-05-01T12:39:34.348Z</time></trkpt><trkpt lat="44.593715" lon="7.87749"><ele>286.0</ele><time>2026-05-01T12:39:35.35Z</time></trkpt><trkpt lat="44.5936717" lon="7.8777117"><ele>277.3333333333333</ele><time>2026-05-01T12:39:36.353Z</time></trkpt><trkpt lat="44.593625" lon="7.87795"><ele>268.6666666666667</ele><time>2026-05-01T12:39:37.352Z</time></trkpt><trkpt lat="44.593575" lon="7.8781983"><ele>260.0</ele><time>2026-05-01T12:39:38.352Z</time></trkpt><trkpt lat="44.5935217" lon="7.8784517"><ele>259.33333333333337</ele><time>2026-05-01T12:39:39.355Z</time></trkpt><trkpt lat="44.5934683" lon="7.8786983"><ele>258.6666666666667</ele><time>2026-05-01T12:39:40.35Z</time></trkpt><trkpt lat="44.593425" lon="7.8789383"><ele>258.0</ele><time>2026-05-01T12:39:41.352Z</time></trkpt><trkpt lat="44.59339" lon="7.8791683"><ele>256.3333333333333</ele><time>2026-05-01T12:39:42.352Z</time></trkpt><trkpt lat="44.5933683" lon="7.8793917"><ele>254.66666666666666</ele><time>2026-05-01T12:39:43.349Z</time></trkpt><trkpt lat="44.5933717" lon="7.8796083"><ele>253.0</ele><time>2026-05-01T12:39:44.354Z</time></trkpt><trkpt lat="44.5934033" lon="7.8798267"><ele>253.0</ele><time>2026-05-01T12:39:45.352Z</time></trkpt><trkpt lat="44.5934583" lon="7.880035"><ele>253.0</ele><time>2026-05-01T12:39:46.351Z</time></trkpt><trkpt lat="44.5935233" lon="7.8802317"><ele>253.0</ele><time>2026-05-01T12:39:47.353Z</time></trkpt><trkpt lat="44.593585" lon="7.880405"><ele>251.60000000000002</ele><time>2026-05-01T12:39:48.352Z</time></trkpt><trkpt lat="44.5936433" lon="7.8805483"><ele>250.20000000000002</ele><time>2026-05-01T12:39:49.352Z</time></trkpt><trkpt lat="44.5937083" lon="7.88065"><ele>248.8</ele><time>2026-05-01T12:39:50.351Z</time></trkpt><trkpt lat="44.5938033" lon="7.8807133"><ele>247.4</ele><time>2026-05-01T12:39:51.351Z</time></trkpt><trkpt lat="44.593925" lon="7.880715"><ele>246.0</ele><time>2026-05-01T12:39:52.354Z</time></trkpt><trkpt lat="44.59407" lon="7.880695"><ele>245.66666666666669</ele><time>2026-05-01T12:39:53.349Z</time></trkpt><trkpt lat="44.5942333" lon="7.8806667"><ele>245.33333333333334</ele><time>2026-05-01T12:39:54.353Z</time></trkpt><trkpt lat="44.5944083" lon="7.88063"><ele>245.0</ele><time>2026-05-01T12:39:55.355Z</time></trkpt><trkpt lat="44.5945917" lon="7.8805767"><ele>241.0</ele><time>2026-05-01T12:39:56.351Z</time></trkpt><trkpt lat="44.594785" lon="7.880505"><ele>237.0</ele><time>2026-05-01T12:39:57.354Z</time></trkpt><trkpt lat="44.594975" lon="7.8804283"><ele>233.0</ele><time>2026-05-01T12:39:58.35Z</time></trkpt><trkpt lat="44.5951783" lon="7.88035"><ele>236.0</ele><time>2026-05-01T12:39:59.352Z</time></trkpt><trkpt lat="44.595385" lon="7.8802633"><ele>239.0</ele><time>2026-05-01T12:40:00.354Z</time></trkpt><trkpt lat="44.5955967" lon="7.8801667"><ele>242.0</ele><time>2026-05-01T12:40:01.35Z</time></trkpt><trkpt lat="44.5957983" lon="7.8800767"><ele>242.0</ele><time>2026-05-01T12:40:02.353Z</time></trkpt><trkpt lat="44.596005" lon="7.8799933"><ele>242.0</ele><time>2026-05-01T12:40:03.355Z</time></trkpt><trkpt lat="44.5962" lon="7.8799233"><ele>242.0</ele><time>2026-05-01T12:40:04.351Z</time></trkpt><trkpt lat="44.5963983" lon="7.8798883"><ele>239.0</ele><time>2026-05-01T12:40:05.352Z</time></trkpt><trkpt lat="44.5965867" lon="7.8798867"><ele>236.0</ele><time>2026-05-01T12:40:06.35Z</time></trkpt><trkpt lat="44.5967617" lon="7.879905"><ele>233.0</ele><time>2026-05-01T12:40:07.354Z</time></trkpt><trkpt lat="44.596925" lon="7.8799117"><ele>230.33333333333334</ele><time>2026-05-01T12:40:08.353Z</time></trkpt><trkpt lat="44.5970817" lon="7.8798817"><ele>227.66666666666669</ele><time>2026-05-01T12:40:09.35Z</time></trkpt><trkpt lat="44.5972367" lon="7.8798083"><ele>225.0</ele><time>2026-05-01T12:40:10.355Z</time></trkpt><trkpt lat="44.5973833" lon="7.87969"><ele>225.0</ele><time>2026-05-01T12:40:11.353Z</time></trkpt><trkpt lat="44.59753" lon="7.8795483"><ele>225.0</ele><time>2026-05-01T12:40:12.354Z</time></trkpt><trkpt lat="44.5976883" lon="7.8794117"><ele>225.0</ele><time>2026-05-01T12:40:13.357Z</time></trkpt><trkpt lat="44.5978433" lon="7.8792933"><ele>224.5</ele><time>2026-05-01T12:40:14.352Z</time></trkpt><trkpt lat="44.5979883" lon="7.8792017"><ele>224.0</ele><time>2026-05-01T12:40:15.353Z</time></trkpt><trkpt lat="44.5981233" lon="7.8791317"><ele>223.5</ele><time>2026-05-01T12:40:16.35Z</time></trkpt><trkpt lat="44.5982483" lon="7.8790917"><ele>223.0</ele><time>2026-05-01T12:40:17.355Z</time></trkpt><trkpt lat="44.5983617" lon="7.8790967"><ele>223.0</ele><time>2026-05-01T12:40:18.351Z</time></trkpt><trkpt lat="44.5984633" lon="7.8791567"><ele>223.0</ele><time>2026-05-01T12:40:19.348Z</time></trkpt><trkpt lat="44.598545" lon="7.8792617"><ele>223.0</ele><time>2026-05-01T12:40:20.351Z</time></trkpt><trkpt lat="44.5985917" lon="7.879415"><ele>223.0</ele><time>2026-05-01T12:40:21.349Z</time></trkpt><trkpt lat="44.5986117" lon="7.8795867"><ele>221.5</ele><time>2026-05-01T12:40:22.354Z</time></trkpt><trkpt lat="44.5985917" lon="7.87976"><ele>220.0</ele><time>2026-05-01T12:40:23.351Z</time></trkpt><trkpt lat="44.5985483" lon="7.8799167"><ele>218.5</ele><time>2026-05-01T12:40:24.358Z</time></trkpt><trkpt lat="44.5984567" lon="7.8800467"><ele>217.0</ele><time>2026-05-01T12:40:25.353Z</time></trkpt><trkpt lat="44.5983467" lon="7.8801683"><ele>216.0</ele><time>2026-05-01T12:40:26.349Z</time></trkpt><trkpt lat="44.5982267" lon="7.8802917"><ele>215.0</ele><time>2026-05-01T12:40:27.354Z</time></trkpt><trkpt lat="44.59811" lon="7.88043"><ele>214.0</ele><time>2026-05-01T12:40:28.352Z</time></trkpt><trkpt lat="44.5980067" lon="7.8805917"><ele>214.0</ele><time>2026-05-01T12:40:29.349Z</time></trkpt><trkpt lat="44.5979167" lon="7.8807833"><ele>214.0</ele><time>2026-05-01T12:40:30.436Z</time></trkpt><trkpt lat="44.5978467" lon="7.8809967"><ele>214.0</ele><time>2026-05-01T12:40:31.35Z</time></trkpt><trkpt lat="44.5977967" lon="7.8812283"><ele>213.66666666666666</ele><time>2026-05-01T12:40:32.351Z</time></trkpt><trkpt lat="44.5977717" lon="7.8814817"><ele>213.33333333333331</ele><time>2026-05-01T12:40:33.352Z</time></trkpt><trkpt lat="44.597765" lon="7.881755"><ele>213.0</ele><time>2026-05-01T12:40:34.349Z</time></trkpt><trkpt lat="44.597765" lon="7.882045"><ele>213.0</ele><time>2026-05-01T12:40:35.349Z</time></trkpt><trkpt lat="44.59776" lon="7.88234"><ele>213.0</ele><time>2026-05-01T12:40:36.35Z</time></trkpt><trkpt lat="44.5977533" lon="7.8826367"><ele>213.0</ele><time>2026-05-01T12:40:37.351Z</time></trkpt><trkpt lat="44.5977467" lon="7.88294"><ele>212.33333333333331</ele><time>2026-05-01T12:40:38.351Z</time></trkpt><trkpt lat="44.5977367" lon="7.883245"><ele>211.66666666666666</ele><time>2026-05-01T12:40:39.351Z</time></trkpt><trkpt lat="44.5977267" lon="7.8835567"><ele>211.0</ele><time>2026-05-01T12:40:40.35Z</time></trkpt><trkpt lat="44.5977167" lon="7.8838683"><ele>211.0</ele><time>2026-05-01T12:40:41.353Z</time></trkpt><trkpt lat="44.597705" lon="7.8841767"><ele>211.0</ele><time>2026-05-01T12:40:42.35Z</time></trkpt><trkpt lat="44.5976967" lon="7.8844867"><ele>211.0</ele><time>2026-05-01T12:40:43.348Z</time></trkpt><trkpt lat="44.5977017" lon="7.8847983"><ele>210.66666666666666</ele><time>2026-05-01T12:40:44.353Z</time></trkpt><trkpt lat="44.5977217" lon="7.88511"><ele>210.33333333333331</ele><time>2026-05-01T12:40:45.356Z</time></trkpt><trkpt lat="44.5977567" lon="7.88542"><ele>210.0</ele><time>2026-05-01T12:40:46.35Z</time></trkpt><trkpt lat="44.5977983" lon="7.88573"><ele>208.5</ele><time>2026-05-01T12:40:47.353Z</time></trkpt><trkpt lat="44.5978533" lon="7.88604"><ele>207.0</ele><time>2026-05-01T12:40:48.35Z</time></trkpt><trkpt lat="44.5979117" lon="7.8863517"><ele>207.0</ele><time>2026-05-01T12:40:49.357Z</time></trkpt><trkpt lat="44.597975" lon="7.8866617"><ele>207.0</ele><time>2026-05-01T12:40:50.352Z</time></trkpt><trkpt lat="44.598035" lon="7.88697"><ele>208.0</ele><time>2026-05-01T12:40:51.353Z</time></trkpt><trkpt lat="44.5980967" lon="7.8872783"><ele>209.0</ele><time>2026-05-01T12:40:52.353Z</time></trkpt><trkpt lat="44.5981583" lon="7.887585"><ele>210.5</ele><time>2026-05-01T12:40:53.354Z</time></trkpt><trkpt lat="44.5982183" lon="7.8878933"><ele>212.0</ele><time>2026-05-01T12:40:54.354Z</time></trkpt><trkpt lat="44.5982667" lon="7.8882"><ele>213.0</ele><time>2026-05-01T12:40:55.35Z</time></trkpt><trkpt lat="44.598305" lon="7.8885117"><ele>214.0</ele><time>2026-05-01T12:40:56.351Z</time></trkpt><trkpt lat="44.5983267" lon="7.888825"><ele>215.0</ele><time>2026-05-01T12:40:57.356Z</time></trkpt><trkpt lat="44.5983333" lon="7.8891367"><ele>216.0</ele><time>2026-05-01T12:40:58.35Z</time></trkpt><trkpt lat="44.5983233" lon="7.88945"><ele>217.0</ele><time>2026-05-01T12:40:59.351Z</time></trkpt><trkpt lat="44.598305" lon="7.8897583"><ele>218.0</ele><time>2026-05-01T12:41:00.35Z</time></trkpt><trkpt lat="44.5982683" lon="7.8900617"><ele>218.33333333333334</ele><time>2026-05-01T12:41:01.347Z</time></trkpt><trkpt lat="44.598215" lon="7.8903533"><ele>218.66666666666669</ele><time>2026-05-01T12:41:02.351Z</time></trkpt><trkpt lat="44.5981483" lon="7.890635"><ele>219.0</ele><time>2026-05-01T12:41:03.353Z</time></trkpt><trkpt lat="44.5980667" lon="7.890895"><ele>219.66666666666669</ele><time>2026-05-01T12:41:04.349Z</time></trkpt><trkpt lat="44.5979683" lon="7.8911217"><ele>220.33333333333334</ele><time>2026-05-01T12:41:05.349Z</time></trkpt><trkpt lat="44.5978567" lon="7.8912983"><ele>221.0</ele><time>2026-05-01T12:41:06.352Z</time></trkpt><trkpt lat="44.5977283" lon="7.8914217"><ele>221.0</ele><time>2026-05-01T12:41:07.351Z</time></trkpt><trkpt lat="44.597595" lon="7.8915017"><ele>221.0</ele><time>2026-05-01T12:41:08.352Z</time></trkpt><trkpt lat="44.5974667" lon="7.8915533"><ele>221.0</ele><time>2026-05-01T12:41:09.354Z</time></trkpt><trkpt lat="44.5973483" lon="7.8915883"><ele>221.0</ele><time>2026-05-01T12:41:10.354Z</time></trkpt><trkpt lat="44.5972417" lon="7.8916267"><ele>221.0</ele><time>2026-05-01T12:41:11.352Z</time></trkpt><trkpt lat="44.5971567" lon="7.8916983"><ele>221.00000000000003</ele><time>2026-05-01T12:41:12.352Z</time></trkpt><trkpt lat="44.5970933" lon="7.8917983"><ele>221.00000000000003</ele><time>2026-05-01T12:41:13.349Z</time></trkpt><trkpt lat="44.5970633" lon="7.891945"><ele>221.0</ele><time>2026-05-01T12:41:14.349Z</time></trkpt><trkpt lat="44.5970333" lon="7.8921133"><ele>221.0</ele><time>2026-05-01T12:41:15.353Z</time></trkpt><trkpt lat="44.596975" lon="7.8923"><ele>220.66666666666669</ele><time>2026-05-01T12:41:16.348Z</time></trkpt><trkpt lat="44.5969" lon="7.8924883"><ele>220.33333333333331</ele><time>2026-05-01T12:41:17.349Z</time></trkpt><trkpt lat="44.5968217" lon="7.8926783"><ele>220.0</ele><time>2026-05-01T12:41:18.353Z</time></trkpt><trkpt lat="44.5967317" lon="7.8928533"><ele>221.5</ele><time>2026-05-01T12:41:19.348Z</time></trkpt><trkpt lat="44.5966317" lon="7.8929983"><ele>223.0</ele><time>2026-05-01T12:41:20.352Z</time></trkpt><trkpt lat="44.596515" lon="7.8931217"><ele>224.5</ele><time>2026-05-01T12:41:21.351Z</time></trkpt><trkpt lat="44.596375" lon="7.8932217"><ele>226.0</ele><time>2026-05-01T12:41:22.349Z</time></trkpt><trkpt lat="44.5962133" lon="7.8932983"><ele>224.66666666666666</ele><time>2026-05-01T12:41:23.349Z</time></trkpt><trkpt lat="44.5960383" lon="7.89335"><ele>223.33333333333331</ele><time>2026-05-01T12:41:24.35Z</time></trkpt><trkpt lat="44.5958567" lon="7.8933683"><ele>222.0</ele><time>2026-05-01T12:41:25.349Z</time></trkpt><trkpt lat="44.5956733" lon="7.8933733"><ele>222.0</ele><time>2026-05-01T12:41:26.351Z</time></trkpt><trkpt lat="44.5954867" lon="7.893385"><ele>222.0</ele><time>2026-05-01T12:41:27.357Z</time></trkpt><trkpt lat="44.5952917" lon="7.89343"><ele>222.0</ele><time>2026-05-01T12:41:28.348Z</time></trkpt><trkpt lat="44.59509" lon="7.8935167"><ele>221.33333333333331</ele><time>2026-05-01T12:41:29.35Z</time></trkpt><trkpt lat="44.5948817" lon="7.8936217"><ele>220.66666666666666</ele><time>2026-05-01T12:41:30.348Z</time></trkpt><trkpt lat="44.5946683" lon="7.893735"><ele>220.0</ele><time>2026-05-01T12:41:31.352Z</time></trkpt><trkpt lat="44.5944483" lon="7.8938483"><ele>217.5</ele><time>2026-05-01T12:41:32.351Z</time></trkpt><trkpt lat="44.5942283" lon="7.893955"><ele>215.0</ele><time>2026-05-01T12:41:33.349Z</time></trkpt><trkpt lat="44.5940133" lon="7.89404"><ele>215.0</ele><time>2026-05-01T12:41:34.356Z</time></trkpt><trkpt lat="44.5938017" lon="7.8940867"><ele>215.0</ele><time>2026-05-01T12:41:35.351Z</time></trkpt><trkpt lat="44.5935883" lon="7.8940883"><ele>215.0</ele><time>2026-05-01T12:41:36.351Z</time></trkpt><trkpt lat="44.5933783" lon="7.894045"><ele>215.33333333333334</ele><time>2026-05-01T12:41:37.354Z</time></trkpt><trkpt lat="44.5931617" lon="7.893985"><ele>215.66666666666669</ele><time>2026-05-01T12:41:38.35Z</time></trkpt><trkpt lat="44.5929417" lon="7.89393"><ele>216.0</ele><time>2026-05-01T12:41:39.35Z</time></trkpt><trkpt lat="44.592715" lon="7.8938983"><ele>216.0</ele><time>2026-05-01T12:41:40.352Z</time></trkpt><trkpt lat="44.592485" lon="7.8938983"><ele>216.0</ele><time>2026-05-01T12:41:41.358Z</time></trkpt><trkpt lat="44.5922533" lon="7.8939267"><ele>216.0</ele><time>2026-05-01T12:41:42.352Z</time></trkpt><trkpt lat="44.5920217" lon="7.8939717"><ele>216.0</ele><time>2026-05-01T12:41:43.351Z</time></trkpt><trkpt lat="44.59179" lon="7.8940283"><ele>216.5</ele><time>2026-05-01T12:41:44.35Z</time></trkpt><trkpt lat="44.5915583" lon="7.8940917"><ele>217.0</ele><time>2026-05-01T12:41:45.351Z</time></trkpt><trkpt lat="44.5913283" lon="7.8941517"><ele>217.0</ele><time>2026-05-01T12:41:46.352Z</time></trkpt><trkpt lat="44.5910983" lon="7.8942117"><ele>217.0</ele><time>2026-05-01T12:41:47.356Z</time></trkpt><trkpt lat="44.5908667" lon="7.89427"><ele>217.0</ele><time>2026-05-01T12:41:48.352Z</time></trkpt><trkpt lat="44.5906317" lon="7.8943267"><ele>217.0</ele><time>2026-05-01T12:41:49.353Z</time></trkpt><trkpt lat="44.5904" lon="7.8943883"><ele>217.0</ele><time>2026-05-01T12:41:50.352Z</time></trkpt><trkpt lat="44.59017" lon="7.89446"><ele>217.0</ele><time>2026-05-01T12:41:51.353Z</time></trkpt><trkpt lat="44.5899433" lon="7.8945467"><ele>217.0</ele><time>2026-05-01T12:41:52.352Z</time></trkpt><trkpt lat="44.5897167" lon="7.8946617"><ele>217.0</ele><time>2026-05-01T12:41:53.351Z</time></trkpt><trkpt lat="44.589495" lon="7.8947933"><ele>217.0</ele><time>2026-05-01T12:41:54.352Z</time></trkpt><trkpt lat="44.5892767" lon="7.894945"><ele>217.0</ele><time>2026-05-01T12:41:55.353Z</time></trkpt><trkpt lat="44.5890667" lon="7.89512"><ele>217.5</ele><time>2026-05-01T12:41:56.353Z</time></trkpt><trkpt lat="44.5888667" lon="7.8953083"><ele>218.0</ele><time>2026-05-01T12:41:57.354Z</time></trkpt><trkpt lat="44.5886767" lon="7.895515"><ele>219.5</ele><time>2026-05-01T12:41:58.349Z</time></trkpt><trkpt lat="44.5885" lon="7.8957283"><ele>221.0</ele><time>2026-05-01T12:41:59.35Z</time></trkpt><trkpt lat="44.5883333" lon="7.895955"><ele>221.0</ele><time>2026-05-01T12:42:00.353Z</time></trkpt><trkpt lat="44.5881783" lon="7.896195"><ele>221.0</ele><time>2026-05-01T12:42:01.352Z</time></trkpt><trkpt lat="44.5880267" lon="7.8964433"><ele>221.0</ele><time>2026-05-01T12:42:02.349Z</time></trkpt><trkpt lat="44.5878783" lon="7.8967067"><ele>221.0</ele><time>2026-05-01T12:42:03.35Z</time></trkpt><trkpt lat="44.58773" lon="7.8969733"><ele>220.5</ele><time>2026-05-01T12:42:04.349Z</time></trkpt><trkpt lat="44.5875783" lon="7.8972483"><ele>220.0</ele><time>2026-05-01T12:42:05.352Z</time></trkpt><trkpt lat="44.5874217" lon="7.8975217"><ele>220.5</ele><time>2026-05-01T12:42:06.351Z</time></trkpt><trkpt lat="44.5872617" lon="7.8977967"><ele>221.0</ele><time>2026-05-01T12:42:07.351Z</time></trkpt><trkpt lat="44.5871033" lon="7.8980717"><ele>221.0</ele><time>2026-05-01T12:42:08.353Z</time></trkpt><trkpt lat="44.5869433" lon="7.8983533"><ele>221.0</ele><time>2026-05-01T12:42:09.353Z</time></trkpt><trkpt lat="44.5867867" lon="7.898635"><ele>221.0</ele><time>2026-05-01T12:42:10.351Z</time></trkpt><trkpt lat="44.5866283" lon="7.898915"><ele>221.0</ele><time>2026-05-01T12:42:11.348Z</time></trkpt><trkpt lat="44.586475" lon="7.8991967"><ele>221.0</ele><time>2026-05-01T12:42:12.354Z</time></trkpt><trkpt lat="44.5863233" lon="7.899475"><ele>221.0</ele><time>2026-05-01T12:42:13.353Z</time></trkpt><trkpt lat="44.5861733" lon="7.8997567"><ele>222.0</ele><time>2026-05-01T12:42:14.352Z</time></trkpt><trkpt lat="44.5860267" lon="7.9000383"><ele>223.0</ele><time>2026-05-01T12:42:15.353Z</time></trkpt><trkpt lat="44.58588" lon="7.9003217"><ele>224.0</ele><time>2026-05-01T12:42:16.358Z</time></trkpt><trkpt lat="44.5857283" lon="7.9006033"><ele>225.0</ele><time>2026-05-01T12:42:17.35Z</time></trkpt><trkpt lat="44.5855717" lon="7.90088"><ele>226.0</ele><time>2026-05-01T12:42:18.351Z</time></trkpt><trkpt lat="44.5854117" lon="7.9011517"><ele>227.0</ele><time>2026-05-01T12:42:19.348Z</time></trkpt><trkpt lat="44.585245" lon="7.9014183"><ele>228.0</ele><time>2026-05-01T12:42:20.349Z</time></trkpt><trkpt lat="44.585075" lon="7.9016767"><ele>229.0</ele><time>2026-05-01T12:42:21.358Z</time></trkpt><trkpt lat="44.58491" lon="7.90194"><ele>229.5</ele><time>2026-05-01T12:42:22.35Z</time></trkpt><trkpt lat="44.5847517" lon="7.90221"><ele>230.0</ele><time>2026-05-01T12:42:23.352Z</time></trkpt><trkpt lat="44.584605" lon="7.902475"><ele>228.0</ele><time>2026-05-01T12:42:24.352Z</time></trkpt><trkpt lat="44.5844667" lon="7.90273"><ele>226.0</ele><time>2026-05-01T12:42:25.351Z</time></trkpt><trkpt lat="44.584335" lon="7.90298"><ele>226.0</ele><time>2026-05-01T12:42:26.351Z</time></trkpt><trkpt lat="44.58421" lon="7.9032167"><ele>226.0</ele><time>2026-05-01T12:42:27.351Z</time></trkpt><trkpt lat="44.5840933" lon="7.9034533"><ele>226.0</ele><time>2026-05-01T12:42:28.352Z</time></trkpt><trkpt lat="44.583985" lon="7.90369"><ele>225.66666666666666</ele><time>2026-05-01T12:42:29.351Z</time></trkpt><trkpt lat="44.583875" lon="7.9039267"><ele>225.33333333333331</ele><time>2026-05-01T12:42:30.359Z</time></trkpt><trkpt lat="44.5837633" lon="7.9041617"><ele>225.0</ele><time>2026-05-01T12:42:31.348Z</time></trkpt><trkpt lat="44.583645" lon="7.9043983"><ele>225.0</ele><time>2026-05-01T12:42:32.351Z</time></trkpt><trkpt lat="44.5835217" lon="7.9046317"><ele>225.0</ele><time>2026-05-01T12:42:33.351Z</time></trkpt><trkpt lat="44.5833983" lon="7.90486"><ele>225.0</ele><time>2026-05-01T12:42:34.352Z</time></trkpt><trkpt lat="44.5832717" lon="7.9050883"><ele>225.33333333333331</ele><time>2026-05-01T12:42:35.352Z</time></trkpt><trkpt lat="44.5831467" lon="7.9053217"><ele>225.66666666666666</ele><time>2026-05-01T12:42:36.347Z</time></trkpt><trkpt lat="44.583025" lon="7.9055517"><ele>226.0</ele><time>2026-05-01T12:42:37.348Z</time></trkpt><trkpt lat="44.582905" lon="7.9057767"><ele>225.33333333333331</ele><time>2026-05-01T12:42:38.352Z</time></trkpt><trkpt lat="44.582785" lon="7.9060017"><ele>224.66666666666669</ele><time>2026-05-01T12:42:39.356Z</time></trkpt><trkpt lat="44.582665" lon="7.9062233"><ele>224.0</ele><time>2026-05-01T12:42:40.358Z</time></trkpt><trkpt lat="44.5825467" lon="7.90644"><ele>224.0</ele><time>2026-05-01T12:42:41.353Z</time></trkpt><trkpt lat="44.58243" lon="7.9066583"><ele>224.0</ele><time>2026-05-01T12:42:42.352Z</time></trkpt><trkpt lat="44.58231" lon="7.906875"><ele>224.0</ele><time>2026-05-01T12:42:43.351Z</time></trkpt><trkpt lat="44.5821917" lon="7.907085"><ele>224.33333333333334</ele><time>2026-05-01T12:42:44.35Z</time></trkpt><trkpt lat="44.582075" lon="7.907285"><ele>224.66666666666669</ele><time>2026-05-01T12:42:45.359Z</time></trkpt><trkpt lat="44.5819617" lon="7.9074717"><ele>225.0</ele><time>2026-05-01T12:42:46.355Z</time></trkpt><trkpt lat="44.58185" lon="7.9076467"><ele>224.33333333333331</ele><time>2026-05-01T12:42:47.35Z</time></trkpt><trkpt lat="44.5817417" lon="7.9078117"><ele>223.66666666666666</ele><time>2026-05-01T12:42:48.35Z</time></trkpt><trkpt lat="44.581635" lon="7.9079617"><ele>223.0</ele><time>2026-05-01T12:42:49.349Z</time></trkpt><trkpt lat="44.5815317" lon="7.9080967"><ele>223.0</ele><time>2026-05-01T12:42:50.349Z</time></trkpt><trkpt lat="44.58143" lon="7.9082283"><ele>223.0</ele><time>2026-05-01T12:42:51.354Z</time></trkpt><trkpt lat="44.5813367" lon="7.9083467"><ele>223.0</ele><time>2026-05-01T12:42:52.348Z</time></trkpt><trkpt lat="44.581255" lon="7.9084483"><ele>223.0</ele><time>2026-05-01T12:42:53.348Z</time></trkpt><trkpt lat="44.5811817" lon="7.9085317"><ele>223.33333333333331</ele><time>2026-05-01T12:42:54.348Z</time></trkpt><trkpt lat="44.5811133" lon="7.90859"><ele>223.66666666666666</ele><time>2026-05-01T12:42:55.35Z</time></trkpt><trkpt lat="44.5810433" lon="7.908625"><ele>224.0</ele><time>2026-05-01T12:42:56.352Z</time></trkpt><trkpt lat="44.5809717" lon="7.908635"><ele>224.33333333333331</ele><time>2026-05-01T12:42:57.349Z</time></trkpt><trkpt lat="44.5809067" lon="7.9086333"><ele>224.66666666666666</ele><time>2026-05-01T12:42:58.348Z</time></trkpt><trkpt lat="44.580785" lon="7.9086733"><ele>225.0</ele><time>2026-05-01T12:43:00.356Z</time></trkpt><trkpt lat="44.58069" lon="7.9087917"><ele>225.0</ele><time>2026-05-01T12:43:02.353Z</time></trkpt><trkpt lat="44.5806683" lon="7.9088867"><ele>225.0</ele><time>2026-05-01T12:43:03.353Z</time></trkpt><trkpt lat="44.5806633" lon="7.909"><ele>225.0</ele><time>2026-05-01T12:43:04.351Z</time></trkpt><trkpt lat="44.5806733" lon="7.9091367"><ele>225.0</ele><time>2026-05-01T12:43:05.352Z</time></trkpt><trkpt lat="44.5806617" lon="7.9092933"><ele>225.0</ele><time>2026-05-01T12:43:06.35Z</time></trkpt><trkpt lat="44.58063" lon="7.909455"><ele>225.25</ele><time>2026-05-01T12:43:07.351Z</time></trkpt><trkpt lat="44.58058" lon="7.90961"><ele>225.5</ele><time>2026-05-01T12:43:08.35Z</time></trkpt><trkpt lat="44.5805083" lon="7.9097517"><ele>225.75</ele><time>2026-05-01T12:43:09.353Z</time></trkpt><trkpt lat="44.5804183" lon="7.9098783"><ele>226.0</ele><time>2026-05-01T12:43:10.351Z</time></trkpt><trkpt lat="44.5803217" lon="7.9100033"><ele>226.25</ele><time>2026-05-01T12:43:11.351Z</time></trkpt><trkpt lat="44.5802233" lon="7.9101317"><ele>226.5</ele><time>2026-05-01T12:43:12.355Z</time></trkpt><trkpt lat="44.5801217" lon="7.910265"><ele>226.75</ele><time>2026-05-01T12:43:13.353Z</time></trkpt><trkpt lat="44.5800133" lon="7.9104017"><ele>227.0</ele><time>2026-05-01T12:43:14.35Z</time></trkpt><trkpt lat="44.5799067" lon="7.91053"><ele>227.0</ele><time>2026-05-01T12:43:15.348Z</time></trkpt><trkpt lat="44.5798017" lon="7.9106583"><ele>227.0</ele><time>2026-05-01T12:43:16.348Z</time></trkpt><trkpt lat="44.5796967" lon="7.9107883"><ele>227.0</ele><time>2026-05-01T12:43:17.356Z</time></trkpt><trkpt lat="44.5795933" lon="7.9109183"><ele>227.0</ele><time>2026-05-01T12:43:18.355Z</time></trkpt><trkpt lat="44.579485" lon="7.911055"><ele>227.33333333333334</ele><time>2026-05-01T12:43:19.348Z</time></trkpt><trkpt lat="44.5793717" lon="7.9111967"><ele>227.66666666666669</ele><time>2026-05-01T12:43:20.349Z</time></trkpt><trkpt lat="44.579255" lon="7.9113417"><ele>228.0</ele><time>2026-05-01T12:43:21.348Z</time></trkpt><trkpt lat="44.57914" lon="7.911485"><ele>228.0</ele><time>2026-05-01T12:43:22.355Z</time></trkpt><trkpt lat="44.5790267" lon="7.911625"><ele>228.0</ele><time>2026-05-01T12:43:23.354Z</time></trkpt><trkpt lat="44.57892" lon="7.911755"><ele>228.0</ele><time>2026-05-01T12:43:24.351Z</time></trkpt><trkpt lat="44.5788217" lon="7.9118717"><ele>228.0</ele><time>2026-05-01T12:43:25.351Z</time></trkpt><trkpt lat="44.578735" lon="7.9119817"><ele>228.0</ele><time>2026-05-01T12:43:26.35Z</time></trkpt><trkpt lat="44.5786533" lon="7.9120867"><ele>228.0</ele><time>2026-05-01T12:43:27.348Z</time></trkpt><trkpt lat="44.578575" lon="7.9121867"><ele>228.0</ele><time>2026-05-01T12:43:28.351Z</time></trkpt><trkpt lat="44.5785017" lon="7.9122783"><ele>228.0</ele><time>2026-05-01T12:43:29.35Z</time></trkpt><trkpt lat="44.5784317" lon="7.9123667"><ele>228.0</ele><time>2026-05-01T12:43:30.35Z</time></trkpt><trkpt lat="44.57836" lon="7.912455"><ele>228.0</ele><time>2026-05-01T12:43:31.354Z</time></trkpt><trkpt lat="44.5782867" lon="7.912545"><ele>228.0</ele><time>2026-05-01T12:43:32.352Z</time></trkpt><trkpt lat="44.5782133" lon="7.9126417"><ele>228.0</ele><time>2026-05-01T12:43:33.354Z</time></trkpt><trkpt lat="44.578135" lon="7.9127417"><ele>228.0</ele><time>2026-05-01T12:43:34.354Z</time></trkpt><trkpt lat="44.578055" lon="7.91284"><ele>228.0</ele><time>2026-05-01T12:43:35.352Z</time></trkpt><trkpt lat="44.57797" lon="7.9129383"><ele>228.0</ele><time>2026-05-01T12:43:36.351Z</time></trkpt><trkpt lat="44.5778817" lon="7.91304"><ele>228.0</ele><time>2026-05-01T12:43:37.353Z</time></trkpt><trkpt lat="44.5777917" lon="7.9131433"><ele>228.0</ele><time>2026-05-01T12:43:38.352Z</time></trkpt><trkpt lat="44.5777033" lon="7.913255"><ele>228.0</ele><time>2026-05-01T12:43:39.353Z</time></trkpt><trkpt lat="44.5776183" lon="7.9133683"><ele>229.5</ele><time>2026-05-01T12:43:40.352Z</time></trkpt><trkpt lat="44.5775333" lon="7.913485"><ele>231.0</ele><time>2026-05-01T12:43:41.349Z</time></trkpt><trkpt lat="44.577445" lon="7.9136033"><ele>232.5</ele><time>2026-05-01T12:43:42.35Z</time></trkpt><trkpt lat="44.577355" lon="7.91372"><ele>234.0</ele><time>2026-05-01T12:43:43.351Z</time></trkpt><trkpt lat="44.5772667" lon="7.9138333"><ele>234.0</ele><time>2026-05-01T12:43:44.354Z</time></trkpt><trkpt lat="44.5771767" lon="7.9139433"><ele>234.0</ele><time>2026-05-01T12:43:45.349Z</time></trkpt><trkpt lat="44.577085" lon="7.9140533"><ele>234.0</ele><time>2026-05-01T12:43:46.352Z</time></trkpt><trkpt lat="44.5769967" lon="7.9141617"><ele>234.0</ele><time>2026-05-01T12:43:47.35Z</time></trkpt><trkpt lat="44.5769067" lon="7.9142683"><ele>233.25</ele><time>2026-05-01T12:43:48.35Z</time></trkpt><trkpt lat="44.576815" lon="7.9143817"><ele>232.5</ele><time>2026-05-01T12:43:49.352Z</time></trkpt><trkpt lat="44.5767267" lon="7.9144967"><ele>231.75</ele><time>2026-05-01T12:43:50.35Z</time></trkpt><trkpt lat="44.5766367" lon="7.91461"><ele>231.0</ele><time>2026-05-01T12:43:51.357Z</time></trkpt><trkpt lat="44.576545" lon="7.914725"><ele>231.0</ele><time>2026-05-01T12:43:52.35Z</time></trkpt><trkpt lat="44.5764517" lon="7.9148433"><ele>231.0</ele><time>2026-05-01T12:43:53.351Z</time></trkpt><trkpt lat="44.5763567" lon="7.9149617"><ele>231.0</ele><time>2026-05-01T12:43:54.352Z</time></trkpt><trkpt lat="44.57626" lon="7.9150767"><ele>231.0</ele><time>2026-05-01T12:43:55.351Z</time></trkpt><trkpt lat="44.5761667" lon="7.9151917"><ele>230.75</ele><time>2026-05-01T12:43:56.35Z</time></trkpt><trkpt lat="44.57607" lon="7.91531"><ele>230.5</ele><time>2026-05-01T12:43:57.349Z</time></trkpt><trkpt lat="44.5759733" lon="7.9154267"><ele>230.25</ele><time>2026-05-01T12:43:58.351Z</time></trkpt><trkpt lat="44.5758783" lon="7.9155433"><ele>230.0</ele><time>2026-05-01T12:43:59.352Z</time></trkpt><trkpt lat="44.5757817" lon="7.9156633"><ele>230.0</ele><time>2026-05-01T12:44:00.352Z</time></trkpt><trkpt lat="44.575685" lon="7.915785"><ele>230.0</ele><time>2026-05-01T12:44:01.351Z</time></trkpt><trkpt lat="44.575585" lon="7.9159117"><ele>230.0</ele><time>2026-05-01T12:44:02.353Z</time></trkpt><trkpt lat="44.5754867" lon="7.916035"><ele>230.0</ele><time>2026-05-01T12:44:03.354Z</time></trkpt><trkpt lat="44.575385" lon="7.91616"><ele>229.25</ele><time>2026-05-01T12:44:04.351Z</time></trkpt><trkpt lat="44.5752833" lon="7.9162867"><ele>228.5</ele><time>2026-05-01T12:44:05.352Z</time></trkpt><trkpt lat="44.57517" lon="7.9164017"><ele>227.75</ele><time>2026-05-01T12:44:06.352Z</time></trkpt><trkpt lat="44.575045" lon="7.91649"><ele>227.0</ele><time>2026-05-01T12:44:07.351Z</time></trkpt><trkpt lat="44.5749133" lon="7.916545"><ele>227.0</ele><time>2026-05-01T12:44:08.349Z</time></trkpt><trkpt lat="44.5747783" lon="7.916575"><ele>227.0</ele><time>2026-05-01T12:44:09.351Z</time></trkpt><trkpt lat="44.574645" lon="7.916595"><ele>227.0</ele><time>2026-05-01T12:44:10.352Z</time></trkpt><trkpt lat="44.5745133" lon="7.9166183"><ele>227.0</ele><time>2026-05-01T12:44:11.354Z</time></trkpt><trkpt lat="44.5743833" lon="7.9166433"><ele>227.0</ele><time>2026-05-01T12:44:12.349Z</time></trkpt><trkpt lat="44.5742533" lon="7.91667"><ele>227.0</ele><time>2026-05-01T12:44:13.352Z</time></trkpt><trkpt lat="44.5741217" lon="7.9166967"><ele>227.0</ele><time>2026-05-01T12:44:14.351Z</time></trkpt><trkpt lat="44.57399" lon="7.9167183"><ele>227.0</ele><time>2026-05-01T12:44:15.352Z</time></trkpt><trkpt lat="44.5738583" lon="7.91674"><ele>228.25</ele><time>2026-05-01T12:44:16.351Z</time></trkpt><trkpt lat="44.5737267" lon="7.9167633"><ele>229.5</ele><time>2026-05-01T12:44:17.351Z</time></trkpt><trkpt lat="44.5736" lon="7.9167883"><ele>230.75</ele><time>2026-05-01T12:44:18.35Z</time></trkpt><trkpt lat="44.573475" lon="7.91681"><ele>232.0</ele><time>2026-05-01T12:44:19.353Z</time></trkpt><trkpt lat="44.5733467" lon="7.9168283"><ele>232.0</ele><time>2026-05-01T12:44:20.352Z</time></trkpt><trkpt lat="44.573215" lon="7.9168467"><ele>232.0</ele><time>2026-05-01T12:44:21.35Z</time></trkpt><trkpt lat="44.5730833" lon="7.91687"><ele>232.0</ele><time>2026-05-01T12:44:22.349Z</time></trkpt><trkpt lat="44.5729533" lon="7.9168933"><ele>232.0</ele><time>2026-05-01T12:44:23.349Z</time></trkpt><trkpt lat="44.5728267" lon="7.9169133"><ele>232.0</ele><time>2026-05-01T12:44:24.357Z</time></trkpt><trkpt lat="44.5727017" lon="7.9169367"><ele>232.0</ele><time>2026-05-01T12:44:25.354Z</time></trkpt><trkpt lat="44.5725833" lon="7.9169617"><ele>232.0</ele><time>2026-05-01T12:44:26.351Z</time></trkpt><trkpt lat="44.5724633" lon="7.9169883"><ele>232.0</ele><time>2026-05-01T12:44:27.356Z</time></trkpt><trkpt lat="44.5723467" lon="7.9170183"><ele>232.0</ele><time>2026-05-01T12:44:28.353Z</time></trkpt><trkpt lat="44.57223" lon="7.9170467"><ele>232.0</ele><time>2026-05-01T12:44:29.355Z</time></trkpt><trkpt lat="44.57211" lon="7.917075"><ele>232.0</ele><time>2026-05-01T12:44:30.352Z</time></trkpt><trkpt lat="44.5719867" lon="7.9171067"><ele>232.0</ele><time>2026-05-01T12:44:31.357Z</time></trkpt><trkpt lat="44.57186" lon="7.9171367"><ele>231.75</ele><time>2026-05-01T12:44:32.349Z</time></trkpt><trkpt lat="44.57173" lon="7.9171583"><ele>231.5</ele><time>2026-05-01T12:44:33.352Z</time></trkpt><trkpt lat="44.5716" lon="7.9171833"><ele>231.25</ele><time>2026-05-01T12:44:34.352Z</time></trkpt><trkpt lat="44.571465" lon="7.9172133"><ele>231.0</ele><time>2026-05-01T12:44:35.352Z</time></trkpt><trkpt lat="44.5713317" lon="7.91724"><ele>230.25</ele><time>2026-05-01T12:44:36.352Z</time></trkpt><trkpt lat="44.571185" lon="7.9172733"><ele>229.5</ele><time>2026-05-01T12:44:37.354Z</time></trkpt><trkpt lat="44.5710417" lon="7.9173017"><ele>228.75</ele><time>2026-05-01T12:44:38.351Z</time></trkpt><trkpt lat="44.5708983" lon="7.9173333"><ele>228.0</ele><time>2026-05-01T12:44:39.349Z</time></trkpt><trkpt lat="44.57075" lon="7.9173633"><ele>228.0</ele><time>2026-05-01T12:44:40.353Z</time></trkpt><trkpt lat="44.5705983" lon="7.9173933"><ele>228.0</ele><time>2026-05-01T12:44:41.35Z</time></trkpt><trkpt lat="44.570445" lon="7.9174217"><ele>228.0</ele><time>2026-05-01T12:44:42.352Z</time></trkpt><trkpt lat="44.5702883" lon="7.9174467"><ele>227.33333333333331</ele><time>2026-05-01T12:44:43.353Z</time></trkpt><trkpt lat="44.5701283" lon="7.91747"><ele>226.66666666666666</ele><time>2026-05-01T12:44:44.35Z</time></trkpt><trkpt lat="44.5699667" lon="7.9174883"><ele>226.0</ele><time>2026-05-01T12:44:45.35Z</time></trkpt><trkpt lat="44.5698083" lon="7.9175067"><ele>226.0</ele><time>2026-05-01T12:44:46.35Z</time></trkpt><trkpt lat="44.5696533" lon="7.9175233"><ele>226.0</ele><time>2026-05-01T12:44:47.355Z</time></trkpt><trkpt lat="44.5695033" lon="7.9175283"><ele>226.0</ele><time>2026-05-01T12:44:48.349Z</time></trkpt><trkpt lat="44.5693633" lon="7.9175233"><ele>226.0</ele><time>2026-05-01T12:44:49.353Z</time></trkpt><trkpt lat="44.5692417" lon="7.917525"><ele>225.60000000000002</ele><time>2026-05-01T12:44:50.352Z</time></trkpt><trkpt lat="44.56913" lon="7.9175483"><ele>225.20000000000002</ele><time>2026-05-01T12:44:51.353Z</time></trkpt><trkpt lat="44.5690333" lon="7.917605"><ele>224.79999999999998</ele><time>2026-05-01T12:44:52.352Z</time></trkpt><trkpt lat="44.56894" lon="7.91768"><ele>224.39999999999998</ele><time>2026-05-01T12:44:53.35Z</time></trkpt><trkpt lat="44.5688417" lon="7.917765"><ele>224.0</ele><time>2026-05-01T12:44:54.352Z</time></trkpt><trkpt lat="44.5687417" lon="7.9178633"><ele>224.75</ele><time>2026-05-01T12:44:55.351Z</time></trkpt><trkpt lat="44.5686333" lon="7.91797"><ele>225.5</ele><time>2026-05-01T12:44:56.35Z</time></trkpt><trkpt lat="44.56852" lon="7.9180733"><ele>226.25</ele><time>2026-05-01T12:44:57.352Z</time></trkpt><trkpt lat="44.5684083" lon="7.9181717"><ele>227.0</ele><time>2026-05-01T12:44:58.353Z</time></trkpt><trkpt lat="44.568295" lon="7.9182717"><ele>227.0</ele><time>2026-05-01T12:44:59.351Z</time></trkpt><trkpt lat="44.56818" lon="7.9183667"><ele>227.0</ele><time>2026-05-01T12:45:00.351Z</time></trkpt><trkpt lat="44.5680633" lon="7.9184567"><ele>227.0</ele><time>2026-05-01T12:45:01.356Z</time></trkpt><trkpt lat="44.5679433" lon="7.91855"><ele>227.0</ele><time>2026-05-01T12:45:02.352Z</time></trkpt><trkpt lat="44.567825" lon="7.918645"><ele>227.5</ele><time>2026-05-01T12:45:03.35Z</time></trkpt><trkpt lat="44.567705" lon="7.9187367"><ele>228.0</ele><time>2026-05-01T12:45:04.353Z</time></trkpt><trkpt lat="44.5675833" lon="7.9188283"><ele>228.5</ele><time>2026-05-01T12:45:05.351Z</time></trkpt><trkpt lat="44.5674617" lon="7.9189233"><ele>229.0</ele><time>2026-05-01T12:45:06.35Z</time></trkpt><trkpt lat="44.5673383" lon="7.9190183"><ele>229.0</ele><time>2026-05-01T12:45:07.351Z</time></trkpt><trkpt lat="44.5672183" lon="7.9191117"><ele>229.0</ele><time>2026-05-01T12:45:08.357Z</time></trkpt><trkpt lat="44.5670983" lon="7.9192067"><ele>229.0</ele><time>2026-05-01T12:45:09.349Z</time></trkpt><trkpt lat="44.5669783" lon="7.9193"><ele>229.0</ele><time>2026-05-01T12:45:10.355Z</time></trkpt><trkpt lat="44.5668583" lon="7.919395"><ele>228.5</ele><time>2026-05-01T12:45:11.352Z</time></trkpt><trkpt lat="44.566735" lon="7.9194933"><ele>228.0</ele><time>2026-05-01T12:45:12.349Z</time></trkpt><trkpt lat="44.5666067" lon="7.9195867"><ele>227.5</ele><time>2026-05-01T12:45:13.352Z</time></trkpt><trkpt lat="44.5664817" lon="7.9196767"><ele>227.0</ele><time>2026-05-01T12:45:14.35Z</time></trkpt><trkpt lat="44.5663617" lon="7.9197683"><ele>227.0</ele><time>2026-05-01T12:45:15.355Z</time></trkpt><trkpt lat="44.5662433" lon="7.91986"><ele>227.0</ele><time>2026-05-01T12:45:16.354Z</time></trkpt><trkpt lat="44.5661233" lon="7.9199483"><ele>227.0</ele><time>2026-05-01T12:45:17.352Z</time></trkpt><trkpt lat="44.5660067" lon="7.9200333"><ele>227.0</ele><time>2026-05-01T12:45:18.353Z</time></trkpt><trkpt lat="44.5658883" lon="7.9201183"><ele>226.75</ele><time>2026-05-01T12:45:19.351Z</time></trkpt><trkpt lat="44.5657717" lon="7.9202"><ele>226.5</ele><time>2026-05-01T12:45:20.352Z</time></trkpt><trkpt lat="44.565655" lon="7.920285"><ele>226.25</ele><time>2026-05-01T12:45:21.352Z</time></trkpt><trkpt lat="44.565535" lon="7.9203767"><ele>226.0</ele><time>2026-05-01T12:45:22.35Z</time></trkpt><trkpt lat="44.5654117" lon="7.92047"><ele>226.66666666666666</ele><time>2026-05-01T12:45:23.351Z</time></trkpt><trkpt lat="44.56528" lon="7.9205683"><ele>227.33333333333331</ele><time>2026-05-01T12:45:24.349Z</time></trkpt><trkpt lat="44.5651483" lon="7.92067"><ele>228.0</ele><time>2026-05-01T12:45:25.351Z</time></trkpt><trkpt lat="44.56501" lon="7.9207783"><ele>228.0</ele><time>2026-05-01T12:45:26.363Z</time></trkpt><trkpt lat="44.5648667" lon="7.9208867"><ele>228.0</ele><time>2026-05-01T12:45:27.351Z</time></trkpt><trkpt lat="44.5647133" lon="7.9209983"><ele>228.0</ele><time>2026-05-01T12:45:28.35Z</time></trkpt><trkpt lat="44.5645533" lon="7.9211167"><ele>229.66666666666669</ele><time>2026-05-01T12:45:29.349Z</time></trkpt><trkpt lat="44.56439" lon="7.9212383"><ele>231.33333333333334</ele><time>2026-05-01T12:45:30.354Z</time></trkpt><trkpt lat="44.5642183" lon="7.9213667"><ele>233.0</ele><time>2026-05-01T12:45:31.352Z</time></trkpt><trkpt lat="44.5640383" lon="7.9214983"><ele>233.0</ele><time>2026-05-01T12:45:32.351Z</time></trkpt><trkpt lat="44.5638517" lon="7.9216267"><ele>233.0</ele><time>2026-05-01T12:45:33.354Z</time></trkpt><trkpt lat="44.5636617" lon="7.9217467"><ele>233.0</ele><time>2026-05-01T12:45:34.352Z</time></trkpt><trkpt lat="44.5634717" lon="7.92186"><ele>232.66666666666669</ele><time>2026-05-01T12:45:35.35Z</time></trkpt><trkpt lat="44.5632833" lon="7.921975"><ele>232.33333333333331</ele><time>2026-05-01T12:45:36.354Z</time></trkpt><trkpt lat="44.563095" lon="7.9220883"><ele>232.0</ele><time>2026-05-01T12:45:37.352Z</time></trkpt><trkpt lat="44.562905" lon="7.9221933"><ele>232.0</ele><time>2026-05-01T12:45:38.353Z</time></trkpt><trkpt lat="44.5627133" lon="7.9222833"><ele>232.0</ele><time>2026-05-01T12:45:39.352Z</time></trkpt><trkpt lat="44.5625167" lon="7.9223517"><ele>232.0</ele><time>2026-05-01T12:45:40.351Z</time></trkpt><trkpt lat="44.5623167" lon="7.92241"><ele>232.0</ele><time>2026-05-01T12:45:41.353Z</time></trkpt><trkpt lat="44.5621133" lon="7.92247"><ele>232.0</ele><time>2026-05-01T12:45:42.351Z</time></trkpt><trkpt lat="44.5619033" lon="7.9225383"><ele>232.0</ele><time>2026-05-01T12:45:43.358Z</time></trkpt><trkpt lat="44.5616883" lon="7.9226067"><ele>231.5</ele><time>2026-05-01T12:45:44.351Z</time></trkpt><trkpt lat="44.5614683" lon="7.92267"><ele>231.0</ele><time>2026-05-01T12:45:45.355Z</time></trkpt><trkpt lat="44.5612417" lon="7.9227267"><ele>230.5</ele><time>2026-05-01T12:45:46.355Z</time></trkpt><trkpt lat="44.561015" lon="7.9227717"><ele>230.0</ele><time>2026-05-01T12:45:47.358Z</time></trkpt><trkpt lat="44.5607883" lon="7.922805"><ele>230.0</ele><time>2026-05-01T12:45:48.353Z</time></trkpt><trkpt lat="44.5605567" lon="7.9228267"><ele>230.0</ele><time>2026-05-01T12:45:49.356Z</time></trkpt><trkpt lat="44.5603167" lon="7.9228433"><ele>229.5</ele><time>2026-05-01T12:45:50.355Z</time></trkpt><trkpt lat="44.5600717" lon="7.9228533"><ele>229.0</ele><time>2026-05-01T12:45:51.35Z</time></trkpt><trkpt lat="44.5598217" lon="7.9228517"><ele>229.0</ele><time>2026-05-01T12:45:52.352Z</time></trkpt><trkpt lat="44.5595683" lon="7.922835"><ele>229.0</ele><time>2026-05-01T12:45:53.352Z</time></trkpt><trkpt lat="44.55931" lon="7.9228117"><ele>229.0</ele><time>2026-05-01T12:45:54.349Z</time></trkpt><trkpt lat="44.5590483" lon="7.92278"><ele>229.0</ele><time>2026-05-01T12:45:55.35Z</time></trkpt><trkpt lat="44.5587867" lon="7.92274"><ele>230.5</ele><time>2026-05-01T12:45:56.351Z</time></trkpt><trkpt lat="44.5585167" lon="7.9227"><ele>232.0</ele><time>2026-05-01T12:45:57.351Z</time></trkpt><trkpt lat="44.5582483" lon="7.92266"><ele>232.0</ele><time>2026-05-01T12:45:58.348Z</time></trkpt><trkpt lat="44.5579767" lon="7.922615"><ele>232.0</ele><time>2026-05-01T12:45:59.355Z</time></trkpt><trkpt lat="44.5577017" lon="7.92257"><ele>233.5</ele><time>2026-05-01T12:46:00.348Z</time></trkpt><trkpt lat="44.5574283" lon="7.9225217"><ele>235.0</ele><time>2026-05-01T12:46:01.352Z</time></trkpt><trkpt lat="44.557155" lon="7.9224717"><ele>235.5</ele><time>2026-05-01T12:46:02.351Z</time></trkpt><trkpt lat="44.55688" lon="7.92242"><ele>236.0</ele><time>2026-05-01T12:46:03.352Z</time></trkpt><trkpt lat="44.5566067" lon="7.9223717"><ele>236.0</ele><time>2026-05-01T12:46:04.356Z</time></trkpt><trkpt lat="44.5563333" lon="7.9223233"><ele>236.0</ele><time>2026-05-01T12:46:05.353Z</time></trkpt><trkpt lat="44.5560583" lon="7.9222717"><ele>236.0</ele><time>2026-05-01T12:46:06.351Z</time></trkpt><trkpt lat="44.5557833" lon="7.9222217"><ele>236.0</ele><time>2026-05-01T12:46:07.353Z</time></trkpt><trkpt lat="44.55551" lon="7.922175"><ele>236.0</ele><time>2026-05-01T12:46:08.353Z</time></trkpt><trkpt lat="44.5552383" lon="7.9221267"><ele>236.0</ele><time>2026-05-01T12:46:09.35Z</time></trkpt><trkpt lat="44.5549633" lon="7.92208"><ele>236.0</ele><time>2026-05-01T12:46:10.353Z</time></trkpt><trkpt lat="44.5546883" lon="7.922035"><ele>236.0</ele><time>2026-05-01T12:46:11.351Z</time></trkpt><trkpt lat="44.5544133" lon="7.9219933"><ele>237.0</ele><time>2026-05-01T12:46:12.35Z</time></trkpt><trkpt lat="44.5541383" lon="7.9219517"><ele>238.0</ele><time>2026-05-01T12:46:13.351Z</time></trkpt><trkpt lat="44.5538617" lon="7.92191"><ele>238.5</ele><time>2026-05-01T12:46:14.351Z</time></trkpt><trkpt lat="44.5535883" lon="7.9218717"><ele>239.0</ele><time>2026-05-01T12:46:15.352Z</time></trkpt><trkpt lat="44.5533117" lon="7.9218367"><ele>239.0</ele><time>2026-05-01T12:46:16.356Z</time></trkpt><trkpt lat="44.5530367" lon="7.9218133"><ele>239.0</ele><time>2026-05-01T12:46:17.348Z</time></trkpt><trkpt lat="44.5527617" lon="7.9218083"><ele>240.5</ele><time>2026-05-01T12:46:18.353Z</time></trkpt><trkpt lat="44.552485" lon="7.9218167"><ele>242.0</ele><time>2026-05-01T12:46:19.353Z</time></trkpt><trkpt lat="44.55221" lon="7.9218367"><ele>242.5</ele><time>2026-05-01T12:46:20.351Z</time></trkpt><trkpt lat="44.551935" lon="7.92187"><ele>243.0</ele><time>2026-05-01T12:46:21.352Z</time></trkpt><trkpt lat="44.5516583" lon="7.9219033"><ele>243.0</ele><time>2026-05-01T12:46:22.352Z</time></trkpt><trkpt lat="44.5513833" lon="7.9219467"><ele>243.0</ele><time>2026-05-01T12:46:23.35Z</time></trkpt><trkpt lat="44.5511133" lon="7.922005"><ele>243.0</ele><time>2026-05-01T12:46:24.351Z</time></trkpt><trkpt lat="44.5508483" lon="7.922075"><ele>243.0</ele><time>2026-05-01T12:46:25.352Z</time></trkpt><trkpt lat="44.550585" lon="7.92216"><ele>243.0</ele><time>2026-05-01T12:46:26.352Z</time></trkpt><trkpt lat="44.5503283" lon="7.9222533"><ele>243.0</ele><time>2026-05-01T12:46:27.354Z</time></trkpt><trkpt lat="44.5500717" lon="7.9223617"><ele>243.0</ele><time>2026-05-01T12:46:28.356Z</time></trkpt><trkpt lat="44.54982" lon="7.922475"><ele>243.0</ele><time>2026-05-01T12:46:29.353Z</time></trkpt><trkpt lat="44.54957" lon="7.9225983"><ele>243.5</ele><time>2026-05-01T12:46:30.35Z</time></trkpt><trkpt lat="44.5493267" lon="7.9227283"><ele>244.0</ele><time>2026-05-01T12:46:31.349Z</time></trkpt><trkpt lat="44.5490867" lon="7.922875"><ele>244.0</ele><time>2026-05-01T12:46:32.354Z</time></trkpt><trkpt lat="44.5488633" lon="7.923025"><ele>244.0</ele><time>2026-05-01T12:46:33.353Z</time></trkpt><trkpt lat="44.5486517" lon="7.9231767"><ele>244.66666666666666</ele><time>2026-05-01T12:46:34.353Z</time></trkpt><trkpt lat="44.5484583" lon="7.923315"><ele>245.33333333333331</ele><time>2026-05-01T12:46:35.35Z</time></trkpt><trkpt lat="44.5482783" lon="7.9234417"><ele>246.0</ele><time>2026-05-01T12:46:36.35Z</time></trkpt><trkpt lat="44.5481067" lon="7.9235483"><ele>247.0</ele><time>2026-05-01T12:46:37.353Z</time></trkpt><trkpt lat="44.5479417" lon="7.9236517"><ele>248.0</ele><time>2026-05-01T12:46:38.352Z</time></trkpt><trkpt lat="44.54779" lon="7.9237733"><ele>249.0</ele><time>2026-05-01T12:46:39.354Z</time></trkpt><trkpt lat="44.5476367" lon="7.9239233"><ele>249.33333333333331</ele><time>2026-05-01T12:46:40.351Z</time></trkpt><trkpt lat="44.5474733" lon="7.92407"><ele>249.66666666666666</ele><time>2026-05-01T12:46:41.349Z</time></trkpt><trkpt lat="44.547295" lon="7.924215"><ele>250.0</ele><time>2026-05-01T12:46:42.35Z</time></trkpt><trkpt lat="44.54711" lon="7.9243667"><ele>252.5</ele><time>2026-05-01T12:46:43.356Z</time></trkpt><trkpt lat="44.5469183" lon="7.924525"><ele>255.0</ele><time>2026-05-01T12:46:44.351Z</time></trkpt><trkpt lat="44.5467117" lon="7.924695"><ele>255.0</ele><time>2026-05-01T12:46:45.354Z</time></trkpt><trkpt lat="44.546495" lon="7.9248733"><ele>255.0</ele><time>2026-05-01T12:46:46.354Z</time></trkpt><trkpt lat="44.5462633" lon="7.9250617"><ele>261.5</ele><time>2026-05-01T12:46:47.352Z</time></trkpt><trkpt lat="44.54602" lon="7.9252533"><ele>268.0</ele><time>2026-05-01T12:46:48.351Z</time></trkpt><trkpt lat="44.5457667" lon="7.9254433"><ele>268.0</ele><time>2026-05-01T12:46:49.36Z</time></trkpt><trkpt lat="44.5455117" lon="7.9256267"><ele>268.0</ele><time>2026-05-01T12:46:50.361Z</time></trkpt><trkpt lat="44.5452633" lon="7.9258117"><ele>268.0</ele><time>2026-05-01T12:46:51.353Z</time></trkpt><trkpt lat="44.54502" lon="7.9260033"><ele>268.0</ele><time>2026-05-01T12:46:52.351Z</time></trkpt><trkpt lat="44.5447783" lon="7.9261933"><ele>266.5</ele><time>2026-05-01T12:46:53.355Z</time></trkpt><trkpt lat="44.54454" lon="7.926385"><ele>265.0</ele><time>2026-05-01T12:46:54.354Z</time></trkpt><trkpt lat="44.5443067" lon="7.9265733"><ele>268.5</ele><time>2026-05-01T12:46:55.351Z</time></trkpt><trkpt lat="44.54408" lon="7.9267567"><ele>272.0</ele><time>2026-05-01T12:46:56.352Z</time></trkpt><trkpt lat="44.543855" lon="7.9269367"><ele>268.5</ele><time>2026-05-01T12:46:57.35Z</time></trkpt><trkpt lat="44.5436333" lon="7.9271167"><ele>265.0</ele><time>2026-05-01T12:46:58.354Z</time></trkpt><trkpt lat="44.5434117" lon="7.9272917"><ele>265.0</ele><time>2026-05-01T12:46:59.353Z</time></trkpt><trkpt lat="44.5431933" lon="7.92746"><ele>265.0</ele><time>2026-05-01T12:47:00.352Z</time></trkpt><trkpt lat="44.5429917" lon="7.9276217"><ele>263.66666666666663</ele><time>2026-05-01T12:47:01.353Z</time></trkpt><trkpt lat="44.5428083" lon="7.9277717"><ele>262.3333333333333</ele><time>2026-05-01T12:47:02.356Z</time></trkpt><trkpt lat="44.542645" lon="7.9279033"><ele>261.0</ele><time>2026-05-01T12:47:03.354Z</time></trkpt><trkpt lat="44.5424917" lon="7.928025"><ele>261.0</ele><time>2026-05-01T12:47:04.352Z</time></trkpt><trkpt lat="44.5423417" lon="7.9281433"><ele>261.0</ele><time>2026-05-01T12:47:05.352Z</time></trkpt><trkpt lat="44.5421983" lon="7.9282567"><ele>261.0</ele><time>2026-05-01T12:47:06.351Z</time></trkpt><trkpt lat="44.5420533" lon="7.9283783"><ele>262.0</ele><time>2026-05-01T12:47:07.354Z</time></trkpt><trkpt lat="44.541915" lon="7.9285"><ele>263.0</ele><time>2026-05-01T12:47:08.355Z</time></trkpt><trkpt lat="44.5417767" lon="7.9286233"><ele>264.0</ele><time>2026-05-01T12:47:09.353Z</time></trkpt><trkpt lat="44.54164" lon="7.9287583"><ele>264.0</ele><time>2026-05-01T12:47:10.349Z</time></trkpt><trkpt lat="44.541505" lon="7.9289"><ele>264.0</ele><time>2026-05-01T12:47:11.351Z</time></trkpt><trkpt lat="44.5413733" lon="7.929045"><ele>264.0</ele><time>2026-05-01T12:47:12.349Z</time></trkpt><trkpt lat="44.54124" lon="7.9291917"><ele>263.6666666666667</ele><time>2026-05-01T12:47:13.355Z</time></trkpt><trkpt lat="44.5411083" lon="7.9293417"><ele>263.33333333333337</ele><time>2026-05-01T12:47:14.356Z</time></trkpt><trkpt lat="44.5409783" lon="7.92949"><ele>263.0</ele><time>2026-05-01T12:47:15.35Z</time></trkpt><trkpt lat="44.5408483" lon="7.9296417"><ele>263.0</ele><time>2026-05-01T12:47:16.352Z</time></trkpt><trkpt lat="44.540715" lon="7.929795"><ele>263.0</ele><time>2026-05-01T12:47:17.351Z</time></trkpt><trkpt lat="44.5405833" lon="7.9299467"><ele>263.0</ele><time>2026-05-01T12:47:18.351Z</time></trkpt><trkpt lat="44.540445" lon="7.930105"><ele>263.6666666666667</ele><time>2026-05-01T12:47:19.35Z</time></trkpt><trkpt lat="44.5403033" lon="7.9302683"><ele>264.3333333333333</ele><time>2026-05-01T12:47:20.354Z</time></trkpt><trkpt lat="44.5401617" lon="7.9304333"><ele>265.0</ele><time>2026-05-01T12:47:21.352Z</time></trkpt><trkpt lat="44.54002" lon="7.930595"><ele>265.0</ele><time>2026-05-01T12:47:22.349Z</time></trkpt><trkpt lat="44.53988" lon="7.9307533"><ele>265.0</ele><time>2026-05-01T12:47:23.349Z</time></trkpt><trkpt lat="44.539745" lon="7.930905"><ele>265.0</ele><time>2026-05-01T12:47:24.351Z</time></trkpt><trkpt lat="44.5396167" lon="7.9310567"><ele>265.5</ele><time>2026-05-01T12:47:25.351Z</time></trkpt><trkpt lat="44.539495" lon="7.93119"><ele>266.0</ele><time>2026-05-01T12:47:26.352Z</time></trkpt><trkpt lat="44.5393833" lon="7.9313183"><ele>266.5</ele><time>2026-05-01T12:47:27.349Z</time></trkpt><trkpt lat="44.539275" lon="7.9314433"><ele>267.0</ele><time>2026-05-01T12:47:28.351Z</time></trkpt><trkpt lat="44.53917" lon="7.931565"><ele>267.0</ele><time>2026-05-01T12:47:29.351Z</time></trkpt><trkpt lat="44.539065" lon="7.9316883"><ele>267.0</ele><time>2026-05-01T12:47:30.349Z</time></trkpt><trkpt lat="44.53896" lon="7.9318133"><ele>267.0</ele><time>2026-05-01T12:47:31.353Z</time></trkpt><trkpt lat="44.5388467" lon="7.9319383"><ele>267.0</ele><time>2026-05-01T12:47:32.35Z</time></trkpt><trkpt lat="44.5387333" lon="7.9320683"><ele>266.75</ele><time>2026-05-01T12:47:33.352Z</time></trkpt><trkpt lat="44.53862" lon="7.9322033"><ele>266.5</ele><time>2026-05-01T12:47:34.351Z</time></trkpt><trkpt lat="44.5385067" lon="7.9323317"><ele>266.25</ele><time>2026-05-01T12:47:35.352Z</time></trkpt><trkpt lat="44.538395" lon="7.9324617"><ele>266.0</ele><time>2026-05-01T12:47:36.351Z</time></trkpt><trkpt lat="44.5382817" lon="7.932595"><ele>266.5</ele><time>2026-05-01T12:47:37.353Z</time></trkpt><trkpt lat="44.5381667" lon="7.9327267"><ele>267.0</ele><time>2026-05-01T12:47:38.352Z</time></trkpt><trkpt lat="44.5380533" lon="7.9328583"><ele>267.5</ele><time>2026-05-01T12:47:39.352Z</time></trkpt><trkpt lat="44.53794" lon="7.93299"><ele>268.0</ele><time>2026-05-01T12:47:40.352Z</time></trkpt><trkpt lat="44.53783" lon="7.93312"><ele>268.0</ele><time>2026-05-01T12:47:41.353Z</time></trkpt><trkpt lat="44.5377217" lon="7.9332517"><ele>268.0</ele><time>2026-05-01T12:47:42.353Z</time></trkpt><trkpt lat="44.5376167" lon="7.9333833"><ele>268.0</ele><time>2026-05-01T12:47:43.353Z</time></trkpt><trkpt lat="44.5375067" lon="7.9335117"><ele>268.0</ele><time>2026-05-01T12:47:44.352Z</time></trkpt><trkpt lat="44.5374017" lon="7.9336467"><ele>268.75</ele><time>2026-05-01T12:47:45.349Z</time></trkpt><trkpt lat="44.5372983" lon="7.9337867"><ele>269.5</ele><time>2026-05-01T12:47:46.348Z</time></trkpt><trkpt lat="44.5371967" lon="7.9339333"><ele>270.25</ele><time>2026-05-01T12:47:47.349Z</time></trkpt><trkpt lat="44.537095" lon="7.9340783"><ele>271.0</ele><time>2026-05-01T12:47:48.354Z</time></trkpt><trkpt lat="44.536995" lon="7.9342267"><ele>271.25</ele><time>2026-05-01T12:47:49.351Z</time></trkpt><trkpt lat="44.5368917" lon="7.9343733"><ele>271.5</ele><time>2026-05-01T12:47:50.348Z</time></trkpt><trkpt lat="44.5367917" lon="7.93452"><ele>271.75</ele><time>2026-05-01T12:47:51.349Z</time></trkpt><trkpt lat="44.5366933" lon="7.9346617"><ele>272.0</ele><time>2026-05-01T12:47:52.354Z</time></trkpt><trkpt lat="44.5366017" lon="7.9347933"><ele>272.0</ele><time>2026-05-01T12:47:53.351Z</time></trkpt><trkpt lat="44.536515" lon="7.9349083"><ele>272.0</ele><time>2026-05-01T12:47:54.349Z</time></trkpt><trkpt lat="44.5364333" lon="7.9349933"><ele>272.0</ele><time>2026-05-01T12:47:55.349Z</time></trkpt><trkpt lat="44.5363483" lon="7.9350667"><ele>272.0</ele><time>2026-05-01T12:47:56.353Z</time></trkpt><trkpt lat="44.5362683" lon="7.9351483"><ele>272.0</ele><time>2026-05-01T12:47:57.351Z</time></trkpt><trkpt lat="44.5362017" lon="7.935265"><ele>272.0</ele><time>2026-05-01T12:47:58.351Z</time></trkpt><trkpt lat="44.5361433" lon="7.9354017"><ele>272.0</ele><time>2026-05-01T12:47:59.35Z</time></trkpt><trkpt lat="44.5360817" lon="7.9355483"><ele>272.0</ele><time>2026-05-01T12:48:00.349Z</time></trkpt><trkpt lat="44.5359967" lon="7.9356883"><ele>272.0</ele><time>2026-05-01T12:48:01.352Z</time></trkpt><trkpt lat="44.53591" lon="7.93583"><ele>272.5</ele><time>2026-05-01T12:48:02.353Z</time></trkpt><trkpt lat="44.535825" lon="7.9359667"><ele>273.0</ele><time>2026-05-01T12:48:03.35Z</time></trkpt><trkpt lat="44.53574" lon="7.9361083"><ele>273.5</ele><time>2026-05-01T12:48:04.352Z</time></trkpt><trkpt lat="44.53565" lon="7.93625"><ele>274.0</ele><time>2026-05-01T12:48:05.353Z</time></trkpt><trkpt lat="44.5355567" lon="7.9363933"><ele>274.0</ele><time>2026-05-01T12:48:06.35Z</time></trkpt><trkpt lat="44.5354633" lon="7.9365417"><ele>274.0</ele><time>2026-05-01T12:48:07.353Z</time></trkpt><trkpt lat="44.5353667" lon="7.9366933"><ele>274.0</ele><time>2026-05-01T12:48:08.349Z</time></trkpt><trkpt lat="44.535265" lon="7.9368467"><ele>274.0</ele><time>2026-05-01T12:48:09.353Z</time></trkpt><trkpt lat="44.535165" lon="7.9369967"><ele>274.5</ele><time>2026-05-01T12:48:10.35Z</time></trkpt><trkpt lat="44.535065" lon="7.9371467"><ele>275.0</ele><time>2026-05-01T12:48:11.352Z</time></trkpt><trkpt lat="44.534965" lon="7.9373"><ele>275.5</ele><time>2026-05-01T12:48:12.353Z</time></trkpt><trkpt lat="44.5348667" lon="7.93745"><ele>276.0</ele><time>2026-05-01T12:48:13.353Z</time></trkpt><trkpt lat="44.5347683" lon="7.9375983"><ele>276.0</ele><time>2026-05-01T12:48:14.349Z</time></trkpt><trkpt lat="44.5346683" lon="7.937745"><ele>276.0</ele><time>2026-05-01T12:48:15.352Z</time></trkpt><trkpt lat="44.5345667" lon="7.9378933"><ele>276.0</ele><time>2026-05-01T12:48:16.351Z</time></trkpt><trkpt lat="44.5344633" lon="7.93804"><ele>276.0</ele><time>2026-05-01T12:48:17.357Z</time></trkpt><trkpt lat="44.5343667" lon="7.9381833"><ele>276.0</ele><time>2026-05-01T12:48:18.349Z</time></trkpt><trkpt lat="44.5342683" lon="7.938325"><ele>276.0</ele><time>2026-05-01T12:48:19.35Z</time></trkpt><trkpt lat="44.5341717" lon="7.93847"><ele>276.0</ele><time>2026-05-01T12:48:20.35Z</time></trkpt><trkpt lat="44.5340783" lon="7.9386133"><ele>276.0</ele><time>2026-05-01T12:48:21.349Z</time></trkpt><trkpt lat="44.53399" lon="7.9387567"><ele>276.5</ele><time>2026-05-01T12:48:22.35Z</time></trkpt><trkpt lat="44.5339" lon="7.9388933"><ele>277.0</ele><time>2026-05-01T12:48:23.355Z</time></trkpt><trkpt lat="44.53381" lon="7.93903"><ele>277.5</ele><time>2026-05-01T12:48:24.352Z</time></trkpt><trkpt lat="44.5337183" lon="7.9391683"><ele>278.0</ele><time>2026-05-01T12:48:25.355Z</time></trkpt><trkpt lat="44.5336267" lon="7.939315"><ele>278.75</ele><time>2026-05-01T12:48:26.355Z</time></trkpt><trkpt lat="44.53353" lon="7.9394567"><ele>279.5</ele><time>2026-05-01T12:48:27.352Z</time></trkpt><trkpt lat="44.5334333" lon="7.939605"><ele>280.25</ele><time>2026-05-01T12:48:28.35Z</time></trkpt><trkpt lat="44.53333" lon="7.939755"><ele>281.0</ele><time>2026-05-01T12:48:29.351Z</time></trkpt><trkpt lat="44.533225" lon="7.9399033"><ele>282.6666666666667</ele><time>2026-05-01T12:48:30.351Z</time></trkpt><trkpt lat="44.5331217" lon="7.9400583"><ele>284.3333333333333</ele><time>2026-05-01T12:48:31.35Z</time></trkpt><trkpt lat="44.5330183" lon="7.9402167"><ele>286.0</ele><time>2026-05-01T12:48:32.355Z</time></trkpt><trkpt lat="44.53292" lon="7.94038"><ele>284.66666666666663</ele><time>2026-05-01T12:48:33.353Z</time></trkpt><trkpt lat="44.5328283" lon="7.9405483"><ele>283.3333333333333</ele><time>2026-05-01T12:48:34.355Z</time></trkpt><trkpt lat="44.532745" lon="7.9407233"><ele>282.0</ele><time>2026-05-01T12:48:35.349Z</time></trkpt><trkpt lat="44.5326733" lon="7.9409083"><ele>282.0</ele><time>2026-05-01T12:48:36.353Z</time></trkpt><trkpt lat="44.5326133" lon="7.9411117"><ele>282.0</ele><time>2026-05-01T12:48:37.352Z</time></trkpt><trkpt lat="44.5325683" lon="7.941325"><ele>282.0</ele><time>2026-05-01T12:48:38.351Z</time></trkpt><trkpt lat="44.5325367" lon="7.9415367"><ele>282.3333333333333</ele><time>2026-05-01T12:48:39.351Z</time></trkpt><trkpt lat="44.53252" lon="7.941755"><ele>282.66666666666663</ele><time>2026-05-01T12:48:40.351Z</time></trkpt><trkpt lat="44.5325117" lon="7.9419733"><ele>283.0</ele><time>2026-05-01T12:48:41.353Z</time></trkpt><trkpt lat="44.532505" lon="7.94219"><ele>283.0</ele><time>2026-05-01T12:48:42.353Z</time></trkpt><trkpt lat="44.5325" lon="7.9424083"><ele>283.0</ele><time>2026-05-01T12:48:43.353Z</time></trkpt><trkpt lat="44.5325" lon="7.94263"><ele>283.0</ele><time>2026-05-01T12:48:44.35Z</time></trkpt><trkpt lat="44.5325" lon="7.9428533"><ele>283.3333333333333</ele><time>2026-05-01T12:48:45.352Z</time></trkpt><trkpt lat="44.5325033" lon="7.9430817"><ele>283.6666666666667</ele><time>2026-05-01T12:48:46.352Z</time></trkpt><trkpt lat="44.5325" lon="7.94331"><ele>284.0</ele><time>2026-05-01T12:48:47.35Z</time></trkpt><trkpt lat="44.5324917" lon="7.943545"><ele>284.0</ele><time>2026-05-01T12:48:48.352Z</time></trkpt><trkpt lat="44.53248" lon="7.9437817"><ele>284.0</ele><time>2026-05-01T12:48:49.35Z</time></trkpt><trkpt lat="44.5324733" lon="7.94402"><ele>284.0</ele><time>2026-05-01T12:48:50.349Z</time></trkpt><trkpt lat="44.5324667" lon="7.9442533"><ele>284.33333333333337</ele><time>2026-05-01T12:48:51.357Z</time></trkpt><trkpt lat="44.53246" lon="7.9444767"><ele>284.6666666666667</ele><time>2026-05-01T12:48:52.35Z</time></trkpt><trkpt lat="44.532455" lon="7.9446883"><ele>285.0</ele><time>2026-05-01T12:48:53.353Z</time></trkpt><trkpt lat="44.53245" lon="7.94489"><ele>285.4</ele><time>2026-05-01T12:48:54.353Z</time></trkpt><trkpt lat="44.5324433" lon="7.9450783"><ele>285.8</ele><time>2026-05-01T12:48:55.35Z</time></trkpt><trkpt lat="44.53243" lon="7.9452483"><ele>286.2</ele><time>2026-05-01T12:48:56.352Z</time></trkpt><trkpt lat="44.53241" lon="7.9453883"><ele>286.6</ele><time>2026-05-01T12:48:57.35Z</time></trkpt><trkpt lat="44.532375" lon="7.9454917"><ele>287.0</ele><time>2026-05-01T12:48:58.352Z</time></trkpt><trkpt lat="44.532325" lon="7.9455717"><ele>287.0</ele><time>2026-05-01T12:48:59.351Z</time></trkpt><trkpt lat="44.5322583" lon="7.945625"><ele>287.0</ele><time>2026-05-01T12:49:00.353Z</time></trkpt><trkpt lat="44.5321733" lon="7.94565"><ele>287.0</ele><time>2026-05-01T12:49:01.351Z</time></trkpt><trkpt lat="44.5320617" lon="7.9456183"><ele>287.0</ele><time>2026-05-01T12:49:02.35Z</time></trkpt><trkpt lat="44.5319467" lon="7.9455783"><ele>287.0</ele><time>2026-05-01T12:49:03.35Z</time></trkpt><trkpt lat="44.531835" lon="7.94554"><ele>286.4</ele><time>2026-05-01T12:49:04.352Z</time></trkpt><trkpt lat="44.531725" lon="7.94551"><ele>285.79999999999995</ele><time>2026-05-01T12:49:05.349Z</time></trkpt><trkpt lat="44.531615" lon="7.94548"><ele>285.2</ele><time>2026-05-01T12:49:06.349Z</time></trkpt><trkpt lat="44.5315083" lon="7.9454433"><ele>284.59999999999997</ele><time>2026-05-01T12:49:07.349Z</time></trkpt><trkpt lat="44.5314" lon="7.9454117"><ele>284.0</ele><time>2026-05-01T12:49:08.352Z</time></trkpt><trkpt lat="44.5313" lon="7.9453833"><ele>284.33333333333337</ele><time>2026-05-01T12:49:09.355Z</time></trkpt><trkpt lat="44.53121" lon="7.9453617"><ele>284.6666666666667</ele><time>2026-05-01T12:49:10.348Z</time></trkpt><trkpt lat="44.53114" lon="7.9453533"><ele>285.0</ele><time>2026-05-01T12:49:11.35Z</time></trkpt><trkpt lat="44.5310667" lon="7.9454"><ele>285.3333333333333</ele><time>2026-05-01T12:49:13.349Z</time></trkpt><trkpt lat="44.531065" lon="7.9455233"><ele>285.66666666666663</ele><time>2026-05-01T12:49:15.355Z</time></trkpt><trkpt lat="44.5310733" lon="7.94567"><ele>286.0</ele><time>2026-05-01T12:49:17.351Z</time></trkpt><trkpt lat="44.531065" lon="7.94582"><ele>286.2</ele><time>2026-05-01T12:49:19.354Z</time></trkpt><trkpt lat="44.5310517" lon="7.9460033"><ele>286.40000000000003</ele><time>2026-05-01T12:49:21.354Z</time></trkpt><trkpt lat="44.53104" lon="7.9461183"><ele>286.6</ele><time>2026-05-01T12:49:22.353Z</time></trkpt><trkpt lat="44.5310267" lon="7.9462567"><ele>286.8</ele><time>2026-05-01T12:49:23.352Z</time></trkpt><trkpt lat="44.53101" lon="7.9464117"><ele>287.0</ele><time>2026-05-01T12:49:24.351Z</time></trkpt><trkpt lat="44.53099" lon="7.9465767"><ele>286.75</ele><time>2026-05-01T12:49:25.35Z</time></trkpt><trkpt lat="44.53097" lon="7.946745"><ele>286.5</ele><time>2026-05-01T12:49:26.349Z</time></trkpt><trkpt lat="44.5309517" lon="7.94692"><ele>286.25</ele><time>2026-05-01T12:49:27.349Z</time></trkpt><trkpt lat="44.5309317" lon="7.9471"><ele>286.0</ele><time>2026-05-01T12:49:28.35Z</time></trkpt><trkpt lat="44.5309133" lon="7.947285"><ele>286.0</ele><time>2026-05-01T12:49:29.351Z</time></trkpt><trkpt lat="44.530895" lon="7.9474717"><ele>286.0</ele><time>2026-05-01T12:49:30.35Z</time></trkpt><trkpt lat="44.5308733" lon="7.9476583"><ele>286.0</ele><time>2026-05-01T12:49:31.352Z</time></trkpt><trkpt lat="44.5308533" lon="7.9478467"><ele>286.0</ele><time>2026-05-01T12:49:32.351Z</time></trkpt><trkpt lat="44.530835" lon="7.948035"><ele>286.75</ele><time>2026-05-01T12:49:33.35Z</time></trkpt><trkpt lat="44.53082" lon="7.9482233"><ele>287.5</ele><time>2026-05-01T12:49:34.348Z</time></trkpt><trkpt lat="44.5308" lon="7.9484083"><ele>288.25</ele><time>2026-05-01T12:49:35.351Z</time></trkpt><trkpt lat="44.5307817" lon="7.9485883"><ele>289.0</ele><time>2026-05-01T12:49:36.35Z</time></trkpt><trkpt lat="44.5307617" lon="7.9487567"><ele>289.0</ele><time>2026-05-01T12:49:37.349Z</time></trkpt><trkpt lat="44.53074" lon="7.9489133"><ele>289.0</ele><time>2026-05-01T12:49:38.35Z</time></trkpt><trkpt lat="44.5307217" lon="7.9490567"><ele>289.0</ele><time>2026-05-01T12:49:39.349Z</time></trkpt><trkpt lat="44.53071" lon="7.9491817"><ele>289.0</ele><time>2026-05-01T12:49:40.355Z</time></trkpt><trkpt lat="44.5307067" lon="7.949295"><ele>289.0</ele><time>2026-05-01T12:49:41.349Z</time></trkpt><trkpt lat="44.5307583" lon="7.94943"><ele>288.8</ele><time>2026-05-01T12:49:43.353Z</time></trkpt><trkpt lat="44.5308833" lon="7.949455"><ele>288.59999999999997</ele><time>2026-05-01T12:49:45.35Z</time></trkpt><trkpt lat="44.530965" lon="7.9494533"><ele>288.4</ele><time>2026-05-01T12:49:46.353Z</time></trkpt><trkpt lat="44.53105" lon="7.9494567"><ele>288.2</ele><time>2026-05-01T12:49:47.348Z</time></trkpt><trkpt lat="44.5311417" lon="7.949455"><ele>288.0</ele><time>2026-05-01T12:49:48.353Z</time></trkpt><trkpt lat="44.53124" lon="7.949465"><ele>288.6</ele><time>2026-05-01T12:49:49.351Z</time></trkpt><trkpt lat="44.5313433" lon="7.9494783"><ele>289.20000000000005</ele><time>2026-05-01T12:49:50.35Z</time></trkpt><trkpt lat="44.5314517" lon="7.949495"><ele>289.8</ele><time>2026-05-01T12:49:51.351Z</time></trkpt><trkpt lat="44.5315633" lon="7.9495167"><ele>290.40000000000003</ele><time>2026-05-01T12:49:52.353Z</time></trkpt><trkpt lat="44.5316767" lon="7.94955"><ele>291.0</ele><time>2026-05-01T12:49:53.356Z</time></trkpt><trkpt lat="44.5317833" lon="7.9496"><ele>291.0</ele><time>2026-05-01T12:49:54.351Z</time></trkpt><trkpt lat="44.531875" lon="7.9496783"><ele>291.0</ele><time>2026-05-01T12:49:55.361Z</time></trkpt><trkpt lat="44.5319533" lon="7.9497783"><ele>291.0</ele><time>2026-05-01T12:49:56.349Z</time></trkpt><trkpt lat="44.5320117" lon="7.9498933"><ele>291.0</ele><time>2026-05-01T12:49:57.352Z</time></trkpt><trkpt lat="44.53205" lon="7.950025"><ele>291.0</ele><time>2026-05-01T12:49:58.349Z</time></trkpt><trkpt lat="44.5320633" lon="7.9501767"><ele>292.0</ele><time>2026-05-01T12:49:59.351Z</time></trkpt><trkpt lat="44.5320683" lon="7.950345"><ele>293.0</ele><time>2026-05-01T12:50:00.351Z</time></trkpt><trkpt lat="44.53207" lon="7.9505233"><ele>294.0</ele><time>2026-05-01T12:50:01.355Z</time></trkpt><trkpt lat="44.5320733" lon="7.950715"><ele>295.0</ele><time>2026-05-01T12:50:02.35Z</time></trkpt><trkpt lat="44.5320817" lon="7.950915"><ele>295.0</ele><time>2026-05-01T12:50:03.352Z</time></trkpt><trkpt lat="44.532095" lon="7.9511167"><ele>295.0</ele><time>2026-05-01T12:50:04.35Z</time></trkpt><trkpt lat="44.5321267" lon="7.9513167"><ele>295.0</ele><time>2026-05-01T12:50:05.348Z</time></trkpt><trkpt lat="44.5321633" lon="7.9515167"><ele>295.0</ele><time>2026-05-01T12:50:06.352Z</time></trkpt><trkpt lat="44.5322067" lon="7.9517183"><ele>295.0</ele><time>2026-05-01T12:50:07.353Z</time></trkpt><trkpt lat="44.5322517" lon="7.95192"><ele>295.0</ele><time>2026-05-01T12:50:08.351Z</time></trkpt><trkpt lat="44.5322967" lon="7.95212"><ele>295.0</ele><time>2026-05-01T12:50:09.353Z</time></trkpt><trkpt lat="44.5323467" lon="7.9523167"><ele>295.0</ele><time>2026-05-01T12:50:10.35Z</time></trkpt><trkpt lat="44.532395" lon="7.9525117"><ele>295.5</ele><time>2026-05-01T12:50:11.348Z</time></trkpt><trkpt lat="44.532445" lon="7.952705"><ele>296.0</ele><time>2026-05-01T12:50:12.351Z</time></trkpt><trkpt lat="44.5324933" lon="7.952895"><ele>296.5</ele><time>2026-05-01T12:50:13.352Z</time></trkpt><trkpt lat="44.5325417" lon="7.9530833"><ele>297.0</ele><time>2026-05-01T12:50:14.353Z</time></trkpt><trkpt lat="44.5325867" lon="7.9532733"><ele>296.5</ele><time>2026-05-01T12:50:15.353Z</time></trkpt><trkpt lat="44.5326333" lon="7.9534633"><ele>296.0</ele><time>2026-05-01T12:50:16.35Z</time></trkpt><trkpt lat="44.532675" lon="7.9536467"><ele>295.5</ele><time>2026-05-01T12:50:17.349Z</time></trkpt><trkpt lat="44.5327183" lon="7.95382"><ele>295.0</ele><time>2026-05-01T12:50:18.351Z</time></trkpt><trkpt lat="44.5327567" lon="7.9539867"><ele>295.0</ele><time>2026-05-01T12:50:19.349Z</time></trkpt><trkpt lat="44.532795" lon="7.9541417"><ele>295.0</ele><time>2026-05-01T12:50:20.352Z</time></trkpt><trkpt lat="44.5328317" lon="7.9542917"><ele>295.0</ele><time>2026-05-01T12:50:21.351Z</time></trkpt><trkpt lat="44.5328717" lon="7.954435"><ele>295.0</ele><time>2026-05-01T12:50:22.351Z</time></trkpt><trkpt lat="44.5329033" lon="7.9545783"><ele>295.0</ele><time>2026-05-01T12:50:23.349Z</time></trkpt><trkpt lat="44.5329367" lon="7.95473"><ele>296.25</ele><time>2026-05-01T12:50:24.348Z</time></trkpt><trkpt lat="44.5329717" lon="7.954885"><ele>297.5</ele><time>2026-05-01T12:50:25.35Z</time></trkpt><trkpt lat="44.5330083" lon="7.955045"><ele>298.75</ele><time>2026-05-01T12:50:26.349Z</time></trkpt><trkpt lat="44.5330467" lon="7.95521"><ele>300.0</ele><time>2026-05-01T12:50:27.354Z</time></trkpt><trkpt lat="44.5330867" lon="7.95538"><ele>300.5</ele><time>2026-05-01T12:50:28.349Z</time></trkpt><trkpt lat="44.5331267" lon="7.95555"><ele>301.0</ele><time>2026-05-01T12:50:29.353Z</time></trkpt><trkpt lat="44.5331717" lon="7.9557283"><ele>301.5</ele><time>2026-05-01T12:50:30.348Z</time></trkpt><trkpt lat="44.5332117" lon="7.955905"><ele>302.0</ele><time>2026-05-01T12:50:31.352Z</time></trkpt><trkpt lat="44.5332533" lon="7.956085"><ele>302.25</ele><time>2026-05-01T12:50:32.353Z</time></trkpt><trkpt lat="44.5333" lon="7.9562633"><ele>302.5</ele><time>2026-05-01T12:50:33.353Z</time></trkpt><trkpt lat="44.53334" lon="7.9564467"><ele>302.75</ele><time>2026-05-01T12:50:34.352Z</time></trkpt><trkpt lat="44.53338" lon="7.9566267"><ele>303.0</ele><time>2026-05-01T12:50:35.35Z</time></trkpt><trkpt lat="44.533415" lon="7.9568"><ele>302.6</ele><time>2026-05-01T12:50:36.355Z</time></trkpt><trkpt lat="44.5334383" lon="7.9569517"><ele>302.20000000000005</ele><time>2026-05-01T12:50:37.351Z</time></trkpt><trkpt lat="44.53346" lon="7.9570817"><ele>301.8</ele><time>2026-05-01T12:50:38.351Z</time></trkpt><trkpt lat="44.5334833" lon="7.9572117"><ele>301.40000000000003</ele><time>2026-05-01T12:50:39.354Z</time></trkpt><trkpt lat="44.5335033" lon="7.957355"><ele>301.0</ele><time>2026-05-01T12:50:40.354Z</time></trkpt><trkpt lat="44.533525" lon="7.9575067"><ele>300.25</ele><time>2026-05-01T12:50:41.352Z</time></trkpt><trkpt lat="44.533545" lon="7.957675"><ele>299.5</ele><time>2026-05-01T12:50:42.353Z</time></trkpt><trkpt lat="44.533565" lon="7.95786"><ele>298.75</ele><time>2026-05-01T12:50:43.349Z</time></trkpt><trkpt lat="44.533585" lon="7.9580467"><ele>298.0</ele><time>2026-05-01T12:50:44.351Z</time></trkpt><trkpt lat="44.533605" lon="7.95824"><ele>298.0</ele><time>2026-05-01T12:50:45.35Z</time></trkpt><trkpt lat="44.5336217" lon="7.9584367"><ele>298.0</ele><time>2026-05-01T12:50:46.35Z</time></trkpt><trkpt lat="44.533635" lon="7.9586433"><ele>298.0</ele><time>2026-05-01T12:50:47.352Z</time></trkpt><trkpt lat="44.533645" lon="7.9588567"><ele>298.0</ele><time>2026-05-01T12:50:48.354Z</time></trkpt><trkpt lat="44.53365" lon="7.9590733"><ele>298.0</ele><time>2026-05-01T12:50:49.355Z</time></trkpt><trkpt lat="44.5336567" lon="7.9592883"><ele>298.0</ele><time>2026-05-01T12:50:50.352Z</time></trkpt><trkpt lat="44.53366" lon="7.959505"><ele>298.0</ele><time>2026-05-01T12:50:51.352Z</time></trkpt><trkpt lat="44.5336633" lon="7.959715"><ele>298.0</ele><time>2026-05-01T12:50:52.35Z</time></trkpt><trkpt lat="44.5336583" lon="7.9599167"><ele>298.0</ele><time>2026-05-01T12:50:53.353Z</time></trkpt><trkpt lat="44.5336483" lon="7.960115"><ele>298.0</ele><time>2026-05-01T12:50:54.36Z</time></trkpt><trkpt lat="44.53364" lon="7.9603133"><ele>298.0</ele><time>2026-05-01T12:50:55.352Z</time></trkpt><trkpt lat="44.5336283" lon="7.9605017"><ele>299.0</ele><time>2026-05-01T12:50:56.354Z</time></trkpt><trkpt lat="44.53362" lon="7.96068"><ele>300.0</ele><time>2026-05-01T12:50:57.353Z</time></trkpt><trkpt lat="44.5336117" lon="7.9608467"><ele>301.0</ele><time>2026-05-01T12:50:58.348Z</time></trkpt><trkpt lat="44.5336" lon="7.9610083"><ele>302.0</ele><time>2026-05-01T12:50:59.353Z</time></trkpt><trkpt lat="44.5335917" lon="7.9611733"><ele>302.5</ele><time>2026-05-01T12:51:00.351Z</time></trkpt><trkpt lat="44.533585" lon="7.9613367"><ele>303.0</ele><time>2026-05-01T12:51:01.352Z</time></trkpt><trkpt lat="44.5335767" lon="7.9615033"><ele>303.5</ele><time>2026-05-01T12:51:02.351Z</time></trkpt><trkpt lat="44.5335733" lon="7.961665"><ele>304.0</ele><time>2026-05-01T12:51:03.349Z</time></trkpt><trkpt lat="44.5335667" lon="7.9618233"><ele>304.5</ele><time>2026-05-01T12:51:04.351Z</time></trkpt><trkpt lat="44.5335567" lon="7.961975"><ele>305.0</ele><time>2026-05-01T12:51:05.349Z</time></trkpt><trkpt lat="44.5335417" lon="7.9621267"><ele>305.5</ele><time>2026-05-01T12:51:06.35Z</time></trkpt><trkpt lat="44.533525" lon="7.9622867"><ele>306.0</ele><time>2026-05-01T12:51:07.35Z</time></trkpt><trkpt lat="44.5334967" lon="7.9624533"><ele>306.5</ele><time>2026-05-01T12:51:08.353Z</time></trkpt><trkpt lat="44.53346" lon="7.96262"><ele>307.0</ele><time>2026-05-01T12:51:09.356Z</time></trkpt><trkpt lat="44.533415" lon="7.9627933"><ele>307.5</ele><time>2026-05-01T12:51:10.349Z</time></trkpt><trkpt lat="44.5333617" lon="7.9629667"><ele>308.0</ele><time>2026-05-01T12:51:11.351Z</time></trkpt><trkpt lat="44.5333067" lon="7.9631433"><ele>308.0</ele><time>2026-05-01T12:51:12.348Z</time></trkpt><trkpt lat="44.53325" lon="7.96333"><ele>308.0</ele><time>2026-05-01T12:51:13.35Z</time></trkpt><trkpt lat="44.5331933" lon="7.963525"><ele>308.0</ele><time>2026-05-01T12:51:14.35Z</time></trkpt><trkpt lat="44.5331367" lon="7.963725"><ele>308.0</ele><time>2026-05-01T12:51:15.352Z</time></trkpt><trkpt lat="44.5330783" lon="7.9639267"><ele>308.6666666666667</ele><time>2026-05-01T12:51:16.351Z</time></trkpt><trkpt lat="44.5330167" lon="7.9641333"><ele>309.3333333333333</ele><time>2026-05-01T12:51:17.35Z</time></trkpt><trkpt lat="44.53295" lon="7.9643433"><ele>310.0</ele><time>2026-05-01T12:51:18.354Z</time></trkpt><trkpt lat="44.5328767" lon="7.96456"><ele>308.66666666666663</ele><time>2026-05-01T12:51:19.351Z</time></trkpt><trkpt lat="44.5327967" lon="7.96478"><ele>307.3333333333333</ele><time>2026-05-01T12:51:20.352Z</time></trkpt><trkpt lat="44.53271" lon="7.9650083"><ele>306.0</ele><time>2026-05-01T12:51:21.349Z</time></trkpt><trkpt lat="44.5326183" lon="7.9652383"><ele>306.0</ele><time>2026-05-01T12:51:22.351Z</time></trkpt><trkpt lat="44.5325267" lon="7.9654683"><ele>306.0</ele><time>2026-05-01T12:51:23.353Z</time></trkpt><trkpt lat="44.5324333" lon="7.965695"><ele>306.0</ele><time>2026-05-01T12:51:24.351Z</time></trkpt><trkpt lat="44.5323367" lon="7.9659067"><ele>306.0</ele><time>2026-05-01T12:51:25.354Z</time></trkpt><trkpt lat="44.5322367" lon="7.9661017"><ele>306.0</ele><time>2026-05-01T12:51:26.353Z</time></trkpt><trkpt lat="44.53213" lon="7.96629"><ele>306.0</ele><time>2026-05-01T12:51:27.359Z</time></trkpt><trkpt lat="44.532015" lon="7.9664683"><ele>306.6666666666667</ele><time>2026-05-01T12:51:28.351Z</time></trkpt><trkpt lat="44.531895" lon="7.9666433"><ele>307.33333333333337</ele><time>2026-05-01T12:51:29.351Z</time></trkpt><trkpt lat="44.531775" lon="7.9668233"><ele>308.0</ele><time>2026-05-01T12:51:30.348Z</time></trkpt><trkpt lat="44.5316567" lon="7.9670067"><ele>310.0</ele><time>2026-05-01T12:51:31.352Z</time></trkpt><trkpt lat="44.531545" lon="7.9672017"><ele>312.0</ele><time>2026-05-01T12:51:32.352Z</time></trkpt><trkpt lat="44.53145" lon="7.9674183"><ele>314.0</ele><time>2026-05-01T12:51:33.352Z</time></trkpt><trkpt lat="44.5313583" lon="7.96765"><ele>313.33333333333337</ele><time>2026-05-01T12:51:34.354Z</time></trkpt><trkpt lat="44.53126" lon="7.96788"><ele>312.6666666666667</ele><time>2026-05-01T12:51:35.353Z</time></trkpt><trkpt lat="44.5311517" lon="7.9681117"><ele>312.0</ele><time>2026-05-01T12:51:36.352Z</time></trkpt><trkpt lat="44.5310417" lon="7.96836"><ele>314.5</ele><time>2026-05-01T12:51:37.35Z</time></trkpt><trkpt lat="44.5309233" lon="7.9686233"><ele>317.0</ele><time>2026-05-01T12:51:38.352Z</time></trkpt><trkpt lat="44.5308033" lon="7.9689"><ele>317.0</ele><time>2026-05-01T12:51:39.353Z</time></trkpt><trkpt lat="44.5306767" lon="7.9691867"><ele>317.0</ele><time>2026-05-01T12:51:40.351Z</time></trkpt><trkpt lat="44.5305467" lon="7.969485"><ele>321.0</ele><time>2026-05-01T12:51:41.351Z</time></trkpt><trkpt lat="44.5304167" lon="7.9697833"><ele>325.0</ele><time>2026-05-01T12:51:42.349Z</time></trkpt><trkpt lat="44.53028" lon="7.9700817"><ele>325.0</ele><time>2026-05-01T12:51:43.35Z</time></trkpt><trkpt lat="44.5301383" lon="7.97039"><ele>325.0</ele><time>2026-05-01T12:51:44.35Z</time></trkpt><trkpt lat="44.5299933" lon="7.970705"><ele>330.5</ele><time>2026-05-01T12:51:45.352Z</time></trkpt><trkpt lat="44.529845" lon="7.971025"><ele>336.0</ele><time>2026-05-01T12:51:46.349Z</time></trkpt><trkpt lat="44.5297" lon="7.9713467"><ele>335.0</ele><time>2026-05-01T12:51:47.35Z</time></trkpt><trkpt lat="44.529555" lon="7.97168"><ele>334.0</ele><time>2026-05-01T12:51:48.351Z</time></trkpt><trkpt lat="44.5294117" lon="7.9720167"><ele>334.0</ele><time>2026-05-01T12:51:49.353Z</time></trkpt><trkpt lat="44.5292683" lon="7.9723567"><ele>334.0</ele><time>2026-05-01T12:51:50.357Z</time></trkpt><trkpt lat="44.5291217" lon="7.9727017"><ele>342.0</ele><time>2026-05-01T12:51:51.353Z</time></trkpt><trkpt lat="44.5289717" lon="7.9730467"><ele>350.0</ele><time>2026-05-01T12:51:52.351Z</time></trkpt><trkpt lat="44.528825" lon="7.9733867"><ele>344.5</ele><time>2026-05-01T12:51:53.353Z</time></trkpt><trkpt lat="44.5286767" lon="7.9737217"><ele>339.0</ele><time>2026-05-01T12:51:54.354Z</time></trkpt><trkpt lat="44.5285317" lon="7.974045"><ele>346.0</ele><time>2026-05-01T12:51:55.351Z</time></trkpt><trkpt lat="44.5283917" lon="7.9743533"><ele>353.0</ele><time>2026-05-01T12:51:56.351Z</time></trkpt><trkpt lat="44.52825" lon="7.9746317"><ele>353.0</ele><time>2026-05-01T12:51:57.349Z</time></trkpt><trkpt lat="44.5281217" lon="7.9748883"><ele>353.0</ele><time>2026-05-01T12:51:58.349Z</time></trkpt><trkpt lat="44.527985" lon="7.9750933"><ele>353.0</ele><time>2026-05-01T12:51:59.352Z</time></trkpt><trkpt lat="44.527835" lon="7.97528"><ele>355.33333333333337</ele><time>2026-05-01T12:52:00.351Z</time></trkpt><trkpt lat="44.52767" lon="7.9754717"><ele>357.6666666666667</ele><time>2026-05-01T12:52:01.351Z</time></trkpt><trkpt lat="44.527495" lon="7.9756767"><ele>360.0</ele><time>2026-05-01T12:52:02.354Z</time></trkpt><trkpt lat="44.5273067" lon="7.9758983"><ele>360.0</ele><time>2026-05-01T12:52:03.349Z</time></trkpt><trkpt lat="44.5271117" lon="7.9761267"><ele>360.0</ele><time>2026-05-01T12:52:04.357Z</time></trkpt><trkpt lat="44.5269117" lon="7.9763567"><ele>358.5</ele><time>2026-05-01T12:52:05.353Z</time></trkpt><trkpt lat="44.526705" lon="7.9765883"><ele>357.0</ele><time>2026-05-01T12:52:06.351Z</time></trkpt><trkpt lat="44.526505" lon="7.9768167"><ele>357.0</ele><time>2026-05-01T12:52:07.35Z</time></trkpt><trkpt lat="44.5263133" lon="7.97703"><ele>357.0</ele><time>2026-05-01T12:52:08.352Z</time></trkpt><trkpt lat="44.52613" lon="7.97723"><ele>355.6666666666667</ele><time>2026-05-01T12:52:09.349Z</time></trkpt><trkpt lat="44.5259633" lon="7.97741"><ele>354.33333333333337</ele><time>2026-05-01T12:52:10.35Z</time></trkpt><trkpt lat="44.5258167" lon="7.9775683"><ele>353.0</ele><time>2026-05-01T12:52:11.348Z</time></trkpt><trkpt lat="44.525695" lon="7.97772"><ele>353.0</ele><time>2026-05-01T12:52:12.351Z</time></trkpt><trkpt lat="44.5255917" lon="7.9778817"><ele>353.0</ele><time>2026-05-01T12:52:13.352Z</time></trkpt><trkpt lat="44.525525" lon="7.9780683"><ele>353.0</ele><time>2026-05-01T12:52:14.352Z</time></trkpt><trkpt lat="44.5254933" lon="7.9782683"><ele>354.6666666666667</ele><time>2026-05-01T12:52:15.35Z</time></trkpt><trkpt lat="44.525495" lon="7.978485"><ele>356.3333333333333</ele><time>2026-05-01T12:52:16.348Z</time></trkpt><trkpt lat="44.5255267" lon="7.9787117"><ele>358.0</ele><time>2026-05-01T12:52:17.353Z</time></trkpt><trkpt lat="44.5255583" lon="7.978945"><ele>358.0</ele><time>2026-05-01T12:52:18.351Z</time></trkpt><trkpt lat="44.52559" lon="7.9791767"><ele>358.0</ele><time>2026-05-01T12:52:19.352Z</time></trkpt><trkpt lat="44.5256033" lon="7.9793783"><ele>358.0</ele><time>2026-05-01T12:52:20.351Z</time></trkpt><trkpt lat="44.5256283" lon="7.9795617"><ele>358.0</ele><time>2026-05-01T12:52:21.354Z</time></trkpt><trkpt lat="44.5256333" lon="7.9797217"><ele>358.4</ele><time>2026-05-01T12:52:22.351Z</time></trkpt><trkpt lat="44.5256033" lon="7.979855"><ele>358.79999999999995</ele><time>2026-05-01T12:52:23.352Z</time></trkpt><trkpt lat="44.5255467" lon="7.9799533"><ele>359.2</ele><time>2026-05-01T12:52:24.353Z</time></trkpt><trkpt lat="44.525465" lon="7.9800033"><ele>359.6</ele><time>2026-05-01T12:52:25.353Z</time></trkpt><trkpt lat="44.5253817" lon="7.9800167"><ele>360.0</ele><time>2026-05-01T12:52:26.353Z</time></trkpt><trkpt lat="44.525275" lon="7.9799633"><ele>356.75</ele><time>2026-05-01T12:52:27.354Z</time></trkpt><trkpt lat="44.5251567" lon="7.9798733"><ele>353.5</ele><time>2026-05-01T12:52:28.355Z</time></trkpt><trkpt lat="44.5250333" lon="7.9797683"><ele>350.25</ele><time>2026-05-01T12:52:29.352Z</time></trkpt><trkpt lat="44.5249017" lon="7.9796483"><ele>347.0</ele><time>2026-05-01T12:52:30.353Z</time></trkpt><trkpt lat="44.5247717" lon="7.97953"><ele>347.0</ele><time>2026-05-01T12:52:31.355Z</time></trkpt><trkpt lat="44.5246533" lon="7.9794217"><ele>347.0</ele><time>2026-05-01T12:52:32.353Z</time></trkpt><trkpt lat="44.5245467" lon="7.9793317"><ele>347.0</ele><time>2026-05-01T12:52:33.35Z</time></trkpt><trkpt lat="44.524445" lon="7.9792733"><ele>347.0</ele><time>2026-05-01T12:52:34.355Z</time></trkpt><trkpt lat="44.524335" lon="7.9792567"><ele>353.25</ele><time>2026-05-01T12:52:35.348Z</time></trkpt><trkpt lat="44.5242267" lon="7.979285"><ele>359.5</ele><time>2026-05-01T12:52:36.356Z</time></trkpt><trkpt lat="44.52411" lon="7.9793483"><ele>365.75</ele><time>2026-05-01T12:52:37.349Z</time></trkpt><trkpt lat="44.523985" lon="7.97943"><ele>372.0</ele><time>2026-05-01T12:52:38.35Z</time></trkpt><trkpt lat="44.52385" lon="7.9795233"><ele>366.6666666666667</ele><time>2026-05-01T12:52:39.352Z</time></trkpt><trkpt lat="44.5237083" lon="7.9796183"><ele>361.33333333333337</ele><time>2026-05-01T12:52:40.352Z</time></trkpt><trkpt lat="44.52356" lon="7.9797117"><ele>356.0</ele><time>2026-05-01T12:52:41.354Z</time></trkpt><trkpt lat="44.5234133" lon="7.9797983"><ele>356.0</ele><time>2026-05-01T12:52:42.35Z</time></trkpt><trkpt lat="44.5232783" lon="7.979905"><ele>356.0</ele><time>2026-05-01T12:52:43.351Z</time></trkpt><trkpt lat="44.5231617" lon="7.9800383"><ele>356.0</ele><time>2026-05-01T12:52:44.35Z</time></trkpt><trkpt lat="44.523055" lon="7.980205"><ele>356.0</ele><time>2026-05-01T12:52:45.356Z</time></trkpt><trkpt lat="44.522955" lon="7.9803817"><ele>356.0</ele><time>2026-05-01T12:52:46.352Z</time></trkpt><trkpt lat="44.5228567" lon="7.9805617"><ele>356.0</ele><time>2026-05-01T12:52:47.35Z</time></trkpt><trkpt lat="44.5227467" lon="7.9807217"><ele>365.0</ele><time>2026-05-01T12:52:48.357Z</time></trkpt><trkpt lat="44.5226233" lon="7.9808567"><ele>374.0</ele><time>2026-05-01T12:52:49.35Z</time></trkpt><trkpt lat="44.522485" lon="7.9809483"><ele>383.0</ele><time>2026-05-01T12:52:50.351Z</time></trkpt><trkpt lat="44.5223333" lon="7.980995"><ele>383.0</ele><time>2026-05-01T12:52:51.352Z</time></trkpt><trkpt lat="44.5221817" lon="7.9809983"><ele>383.0</ele><time>2026-05-01T12:52:52.351Z</time></trkpt><trkpt lat="44.5220217" lon="7.9809567"><ele>383.0</ele><time>2026-05-01T12:52:53.353Z</time></trkpt><trkpt lat="44.5218633" lon="7.9808883"><ele>375.0</ele><time>2026-05-01T12:52:54.352Z</time></trkpt><trkpt lat="44.521715" lon="7.98081"><ele>367.0</ele><time>2026-05-01T12:52:55.354Z</time></trkpt><trkpt lat="44.5215717" lon="7.9807433"><ele>359.0</ele><time>2026-05-01T12:52:56.351Z</time></trkpt><trkpt lat="44.52143" lon="7.9807133"><ele>359.0</ele><time>2026-05-01T12:52:57.354Z</time></trkpt><trkpt lat="44.5212883" lon="7.9807317"><ele>359.0</ele><time>2026-05-01T12:52:58.356Z</time></trkpt><trkpt lat="44.5211583" lon="7.9807883"><ele>359.0</ele><time>2026-05-01T12:52:59.35Z</time></trkpt><trkpt lat="44.5210033" lon="7.9808433"><ele>359.0</ele><time>2026-05-01T12:53:00.355Z</time></trkpt><trkpt lat="44.5208567" lon="7.9809317"><ele>364.0</ele><time>2026-05-01T12:53:01.353Z</time></trkpt><trkpt lat="44.5207183" lon="7.9810533"><ele>369.0</ele><time>2026-05-01T12:53:02.353Z</time></trkpt><trkpt lat="44.5205883" lon="7.9811983"><ele>374.0</ele><time>2026-05-01T12:53:03.355Z</time></trkpt><trkpt lat="44.520485" lon="7.9814033"><ele>371.0</ele><time>2026-05-01T12:53:04.353Z</time></trkpt><trkpt lat="44.5203933" lon="7.9816317"><ele>368.0</ele><time>2026-05-01T12:53:05.352Z</time></trkpt><trkpt lat="44.5203083" lon="7.9818783"><ele>365.0</ele><time>2026-05-01T12:53:06.35Z</time></trkpt><trkpt lat="44.5202117" lon="7.98212"><ele>365.0</ele><time>2026-05-01T12:53:07.351Z</time></trkpt><trkpt lat="44.52011" lon="7.9823767"><ele>365.0</ele><time>2026-05-01T12:53:08.351Z</time></trkpt><trkpt lat="44.5199883" lon="7.9826133"><ele>365.0</ele><time>2026-05-01T12:53:09.356Z</time></trkpt><trkpt lat="44.51986" lon="7.9828483"><ele>370.33333333333337</ele><time>2026-05-01T12:53:10.354Z</time></trkpt><trkpt lat="44.5197367" lon="7.9830933"><ele>375.6666666666667</ele><time>2026-05-01T12:53:11.35Z</time></trkpt><trkpt lat="44.5196167" lon="7.98335"><ele>381.0</ele><time>2026-05-01T12:53:12.353Z</time></trkpt><trkpt lat="44.51949" lon="7.9836117"><ele>381.0</ele><time>2026-05-01T12:53:13.352Z</time></trkpt><trkpt lat="44.5193567" lon="7.9838683"><ele>381.0</ele><time>2026-05-01T12:53:14.353Z</time></trkpt><trkpt lat="44.5192217" lon="7.9841167"><ele>381.0</ele><time>2026-05-01T12:53:15.351Z</time></trkpt><trkpt lat="44.5190883" lon="7.9843633"><ele>380.0</ele><time>2026-05-01T12:53:16.355Z</time></trkpt><trkpt lat="44.5189483" lon="7.9845867"><ele>379.0</ele><time>2026-05-01T12:53:17.351Z</time></trkpt><trkpt lat="44.51882" lon="7.984805"><ele>378.0</ele><time>2026-05-01T12:53:18.35Z</time></trkpt><trkpt lat="44.5187017" lon="7.9849967"><ele>385.25</ele><time>2026-05-01T12:53:19.349Z</time></trkpt><trkpt lat="44.5185817" lon="7.98515"><ele>392.5</ele><time>2026-05-01T12:53:20.351Z</time></trkpt><trkpt lat="44.5184617" lon="7.9852583"><ele>399.75</ele><time>2026-05-01T12:53:21.359Z</time></trkpt><trkpt lat="44.518335" lon="7.9853283"><ele>407.0</ele><time>2026-05-01T12:53:22.355Z</time></trkpt><trkpt lat="44.5181967" lon="7.9854033"><ele>407.0</ele><time>2026-05-01T12:53:23.349Z</time></trkpt><trkpt lat="44.5180533" lon="7.9854983"><ele>407.0</ele><time>2026-05-01T12:53:24.356Z</time></trkpt><trkpt lat="44.51793" lon="7.98563"><ele>407.0</ele><time>2026-05-01T12:53:25.352Z</time></trkpt><trkpt lat="44.5178317" lon="7.985785"><ele>405.0</ele><time>2026-05-01T12:53:26.349Z</time></trkpt><trkpt lat="44.5177667" lon="7.9859683"><ele>403.0</ele><time>2026-05-01T12:53:27.354Z</time></trkpt><trkpt lat="44.517715" lon="7.98615"><ele>401.0</ele><time>2026-05-01T12:53:28.354Z</time></trkpt><trkpt lat="44.5176583" lon="7.9863133"><ele>399.0</ele><time>2026-05-01T12:53:29.349Z</time></trkpt><trkpt lat="44.5175717" lon="7.9864433"><ele>399.0</ele><time>2026-05-01T12:53:30.349Z</time></trkpt><trkpt lat="44.51746" lon="7.986545"><ele>399.0</ele><time>2026-05-01T12:53:31.351Z</time></trkpt><trkpt lat="44.5173283" lon="7.9866383"><ele>399.0</ele><time>2026-05-01T12:53:32.353Z</time></trkpt><trkpt lat="44.5171883" lon="7.9867483"><ele>399.0</ele><time>2026-05-01T12:53:33.351Z</time></trkpt><trkpt lat="44.5170417" lon="7.9868933"><ele>398.33333333333337</ele><time>2026-05-01T12:53:34.349Z</time></trkpt><trkpt lat="44.5168867" lon="7.9870583"><ele>397.6666666666667</ele><time>2026-05-01T12:53:35.351Z</time></trkpt><trkpt lat="44.5167167" lon="7.9872333"><ele>397.0</ele><time>2026-05-01T12:53:36.35Z</time></trkpt><trkpt lat="44.5165383" lon="7.987415"><ele>396.33333333333337</ele><time>2026-05-01T12:53:37.355Z</time></trkpt><trkpt lat="44.5163583" lon="7.9875983"><ele>395.66666666666663</ele><time>2026-05-01T12:53:38.349Z</time></trkpt><trkpt lat="44.5161817" lon="7.9877833"><ele>395.0</ele><time>2026-05-01T12:53:39.35Z</time></trkpt><trkpt lat="44.5160083" lon="7.9879617"><ele>395.0</ele><time>2026-05-01T12:53:40.349Z</time></trkpt><trkpt lat="44.5158467" lon="7.98813"><ele>395.0</ele><time>2026-05-01T12:53:41.353Z</time></trkpt><trkpt lat="44.5156967" lon="7.9883"><ele>395.0</ele><time>2026-05-01T12:53:42.35Z</time></trkpt><trkpt lat="44.5155617" lon="7.98849"><ele>397.3333333333333</ele><time>2026-05-01T12:53:43.35Z</time></trkpt><trkpt lat="44.51544" lon="7.9887117"><ele>399.66666666666663</ele><time>2026-05-01T12:53:44.355Z</time></trkpt><trkpt lat="44.5153217" lon="7.9889433"><ele>402.0</ele><time>2026-05-01T12:53:45.354Z</time></trkpt><trkpt lat="44.5152017" lon="7.989185"><ele>402.0</ele><time>2026-05-01T12:53:46.357Z</time></trkpt><trkpt lat="44.5150783" lon="7.9894283"><ele>402.0</ele><time>2026-05-01T12:53:47.35Z</time></trkpt><trkpt lat="44.5149533" lon="7.98966"><ele>402.0</ele><time>2026-05-01T12:53:48.352Z</time></trkpt><trkpt lat="44.514835" lon="7.9898867"><ele>402.0</ele><time>2026-05-01T12:53:49.354Z</time></trkpt><trkpt lat="44.5147267" lon="7.99009"><ele>402.0</ele><time>2026-05-01T12:53:50.352Z</time></trkpt><trkpt lat="44.51463" lon="7.9902667"><ele>402.0</ele><time>2026-05-01T12:53:51.355Z</time></trkpt><trkpt lat="44.514535" lon="7.99042"><ele>402.0</ele><time>2026-05-01T12:53:52.352Z</time></trkpt><trkpt lat="44.514425" lon="7.9905383"><ele>402.0</ele><time>2026-05-01T12:53:53.353Z</time></trkpt><trkpt lat="44.514305" lon="7.99063"><ele>402.0</ele><time>2026-05-01T12:53:54.354Z</time></trkpt><trkpt lat="44.5141583" lon="7.9906783"><ele>402.0</ele><time>2026-05-01T12:53:55.355Z</time></trkpt><trkpt lat="44.5140183" lon="7.990755"><ele>397.33333333333337</ele><time>2026-05-01T12:53:56.353Z</time></trkpt><trkpt lat="44.5138783" lon="7.9908567"><ele>392.6666666666667</ele><time>2026-05-01T12:53:57.352Z</time></trkpt><trkpt lat="44.5137467" lon="7.990985"><ele>388.0</ele><time>2026-05-01T12:53:58.351Z</time></trkpt><trkpt lat="44.5136317" lon="7.9911283"><ele>388.0</ele><time>2026-05-01T12:53:59.352Z</time></trkpt><trkpt lat="44.51353" lon="7.9912833"><ele>388.0</ele><time>2026-05-01T12:54:00.355Z</time></trkpt><trkpt lat="44.51345" lon="7.99145"><ele>388.0</ele><time>2026-05-01T12:54:01.355Z</time></trkpt><trkpt lat="44.513395" lon="7.9916317"><ele>388.0</ele><time>2026-05-01T12:54:02.351Z</time></trkpt><trkpt lat="44.5133783" lon="7.99184"><ele>390.0</ele><time>2026-05-01T12:54:03.352Z</time></trkpt><trkpt lat="44.5133967" lon="7.992065"><ele>392.0</ele><time>2026-05-01T12:54:04.351Z</time></trkpt><trkpt lat="44.5134167" lon="7.99229"><ele>394.0</ele><time>2026-05-01T12:54:05.354Z</time></trkpt><trkpt lat="44.513415" lon="7.9925083"><ele>396.33333333333337</ele><time>2026-05-01T12:54:06.356Z</time></trkpt><trkpt lat="44.5133817" lon="7.99272"><ele>398.66666666666663</ele><time>2026-05-01T12:54:07.355Z</time></trkpt><trkpt lat="44.5133133" lon="7.992925"><ele>401.0</ele><time>2026-05-01T12:54:08.352Z</time></trkpt><trkpt lat="44.5132233" lon="7.9931283"><ele>403.66666666666663</ele><time>2026-05-01T12:54:09.354Z</time></trkpt><trkpt lat="44.51313" lon="7.99334"><ele>406.33333333333337</ele><time>2026-05-01T12:54:10.35Z</time></trkpt><trkpt lat="44.513055" lon="7.9935783"><ele>409.0</ele><time>2026-05-01T12:54:11.351Z</time></trkpt><trkpt lat="44.5129917" lon="7.99383"><ele>409.0</ele><time>2026-05-01T12:54:12.349Z</time></trkpt><trkpt lat="44.5129367" lon="7.9940833"><ele>409.0</ele><time>2026-05-01T12:54:13.349Z</time></trkpt><trkpt lat="44.5128867" lon="7.9943283"><ele>409.0</ele><time>2026-05-01T12:54:14.349Z</time></trkpt><trkpt lat="44.5128367" lon="7.9945617"><ele>402.0</ele><time>2026-05-01T12:54:15.351Z</time></trkpt><trkpt lat="44.512805" lon="7.99479"><ele>395.0</ele><time>2026-05-01T12:54:16.352Z</time></trkpt><trkpt lat="44.5128" lon="7.9950167"><ele>388.0</ele><time>2026-05-01T12:54:17.349Z</time></trkpt><trkpt lat="44.512825" lon="7.9952417"><ele>387.6666666666667</ele><time>2026-05-01T12:54:18.352Z</time></trkpt><trkpt lat="44.512875" lon="7.9954667"><ele>387.33333333333337</ele><time>2026-05-01T12:54:19.355Z</time></trkpt><trkpt lat="44.5129367" lon="7.9957017"><ele>387.0</ele><time>2026-05-01T12:54:20.354Z</time></trkpt><trkpt lat="44.5130017" lon="7.9959517"><ele>393.66666666666663</ele><time>2026-05-01T12:54:21.354Z</time></trkpt><trkpt lat="44.5130667" lon="7.9962017"><ele>400.3333333333333</ele><time>2026-05-01T12:54:22.351Z</time></trkpt><trkpt lat="44.51312" lon="7.99645"><ele>407.0</ele><time>2026-05-01T12:54:23.351Z</time></trkpt><trkpt lat="44.513155" lon="7.9966983"><ele>407.0</ele><time>2026-05-01T12:54:24.354Z</time></trkpt><trkpt lat="44.5131783" lon="7.9969483"><ele>407.0</ele><time>2026-05-01T12:54:25.35Z</time></trkpt><trkpt lat="44.5132" lon="7.9972033"><ele>407.0</ele><time>2026-05-01T12:54:26.35Z</time></trkpt><trkpt lat="44.5132067" lon="7.9974733"><ele>407.0</ele><time>2026-05-01T12:54:27.35Z</time></trkpt><trkpt lat="44.513185" lon="7.9977517"><ele>407.0</ele><time>2026-05-01T12:54:28.351Z</time></trkpt><trkpt lat="44.5131617" lon="7.9980283"><ele>407.0</ele><time>2026-05-01T12:54:29.355Z</time></trkpt><trkpt lat="44.51314" lon="7.9982983"><ele>409.66666666666663</ele><time>2026-05-01T12:54:30.355Z</time></trkpt><trkpt lat="44.5131217" lon="7.9985517"><ele>412.33333333333337</ele><time>2026-05-01T12:54:31.355Z</time></trkpt><trkpt lat="44.5131117" lon="7.9987817"><ele>415.0</ele><time>2026-05-01T12:54:32.353Z</time></trkpt><trkpt lat="44.5131233" lon="7.9990017"><ele>416.5</ele><time>2026-05-01T12:54:33.358Z</time></trkpt><trkpt lat="44.51315" lon="7.9992083"><ele>418.0</ele><time>2026-05-01T12:54:34.353Z</time></trkpt><trkpt lat="44.5132017" lon="7.999415"><ele>419.5</ele><time>2026-05-01T12:54:35.351Z</time></trkpt><trkpt lat="44.5132583" lon="7.9996"><ele>421.0</ele><time>2026-05-01T12:54:36.358Z</time></trkpt><trkpt lat="44.513275" lon="7.9998033"><ele>421.0</ele><time>2026-05-01T12:54:37.353Z</time></trkpt><trkpt lat="44.5132633" lon="8.0000083"><ele>421.0</ele><time>2026-05-01T12:54:38.359Z</time></trkpt><trkpt lat="44.5132267" lon="8.00023"><ele>421.0</ele><time>2026-05-01T12:54:39.353Z</time></trkpt><trkpt lat="44.5131783" lon="8.0004667"><ele>421.0</ele><time>2026-05-01T12:54:40.353Z</time></trkpt><trkpt lat="44.5131183" lon="8.0007033"><ele>421.0</ele><time>2026-05-01T12:54:41.35Z</time></trkpt><trkpt lat="44.51305" lon="8.0009317"><ele>421.0</ele><time>2026-05-01T12:54:42.351Z</time></trkpt><trkpt lat="44.512995" lon="8.0011717"><ele>423.33333333333337</ele><time>2026-05-01T12:54:43.358Z</time></trkpt><trkpt lat="44.5129617" lon="8.00142"><ele>425.66666666666663</ele><time>2026-05-01T12:54:44.351Z</time></trkpt><trkpt lat="44.512955" lon="8.001655"><ele>428.0</ele><time>2026-05-01T12:54:45.355Z</time></trkpt><trkpt lat="44.5129383" lon="8.00187"><ele>429.0</ele><time>2026-05-01T12:54:46.353Z</time></trkpt><trkpt lat="44.5129133" lon="8.002075"><ele>430.0</ele><time>2026-05-01T12:54:47.351Z</time></trkpt><trkpt lat="44.5128633" lon="8.0022683"><ele>431.0</ele><time>2026-05-01T12:54:48.353Z</time></trkpt><trkpt lat="44.5128067" lon="8.00246"><ele>432.0</ele><time>2026-05-01T12:54:49.352Z</time></trkpt><trkpt lat="44.512735" lon="8.00264"><ele>425.5</ele><time>2026-05-01T12:54:50.35Z</time></trkpt><trkpt lat="44.5126467" lon="8.0028033"><ele>419.0</ele><time>2026-05-01T12:54:51.355Z</time></trkpt><trkpt lat="44.5125367" lon="8.0029417"><ele>412.5</ele><time>2026-05-01T12:54:52.354Z</time></trkpt><trkpt lat="44.5124317" lon="8.0030833"><ele>406.0</ele><time>2026-05-01T12:54:53.353Z</time></trkpt><trkpt lat="44.5123483" lon="8.00324"><ele>410.0</ele><time>2026-05-01T12:54:54.356Z</time></trkpt><trkpt lat="44.5122883" lon="8.0034283"><ele>414.0</ele><time>2026-05-01T12:54:55.351Z</time></trkpt><trkpt lat="44.51226" lon="8.0036533"><ele>418.0</ele><time>2026-05-01T12:54:56.354Z</time></trkpt><trkpt lat="44.51224" lon="8.0039017"><ele>423.0</ele><time>2026-05-01T12:54:57.35Z</time></trkpt><trkpt lat="44.512205" lon="8.004165"><ele>428.0</ele><time>2026-05-01T12:54:58.352Z</time></trkpt><trkpt lat="44.5121533" lon="8.0044333"><ele>433.0</ele><time>2026-05-01T12:54:59.348Z</time></trkpt><trkpt lat="44.512095" lon="8.0047067"><ele>428.33333333333337</ele><time>2026-05-01T12:55:00.35Z</time></trkpt><trkpt lat="44.5120317" lon="8.0049783"><ele>423.66666666666663</ele><time>2026-05-01T12:55:01.35Z</time></trkpt><trkpt lat="44.5119783" lon="8.005255"><ele>419.0</ele><time>2026-05-01T12:55:02.352Z</time></trkpt><trkpt lat="44.5119267" lon="8.005525"><ele>419.3333333333333</ele><time>2026-05-01T12:55:03.356Z</time></trkpt><trkpt lat="44.5118617" lon="8.0057883"><ele>419.66666666666663</ele><time>2026-05-01T12:55:04.352Z</time></trkpt><trkpt lat="44.511785" lon="8.0060367"><ele>420.0</ele><time>2026-05-01T12:55:05.352Z</time></trkpt><trkpt lat="44.5117033" lon="8.0062883"><ele>420.0</ele><time>2026-05-01T12:55:06.355Z</time></trkpt><trkpt lat="44.5116183" lon="8.0065533"><ele>420.0</ele><time>2026-05-01T12:55:07.35Z</time></trkpt><trkpt lat="44.5115367" lon="8.006835"><ele>420.0</ele><time>2026-05-01T12:55:08.35Z</time></trkpt><trkpt lat="44.5114633" lon="8.0071233"><ele>423.66666666666663</ele><time>2026-05-01T12:55:09.354Z</time></trkpt><trkpt lat="44.5113967" lon="8.0074233"><ele>427.3333333333333</ele><time>2026-05-01T12:55:10.353Z</time></trkpt><trkpt lat="44.5113283" lon="8.007715"><ele>431.0</ele><time>2026-05-01T12:55:11.354Z</time></trkpt><trkpt lat="44.5112683" lon="8.0079833"><ele>427.3333333333333</ele><time>2026-05-01T12:55:12.356Z</time></trkpt><trkpt lat="44.5111983" lon="8.0082317"><ele>423.66666666666663</ele><time>2026-05-01T12:55:13.349Z</time></trkpt><trkpt lat="44.5111017" lon="8.00847"><ele>420.0</ele><time>2026-05-01T12:55:14.353Z</time></trkpt><trkpt lat="44.510975" lon="8.0086917"><ele>420.0</ele><time>2026-05-01T12:55:15.352Z</time></trkpt><trkpt lat="44.51081" lon="8.0088783"><ele>420.0</ele><time>2026-05-01T12:55:16.353Z</time></trkpt><trkpt lat="44.510635" lon="8.0090517"><ele>420.0</ele><time>2026-05-01T12:55:17.355Z</time></trkpt><trkpt lat="44.51046" lon="8.0092083"><ele>420.33333333333337</ele><time>2026-05-01T12:55:18.352Z</time></trkpt><trkpt lat="44.5102817" lon="8.00934"><ele>420.6666666666667</ele><time>2026-05-01T12:55:19.355Z</time></trkpt><trkpt lat="44.51012" lon="8.0094683"><ele>421.0</ele><time>2026-05-01T12:55:20.353Z</time></trkpt><trkpt lat="44.509975" lon="8.0096133"><ele>421.0</ele><time>2026-05-01T12:55:21.353Z</time></trkpt><trkpt lat="44.50984" lon="8.0097833"><ele>421.0</ele><time>2026-05-01T12:55:22.354Z</time></trkpt><trkpt lat="44.50973" lon="8.0100117"><ele>421.0</ele><time>2026-05-01T12:55:23.353Z</time></trkpt><trkpt lat="44.5096217" lon="8.0102517"><ele>422.0</ele><time>2026-05-01T12:55:24.353Z</time></trkpt><trkpt lat="44.509505" lon="8.0104967"><ele>423.0</ele><time>2026-05-01T12:55:25.358Z</time></trkpt><trkpt lat="44.5093733" lon="8.0107367"><ele>424.0</ele><time>2026-05-01T12:55:26.351Z</time></trkpt><trkpt lat="44.5092317" lon="8.0109667"><ele>429.6666666666667</ele><time>2026-05-01T12:55:27.355Z</time></trkpt><trkpt lat="44.5090867" lon="8.0111867"><ele>435.33333333333337</ele><time>2026-05-01T12:55:28.351Z</time></trkpt><trkpt lat="44.50893" lon="8.0113883"><ele>441.0</ele><time>2026-05-01T12:55:29.353Z</time></trkpt><trkpt lat="44.508755" lon="8.01154"><ele>443.33333333333337</ele><time>2026-05-01T12:55:30.356Z</time></trkpt><trkpt lat="44.5085817" lon="8.0116717"><ele>445.6666666666667</ele><time>2026-05-01T12:55:31.351Z</time></trkpt><trkpt lat="44.508415" lon="8.011785"><ele>448.0</ele><time>2026-05-01T12:55:32.353Z</time></trkpt><trkpt lat="44.50826" lon="8.0118883"><ele>448.0</ele><time>2026-05-01T12:55:33.354Z</time></trkpt><trkpt lat="44.508125" lon="8.0120083"><ele>448.0</ele><time>2026-05-01T12:55:34.35Z</time></trkpt><trkpt lat="44.50802" lon="8.012165"><ele>448.0</ele><time>2026-05-01T12:55:35.349Z</time></trkpt><trkpt lat="44.5079117" lon="8.012315"><ele>452.6666666666667</ele><time>2026-05-01T12:55:36.351Z</time></trkpt><trkpt lat="44.507795" lon="8.012455"><ele>457.33333333333337</ele><time>2026-05-01T12:55:37.353Z</time></trkpt><trkpt lat="44.507655" lon="8.012565"><ele>462.0</ele><time>2026-05-01T12:55:38.354Z</time></trkpt><trkpt lat="44.507495" lon="8.0126567"><ele>462.0</ele><time>2026-05-01T12:55:39.353Z</time></trkpt><trkpt lat="44.5073267" lon="8.0127583"><ele>462.0</ele><time>2026-05-01T12:55:40.352Z</time></trkpt><trkpt lat="44.5071567" lon="8.0128833"><ele>462.0</ele><time>2026-05-01T12:55:41.351Z</time></trkpt><trkpt lat="44.5069767" lon="8.013025"><ele>456.0</ele><time>2026-05-01T12:55:42.351Z</time></trkpt><trkpt lat="44.5067833" lon="8.013145"><ele>450.0</ele><time>2026-05-01T12:55:43.358Z</time></trkpt><trkpt lat="44.506595" lon="8.0132583"><ele>444.0</ele><time>2026-05-01T12:55:44.349Z</time></trkpt><trkpt lat="44.5064033" lon="8.0133483"><ele>450.0</ele><time>2026-05-01T12:55:45.353Z</time></trkpt><trkpt lat="44.5062233" lon="8.0134233"><ele>456.0</ele><time>2026-05-01T12:55:46.355Z</time></trkpt><trkpt lat="44.5060567" lon="8.0134983"><ele>462.0</ele><time>2026-05-01T12:55:47.351Z</time></trkpt><trkpt lat="44.5059083" lon="8.0135867"><ele>462.0</ele><time>2026-05-01T12:55:48.352Z</time></trkpt><trkpt lat="44.50577" lon="8.0137"><ele>462.0</ele><time>2026-05-01T12:55:49.351Z</time></trkpt><trkpt lat="44.505645" lon="8.0138533"><ele>462.0</ele><time>2026-05-01T12:55:50.353Z</time></trkpt><trkpt lat="44.5055133" lon="8.01403"><ele>463.66666666666663</ele><time>2026-05-01T12:55:51.354Z</time></trkpt><trkpt lat="44.505385" lon="8.01423"><ele>465.3333333333333</ele><time>2026-05-01T12:55:52.354Z</time></trkpt><trkpt lat="44.5052367" lon="8.014405"><ele>467.0</ele><time>2026-05-01T12:55:53.353Z</time></trkpt><trkpt lat="44.505085" lon="8.01457"><ele>467.0</ele><time>2026-05-01T12:55:54.352Z</time></trkpt><trkpt lat="44.5049333" lon="8.0147217"><ele>467.0</ele><time>2026-05-01T12:55:55.351Z</time></trkpt><trkpt lat="44.5047933" lon="8.0148683"><ele>467.0</ele><time>2026-05-01T12:55:56.351Z</time></trkpt><trkpt lat="44.504675" lon="8.015015"><ele>468.5</ele><time>2026-05-01T12:55:57.354Z</time></trkpt><trkpt lat="44.5045867" lon="8.01517"><ele>470.0</ele><time>2026-05-01T12:55:58.35Z</time></trkpt><trkpt lat="44.5045367" lon="8.0153317"><ele>471.5</ele><time>2026-05-01T12:55:59.349Z</time></trkpt><trkpt lat="44.5045233" lon="8.01551"><ele>473.0</ele><time>2026-05-01T12:56:00.356Z</time></trkpt><trkpt lat="44.504535" lon="8.0156867"><ele>476.16666666666663</ele><time>2026-05-01T12:56:01.354Z</time></trkpt><trkpt lat="44.504545" lon="8.0158383"><ele>479.3333333333333</ele><time>2026-05-01T12:56:02.353Z</time></trkpt><trkpt lat="44.5045333" lon="8.015955"><ele>482.5</ele><time>2026-05-01T12:56:03.35Z</time></trkpt><trkpt lat="44.5044983" lon="8.0160467"><ele>485.66666666666663</ele><time>2026-05-01T12:56:04.35Z</time></trkpt><trkpt lat="44.50444" lon="8.0161017"><ele>488.8333333333333</ele><time>2026-05-01T12:56:05.354Z</time></trkpt><trkpt lat="44.50437" lon="8.0161283"><ele>492.0</ele><time>2026-05-01T12:56:06.349Z</time></trkpt><trkpt lat="44.504265" lon="8.016055"><ele>492.0</ele><time>2026-05-01T12:56:07.35Z</time></trkpt><trkpt lat="44.50416" lon="8.0159483"><ele>492.00000000000006</ele><time>2026-05-01T12:56:08.348Z</time></trkpt><trkpt lat="44.50407" lon="8.0158533"><ele>492.00000000000006</ele><time>2026-05-01T12:56:09.35Z</time></trkpt><trkpt lat="44.50399" lon="8.0157867"><ele>492.0</ele><time>2026-05-01T12:56:10.348Z</time></trkpt><trkpt lat="44.50391" lon="8.0157333"><ele>492.0</ele><time>2026-05-01T12:56:11.355Z</time></trkpt><trkpt lat="44.50384" lon="8.0157667"><ele>492.0</ele><time>2026-05-01T12:56:12.353Z</time></trkpt><trkpt lat="44.5037933" lon="8.01585"><ele>492.00000000000006</ele><time>2026-05-01T12:56:13.351Z</time></trkpt><trkpt lat="44.50376" lon="8.0159617"><ele>492.00000000000006</ele><time>2026-05-01T12:56:14.352Z</time></trkpt><trkpt lat="44.503735" lon="8.016095"><ele>492.0</ele><time>2026-05-01T12:56:15.35Z</time></trkpt><trkpt lat="44.5037117" lon="8.0162633"><ele>492.0</ele><time>2026-05-01T12:56:16.349Z</time></trkpt><trkpt lat="44.5036817" lon="8.0164383"><ele>492.75</ele><time>2026-05-01T12:56:17.353Z</time></trkpt><trkpt lat="44.503635" lon="8.0166183"><ele>493.5</ele><time>2026-05-01T12:56:18.348Z</time></trkpt><trkpt lat="44.503575" lon="8.016785"><ele>494.25</ele><time>2026-05-01T12:56:19.35Z</time></trkpt><trkpt lat="44.5034883" lon="8.0169367"><ele>495.0</ele><time>2026-05-01T12:56:20.35Z</time></trkpt><trkpt lat="44.5033733" lon="8.0170867"><ele>495.0</ele><time>2026-05-01T12:56:21.351Z</time></trkpt><trkpt lat="44.5032533" lon="8.0172383"><ele>495.0</ele><time>2026-05-01T12:56:22.354Z</time></trkpt><trkpt lat="44.50314" lon="8.01739"><ele>495.0</ele><time>2026-05-01T12:56:23.356Z</time></trkpt><trkpt lat="44.50304" lon="8.0175317"><ele>497.75</ele><time>2026-05-01T12:56:24.348Z</time></trkpt><trkpt lat="44.5029667" lon="8.017675"><ele>500.5</ele><time>2026-05-01T12:56:25.351Z</time></trkpt><trkpt lat="44.5029217" lon="8.01783"><ele>503.25</ele><time>2026-05-01T12:56:26.351Z</time></trkpt><trkpt lat="44.5029233" lon="8.0180067"><ele>506.0</ele><time>2026-05-01T12:56:27.352Z</time></trkpt><trkpt lat="44.502945" lon="8.0181983"><ele>509.0</ele><time>2026-05-01T12:56:28.351Z</time></trkpt><trkpt lat="44.502975" lon="8.0184017"><ele>512.0</ele><time>2026-05-01T12:56:29.351Z</time></trkpt><trkpt lat="44.5030083" lon="8.0186233"><ele>515.0</ele><time>2026-05-01T12:56:30.35Z</time></trkpt><trkpt lat="44.5030333" lon="8.018855"><ele>515.0</ele><time>2026-05-01T12:56:31.356Z</time></trkpt><trkpt lat="44.5030517" lon="8.0190783"><ele>515.0</ele><time>2026-05-01T12:56:32.352Z</time></trkpt><trkpt lat="44.5030633" lon="8.0192817"><ele>515.0</ele><time>2026-05-01T12:56:33.354Z</time></trkpt><trkpt lat="44.5030633" lon="8.0194683"><ele>515.0</ele><time>2026-05-01T12:56:34.349Z</time></trkpt><trkpt lat="44.5030417" lon="8.019655"><ele>517.3333333333333</ele><time>2026-05-01T12:56:35.352Z</time></trkpt><trkpt lat="44.503" lon="8.0198583"><ele>519.6666666666666</ele><time>2026-05-01T12:56:36.351Z</time></trkpt><trkpt lat="44.5029433" lon="8.02008"><ele>522.0</ele><time>2026-05-01T12:56:37.349Z</time></trkpt><trkpt lat="44.5028767" lon="8.0203133"><ele>519.3333333333334</ele><time>2026-05-01T12:56:38.354Z</time></trkpt><trkpt lat="44.5028067" lon="8.020545"><ele>516.6666666666667</ele><time>2026-05-01T12:56:39.354Z</time></trkpt><trkpt lat="44.5027367" lon="8.0207633"><ele>514.0</ele><time>2026-05-01T12:56:40.353Z</time></trkpt><trkpt lat="44.50268" lon="8.02096"><ele>514.0</ele><time>2026-05-01T12:56:41.35Z</time></trkpt><trkpt lat="44.502655" lon="8.0211267"><ele>514.0</ele><time>2026-05-01T12:56:42.349Z</time></trkpt><trkpt lat="44.5026617" lon="8.0212667"><ele>514.0</ele><time>2026-05-01T12:56:43.351Z</time></trkpt><trkpt lat="44.50272" lon="8.0213933"><ele>514.0</ele><time>2026-05-01T12:56:44.353Z</time></trkpt><trkpt lat="44.5027917" lon="8.02151"><ele>514.0</ele><time>2026-05-01T12:56:45.351Z</time></trkpt><trkpt lat="44.5028967" lon="8.0216183"><ele>523.4</ele><time>2026-05-01T12:56:46.351Z</time></trkpt><trkpt lat="44.5030067" lon="8.0217283"><ele>532.8</ele><time>2026-05-01T12:56:47.35Z</time></trkpt><trkpt lat="44.5031033" lon="8.021835"><ele>542.2</ele><time>2026-05-01T12:56:48.354Z</time></trkpt><trkpt lat="44.503165" lon="8.021945"><ele>551.6</ele><time>2026-05-01T12:56:49.358Z</time></trkpt><trkpt lat="44.503185" lon="8.0220583"><ele>561.0</ele><time>2026-05-01T12:56:50.353Z</time></trkpt><trkpt lat="44.5031633" lon="8.02215"><ele>561.0</ele><time>2026-05-01T12:56:51.352Z</time></trkpt><trkpt lat="44.503105" lon="8.0222033"><ele>561.0</ele><time>2026-05-01T12:56:52.35Z</time></trkpt><trkpt lat="44.503025" lon="8.0222383"><ele>561.0</ele><time>2026-05-01T12:56:53.352Z</time></trkpt><trkpt lat="44.5029283" lon="8.022275"><ele>561.0</ele><time>2026-05-01T12:56:54.351Z</time></trkpt><trkpt lat="44.5028283" lon="8.0223433"><ele>561.0</ele><time>2026-05-01T12:56:55.351Z</time></trkpt><trkpt lat="44.5027333" lon="8.0224517"><ele>552.3333333333334</ele><time>2026-05-01T12:56:56.348Z</time></trkpt><trkpt lat="44.5026483" lon="8.02261"><ele>543.6666666666667</ele><time>2026-05-01T12:56:57.351Z</time></trkpt><trkpt lat="44.5025767" lon="8.0228033"><ele>535.0</ele><time>2026-05-01T12:56:58.349Z</time></trkpt><trkpt lat="44.5025033" lon="8.02302"><ele>535.0</ele><time>2026-05-01T12:56:59.35Z</time></trkpt><trkpt lat="44.50243" lon="8.0232533"><ele>535.0</ele><time>2026-05-01T12:57:00.349Z</time></trkpt><trkpt lat="44.50235" lon="8.023485"><ele>535.0</ele><time>2026-05-01T12:57:01.35Z</time></trkpt><trkpt lat="44.50225" lon="8.0237083"><ele>536.6666666666667</ele><time>2026-05-01T12:57:02.35Z</time></trkpt><trkpt lat="44.5021383" lon="8.0239267"><ele>538.3333333333334</ele><time>2026-05-01T12:57:03.355Z</time></trkpt><trkpt lat="44.5020317" lon="8.0241583"><ele>540.0</ele><time>2026-05-01T12:57:04.352Z</time></trkpt><trkpt lat="44.5019433" lon="8.02441"><ele>540.0</ele><time>2026-05-01T12:57:05.35Z</time></trkpt><trkpt lat="44.50187" lon="8.0246767"><ele>540.0</ele><time>2026-05-01T12:57:06.349Z</time></trkpt><trkpt lat="44.5018017" lon="8.0249317"><ele>540.0</ele><time>2026-05-01T12:57:07.351Z</time></trkpt><trkpt lat="44.501745" lon="8.0251617"><ele>543.0</ele><time>2026-05-01T12:57:08.352Z</time></trkpt><trkpt lat="44.5017183" lon="8.0253667"><ele>546.0</ele><time>2026-05-01T12:57:09.352Z</time></trkpt><trkpt lat="44.501735" lon="8.025555"><ele>549.0</ele><time>2026-05-01T12:57:10.351Z</time></trkpt><trkpt lat="44.50178" lon="8.0257283"><ele>552.0</ele><time>2026-05-01T12:57:11.352Z</time></trkpt><trkpt lat="44.5018183" lon="8.0258683"><ele>553.8000000000001</ele><time>2026-05-01T12:57:12.353Z</time></trkpt><trkpt lat="44.5018233" lon="8.025995"><ele>555.6</ele><time>2026-05-01T12:57:13.351Z</time></trkpt><trkpt lat="44.5017883" lon="8.0261033"><ele>557.4000000000001</ele><time>2026-05-01T12:57:14.349Z</time></trkpt><trkpt lat="44.5017083" lon="8.0261717"><ele>559.2</ele><time>2026-05-01T12:57:15.353Z</time></trkpt><trkpt lat="44.5016117" lon="8.026225"><ele>561.0</ele><time>2026-05-01T12:57:16.352Z</time></trkpt><trkpt lat="44.5015117" lon="8.0263"><ele>561.0</ele><time>2026-05-01T12:57:17.35Z</time></trkpt><trkpt lat="44.50142" lon="8.0264217"><ele>561.0</ele><time>2026-05-01T12:57:18.357Z</time></trkpt><trkpt lat="44.5013367" lon="8.0265917"><ele>561.0</ele><time>2026-05-01T12:57:19.348Z</time></trkpt><trkpt lat="44.5012533" lon="8.0268"><ele>561.0</ele><time>2026-05-01T12:57:20.352Z</time></trkpt><trkpt lat="44.501165" lon="8.02703"><ele>562.3333333333334</ele><time>2026-05-01T12:57:21.352Z</time></trkpt><trkpt lat="44.5010717" lon="8.0272667"><ele>563.6666666666667</ele><time>2026-05-01T12:57:22.353Z</time></trkpt><trkpt lat="44.5009783" lon="8.0275167"><ele>565.0</ele><time>2026-05-01T12:57:23.351Z</time></trkpt><trkpt lat="44.5008817" lon="8.0277767"><ele>565.0</ele><time>2026-05-01T12:57:24.35Z</time></trkpt><trkpt lat="44.5007717" lon="8.02804"><ele>565.0</ele><time>2026-05-01T12:57:25.357Z</time></trkpt><trkpt lat="44.5006483" lon="8.0283"><ele>565.0</ele><time>2026-05-01T12:57:26.355Z</time></trkpt><trkpt lat="44.5005183" lon="8.028565"><ele>559.0</ele><time>2026-05-01T12:57:27.35Z</time></trkpt><trkpt lat="44.5003883" lon="8.028835"><ele>553.0</ele><time>2026-05-01T12:57:28.353Z</time></trkpt><trkpt lat="44.5002633" lon="8.0291133"><ele>559.0</ele><time>2026-05-01T12:57:29.351Z</time></trkpt><trkpt lat="44.5001417" lon="8.0293983"><ele>565.0</ele><time>2026-05-01T12:57:30.351Z</time></trkpt><trkpt lat="44.5000217" lon="8.02969"><ele>565.0</ele><time>2026-05-01T12:57:31.351Z</time></trkpt><trkpt lat="44.4999033" lon="8.029975"><ele>565.0</ele><time>2026-05-01T12:57:32.349Z</time></trkpt><trkpt lat="44.4997933" lon="8.0302483"><ele>564.0</ele><time>2026-05-01T12:57:33.351Z</time></trkpt><trkpt lat="44.499695" lon="8.030505"><ele>563.0</ele><time>2026-05-01T12:57:34.353Z</time></trkpt><trkpt lat="44.4996067" lon="8.0307267"><ele>562.0</ele><time>2026-05-01T12:57:35.35Z</time></trkpt><trkpt lat="44.499545" lon="8.0309167"><ele>562.0</ele><time>2026-05-01T12:57:36.354Z</time></trkpt><trkpt lat="44.499515" lon="8.0311017"><ele>562.0</ele><time>2026-05-01T12:57:37.353Z</time></trkpt><trkpt lat="44.499515" lon="8.0312933"><ele>562.0</ele><time>2026-05-01T12:57:38.351Z</time></trkpt><trkpt lat="44.4995467" lon="8.0315033"><ele>562.0</ele><time>2026-05-01T12:57:39.35Z</time></trkpt><trkpt lat="44.49959" lon="8.0317283"><ele>575.3333333333334</ele><time>2026-05-01T12:57:40.352Z</time></trkpt><trkpt lat="44.49964" lon="8.0319567"><ele>588.6666666666666</ele><time>2026-05-01T12:57:41.35Z</time></trkpt><trkpt lat="44.4996967" lon="8.0321717"><ele>602.0</ele><time>2026-05-01T12:57:42.354Z</time></trkpt><trkpt lat="44.499785" lon="8.032375"><ele>601.3333333333333</ele><time>2026-05-01T12:57:43.35Z</time></trkpt><trkpt lat="44.4998917" lon="8.032575"><ele>600.6666666666666</ele><time>2026-05-01T12:57:44.35Z</time></trkpt><trkpt lat="44.5000117" lon="8.0327717"><ele>600.0</ele><time>2026-05-01T12:57:45.352Z</time></trkpt><trkpt lat="44.50013" lon="8.032965"><ele>600.0</ele><time>2026-05-01T12:57:46.351Z</time></trkpt><trkpt lat="44.5002317" lon="8.03313"><ele>600.0</ele><time>2026-05-01T12:57:47.35Z</time></trkpt><trkpt lat="44.500305" lon="8.0332633"><ele>600.0</ele><time>2026-05-01T12:57:48.356Z</time></trkpt><trkpt lat="44.5003467" lon="8.0333783"><ele>600.0</ele><time>2026-05-01T12:57:49.35Z</time></trkpt><trkpt lat="44.5003567" lon="8.0334783"><ele>600.0</ele><time>2026-05-01T12:57:50.352Z</time></trkpt><trkpt lat="44.5002767" lon="8.033575"><ele>600.8</ele><time>2026-05-01T12:57:52.348Z</time></trkpt><trkpt lat="44.5002033" lon="8.0335383"><ele>601.6</ele><time>2026-05-01T12:57:53.355Z</time></trkpt><trkpt lat="44.5001133" lon="8.0334883"><ele>602.4</ele><time>2026-05-01T12:57:54.352Z</time></trkpt><trkpt lat="44.50001" lon="8.0334283"><ele>603.2</ele><time>2026-05-01T12:57:55.356Z</time></trkpt><trkpt lat="44.4998817" lon="8.0333717"><ele>604.0</ele><time>2026-05-01T12:57:56.351Z</time></trkpt><trkpt lat="44.4997433" lon="8.0333533"><ele>604.0</ele><time>2026-05-01T12:57:57.351Z</time></trkpt><trkpt lat="44.4995883" lon="8.0333617"><ele>604.0</ele><time>2026-05-01T12:57:58.354Z</time></trkpt><trkpt lat="44.4994233" lon="8.0333967"><ele>604.0</ele><time>2026-05-01T12:57:59.35Z</time></trkpt><trkpt lat="44.4992483" lon="8.0334467"><ele>603.0</ele><time>2026-05-01T12:58:00.353Z</time></trkpt><trkpt lat="44.499065" lon="8.0335033"><ele>602.0</ele><time>2026-05-01T12:58:01.349Z</time></trkpt><trkpt lat="44.498885" lon="8.0335533"><ele>601.0</ele><time>2026-05-01T12:58:02.352Z</time></trkpt><trkpt lat="44.49872" lon="8.0335983"><ele>599.0</ele><time>2026-05-01T12:58:03.352Z</time></trkpt><trkpt lat="44.498575" lon="8.03365"><ele>597.0</ele><time>2026-05-01T12:58:04.352Z</time></trkpt><trkpt lat="44.498455" lon="8.0337233"><ele>595.0</ele><time>2026-05-01T12:58:05.351Z</time></trkpt><trkpt lat="44.4983567" lon="8.0338417"><ele>593.0</ele><time>2026-05-01T12:58:06.354Z</time></trkpt><trkpt lat="44.4982733" lon="8.034005"><ele>597.25</ele><time>2026-05-01T12:58:07.357Z</time></trkpt><trkpt lat="44.4982033" lon="8.03419"><ele>601.5</ele><time>2026-05-01T12:58:08.351Z</time></trkpt><trkpt lat="44.49815" lon="8.034385"><ele>605.75</ele><time>2026-05-01T12:58:09.352Z</time></trkpt><trkpt lat="44.4981233" lon="8.0345883"><ele>610.0</ele><time>2026-05-01T12:58:10.351Z</time></trkpt><trkpt lat="44.498135" lon="8.0347983"><ele>612.5</ele><time>2026-05-01T12:58:11.353Z</time></trkpt><trkpt lat="44.498165" lon="8.0350033"><ele>615.0</ele><time>2026-05-01T12:58:12.353Z</time></trkpt><trkpt lat="44.4981933" lon="8.0352017"><ele>617.5</ele><time>2026-05-01T12:58:13.354Z</time></trkpt><trkpt lat="44.4981933" lon="8.035385"><ele>620.0</ele><time>2026-05-01T12:58:14.35Z</time></trkpt><trkpt lat="44.49815" lon="8.035545"><ele>620.0</ele><time>2026-05-01T12:58:15.353Z</time></trkpt><trkpt lat="44.4980683" lon="8.0356717"><ele>620.0</ele><time>2026-05-01T12:58:16.353Z</time></trkpt><trkpt lat="44.4979517" lon="8.03577"><ele>620.0</ele><time>2026-05-01T12:58:17.354Z</time></trkpt><trkpt lat="44.497815" lon="8.035865"><ele>620.0</ele><time>2026-05-01T12:58:18.354Z</time></trkpt><trkpt lat="44.4976633" lon="8.03597"><ele>619.6666666666666</ele><time>2026-05-01T12:58:19.351Z</time></trkpt><trkpt lat="44.4975017" lon="8.0360867"><ele>619.3333333333334</ele><time>2026-05-01T12:58:20.356Z</time></trkpt><trkpt lat="44.4973467" lon="8.0362083"><ele>619.0</ele><time>2026-05-01T12:58:21.352Z</time></trkpt><trkpt lat="44.4971967" lon="8.0363267"><ele>619.75</ele><time>2026-05-01T12:58:22.352Z</time></trkpt><trkpt lat="44.4970633" lon="8.036435"><ele>620.5</ele><time>2026-05-01T12:58:23.353Z</time></trkpt><trkpt lat="44.4969483" lon="8.0365517"><ele>621.25</ele><time>2026-05-01T12:58:24.35Z</time></trkpt><trkpt lat="44.4968533" lon="8.0367"><ele>622.0</ele><time>2026-05-01T12:58:25.353Z</time></trkpt><trkpt lat="44.49678" lon="8.036885"><ele>622.0</ele><time>2026-05-01T12:58:26.349Z</time></trkpt><trkpt lat="44.4967133" lon="8.037095"><ele>622.0</ele><time>2026-05-01T12:58:27.348Z</time></trkpt><trkpt lat="44.4966433" lon="8.0373333"><ele>622.0</ele><time>2026-05-01T12:58:28.352Z</time></trkpt><trkpt lat="44.4965683" lon="8.03758"><ele>625.0</ele><time>2026-05-01T12:58:29.35Z</time></trkpt><trkpt lat="44.4965017" lon="8.0378217"><ele>628.0</ele><time>2026-05-01T12:58:30.351Z</time></trkpt><trkpt lat="44.4964433" lon="8.03804"><ele>631.0</ele><time>2026-05-01T12:58:31.35Z</time></trkpt><trkpt lat="44.4963883" lon="8.038235"><ele>631.25</ele><time>2026-05-01T12:58:32.351Z</time></trkpt><trkpt lat="44.4963167" lon="8.038375"><ele>631.5</ele><time>2026-05-01T12:58:33.355Z</time></trkpt><trkpt lat="44.4962217" lon="8.0384733"><ele>631.75</ele><time>2026-05-01T12:58:34.349Z</time></trkpt><trkpt lat="44.4961083" lon="8.03852"><ele>632.0</ele><time>2026-05-01T12:58:35.353Z</time></trkpt><trkpt lat="44.49598" lon="8.0385467"><ele>632.0</ele><time>2026-05-01T12:58:36.353Z</time></trkpt><trkpt lat="44.4958383" lon="8.0385883"><ele>632.0</ele><time>2026-05-01T12:58:37.35Z</time></trkpt><trkpt lat="44.4957117" lon="8.038675"><ele>632.0</ele><time>2026-05-01T12:58:38.349Z</time></trkpt><trkpt lat="44.4956033" lon="8.03882"><ele>632.0</ele><time>2026-05-01T12:58:39.35Z</time></trkpt><trkpt lat="44.4955" lon="8.038995"><ele>634.3333333333333</ele><time>2026-05-01T12:58:40.35Z</time></trkpt><trkpt lat="44.4953917" lon="8.0391867"><ele>636.6666666666666</ele><time>2026-05-01T12:58:41.351Z</time></trkpt><trkpt lat="44.4952833" lon="8.03938"><ele>639.0</ele><time>2026-05-01T12:58:42.349Z</time></trkpt><trkpt lat="44.495185" lon="8.03956"><ele>639.0</ele><time>2026-05-01T12:58:43.348Z</time></trkpt><trkpt lat="44.4950883" lon="8.0397017"><ele>639.0</ele><time>2026-05-01T12:58:44.351Z</time></trkpt><trkpt lat="44.4949883" lon="8.039795"><ele>639.0</ele><time>2026-05-01T12:58:45.35Z</time></trkpt><trkpt lat="44.49487" lon="8.0398367"><ele>639.0</ele><time>2026-05-01T12:58:46.355Z</time></trkpt><trkpt lat="44.49474" lon="8.0398283"><ele>639.0</ele><time>2026-05-01T12:58:47.35Z</time></trkpt><trkpt lat="44.4946117" lon="8.0397817"><ele>639.0</ele><time>2026-05-01T12:58:48.35Z</time></trkpt><trkpt lat="44.4944883" lon="8.0397267"><ele>639.0</ele><time>2026-05-01T12:58:49.353Z</time></trkpt><trkpt lat="44.4943683" lon="8.0396967"><ele>639.0</ele><time>2026-05-01T12:58:50.35Z</time></trkpt><trkpt lat="44.4942383" lon="8.0397233"><ele>639.0</ele><time>2026-05-01T12:58:51.35Z</time></trkpt><trkpt lat="44.4941083" lon="8.0397983"><ele>639.0</ele><time>2026-05-01T12:58:52.35Z</time></trkpt><trkpt lat="44.49399" lon="8.03993"><ele>639.0</ele><time>2026-05-01T12:58:53.35Z</time></trkpt><trkpt lat="44.4938833" lon="8.0400967"><ele>641.3333333333334</ele><time>2026-05-01T12:58:54.35Z</time></trkpt><trkpt lat="44.493785" lon="8.040295"><ele>643.6666666666667</ele><time>2026-05-01T12:58:55.35Z</time></trkpt><trkpt lat="44.493685" lon="8.0405083"><ele>646.0</ele><time>2026-05-01T12:58:56.35Z</time></trkpt><trkpt lat="44.49358" lon="8.0407267"><ele>648.6666666666667</ele><time>2026-05-01T12:58:57.351Z</time></trkpt><trkpt lat="44.4934833" lon="8.0409383"><ele>651.3333333333334</ele><time>2026-05-01T12:58:58.349Z</time></trkpt><trkpt lat="44.4933917" lon="8.0411333"><ele>654.0</ele><time>2026-05-01T12:58:59.351Z</time></trkpt><trkpt lat="44.4933183" lon="8.0412933"><ele>654.0</ele><time>2026-05-01T12:59:00.35Z</time></trkpt><trkpt lat="44.4932717" lon="8.041425"><ele>654.0</ele><time>2026-05-01T12:59:01.351Z</time></trkpt><trkpt lat="44.4932467" lon="8.0415333"><ele>654.0</ele><time>2026-05-01T12:59:02.354Z</time></trkpt><trkpt lat="44.4932683" lon="8.041625"><ele>654.0</ele><time>2026-05-01T12:59:03.352Z</time></trkpt><trkpt lat="44.4933133" lon="8.0416967"><ele>654.0</ele><time>2026-05-01T12:59:04.356Z</time></trkpt><trkpt lat="44.4934133" lon="8.0417067"><ele>654.0</ele><time>2026-05-01T12:59:05.353Z</time></trkpt><trkpt lat="44.493515" lon="8.0416533"><ele>654.0</ele><time>2026-05-01T12:59:06.348Z</time></trkpt><trkpt lat="44.49363" lon="8.04155"><ele>654.0</ele><time>2026-05-01T12:59:07.351Z</time></trkpt><trkpt lat="44.49375" lon="8.0414267"><ele>654.0</ele><time>2026-05-01T12:59:08.349Z</time></trkpt><trkpt lat="44.49387" lon="8.0412917"><ele>654.0</ele><time>2026-05-01T12:59:09.355Z</time></trkpt><trkpt lat="44.4939983" lon="8.0411583"><ele>656.6666666666666</ele><time>2026-05-01T12:59:10.35Z</time></trkpt><trkpt lat="44.4941267" lon="8.0410467"><ele>659.3333333333333</ele><time>2026-05-01T12:59:11.349Z</time></trkpt><trkpt lat="44.494265" lon="8.0409683"><ele>662.0</ele><time>2026-05-01T12:59:12.352Z</time></trkpt><trkpt lat="44.4944167" lon="8.040945"><ele>662.0</ele><time>2026-05-01T12:59:13.352Z</time></trkpt><trkpt lat="44.4945867" lon="8.0409567"><ele>662.0</ele><time>2026-05-01T12:59:14.35Z</time></trkpt><trkpt lat="44.4947667" lon="8.0409867"><ele>662.0</ele><time>2026-05-01T12:59:15.354Z</time></trkpt><trkpt lat="44.4949483" lon="8.041015"><ele>664.6666666666666</ele><time>2026-05-01T12:59:16.352Z</time></trkpt><trkpt lat="44.49513" lon="8.0410217"><ele>667.3333333333334</ele><time>2026-05-01T12:59:17.349Z</time></trkpt><trkpt lat="44.495315" lon="8.0409933"><ele>670.0</ele><time>2026-05-01T12:59:18.352Z</time></trkpt><trkpt lat="44.4954917" lon="8.04092"><ele>669.3333333333334</ele><time>2026-05-01T12:59:19.351Z</time></trkpt><trkpt lat="44.4956517" lon="8.040805"><ele>668.6666666666666</ele><time>2026-05-01T12:59:20.353Z</time></trkpt><trkpt lat="44.4957833" lon="8.0406633"><ele>668.0</ele><time>2026-05-01T12:59:21.351Z</time></trkpt><trkpt lat="44.4958883" lon="8.04052"><ele>668.0</ele><time>2026-05-01T12:59:22.355Z</time></trkpt><trkpt lat="44.4959783" lon="8.0404017"><ele>668.0</ele><time>2026-05-01T12:59:23.353Z</time></trkpt><trkpt lat="44.4960617" lon="8.04034"><ele>668.0</ele><time>2026-05-01T12:59:24.349Z</time></trkpt><trkpt lat="44.49614" lon="8.0403167"><ele>668.0</ele><time>2026-05-01T12:59:25.349Z</time></trkpt><trkpt lat="44.4962033" lon="8.040375"><ele>668.0</ele><time>2026-05-01T12:59:26.348Z</time></trkpt><trkpt lat="44.4962517" lon="8.04045"><ele>668.0</ele><time>2026-05-01T12:59:27.35Z</time></trkpt><trkpt lat="44.496215" lon="8.0405783"><ele>668.0</ele><time>2026-05-01T12:59:28.349Z</time></trkpt><trkpt lat="44.4961417" lon="8.04067"><ele>668.0</ele><time>2026-05-01T12:59:29.35Z</time></trkpt><trkpt lat="44.4960533" lon="8.0407383"><ele>668.0</ele><time>2026-05-01T12:59:30.351Z</time></trkpt><trkpt lat="44.49595" lon="8.040805"><ele>668.0</ele><time>2026-05-01T12:59:31.357Z</time></trkpt><trkpt lat="44.495835" lon="8.0409333"><ele>674.6666666666666</ele><time>2026-05-01T12:59:32.353Z</time></trkpt><trkpt lat="44.4957233" lon="8.0410983"><ele>681.3333333333334</ele><time>2026-05-01T12:59:33.353Z</time></trkpt><trkpt lat="44.4956067" lon="8.041275"><ele>688.0</ele><time>2026-05-01T12:59:34.35Z</time></trkpt><trkpt lat="44.4954717" lon="8.0414583"><ele>687.3333333333334</ele><time>2026-05-01T12:59:35.352Z</time></trkpt><trkpt lat="44.4953283" lon="8.041655"><ele>686.6666666666666</ele><time>2026-05-01T12:59:36.352Z</time></trkpt><trkpt lat="44.4951867" lon="8.0418567"><ele>686.0</ele><time>2026-05-01T12:59:37.352Z</time></trkpt><trkpt lat="44.4950433" lon="8.0420533"><ele>686.0</ele><time>2026-05-01T12:59:38.352Z</time></trkpt><trkpt lat="44.4949017" lon="8.0422583"><ele>686.0</ele><time>2026-05-01T12:59:39.352Z</time></trkpt><trkpt lat="44.4947567" lon="8.042485"><ele>686.0</ele><time>2026-05-01T12:59:40.356Z</time></trkpt><trkpt lat="44.494615" lon="8.0426933"><ele>687.0</ele><time>2026-05-01T12:59:41.35Z</time></trkpt><trkpt lat="44.4944617" lon="8.042885"><ele>688.0</ele><time>2026-05-01T12:59:42.35Z</time></trkpt><trkpt lat="44.494295" lon="8.0430533"><ele>689.0</ele><time>2026-05-01T12:59:43.351Z</time></trkpt><trkpt lat="44.4941133" lon="8.0431917"><ele>694.3333333333333</ele><time>2026-05-01T12:59:44.35Z</time></trkpt><trkpt lat="44.4939233" lon="8.043315"><ele>699.6666666666666</ele><time>2026-05-01T12:59:45.349Z</time></trkpt><trkpt lat="44.4937283" lon="8.0434233"><ele>705.0</ele><time>2026-05-01T12:59:46.351Z</time></trkpt><trkpt lat="44.4935383" lon="8.0435283"><ele>705.0</ele><time>2026-05-01T12:59:47.349Z</time></trkpt><trkpt lat="44.4933583" lon="8.0436267"><ele>705.0</ele><time>2026-05-01T12:59:48.356Z</time></trkpt><trkpt lat="44.4931933" lon="8.0437167"><ele>705.0</ele><time>2026-05-01T12:59:49.354Z</time></trkpt><trkpt lat="44.49304" lon="8.0437817"><ele>705.75</ele><time>2026-05-01T12:59:50.349Z</time></trkpt><trkpt lat="44.4928983" lon="8.0438183"><ele>706.5</ele><time>2026-05-01T12:59:51.35Z</time></trkpt><trkpt lat="44.4927733" lon="8.0438417"><ele>707.25</ele><time>2026-05-01T12:59:52.351Z</time></trkpt><trkpt lat="44.4926633" lon="8.0438617"><ele>708.0</ele><time>2026-05-01T12:59:53.353Z</time></trkpt><trkpt lat="44.4925783" lon="8.0438867"><ele>708.0</ele><time>2026-05-01T12:59:54.35Z</time></trkpt><trkpt lat="44.4925183" lon="8.0439233"><ele>708.0</ele><time>2026-05-01T12:59:55.349Z</time></trkpt><trkpt lat="44.4924533" lon="8.044025"><ele>708.0</ele><time>2026-05-01T12:59:57.35Z</time></trkpt><trkpt lat="44.4923533" lon="8.04413"><ele>708.0</ele><time>2026-05-01T12:59:59.351Z</time></trkpt><trkpt lat="44.4922633" lon="8.044175"><ele>708.0</ele><time>2026-05-01T13:00:00.349Z</time></trkpt><trkpt lat="44.4921483" lon="8.0442383"><ele>712.0</ele><time>2026-05-01T13:00:01.354Z</time></trkpt><trkpt lat="44.4920067" lon="8.0443567"><ele>716.0</ele><time>2026-05-01T13:00:02.351Z</time></trkpt><trkpt lat="44.4918667" lon="8.0444867"><ele>720.0</ele><time>2026-05-01T13:00:03.352Z</time></trkpt><trkpt lat="44.4917283" lon="8.0446317"><ele>720.0</ele><time>2026-05-01T13:00:04.351Z</time></trkpt><trkpt lat="44.4915917" lon="8.0447783"><ele>720.0</ele><time>2026-05-01T13:00:05.351Z</time></trkpt><trkpt lat="44.4914667" lon="8.0449217"><ele>720.0</ele><time>2026-05-01T13:00:06.349Z</time></trkpt><trkpt lat="44.4913483" lon="8.0450567"><ele>722.25</ele><time>2026-05-01T13:00:07.353Z</time></trkpt><trkpt lat="44.4912583" lon="8.0451967"><ele>724.5</ele><time>2026-05-01T13:00:08.35Z</time></trkpt><trkpt lat="44.4912017" lon="8.0453517"><ele>726.75</ele><time>2026-05-01T13:00:09.356Z</time></trkpt><trkpt lat="44.4911717" lon="8.0455133"><ele>729.0</ele><time>2026-05-01T13:00:10.351Z</time></trkpt><trkpt lat="44.49116" lon="8.0456883"><ele>726.5</ele><time>2026-05-01T13:00:11.353Z</time></trkpt><trkpt lat="44.4911633" lon="8.0458717"><ele>724.0</ele><time>2026-05-01T13:00:12.351Z</time></trkpt><trkpt lat="44.49115" lon="8.0460567"><ele>721.5</ele><time>2026-05-01T13:00:13.351Z</time></trkpt><trkpt lat="44.4911233" lon="8.0462317"><ele>719.0</ele><time>2026-05-01T13:00:14.349Z</time></trkpt><trkpt lat="44.4910717" lon="8.0463933"><ele>719.0</ele><time>2026-05-01T13:00:15.349Z</time></trkpt><trkpt lat="44.49099" lon="8.0465383"><ele>719.0</ele><time>2026-05-01T13:00:16.351Z</time></trkpt><trkpt lat="44.4908767" lon="8.046665"><ele>719.0</ele><time>2026-05-01T13:00:17.35Z</time></trkpt><trkpt lat="44.4907533" lon="8.04681"><ele>719.0</ele><time>2026-05-01T13:00:18.35Z</time></trkpt><trkpt lat="44.490625" lon="8.0469767"><ele>722.0</ele><time>2026-05-01T13:00:19.352Z</time></trkpt><trkpt lat="44.4905017" lon="8.0471517"><ele>725.0</ele><time>2026-05-01T13:00:20.349Z</time></trkpt><trkpt lat="44.4903833" lon="8.047325"><ele>728.0</ele><time>2026-05-01T13:00:21.35Z</time></trkpt><trkpt lat="44.4902767" lon="8.0474783"><ele>721.25</ele><time>2026-05-01T13:00:22.348Z</time></trkpt><trkpt lat="44.490165" lon="8.0475917"><ele>714.5</ele><time>2026-05-01T13:00:23.348Z</time></trkpt><trkpt lat="44.4900317" lon="8.0476533"><ele>707.75</ele><time>2026-05-01T13:00:24.354Z</time></trkpt><trkpt lat="44.4898817" lon="8.0476733"><ele>701.0</ele><time>2026-05-01T13:00:25.351Z</time></trkpt><trkpt lat="44.489725" lon="8.0476783"><ele>701.5</ele><time>2026-05-01T13:00:26.353Z</time></trkpt><trkpt lat="44.4895717" lon="8.0476883"><ele>702.0</ele><time>2026-05-01T13:00:27.353Z</time></trkpt><trkpt lat="44.4894283" lon="8.0477233"><ele>702.5</ele><time>2026-05-01T13:00:28.35Z</time></trkpt><trkpt lat="44.4893017" lon="8.0477933"><ele>703.0</ele><time>2026-05-01T13:00:29.349Z</time></trkpt><trkpt lat="44.489195" lon="8.0478533"><ele>703.0</ele><time>2026-05-01T13:00:30.35Z</time></trkpt><trkpt lat="44.4890967" lon="8.04788"><ele>703.0</ele><time>2026-05-01T13:00:31.348Z</time></trkpt><trkpt lat="44.4890033" lon="8.0478633"><ele>703.0</ele><time>2026-05-01T13:00:32.348Z</time></trkpt><trkpt lat="44.4889267" lon="8.0477833"><ele>703.0</ele><time>2026-05-01T13:00:33.352Z</time></trkpt><trkpt lat="44.488865" lon="8.0476517"><ele>703.0</ele><time>2026-05-01T13:00:34.35Z</time></trkpt><trkpt lat="44.4888033" lon="8.0475117"><ele>703.6666666666667</ele><time>2026-05-01T13:00:35.349Z</time></trkpt><trkpt lat="44.48874" lon="8.047395"><ele>704.3333333333334</ele><time>2026-05-01T13:00:36.349Z</time></trkpt><trkpt lat="44.4886717" lon="8.0473217"><ele>705.0</ele><time>2026-05-01T13:00:37.35Z</time></trkpt><trkpt lat="44.4886" lon="8.0473033"><ele>705.6666666666666</ele><time>2026-05-01T13:00:38.353Z</time></trkpt><trkpt lat="44.488545" lon="8.0473467"><ele>706.3333333333333</ele><time>2026-05-01T13:00:39.351Z</time></trkpt><trkpt lat="44.48851" lon="8.0474317"><ele>707.0</ele><time>2026-05-01T13:00:40.355Z</time></trkpt><trkpt lat="44.4885267" lon="8.0475617"><ele>706.0</ele><time>2026-05-01T13:00:41.352Z</time></trkpt><trkpt lat="44.48858" lon="8.047705"><ele>705.0</ele><time>2026-05-01T13:00:42.349Z</time></trkpt><trkpt lat="44.488655" lon="8.047875"><ele>704.0</ele><time>2026-05-01T13:00:43.355Z</time></trkpt><trkpt lat="44.488715" lon="8.048055"><ele>703.0</ele><time>2026-05-01T13:00:44.354Z</time></trkpt><trkpt lat="44.4887633" lon="8.0482367"><ele>696.75</ele><time>2026-05-01T13:00:45.35Z</time></trkpt><trkpt lat="44.48882" lon="8.048405"><ele>690.5</ele><time>2026-05-01T13:00:46.35Z</time></trkpt><trkpt lat="44.488895" lon="8.04853"><ele>684.25</ele><time>2026-05-01T13:00:47.353Z</time></trkpt><trkpt lat="44.4889833" lon="8.0486"><ele>678.0</ele><time>2026-05-01T13:00:48.349Z</time></trkpt><trkpt lat="44.4890867" lon="8.048625"><ele>678.0</ele><time>2026-05-01T13:00:49.351Z</time></trkpt><trkpt lat="44.489205" lon="8.048575"><ele>678.0</ele><time>2026-05-01T13:00:50.354Z</time></trkpt><trkpt lat="44.489335" lon="8.0485"><ele>678.0</ele><time>2026-05-01T13:00:51.352Z</time></trkpt><trkpt lat="44.4894767" lon="8.04842"><ele>678.0</ele><time>2026-05-01T13:00:52.352Z</time></trkpt><trkpt lat="44.4896267" lon="8.0483633"><ele>676.5</ele><time>2026-05-01T13:00:53.353Z</time></trkpt><trkpt lat="44.4897717" lon="8.0483567"><ele>675.0</ele><time>2026-05-01T13:00:54.351Z</time></trkpt><trkpt lat="44.489915" lon="8.04839"><ele>673.5</ele><time>2026-05-01T13:00:55.353Z</time></trkpt><trkpt lat="44.4900533" lon="8.0484767"><ele>672.0</ele><time>2026-05-01T13:00:56.353Z</time></trkpt><trkpt lat="44.4901833" lon="8.0485833"><ele>672.0</ele><time>2026-05-01T13:00:57.352Z</time></trkpt><trkpt lat="44.4903033" lon="8.0486783"><ele>672.0</ele><time>2026-05-01T13:00:58.352Z</time></trkpt><trkpt lat="44.490415" lon="8.048735"><ele>672.0</ele><time>2026-05-01T13:00:59.353Z</time></trkpt><trkpt lat="44.4905233" lon="8.0487483"><ele>672.0</ele><time>2026-05-01T13:01:00.348Z</time></trkpt><trkpt lat="44.4906367" lon="8.048695"><ele>670.0</ele><time>2026-05-01T13:01:01.353Z</time></trkpt><trkpt lat="44.4907517" lon="8.048575"><ele>668.0</ele><time>2026-05-01T13:01:02.348Z</time></trkpt><trkpt lat="44.4908517" lon="8.048405"><ele>666.0</ele><time>2026-05-01T13:01:03.353Z</time></trkpt><trkpt lat="44.49095" lon="8.048255"><ele>664.0</ele><time>2026-05-01T13:01:04.35Z</time></trkpt><trkpt lat="44.491045" lon="8.0481317"><ele>666.0</ele><time>2026-05-01T13:01:05.359Z</time></trkpt><trkpt lat="44.4911433" lon="8.048075"><ele>668.0</ele><time>2026-05-01T13:01:06.351Z</time></trkpt><trkpt lat="44.4912483" lon="8.0480717"><ele>670.0</ele><time>2026-05-01T13:01:07.351Z</time></trkpt><trkpt lat="44.491365" lon="8.048105"><ele>672.0</ele><time>2026-05-01T13:01:08.352Z</time></trkpt><trkpt lat="44.4914933" lon="8.0481383"><ele>672.0</ele><time>2026-05-01T13:01:09.351Z</time></trkpt><trkpt lat="44.4916283" lon="8.0481433"><ele>672.0</ele><time>2026-05-01T13:01:10.35Z</time></trkpt><trkpt lat="44.4917683" lon="8.0481"><ele>672.0</ele><time>2026-05-01T13:01:11.349Z</time></trkpt><trkpt lat="44.4919067" lon="8.0479967"><ele>672.0</ele><time>2026-05-01T13:01:12.353Z</time></trkpt><trkpt lat="44.4920317" lon="8.0478467"><ele>666.0</ele><time>2026-05-01T13:01:13.353Z</time></trkpt><trkpt lat="44.4921333" lon="8.047655"><ele>660.0</ele><time>2026-05-01T13:01:14.35Z</time></trkpt><trkpt lat="44.4922133" lon="8.047455"><ele>654.0</ele><time>2026-05-01T13:01:15.352Z</time></trkpt><trkpt lat="44.49228" lon="8.0472733"><ele>654.0</ele><time>2026-05-01T13:01:16.352Z</time></trkpt><trkpt lat="44.4923283" lon="8.04712"><ele>654.0</ele><time>2026-05-01T13:01:17.349Z</time></trkpt><trkpt lat="44.49237" lon="8.0469917"><ele>654.0</ele><time>2026-05-01T13:01:18.354Z</time></trkpt><trkpt lat="44.4924167" lon="8.046905"><ele>654.0</ele><time>2026-05-01T13:01:19.349Z</time></trkpt><trkpt lat="44.4925017" lon="8.0468783"><ele>654.0</ele><time>2026-05-01T13:01:21.353Z</time></trkpt><trkpt lat="44.4925083" lon="8.047045"><ele>654.0</ele><time>2026-05-01T13:01:23.35Z</time></trkpt><trkpt lat="44.4924783" lon="8.0471733"><ele>654.0</ele><time>2026-05-01T13:01:24.351Z</time></trkpt><trkpt lat="44.4924383" lon="8.0473467"><ele>654.0</ele><time>2026-05-01T13:01:25.351Z</time></trkpt><trkpt lat="44.4923983" lon="8.047545"><ele>654.0</ele><time>2026-05-01T13:01:26.351Z</time></trkpt><trkpt lat="44.4923517" lon="8.04776"><ele>649.6666666666666</ele><time>2026-05-01T13:01:27.356Z</time></trkpt><trkpt lat="44.4922983" lon="8.0479633"><ele>645.3333333333333</ele><time>2026-05-01T13:01:28.349Z</time></trkpt><trkpt lat="44.492225" lon="8.0481567"><ele>641.0</ele><time>2026-05-01T13:01:29.351Z</time></trkpt><trkpt lat="44.49213" lon="8.04834"><ele>643.3333333333333</ele><time>2026-05-01T13:01:30.351Z</time></trkpt><trkpt lat="44.4920133" lon="8.0485117"><ele>645.6666666666666</ele><time>2026-05-01T13:01:31.351Z</time></trkpt><trkpt lat="44.4918817" lon="8.0486683"><ele>648.0</ele><time>2026-05-01T13:01:32.349Z</time></trkpt><trkpt lat="44.4917383" lon="8.0487983"><ele>648.0</ele><time>2026-05-01T13:01:33.353Z</time></trkpt><trkpt lat="44.4915833" lon="8.0489067"><ele>648.0</ele><time>2026-05-01T13:01:34.353Z</time></trkpt><trkpt lat="44.491435" lon="8.0490083"><ele>648.0</ele><time>2026-05-01T13:01:35.352Z</time></trkpt><trkpt lat="44.4913133" lon="8.0491317"><ele>646.25</ele><time>2026-05-01T13:01:36.349Z</time></trkpt><trkpt lat="44.4912217" lon="8.0492767"><ele>644.5</ele><time>2026-05-01T13:01:37.355Z</time></trkpt><trkpt lat="44.4911533" lon="8.0494317"><ele>642.75</ele><time>2026-05-01T13:01:38.351Z</time></trkpt><trkpt lat="44.491085" lon="8.04958"><ele>641.0</ele><time>2026-05-01T13:01:39.353Z</time></trkpt><trkpt lat="44.4910067" lon="8.049705"><ele>641.0</ele><time>2026-05-01T13:01:40.352Z</time></trkpt><trkpt lat="44.4909083" lon="8.04978"><ele>641.0</ele><time>2026-05-01T13:01:41.351Z</time></trkpt><trkpt lat="44.49079" lon="8.04981"><ele>641.0</ele><time>2026-05-01T13:01:42.351Z</time></trkpt><trkpt lat="44.4906517" lon="8.0498233"><ele>641.0</ele><time>2026-05-01T13:01:43.354Z</time></trkpt><trkpt lat="44.4904967" lon="8.0498367"><ele>641.3333333333333</ele><time>2026-05-01T13:01:44.352Z</time></trkpt><trkpt lat="44.4903317" lon="8.0498367"><ele>641.6666666666666</ele><time>2026-05-01T13:01:45.353Z</time></trkpt><trkpt lat="44.4901683" lon="8.0498367"><ele>642.0</ele><time>2026-05-01T13:01:46.351Z</time></trkpt><trkpt lat="44.49001" lon="8.049855"><ele>642.0</ele><time>2026-05-01T13:01:47.353Z</time></trkpt><trkpt lat="44.4898617" lon="8.0499133"><ele>642.0</ele><time>2026-05-01T13:01:48.351Z</time></trkpt><trkpt lat="44.4897283" lon="8.0500117"><ele>642.0</ele><time>2026-05-01T13:01:49.349Z</time></trkpt><trkpt lat="44.4896083" lon="8.0501283"><ele>636.25</ele><time>2026-05-01T13:01:50.352Z</time></trkpt><trkpt lat="44.4894867" lon="8.050225"><ele>630.5</ele><time>2026-05-01T13:01:51.353Z</time></trkpt><trkpt lat="44.4893483" lon="8.05028"><ele>624.75</ele><time>2026-05-01T13:01:52.352Z</time></trkpt><trkpt lat="44.4891867" lon="8.0502917"><ele>619.0</ele><time>2026-05-01T13:01:53.356Z</time></trkpt><trkpt lat="44.4890217" lon="8.0503"><ele>619.0</ele><time>2026-05-01T13:01:54.356Z</time></trkpt><trkpt lat="44.488855" lon="8.0503183"><ele>619.0</ele><time>2026-05-01T13:01:55.354Z</time></trkpt><trkpt lat="44.4887033" lon="8.0503617"><ele>619.0</ele><time>2026-05-01T13:01:56.356Z</time></trkpt><trkpt lat="44.48857" lon="8.0504133"><ele>616.75</ele><time>2026-05-01T13:01:57.357Z</time></trkpt><trkpt lat="44.4884533" lon="8.0504383"><ele>614.5</ele><time>2026-05-01T13:01:58.352Z</time></trkpt><trkpt lat="44.4883483" lon="8.0504283"><ele>612.25</ele><time>2026-05-01T13:01:59.353Z</time></trkpt><trkpt lat="44.48826" lon="8.0503467"><ele>610.0</ele><time>2026-05-01T13:02:00.353Z</time></trkpt><trkpt lat="44.4881867" lon="8.0502083"><ele>610.0</ele><time>2026-05-01T13:02:01.35Z</time></trkpt><trkpt lat="44.4881133" lon="8.0500683"><ele>610.0</ele><time>2026-05-01T13:02:02.351Z</time></trkpt><trkpt lat="44.4880367" lon="8.04995"><ele>610.0</ele><time>2026-05-01T13:02:03.354Z</time></trkpt><trkpt lat="44.48795" lon="8.0498833"><ele>610.0</ele><time>2026-05-01T13:02:04.354Z</time></trkpt><trkpt lat="44.48786" lon="8.0498783"><ele>610.0</ele><time>2026-05-01T13:02:05.353Z</time></trkpt><trkpt lat="44.4877783" lon="8.0499183"><ele>610.5</ele><time>2026-05-01T13:02:06.349Z</time></trkpt><trkpt lat="44.48772" lon="8.0500483"><ele>611.0</ele><time>2026-05-01T13:02:07.351Z</time></trkpt><trkpt lat="44.4876667" lon="8.0502117"><ele>611.5</ele><time>2026-05-01T13:02:08.352Z</time></trkpt><trkpt lat="44.4875983" lon="8.05038"><ele>612.0</ele><time>2026-05-01T13:02:09.348Z</time></trkpt><trkpt lat="44.4875117" lon="8.050555"><ele>612.0</ele><time>2026-05-01T13:02:10.351Z</time></trkpt><trkpt lat="44.487405" lon="8.0507267"><ele>612.0</ele><time>2026-05-01T13:02:11.35Z</time></trkpt><trkpt lat="44.4872967" lon="8.050925"><ele>612.0</ele><time>2026-05-01T13:02:12.352Z</time></trkpt><trkpt lat="44.48717" lon="8.05111"><ele>613.3333333333334</ele><time>2026-05-01T13:02:13.351Z</time></trkpt><trkpt lat="44.4870467" lon="8.0512883"><ele>614.6666666666667</ele><time>2026-05-01T13:02:14.351Z</time></trkpt><trkpt lat="44.4869267" lon="8.051455"><ele>616.0</ele><time>2026-05-01T13:02:15.354Z</time></trkpt><trkpt lat="44.4868083" lon="8.0515833"><ele>608.5</ele><time>2026-05-01T13:02:16.352Z</time></trkpt><trkpt lat="44.486675" lon="8.051665"><ele>601.0</ele><time>2026-05-01T13:02:17.35Z</time></trkpt><trkpt lat="44.4865367" lon="8.0517233"><ele>593.5</ele><time>2026-05-01T13:02:18.354Z</time></trkpt><trkpt lat="44.4863967" lon="8.05179"><ele>586.0</ele><time>2026-05-01T13:02:19.349Z</time></trkpt><trkpt lat="44.4862833" lon="8.0518933"><ele>587.25</ele><time>2026-05-01T13:02:20.353Z</time></trkpt><trkpt lat="44.4862" lon="8.052025"><ele>588.5</ele><time>2026-05-01T13:02:21.351Z</time></trkpt><trkpt lat="44.4861617" lon="8.0521917"><ele>589.75</ele><time>2026-05-01T13:02:22.349Z</time></trkpt><trkpt lat="44.4861617" lon="8.0523783"><ele>591.0</ele><time>2026-05-01T13:02:23.35Z</time></trkpt><trkpt lat="44.486205" lon="8.0525867"><ele>584.0</ele><time>2026-05-01T13:02:24.35Z</time></trkpt><trkpt lat="44.4862783" lon="8.0528067"><ele>577.0</ele><time>2026-05-01T13:02:25.348Z</time></trkpt><trkpt lat="44.4863783" lon="8.0530417"><ele>570.0</ele><time>2026-05-01T13:02:26.349Z</time></trkpt><trkpt lat="44.4864917" lon="8.0532867"><ele>568.6666666666666</ele><time>2026-05-01T13:02:27.348Z</time></trkpt><trkpt lat="44.4866067" lon="8.0535383"><ele>567.3333333333333</ele><time>2026-05-01T13:02:28.348Z</time></trkpt><trkpt lat="44.4867167" lon="8.0537867"><ele>566.0</ele><time>2026-05-01T13:02:29.348Z</time></trkpt><trkpt lat="44.4868267" lon="8.0540283"><ele>565.3333333333333</ele><time>2026-05-01T13:02:30.354Z</time></trkpt><trkpt lat="44.486925" lon="8.05425"><ele>564.6666666666666</ele><time>2026-05-01T13:02:31.352Z</time></trkpt><trkpt lat="44.4870217" lon="8.0544617"><ele>564.0</ele><time>2026-05-01T13:02:32.348Z</time></trkpt><trkpt lat="44.4871167" lon="8.0546717"><ele>564.0</ele><time>2026-05-01T13:02:33.355Z</time></trkpt><trkpt lat="44.4872017" lon="8.054865"><ele>564.0</ele><time>2026-05-01T13:02:34.352Z</time></trkpt><trkpt lat="44.4872783" lon="8.0550333"><ele>564.0</ele><time>2026-05-01T13:02:35.351Z</time></trkpt><trkpt lat="44.4873467" lon="8.0551833"><ele>564.0</ele><time>2026-05-01T13:02:36.352Z</time></trkpt><trkpt lat="44.4874133" lon="8.0553183"><ele>564.2</ele><time>2026-05-01T13:02:37.356Z</time></trkpt><trkpt lat="44.4874767" lon="8.0554483"><ele>564.4</ele><time>2026-05-01T13:02:38.353Z</time></trkpt><trkpt lat="44.4875467" lon="8.0555767"><ele>564.6</ele><time>2026-05-01T13:02:39.352Z</time></trkpt><trkpt lat="44.4876167" lon="8.0556967"><ele>564.8</ele><time>2026-05-01T13:02:40.351Z</time></trkpt><trkpt lat="44.487685" lon="8.0558017"><ele>565.0</ele><time>2026-05-01T13:02:41.351Z</time></trkpt><trkpt lat="44.4877433" lon="8.05589"><ele>564.9999999999999</ele><time>2026-05-01T13:02:42.349Z</time></trkpt><trkpt lat="44.48779" lon="8.055955"><ele>565.0</ele><time>2026-05-01T13:02:43.353Z</time></trkpt><trkpt lat="44.4878533" lon="8.0559783"><ele>565.0</ele><time>2026-05-01T13:02:45.354Z</time></trkpt><trkpt lat="44.4878583" lon="8.0558767"><ele>565.0</ele><time>2026-05-01T13:02:48.35Z</time></trkpt><trkpt lat="44.4878017" lon="8.0558367"><ele>565.0</ele><time>2026-05-01T13:02:50.349Z</time></trkpt><trkpt lat="44.4877117" lon="8.0557883"><ele>564.9999999999999</ele><time>2026-05-01T13:02:52.349Z</time></trkpt><trkpt lat="44.4876567" lon="8.0557167"><ele>565.0</ele><time>2026-05-01T13:02:53.351Z</time></trkpt><trkpt lat="44.4875967" lon="8.0556117"><ele>565.0</ele><time>2026-05-01T13:02:54.352Z</time></trkpt><trkpt lat="44.4875283" lon="8.0554917"><ele>565.0</ele><time>2026-05-01T13:02:55.351Z</time></trkpt><trkpt lat="44.4874633" lon="8.0553683"><ele>565.0</ele><time>2026-05-01T13:02:56.35Z</time></trkpt><trkpt lat="44.487405" lon="8.055265"><ele>565.0</ele><time>2026-05-01T13:02:57.349Z</time></trkpt><trkpt lat="44.48735" lon="8.0551917"><ele>565.0</ele><time>2026-05-01T13:02:58.35Z</time></trkpt><trkpt lat="44.487255" lon="8.0551583"><ele>565.0</ele><time>2026-05-01T13:03:00.349Z</time></trkpt><trkpt lat="44.4872033" lon="8.055215"><ele>565.0</ele><time>2026-05-01T13:03:01.35Z</time></trkpt><trkpt lat="44.4871417" lon="8.0553"><ele>565.0</ele><time>2026-05-01T13:03:02.355Z</time></trkpt><trkpt lat="44.487065" lon="8.0554133"><ele>565.0</ele><time>2026-05-01T13:03:03.349Z</time></trkpt><trkpt lat="44.4869667" lon="8.05555"><ele>565.0</ele><time>2026-05-01T13:03:04.35Z</time></trkpt><trkpt lat="44.4868633" lon="8.0556883"><ele>565.75</ele><time>2026-05-01T13:03:05.348Z</time></trkpt><trkpt lat="44.4867583" lon="8.0558367"><ele>566.5</ele><time>2026-05-01T13:03:06.349Z</time></trkpt><trkpt lat="44.4866533" lon="8.0559817"><ele>567.25</ele><time>2026-05-01T13:03:07.353Z</time></trkpt><trkpt lat="44.48654" lon="8.0561167"><ele>568.0</ele><time>2026-05-01T13:03:08.351Z</time></trkpt><trkpt lat="44.4864183" lon="8.056225"><ele>568.0</ele><time>2026-05-01T13:03:09.353Z</time></trkpt><trkpt lat="44.4862817" lon="8.0563033"><ele>568.0</ele><time>2026-05-01T13:03:10.351Z</time></trkpt><trkpt lat="44.48613" lon="8.0563633"><ele>568.0</ele><time>2026-05-01T13:03:11.352Z</time></trkpt><trkpt lat="44.4859733" lon="8.0564133"><ele>567.3333333333334</ele><time>2026-05-01T13:03:12.35Z</time></trkpt><trkpt lat="44.4858183" lon="8.0564633"><ele>566.6666666666666</ele><time>2026-05-01T13:03:13.35Z</time></trkpt><trkpt lat="44.4856717" lon="8.0565217"><ele>566.0</ele><time>2026-05-01T13:03:14.35Z</time></trkpt><trkpt lat="44.48552" lon="8.0566033"><ele>566.0</ele><time>2026-05-01T13:03:15.351Z</time></trkpt><trkpt lat="44.485375" lon="8.0567083"><ele>566.0</ele><time>2026-05-01T13:03:16.355Z</time></trkpt><trkpt lat="44.4852333" lon="8.0568367"><ele>566.0</ele><time>2026-05-01T13:03:17.355Z</time></trkpt><trkpt lat="44.4850933" lon="8.0569633"><ele>566.0</ele><time>2026-05-01T13:03:18.349Z</time></trkpt><trkpt lat="44.48496" lon="8.0570783"><ele>566.0</ele><time>2026-05-01T13:03:19.352Z</time></trkpt><trkpt lat="44.4848267" lon="8.0571667"><ele>566.0</ele><time>2026-05-01T13:03:20.357Z</time></trkpt><trkpt lat="44.484695" lon="8.0572267"><ele>566.0</ele><time>2026-05-01T13:03:21.355Z</time></trkpt><trkpt lat="44.4845567" lon="8.057255"><ele>566.0</ele><time>2026-05-01T13:03:22.361Z</time></trkpt><trkpt lat="44.484415" lon="8.0572417"><ele>566.0</ele><time>2026-05-01T13:03:23.349Z</time></trkpt><trkpt lat="44.4842633" lon="8.0571967"><ele>566.0</ele><time>2026-05-01T13:03:24.355Z</time></trkpt><trkpt lat="44.48412" lon="8.0571383"><ele>566.0</ele><time>2026-05-01T13:03:25.349Z</time></trkpt><trkpt lat="44.4839583" lon="8.0570633"><ele>566.0</ele><time>2026-05-01T13:03:26.352Z</time></trkpt><trkpt lat="44.4837983" lon="8.056985"><ele>566.0</ele><time>2026-05-01T13:03:27.35Z</time></trkpt><trkpt lat="44.483635" lon="8.0568983"><ele>566.0</ele><time>2026-05-01T13:03:28.354Z</time></trkpt><trkpt lat="44.483465" lon="8.0568133"><ele>566.3333333333333</ele><time>2026-05-01T13:03:29.351Z</time></trkpt><trkpt lat="44.4832917" lon="8.0567317"><ele>566.6666666666666</ele><time>2026-05-01T13:03:30.354Z</time></trkpt><trkpt lat="44.4831167" lon="8.0566667"><ele>567.0</ele><time>2026-05-01T13:03:31.353Z</time></trkpt><trkpt lat="44.482945" lon="8.05662"><ele>568.3333333333334</ele><time>2026-05-01T13:03:32.356Z</time></trkpt><trkpt lat="44.482785" lon="8.0565933"><ele>569.6666666666667</ele><time>2026-05-01T13:03:33.354Z</time></trkpt><trkpt lat="44.4826317" lon="8.0566017"><ele>571.0</ele><time>2026-05-01T13:03:34.356Z</time></trkpt><trkpt lat="44.4824817" lon="8.0566517"><ele>571.0</ele><time>2026-05-01T13:03:35.357Z</time></trkpt><trkpt lat="44.4823383" lon="8.056745"><ele>571.0</ele><time>2026-05-01T13:03:36.355Z</time></trkpt><trkpt lat="44.4822017" lon="8.0568733"><ele>571.0</ele><time>2026-05-01T13:03:37.353Z</time></trkpt><trkpt lat="44.4820667" lon="8.0570233"><ele>573.6666666666667</ele><time>2026-05-01T13:03:38.352Z</time></trkpt><trkpt lat="44.4819333" lon="8.05717"><ele>576.3333333333334</ele><time>2026-05-01T13:03:39.35Z</time></trkpt><trkpt lat="44.4818" lon="8.057315"><ele>579.0</ele><time>2026-05-01T13:03:40.352Z</time></trkpt><trkpt lat="44.4816667" lon="8.0574467"><ele>576.6666666666666</ele><time>2026-05-01T13:03:41.351Z</time></trkpt><trkpt lat="44.4815267" lon="8.0575567"><ele>574.3333333333333</ele><time>2026-05-01T13:03:42.35Z</time></trkpt><trkpt lat="44.4813717" lon="8.0576383"><ele>572.0</ele><time>2026-05-01T13:03:43.354Z</time></trkpt><trkpt lat="44.481205" lon="8.0576983"><ele>572.0</ele><time>2026-05-01T13:03:44.352Z</time></trkpt><trkpt lat="44.4810367" lon="8.057745"><ele>572.0</ele><time>2026-05-01T13:03:45.353Z</time></trkpt><trkpt lat="44.4808633" lon="8.057785"><ele>572.0</ele><time>2026-05-01T13:03:46.354Z</time></trkpt><trkpt lat="44.4806933" lon="8.0578467"><ele>572.0</ele><time>2026-05-01T13:03:47.351Z</time></trkpt><trkpt lat="44.480525" lon="8.0579317"><ele>572.0</ele><time>2026-05-01T13:03:48.353Z</time></trkpt><trkpt lat="44.4803667" lon="8.05801"><ele>572.0</ele><time>2026-05-01T13:03:49.352Z</time></trkpt><trkpt lat="44.4802167" lon="8.0580633"><ele>571.75</ele><time>2026-05-01T13:03:50.355Z</time></trkpt><trkpt lat="44.4800717" lon="8.0580817"><ele>571.5</ele><time>2026-05-01T13:03:51.353Z</time></trkpt><trkpt lat="44.4799333" lon="8.058065"><ele>571.25</ele><time>2026-05-01T13:03:52.354Z</time></trkpt><trkpt lat="44.479805" lon="8.0580117"><ele>571.0</ele><time>2026-05-01T13:03:53.353Z</time></trkpt><trkpt lat="44.4796817" lon="8.0579133"><ele>570.75</ele><time>2026-05-01T13:03:54.351Z</time></trkpt><trkpt lat="44.4795633" lon="8.0577783"><ele>570.5</ele><time>2026-05-01T13:03:55.353Z</time></trkpt><trkpt lat="44.4794533" lon="8.0576367"><ele>570.25</ele><time>2026-05-01T13:03:56.35Z</time></trkpt><trkpt lat="44.47935" lon="8.057505"><ele>570.0</ele><time>2026-05-01T13:03:57.352Z</time></trkpt><trkpt lat="44.4792533" lon="8.0574083"><ele>570.0</ele><time>2026-05-01T13:03:58.354Z</time></trkpt><trkpt lat="44.4791467" lon="8.0573383"><ele>570.0</ele><time>2026-05-01T13:03:59.352Z</time></trkpt><trkpt lat="44.479025" lon="8.0572983"><ele>570.0</ele><time>2026-05-01T13:04:00.35Z</time></trkpt><trkpt lat="44.4788867" lon="8.0572783"><ele>570.0</ele><time>2026-05-01T13:04:01.349Z</time></trkpt><trkpt lat="44.4787417" lon="8.0572683"><ele>570.3333333333334</ele><time>2026-05-01T13:04:02.352Z</time></trkpt><trkpt lat="44.4785867" lon="8.0572567"><ele>570.6666666666667</ele><time>2026-05-01T13:04:03.354Z</time></trkpt><trkpt lat="44.478425" lon="8.0572483"><ele>571.0</ele><time>2026-05-01T13:04:04.35Z</time></trkpt><trkpt lat="44.4782667" lon="8.05726"><ele>571.0</ele><time>2026-05-01T13:04:05.355Z</time></trkpt><trkpt lat="44.47812" lon="8.0572933"><ele>571.0</ele><time>2026-05-01T13:04:06.351Z</time></trkpt><trkpt lat="44.4779883" lon="8.0573383"><ele>571.0</ele><time>2026-05-01T13:04:07.352Z</time></trkpt><trkpt lat="44.4778683" lon="8.0573733"><ele>571.0</ele><time>2026-05-01T13:04:08.353Z</time></trkpt><trkpt lat="44.4777533" lon="8.0573683"><ele>572.25</ele><time>2026-05-01T13:04:09.353Z</time></trkpt><trkpt lat="44.477645" lon="8.0573117"><ele>573.5</ele><time>2026-05-01T13:04:10.349Z</time></trkpt><trkpt lat="44.4775333" lon="8.057225"><ele>574.75</ele><time>2026-05-01T13:04:11.35Z</time></trkpt><trkpt lat="44.4774183" lon="8.057115"><ele>576.0</ele><time>2026-05-01T13:04:12.349Z</time></trkpt><trkpt lat="44.47729" lon="8.057005"><ele>576.0</ele><time>2026-05-01T13:04:13.353Z</time></trkpt><trkpt lat="44.477155" lon="8.0568983"><ele>576.0</ele><time>2026-05-01T13:04:14.352Z</time></trkpt><trkpt lat="44.4770133" lon="8.0567933"><ele>576.0</ele><time>2026-05-01T13:04:15.351Z</time></trkpt><trkpt lat="44.476865" lon="8.0566983"><ele>576.6666666666666</ele><time>2026-05-01T13:04:16.355Z</time></trkpt><trkpt lat="44.476715" lon="8.056625"><ele>577.3333333333333</ele><time>2026-05-01T13:04:17.351Z</time></trkpt><trkpt lat="44.47657" lon="8.05656"><ele>578.0</ele><time>2026-05-01T13:04:18.353Z</time></trkpt><trkpt lat="44.4764367" lon="8.0564917"><ele>578.0</ele><time>2026-05-01T13:04:19.353Z</time></trkpt><trkpt lat="44.47632" lon="8.0563933"><ele>578.0</ele><time>2026-05-01T13:04:20.356Z</time></trkpt><trkpt lat="44.4762067" lon="8.05627"><ele>578.0</ele><time>2026-05-01T13:04:21.352Z</time></trkpt><trkpt lat="44.47609" lon="8.0561383"><ele>578.0</ele><time>2026-05-01T13:04:22.349Z</time></trkpt><trkpt lat="44.4759633" lon="8.056"><ele>577.6666666666666</ele><time>2026-05-01T13:04:23.352Z</time></trkpt><trkpt lat="44.4758317" lon="8.05586"><ele>577.3333333333334</ele><time>2026-05-01T13:04:24.351Z</time></trkpt><trkpt lat="44.4757" lon="8.0557267"><ele>577.0</ele><time>2026-05-01T13:04:25.358Z</time></trkpt><trkpt lat="44.475565" lon="8.0555917"><ele>581.3333333333334</ele><time>2026-05-01T13:04:26.351Z</time></trkpt><trkpt lat="44.475425" lon="8.0554467"><ele>585.6666666666666</ele><time>2026-05-01T13:04:27.354Z</time></trkpt><trkpt lat="44.475295" lon="8.0552733"><ele>590.0</ele><time>2026-05-01T13:04:28.354Z</time></trkpt><trkpt lat="44.4751733" lon="8.0550883"><ele>586.6666666666666</ele><time>2026-05-01T13:04:29.351Z</time></trkpt><trkpt lat="44.4750533" lon="8.054905"><ele>583.3333333333334</ele><time>2026-05-01T13:04:30.354Z</time></trkpt><trkpt lat="44.4749283" lon="8.054725"><ele>580.0</ele><time>2026-05-01T13:04:31.349Z</time></trkpt><trkpt lat="44.474795" lon="8.0545567"><ele>580.0</ele><time>2026-05-01T13:04:32.352Z</time></trkpt><trkpt lat="44.4746483" lon="8.0543933"><ele>580.0</ele><time>2026-05-01T13:04:33.353Z</time></trkpt><trkpt lat="44.474495" lon="8.054235"><ele>580.0</ele><time>2026-05-01T13:04:34.35Z</time></trkpt><trkpt lat="44.474335" lon="8.054065"><ele>580.0</ele><time>2026-05-01T13:04:35.352Z</time></trkpt><trkpt lat="44.474175" lon="8.0538883"><ele>580.0</ele><time>2026-05-01T13:04:36.355Z</time></trkpt><trkpt lat="44.4740117" lon="8.0537133"><ele>580.0</ele><time>2026-05-01T13:04:37.353Z</time></trkpt><trkpt lat="44.473855" lon="8.0535467"><ele>579.6666666666667</ele><time>2026-05-01T13:04:38.353Z</time></trkpt><trkpt lat="44.4737033" lon="8.0533883"><ele>579.3333333333334</ele><time>2026-05-01T13:04:39.352Z</time></trkpt><trkpt lat="44.4735583" lon="8.0532317"><ele>579.0</ele><time>2026-05-01T13:04:40.353Z</time></trkpt><trkpt lat="44.4734133" lon="8.05307"><ele>579.0</ele><time>2026-05-01T13:04:41.354Z</time></trkpt><trkpt lat="44.473265" lon="8.0528967"><ele>579.0</ele><time>2026-05-01T13:04:42.351Z</time></trkpt><trkpt lat="44.473135" lon="8.0527217"><ele>579.0</ele><time>2026-05-01T13:04:43.35Z</time></trkpt><trkpt lat="44.47302" lon="8.05256"><ele>578.6</ele><time>2026-05-01T13:04:44.353Z</time></trkpt><trkpt lat="44.4729233" lon="8.05243"><ele>578.2</ele><time>2026-05-01T13:04:45.351Z</time></trkpt><trkpt lat="44.47284" lon="8.0523417"><ele>577.8000000000001</ele><time>2026-05-01T13:04:46.351Z</time></trkpt><trkpt lat="44.4727583" lon="8.0522983"><ele>577.4</ele><time>2026-05-01T13:04:47.35Z</time></trkpt><trkpt lat="44.4726783" lon="8.0522883"><ele>577.0</ele><time>2026-05-01T13:04:48.353Z</time></trkpt><trkpt lat="44.4726067" lon="8.05231"><ele>577.0</ele><time>2026-05-01T13:04:49.356Z</time></trkpt><trkpt lat="44.4725283" lon="8.052415"><ele>577.0</ele><time>2026-05-01T13:04:50.354Z</time></trkpt><trkpt lat="44.4724467" lon="8.0525267"><ele>577.0</ele><time>2026-05-01T13:04:51.354Z</time></trkpt><trkpt lat="44.472355" lon="8.052675"><ele>577.0</ele><time>2026-05-01T13:04:52.354Z</time></trkpt><trkpt lat="44.4722533" lon="8.0528283"><ele>577.3333333333334</ele><time>2026-05-01T13:04:53.351Z</time></trkpt><trkpt lat="44.4721383" lon="8.0529583"><ele>577.6666666666666</ele><time>2026-05-01T13:04:54.351Z</time></trkpt><trkpt lat="44.4720033" lon="8.0530617"><ele>578.0</ele><time>2026-05-01T13:04:55.355Z</time></trkpt><trkpt lat="44.4718433" lon="8.0531417"><ele>578.0</ele><time>2026-05-01T13:04:56.351Z</time></trkpt><trkpt lat="44.47168" lon="8.0531933"><ele>578.0</ele><time>2026-05-01T13:04:57.352Z</time></trkpt><trkpt lat="44.4715033" lon="8.0532183"><ele>578.0</ele><time>2026-05-01T13:04:58.35Z</time></trkpt><trkpt lat="44.4713167" lon="8.0532433"><ele>578.0</ele><time>2026-05-01T13:04:59.354Z</time></trkpt><trkpt lat="44.4711217" lon="8.0532683"><ele>578.0</ele><time>2026-05-01T13:05:00.35Z</time></trkpt><trkpt lat="44.470925" lon="8.053315"><ele>578.0</ele><time>2026-05-01T13:05:01.35Z</time></trkpt><trkpt lat="44.4707117" lon="8.0533683"><ele>580.0</ele><time>2026-05-01T13:05:02.355Z</time></trkpt><trkpt lat="44.4705067" lon="8.0534233"><ele>582.0</ele><time>2026-05-01T13:05:03.354Z</time></trkpt><trkpt lat="44.4703083" lon="8.0534567"><ele>584.0</ele><time>2026-05-01T13:05:04.352Z</time></trkpt><trkpt lat="44.4701183" lon="8.0534817"><ele>584.0</ele><time>2026-05-01T13:05:05.351Z</time></trkpt><trkpt lat="44.4699417" lon="8.0535017"><ele>584.0</ele><time>2026-05-01T13:05:06.357Z</time></trkpt><trkpt lat="44.469785" lon="8.0535517"><ele>584.0</ele><time>2026-05-01T13:05:07.353Z</time></trkpt><trkpt lat="44.46964" lon="8.053635"><ele>583.5</ele><time>2026-05-01T13:05:08.355Z</time></trkpt><trkpt lat="44.4695083" lon="8.053735"><ele>583.0</ele><time>2026-05-01T13:05:09.348Z</time></trkpt><trkpt lat="44.46939" lon="8.0538467"><ele>582.5</ele><time>2026-05-01T13:05:10.354Z</time></trkpt><trkpt lat="44.469285" lon="8.0539933"><ele>582.0</ele><time>2026-05-01T13:05:11.353Z</time></trkpt><trkpt lat="44.4691883" lon="8.0541733"><ele>583.3333333333334</ele><time>2026-05-01T13:05:12.35Z</time></trkpt><trkpt lat="44.4690917" lon="8.0543783"><ele>584.6666666666667</ele><time>2026-05-01T13:05:13.353Z</time></trkpt><trkpt lat="44.4689967" lon="8.054585"><ele>586.0</ele><time>2026-05-01T13:05:14.351Z</time></trkpt><trkpt lat="44.4688967" lon="8.0547817"><ele>587.0</ele><time>2026-05-01T13:05:15.349Z</time></trkpt><trkpt lat="44.4687867" lon="8.054955"><ele>588.0</ele><time>2026-05-01T13:05:16.355Z</time></trkpt><trkpt lat="44.4686667" lon="8.0551067"><ele>589.0</ele><time>2026-05-01T13:05:17.35Z</time></trkpt><trkpt lat="44.4685333" lon="8.055235"><ele>589.0</ele><time>2026-05-01T13:05:18.353Z</time></trkpt><trkpt lat="44.468385" lon="8.0553433"><ele>589.0</ele><time>2026-05-01T13:05:19.352Z</time></trkpt><trkpt lat="44.4682233" lon="8.0554317"><ele>589.0</ele><time>2026-05-01T13:05:20.35Z</time></trkpt><trkpt lat="44.468055" lon="8.0555183"><ele>588.3333333333334</ele><time>2026-05-01T13:05:21.354Z</time></trkpt><trkpt lat="44.4678783" lon="8.0555933"><ele>587.6666666666666</ele><time>2026-05-01T13:05:22.353Z</time></trkpt><trkpt lat="44.4677017" lon="8.055655"><ele>587.0</ele><time>2026-05-01T13:05:23.355Z</time></trkpt><trkpt lat="44.46752" lon="8.0556983"><ele>587.0</ele><time>2026-05-01T13:05:24.351Z</time></trkpt><trkpt lat="44.4673433" lon="8.0557183"><ele>587.0</ele><time>2026-05-01T13:05:25.349Z</time></trkpt><trkpt lat="44.4671633" lon="8.055695"><ele>587.0</ele><time>2026-05-01T13:05:26.354Z</time></trkpt><trkpt lat="44.4669783" lon="8.0556383"><ele>587.0</ele><time>2026-05-01T13:05:27.35Z</time></trkpt><trkpt lat="44.466785" lon="8.055575"><ele>587.0</ele><time>2026-05-01T13:05:28.35Z</time></trkpt><trkpt lat="44.4665883" lon="8.0555083"><ele>587.0</ele><time>2026-05-01T13:05:29.35Z</time></trkpt><trkpt lat="44.4663833" lon="8.0554367"><ele>588.0</ele><time>2026-05-01T13:05:30.351Z</time></trkpt><trkpt lat="44.4661733" lon="8.05537"><ele>589.0</ele><time>2026-05-01T13:05:31.353Z</time></trkpt><trkpt lat="44.4659667" lon="8.0553133"><ele>590.0</ele><time>2026-05-01T13:05:32.349Z</time></trkpt><trkpt lat="44.4657717" lon="8.0552667"><ele>590.0</ele><time>2026-05-01T13:05:33.353Z</time></trkpt><trkpt lat="44.4655867" lon="8.0552283"><ele>590.0</ele><time>2026-05-01T13:05:34.351Z</time></trkpt><trkpt lat="44.46542" lon="8.0552167"><ele>590.0</ele><time>2026-05-01T13:05:35.353Z</time></trkpt><trkpt lat="44.4652533" lon="8.0552367"><ele>590.3333333333333</ele><time>2026-05-01T13:05:36.35Z</time></trkpt><trkpt lat="44.4650817" lon="8.0552733"><ele>590.6666666666666</ele><time>2026-05-01T13:05:37.354Z</time></trkpt><trkpt lat="44.4649067" lon="8.055305"><ele>591.0</ele><time>2026-05-01T13:05:38.359Z</time></trkpt><trkpt lat="44.4647333" lon="8.0553317"><ele>590.6666666666666</ele><time>2026-05-01T13:05:39.355Z</time></trkpt><trkpt lat="44.4645517" lon="8.0553233"><ele>590.3333333333333</ele><time>2026-05-01T13:05:40.355Z</time></trkpt><trkpt lat="44.46437" lon="8.0552817"><ele>590.0</ele><time>2026-05-01T13:05:41.354Z</time></trkpt><trkpt lat="44.464185" lon="8.0552067"><ele>590.0</ele><time>2026-05-01T13:05:42.35Z</time></trkpt><trkpt lat="44.4640017" lon="8.0551167"><ele>590.0</ele><time>2026-05-01T13:05:43.353Z</time></trkpt><trkpt lat="44.4638283" lon="8.0550267"><ele>590.0</ele><time>2026-05-01T13:05:44.353Z</time></trkpt><trkpt lat="44.46366" lon="8.0549483"><ele>590.3333333333333</ele><time>2026-05-01T13:05:45.352Z</time></trkpt><trkpt lat="44.46349" lon="8.0549017"><ele>590.6666666666666</ele><time>2026-05-01T13:05:46.356Z</time></trkpt><trkpt lat="44.46332" lon="8.0548883"><ele>591.0</ele><time>2026-05-01T13:05:47.354Z</time></trkpt><trkpt lat="44.46315" lon="8.05491"><ele>591.0</ele><time>2026-05-01T13:05:48.349Z</time></trkpt><trkpt lat="44.46298" lon="8.05497"><ele>591.0</ele><time>2026-05-01T13:05:49.355Z</time></trkpt><trkpt lat="44.4628133" lon="8.0550767"><ele>591.0</ele><time>2026-05-01T13:05:50.353Z</time></trkpt><trkpt lat="44.46264" lon="8.0551983"><ele>590.6666666666666</ele><time>2026-05-01T13:05:51.354Z</time></trkpt><trkpt lat="44.4624683" lon="8.0553233"><ele>590.3333333333333</ele><time>2026-05-01T13:05:52.36Z</time></trkpt><trkpt lat="44.4622817" lon="8.0554433"><ele>590.0</ele><time>2026-05-01T13:05:53.352Z</time></trkpt><trkpt lat="44.4620967" lon="8.05557"><ele>590.0</ele><time>2026-05-01T13:05:54.355Z</time></trkpt><trkpt lat="44.4619083" lon="8.05568"><ele>590.0</ele><time>2026-05-01T13:05:55.354Z</time></trkpt><trkpt lat="44.46172" lon="8.0557733"><ele>590.0</ele><time>2026-05-01T13:05:56.359Z</time></trkpt><trkpt lat="44.4615267" lon="8.055845"><ele>590.3333333333333</ele><time>2026-05-01T13:05:57.354Z</time></trkpt><trkpt lat="44.4613367" lon="8.055885"><ele>590.6666666666666</ele><time>2026-05-01T13:05:58.351Z</time></trkpt><trkpt lat="44.4611483" lon="8.0558933"><ele>591.0</ele><time>2026-05-01T13:05:59.35Z</time></trkpt><trkpt lat="44.4609833" lon="8.0558833"><ele>591.0</ele><time>2026-05-01T13:06:00.349Z</time></trkpt><trkpt lat="44.4608267" lon="8.0558667"><ele>591.0</ele><time>2026-05-01T13:06:01.351Z</time></trkpt><trkpt lat="44.4607017" lon="8.05587"><ele>591.0</ele><time>2026-05-01T13:06:02.353Z</time></trkpt><trkpt lat="44.4605917" lon="8.0559067"><ele>591.0</ele><time>2026-05-01T13:06:03.355Z</time></trkpt><trkpt lat="44.4605067" lon="8.0559883"><ele>590.75</ele><time>2026-05-01T13:06:04.352Z</time></trkpt><trkpt lat="44.4604267" lon="8.05612"><ele>590.5</ele><time>2026-05-01T13:06:05.354Z</time></trkpt><trkpt lat="44.4603317" lon="8.0562633"><ele>590.25</ele><time>2026-05-01T13:06:06.347Z</time></trkpt><trkpt lat="44.4602133" lon="8.056405"><ele>590.0</ele><time>2026-05-01T13:06:07.351Z</time></trkpt><trkpt lat="44.46007" lon="8.0565383"><ele>589.3333333333333</ele><time>2026-05-01T13:06:08.349Z</time></trkpt><trkpt lat="44.4599133" lon="8.0566667"><ele>588.6666666666666</ele><time>2026-05-01T13:06:09.351Z</time></trkpt><trkpt lat="44.4597417" lon="8.05679"><ele>588.0</ele><time>2026-05-01T13:06:10.353Z</time></trkpt><trkpt lat="44.4595667" lon="8.0569167"><ele>588.0</ele><time>2026-05-01T13:06:11.353Z</time></trkpt><trkpt lat="44.4593783" lon="8.057025"><ele>588.0</ele><time>2026-05-01T13:06:12.351Z</time></trkpt><trkpt lat="44.4591733" lon="8.0571083"><ele>588.0</ele><time>2026-05-01T13:06:13.354Z</time></trkpt><trkpt lat="44.45896" lon="8.057165"><ele>588.6666666666666</ele><time>2026-05-01T13:06:14.351Z</time></trkpt><trkpt lat="44.458745" lon="8.0571917"><ele>589.3333333333333</ele><time>2026-05-01T13:06:15.349Z</time></trkpt><trkpt lat="44.4585383" lon="8.0572067"><ele>590.0</ele><time>2026-05-01T13:06:16.349Z</time></trkpt><trkpt lat="44.4583417" lon="8.0572217"><ele>590.0</ele><time>2026-05-01T13:06:17.354Z</time></trkpt><trkpt lat="44.4581533" lon="8.0572617"><ele>590.0</ele><time>2026-05-01T13:06:18.351Z</time></trkpt><trkpt lat="44.4579717" lon="8.0573233"><ele>590.0</ele><time>2026-05-01T13:06:19.35Z</time></trkpt><trkpt lat="44.4578" lon="8.0573983"><ele>589.6666666666666</ele><time>2026-05-01T13:06:20.35Z</time></trkpt><trkpt lat="44.45763" lon="8.057495"><ele>589.3333333333334</ele><time>2026-05-01T13:06:21.354Z</time></trkpt><trkpt lat="44.45746" lon="8.0576017"><ele>589.0</ele><time>2026-05-01T13:06:22.353Z</time></trkpt><trkpt lat="44.4573017" lon="8.057725"><ele>589.0</ele><time>2026-05-01T13:06:23.35Z</time></trkpt><trkpt lat="44.4571667" lon="8.0578467"><ele>589.0</ele><time>2026-05-01T13:06:24.35Z</time></trkpt><trkpt lat="44.4570567" lon="8.05797"><ele>589.0</ele><time>2026-05-01T13:06:25.351Z</time></trkpt><trkpt lat="44.4569667" lon="8.05812"><ele>589.0</ele><time>2026-05-01T13:06:26.354Z</time></trkpt><trkpt lat="44.4568917" lon="8.058295"><ele>589.3333333333334</ele><time>2026-05-01T13:06:27.352Z</time></trkpt><trkpt lat="44.4568233" lon="8.0585017"><ele>589.6666666666666</ele><time>2026-05-01T13:06:28.35Z</time></trkpt><trkpt lat="44.456755" lon="8.0587183"><ele>590.0</ele><time>2026-05-01T13:06:29.353Z</time></trkpt><trkpt lat="44.4566833" lon="8.05895"><ele>592.3333333333333</ele><time>2026-05-01T13:06:30.351Z</time></trkpt><trkpt lat="44.4566067" lon="8.05919"><ele>594.6666666666666</ele><time>2026-05-01T13:06:31.351Z</time></trkpt><trkpt lat="44.4565367" lon="8.059435"><ele>597.0</ele><time>2026-05-01T13:06:32.355Z</time></trkpt><trkpt lat="44.4564817" lon="8.0596817"><ele>597.0</ele><time>2026-05-01T13:06:33.351Z</time></trkpt><trkpt lat="44.4564533" lon="8.0599083"><ele>597.0</ele><time>2026-05-01T13:06:34.353Z</time></trkpt><trkpt lat="44.4564433" lon="8.0601283"><ele>597.0</ele><time>2026-05-01T13:06:35.351Z</time></trkpt><trkpt lat="44.45645" lon="8.060365"><ele>600.0</ele><time>2026-05-01T13:06:36.352Z</time></trkpt><trkpt lat="44.4564633" lon="8.060615"><ele>603.0</ele><time>2026-05-01T13:06:37.352Z</time></trkpt><trkpt lat="44.45647" lon="8.0608833"><ele>606.0</ele><time>2026-05-01T13:06:38.351Z</time></trkpt><trkpt lat="44.4564633" lon="8.061165"><ele>605.6666666666666</ele><time>2026-05-01T13:06:39.361Z</time></trkpt><trkpt lat="44.45645" lon="8.0614667"><ele>605.3333333333333</ele><time>2026-05-01T13:06:40.359Z</time></trkpt><trkpt lat="44.45643" lon="8.0617867"><ele>605.0</ele><time>2026-05-01T13:06:41.357Z</time></trkpt><trkpt lat="44.4563983" lon="8.0621067"><ele>605.0</ele><time>2026-05-01T13:06:42.354Z</time></trkpt><trkpt lat="44.4563567" lon="8.0624317"><ele>605.0</ele><time>2026-05-01T13:06:43.348Z</time></trkpt><trkpt lat="44.4563067" lon="8.0627583"><ele>599.0</ele><time>2026-05-01T13:06:44.35Z</time></trkpt><trkpt lat="44.456235" lon="8.0630717"><ele>593.0</ele><time>2026-05-01T13:06:45.351Z</time></trkpt><trkpt lat="44.4561483" lon="8.0633767"><ele>593.0</ele><time>2026-05-01T13:06:46.349Z</time></trkpt><trkpt lat="44.4560583" lon="8.0636867"><ele>593.0</ele><time>2026-05-01T13:06:47.348Z</time></trkpt><trkpt lat="44.4559767" lon="8.0640033"><ele>593.0</ele><time>2026-05-01T13:06:48.353Z</time></trkpt><trkpt lat="44.455905" lon="8.06432"><ele>593.0</ele><time>2026-05-01T13:06:49.35Z</time></trkpt><trkpt lat="44.4558417" lon="8.0646233"><ele>593.0</ele><time>2026-05-01T13:06:50.35Z</time></trkpt><trkpt lat="44.4557817" lon="8.0649117"><ele>593.0</ele><time>2026-05-01T13:06:51.349Z</time></trkpt><trkpt lat="44.4557283" lon="8.065195"><ele>593.0</ele><time>2026-05-01T13:06:52.354Z</time></trkpt><trkpt lat="44.4556883" lon="8.065485"><ele>595.3333333333333</ele><time>2026-05-01T13:06:53.354Z</time></trkpt><trkpt lat="44.45566" lon="8.0657867"><ele>597.6666666666666</ele><time>2026-05-01T13:06:54.351Z</time></trkpt><trkpt lat="44.4556367" lon="8.0661"><ele>600.0</ele><time>2026-05-01T13:06:55.353Z</time></trkpt><trkpt lat="44.455615" lon="8.0664217"><ele>602.0</ele><time>2026-05-01T13:06:56.354Z</time></trkpt><trkpt lat="44.4555983" lon="8.066745"><ele>604.0</ele><time>2026-05-01T13:06:57.352Z</time></trkpt><trkpt lat="44.4555817" lon="8.0670567"><ele>604.0</ele><time>2026-05-01T13:06:58.349Z</time></trkpt><trkpt lat="44.45556" lon="8.0673533"><ele>604.0</ele><time>2026-05-01T13:06:59.351Z</time></trkpt><trkpt lat="44.45554" lon="8.0676317"><ele>604.0</ele><time>2026-05-01T13:07:00.351Z</time></trkpt><trkpt lat="44.45553" lon="8.0678917"><ele>605.3333333333334</ele><time>2026-05-01T13:07:01.355Z</time></trkpt><trkpt lat="44.4555417" lon="8.0681383"><ele>606.6666666666666</ele><time>2026-05-01T13:07:02.351Z</time></trkpt><trkpt lat="44.4555783" lon="8.0683617"><ele>608.0</ele><time>2026-05-01T13:07:03.355Z</time></trkpt><trkpt lat="44.4556417" lon="8.0685783"><ele>608.0</ele><time>2026-05-01T13:07:04.354Z</time></trkpt><trkpt lat="44.455725" lon="8.0687967"><ele>608.0</ele><time>2026-05-01T13:07:05.352Z</time></trkpt><trkpt lat="44.4558083" lon="8.06903"><ele>608.0</ele><time>2026-05-01T13:07:06.353Z</time></trkpt><trkpt lat="44.4558833" lon="8.0692767"><ele>607.0</ele><time>2026-05-01T13:07:07.356Z</time></trkpt><trkpt lat="44.4559483" lon="8.06954"><ele>606.0</ele><time>2026-05-01T13:07:08.367Z</time></trkpt><trkpt lat="44.4560067" lon="8.0698217"><ele>605.0</ele><time>2026-05-01T13:07:09.362Z</time></trkpt><trkpt lat="44.4560633" lon="8.0701133"><ele>603.0</ele><time>2026-05-01T13:07:10.351Z</time></trkpt><trkpt lat="44.4561217" lon="8.070415"><ele>601.0</ele><time>2026-05-01T13:07:11.349Z</time></trkpt><trkpt lat="44.45619" lon="8.07072"><ele>599.6666666666667</ele><time>2026-05-01T13:07:12.354Z</time></trkpt><trkpt lat="44.4562567" lon="8.071015"><ele>598.3333333333334</ele><time>2026-05-01T13:07:13.353Z</time></trkpt><trkpt lat="44.4563067" lon="8.0713033"><ele>597.0</ele><time>2026-05-01T13:07:14.353Z</time></trkpt><trkpt lat="44.4563317" lon="8.0715883"><ele>603.3333333333334</ele><time>2026-05-01T13:07:15.356Z</time></trkpt><trkpt lat="44.4563283" lon="8.0718683"><ele>609.6666666666667</ele><time>2026-05-01T13:07:16.353Z</time></trkpt><trkpt lat="44.45632" lon="8.07213"><ele>616.0</ele><time>2026-05-01T13:07:17.354Z</time></trkpt><trkpt lat="44.45631" lon="8.0723683"><ele>614.0</ele><time>2026-05-01T13:07:18.35Z</time></trkpt><trkpt lat="44.4563233" lon="8.0726"><ele>612.0</ele><time>2026-05-01T13:07:19.352Z</time></trkpt><trkpt lat="44.456365" lon="8.07283"><ele>610.0</ele><time>2026-05-01T13:07:20.35Z</time></trkpt><trkpt lat="44.456425" lon="8.0730717"><ele>608.3333333333334</ele><time>2026-05-01T13:07:21.354Z</time></trkpt><trkpt lat="44.456485" lon="8.0733283"><ele>606.6666666666666</ele><time>2026-05-01T13:07:22.359Z</time></trkpt><trkpt lat="44.4565283" lon="8.073605"><ele>605.0</ele><time>2026-05-01T13:07:23.353Z</time></trkpt><trkpt lat="44.4565583" lon="8.0739"><ele>604.3333333333333</ele><time>2026-05-01T13:07:24.358Z</time></trkpt><trkpt lat="44.4565733" lon="8.0742083"><ele>603.6666666666666</ele><time>2026-05-01T13:07:25.35Z</time></trkpt><trkpt lat="44.4565817" lon="8.0745183"><ele>603.0</ele><time>2026-05-01T13:07:26.352Z</time></trkpt><trkpt lat="44.456575" lon="8.0748167"><ele>603.6666666666666</ele><time>2026-05-01T13:07:27.355Z</time></trkpt><trkpt lat="44.4565733" lon="8.0751017"><ele>604.3333333333333</ele><time>2026-05-01T13:07:28.355Z</time></trkpt><trkpt lat="44.456585" lon="8.0753633"><ele>605.0</ele><time>2026-05-01T13:07:29.353Z</time></trkpt><trkpt lat="44.4566017" lon="8.07562"><ele>604.0</ele><time>2026-05-01T13:07:30.349Z</time></trkpt><trkpt lat="44.456605" lon="8.075885"><ele>603.0</ele><time>2026-05-01T13:07:31.36Z</time></trkpt><trkpt lat="44.4566017" lon="8.076165"><ele>602.0</ele><time>2026-05-01T13:07:32.354Z</time></trkpt><trkpt lat="44.456595" lon="8.0764617"><ele>604.0</ele><time>2026-05-01T13:07:33.355Z</time></trkpt><trkpt lat="44.45659" lon="8.0767717"><ele>606.0</ele><time>2026-05-01T13:07:34.355Z</time></trkpt><trkpt lat="44.456585" lon="8.0770983"><ele>606.0</ele><time>2026-05-01T13:07:35.353Z</time></trkpt><trkpt lat="44.4565783" lon="8.077435"><ele>606.0</ele><time>2026-05-01T13:07:36.353Z</time></trkpt><trkpt lat="44.4565717" lon="8.0777717"><ele>606.6666666666666</ele><time>2026-05-01T13:07:37.353Z</time></trkpt><trkpt lat="44.4565617" lon="8.0780917"><ele>607.3333333333333</ele><time>2026-05-01T13:07:38.354Z</time></trkpt><trkpt lat="44.456545" lon="8.0783917"><ele>608.0</ele><time>2026-05-01T13:07:39.352Z</time></trkpt><trkpt lat="44.4565283" lon="8.0786783"><ele>608.3333333333333</ele><time>2026-05-01T13:07:40.352Z</time></trkpt><trkpt lat="44.4565167" lon="8.0789567"><ele>608.6666666666666</ele><time>2026-05-01T13:07:41.351Z</time></trkpt><trkpt lat="44.4565133" lon="8.0792283"><ele>609.0</ele><time>2026-05-01T13:07:42.353Z</time></trkpt><trkpt lat="44.4565117" lon="8.0794767"><ele>609.3333333333334</ele><time>2026-05-01T13:07:43.351Z</time></trkpt><trkpt lat="44.4565217" lon="8.0797117"><ele>609.6666666666667</ele><time>2026-05-01T13:07:44.351Z</time></trkpt><trkpt lat="44.4565583" lon="8.0799383"><ele>610.0</ele><time>2026-05-01T13:07:45.355Z</time></trkpt><trkpt lat="44.4566183" lon="8.0801683"><ele>610.0</ele><time>2026-05-01T13:07:46.35Z</time></trkpt><trkpt lat="44.4566917" lon="8.0804033"><ele>610.0</ele><time>2026-05-01T13:07:47.352Z</time></trkpt><trkpt lat="44.4567817" lon="8.0806533"><ele>610.0</ele><time>2026-05-01T13:07:48.356Z</time></trkpt><trkpt lat="44.4568683" lon="8.080895"><ele>608.3333333333334</ele><time>2026-05-01T13:07:49.356Z</time></trkpt><trkpt lat="44.4569467" lon="8.0811217"><ele>606.6666666666666</ele><time>2026-05-01T13:07:50.347Z</time></trkpt><trkpt lat="44.4570267" lon="8.0813383"><ele>605.0</ele><time>2026-05-01T13:07:51.352Z</time></trkpt><trkpt lat="44.4571083" lon="8.0815383"><ele>607.25</ele><time>2026-05-01T13:07:52.35Z</time></trkpt><trkpt lat="44.4572033" lon="8.08172"><ele>609.5</ele><time>2026-05-01T13:07:53.35Z</time></trkpt><trkpt lat="44.457295" lon="8.0818867"><ele>611.75</ele><time>2026-05-01T13:07:54.349Z</time></trkpt><trkpt lat="44.4573683" lon="8.08205"><ele>614.0</ele><time>2026-05-01T13:07:55.354Z</time></trkpt><trkpt lat="44.4574083" lon="8.08221"><ele>614.0</ele><time>2026-05-01T13:07:56.35Z</time></trkpt><trkpt lat="44.4574167" lon="8.0823667"><ele>614.0</ele><time>2026-05-01T13:07:57.348Z</time></trkpt><trkpt lat="44.4573767" lon="8.082515"><ele>614.0</ele><time>2026-05-01T13:07:58.349Z</time></trkpt><trkpt lat="44.4572967" lon="8.08265"><ele>614.0</ele><time>2026-05-01T13:07:59.35Z</time></trkpt><trkpt lat="44.45719" lon="8.0827933"><ele>611.5</ele><time>2026-05-01T13:08:00.352Z</time></trkpt><trkpt lat="44.457075" lon="8.0829333"><ele>609.0</ele><time>2026-05-01T13:08:01.351Z</time></trkpt><trkpt lat="44.45697" lon="8.083075"><ele>606.5</ele><time>2026-05-01T13:08:02.352Z</time></trkpt><trkpt lat="44.4568883" lon="8.08322"><ele>604.0</ele><time>2026-05-01T13:08:03.354Z</time></trkpt><trkpt lat="44.4568367" lon="8.0833883"><ele>604.0</ele><time>2026-05-01T13:08:04.35Z</time></trkpt><trkpt lat="44.456805" lon="8.083585"><ele>604.0</ele><time>2026-05-01T13:08:05.351Z</time></trkpt><trkpt lat="44.4567783" lon="8.0838017"><ele>604.0</ele><time>2026-05-01T13:08:06.354Z</time></trkpt><trkpt lat="44.4567567" lon="8.0840417"><ele>605.0</ele><time>2026-05-01T13:08:07.353Z</time></trkpt><trkpt lat="44.45674" lon="8.0842967"><ele>606.0</ele><time>2026-05-01T13:08:08.355Z</time></trkpt><trkpt lat="44.456735" lon="8.0845633"><ele>607.0</ele><time>2026-05-01T13:08:09.351Z</time></trkpt><trkpt lat="44.4567367" lon="8.0848317"><ele>607.0</ele><time>2026-05-01T13:08:10.352Z</time></trkpt><trkpt lat="44.456735" lon="8.0850883"><ele>607.0</ele><time>2026-05-01T13:08:11.358Z</time></trkpt><trkpt lat="44.45673" lon="8.0853283"><ele>607.0</ele><time>2026-05-01T13:08:12.355Z</time></trkpt><trkpt lat="44.456735" lon="8.08556"><ele>607.5</ele><time>2026-05-01T13:08:13.349Z</time></trkpt><trkpt lat="44.4567583" lon="8.085775"><ele>608.0</ele><time>2026-05-01T13:08:14.351Z</time></trkpt><trkpt lat="44.45679" lon="8.0859733"><ele>608.5</ele><time>2026-05-01T13:08:15.353Z</time></trkpt><trkpt lat="44.45681" lon="8.08616"><ele>609.0</ele><time>2026-05-01T13:08:16.354Z</time></trkpt><trkpt lat="44.4567933" lon="8.0863317"><ele>609.0</ele><time>2026-05-01T13:08:17.352Z</time></trkpt><trkpt lat="44.4567667" lon="8.0865217"><ele>609.0</ele><time>2026-05-01T13:08:18.35Z</time></trkpt><trkpt lat="44.45675" lon="8.0867367"><ele>609.0</ele><time>2026-05-01T13:08:19.352Z</time></trkpt><trkpt lat="44.4567433" lon="8.086965"><ele>608.6666666666666</ele><time>2026-05-01T13:08:20.351Z</time></trkpt><trkpt lat="44.4567433" lon="8.0871967"><ele>608.3333333333333</ele><time>2026-05-01T13:08:21.354Z</time></trkpt><trkpt lat="44.4567617" lon="8.0874383"><ele>608.0</ele><time>2026-05-01T13:08:22.35Z</time></trkpt><trkpt lat="44.456795" lon="8.0876833"><ele>607.6666666666666</ele><time>2026-05-01T13:08:23.35Z</time></trkpt><trkpt lat="44.45684" lon="8.0879267"><ele>607.3333333333334</ele><time>2026-05-01T13:08:24.35Z</time></trkpt><trkpt lat="44.4568983" lon="8.088175"><ele>607.0</ele><time>2026-05-01T13:08:25.353Z</time></trkpt><trkpt lat="44.4569667" lon="8.088415"><ele>607.6666666666667</ele><time>2026-05-01T13:08:26.351Z</time></trkpt><trkpt lat="44.45703" lon="8.0886483"><ele>608.3333333333334</ele><time>2026-05-01T13:08:27.349Z</time></trkpt><trkpt lat="44.457075" lon="8.08887"><ele>609.0</ele><time>2026-05-01T13:08:28.35Z</time></trkpt><trkpt lat="44.4571133" lon="8.0890783"><ele>612.5</ele><time>2026-05-01T13:08:29.351Z</time></trkpt><trkpt lat="44.4571517" lon="8.0892683"><ele>616.0</ele><time>2026-05-01T13:08:30.354Z</time></trkpt><trkpt lat="44.457185" lon="8.089435"><ele>619.5</ele><time>2026-05-01T13:08:31.352Z</time></trkpt><trkpt lat="44.4572083" lon="8.089595"><ele>623.0</ele><time>2026-05-01T13:08:32.351Z</time></trkpt><trkpt lat="44.4572017" lon="8.0897417"><ele>623.0</ele><time>2026-05-01T13:08:33.351Z</time></trkpt><trkpt lat="44.457165" lon="8.0898833"><ele>623.0</ele><time>2026-05-01T13:08:34.348Z</time></trkpt><trkpt lat="44.4571" lon="8.0900167"><ele>623.0</ele><time>2026-05-01T13:08:35.352Z</time></trkpt><trkpt lat="44.45701" lon="8.090135"><ele>623.0</ele><time>2026-05-01T13:08:36.352Z</time></trkpt><trkpt lat="44.4569083" lon="8.090245"><ele>620.25</ele><time>2026-05-01T13:08:37.351Z</time></trkpt><trkpt lat="44.4568233" lon="8.0903733"><ele>617.5</ele><time>2026-05-01T13:08:38.352Z</time></trkpt><trkpt lat="44.4567633" lon="8.0905333"><ele>614.75</ele><time>2026-05-01T13:08:39.354Z</time></trkpt><trkpt lat="44.4567133" lon="8.09072"><ele>612.0</ele><time>2026-05-01T13:08:40.349Z</time></trkpt><trkpt lat="44.456665" lon="8.09092"><ele>612.0</ele><time>2026-05-01T13:08:41.353Z</time></trkpt><trkpt lat="44.4566083" lon="8.0911367"><ele>612.0</ele><time>2026-05-01T13:08:42.35Z</time></trkpt><trkpt lat="44.4565417" lon="8.0913617"><ele>612.0</ele><time>2026-05-01T13:08:43.352Z</time></trkpt><trkpt lat="44.4564567" lon="8.091585"><ele>613.0</ele><time>2026-05-01T13:08:44.348Z</time></trkpt><trkpt lat="44.4563367" lon="8.0918017"><ele>614.0</ele><time>2026-05-01T13:08:45.349Z</time></trkpt><trkpt lat="44.4562133" lon="8.0920233"><ele>615.0</ele><time>2026-05-01T13:08:46.348Z</time></trkpt><trkpt lat="44.4560933" lon="8.092245"><ele>612.3333333333334</ele><time>2026-05-01T13:08:47.349Z</time></trkpt><trkpt lat="44.4559833" lon="8.0924617"><ele>609.6666666666667</ele><time>2026-05-01T13:08:48.351Z</time></trkpt><trkpt lat="44.4558683" lon="8.0926617"><ele>607.0</ele><time>2026-05-01T13:08:49.351Z</time></trkpt><trkpt lat="44.4557517" lon="8.092835"><ele>607.0</ele><time>2026-05-01T13:08:50.352Z</time></trkpt><trkpt lat="44.4556467" lon="8.0929967"><ele>607.0</ele><time>2026-05-01T13:08:51.35Z</time></trkpt><trkpt lat="44.4555583" lon="8.0931667"><ele>607.0</ele><time>2026-05-01T13:08:52.352Z</time></trkpt><trkpt lat="44.4554867" lon="8.093355"><ele>605.3333333333334</ele><time>2026-05-01T13:08:53.351Z</time></trkpt><trkpt lat="44.4554333" lon="8.0935667"><ele>603.6666666666666</ele><time>2026-05-01T13:08:54.349Z</time></trkpt><trkpt lat="44.4553883" lon="8.0938067"><ele>602.0</ele><time>2026-05-01T13:08:55.352Z</time></trkpt><trkpt lat="44.4553433" lon="8.094065"><ele>602.3333333333333</ele><time>2026-05-01T13:08:56.35Z</time></trkpt><trkpt lat="44.4552867" lon="8.0943417"><ele>602.6666666666666</ele><time>2026-05-01T13:08:57.351Z</time></trkpt><trkpt lat="44.4552333" lon="8.09463"><ele>603.0</ele><time>2026-05-01T13:08:58.351Z</time></trkpt><trkpt lat="44.4551817" lon="8.0949267"><ele>604.0</ele><time>2026-05-01T13:08:59.353Z</time></trkpt><trkpt lat="44.4551267" lon="8.09522"><ele>605.0</ele><time>2026-05-01T13:09:00.352Z</time></trkpt><trkpt lat="44.4550633" lon="8.0955083"><ele>606.0</ele><time>2026-05-01T13:09:01.354Z</time></trkpt><trkpt lat="44.454995" lon="8.09578"><ele>607.6666666666666</ele><time>2026-05-01T13:09:02.357Z</time></trkpt><trkpt lat="44.45492" lon="8.0960417"><ele>609.3333333333333</ele><time>2026-05-01T13:09:03.35Z</time></trkpt><trkpt lat="44.4548367" lon="8.0962933"><ele>611.0</ele><time>2026-05-01T13:09:04.356Z</time></trkpt><trkpt lat="44.454745" lon="8.0965367"><ele>609.0</ele><time>2026-05-01T13:09:05.352Z</time></trkpt><trkpt lat="44.454645" lon="8.096775"><ele>607.0</ele><time>2026-05-01T13:09:06.357Z</time></trkpt><trkpt lat="44.4545367" lon="8.0969983"><ele>605.0</ele><time>2026-05-01T13:09:07.352Z</time></trkpt><trkpt lat="44.45442" lon="8.0972133"><ele>605.0</ele><time>2026-05-01T13:09:08.349Z</time></trkpt><trkpt lat="44.4542967" lon="8.097415"><ele>605.0</ele><time>2026-05-01T13:09:09.351Z</time></trkpt><trkpt lat="44.4541683" lon="8.097595"><ele>605.0</ele><time>2026-05-01T13:09:10.351Z</time></trkpt><trkpt lat="44.4540383" lon="8.097755"><ele>605.6666666666666</ele><time>2026-05-01T13:09:11.35Z</time></trkpt><trkpt lat="44.4539033" lon="8.0978933"><ele>606.3333333333334</ele><time>2026-05-01T13:09:12.353Z</time></trkpt><trkpt lat="44.45376" lon="8.0979967"><ele>607.0</ele><time>2026-05-01T13:09:13.348Z</time></trkpt><trkpt lat="44.4536033" lon="8.0980733"><ele>607.0</ele><time>2026-05-01T13:09:14.352Z</time></trkpt><trkpt lat="44.4534383" lon="8.098135"><ele>607.0</ele><time>2026-05-01T13:09:15.352Z</time></trkpt><trkpt lat="44.4532783" lon="8.0981933"><ele>607.0</ele><time>2026-05-01T13:09:16.349Z</time></trkpt><trkpt lat="44.4531267" lon="8.0982483"><ele>608.25</ele><time>2026-05-01T13:09:17.349Z</time></trkpt><trkpt lat="44.4529933" lon="8.0983017"><ele>609.5</ele><time>2026-05-01T13:09:18.349Z</time></trkpt><trkpt lat="44.4528767" lon="8.09837"><ele>610.75</ele><time>2026-05-01T13:09:19.352Z</time></trkpt><trkpt lat="44.45277" lon="8.09848"><ele>612.0</ele><time>2026-05-01T13:09:20.35Z</time></trkpt><trkpt lat="44.4526617" lon="8.0986033"><ele>612.0</ele><time>2026-05-01T13:09:21.351Z</time></trkpt><trkpt lat="44.4525567" lon="8.098695"><ele>612.0</ele><time>2026-05-01T13:09:22.351Z</time></trkpt><trkpt lat="44.45246" lon="8.0987267"><ele>612.0</ele><time>2026-05-01T13:09:23.351Z</time></trkpt><trkpt lat="44.4523633" lon="8.0987017"><ele>612.0</ele><time>2026-05-01T13:09:24.349Z</time></trkpt><trkpt lat="44.452275" lon="8.0986217"><ele>612.0</ele><time>2026-05-01T13:09:25.348Z</time></trkpt><trkpt lat="44.4521833" lon="8.098505"><ele>611.5</ele><time>2026-05-01T13:09:26.351Z</time></trkpt><trkpt lat="44.4520867" lon="8.098385"><ele>611.0</ele><time>2026-05-01T13:09:27.35Z</time></trkpt><trkpt lat="44.4519633" lon="8.0982917"><ele>610.5</ele><time>2026-05-01T13:09:28.351Z</time></trkpt><trkpt lat="44.4518383" lon="8.098235"><ele>610.0</ele><time>2026-05-01T13:09:29.353Z</time></trkpt><trkpt lat="44.4517133" lon="8.098215"><ele>610.0</ele><time>2026-05-01T13:09:30.349Z</time></trkpt><trkpt lat="44.4516017" lon="8.098225"><ele>610.0</ele><time>2026-05-01T13:09:31.35Z</time></trkpt><trkpt lat="44.4514983" lon="8.0982783"><ele>610.0</ele><time>2026-05-01T13:09:32.35Z</time></trkpt><trkpt lat="44.4514083" lon="8.09838"><ele>610.0</ele><time>2026-05-01T13:09:33.352Z</time></trkpt><trkpt lat="44.4513333" lon="8.0985167"><ele>609.75</ele><time>2026-05-01T13:09:34.349Z</time></trkpt><trkpt lat="44.4512633" lon="8.0986733"><ele>609.5</ele><time>2026-05-01T13:09:35.349Z</time></trkpt><trkpt lat="44.4512033" lon="8.0988533"><ele>609.25</ele><time>2026-05-01T13:09:36.349Z</time></trkpt><trkpt lat="44.451155" lon="8.0990583"><ele>609.0</ele><time>2026-05-01T13:09:37.35Z</time></trkpt><trkpt lat="44.45111" lon="8.0992767"><ele>609.0</ele><time>2026-05-01T13:09:38.35Z</time></trkpt><trkpt lat="44.451065" lon="8.099505"><ele>609.0</ele><time>2026-05-01T13:09:39.351Z</time></trkpt><trkpt lat="44.4510017" lon="8.099735"><ele>609.0</ele><time>2026-05-01T13:09:40.348Z</time></trkpt><trkpt lat="44.4509217" lon="8.0999667"><ele>611.0</ele><time>2026-05-01T13:09:41.352Z</time></trkpt><trkpt lat="44.4508317" lon="8.100195"><ele>613.0</ele><time>2026-05-01T13:09:42.352Z</time></trkpt><trkpt lat="44.45073" lon="8.1004217"><ele>615.0</ele><time>2026-05-01T13:09:43.353Z</time></trkpt><trkpt lat="44.4506283" lon="8.100645"><ele>612.6666666666666</ele><time>2026-05-01T13:09:44.351Z</time></trkpt><trkpt lat="44.4505217" lon="8.1008617"><ele>610.3333333333333</ele><time>2026-05-01T13:09:45.349Z</time></trkpt><trkpt lat="44.45041" lon="8.1010667"><ele>608.0</ele><time>2026-05-01T13:09:46.349Z</time></trkpt><trkpt lat="44.4502867" lon="8.1012633"><ele>608.0</ele><time>2026-05-01T13:09:47.35Z</time></trkpt><trkpt lat="44.450155" lon="8.1014533"><ele>608.0</ele><time>2026-05-01T13:09:48.355Z</time></trkpt><trkpt lat="44.450025" lon="8.1016433"><ele>608.0</ele><time>2026-05-01T13:09:49.35Z</time></trkpt><trkpt lat="44.4498967" lon="8.1018317"><ele>607.6666666666666</ele><time>2026-05-01T13:09:50.353Z</time></trkpt><trkpt lat="44.449775" lon="8.10201"><ele>607.3333333333334</ele><time>2026-05-01T13:09:51.355Z</time></trkpt><trkpt lat="44.449645" lon="8.1021733"><ele>607.0</ele><time>2026-05-01T13:09:52.353Z</time></trkpt><trkpt lat="44.4495117" lon="8.1023167"><ele>609.0</ele><time>2026-05-01T13:09:53.356Z</time></trkpt><trkpt lat="44.4493683" lon="8.1024483"><ele>611.0</ele><time>2026-05-01T13:09:54.35Z</time></trkpt><trkpt lat="44.4492167" lon="8.1025767"><ele>613.0</ele><time>2026-05-01T13:09:55.356Z</time></trkpt><trkpt lat="44.449055" lon="8.1027017"><ele>613.0</ele><time>2026-05-01T13:09:56.357Z</time></trkpt><trkpt lat="44.4488883" lon="8.1028133"><ele>613.0</ele><time>2026-05-01T13:09:57.352Z</time></trkpt><trkpt lat="44.4487067" lon="8.1029117"><ele>613.0</ele><time>2026-05-01T13:09:58.353Z</time></trkpt><trkpt lat="44.4485083" lon="8.1029967"><ele>611.0</ele><time>2026-05-01T13:09:59.349Z</time></trkpt><trkpt lat="44.4482967" lon="8.1030683"><ele>609.0</ele><time>2026-05-01T13:10:00.349Z</time></trkpt><trkpt lat="44.4480733" lon="8.1031283"><ele>607.0</ele><time>2026-05-01T13:10:01.354Z</time></trkpt><trkpt lat="44.4478467" lon="8.10317"><ele>607.0</ele><time>2026-05-01T13:10:02.35Z</time></trkpt><trkpt lat="44.4476133" lon="8.103185"><ele>607.0</ele><time>2026-05-01T13:10:03.354Z</time></trkpt><trkpt lat="44.4473817" lon="8.1031933"><ele>607.0</ele><time>2026-05-01T13:10:04.349Z</time></trkpt><trkpt lat="44.44715" lon="8.1032067"><ele>607.0</ele><time>2026-05-01T13:10:05.35Z</time></trkpt><trkpt lat="44.4469183" lon="8.1032233"><ele>607.3333333333334</ele><time>2026-05-01T13:10:06.35Z</time></trkpt><trkpt lat="44.446695" lon="8.103235"><ele>607.6666666666666</ele><time>2026-05-01T13:10:07.349Z</time></trkpt><trkpt lat="44.44648" lon="8.1032317"><ele>608.0</ele><time>2026-05-01T13:10:08.35Z</time></trkpt><trkpt lat="44.4462783" lon="8.1032133"><ele>608.0</ele><time>2026-05-01T13:10:09.348Z</time></trkpt><trkpt lat="44.4461" lon="8.1031933"><ele>608.0</ele><time>2026-05-01T13:10:10.35Z</time></trkpt><trkpt lat="44.4459483" lon="8.1031867"><ele>608.0</ele><time>2026-05-01T13:10:11.353Z</time></trkpt><trkpt lat="44.44582" lon="8.103195"><ele>608.0</ele><time>2026-05-01T13:10:12.352Z</time></trkpt><trkpt lat="44.445705" lon="8.1032283"><ele>608.0</ele><time>2026-05-01T13:10:13.348Z</time></trkpt><trkpt lat="44.4455967" lon="8.1033017"><ele>608.0</ele><time>2026-05-01T13:10:14.349Z</time></trkpt><trkpt lat="44.4455067" lon="8.1034133"><ele>608.0</ele><time>2026-05-01T13:10:15.35Z</time></trkpt><trkpt lat="44.4454333" lon="8.1035583"><ele>607.6666666666666</ele><time>2026-05-01T13:10:16.353Z</time></trkpt><trkpt lat="44.4453733" lon="8.103735"><ele>607.3333333333334</ele><time>2026-05-01T13:10:17.351Z</time></trkpt><trkpt lat="44.4453233" lon="8.103935"><ele>607.0</ele><time>2026-05-01T13:10:18.348Z</time></trkpt><trkpt lat="44.4452683" lon="8.1041533"><ele>608.0</ele><time>2026-05-01T13:10:19.351Z</time></trkpt><trkpt lat="44.4452083" lon="8.104385"><ele>609.0</ele><time>2026-05-01T13:10:20.351Z</time></trkpt><trkpt lat="44.44515" lon="8.10463"><ele>610.0</ele><time>2026-05-01T13:10:21.348Z</time></trkpt><trkpt lat="44.44509" lon="8.1048883"><ele>611.0</ele><time>2026-05-01T13:10:22.347Z</time></trkpt><trkpt lat="44.445025" lon="8.1051533"><ele>612.0</ele><time>2026-05-01T13:10:23.354Z</time></trkpt><trkpt lat="44.44495" lon="8.105415"><ele>613.0</ele><time>2026-05-01T13:10:24.35Z</time></trkpt><trkpt lat="44.444865" lon="8.10568"><ele>615.0</ele><time>2026-05-01T13:10:25.35Z</time></trkpt><trkpt lat="44.44478" lon="8.1059617"><ele>617.0</ele><time>2026-05-01T13:10:26.352Z</time></trkpt><trkpt lat="44.4447083" lon="8.1062483"><ele>619.0</ele><time>2026-05-01T13:10:27.35Z</time></trkpt><trkpt lat="44.4446417" lon="8.1065433"><ele>616.6666666666667</ele><time>2026-05-01T13:10:28.357Z</time></trkpt><trkpt lat="44.4445767" lon="8.1068383"><ele>614.3333333333334</ele><time>2026-05-01T13:10:29.351Z</time></trkpt><trkpt lat="44.4445083" lon="8.10714"><ele>612.0</ele><time>2026-05-01T13:10:30.349Z</time></trkpt><trkpt lat="44.444435" lon="8.1074317"><ele>612.0</ele><time>2026-05-01T13:10:31.353Z</time></trkpt><trkpt lat="44.4443583" lon="8.1077017"><ele>612.0</ele><time>2026-05-01T13:10:32.35Z</time></trkpt><trkpt lat="44.4442717" lon="8.1079433"><ele>612.0</ele><time>2026-05-01T13:10:33.35Z</time></trkpt><trkpt lat="44.44418" lon="8.1081433"><ele>612.25</ele><time>2026-05-01T13:10:34.351Z</time></trkpt><trkpt lat="44.44408" lon="8.108305"><ele>612.5</ele><time>2026-05-01T13:10:35.35Z</time></trkpt><trkpt lat="44.443965" lon="8.10843"><ele>612.75</ele><time>2026-05-01T13:10:36.353Z</time></trkpt><trkpt lat="44.44384" lon="8.1085333"><ele>613.0</ele><time>2026-05-01T13:10:37.354Z</time></trkpt><trkpt lat="44.4436983" lon="8.1086033"><ele>613.0</ele><time>2026-05-01T13:10:38.351Z</time></trkpt><trkpt lat="44.4435383" lon="8.108655"><ele>613.0</ele><time>2026-05-01T13:10:39.353Z</time></trkpt><trkpt lat="44.4433667" lon="8.108695"><ele>613.0</ele><time>2026-05-01T13:10:40.352Z</time></trkpt><trkpt lat="44.4431917" lon="8.1087217"><ele>613.0</ele><time>2026-05-01T13:10:41.355Z</time></trkpt><trkpt lat="44.4430283" lon="8.1087417"><ele>613.0</ele><time>2026-05-01T13:10:42.352Z</time></trkpt><trkpt lat="44.44288" lon="8.1087583"><ele>613.0</ele><time>2026-05-01T13:10:43.348Z</time></trkpt><trkpt lat="44.442755" lon="8.108775"><ele>613.0</ele><time>2026-05-01T13:10:44.355Z</time></trkpt><trkpt lat="44.4426517" lon="8.1087933"><ele>612.6</ele><time>2026-05-01T13:10:45.354Z</time></trkpt><trkpt lat="44.44256" lon="8.1088117"><ele>612.1999999999999</ele><time>2026-05-01T13:10:46.349Z</time></trkpt><trkpt lat="44.4424617" lon="8.10884"><ele>611.8</ele><time>2026-05-01T13:10:47.349Z</time></trkpt><trkpt lat="44.4423517" lon="8.1088733"><ele>611.4</ele><time>2026-05-01T13:10:48.35Z</time></trkpt><trkpt lat="44.4422267" lon="8.108905"><ele>611.0</ele><time>2026-05-01T13:10:49.349Z</time></trkpt><trkpt lat="44.4420833" lon="8.1089317"><ele>611.0</ele><time>2026-05-01T13:10:50.348Z</time></trkpt><trkpt lat="44.441925" lon="8.108955"><ele>611.0</ele><time>2026-05-01T13:10:51.351Z</time></trkpt><trkpt lat="44.4417633" lon="8.1089633"><ele>611.0</ele><time>2026-05-01T13:10:52.351Z</time></trkpt><trkpt lat="44.4415983" lon="8.108955"><ele>611.0</ele><time>2026-05-01T13:10:53.353Z</time></trkpt><trkpt lat="44.4414283" lon="8.1089267"><ele>611.0</ele><time>2026-05-01T13:10:54.358Z</time></trkpt><trkpt lat="44.4412617" lon="8.1088767"><ele>611.0</ele><time>2026-05-01T13:10:55.349Z</time></trkpt><trkpt lat="44.4411017" lon="8.1087983"><ele>611.6666666666666</ele><time>2026-05-01T13:10:56.353Z</time></trkpt><trkpt lat="44.4409483" lon="8.1086967"><ele>612.3333333333334</ele><time>2026-05-01T13:10:57.35Z</time></trkpt><trkpt lat="44.4408017" lon="8.1085667"><ele>613.0</ele><time>2026-05-01T13:10:58.352Z</time></trkpt><trkpt lat="44.4406533" lon="8.1084167"><ele>613.0</ele><time>2026-05-01T13:10:59.349Z</time></trkpt><trkpt lat="44.4404967" lon="8.1082567"><ele>613.0</ele><time>2026-05-01T13:11:00.354Z</time></trkpt><trkpt lat="44.4403333" lon="8.1081"><ele>613.0</ele><time>2026-05-01T13:11:01.356Z</time></trkpt><trkpt lat="44.44017" lon="8.1079483"><ele>613.0</ele><time>2026-05-01T13:11:02.352Z</time></trkpt><trkpt lat="44.44" lon="8.1078033"><ele>613.0</ele><time>2026-05-01T13:11:03.358Z</time></trkpt><trkpt lat="44.43981" lon="8.1076817"><ele>613.0</ele><time>2026-05-01T13:11:04.351Z</time></trkpt><trkpt lat="44.4396183" lon="8.1075867"><ele>612.6666666666667</ele><time>2026-05-01T13:11:05.35Z</time></trkpt><trkpt lat="44.43942" lon="8.1075017"><ele>612.3333333333334</ele><time>2026-05-01T13:11:06.352Z</time></trkpt><trkpt lat="44.4392183" lon="8.1074133"><ele>612.0</ele><time>2026-05-01T13:11:07.352Z</time></trkpt><trkpt lat="44.4390217" lon="8.107305"><ele>612.0</ele><time>2026-05-01T13:11:08.352Z</time></trkpt><trkpt lat="44.4388317" lon="8.1071783"><ele>612.0</ele><time>2026-05-01T13:11:09.353Z</time></trkpt><trkpt lat="44.438655" lon="8.1070417"><ele>612.0</ele><time>2026-05-01T13:11:10.348Z</time></trkpt><trkpt lat="44.4384917" lon="8.1069133"><ele>612.0</ele><time>2026-05-01T13:11:11.349Z</time></trkpt><trkpt lat="44.4383417" lon="8.106795"><ele>612.0</ele><time>2026-05-01T13:11:12.349Z</time></trkpt><trkpt lat="44.4382" lon="8.1066883"><ele>612.0</ele><time>2026-05-01T13:11:13.35Z</time></trkpt><trkpt lat="44.438045" lon="8.1065983"><ele>612.0</ele><time>2026-05-01T13:11:14.348Z</time></trkpt><trkpt lat="44.4378833" lon="8.1065083"><ele>612.0</ele><time>2026-05-01T13:11:15.359Z</time></trkpt><trkpt lat="44.4377167" lon="8.1064267"><ele>612.0</ele><time>2026-05-01T13:11:16.351Z</time></trkpt><trkpt lat="44.4375433" lon="8.1063367"><ele>612.0</ele><time>2026-05-01T13:11:17.353Z</time></trkpt><trkpt lat="44.4373767" lon="8.1062433"><ele>612.0</ele><time>2026-05-01T13:11:18.351Z</time></trkpt><trkpt lat="44.437225" lon="8.1061633"><ele>612.0</ele><time>2026-05-01T13:11:19.352Z</time></trkpt><trkpt lat="44.437085" lon="8.10611"><ele>612.0</ele><time>2026-05-01T13:11:20.35Z</time></trkpt><trkpt lat="44.436935" lon="8.1061"><ele>612.0</ele><time>2026-05-01T13:11:21.35Z</time></trkpt><trkpt lat="44.43677" lon="8.1061183"><ele>612.0</ele><time>2026-05-01T13:11:22.352Z</time></trkpt><trkpt lat="44.43659" lon="8.1061433"><ele>612.0</ele><time>2026-05-01T13:11:23.349Z</time></trkpt><trkpt lat="44.4363983" lon="8.10617"><ele>612.0</ele><time>2026-05-01T13:11:24.354Z</time></trkpt><trkpt lat="44.436195" lon="8.106205"><ele>612.0</ele><time>2026-05-01T13:11:25.354Z</time></trkpt><trkpt lat="44.4359917" lon="8.1062367"><ele>612.3333333333334</ele><time>2026-05-01T13:11:26.351Z</time></trkpt><trkpt lat="44.4357967" lon="8.10626"><ele>612.6666666666667</ele><time>2026-05-01T13:11:27.354Z</time></trkpt><trkpt lat="44.4356233" lon="8.1062767"><ele>613.0</ele><time>2026-05-01T13:11:28.349Z</time></trkpt><trkpt lat="44.4354767" lon="8.1062983"><ele>613.0</ele><time>2026-05-01T13:11:29.351Z</time></trkpt><trkpt lat="44.435355" lon="8.106345"><ele>613.0</ele><time>2026-05-01T13:11:30.347Z</time></trkpt><trkpt lat="44.435255" lon="8.106435"><ele>613.0</ele><time>2026-05-01T13:11:31.351Z</time></trkpt><trkpt lat="44.43516" lon="8.1065583"><ele>613.0</ele><time>2026-05-01T13:11:32.349Z</time></trkpt><trkpt lat="44.435055" lon="8.1066983"><ele>613.0</ele><time>2026-05-01T13:11:33.353Z</time></trkpt><trkpt lat="44.4349383" lon="8.1068483"><ele>613.0</ele><time>2026-05-01T13:11:34.349Z</time></trkpt><trkpt lat="44.43481" lon="8.107015"><ele>613.0</ele><time>2026-05-01T13:11:35.35Z</time></trkpt><trkpt lat="44.43468" lon="8.107205"><ele>613.6666666666667</ele><time>2026-05-01T13:11:36.349Z</time></trkpt><trkpt lat="44.4345567" lon="8.1074267"><ele>614.3333333333334</ele><time>2026-05-01T13:11:37.352Z</time></trkpt><trkpt lat="44.4344233" lon="8.1076633"><ele>615.0</ele><time>2026-05-01T13:11:38.352Z</time></trkpt><trkpt lat="44.4342883" lon="8.1078967"><ele>615.0</ele><time>2026-05-01T13:11:39.355Z</time></trkpt><trkpt lat="44.4341467" lon="8.1081183"><ele>615.0</ele><time>2026-05-01T13:11:40.353Z</time></trkpt><trkpt lat="44.433995" lon="8.10833"><ele>615.0</ele><time>2026-05-01T13:11:41.352Z</time></trkpt><trkpt lat="44.43383" lon="8.1085283"><ele>616.5</ele><time>2026-05-01T13:11:42.348Z</time></trkpt><trkpt lat="44.4336417" lon="8.1087"><ele>618.0</ele><time>2026-05-01T13:11:43.349Z</time></trkpt><trkpt lat="44.433445" lon="8.10886"><ele>618.0</ele><time>2026-05-01T13:11:44.349Z</time></trkpt><trkpt lat="44.4332417" lon="8.1090167"><ele>618.0</ele><time>2026-05-01T13:11:45.354Z</time></trkpt><trkpt lat="44.4330333" lon="8.1091767"><ele>617.0</ele><time>2026-05-01T13:11:46.348Z</time></trkpt><trkpt lat="44.4328217" lon="8.1093333"><ele>616.0</ele><time>2026-05-01T13:11:47.351Z</time></trkpt><trkpt lat="44.432605" lon="8.1094767"><ele>616.0</ele><time>2026-05-01T13:11:48.349Z</time></trkpt><trkpt lat="44.43238" lon="8.109605"><ele>616.0</ele><time>2026-05-01T13:11:49.35Z</time></trkpt><trkpt lat="44.4321517" lon="8.1097233"><ele>615.5</ele><time>2026-05-01T13:11:50.349Z</time></trkpt><trkpt lat="44.43192" lon="8.109835"><ele>615.0</ele><time>2026-05-01T13:11:51.349Z</time></trkpt><trkpt lat="44.4316917" lon="8.109945"><ele>615.0</ele><time>2026-05-01T13:11:52.35Z</time></trkpt><trkpt lat="44.431475" lon="8.110045"><ele>615.0</ele><time>2026-05-01T13:11:53.35Z</time></trkpt><trkpt lat="44.4312667" lon="8.1101283"><ele>615.0</ele><time>2026-05-01T13:11:54.348Z</time></trkpt><trkpt lat="44.4310733" lon="8.110185"><ele>615.5</ele><time>2026-05-01T13:11:55.35Z</time></trkpt><trkpt lat="44.4308967" lon="8.1102183"><ele>616.0</ele><time>2026-05-01T13:11:56.35Z</time></trkpt><trkpt lat="44.43074" lon="8.110245"><ele>616.5</ele><time>2026-05-01T13:11:57.351Z</time></trkpt><trkpt lat="44.43063" lon="8.1102833"><ele>617.0</ele><time>2026-05-01T13:11:58.359Z</time></trkpt><trkpt lat="44.4305533" lon="8.1103433"><ele>617.0</ele><time>2026-05-01T13:11:59.349Z</time></trkpt><trkpt lat="44.43051" lon="8.11045"><ele>617.0</ele><time>2026-05-01T13:12:00.356Z</time></trkpt><trkpt lat="44.430485" lon="8.110585"><ele>617.0</ele><time>2026-05-01T13:12:01.35Z</time></trkpt><trkpt lat="44.430475" lon="8.1107483"><ele>617.0</ele><time>2026-05-01T13:12:02.349Z</time></trkpt><trkpt lat="44.43045" lon="8.11093"><ele>617.0</ele><time>2026-05-01T13:12:03.351Z</time></trkpt><trkpt lat="44.43042" lon="8.1111333"><ele>617.0</ele><time>2026-05-01T13:12:04.351Z</time></trkpt><trkpt lat="44.4303717" lon="8.11135"><ele>617.0</ele><time>2026-05-01T13:12:05.35Z</time></trkpt><trkpt lat="44.4303167" lon="8.1115733"><ele>617.0</ele><time>2026-05-01T13:12:06.352Z</time></trkpt><trkpt lat="44.4302483" lon="8.111795"><ele>616.6666666666666</ele><time>2026-05-01T13:12:07.351Z</time></trkpt><trkpt lat="44.4301683" lon="8.112015"><ele>616.3333333333334</ele><time>2026-05-01T13:12:08.35Z</time></trkpt><trkpt lat="44.4300617" lon="8.1122233"><ele>616.0</ele><time>2026-05-01T13:12:09.349Z</time></trkpt><trkpt lat="44.4299383" lon="8.1124217"><ele>617.0</ele><time>2026-05-01T13:12:10.353Z</time></trkpt><trkpt lat="44.4298033" lon="8.1126167"><ele>618.0</ele><time>2026-05-01T13:12:11.349Z</time></trkpt><trkpt lat="44.4296617" lon="8.1127983"><ele>619.0</ele><time>2026-05-01T13:12:12.353Z</time></trkpt><trkpt lat="44.4295183" lon="8.1129767"><ele>619.3333333333334</ele><time>2026-05-01T13:12:13.351Z</time></trkpt><trkpt lat="44.4293817" lon="8.1131667"><ele>619.6666666666666</ele><time>2026-05-01T13:12:14.351Z</time></trkpt><trkpt lat="44.4292567" lon="8.1133783"><ele>620.0</ele><time>2026-05-01T13:12:15.349Z</time></trkpt><trkpt lat="44.42915" lon="8.1136117"><ele>620.0</ele><time>2026-05-01T13:12:16.348Z</time></trkpt><trkpt lat="44.4290583" lon="8.1138683"><ele>620.0</ele><time>2026-05-01T13:12:17.349Z</time></trkpt><trkpt lat="44.42898" lon="8.1141433"><ele>620.0</ele><time>2026-05-01T13:12:18.348Z</time></trkpt><trkpt lat="44.4289083" lon="8.1144333"><ele>619.3333333333333</ele><time>2026-05-01T13:12:19.349Z</time></trkpt><trkpt lat="44.4288283" lon="8.1147083"><ele>618.6666666666666</ele><time>2026-05-01T13:12:20.35Z</time></trkpt><trkpt lat="44.428735" lon="8.1149783"><ele>618.0</ele><time>2026-05-01T13:12:21.35Z</time></trkpt><trkpt lat="44.4286267" lon="8.1152483"><ele>618.0</ele><time>2026-05-01T13:12:22.351Z</time></trkpt><trkpt lat="44.4285083" lon="8.11551"><ele>618.0</ele><time>2026-05-01T13:12:23.349Z</time></trkpt><trkpt lat="44.4283817" lon="8.1157667"><ele>618.0</ele><time>2026-05-01T13:12:24.353Z</time></trkpt><trkpt lat="44.4282417" lon="8.11602"><ele>618.5</ele><time>2026-05-01T13:12:25.355Z</time></trkpt><trkpt lat="44.4281" lon="8.1162733"><ele>619.0</ele><time>2026-05-01T13:12:26.348Z</time></trkpt><trkpt lat="44.4279567" lon="8.1165317"><ele>619.0</ele><time>2026-05-01T13:12:27.355Z</time></trkpt><trkpt lat="44.4278133" lon="8.1167867"><ele>619.0</ele><time>2026-05-01T13:12:28.353Z</time></trkpt><trkpt lat="44.4276683" lon="8.1170367"><ele>619.0</ele><time>2026-05-01T13:12:29.355Z</time></trkpt><trkpt lat="44.4275267" lon="8.1172817"><ele>619.0</ele><time>2026-05-01T13:12:30.35Z</time></trkpt><trkpt lat="44.4273883" lon="8.1175267"><ele>619.0</ele><time>2026-05-01T13:12:31.357Z</time></trkpt><trkpt lat="44.4272517" lon="8.117775"><ele>619.3333333333334</ele><time>2026-05-01T13:12:32.351Z</time></trkpt><trkpt lat="44.4271217" lon="8.11803"><ele>619.6666666666666</ele><time>2026-05-01T13:12:33.351Z</time></trkpt><trkpt lat="44.4269917" lon="8.1182867"><ele>620.0</ele><time>2026-05-01T13:12:34.349Z</time></trkpt><trkpt lat="44.4268633" lon="8.118545"><ele>620.0</ele><time>2026-05-01T13:12:35.353Z</time></trkpt><trkpt lat="44.4267367" lon="8.118805"><ele>620.0</ele><time>2026-05-01T13:12:36.35Z</time></trkpt><trkpt lat="44.4266133" lon="8.1190667"><ele>620.0</ele><time>2026-05-01T13:12:37.353Z</time></trkpt><trkpt lat="44.4264917" lon="8.1193267"><ele>619.6666666666666</ele><time>2026-05-01T13:12:38.354Z</time></trkpt><trkpt lat="44.4263717" lon="8.1195717"><ele>619.3333333333334</ele><time>2026-05-01T13:12:39.352Z</time></trkpt><trkpt lat="44.4262467" lon="8.119795"><ele>619.0</ele><time>2026-05-01T13:12:40.353Z</time></trkpt><trkpt lat="44.4261217" lon="8.11999"><ele>619.6666666666667</ele><time>2026-05-01T13:12:41.348Z</time></trkpt><trkpt lat="44.4259967" lon="8.1201483"><ele>620.3333333333334</ele><time>2026-05-01T13:12:42.354Z</time></trkpt><trkpt lat="44.4258767" lon="8.12026"><ele>621.0</ele><time>2026-05-01T13:12:43.35Z</time></trkpt><trkpt lat="44.425745" lon="8.1203333"><ele>621.0</ele><time>2026-05-01T13:12:44.353Z</time></trkpt><trkpt lat="44.4255933" lon="8.1203967"><ele>621.0</ele><time>2026-05-01T13:12:45.353Z</time></trkpt><trkpt lat="44.4254233" lon="8.1204617"><ele>621.0</ele><time>2026-05-01T13:12:46.349Z</time></trkpt><trkpt lat="44.4252417" lon="8.1205167"><ele>621.6666666666666</ele><time>2026-05-01T13:12:47.353Z</time></trkpt><trkpt lat="44.42505" lon="8.1205583"><ele>622.3333333333333</ele><time>2026-05-01T13:12:48.351Z</time></trkpt><trkpt lat="44.4248583" lon="8.1205883"><ele>623.0</ele><time>2026-05-01T13:12:49.353Z</time></trkpt><trkpt lat="44.4246717" lon="8.1206183"><ele>623.3333333333333</ele><time>2026-05-01T13:12:50.348Z</time></trkpt><trkpt lat="44.42449" lon="8.1206633"><ele>623.6666666666666</ele><time>2026-05-01T13:12:51.35Z</time></trkpt><trkpt lat="44.4243117" lon="8.1207233"><ele>624.0</ele><time>2026-05-01T13:12:52.35Z</time></trkpt><trkpt lat="44.4241283" lon="8.1207983"><ele>624.6666666666666</ele><time>2026-05-01T13:12:53.351Z</time></trkpt><trkpt lat="44.4239433" lon="8.120875"><ele>625.3333333333333</ele><time>2026-05-01T13:12:54.355Z</time></trkpt><trkpt lat="44.4237517" lon="8.1209583"><ele>626.0</ele><time>2026-05-01T13:12:55.353Z</time></trkpt><trkpt lat="44.4235567" lon="8.1210517"><ele>625.3333333333333</ele><time>2026-05-01T13:12:56.349Z</time></trkpt><trkpt lat="44.4233517" lon="8.1211517"><ele>624.6666666666666</ele><time>2026-05-01T13:12:57.356Z</time></trkpt><trkpt lat="44.4231417" lon="8.1212467"><ele>624.0</ele><time>2026-05-01T13:12:58.351Z</time></trkpt><trkpt lat="44.4229267" lon="8.1213417"><ele>624.0</ele><time>2026-05-01T13:12:59.352Z</time></trkpt><trkpt lat="44.42271" lon="8.1214367"><ele>624.0</ele><time>2026-05-01T13:13:00.357Z</time></trkpt><trkpt lat="44.4224933" lon="8.12153"><ele>623.3333333333334</ele><time>2026-05-01T13:13:01.353Z</time></trkpt><trkpt lat="44.42228" lon="8.1216183"><ele>622.6666666666667</ele><time>2026-05-01T13:13:02.354Z</time></trkpt><trkpt lat="44.42207" lon="8.1217033"><ele>622.0</ele><time>2026-05-01T13:13:03.349Z</time></trkpt><trkpt lat="44.4218683" lon="8.12178"><ele>622.0</ele><time>2026-05-01T13:13:04.354Z</time></trkpt><trkpt lat="44.4216783" lon="8.1218517"><ele>622.0</ele><time>2026-05-01T13:13:05.358Z</time></trkpt><trkpt lat="44.4215" lon="8.1219117"><ele>622.0</ele><time>2026-05-01T13:13:06.352Z</time></trkpt><trkpt lat="44.4213283" lon="8.1219533"><ele>622.3333333333334</ele><time>2026-05-01T13:13:07.35Z</time></trkpt><trkpt lat="44.4211633" lon="8.1219533"><ele>622.6666666666666</ele><time>2026-05-01T13:13:08.354Z</time></trkpt><trkpt lat="44.421" lon="8.1219117"><ele>623.0</ele><time>2026-05-01T13:13:09.355Z</time></trkpt><trkpt lat="44.4208283" lon="8.1218483"><ele>623.0</ele><time>2026-05-01T13:13:10.359Z</time></trkpt><trkpt lat="44.4206517" lon="8.1218083"><ele>623.0</ele><time>2026-05-01T13:13:11.35Z</time></trkpt><trkpt lat="44.42047" lon="8.12178"><ele>623.0</ele><time>2026-05-01T13:13:12.351Z</time></trkpt><trkpt lat="44.4202867" lon="8.1217583"><ele>622.6666666666666</ele><time>2026-05-01T13:13:13.353Z</time></trkpt><trkpt lat="44.420115" lon="8.121725"><ele>622.3333333333334</ele><time>2026-05-01T13:13:14.352Z</time></trkpt><trkpt lat="44.4199517" lon="8.1216933"><ele>622.0</ele><time>2026-05-01T13:13:15.353Z</time></trkpt><trkpt lat="44.419795" lon="8.121665"><ele>621.75</ele><time>2026-05-01T13:13:16.352Z</time></trkpt><trkpt lat="44.4196483" lon="8.121615"><ele>621.5</ele><time>2026-05-01T13:13:17.351Z</time></trkpt><trkpt lat="44.4195183" lon="8.12154"><ele>621.25</ele><time>2026-05-01T13:13:18.354Z</time></trkpt><trkpt lat="44.41941" lon="8.1214517"><ele>621.0</ele><time>2026-05-01T13:13:19.35Z</time></trkpt><trkpt lat="44.4193133" lon="8.1213517"><ele>621.0</ele><time>2026-05-01T13:13:20.352Z</time></trkpt><trkpt lat="44.4192333" lon="8.1212417"><ele>621.0</ele><time>2026-05-01T13:13:21.354Z</time></trkpt><trkpt lat="44.4191633" lon="8.1211167"><ele>621.0</ele><time>2026-05-01T13:13:22.35Z</time></trkpt><trkpt lat="44.4190933" lon="8.120995"><ele>621.0</ele><time>2026-05-01T13:13:23.349Z</time></trkpt><trkpt lat="44.419015" lon="8.1208767"><ele>621.0</ele><time>2026-05-01T13:13:24.348Z</time></trkpt><trkpt lat="44.418925" lon="8.12077"><ele>621.0</ele><time>2026-05-01T13:13:25.35Z</time></trkpt><trkpt lat="44.4188267" lon="8.120675"><ele>621.0</ele><time>2026-05-01T13:13:26.35Z</time></trkpt><trkpt lat="44.418725" lon="8.1206083"><ele>621.0</ele><time>2026-05-01T13:13:27.353Z</time></trkpt><trkpt lat="44.41863" lon="8.1205767"><ele>621.0</ele><time>2026-05-01T13:13:28.35Z</time></trkpt><trkpt lat="44.4185383" lon="8.12057"><ele>621.6</ele><time>2026-05-01T13:13:29.353Z</time></trkpt><trkpt lat="44.41845" lon="8.120585"><ele>622.2</ele><time>2026-05-01T13:13:30.352Z</time></trkpt><trkpt lat="44.4183617" lon="8.1206167"><ele>622.8</ele><time>2026-05-01T13:13:31.35Z</time></trkpt><trkpt lat="44.418275" lon="8.1206533"><ele>623.4</ele><time>2026-05-01T13:13:32.349Z</time></trkpt><trkpt lat="44.41819" lon="8.120695"><ele>624.0</ele><time>2026-05-01T13:13:33.349Z</time></trkpt><trkpt lat="44.418105" lon="8.1207333"><ele>624.1666666666666</ele><time>2026-05-01T13:13:34.35Z</time></trkpt><trkpt lat="44.4180217" lon="8.1207767"><ele>624.3333333333334</ele><time>2026-05-01T13:13:35.351Z</time></trkpt><trkpt lat="44.41795" lon="8.1208233"><ele>624.5</ele><time>2026-05-01T13:13:36.352Z</time></trkpt><trkpt lat="44.4178817" lon="8.1208683"><ele>624.6666666666667</ele><time>2026-05-01T13:13:37.349Z</time></trkpt><trkpt lat="44.4178133" lon="8.1209133"><ele>624.8333333333334</ele><time>2026-05-01T13:13:38.351Z</time></trkpt><trkpt lat="44.4177467" lon="8.12095"><ele>625.0</ele><time>2026-05-01T13:13:39.349Z</time></trkpt><trkpt lat="44.417685" lon="8.1209817"><ele>625.0</ele><time>2026-05-01T13:13:40.352Z</time></trkpt><trkpt lat="44.4175783" lon="8.1210383"><ele>625.0</ele><time>2026-05-01T13:13:42.348Z</time></trkpt><trkpt lat="44.41756" lon="8.1211233"><ele>625.0</ele><time>2026-05-01T13:13:45.351Z</time></trkpt><trkpt lat="44.4176217" lon="8.1210733"><ele>625.0</ele><time>2026-05-01T13:14:26.352Z</time></trkpt><trkpt lat="44.4175217" lon="8.12105"><ele>625.0</ele><time>2026-05-01T13:14:30.35Z</time></trkpt><trkpt lat="44.417415" lon="8.1210717"><ele>625.0</ele><time>2026-05-01T13:14:31.348Z</time></trkpt><trkpt lat="44.4172967" lon="8.1210867"><ele>625.0</ele><time>2026-05-01T13:14:32.348Z</time></trkpt><trkpt lat="44.4171767" lon="8.1210917"><ele>625.0</ele><time>2026-05-01T13:14:33.348Z</time></trkpt><trkpt lat="44.4170467" lon="8.1210833"><ele>625.0</ele><time>2026-05-01T13:14:34.35Z</time></trkpt><trkpt lat="44.4169083" lon="8.121065"><ele>625.0</ele><time>2026-05-01T13:14:35.355Z</time></trkpt><trkpt lat="44.41676" lon="8.1210383"><ele>625.0</ele><time>2026-05-01T13:14:36.35Z</time></trkpt><trkpt lat="44.4166267" lon="8.1209933"><ele>625.0</ele><time>2026-05-01T13:14:37.353Z</time></trkpt><trkpt lat="44.4164883" lon="8.1209817"><ele>625.0</ele><time>2026-05-01T13:14:38.353Z</time></trkpt><trkpt lat="44.41634" lon="8.1209983"><ele>625.0</ele><time>2026-05-01T13:14:39.351Z</time></trkpt><trkpt lat="44.4161733" lon="8.1210117"><ele>625.0</ele><time>2026-05-01T13:14:40.351Z</time></trkpt><trkpt lat="44.415995" lon="8.1210217"><ele>625.0</ele><time>2026-05-01T13:14:41.35Z</time></trkpt><trkpt lat="44.4158017" lon="8.121025"><ele>625.0</ele><time>2026-05-01T13:14:42.353Z</time></trkpt><trkpt lat="44.4156083" lon="8.1210133"><ele>625.0</ele><time>2026-05-01T13:14:43.351Z</time></trkpt><trkpt lat="44.4154233" lon="8.120995"><ele>625.0</ele><time>2026-05-01T13:14:44.352Z</time></trkpt><trkpt lat="44.4152417" lon="8.12096"><ele>625.0</ele><time>2026-05-01T13:14:45.354Z</time></trkpt><trkpt lat="44.4150683" lon="8.1209133"><ele>625.0</ele><time>2026-05-01T13:14:46.349Z</time></trkpt><trkpt lat="44.4148867" lon="8.1208733"><ele>625.0</ele><time>2026-05-01T13:14:47.35Z</time></trkpt><trkpt lat="44.414695" lon="8.1208467"><ele>624.6666666666667</ele><time>2026-05-01T13:14:48.35Z</time></trkpt><trkpt lat="44.4144917" lon="8.12083"><ele>624.3333333333334</ele><time>2026-05-01T13:14:49.353Z</time></trkpt><trkpt lat="44.4142817" lon="8.12082"><ele>624.0</ele><time>2026-05-01T13:14:50.353Z</time></trkpt><trkpt lat="44.4140717" lon="8.1208283"><ele>624.0</ele><time>2026-05-01T13:14:51.353Z</time></trkpt><trkpt lat="44.413865" lon="8.1208467"><ele>624.0</ele><time>2026-05-01T13:14:52.351Z</time></trkpt><trkpt lat="44.4136567" lon="8.1208917"><ele>624.0</ele><time>2026-05-01T13:14:53.35Z</time></trkpt><trkpt lat="44.41346" lon="8.120965"><ele>624.0</ele><time>2026-05-01T13:14:54.351Z</time></trkpt><trkpt lat="44.4132783" lon="8.1210567"><ele>624.0</ele><time>2026-05-01T13:14:55.351Z</time></trkpt><trkpt lat="44.4131033" lon="8.12117"><ele>624.0</ele><time>2026-05-01T13:14:56.354Z</time></trkpt><trkpt lat="44.4129367" lon="8.1212983"><ele>624.3333333333334</ele><time>2026-05-01T13:14:57.356Z</time></trkpt><trkpt lat="44.412795" lon="8.121445"><ele>624.6666666666667</ele><time>2026-05-01T13:14:58.352Z</time></trkpt><trkpt lat="44.4126683" lon="8.12161"><ele>625.0</ele><time>2026-05-01T13:14:59.351Z</time></trkpt><trkpt lat="44.4125533" lon="8.1217833"><ele>625.0</ele><time>2026-05-01T13:15:00.355Z</time></trkpt><trkpt lat="44.4124383" lon="8.1219317"><ele>625.0</ele><time>2026-05-01T13:15:01.351Z</time></trkpt><trkpt lat="44.4123167" lon="8.1220333"><ele>625.0</ele><time>2026-05-01T13:15:02.348Z</time></trkpt><trkpt lat="44.4121783" lon="8.1221083"><ele>625.0</ele><time>2026-05-01T13:15:03.355Z</time></trkpt><trkpt lat="44.4120267" lon="8.1221717"><ele>625.3333333333334</ele><time>2026-05-01T13:15:04.351Z</time></trkpt><trkpt lat="44.4118633" lon="8.122225"><ele>625.6666666666666</ele><time>2026-05-01T13:15:05.355Z</time></trkpt><trkpt lat="44.4116967" lon="8.122265"><ele>626.0</ele><time>2026-05-01T13:15:06.353Z</time></trkpt><trkpt lat="44.4115267" lon="8.122285"><ele>626.0</ele><time>2026-05-01T13:15:07.352Z</time></trkpt><trkpt lat="44.411355" lon="8.122295"><ele>626.0</ele><time>2026-05-01T13:15:08.348Z</time></trkpt><trkpt lat="44.4111817" lon="8.1223167"><ele>626.0</ele><time>2026-05-01T13:15:09.349Z</time></trkpt><trkpt lat="44.4110117" lon="8.1223567"><ele>629.5</ele><time>2026-05-01T13:15:10.354Z</time></trkpt><trkpt lat="44.4108617" lon="8.1224033"><ele>633.0</ele><time>2026-05-01T13:15:11.356Z</time></trkpt><trkpt lat="44.41073" lon="8.1224483"><ele>636.5</ele><time>2026-05-01T13:15:12.352Z</time></trkpt><trkpt lat="44.410625" lon="8.1225033"><ele>640.0</ele><time>2026-05-01T13:15:13.353Z</time></trkpt><trkpt lat="44.4105383" lon="8.122565"><ele>638.6</ele><time>2026-05-01T13:15:14.348Z</time></trkpt><trkpt lat="44.410465" lon="8.1226383"><ele>637.2</ele><time>2026-05-01T13:15:15.351Z</time></trkpt><trkpt lat="44.4103933" lon="8.1227383"><ele>635.8</ele><time>2026-05-01T13:15:16.35Z</time></trkpt><trkpt lat="44.410325" lon="8.1228717"><ele>634.4</ele><time>2026-05-01T13:15:17.352Z</time></trkpt><trkpt lat="44.410265" lon="8.1230383"><ele>633.0</ele><time>2026-05-01T13:15:18.349Z</time></trkpt><trkpt lat="44.410215" lon="8.123245"><ele>633.0</ele><time>2026-05-01T13:15:19.352Z</time></trkpt><trkpt lat="44.410175" lon="8.123475"><ele>633.0</ele><time>2026-05-01T13:15:20.35Z</time></trkpt><trkpt lat="44.4101317" lon="8.1237067"><ele>633.0</ele><time>2026-05-01T13:15:21.35Z</time></trkpt><trkpt lat="44.4100767" lon="8.1239333"><ele>633.0</ele><time>2026-05-01T13:15:22.351Z</time></trkpt><trkpt lat="44.410015" lon="8.1241567"><ele>633.0</ele><time>2026-05-01T13:15:23.351Z</time></trkpt><trkpt lat="44.409935" lon="8.12435"><ele>633.0</ele><time>2026-05-01T13:15:24.351Z</time></trkpt><trkpt lat="44.409835" lon="8.124495"><ele>633.0</ele><time>2026-05-01T13:15:25.352Z</time></trkpt><trkpt lat="44.40972" lon="8.1246033"><ele>633.0</ele><time>2026-05-01T13:15:26.353Z</time></trkpt><trkpt lat="44.4095917" lon="8.124705"><ele>633.0</ele><time>2026-05-01T13:15:27.352Z</time></trkpt><trkpt lat="44.4094683" lon="8.1248283"><ele>633.0</ele><time>2026-05-01T13:15:28.356Z</time></trkpt><trkpt lat="44.4093567" lon="8.124985"><ele>632.3333333333334</ele><time>2026-05-01T13:15:29.351Z</time></trkpt><trkpt lat="44.4092517" lon="8.125165"><ele>631.6666666666667</ele><time>2026-05-01T13:15:30.353Z</time></trkpt><trkpt lat="44.4091417" lon="8.1253617"><ele>631.0</ele><time>2026-05-01T13:15:31.351Z</time></trkpt><trkpt lat="44.4090267" lon="8.1255733"><ele>631.3333333333334</ele><time>2026-05-01T13:15:32.35Z</time></trkpt><trkpt lat="44.4089083" lon="8.125795"><ele>631.6666666666666</ele><time>2026-05-01T13:15:33.36Z</time></trkpt><trkpt lat="44.40879" lon="8.12602"><ele>632.0</ele><time>2026-05-01T13:15:34.35Z</time></trkpt><trkpt lat="44.4086767" lon="8.1262383"><ele>631.0</ele><time>2026-05-01T13:15:35.35Z</time></trkpt><trkpt lat="44.408565" lon="8.12643"><ele>630.0</ele><time>2026-05-01T13:15:36.347Z</time></trkpt><trkpt lat="44.4084567" lon="8.126605"><ele>629.0</ele><time>2026-05-01T13:15:37.35Z</time></trkpt><trkpt lat="44.4083567" lon="8.12677"><ele>629.0</ele><time>2026-05-01T13:15:38.35Z</time></trkpt><trkpt lat="44.40827" lon="8.1269283"><ele>629.0</ele><time>2026-05-01T13:15:39.353Z</time></trkpt><trkpt lat="44.4082" lon="8.127085"><ele>629.0</ele><time>2026-05-01T13:15:40.35Z</time></trkpt><trkpt lat="44.4081467" lon="8.1272333"><ele>629.0</ele><time>2026-05-01T13:15:41.352Z</time></trkpt><trkpt lat="44.4081083" lon="8.1273717"><ele>629.3333333333333</ele><time>2026-05-01T13:15:42.353Z</time></trkpt><trkpt lat="44.4080767" lon="8.1274967"><ele>629.6666666666666</ele><time>2026-05-01T13:15:43.353Z</time></trkpt><trkpt lat="44.408045" lon="8.1276"><ele>630.0</ele><time>2026-05-01T13:15:44.351Z</time></trkpt><trkpt lat="44.4080167" lon="8.1276833"><ele>630.3333333333334</ele><time>2026-05-01T13:15:45.354Z</time></trkpt><trkpt lat="44.4080033" lon="8.127845"><ele>630.6666666666667</ele><time>2026-05-01T13:15:47.351Z</time></trkpt><trkpt lat="44.4080183" lon="8.1279483"><ele>631.0</ele><time>2026-05-01T13:15:48.352Z</time></trkpt><trkpt lat="44.40805" lon="8.128085"><ele>631.0</ele><time>2026-05-01T13:15:49.35Z</time></trkpt><trkpt lat="44.4080967" lon="8.1282533"><ele>631.0</ele><time>2026-05-01T13:15:50.349Z</time></trkpt><trkpt lat="44.4081433" lon="8.1284433"><ele>631.0</ele><time>2026-05-01T13:15:51.353Z</time></trkpt><trkpt lat="44.4081917" lon="8.12864"><ele>631.0</ele><time>2026-05-01T13:15:52.35Z</time></trkpt><trkpt lat="44.4082383" lon="8.1288217"><ele>631.0</ele><time>2026-05-01T13:15:53.354Z</time></trkpt><trkpt lat="44.40828" lon="8.12898"><ele>631.0</ele><time>2026-05-01T13:15:54.353Z</time></trkpt><trkpt lat="44.4083167" lon="8.12911"><ele>631.0</ele><time>2026-05-01T13:15:55.355Z</time></trkpt><trkpt lat="44.4083383" lon="8.129205"><ele>631.0</ele><time>2026-05-01T13:15:56.351Z</time></trkpt><trkpt lat="44.40833" lon="8.12932"><ele>631.0</ele><time>2026-05-01T13:15:58.35Z</time></trkpt><trkpt lat="44.4082383" lon="8.1293333"><ele>631.0</ele><time>2026-05-01T13:16:00.354Z</time></trkpt><trkpt lat="44.4081633" lon="8.129325"><ele>631.0</ele><time>2026-05-01T13:16:01.352Z</time></trkpt><trkpt lat="44.4080667" lon="8.1293067"><ele>631.0</ele><time>2026-05-01T13:16:02.351Z</time></trkpt><trkpt lat="44.4079567" lon="8.1292783"><ele>631.0</ele><time>2026-05-01T13:16:03.35Z</time></trkpt><trkpt lat="44.407835" lon="8.1292517"><ele>631.0</ele><time>2026-05-01T13:16:04.347Z</time></trkpt><trkpt lat="44.407695" lon="8.1292283"><ele>631.0</ele><time>2026-05-01T13:16:05.353Z</time></trkpt><trkpt lat="44.4075367" lon="8.1292067"><ele>631.0</ele><time>2026-05-01T13:16:06.352Z</time></trkpt><trkpt lat="44.4073767" lon="8.1291817"><ele>631.0</ele><time>2026-05-01T13:16:07.35Z</time></trkpt><trkpt lat="44.407215" lon="8.129155"><ele>631.0</ele><time>2026-05-01T13:16:08.351Z</time></trkpt><trkpt lat="44.40705" lon="8.129125"><ele>631.0</ele><time>2026-05-01T13:16:09.348Z</time></trkpt><trkpt lat="44.4068833" lon="8.129095"><ele>631.0</ele><time>2026-05-01T13:16:10.349Z</time></trkpt><trkpt lat="44.4067183" lon="8.1290633"><ele>630.5</ele><time>2026-05-01T13:16:11.348Z</time></trkpt><trkpt lat="44.406565" lon="8.1290317"><ele>630.0</ele><time>2026-05-01T13:16:12.35Z</time></trkpt><trkpt lat="44.4064183" lon="8.1290017"><ele>629.5</ele><time>2026-05-01T13:16:13.349Z</time></trkpt><trkpt lat="44.40628" lon="8.12897"><ele>629.0</ele><time>2026-05-01T13:16:14.35Z</time></trkpt><trkpt lat="44.4061533" lon="8.1289433"><ele>629.0</ele><time>2026-05-01T13:16:15.35Z</time></trkpt><trkpt lat="44.40604" lon="8.1289233"><ele>629.0</ele><time>2026-05-01T13:16:16.351Z</time></trkpt><trkpt lat="44.4059317" lon="8.1289183"><ele>629.0</ele><time>2026-05-01T13:16:17.352Z</time></trkpt><trkpt lat="44.40583" lon="8.1289283"><ele>629.0</ele><time>2026-05-01T13:16:18.352Z</time></trkpt><trkpt lat="44.40573" lon="8.1289567"><ele>629.0</ele><time>2026-05-01T13:16:19.353Z</time></trkpt><trkpt lat="44.40563" lon="8.1290033"><ele>629.5</ele><time>2026-05-01T13:16:20.349Z</time></trkpt><trkpt lat="44.4055217" lon="8.1290767"><ele>630.0</ele><time>2026-05-01T13:16:21.353Z</time></trkpt><trkpt lat="44.4054133" lon="8.12915"><ele>630.5</ele><time>2026-05-01T13:16:22.352Z</time></trkpt><trkpt lat="44.4053033" lon="8.12922"><ele>631.0</ele><time>2026-05-01T13:16:23.352Z</time></trkpt><trkpt lat="44.4051983" lon="8.1292767"><ele>631.0</ele><time>2026-05-01T13:16:24.354Z</time></trkpt><trkpt lat="44.405095" lon="8.1293217"><ele>631.0</ele><time>2026-05-01T13:16:25.353Z</time></trkpt><trkpt lat="44.4049867" lon="8.12936"><ele>631.0</ele><time>2026-05-01T13:16:26.35Z</time></trkpt><trkpt lat="44.404875" lon="8.1293883"><ele>631.0</ele><time>2026-05-01T13:16:27.353Z</time></trkpt><trkpt lat="44.4047667" lon="8.1294017"><ele>631.0</ele><time>2026-05-01T13:16:28.35Z</time></trkpt><trkpt lat="44.4046633" lon="8.1294067"><ele>631.0</ele><time>2026-05-01T13:16:29.35Z</time></trkpt><trkpt lat="44.4045783" lon="8.1294033"><ele>634.0</ele><time>2026-05-01T13:16:30.351Z</time></trkpt><trkpt lat="44.404515" lon="8.1294017"><ele>634.0</ele><time>2026-05-01T13:16:31.353Z</time></trkpt><trkpt lat="44.4044333" lon="8.129385"><ele>634.0</ele><time>2026-05-01T13:16:33.351Z</time></trkpt><trkpt lat="44.404355" lon="8.1293617"><ele>634.0</ele><time>2026-05-01T13:16:36.353Z</time></trkpt></trkseg><trkseg><trkpt lat="44.404545" lon="8.12953"><ele>634.0</ele><time>2026-05-01T13:33:39.354Z</time></trkpt><trkpt lat="44.4044333" lon="8.1295067"><ele>634.0</ele><time>2026-05-01T13:33:40.351Z</time></trkpt><trkpt lat="44.4045217" lon="8.1294617"><ele>634.0</ele><time>2026-05-01T13:33:42.349Z</time></trkpt><trkpt lat="44.4045883" lon="8.1294433"><ele>634.0</ele><time>2026-05-01T13:33:43.349Z</time></trkpt><trkpt lat="44.4046983" lon="8.1294"><ele>634.0</ele><time>2026-05-01T13:33:44.351Z</time></trkpt><trkpt lat="44.4047867" lon="8.129385"><ele>633.25</ele><time>2026-05-01T13:33:45.353Z</time></trkpt><trkpt lat="44.4048917" lon="8.12936"><ele>632.5</ele><time>2026-05-01T13:33:46.354Z</time></trkpt><trkpt lat="44.405005" lon="8.1293283"><ele>631.75</ele><time>2026-05-01T13:33:47.353Z</time></trkpt><trkpt lat="44.4051233" lon="8.1292933"><ele>631.0</ele><time>2026-05-01T13:33:48.355Z</time></trkpt><trkpt lat="44.4052417" lon="8.1292483"><ele>631.0</ele><time>2026-05-01T13:33:49.352Z</time></trkpt><trkpt lat="44.4053567" lon="8.12919"><ele>631.0</ele><time>2026-05-01T13:33:50.352Z</time></trkpt><trkpt lat="44.4054683" lon="8.1291267"><ele>631.0</ele><time>2026-05-01T13:33:51.353Z</time></trkpt><trkpt lat="44.4055833" lon="8.1290683"><ele>631.0</ele><time>2026-05-01T13:33:52.354Z</time></trkpt><trkpt lat="44.4056917" lon="8.1290167"><ele>630.5</ele><time>2026-05-01T13:33:53.351Z</time></trkpt><trkpt lat="44.4057967" lon="8.1289733"><ele>630.0</ele><time>2026-05-01T13:33:54.35Z</time></trkpt><trkpt lat="44.4059033" lon="8.1289467"><ele>629.5</ele><time>2026-05-01T13:33:55.352Z</time></trkpt><trkpt lat="44.406015" lon="8.1289417"><ele>629.0</ele><time>2026-05-01T13:33:56.354Z</time></trkpt><trkpt lat="44.4061383" lon="8.128955"><ele>629.0</ele><time>2026-05-01T13:33:57.354Z</time></trkpt><trkpt lat="44.4062717" lon="8.1289817"><ele>629.0</ele><time>2026-05-01T13:33:58.355Z</time></trkpt><trkpt lat="44.4064067" lon="8.1290083"><ele>629.0</ele><time>2026-05-01T13:33:59.353Z</time></trkpt><trkpt lat="44.4065417" lon="8.12904"><ele>629.0</ele><time>2026-05-01T13:34:00.354Z</time></trkpt><trkpt lat="44.4066817" lon="8.1290717"><ele>629.5</ele><time>2026-05-01T13:34:01.355Z</time></trkpt><trkpt lat="44.40682" lon="8.1291"><ele>630.0</ele><time>2026-05-01T13:34:02.352Z</time></trkpt><trkpt lat="44.4069583" lon="8.129125"><ele>630.5</ele><time>2026-05-01T13:34:03.354Z</time></trkpt><trkpt lat="44.4070967" lon="8.1291467"><ele>631.0</ele><time>2026-05-01T13:34:04.352Z</time></trkpt><trkpt lat="44.4072333" lon="8.1291667"><ele>631.0</ele><time>2026-05-01T13:34:05.351Z</time></trkpt><trkpt lat="44.4073717" lon="8.129185"><ele>631.0</ele><time>2026-05-01T13:34:06.356Z</time></trkpt><trkpt lat="44.4075083" lon="8.1292083"><ele>631.0</ele><time>2026-05-01T13:34:07.351Z</time></trkpt><trkpt lat="44.4076433" lon="8.1292317"><ele>631.0</ele><time>2026-05-01T13:34:08.357Z</time></trkpt><trkpt lat="44.4077733" lon="8.12925"><ele>631.0</ele><time>2026-05-01T13:34:09.35Z</time></trkpt><trkpt lat="44.4078933" lon="8.1292667"><ele>631.0</ele><time>2026-05-01T13:34:10.353Z</time></trkpt><trkpt lat="44.4080033" lon="8.1292833"><ele>631.0</ele><time>2026-05-01T13:34:11.352Z</time></trkpt><trkpt lat="44.4081033" lon="8.1292967"><ele>631.0</ele><time>2026-05-01T13:34:12.358Z</time></trkpt><trkpt lat="44.4081917" lon="8.1293117"><ele>631.0</ele><time>2026-05-01T13:34:13.355Z</time></trkpt><trkpt lat="44.4082667" lon="8.1293267"><ele>631.0</ele><time>2026-05-01T13:34:14.353Z</time></trkpt><trkpt lat="44.4083517" lon="8.12933"><ele>631.0</ele><time>2026-05-01T13:34:16.352Z</time></trkpt><trkpt lat="44.4083883" lon="8.12923"><ele>631.0</ele><time>2026-05-01T13:34:19.352Z</time></trkpt><trkpt lat="44.4083533" lon="8.1290433"><ele>631.0</ele><time>2026-05-01T13:34:21.349Z</time></trkpt><trkpt lat="44.408325" lon="8.1289183"><ele>631.0</ele><time>2026-05-01T13:34:22.35Z</time></trkpt><trkpt lat="44.4082833" lon="8.1287683"><ele>631.0</ele><time>2026-05-01T13:34:23.354Z</time></trkpt><trkpt lat="44.40824" lon="8.128605"><ele>631.0</ele><time>2026-05-01T13:34:24.354Z</time></trkpt><trkpt lat="44.4081933" lon="8.1284333"><ele>631.0</ele><time>2026-05-01T13:34:25.354Z</time></trkpt><trkpt lat="44.4081417" lon="8.1282517"><ele>631.0</ele><time>2026-05-01T13:34:26.351Z</time></trkpt><trkpt lat="44.4080867" lon="8.1280517"><ele>631.0</ele><time>2026-05-01T13:34:27.359Z</time></trkpt><trkpt lat="44.4080283" lon="8.1278333"><ele>631.0</ele><time>2026-05-01T13:34:28.35Z</time></trkpt><trkpt lat="44.4079667" lon="8.1275983"><ele>631.0</ele><time>2026-05-01T13:34:29.349Z</time></trkpt><trkpt lat="44.4079017" lon="8.1273583"><ele>630.0</ele><time>2026-05-01T13:34:30.356Z</time></trkpt><trkpt lat="44.4078383" lon="8.1271133"><ele>629.0</ele><time>2026-05-01T13:34:31.35Z</time></trkpt><trkpt lat="44.4077717" lon="8.1268633"><ele>628.0</ele><time>2026-05-01T13:34:32.354Z</time></trkpt><trkpt lat="44.4077033" lon="8.1266083"><ele>627.3333333333334</ele><time>2026-05-01T13:34:33.354Z</time></trkpt><trkpt lat="44.4076317" lon="8.12635"><ele>626.6666666666666</ele><time>2026-05-01T13:34:34.35Z</time></trkpt><trkpt lat="44.4075617" lon="8.1260933"><ele>626.0</ele><time>2026-05-01T13:34:35.349Z</time></trkpt><trkpt lat="44.4074933" lon="8.125835"><ele>626.3333333333333</ele><time>2026-05-01T13:34:36.349Z</time></trkpt><trkpt lat="44.407425" lon="8.1255783"><ele>626.6666666666666</ele><time>2026-05-01T13:34:37.352Z</time></trkpt><trkpt lat="44.4073583" lon="8.1253217"><ele>627.0</ele><time>2026-05-01T13:34:38.354Z</time></trkpt><trkpt lat="44.4072967" lon="8.1250783"><ele>627.0</ele><time>2026-05-01T13:34:39.357Z</time></trkpt><trkpt lat="44.4072333" lon="8.12485"><ele>627.0</ele><time>2026-05-01T13:34:40.355Z</time></trkpt><trkpt lat="44.4071717" lon="8.1246433"><ele>627.0</ele><time>2026-05-01T13:34:41.352Z</time></trkpt><trkpt lat="44.4071" lon="8.1244533"><ele>629.25</ele><time>2026-05-01T13:34:42.356Z</time></trkpt><trkpt lat="44.4070117" lon="8.1242817"><ele>631.5</ele><time>2026-05-01T13:34:43.353Z</time></trkpt><trkpt lat="44.406905" lon="8.124135"><ele>633.75</ele><time>2026-05-01T13:34:44.353Z</time></trkpt><trkpt lat="44.406785" lon="8.1240283"><ele>636.0</ele><time>2026-05-01T13:34:45.356Z</time></trkpt><trkpt lat="44.406655" lon="8.1239717"><ele>636.75</ele><time>2026-05-01T13:34:46.356Z</time></trkpt><trkpt lat="44.4065217" lon="8.123965"><ele>637.5</ele><time>2026-05-01T13:34:47.354Z</time></trkpt><trkpt lat="44.4063933" lon="8.124005"><ele>638.25</ele><time>2026-05-01T13:34:48.351Z</time></trkpt><trkpt lat="44.4062767" lon="8.124055"><ele>639.0</ele><time>2026-05-01T13:34:49.362Z</time></trkpt><trkpt lat="44.40616" lon="8.1240683"><ele>640.75</ele><time>2026-05-01T13:34:50.354Z</time></trkpt><trkpt lat="44.4060483" lon="8.1240317"><ele>642.5</ele><time>2026-05-01T13:34:51.352Z</time></trkpt><trkpt lat="44.4059333" lon="8.12395"><ele>644.25</ele><time>2026-05-01T13:34:52.355Z</time></trkpt><trkpt lat="44.40582" lon="8.1238433"><ele>646.0</ele><time>2026-05-01T13:34:53.349Z</time></trkpt><trkpt lat="44.4057" lon="8.1237233"><ele>646.0</ele><time>2026-05-01T13:34:54.351Z</time></trkpt><trkpt lat="44.4055783" lon="8.123595"><ele>646.0</ele><time>2026-05-01T13:34:55.351Z</time></trkpt><trkpt lat="44.4054583" lon="8.123465"><ele>646.0</ele><time>2026-05-01T13:34:56.349Z</time></trkpt><trkpt lat="44.4053417" lon="8.1233383"><ele>649.0</ele><time>2026-05-01T13:34:57.351Z</time></trkpt><trkpt lat="44.40523" lon="8.1232017"><ele>652.0</ele><time>2026-05-01T13:34:58.351Z</time></trkpt><trkpt lat="44.40513" lon="8.1230417"><ele>655.0</ele><time>2026-05-01T13:34:59.351Z</time></trkpt><trkpt lat="44.4050433" lon="8.1228567"><ele>655.0</ele><time>2026-05-01T13:35:00.354Z</time></trkpt><trkpt lat="44.4049667" lon="8.122655"><ele>655.0</ele><time>2026-05-01T13:35:01.358Z</time></trkpt><trkpt lat="44.4048883" lon="8.122445"><ele>655.0</ele><time>2026-05-01T13:35:02.354Z</time></trkpt><trkpt lat="44.4048033" lon="8.1222333"><ele>656.0</ele><time>2026-05-01T13:35:03.356Z</time></trkpt><trkpt lat="44.404715" lon="8.12202"><ele>657.0</ele><time>2026-05-01T13:35:04.356Z</time></trkpt><trkpt lat="44.4046183" lon="8.1218067"><ele>658.0</ele><time>2026-05-01T13:35:05.354Z</time></trkpt><trkpt lat="44.4045167" lon="8.1215967"><ele>661.3333333333334</ele><time>2026-05-01T13:35:06.351Z</time></trkpt><trkpt lat="44.4044133" lon="8.1213817"><ele>664.6666666666666</ele><time>2026-05-01T13:35:07.357Z</time></trkpt><trkpt lat="44.404305" lon="8.1211583"><ele>668.0</ele><time>2026-05-01T13:35:08.351Z</time></trkpt><trkpt lat="44.4041967" lon="8.120935"><ele>667.0</ele><time>2026-05-01T13:35:09.353Z</time></trkpt><trkpt lat="44.4040883" lon="8.120715"><ele>666.0</ele><time>2026-05-01T13:35:10.351Z</time></trkpt><trkpt lat="44.4039817" lon="8.1205067"><ele>665.0</ele><time>2026-05-01T13:35:11.351Z</time></trkpt><trkpt lat="44.4038883" lon="8.1203117"><ele>667.5</ele><time>2026-05-01T13:35:12.35Z</time></trkpt><trkpt lat="44.40381" lon="8.1201217"><ele>670.0</ele><time>2026-05-01T13:35:13.352Z</time></trkpt><trkpt lat="44.403745" lon="8.1199483"><ele>672.5</ele><time>2026-05-01T13:35:14.359Z</time></trkpt><trkpt lat="44.4037017" lon="8.1197917"><ele>675.0</ele><time>2026-05-01T13:35:15.352Z</time></trkpt><trkpt lat="44.40367" lon="8.1196617"><ele>675.0</ele><time>2026-05-01T13:35:16.353Z</time></trkpt><trkpt lat="44.40363" lon="8.1195667"><ele>675.0</ele><time>2026-05-01T13:35:17.349Z</time></trkpt><trkpt lat="44.403575" lon="8.1194983"><ele>675.0</ele><time>2026-05-01T13:35:18.355Z</time></trkpt><trkpt lat="44.4035083" lon="8.11949"><ele>675.0</ele><time>2026-05-01T13:35:19.354Z</time></trkpt><trkpt lat="44.4034467" lon="8.1195517"><ele>675.0</ele><time>2026-05-01T13:35:20.352Z</time></trkpt><trkpt lat="44.4034033" lon="8.1196517"><ele>675.0</ele><time>2026-05-01T13:35:21.35Z</time></trkpt><trkpt lat="44.4033867" lon="8.1197683"><ele>675.4</ele><time>2026-05-01T13:35:22.352Z</time></trkpt><trkpt lat="44.4034267" lon="8.1199167"><ele>675.8</ele><time>2026-05-01T13:35:23.351Z</time></trkpt><trkpt lat="44.40345" lon="8.1200683"><ele>676.2</ele><time>2026-05-01T13:35:24.353Z</time></trkpt><trkpt lat="44.40344" lon="8.1202083"><ele>676.6</ele><time>2026-05-01T13:35:25.355Z</time></trkpt><trkpt lat="44.4033983" lon="8.1203267"><ele>677.0</ele><time>2026-05-01T13:35:26.353Z</time></trkpt><trkpt lat="44.4033217" lon="8.1204083"><ele>677.0</ele><time>2026-05-01T13:35:27.362Z</time></trkpt><trkpt lat="44.4032317" lon="8.12043"><ele>677.0</ele><time>2026-05-01T13:35:28.352Z</time></trkpt><trkpt lat="44.403145" lon="8.1203867"><ele>677.0</ele><time>2026-05-01T13:35:29.348Z</time></trkpt><trkpt lat="44.4030733" lon="8.120275"><ele>677.0</ele><time>2026-05-01T13:35:30.349Z</time></trkpt><trkpt lat="44.4030167" lon="8.120125"><ele>677.0</ele><time>2026-05-01T13:35:31.35Z</time></trkpt><trkpt lat="44.4029583" lon="8.119965"><ele>679.0</ele><time>2026-05-01T13:35:32.356Z</time></trkpt><trkpt lat="44.4028933" lon="8.1198"><ele>681.0</ele><time>2026-05-01T13:35:33.349Z</time></trkpt><trkpt lat="44.4028267" lon="8.1196267"><ele>683.0</ele><time>2026-05-01T13:35:34.353Z</time></trkpt><trkpt lat="44.4027583" lon="8.1194533"><ele>685.0</ele><time>2026-05-01T13:35:35.351Z</time></trkpt><trkpt lat="44.4026867" lon="8.1192717"><ele>685.0</ele><time>2026-05-01T13:35:36.35Z</time></trkpt><trkpt lat="44.4026117" lon="8.11909"><ele>685.0</ele><time>2026-05-01T13:35:37.353Z</time></trkpt><trkpt lat="44.4025317" lon="8.1189033"><ele>685.0</ele><time>2026-05-01T13:35:38.35Z</time></trkpt><trkpt lat="44.4024433" lon="8.1187217"><ele>687.0</ele><time>2026-05-01T13:35:39.354Z</time></trkpt><trkpt lat="44.4023433" lon="8.1185533"><ele>689.0</ele><time>2026-05-01T13:35:40.353Z</time></trkpt><trkpt lat="44.4022333" lon="8.1183983"><ele>691.0</ele><time>2026-05-01T13:35:41.352Z</time></trkpt><trkpt lat="44.40212" lon="8.1182583"><ele>693.75</ele><time>2026-05-01T13:35:42.351Z</time></trkpt><trkpt lat="44.4020117" lon="8.118125"><ele>696.5</ele><time>2026-05-01T13:35:43.352Z</time></trkpt><trkpt lat="44.4019133" lon="8.118"><ele>699.25</ele><time>2026-05-01T13:35:44.352Z</time></trkpt><trkpt lat="44.40183" lon="8.1178867"><ele>702.0</ele><time>2026-05-01T13:35:45.354Z</time></trkpt><trkpt lat="44.4017683" lon="8.117795"><ele>702.0</ele><time>2026-05-01T13:35:46.351Z</time></trkpt><trkpt lat="44.4017233" lon="8.1177067"><ele>702.0</ele><time>2026-05-01T13:35:47.351Z</time></trkpt><trkpt lat="44.4016917" lon="8.117615"><ele>702.0</ele><time>2026-05-01T13:35:48.353Z</time></trkpt><trkpt lat="44.401675" lon="8.1175267"><ele>702.0</ele><time>2026-05-01T13:35:49.352Z</time></trkpt><trkpt lat="44.4016067" lon="8.1173833"><ele>702.0</ele><time>2026-05-01T13:35:51.351Z</time></trkpt><trkpt lat="44.40149" lon="8.1173567"><ele>702.0</ele><time>2026-05-01T13:35:53.355Z</time></trkpt><trkpt lat="44.401435" lon="8.117435"><ele>702.0</ele><time>2026-05-01T13:35:54.353Z</time></trkpt><trkpt lat="44.4013767" lon="8.117535"><ele>702.0</ele><time>2026-05-01T13:35:55.351Z</time></trkpt><trkpt lat="44.401305" lon="8.1176367"><ele>702.0</ele><time>2026-05-01T13:35:56.35Z</time></trkpt><trkpt lat="44.4012133" lon="8.117735"><ele>702.0</ele><time>2026-05-01T13:35:57.353Z</time></trkpt><trkpt lat="44.401105" lon="8.1178367"><ele>701.75</ele><time>2026-05-01T13:35:58.35Z</time></trkpt><trkpt lat="44.4009833" lon="8.11795"><ele>701.5</ele><time>2026-05-01T13:35:59.357Z</time></trkpt><trkpt lat="44.4008667" lon="8.1180783"><ele>701.25</ele><time>2026-05-01T13:36:00.354Z</time></trkpt><trkpt lat="44.4007583" lon="8.11823"><ele>701.0</ele><time>2026-05-01T13:36:01.353Z</time></trkpt><trkpt lat="44.4006533" lon="8.1183983"><ele>701.0</ele><time>2026-05-01T13:36:02.353Z</time></trkpt><trkpt lat="44.400555" lon="8.1185883"><ele>701.0</ele><time>2026-05-01T13:36:03.351Z</time></trkpt><trkpt lat="44.400465" lon="8.1187967"><ele>701.0</ele><time>2026-05-01T13:36:04.356Z</time></trkpt><trkpt lat="44.4003867" lon="8.1190233"><ele>706.0</ele><time>2026-05-01T13:36:05.35Z</time></trkpt><trkpt lat="44.4003217" lon="8.119265"><ele>711.0</ele><time>2026-05-01T13:36:06.35Z</time></trkpt><trkpt lat="44.4002617" lon="8.11951"><ele>716.0</ele><time>2026-05-01T13:36:07.35Z</time></trkpt><trkpt lat="44.4002083" lon="8.1197567"><ele>714.6666666666666</ele><time>2026-05-01T13:36:08.351Z</time></trkpt><trkpt lat="44.4001583" lon="8.1200033"><ele>713.3333333333334</ele><time>2026-05-01T13:36:09.354Z</time></trkpt><trkpt lat="44.4001183" lon="8.1202417"><ele>712.0</ele><time>2026-05-01T13:36:10.354Z</time></trkpt><trkpt lat="44.4000783" lon="8.1204633"><ele>712.0</ele><time>2026-05-01T13:36:11.353Z</time></trkpt><trkpt lat="44.400015" lon="8.1206633"><ele>712.0</ele><time>2026-05-01T13:36:12.349Z</time></trkpt><trkpt lat="44.3999233" lon="8.1208517"><ele>712.0</ele><time>2026-05-01T13:36:13.349Z</time></trkpt><trkpt lat="44.3998233" lon="8.12103"><ele>712.0</ele><time>2026-05-01T13:36:14.35Z</time></trkpt><trkpt lat="44.399705" lon="8.121205"><ele>712.0</ele><time>2026-05-01T13:36:15.353Z</time></trkpt><trkpt lat="44.399585" lon="8.121385"><ele>712.0</ele><time>2026-05-01T13:36:16.351Z</time></trkpt><trkpt lat="44.39946" lon="8.121565"><ele>710.6666666666667</ele><time>2026-05-01T13:36:17.35Z</time></trkpt><trkpt lat="44.3993217" lon="8.1217383"><ele>709.3333333333334</ele><time>2026-05-01T13:36:18.356Z</time></trkpt><trkpt lat="44.3991733" lon="8.1219"><ele>708.0</ele><time>2026-05-01T13:36:19.351Z</time></trkpt><trkpt lat="44.3990167" lon="8.1220517"><ele>708.0</ele><time>2026-05-01T13:36:20.351Z</time></trkpt><trkpt lat="44.3988483" lon="8.122195"><ele>708.0</ele><time>2026-05-01T13:36:21.35Z</time></trkpt><trkpt lat="44.3986767" lon="8.1223417"><ele>708.0</ele><time>2026-05-01T13:36:22.355Z</time></trkpt><trkpt lat="44.3985067" lon="8.1224933"><ele>705.3333333333334</ele><time>2026-05-01T13:36:23.353Z</time></trkpt><trkpt lat="44.3983383" lon="8.1226433"><ele>702.6666666666667</ele><time>2026-05-01T13:36:24.348Z</time></trkpt><trkpt lat="44.39818" lon="8.1227917"><ele>700.0</ele><time>2026-05-01T13:36:25.351Z</time></trkpt><trkpt lat="44.398035" lon="8.1229283"><ele>697.0</ele><time>2026-05-01T13:36:26.358Z</time></trkpt><trkpt lat="44.3979117" lon="8.1230683"><ele>694.0</ele><time>2026-05-01T13:36:27.357Z</time></trkpt><trkpt lat="44.3978067" lon="8.1232333"><ele>691.0</ele><time>2026-05-01T13:36:28.352Z</time></trkpt><trkpt lat="44.3977367" lon="8.1234283"><ele>691.0</ele><time>2026-05-01T13:36:29.35Z</time></trkpt><trkpt lat="44.397695" lon="8.12364"><ele>691.0</ele><time>2026-05-01T13:36:30.35Z</time></trkpt><trkpt lat="44.397685" lon="8.123855"><ele>691.0</ele><time>2026-05-01T13:36:31.353Z</time></trkpt><trkpt lat="44.3976817" lon="8.1240733"><ele>690.25</ele><time>2026-05-01T13:36:32.353Z</time></trkpt><trkpt lat="44.397665" lon="8.1242817"><ele>689.5</ele><time>2026-05-01T13:36:33.35Z</time></trkpt><trkpt lat="44.3976117" lon="8.1244717"><ele>688.75</ele><time>2026-05-01T13:36:34.348Z</time></trkpt><trkpt lat="44.39752" lon="8.1246383"><ele>688.0</ele><time>2026-05-01T13:36:35.352Z</time></trkpt><trkpt lat="44.3974033" lon="8.1247867"><ele>687.0</ele><time>2026-05-01T13:36:36.352Z</time></trkpt><trkpt lat="44.3972633" lon="8.1249217"><ele>686.0</ele><time>2026-05-01T13:36:37.353Z</time></trkpt><trkpt lat="44.3971133" lon="8.1250517"><ele>685.0</ele><time>2026-05-01T13:36:38.35Z</time></trkpt><trkpt lat="44.3969533" lon="8.1251833"><ele>684.0</ele><time>2026-05-01T13:36:39.352Z</time></trkpt><trkpt lat="44.396795" lon="8.1253217"><ele>683.0</ele><time>2026-05-01T13:36:40.352Z</time></trkpt><trkpt lat="44.396645" lon="8.1254783"><ele>682.0</ele><time>2026-05-01T13:36:41.354Z</time></trkpt><trkpt lat="44.39652" lon="8.125665"><ele>681.0</ele><time>2026-05-01T13:36:42.349Z</time></trkpt><trkpt lat="44.3964183" lon="8.1258833"><ele>680.0</ele><time>2026-05-01T13:36:43.353Z</time></trkpt><trkpt lat="44.3963483" lon="8.1261267"><ele>679.0</ele><time>2026-05-01T13:36:44.351Z</time></trkpt><trkpt lat="44.3963033" lon="8.12639"><ele>679.6666666666667</ele><time>2026-05-01T13:36:45.349Z</time></trkpt><trkpt lat="44.3962683" lon="8.1266567"><ele>680.3333333333334</ele><time>2026-05-01T13:36:46.353Z</time></trkpt><trkpt lat="44.3962267" lon="8.1269183"><ele>681.0</ele><time>2026-05-01T13:36:47.352Z</time></trkpt><trkpt lat="44.396165" lon="8.127165"><ele>680.0</ele><time>2026-05-01T13:36:48.352Z</time></trkpt><trkpt lat="44.39608" lon="8.127405"><ele>679.0</ele><time>2026-05-01T13:36:49.35Z</time></trkpt><trkpt lat="44.3959733" lon="8.12763"><ele>678.0</ele><time>2026-05-01T13:36:50.353Z</time></trkpt><trkpt lat="44.3958383" lon="8.1278383"><ele>678.0</ele><time>2026-05-01T13:36:51.351Z</time></trkpt><trkpt lat="44.3956817" lon="8.1280233"><ele>678.0</ele><time>2026-05-01T13:36:52.351Z</time></trkpt><trkpt lat="44.3955033" lon="8.1281833"><ele>678.0</ele><time>2026-05-01T13:36:53.352Z</time></trkpt><trkpt lat="44.3953233" lon="8.1283233"><ele>674.3333333333334</ele><time>2026-05-01T13:36:54.352Z</time></trkpt><trkpt lat="44.3951233" lon="8.1284467"><ele>670.6666666666667</ele><time>2026-05-01T13:36:55.355Z</time></trkpt><trkpt lat="44.3949217" lon="8.1285533"><ele>667.0</ele><time>2026-05-01T13:36:56.357Z</time></trkpt><trkpt lat="44.394725" lon="8.12863"><ele>668.0</ele><time>2026-05-01T13:36:57.356Z</time></trkpt><trkpt lat="44.3945267" lon="8.1286683"><ele>669.0</ele><time>2026-05-01T13:36:58.353Z</time></trkpt><trkpt lat="44.39433" lon="8.1286917"><ele>670.0</ele><time>2026-05-01T13:36:59.355Z</time></trkpt><trkpt lat="44.3941483" lon="8.1287167"><ele>670.0</ele><time>2026-05-01T13:37:00.351Z</time></trkpt><trkpt lat="44.393985" lon="8.1287633"><ele>670.0</ele><time>2026-05-01T13:37:01.354Z</time></trkpt><trkpt lat="44.3938317" lon="8.1288417"><ele>670.0</ele><time>2026-05-01T13:37:02.35Z</time></trkpt><trkpt lat="44.3936817" lon="8.1289533"><ele>672.0</ele><time>2026-05-01T13:37:03.353Z</time></trkpt><trkpt lat="44.3935317" lon="8.1290867"><ele>674.0</ele><time>2026-05-01T13:37:04.354Z</time></trkpt><trkpt lat="44.3933883" lon="8.1292383"><ele>676.0</ele><time>2026-05-01T13:37:05.351Z</time></trkpt><trkpt lat="44.3932533" lon="8.1294183"><ele>676.0</ele><time>2026-05-01T13:37:06.355Z</time></trkpt><trkpt lat="44.3931217" lon="8.1296117"><ele>676.0</ele><time>2026-05-01T13:37:07.356Z</time></trkpt><trkpt lat="44.3929783" lon="8.1297967"><ele>676.0</ele><time>2026-05-01T13:37:08.352Z</time></trkpt><trkpt lat="44.3928217" lon="8.1299617"><ele>679.3333333333334</ele><time>2026-05-01T13:37:09.351Z</time></trkpt><trkpt lat="44.3926617" lon="8.1301067"><ele>682.6666666666666</ele><time>2026-05-01T13:37:10.351Z</time></trkpt><trkpt lat="44.392495" lon="8.1302317"><ele>686.0</ele><time>2026-05-01T13:37:11.352Z</time></trkpt><trkpt lat="44.39233" lon="8.1303333"><ele>688.3333333333333</ele><time>2026-05-01T13:37:12.356Z</time></trkpt><trkpt lat="44.3921583" lon="8.1304033"><ele>690.6666666666666</ele><time>2026-05-01T13:37:13.354Z</time></trkpt><trkpt lat="44.39199" lon="8.1304183"><ele>693.0</ele><time>2026-05-01T13:37:14.354Z</time></trkpt><trkpt lat="44.3918233" lon="8.1303817"><ele>693.0</ele><time>2026-05-01T13:37:15.353Z</time></trkpt><trkpt lat="44.39166" lon="8.1302983"><ele>693.0</ele><time>2026-05-01T13:37:16.351Z</time></trkpt><trkpt lat="44.3915067" lon="8.1301933"><ele>693.0</ele><time>2026-05-01T13:37:17.352Z</time></trkpt><trkpt lat="44.39136" lon="8.1300983"><ele>694.0</ele><time>2026-05-01T13:37:18.356Z</time></trkpt><trkpt lat="44.39122" lon="8.13003"><ele>695.0</ele><time>2026-05-01T13:37:19.35Z</time></trkpt><trkpt lat="44.3910833" lon="8.1300167"><ele>696.0</ele><time>2026-05-01T13:37:20.35Z</time></trkpt><trkpt lat="44.3909533" lon="8.13005"><ele>697.0</ele><time>2026-05-01T13:37:21.358Z</time></trkpt><trkpt lat="44.3908333" lon="8.130135"><ele>697.0</ele><time>2026-05-01T13:37:22.349Z</time></trkpt><trkpt lat="44.3907317" lon="8.1302717"><ele>697.0</ele><time>2026-05-01T13:37:23.355Z</time></trkpt><trkpt lat="44.3906517" lon="8.1304433"><ele>697.0</ele><time>2026-05-01T13:37:24.353Z</time></trkpt><trkpt lat="44.3905633" lon="8.1306217"><ele>697.0</ele><time>2026-05-01T13:37:25.35Z</time></trkpt><trkpt lat="44.3904483" lon="8.130805"><ele>698.3333333333334</ele><time>2026-05-01T13:37:26.35Z</time></trkpt><trkpt lat="44.3903167" lon="8.130975"><ele>699.6666666666666</ele><time>2026-05-01T13:37:27.349Z</time></trkpt><trkpt lat="44.3901683" lon="8.1311433"><ele>701.0</ele><time>2026-05-01T13:37:28.35Z</time></trkpt><trkpt lat="44.3900117" lon="8.1313117"><ele>701.0</ele><time>2026-05-01T13:37:29.351Z</time></trkpt><trkpt lat="44.3898483" lon="8.1314667"><ele>701.0</ele><time>2026-05-01T13:37:30.35Z</time></trkpt><trkpt lat="44.3896733" lon="8.1316033"><ele>701.0</ele><time>2026-05-01T13:37:31.354Z</time></trkpt><trkpt lat="44.389485" lon="8.1317217"><ele>703.3333333333333</ele><time>2026-05-01T13:37:32.353Z</time></trkpt><trkpt lat="44.3892833" lon="8.1318317"><ele>705.6666666666666</ele><time>2026-05-01T13:37:33.351Z</time></trkpt><trkpt lat="44.3890833" lon="8.13193"><ele>708.0</ele><time>2026-05-01T13:37:34.351Z</time></trkpt><trkpt lat="44.3888883" lon="8.132025"><ele>711.0</ele><time>2026-05-01T13:37:35.352Z</time></trkpt><trkpt lat="44.388705" lon="8.1321117"><ele>714.0</ele><time>2026-05-01T13:37:36.352Z</time></trkpt><trkpt lat="44.3885367" lon="8.1321767"><ele>717.0</ele><time>2026-05-01T13:37:37.352Z</time></trkpt><trkpt lat="44.38837" lon="8.132205"><ele>717.0</ele><time>2026-05-01T13:37:38.349Z</time></trkpt><trkpt lat="44.38821" lon="8.13219"><ele>717.0</ele><time>2026-05-01T13:37:39.348Z</time></trkpt><trkpt lat="44.3880483" lon="8.1321383"><ele>717.0</ele><time>2026-05-01T13:37:40.35Z</time></trkpt><trkpt lat="44.3878833" lon="8.132065"><ele>718.0</ele><time>2026-05-01T13:37:41.351Z</time></trkpt><trkpt lat="44.3877083" lon="8.1319933"><ele>719.0</ele><time>2026-05-01T13:37:42.352Z</time></trkpt><trkpt lat="44.387525" lon="8.1319317"><ele>720.0</ele><time>2026-05-01T13:37:43.35Z</time></trkpt><trkpt lat="44.3873383" lon="8.1318783"><ele>719.0</ele><time>2026-05-01T13:37:44.35Z</time></trkpt><trkpt lat="44.387155" lon="8.131835"><ele>718.0</ele><time>2026-05-01T13:37:45.354Z</time></trkpt><trkpt lat="44.3869783" lon="8.1317917"><ele>717.0</ele><time>2026-05-01T13:37:46.351Z</time></trkpt><trkpt lat="44.3868117" lon="8.13173"><ele>717.0</ele><time>2026-05-01T13:37:47.354Z</time></trkpt><trkpt lat="44.3866567" lon="8.1316383"><ele>717.0</ele><time>2026-05-01T13:37:48.354Z</time></trkpt><trkpt lat="44.3865083" lon="8.1315233"><ele>717.0</ele><time>2026-05-01T13:37:49.35Z</time></trkpt><trkpt lat="44.3863567" lon="8.1314067"><ele>718.3333333333334</ele><time>2026-05-01T13:37:50.352Z</time></trkpt><trkpt lat="44.3862033" lon="8.1313133"><ele>719.6666666666667</ele><time>2026-05-01T13:37:51.352Z</time></trkpt><trkpt lat="44.3860383" lon="8.1312583"><ele>721.0</ele><time>2026-05-01T13:37:52.35Z</time></trkpt><trkpt lat="44.385875" lon="8.1312383"><ele>721.0</ele><time>2026-05-01T13:37:53.352Z</time></trkpt><trkpt lat="44.385715" lon="8.1312417"><ele>721.0</ele><time>2026-05-01T13:37:54.352Z</time></trkpt><trkpt lat="44.385555" lon="8.13125"><ele>721.0</ele><time>2026-05-01T13:37:55.351Z</time></trkpt><trkpt lat="44.3853917" lon="8.13126"><ele>724.3333333333334</ele><time>2026-05-01T13:37:56.352Z</time></trkpt><trkpt lat="44.3852217" lon="8.1312817"><ele>727.6666666666666</ele><time>2026-05-01T13:37:57.35Z</time></trkpt><trkpt lat="44.3850533" lon="8.1313133"><ele>731.0</ele><time>2026-05-01T13:37:58.353Z</time></trkpt><trkpt lat="44.384885" lon="8.1313467"><ele>731.0</ele><time>2026-05-01T13:37:59.353Z</time></trkpt><trkpt lat="44.384715" lon="8.1313817"><ele>731.0</ele><time>2026-05-01T13:38:00.355Z</time></trkpt><trkpt lat="44.3845433" lon="8.1314167"><ele>731.0</ele><time>2026-05-01T13:38:01.356Z</time></trkpt><trkpt lat="44.38437" lon="8.1314583"><ele>729.6666666666666</ele><time>2026-05-01T13:38:02.354Z</time></trkpt><trkpt lat="44.3841967" lon="8.131505"><ele>728.3333333333334</ele><time>2026-05-01T13:38:03.354Z</time></trkpt><trkpt lat="44.384025" lon="8.1315633"><ele>727.0</ele><time>2026-05-01T13:38:04.361Z</time></trkpt><trkpt lat="44.38386" lon="8.1316383"><ele>727.6666666666667</ele><time>2026-05-01T13:38:05.351Z</time></trkpt><trkpt lat="44.3837033" lon="8.1317233"><ele>728.3333333333334</ele><time>2026-05-01T13:38:06.356Z</time></trkpt><trkpt lat="44.383555" lon="8.1318117"><ele>729.0</ele><time>2026-05-01T13:38:07.357Z</time></trkpt><trkpt lat="44.3834117" lon="8.131885"><ele>729.0</ele><time>2026-05-01T13:38:08.351Z</time></trkpt><trkpt lat="44.3832783" lon="8.1319333"><ele>729.0</ele><time>2026-05-01T13:38:09.353Z</time></trkpt><trkpt lat="44.3831583" lon="8.131975"><ele>729.0</ele><time>2026-05-01T13:38:10.35Z</time></trkpt><trkpt lat="44.3830583" lon="8.1320317"><ele>729.0</ele><time>2026-05-01T13:38:11.352Z</time></trkpt><trkpt lat="44.382965" lon="8.1321067"><ele>729.0</ele><time>2026-05-01T13:38:12.352Z</time></trkpt><trkpt lat="44.382875" lon="8.1321817"><ele>729.0</ele><time>2026-05-01T13:38:13.352Z</time></trkpt><trkpt lat="44.3827833" lon="8.132265"><ele>729.0</ele><time>2026-05-01T13:38:14.35Z</time></trkpt><trkpt lat="44.382695" lon="8.132355"><ele>729.0</ele><time>2026-05-01T13:38:15.349Z</time></trkpt><trkpt lat="44.3826017" lon="8.1324583"><ele>729.0</ele><time>2026-05-01T13:38:16.349Z</time></trkpt><trkpt lat="44.3825133" lon="8.1325733"><ele>729.0</ele><time>2026-05-01T13:38:17.353Z</time></trkpt><trkpt lat="44.382435" lon="8.132705"><ele>729.0</ele><time>2026-05-01T13:38:18.352Z</time></trkpt><trkpt lat="44.3823583" lon="8.1328433"><ele>729.0</ele><time>2026-05-01T13:38:19.355Z</time></trkpt><trkpt lat="44.3822767" lon="8.1329867"><ele>729.0</ele><time>2026-05-01T13:38:20.349Z</time></trkpt><trkpt lat="44.3821833" lon="8.1331267"><ele>727.75</ele><time>2026-05-01T13:38:21.356Z</time></trkpt><trkpt lat="44.3820867" lon="8.1332683"><ele>726.5</ele><time>2026-05-01T13:38:22.351Z</time></trkpt><trkpt lat="44.3819867" lon="8.1334117"><ele>725.25</ele><time>2026-05-01T13:38:23.352Z</time></trkpt><trkpt lat="44.3818933" lon="8.1335517"><ele>724.0</ele><time>2026-05-01T13:38:24.351Z</time></trkpt><trkpt lat="44.3818067" lon="8.13369"><ele>724.0</ele><time>2026-05-01T13:38:25.354Z</time></trkpt><trkpt lat="44.3817183" lon="8.1338233"><ele>724.0</ele><time>2026-05-01T13:38:26.349Z</time></trkpt><trkpt lat="44.3816133" lon="8.1339433"><ele>724.0</ele><time>2026-05-01T13:38:27.35Z</time></trkpt><trkpt lat="44.3815017" lon="8.13405"><ele>724.0</ele><time>2026-05-01T13:38:28.349Z</time></trkpt><trkpt lat="44.3813867" lon="8.1341533"><ele>723.75</ele><time>2026-05-01T13:38:29.351Z</time></trkpt><trkpt lat="44.3812567" lon="8.13425"><ele>723.5</ele><time>2026-05-01T13:38:30.353Z</time></trkpt><trkpt lat="44.381135" lon="8.13435"><ele>723.25</ele><time>2026-05-01T13:38:31.348Z</time></trkpt><trkpt lat="44.3810217" lon="8.1344717"><ele>723.0</ele><time>2026-05-01T13:38:32.353Z</time></trkpt><trkpt lat="44.38092" lon="8.1346117"><ele>723.0</ele><time>2026-05-01T13:38:33.349Z</time></trkpt><trkpt lat="44.380835" lon="8.1347767"><ele>723.0</ele><time>2026-05-01T13:38:34.354Z</time></trkpt><trkpt lat="44.3807617" lon="8.134955"><ele>723.0</ele><time>2026-05-01T13:38:35.35Z</time></trkpt><trkpt lat="44.3807067" lon="8.1351483"><ele>723.0</ele><time>2026-05-01T13:38:36.354Z</time></trkpt><trkpt lat="44.3806633" lon="8.1353417"><ele>725.5</ele><time>2026-05-01T13:38:37.354Z</time></trkpt><trkpt lat="44.380645" lon="8.1355383"><ele>728.0</ele><time>2026-05-01T13:38:38.349Z</time></trkpt><trkpt lat="44.3806367" lon="8.1357267"><ele>730.5</ele><time>2026-05-01T13:38:39.355Z</time></trkpt><trkpt lat="44.380635" lon="8.135905"><ele>733.0</ele><time>2026-05-01T13:38:40.351Z</time></trkpt><trkpt lat="44.3806267" lon="8.13608"><ele>735.0</ele><time>2026-05-01T13:38:41.353Z</time></trkpt><trkpt lat="44.3806117" lon="8.1362533"><ele>737.0</ele><time>2026-05-01T13:38:42.35Z</time></trkpt><trkpt lat="44.38059" lon="8.1364233"><ele>739.0</ele><time>2026-05-01T13:38:43.352Z</time></trkpt><trkpt lat="44.3805533" lon="8.1365983"><ele>741.0</ele><time>2026-05-01T13:38:44.35Z</time></trkpt><trkpt lat="44.3804983" lon="8.1367683"><ele>738.75</ele><time>2026-05-01T13:38:45.352Z</time></trkpt><trkpt lat="44.3804317" lon="8.1369383"><ele>736.5</ele><time>2026-05-01T13:38:46.35Z</time></trkpt><trkpt lat="44.3803583" lon="8.1371117"><ele>734.25</ele><time>2026-05-01T13:38:47.352Z</time></trkpt><trkpt lat="44.3802917" lon="8.1373"><ele>732.0</ele><time>2026-05-01T13:38:48.35Z</time></trkpt><trkpt lat="44.3802317" lon="8.137495"><ele>732.0</ele><time>2026-05-01T13:38:49.349Z</time></trkpt><trkpt lat="44.38017" lon="8.1376917"><ele>732.0</ele><time>2026-05-01T13:38:50.35Z</time></trkpt><trkpt lat="44.3801033" lon="8.1378883"><ele>732.0</ele><time>2026-05-01T13:38:51.349Z</time></trkpt><trkpt lat="44.3800217" lon="8.1380717"><ele>731.3333333333334</ele><time>2026-05-01T13:38:52.351Z</time></trkpt><trkpt lat="44.3799133" lon="8.1382233"><ele>730.6666666666667</ele><time>2026-05-01T13:38:53.347Z</time></trkpt><trkpt lat="44.379785" lon="8.138345"><ele>730.0</ele><time>2026-05-01T13:38:54.352Z</time></trkpt><trkpt lat="44.379645" lon="8.138445"><ele>730.0</ele><time>2026-05-01T13:38:55.353Z</time></trkpt><trkpt lat="44.3795" lon="8.1385233"><ele>730.0</ele><time>2026-05-01T13:38:56.354Z</time></trkpt><trkpt lat="44.379355" lon="8.138595"><ele>730.0</ele><time>2026-05-01T13:38:57.352Z</time></trkpt><trkpt lat="44.37922" lon="8.1386783"><ele>730.0</ele><time>2026-05-01T13:38:58.349Z</time></trkpt><trkpt lat="44.3791017" lon="8.1387917"><ele>730.0</ele><time>2026-05-01T13:38:59.353Z</time></trkpt><trkpt lat="44.379005" lon="8.1389367"><ele>730.0</ele><time>2026-05-01T13:39:00.352Z</time></trkpt><trkpt lat="44.3789183" lon="8.139105"><ele>730.0</ele><time>2026-05-01T13:39:01.358Z</time></trkpt><trkpt lat="44.3788417" lon="8.1392867"><ele>730.0</ele><time>2026-05-01T13:39:02.352Z</time></trkpt><trkpt lat="44.3787833" lon="8.139475"><ele>730.0</ele><time>2026-05-01T13:39:03.349Z</time></trkpt><trkpt lat="44.37874" lon="8.1396683"><ele>730.0</ele><time>2026-05-01T13:39:04.348Z</time></trkpt><trkpt lat="44.3787067" lon="8.13986"><ele>730.0</ele><time>2026-05-01T13:39:05.35Z</time></trkpt><trkpt lat="44.3786783" lon="8.14004"><ele>730.0</ele><time>2026-05-01T13:39:06.352Z</time></trkpt><trkpt lat="44.3786483" lon="8.1402133"><ele>730.0</ele><time>2026-05-01T13:39:07.35Z</time></trkpt><trkpt lat="44.378615" lon="8.1403833"><ele>730.0</ele><time>2026-05-01T13:39:08.35Z</time></trkpt><trkpt lat="44.3785767" lon="8.1405517"><ele>730.0</ele><time>2026-05-01T13:39:09.351Z</time></trkpt><trkpt lat="44.378525" lon="8.14072"><ele>732.25</ele><time>2026-05-01T13:39:10.349Z</time></trkpt><trkpt lat="44.3784633" lon="8.1408817"><ele>734.5</ele><time>2026-05-01T13:39:11.354Z</time></trkpt><trkpt lat="44.378395" lon="8.1410233"><ele>736.75</ele><time>2026-05-01T13:39:12.352Z</time></trkpt><trkpt lat="44.378325" lon="8.1411567"><ele>739.0</ele><time>2026-05-01T13:39:13.353Z</time></trkpt><trkpt lat="44.378255" lon="8.14127"><ele>739.0</ele><time>2026-05-01T13:39:14.353Z</time></trkpt><trkpt lat="44.37819" lon="8.1413617"><ele>739.0</ele><time>2026-05-01T13:39:15.35Z</time></trkpt><trkpt lat="44.37812" lon="8.14142"><ele>739.0</ele><time>2026-05-01T13:39:16.351Z</time></trkpt><trkpt lat="44.37804" lon="8.1414567"><ele>739.0</ele><time>2026-05-01T13:39:17.352Z</time></trkpt><trkpt lat="44.3779483" lon="8.141485"><ele>739.0</ele><time>2026-05-01T13:39:18.348Z</time></trkpt><trkpt lat="44.3778367" lon="8.1414933"><ele>737.5</ele><time>2026-05-01T13:39:19.353Z</time></trkpt><trkpt lat="44.3777167" lon="8.1415"><ele>736.0</ele><time>2026-05-01T13:39:20.352Z</time></trkpt><trkpt lat="44.3775967" lon="8.14151"><ele>734.5</ele><time>2026-05-01T13:39:21.352Z</time></trkpt><trkpt lat="44.377475" lon="8.14152"><ele>733.0</ele><time>2026-05-01T13:39:22.355Z</time></trkpt><trkpt lat="44.3773617" lon="8.1415083"><ele>733.0</ele><time>2026-05-01T13:39:23.351Z</time></trkpt><trkpt lat="44.37725" lon="8.141475"><ele>733.0</ele><time>2026-05-01T13:39:24.353Z</time></trkpt><trkpt lat="44.3771283" lon="8.1414217"><ele>733.0</ele><time>2026-05-01T13:39:25.354Z</time></trkpt><trkpt lat="44.377" lon="8.1413617"><ele>733.0</ele><time>2026-05-01T13:39:26.351Z</time></trkpt><trkpt lat="44.3768667" lon="8.1412917"><ele>733.25</ele><time>2026-05-01T13:39:27.355Z</time></trkpt><trkpt lat="44.3767283" lon="8.1412183"><ele>733.5</ele><time>2026-05-01T13:39:28.352Z</time></trkpt><trkpt lat="44.3765917" lon="8.14114"><ele>733.75</ele><time>2026-05-01T13:39:29.353Z</time></trkpt><trkpt lat="44.3764567" lon="8.1410633"><ele>734.0</ele><time>2026-05-01T13:39:30.349Z</time></trkpt><trkpt lat="44.3763233" lon="8.1409817"><ele>734.0</ele><time>2026-05-01T13:39:31.352Z</time></trkpt><trkpt lat="44.3761967" lon="8.140885"><ele>734.0</ele><time>2026-05-01T13:39:32.348Z</time></trkpt><trkpt lat="44.3760767" lon="8.14077"><ele>734.0</ele><time>2026-05-01T13:39:33.351Z</time></trkpt><trkpt lat="44.3759633" lon="8.1406517"><ele>734.0</ele><time>2026-05-01T13:39:34.349Z</time></trkpt><trkpt lat="44.3758517" lon="8.14054"><ele>733.75</ele><time>2026-05-01T13:39:35.349Z</time></trkpt><trkpt lat="44.3757417" lon="8.1404367"><ele>733.5</ele><time>2026-05-01T13:39:36.356Z</time></trkpt><trkpt lat="44.375635" lon="8.1403383"><ele>733.25</ele><time>2026-05-01T13:39:37.353Z</time></trkpt><trkpt lat="44.375535" lon="8.1402367"><ele>733.0</ele><time>2026-05-01T13:39:38.351Z</time></trkpt><trkpt lat="44.3754417" lon="8.14014"><ele>732.5999999999999</ele><time>2026-05-01T13:39:39.35Z</time></trkpt><trkpt lat="44.3753517" lon="8.140045"><ele>732.1999999999999</ele><time>2026-05-01T13:39:40.35Z</time></trkpt><trkpt lat="44.3752683" lon="8.1399533"><ele>731.8</ele><time>2026-05-01T13:39:41.35Z</time></trkpt><trkpt lat="44.3752017" lon="8.1398633"><ele>731.4</ele><time>2026-05-01T13:39:42.349Z</time></trkpt><trkpt lat="44.37515" lon="8.1397817"><ele>731.0</ele><time>2026-05-01T13:39:43.351Z</time></trkpt><trkpt lat="44.375105" lon="8.1396467"><ele>730.3333333333333</ele><time>2026-05-01T13:39:45.354Z</time></trkpt><trkpt lat="44.37508" lon="8.139535"><ele>729.6666666666666</ele><time>2026-05-01T13:39:47.349Z</time></trkpt><trkpt lat="44.3750167" lon="8.13947"><ele>729.0</ele><time>2026-05-01T13:39:50.352Z</time></trkpt><trkpt lat="44.3749567" lon="8.13952"><ele>728.3333333333334</ele><time>2026-05-01T13:39:53.354Z</time></trkpt><trkpt lat="44.3749067" lon="8.1396233"><ele>727.6666666666667</ele><time>2026-05-01T13:39:56.351Z</time></trkpt><trkpt lat="44.3748817" lon="8.1397133"><ele>727.0</ele><time>2026-05-01T13:39:58.351Z</time></trkpt><trkpt lat="44.3748517" lon="8.13983"><ele>727.8</ele><time>2026-05-01T13:40:00.35Z</time></trkpt><trkpt lat="44.3748417" lon="8.1399933"><ele>728.6</ele><time>2026-05-01T13:40:02.35Z</time></trkpt><trkpt lat="44.37485" lon="8.1401033"><ele>729.4</ele><time>2026-05-01T13:40:03.358Z</time></trkpt><trkpt lat="44.37487" lon="8.1402283"><ele>730.1999999999999</ele><time>2026-05-01T13:40:04.351Z</time></trkpt><trkpt lat="44.3748983" lon="8.1403517"><ele>731.0</ele><time>2026-05-01T13:40:05.349Z</time></trkpt><trkpt lat="44.37493" lon="8.1404717"><ele>731.0</ele><time>2026-05-01T13:40:06.348Z</time></trkpt><trkpt lat="44.374965" lon="8.14059"><ele>731.0</ele><time>2026-05-01T13:40:07.347Z</time></trkpt><trkpt lat="44.3750083" lon="8.140715"><ele>731.0</ele><time>2026-05-01T13:40:08.352Z</time></trkpt><trkpt lat="44.3750667" lon="8.1408617"><ele>731.0</ele><time>2026-05-01T13:40:09.349Z</time></trkpt><trkpt lat="44.375135" lon="8.141035"><ele>729.0</ele><time>2026-05-01T13:40:10.351Z</time></trkpt><trkpt lat="44.3752017" lon="8.1412317"><ele>727.0</ele><time>2026-05-01T13:40:11.35Z</time></trkpt><trkpt lat="44.3752717" lon="8.141445"><ele>725.0</ele><time>2026-05-01T13:40:12.353Z</time></trkpt><trkpt lat="44.37535" lon="8.1416667"><ele>725.6666666666666</ele><time>2026-05-01T13:40:13.352Z</time></trkpt><trkpt lat="44.3754233" lon="8.141885"><ele>726.3333333333334</ele><time>2026-05-01T13:40:14.349Z</time></trkpt><trkpt lat="44.3754933" lon="8.1421"><ele>727.0</ele><time>2026-05-01T13:40:15.352Z</time></trkpt><trkpt lat="44.3755567" lon="8.1423133"><ele>722.3333333333334</ele><time>2026-05-01T13:40:16.352Z</time></trkpt><trkpt lat="44.37562" lon="8.1425267"><ele>717.6666666666666</ele><time>2026-05-01T13:40:17.352Z</time></trkpt><trkpt lat="44.375675" lon="8.1427383"><ele>713.0</ele><time>2026-05-01T13:40:18.349Z</time></trkpt><trkpt lat="44.3757233" lon="8.14296"><ele>713.0</ele><time>2026-05-01T13:40:19.352Z</time></trkpt><trkpt lat="44.3757667" lon="8.1431983"><ele>713.0</ele><time>2026-05-01T13:40:20.352Z</time></trkpt><trkpt lat="44.3758017" lon="8.14344"><ele>713.0</ele><time>2026-05-01T13:40:21.35Z</time></trkpt><trkpt lat="44.3758267" lon="8.14369"><ele>709.6666666666666</ele><time>2026-05-01T13:40:22.357Z</time></trkpt><trkpt lat="44.3758433" lon="8.14395"><ele>706.3333333333334</ele><time>2026-05-01T13:40:23.351Z</time></trkpt><trkpt lat="44.3758483" lon="8.1442167"><ele>703.0</ele><time>2026-05-01T13:40:24.354Z</time></trkpt><trkpt lat="44.3758467" lon="8.1444917"><ele>703.0</ele><time>2026-05-01T13:40:25.357Z</time></trkpt><trkpt lat="44.37583" lon="8.1447667"><ele>703.0</ele><time>2026-05-01T13:40:26.351Z</time></trkpt><trkpt lat="44.3758033" lon="8.1450417"><ele>703.0</ele><time>2026-05-01T13:40:27.348Z</time></trkpt><trkpt lat="44.3757667" lon="8.145315"><ele>701.3333333333334</ele><time>2026-05-01T13:40:28.352Z</time></trkpt><trkpt lat="44.3757217" lon="8.1455833"><ele>699.6666666666666</ele><time>2026-05-01T13:40:29.352Z</time></trkpt><trkpt lat="44.375665" lon="8.14585"><ele>698.0</ele><time>2026-05-01T13:40:30.353Z</time></trkpt><trkpt lat="44.3755967" lon="8.1461117"><ele>692.0</ele><time>2026-05-01T13:40:31.348Z</time></trkpt><trkpt lat="44.3755167" lon="8.1463733"><ele>686.0</ele><time>2026-05-01T13:40:32.349Z</time></trkpt><trkpt lat="44.375425" lon="8.1466317"><ele>680.0</ele><time>2026-05-01T13:40:33.353Z</time></trkpt><trkpt lat="44.3753233" lon="8.1468867"><ele>679.0</ele><time>2026-05-01T13:40:34.351Z</time></trkpt><trkpt lat="44.3752117" lon="8.1471317"><ele>678.0</ele><time>2026-05-01T13:40:35.349Z</time></trkpt><trkpt lat="44.3750883" lon="8.1473667"><ele>677.0</ele><time>2026-05-01T13:40:36.349Z</time></trkpt><trkpt lat="44.3749567" lon="8.1475883"><ele>677.0</ele><time>2026-05-01T13:40:37.351Z</time></trkpt><trkpt lat="44.374815" lon="8.1477983"><ele>677.0</ele><time>2026-05-01T13:40:38.354Z</time></trkpt><trkpt lat="44.374665" lon="8.1479967"><ele>677.0</ele><time>2026-05-01T13:40:39.359Z</time></trkpt><trkpt lat="44.37451" lon="8.1481833"><ele>676.3333333333333</ele><time>2026-05-01T13:40:40.351Z</time></trkpt><trkpt lat="44.3743483" lon="8.148355"><ele>675.6666666666666</ele><time>2026-05-01T13:40:41.351Z</time></trkpt><trkpt lat="44.3741783" lon="8.1485133"><ele>675.0</ele><time>2026-05-01T13:40:42.351Z</time></trkpt><trkpt lat="44.3740033" lon="8.1486617"><ele>676.6666666666666</ele><time>2026-05-01T13:40:43.351Z</time></trkpt><trkpt lat="44.3738267" lon="8.1487883"><ele>678.3333333333333</ele><time>2026-05-01T13:40:44.352Z</time></trkpt><trkpt lat="44.3736533" lon="8.1489033"><ele>680.0</ele><time>2026-05-01T13:40:45.353Z</time></trkpt><trkpt lat="44.37348" lon="8.1490067"><ele>677.0</ele><time>2026-05-01T13:40:46.356Z</time></trkpt><trkpt lat="44.3733067" lon="8.149105"><ele>674.0</ele><time>2026-05-01T13:40:47.349Z</time></trkpt><trkpt lat="44.37313" lon="8.1492067"><ele>671.0</ele><time>2026-05-01T13:40:48.349Z</time></trkpt><trkpt lat="44.37295" lon="8.14932"><ele>671.0</ele><time>2026-05-01T13:40:49.349Z</time></trkpt><trkpt lat="44.3727683" lon="8.14944"><ele>671.0</ele><time>2026-05-01T13:40:50.35Z</time></trkpt><trkpt lat="44.3725933" lon="8.1495633"><ele>671.0</ele><time>2026-05-01T13:40:51.351Z</time></trkpt><trkpt lat="44.3724167" lon="8.1496883"><ele>671.0</ele><time>2026-05-01T13:40:52.351Z</time></trkpt><trkpt lat="44.3722383" lon="8.14981"><ele>671.0</ele><time>2026-05-01T13:40:53.353Z</time></trkpt><trkpt lat="44.37206" lon="8.149935"><ele>671.0</ele><time>2026-05-01T13:40:54.353Z</time></trkpt><trkpt lat="44.3718817" lon="8.1500583"><ele>671.3333333333333</ele><time>2026-05-01T13:40:55.348Z</time></trkpt><trkpt lat="44.371695" lon="8.1501817"><ele>671.6666666666666</ele><time>2026-05-01T13:40:56.353Z</time></trkpt><trkpt lat="44.3715117" lon="8.15031"><ele>672.0</ele><time>2026-05-01T13:40:57.352Z</time></trkpt><trkpt lat="44.3713217" lon="8.1504417"><ele>672.0</ele><time>2026-05-01T13:40:58.354Z</time></trkpt><trkpt lat="44.3711283" lon="8.1505717"><ele>672.0</ele><time>2026-05-01T13:40:59.35Z</time></trkpt><trkpt lat="44.3709333" lon="8.150695"><ele>672.0</ele><time>2026-05-01T13:41:00.349Z</time></trkpt><trkpt lat="44.3707317" lon="8.1508267"><ele>667.0</ele><time>2026-05-01T13:41:01.357Z</time></trkpt><trkpt lat="44.37053" lon="8.1509583"><ele>662.0</ele><time>2026-05-01T13:41:02.35Z</time></trkpt><trkpt lat="44.37033" lon="8.1510917"><ele>657.0</ele><time>2026-05-01T13:41:03.352Z</time></trkpt><trkpt lat="44.37013" lon="8.1512233"><ele>652.0</ele><time>2026-05-01T13:41:04.352Z</time></trkpt><trkpt lat="44.3699317" lon="8.1513517"><ele>647.0</ele><time>2026-05-01T13:41:05.351Z</time></trkpt><trkpt lat="44.36972" lon="8.1514733"><ele>642.0</ele><time>2026-05-01T13:41:06.356Z</time></trkpt><trkpt lat="44.3695133" lon="8.151595"><ele>638.6666666666666</ele><time>2026-05-01T13:41:07.353Z</time></trkpt><trkpt lat="44.3693183" lon="8.1517283"><ele>635.3333333333333</ele><time>2026-05-01T13:41:08.355Z</time></trkpt><trkpt lat="44.3691167" lon="8.1518717"><ele>632.0</ele><time>2026-05-01T13:41:09.352Z</time></trkpt><trkpt lat="44.3689167" lon="8.1520183"><ele>628.0</ele><time>2026-05-01T13:41:10.351Z</time></trkpt><trkpt lat="44.3687117" lon="8.15216"><ele>624.0</ele><time>2026-05-01T13:41:11.353Z</time></trkpt><trkpt lat="44.3685083" lon="8.1523"><ele>630.5</ele><time>2026-05-01T13:41:12.358Z</time></trkpt><trkpt lat="44.3682983" lon="8.15245"><ele>637.0</ele><time>2026-05-01T13:41:13.35Z</time></trkpt><trkpt lat="44.3680933" lon="8.1525983"><ele>645.5</ele><time>2026-05-01T13:41:14.353Z</time></trkpt><trkpt lat="44.3678933" lon="8.1527567"><ele>654.0</ele><time>2026-05-01T13:41:15.356Z</time></trkpt><trkpt lat="44.367695" lon="8.1529183"><ele>654.0</ele><time>2026-05-01T13:41:16.356Z</time></trkpt><trkpt lat="44.3674967" lon="8.1530783"><ele>654.0</ele><time>2026-05-01T13:41:17.353Z</time></trkpt><trkpt lat="44.3672967" lon="8.15324"><ele>622.0</ele><time>2026-05-01T13:41:18.353Z</time></trkpt><trkpt lat="44.3639817" lon="8.1645033"><ele>622.0</ele><time>2026-05-01T13:41:56.349Z</time></trkpt><trkpt lat="44.3640033" lon="8.1648567"><ele>622.0</ele><time>2026-05-01T13:41:57.351Z</time></trkpt><trkpt lat="44.3640317" lon="8.1651983"><ele>621.0</ele><time>2026-05-01T13:41:58.351Z</time></trkpt><trkpt lat="44.36406" lon="8.1655417"><ele>620.0</ele><time>2026-05-01T13:41:59.352Z</time></trkpt><trkpt lat="44.3640867" lon="8.16588"><ele>616.5</ele><time>2026-05-01T13:42:00.357Z</time></trkpt><trkpt lat="44.3641133" lon="8.16622"><ele>613.0</ele><time>2026-05-01T13:42:01.351Z</time></trkpt><trkpt lat="44.36414" lon="8.1665617"><ele>611.0</ele><time>2026-05-01T13:42:02.356Z</time></trkpt><trkpt lat="44.3641667" lon="8.1669"><ele>609.0</ele><time>2026-05-01T13:42:03.349Z</time></trkpt><trkpt lat="44.364195" lon="8.1672333"><ele>605.5</ele><time>2026-05-01T13:42:04.352Z</time></trkpt><trkpt lat="44.3642217" lon="8.16756"><ele>602.0</ele><time>2026-05-01T13:42:05.353Z</time></trkpt><trkpt lat="44.3642467" lon="8.167885"><ele>598.5</ele><time>2026-05-01T13:42:06.358Z</time></trkpt><trkpt lat="44.364275" lon="8.1682067"><ele>595.0</ele><time>2026-05-01T13:42:07.355Z</time></trkpt><trkpt lat="44.3642967" lon="8.1685233"><ele>595.0</ele><time>2026-05-01T13:42:08.351Z</time></trkpt><trkpt lat="44.36431" lon="8.1688333"><ele>595.0</ele><time>2026-05-01T13:42:09.351Z</time></trkpt><trkpt lat="44.3643083" lon="8.1691467"><ele>595.0</ele><time>2026-05-01T13:42:10.352Z</time></trkpt><trkpt lat="44.3642967" lon="8.1694567"><ele>595.0</ele><time>2026-05-01T13:42:11.349Z</time></trkpt><trkpt lat="44.3642717" lon="8.16976"><ele>595.0</ele><time>2026-05-01T13:42:12.354Z</time></trkpt><trkpt lat="44.364235" lon="8.1700533"><ele>595.0</ele><time>2026-05-01T13:42:13.354Z</time></trkpt><trkpt lat="44.3641817" lon="8.1703417"><ele>593.0</ele><time>2026-05-01T13:42:14.351Z</time></trkpt><trkpt lat="44.36411" lon="8.1706267"><ele>591.0</ele><time>2026-05-01T13:42:15.351Z</time></trkpt><trkpt lat="44.3640267" lon="8.170905"><ele>589.0</ele><time>2026-05-01T13:42:16.352Z</time></trkpt><trkpt lat="44.3639317" lon="8.171175"><ele>583.3333333333334</ele><time>2026-05-01T13:42:17.348Z</time></trkpt><trkpt lat="44.3638233" lon="8.17144"><ele>577.6666666666666</ele><time>2026-05-01T13:42:18.354Z</time></trkpt><trkpt lat="44.3637017" lon="8.171695"><ele>572.0</ele><time>2026-05-01T13:42:19.354Z</time></trkpt><trkpt lat="44.3635683" lon="8.1719317"><ele>571.0</ele><time>2026-05-01T13:42:20.352Z</time></trkpt><trkpt lat="44.3634317" lon="8.1721517"><ele>570.0</ele><time>2026-05-01T13:42:21.353Z</time></trkpt><trkpt lat="44.3632883" lon="8.1723533"><ele>569.0</ele><time>2026-05-01T13:42:22.353Z</time></trkpt><trkpt lat="44.3631383" lon="8.17254"><ele>563.6666666666666</ele><time>2026-05-01T13:42:23.353Z</time></trkpt><trkpt lat="44.3629817" lon="8.1727083"><ele>558.3333333333334</ele><time>2026-05-01T13:42:24.351Z</time></trkpt><trkpt lat="44.36282" lon="8.1728633"><ele>553.0</ele><time>2026-05-01T13:42:25.349Z</time></trkpt><trkpt lat="44.3626567" lon="8.1730033"><ele>553.0</ele><time>2026-05-01T13:42:26.349Z</time></trkpt><trkpt lat="44.3624883" lon="8.1731333"><ele>553.0</ele><time>2026-05-01T13:42:27.352Z</time></trkpt><trkpt lat="44.3623183" lon="8.1732517"><ele>553.0</ele><time>2026-05-01T13:42:28.349Z</time></trkpt><trkpt lat="44.3621533" lon="8.1733667"><ele>548.0</ele><time>2026-05-01T13:42:29.35Z</time></trkpt><trkpt lat="44.3619983" lon="8.1734817"><ele>543.0</ele><time>2026-05-01T13:42:30.35Z</time></trkpt><trkpt lat="44.36185" lon="8.1736"><ele>538.0</ele><time>2026-05-01T13:42:31.352Z</time></trkpt><trkpt lat="44.3617067" lon="8.1737267"><ele>538.0</ele><time>2026-05-01T13:42:32.35Z</time></trkpt><trkpt lat="44.3615667" lon="8.1738683"><ele>538.0</ele><time>2026-05-01T13:42:33.355Z</time></trkpt><trkpt lat="44.3614283" lon="8.1740317"><ele>538.0</ele><time>2026-05-01T13:42:34.352Z</time></trkpt><trkpt lat="44.3613" lon="8.1742167"><ele>537.3333333333334</ele><time>2026-05-01T13:42:35.354Z</time></trkpt><trkpt lat="44.3611817" lon="8.1744233"><ele>536.6666666666666</ele><time>2026-05-01T13:42:36.352Z</time></trkpt><trkpt lat="44.3610783" lon="8.174635"><ele>536.0</ele><time>2026-05-01T13:42:37.35Z</time></trkpt><trkpt lat="44.3609767" lon="8.174855"><ele>536.0</ele><time>2026-05-01T13:42:38.348Z</time></trkpt><trkpt lat="44.360875" lon="8.17508"><ele>536.0</ele><time>2026-05-01T13:42:39.35Z</time></trkpt><trkpt lat="44.360775" lon="8.1753083"><ele>536.0</ele><time>2026-05-01T13:42:40.354Z</time></trkpt><trkpt lat="44.360695" lon="8.175545"><ele>537.6666666666666</ele><time>2026-05-01T13:42:41.353Z</time></trkpt><trkpt lat="44.3606383" lon="8.1757967"><ele>539.3333333333334</ele><time>2026-05-01T13:42:42.349Z</time></trkpt><trkpt lat="44.3606017" lon="8.17606"><ele>541.0</ele><time>2026-05-01T13:42:43.349Z</time></trkpt><trkpt lat="44.3605583" lon="8.176325"><ele>529.6666666666667</ele><time>2026-05-01T13:42:44.354Z</time></trkpt><trkpt lat="44.3604967" lon="8.1765817"><ele>518.3333333333334</ele><time>2026-05-01T13:42:45.354Z</time></trkpt><trkpt lat="44.3604333" lon="8.1768383"><ele>507.0</ele><time>2026-05-01T13:42:46.351Z</time></trkpt><trkpt lat="44.3603867" lon="8.177095"><ele>507.0</ele><time>2026-05-01T13:42:47.351Z</time></trkpt><trkpt lat="44.3603567" lon="8.1773367"><ele>507.0</ele><time>2026-05-01T13:42:48.354Z</time></trkpt><trkpt lat="44.36036" lon="8.1775683"><ele>507.0</ele><time>2026-05-01T13:42:49.351Z</time></trkpt><trkpt lat="44.360405" lon="8.1777817"><ele>506.0</ele><time>2026-05-01T13:42:50.35Z</time></trkpt><trkpt lat="44.3604683" lon="8.1779867"><ele>505.0</ele><time>2026-05-01T13:42:51.354Z</time></trkpt><trkpt lat="44.3605117" lon="8.178205"><ele>504.0</ele><time>2026-05-01T13:42:52.348Z</time></trkpt><trkpt lat="44.3605233" lon="8.1784433"><ele>503.33333333333337</ele><time>2026-05-01T13:42:53.351Z</time></trkpt><trkpt lat="44.3605283" lon="8.1786883"><ele>502.6666666666667</ele><time>2026-05-01T13:42:54.351Z</time></trkpt><trkpt lat="44.36053" lon="8.1789517"><ele>502.0</ele><time>2026-05-01T13:42:55.354Z</time></trkpt><trkpt lat="44.360525" lon="8.1792233"><ele>500.33333333333337</ele><time>2026-05-01T13:42:56.352Z</time></trkpt><trkpt lat="44.360515" lon="8.1794967"><ele>498.66666666666663</ele><time>2026-05-01T13:42:57.354Z</time></trkpt><trkpt lat="44.3605133" lon="8.1797783"><ele>497.0</ele><time>2026-05-01T13:42:58.36Z</time></trkpt><trkpt lat="44.3605267" lon="8.1800583"><ele>506.0</ele><time>2026-05-01T13:42:59.355Z</time></trkpt><trkpt lat="44.3605533" lon="8.180335"><ele>515.0</ele><time>2026-05-01T13:43:00.352Z</time></trkpt><trkpt lat="44.36061" lon="8.1805983"><ele>524.0</ele><time>2026-05-01T13:43:01.349Z</time></trkpt><trkpt lat="44.3606733" lon="8.18084"><ele>524.0</ele><time>2026-05-01T13:43:02.352Z</time></trkpt><trkpt lat="44.3607233" lon="8.1810633"><ele>524.0</ele><time>2026-05-01T13:43:03.354Z</time></trkpt><trkpt lat="44.3607567" lon="8.1812833"><ele>524.0</ele><time>2026-05-01T13:43:04.348Z</time></trkpt><trkpt lat="44.360765" lon="8.1815067"><ele>520.6666666666666</ele><time>2026-05-01T13:43:05.35Z</time></trkpt><trkpt lat="44.360765" lon="8.1817333"><ele>517.3333333333334</ele><time>2026-05-01T13:43:06.35Z</time></trkpt><trkpt lat="44.3607583" lon="8.18196"><ele>514.0</ele><time>2026-05-01T13:43:07.35Z</time></trkpt><trkpt lat="44.36075" lon="8.1821883"><ele>513.0</ele><time>2026-05-01T13:43:08.352Z</time></trkpt><trkpt lat="44.3607383" lon="8.182415"><ele>512.0</ele><time>2026-05-01T13:43:09.351Z</time></trkpt><trkpt lat="44.36072" lon="8.1826417"><ele>511.0</ele><time>2026-05-01T13:43:10.351Z</time></trkpt><trkpt lat="44.3606917" lon="8.18287"><ele>511.0</ele><time>2026-05-01T13:43:11.35Z</time></trkpt><trkpt lat="44.360655" lon="8.1831017"><ele>511.0</ele><time>2026-05-01T13:43:12.352Z</time></trkpt><trkpt lat="44.3606083" lon="8.1833283"><ele>511.0</ele><time>2026-05-01T13:43:13.348Z</time></trkpt><trkpt lat="44.3605533" lon="8.18353"><ele>503.75</ele><time>2026-05-01T13:43:14.354Z</time></trkpt><trkpt lat="44.3604983" lon="8.1837067"><ele>496.5</ele><time>2026-05-01T13:43:15.353Z</time></trkpt><trkpt lat="44.3604517" lon="8.1838633"><ele>489.25</ele><time>2026-05-01T13:43:16.351Z</time></trkpt><trkpt lat="44.3604067" lon="8.1840017"><ele>482.0</ele><time>2026-05-01T13:43:17.351Z</time></trkpt><trkpt lat="44.360365" lon="8.1841333"><ele>482.0</ele><time>2026-05-01T13:43:18.352Z</time></trkpt><trkpt lat="44.3603283" lon="8.1842617"><ele>482.00000000000006</ele><time>2026-05-01T13:43:19.354Z</time></trkpt><trkpt lat="44.360295" lon="8.1843917"><ele>482.00000000000006</ele><time>2026-05-01T13:43:20.349Z</time></trkpt><trkpt lat="44.3602817" lon="8.1845367"><ele>482.0</ele><time>2026-05-01T13:43:21.36Z</time></trkpt><trkpt lat="44.3602967" lon="8.184695"><ele>482.0</ele><time>2026-05-01T13:43:22.35Z</time></trkpt><trkpt lat="44.3603217" lon="8.1848533"><ele>482.0</ele><time>2026-05-01T13:43:23.352Z</time></trkpt><trkpt lat="44.3603733" lon="8.18502"><ele>482.0</ele><time>2026-05-01T13:43:24.349Z</time></trkpt><trkpt lat="44.3604233" lon="8.1851883"><ele>482.0</ele><time>2026-05-01T13:43:25.353Z</time></trkpt><trkpt lat="44.3604817" lon="8.1853483"><ele>482.0</ele><time>2026-05-01T13:43:26.353Z</time></trkpt><trkpt lat="44.36054" lon="8.1855017"><ele>483.0</ele><time>2026-05-01T13:43:27.355Z</time></trkpt><trkpt lat="44.3606033" lon="8.1856467"><ele>484.0</ele><time>2026-05-01T13:43:28.354Z</time></trkpt><trkpt lat="44.3606767" lon="8.185775"><ele>485.0</ele><time>2026-05-01T13:43:29.35Z</time></trkpt><trkpt lat="44.3607617" lon="8.1858917"><ele>486.0</ele><time>2026-05-01T13:43:30.349Z</time></trkpt><trkpt lat="44.360845" lon="8.1860067"><ele>486.0</ele><time>2026-05-01T13:43:31.359Z</time></trkpt><trkpt lat="44.3609217" lon="8.1861283"><ele>486.0</ele><time>2026-05-01T13:43:32.349Z</time></trkpt><trkpt lat="44.3609767" lon="8.186265"><ele>486.0</ele><time>2026-05-01T13:43:33.36Z</time></trkpt><trkpt lat="44.3610167" lon="8.1864133"><ele>486.0</ele><time>2026-05-01T13:43:34.352Z</time></trkpt><trkpt lat="44.3610433" lon="8.1865617"><ele>483.25</ele><time>2026-05-01T13:43:35.35Z</time></trkpt><trkpt lat="44.361055" lon="8.18671"><ele>480.5</ele><time>2026-05-01T13:43:36.352Z</time></trkpt><trkpt lat="44.3610483" lon="8.18687"><ele>477.75</ele><time>2026-05-01T13:43:37.35Z</time></trkpt><trkpt lat="44.3610367" lon="8.1870583"><ele>475.0</ele><time>2026-05-01T13:43:38.353Z</time></trkpt><trkpt lat="44.3610117" lon="8.18726"><ele>474.25</ele><time>2026-05-01T13:43:39.349Z</time></trkpt><trkpt lat="44.3609717" lon="8.1874583"><ele>473.5</ele><time>2026-05-01T13:43:40.354Z</time></trkpt><trkpt lat="44.3609117" lon="8.1876367"><ele>472.75</ele><time>2026-05-01T13:43:41.35Z</time></trkpt><trkpt lat="44.3608317" lon="8.18779"><ele>472.0</ele><time>2026-05-01T13:43:42.348Z</time></trkpt><trkpt lat="44.360745" lon="8.1879133"><ele>472.0</ele><time>2026-05-01T13:43:43.349Z</time></trkpt><trkpt lat="44.3606683" lon="8.1880217"><ele>472.00000000000006</ele><time>2026-05-01T13:43:44.351Z</time></trkpt><trkpt lat="44.3606067" lon="8.1881317"><ele>472.00000000000006</ele><time>2026-05-01T13:43:45.354Z</time></trkpt><trkpt lat="44.3605683" lon="8.188265"><ele>472.0</ele><time>2026-05-01T13:43:46.352Z</time></trkpt><trkpt lat="44.3605583" lon="8.1884217"><ele>472.0</ele><time>2026-05-01T13:43:47.354Z</time></trkpt><trkpt lat="44.3605667" lon="8.18861"><ele>472.6666666666667</ele><time>2026-05-01T13:43:48.35Z</time></trkpt><trkpt lat="44.360585" lon="8.188825"><ele>473.33333333333337</ele><time>2026-05-01T13:43:49.351Z</time></trkpt><trkpt lat="44.360605" lon="8.1890717"><ele>474.0</ele><time>2026-05-01T13:43:50.348Z</time></trkpt><trkpt lat="44.3606333" lon="8.1893217"><ele>472.0</ele><time>2026-05-01T13:43:51.349Z</time></trkpt><trkpt lat="44.36067" lon="8.189565"><ele>470.0</ele><time>2026-05-01T13:43:52.352Z</time></trkpt><trkpt lat="44.3607" lon="8.1898067"><ele>468.0</ele><time>2026-05-01T13:43:53.351Z</time></trkpt><trkpt lat="44.3607067" lon="8.1900417"><ele>466.0</ele><time>2026-05-01T13:43:54.354Z</time></trkpt><trkpt lat="44.3607017" lon="8.1902517"><ele>464.0</ele><time>2026-05-01T13:43:55.348Z</time></trkpt><trkpt lat="44.36071" lon="8.1904333"><ele>462.0</ele><time>2026-05-01T13:43:56.352Z</time></trkpt><trkpt lat="44.3607367" lon="8.1906"><ele>460.0</ele><time>2026-05-01T13:43:57.353Z</time></trkpt><trkpt lat="44.36081" lon="8.1907317"><ele>458.2</ele><time>2026-05-01T13:43:58.353Z</time></trkpt><trkpt lat="44.3609117" lon="8.19081"><ele>456.4</ele><time>2026-05-01T13:43:59.349Z</time></trkpt><trkpt lat="44.3610217" lon="8.1908233"><ele>454.6</ele><time>2026-05-01T13:44:00.351Z</time></trkpt><trkpt lat="44.3611283" lon="8.190785"><ele>452.8</ele><time>2026-05-01T13:44:01.349Z</time></trkpt><trkpt lat="44.3612267" lon="8.19073"><ele>451.0</ele><time>2026-05-01T13:44:02.349Z</time></trkpt><trkpt lat="44.36132" lon="8.1906917"><ele>451.6</ele><time>2026-05-01T13:44:03.353Z</time></trkpt><trkpt lat="44.3614117" lon="8.1907"><ele>452.20000000000005</ele><time>2026-05-01T13:44:04.352Z</time></trkpt><trkpt lat="44.3614967" lon="8.1907633"><ele>452.79999999999995</ele><time>2026-05-01T13:44:05.35Z</time></trkpt><trkpt lat="44.36158" lon="8.190855"><ele>453.4</ele><time>2026-05-01T13:44:06.348Z</time></trkpt><trkpt lat="44.3616617" lon="8.1909683"><ele>454.0</ele><time>2026-05-01T13:44:07.353Z</time></trkpt><trkpt lat="44.3617283" lon="8.1910983"><ele>454.0</ele><time>2026-05-01T13:44:08.35Z</time></trkpt><trkpt lat="44.36177" lon="8.1912467"><ele>454.0</ele><time>2026-05-01T13:44:09.351Z</time></trkpt><trkpt lat="44.361775" lon="8.1914017"><ele>454.0</ele><time>2026-05-01T13:44:10.35Z</time></trkpt><trkpt lat="44.36175" lon="8.19156"><ele>454.0</ele><time>2026-05-01T13:44:11.349Z</time></trkpt><trkpt lat="44.36171" lon="8.1917267"><ele>451.75</ele><time>2026-05-01T13:44:12.353Z</time></trkpt><trkpt lat="44.3616717" lon="8.191895"><ele>449.5</ele><time>2026-05-01T13:44:13.35Z</time></trkpt><trkpt lat="44.36163" lon="8.1920683"><ele>447.25</ele><time>2026-05-01T13:44:14.349Z</time></trkpt><trkpt lat="44.3615967" lon="8.1922433"><ele>445.0</ele><time>2026-05-01T13:44:15.352Z</time></trkpt><trkpt lat="44.3615767" lon="8.19242"><ele>443.75</ele><time>2026-05-01T13:44:16.351Z</time></trkpt><trkpt lat="44.3615817" lon="8.1926067"><ele>442.5</ele><time>2026-05-01T13:44:17.352Z</time></trkpt><trkpt lat="44.3616333" lon="8.1927917"><ele>441.25</ele><time>2026-05-01T13:44:18.353Z</time></trkpt><trkpt lat="44.36172" lon="8.192955"><ele>440.0</ele><time>2026-05-01T13:44:19.354Z</time></trkpt><trkpt lat="44.3618383" lon="8.19308"><ele>440.0</ele><time>2026-05-01T13:44:20.35Z</time></trkpt><trkpt lat="44.36198" lon="8.1931583"><ele>440.0</ele><time>2026-05-01T13:44:21.35Z</time></trkpt><trkpt lat="44.3621367" lon="8.1931933"><ele>440.0</ele><time>2026-05-01T13:44:22.351Z</time></trkpt><trkpt lat="44.3622967" lon="8.1931917"><ele>438.66666666666663</ele><time>2026-05-01T13:44:23.349Z</time></trkpt><trkpt lat="44.362455" lon="8.1931783"><ele>437.33333333333337</ele><time>2026-05-01T13:44:24.35Z</time></trkpt><trkpt lat="44.3626183" lon="8.1931567"><ele>436.0</ele><time>2026-05-01T13:44:25.358Z</time></trkpt><trkpt lat="44.362785" lon="8.19314"><ele>436.0</ele><time>2026-05-01T13:44:26.35Z</time></trkpt><trkpt lat="44.3629517" lon="8.1931317"><ele>436.0</ele><time>2026-05-01T13:44:27.349Z</time></trkpt><trkpt lat="44.36312" lon="8.1931367"><ele>436.0</ele><time>2026-05-01T13:44:28.35Z</time></trkpt><trkpt lat="44.3632933" lon="8.1931617"><ele>439.33333333333337</ele><time>2026-05-01T13:44:29.35Z</time></trkpt><trkpt lat="44.3634667" lon="8.1931983"><ele>442.66666666666663</ele><time>2026-05-01T13:44:30.349Z</time></trkpt><trkpt lat="44.3636383" lon="8.1932417"><ele>446.0</ele><time>2026-05-01T13:44:31.351Z</time></trkpt><trkpt lat="44.3638" lon="8.1932867"><ele>443.66666666666663</ele><time>2026-05-01T13:44:32.352Z</time></trkpt><trkpt lat="44.3639567" lon="8.1933367"><ele>441.33333333333337</ele><time>2026-05-01T13:44:33.35Z</time></trkpt><trkpt lat="44.3640967" lon="8.1934133"><ele>439.0</ele><time>2026-05-01T13:44:34.351Z</time></trkpt><trkpt lat="44.3642283" lon="8.19352"><ele>439.0</ele><time>2026-05-01T13:44:35.354Z</time></trkpt><trkpt lat="44.3643517" lon="8.193665"><ele>439.0</ele><time>2026-05-01T13:44:36.357Z</time></trkpt><trkpt lat="44.3644633" lon="8.1938333"><ele>439.0</ele><time>2026-05-01T13:44:37.352Z</time></trkpt><trkpt lat="44.3645767" lon="8.1940133"><ele>438.6666666666667</ele><time>2026-05-01T13:44:38.349Z</time></trkpt><trkpt lat="44.3646917" lon="8.1942"><ele>438.33333333333337</ele><time>2026-05-01T13:44:39.35Z</time></trkpt><trkpt lat="44.3648067" lon="8.1943967"><ele>438.0</ele><time>2026-05-01T13:44:40.35Z</time></trkpt><trkpt lat="44.3649267" lon="8.1946083"><ele>438.0</ele><time>2026-05-01T13:44:41.351Z</time></trkpt><trkpt lat="44.3650483" lon="8.1948233"><ele>438.0</ele><time>2026-05-01T13:44:42.353Z</time></trkpt><trkpt lat="44.3651717" lon="8.19504"><ele>438.0</ele><time>2026-05-01T13:44:43.351Z</time></trkpt><trkpt lat="44.3652883" lon="8.1952483"><ele>439.66666666666663</ele><time>2026-05-01T13:44:44.355Z</time></trkpt><trkpt lat="44.3653933" lon="8.1954583"><ele>441.3333333333333</ele><time>2026-05-01T13:44:45.355Z</time></trkpt><trkpt lat="44.3654817" lon="8.1956683"><ele>443.0</ele><time>2026-05-01T13:44:46.352Z</time></trkpt><trkpt lat="44.3655567" lon="8.195885"><ele>440.66666666666663</ele><time>2026-05-01T13:44:47.353Z</time></trkpt><trkpt lat="44.36562" lon="8.196105"><ele>438.33333333333337</ele><time>2026-05-01T13:44:48.352Z</time></trkpt><trkpt lat="44.3656733" lon="8.19632"><ele>436.0</ele><time>2026-05-01T13:44:49.352Z</time></trkpt><trkpt lat="44.365715" lon="8.1965367"><ele>436.0</ele><time>2026-05-01T13:44:50.351Z</time></trkpt><trkpt lat="44.3657433" lon="8.1967533"><ele>436.0</ele><time>2026-05-01T13:44:51.355Z</time></trkpt><trkpt lat="44.3657483" lon="8.1969717"><ele>436.0</ele><time>2026-05-01T13:44:52.35Z</time></trkpt><trkpt lat="44.3657367" lon="8.1971933"><ele>436.33333333333337</ele><time>2026-05-01T13:44:53.349Z</time></trkpt><trkpt lat="44.365715" lon="8.1974167"><ele>436.66666666666663</ele><time>2026-05-01T13:44:54.349Z</time></trkpt><trkpt lat="44.36569" lon="8.1976333"><ele>437.0</ele><time>2026-05-01T13:44:55.35Z</time></trkpt><trkpt lat="44.3656633" lon="8.19784"><ele>437.0</ele><time>2026-05-01T13:44:56.353Z</time></trkpt><trkpt lat="44.3656283" lon="8.1980367"><ele>437.0</ele><time>2026-05-01T13:44:57.353Z</time></trkpt><trkpt lat="44.36558" lon="8.1982167"><ele>437.0</ele><time>2026-05-01T13:44:58.355Z</time></trkpt><trkpt lat="44.3655017" lon="8.1983783"><ele>437.0</ele><time>2026-05-01T13:44:59.352Z</time></trkpt><trkpt lat="44.365405" lon="8.1985317"><ele>436.3333333333333</ele><time>2026-05-01T13:45:00.351Z</time></trkpt><trkpt lat="44.3652967" lon="8.1986867"><ele>435.66666666666663</ele><time>2026-05-01T13:45:01.351Z</time></trkpt><trkpt lat="44.36518" lon="8.19885"><ele>435.0</ele><time>2026-05-01T13:45:02.348Z</time></trkpt><trkpt lat="44.3650633" lon="8.1990267"><ele>435.0</ele><time>2026-05-01T13:45:03.349Z</time></trkpt><trkpt lat="44.3649567" lon="8.19923"><ele>435.0</ele><time>2026-05-01T13:45:04.347Z</time></trkpt><trkpt lat="44.3648633" lon="8.1994433"><ele>435.0</ele><time>2026-05-01T13:45:05.348Z</time></trkpt><trkpt lat="44.36478" lon="8.19967"><ele>433.33333333333337</ele><time>2026-05-01T13:45:06.349Z</time></trkpt><trkpt lat="44.3647033" lon="8.199905"><ele>431.6666666666667</ele><time>2026-05-01T13:45:07.349Z</time></trkpt><trkpt lat="44.3646267" lon="8.20014"><ele>430.0</ele><time>2026-05-01T13:45:08.348Z</time></trkpt><trkpt lat="44.3645517" lon="8.2003717"><ele>431.6666666666667</ele><time>2026-05-01T13:45:09.349Z</time></trkpt><trkpt lat="44.3644783" lon="8.2006033"><ele>433.33333333333337</ele><time>2026-05-01T13:45:10.355Z</time></trkpt><trkpt lat="44.3644117" lon="8.20082"><ele>435.0</ele><time>2026-05-01T13:45:11.349Z</time></trkpt><trkpt lat="44.3643617" lon="8.2010017"><ele>435.0</ele><time>2026-05-01T13:45:12.353Z</time></trkpt><trkpt lat="44.36432" lon="8.2011517"><ele>435.0</ele><time>2026-05-01T13:45:13.357Z</time></trkpt><trkpt lat="44.36429" lon="8.201285"><ele>435.0</ele><time>2026-05-01T13:45:14.35Z</time></trkpt><trkpt lat="44.3642867" lon="8.201415"><ele>435.0</ele><time>2026-05-01T13:45:15.353Z</time></trkpt><trkpt lat="44.364305" lon="8.201545"><ele>435.0</ele><time>2026-05-01T13:45:16.351Z</time></trkpt><trkpt lat="44.3643383" lon="8.2016817"><ele>434.0</ele><time>2026-05-01T13:45:17.352Z</time></trkpt><trkpt lat="44.3643717" lon="8.2018317"><ele>433.0</ele><time>2026-05-01T13:45:18.35Z</time></trkpt><trkpt lat="44.3644" lon="8.2019983"><ele>432.0</ele><time>2026-05-01T13:45:19.35Z</time></trkpt><trkpt lat="44.364425" lon="8.2021783"><ele>431.0</ele><time>2026-05-01T13:45:20.35Z</time></trkpt><trkpt lat="44.364455" lon="8.2023583"><ele>430.75</ele><time>2026-05-01T13:45:21.348Z</time></trkpt><trkpt lat="44.364505" lon="8.2025367"><ele>430.5</ele><time>2026-05-01T13:45:22.351Z</time></trkpt><trkpt lat="44.364565" lon="8.2027117"><ele>430.25</ele><time>2026-05-01T13:45:23.351Z</time></trkpt><trkpt lat="44.364625" lon="8.202885"><ele>430.0</ele><time>2026-05-01T13:45:24.355Z</time></trkpt><trkpt lat="44.3646783" lon="8.2030517"><ele>428.75</ele><time>2026-05-01T13:45:25.353Z</time></trkpt><trkpt lat="44.3647317" lon="8.20321"><ele>427.5</ele><time>2026-05-01T13:45:26.351Z</time></trkpt><trkpt lat="44.364785" lon="8.20336"><ele>426.25</ele><time>2026-05-01T13:45:27.349Z</time></trkpt><trkpt lat="44.3648367" lon="8.2035017"><ele>425.0</ele><time>2026-05-01T13:45:28.353Z</time></trkpt><trkpt lat="44.3648867" lon="8.2036467"><ele>425.0</ele><time>2026-05-01T13:45:29.352Z</time></trkpt><trkpt lat="44.364935" lon="8.2037917"><ele>425.0</ele><time>2026-05-01T13:45:30.353Z</time></trkpt><trkpt lat="44.3649833" lon="8.2039317"><ele>425.0</ele><time>2026-05-01T13:45:31.35Z</time></trkpt><trkpt lat="44.36503" lon="8.2040667"><ele>425.0</ele><time>2026-05-01T13:45:32.35Z</time></trkpt><trkpt lat="44.3650717" lon="8.2042"><ele>425.0</ele><time>2026-05-01T13:45:33.351Z</time></trkpt><trkpt lat="44.3651067" lon="8.2043267"><ele>425.66666666666663</ele><time>2026-05-01T13:45:34.353Z</time></trkpt><trkpt lat="44.3651317" lon="8.2044433"><ele>426.3333333333333</ele><time>2026-05-01T13:45:35.35Z</time></trkpt><trkpt lat="44.3651517" lon="8.204555"><ele>427.0</ele><time>2026-05-01T13:45:36.351Z</time></trkpt><trkpt lat="44.3651633" lon="8.20467"><ele>427.66666666666663</ele><time>2026-05-01T13:45:37.352Z</time></trkpt><trkpt lat="44.3651683" lon="8.20479"><ele>428.3333333333333</ele><time>2026-05-01T13:45:38.35Z</time></trkpt><trkpt lat="44.365165" lon="8.2049217"><ele>429.0</ele><time>2026-05-01T13:45:39.351Z</time></trkpt><trkpt lat="44.365145" lon="8.2050567"><ele>429.6666666666667</ele><time>2026-05-01T13:45:40.35Z</time></trkpt><trkpt lat="44.36512" lon="8.2051767"><ele>430.33333333333337</ele><time>2026-05-01T13:45:41.35Z</time></trkpt><trkpt lat="44.3650767" lon="8.2052867"><ele>431.0</ele><time>2026-05-01T13:45:42.35Z</time></trkpt><trkpt lat="44.3650233" lon="8.2053783"><ele>431.6666666666667</ele><time>2026-05-01T13:45:43.351Z</time></trkpt><trkpt lat="44.3649633" lon="8.2054633"><ele>432.33333333333337</ele><time>2026-05-01T13:45:44.35Z</time></trkpt><trkpt lat="44.3649033" lon="8.2055383"><ele>433.0</ele><time>2026-05-01T13:45:45.352Z</time></trkpt><trkpt lat="44.3648433" lon="8.2056067"><ele>433.1428571428571</ele><time>2026-05-01T13:45:46.352Z</time></trkpt><trkpt lat="44.3647867" lon="8.2056733"><ele>433.2857142857143</ele><time>2026-05-01T13:45:47.349Z</time></trkpt><trkpt lat="44.364725" lon="8.2057283"><ele>433.42857142857144</ele><time>2026-05-01T13:45:48.35Z</time></trkpt><trkpt lat="44.364665" lon="8.2057867"><ele>433.57142857142856</ele><time>2026-05-01T13:45:49.351Z</time></trkpt><trkpt lat="44.364605" lon="8.20584"><ele>433.7142857142857</ele><time>2026-05-01T13:45:50.351Z</time></trkpt><trkpt lat="44.3645433" lon="8.20589"><ele>433.85714285714283</ele><time>2026-05-01T13:45:51.352Z</time></trkpt><trkpt lat="44.36448" lon="8.2059317"><ele>434.0</ele><time>2026-05-01T13:45:52.351Z</time></trkpt><trkpt lat="44.3644167" lon="8.2059633"><ele>433.66666666666663</ele><time>2026-05-01T13:45:53.351Z</time></trkpt><trkpt lat="44.3643467" lon="8.2059783"><ele>433.3333333333333</ele><time>2026-05-01T13:45:54.358Z</time></trkpt><trkpt lat="44.3642767" lon="8.2060033"><ele>433.0</ele><time>2026-05-01T13:45:55.353Z</time></trkpt><trkpt lat="44.3642067" lon="8.20604"><ele>432.66666666666663</ele><time>2026-05-01T13:45:56.357Z</time></trkpt><trkpt lat="44.3641417" lon="8.2060917"><ele>432.3333333333333</ele><time>2026-05-01T13:45:57.35Z</time></trkpt><trkpt lat="44.3640783" lon="8.2061517"><ele>432.0</ele><time>2026-05-01T13:45:58.354Z</time></trkpt><trkpt lat="44.36401" lon="8.206225"><ele>432.0</ele><time>2026-05-01T13:45:59.349Z</time></trkpt><trkpt lat="44.3639517" lon="8.206305"><ele>432.0</ele><time>2026-05-01T13:46:00.354Z</time></trkpt><trkpt lat="44.363895" lon="8.206375"><ele>432.0</ele><time>2026-05-01T13:46:01.354Z</time></trkpt><trkpt lat="44.363845" lon="8.2064333"><ele>432.0</ele><time>2026-05-01T13:46:02.35Z</time></trkpt><trkpt lat="44.3637617" lon="8.2065317"><ele>432.0</ele><time>2026-05-01T13:46:04.348Z</time></trkpt><trkpt lat="44.3636817" lon="8.206625"><ele>432.0</ele><time>2026-05-01T13:46:06.35Z</time></trkpt><trkpt lat="44.3635967" lon="8.2067383"><ele>432.1666666666667</ele><time>2026-05-01T13:46:08.356Z</time></trkpt><trkpt lat="44.36353" lon="8.206835"><ele>432.33333333333337</ele><time>2026-05-01T13:46:10.348Z</time></trkpt><trkpt lat="44.3634433" lon="8.2069467"><ele>432.5</ele><time>2026-05-01T13:46:12.351Z</time></trkpt><trkpt lat="44.363395" lon="8.2070167"><ele>432.6666666666667</ele><time>2026-05-01T13:46:13.348Z</time></trkpt><trkpt lat="44.3633467" lon="8.2070967"><ele>432.83333333333337</ele><time>2026-05-01T13:46:14.352Z</time></trkpt><trkpt lat="44.3632967" lon="8.20718"><ele>433.0</ele><time>2026-05-01T13:46:15.353Z</time></trkpt><trkpt lat="44.36325" lon="8.2072583"><ele>433.00000000000006</ele><time>2026-05-01T13:46:16.355Z</time></trkpt><trkpt lat="44.3631983" lon="8.2073383"><ele>433.0</ele><time>2026-05-01T13:46:17.349Z</time></trkpt><trkpt lat="44.36314" lon="8.20742"><ele>433.0</ele><time>2026-05-01T13:46:18.354Z</time></trkpt><trkpt lat="44.3630733" lon="8.2074967"><ele>433.0</ele><time>2026-05-01T13:46:19.351Z</time></trkpt><trkpt lat="44.363005" lon="8.2075683"><ele>433.00000000000006</ele><time>2026-05-01T13:46:20.353Z</time></trkpt><trkpt lat="44.3629333" lon="8.2076267"><ele>433.0</ele><time>2026-05-01T13:46:21.353Z</time></trkpt><trkpt lat="44.3628633" lon="8.207685"><ele>432.2</ele><time>2026-05-01T13:46:22.35Z</time></trkpt><trkpt lat="44.3627917" lon="8.2077417"><ele>431.4</ele><time>2026-05-01T13:46:23.361Z</time></trkpt><trkpt lat="44.3627033" lon="8.2077817"><ele>430.59999999999997</ele><time>2026-05-01T13:46:24.352Z</time></trkpt><trkpt lat="44.3626217" lon="8.2078417"><ele>429.79999999999995</ele><time>2026-05-01T13:46:25.349Z</time></trkpt><trkpt lat="44.3625417" lon="8.20793"><ele>429.0</ele><time>2026-05-01T13:46:26.351Z</time></trkpt><trkpt lat="44.3624583" lon="8.2080233"><ele>429.0</ele><time>2026-05-01T13:46:27.352Z</time></trkpt><trkpt lat="44.3623667" lon="8.2081217"><ele>429.0</ele><time>2026-05-01T13:46:28.35Z</time></trkpt><trkpt lat="44.362285" lon="8.2082383"><ele>429.0</ele><time>2026-05-01T13:46:29.351Z</time></trkpt><trkpt lat="44.3622133" lon="8.208355"><ele>429.0</ele><time>2026-05-01T13:46:30.349Z</time></trkpt><trkpt lat="44.362155" lon="8.2084867"><ele>428.79999999999995</ele><time>2026-05-01T13:46:31.348Z</time></trkpt><trkpt lat="44.3620983" lon="8.2086117"><ele>428.59999999999997</ele><time>2026-05-01T13:46:32.352Z</time></trkpt><trkpt lat="44.362045" lon="8.208735"><ele>428.4</ele><time>2026-05-01T13:46:33.351Z</time></trkpt><trkpt lat="44.3619817" lon="8.2088567"><ele>428.2</ele><time>2026-05-01T13:46:34.348Z</time></trkpt><trkpt lat="44.36191" lon="8.2089733"><ele>428.0</ele><time>2026-05-01T13:46:35.353Z</time></trkpt><trkpt lat="44.3618233" lon="8.2090883"><ele>430.0</ele><time>2026-05-01T13:46:36.349Z</time></trkpt><trkpt lat="44.3617333" lon="8.2092033"><ele>432.0</ele><time>2026-05-01T13:46:37.35Z</time></trkpt><trkpt lat="44.361635" lon="8.2093117"><ele>434.0</ele><time>2026-05-01T13:46:38.349Z</time></trkpt><trkpt lat="44.3615333" lon="8.2094133"><ele>436.0</ele><time>2026-05-01T13:46:39.353Z</time></trkpt><trkpt lat="44.36143" lon="8.2095083"><ele>436.5</ele><time>2026-05-01T13:46:40.353Z</time></trkpt><trkpt lat="44.3613267" lon="8.2096017"><ele>437.0</ele><time>2026-05-01T13:46:41.356Z</time></trkpt><trkpt lat="44.36123" lon="8.2096933"><ele>437.5</ele><time>2026-05-01T13:46:42.35Z</time></trkpt><trkpt lat="44.3611383" lon="8.2097867"><ele>438.0</ele><time>2026-05-01T13:46:43.353Z</time></trkpt><trkpt lat="44.3610517" lon="8.2098617"><ele>438.0</ele><time>2026-05-01T13:46:44.351Z</time></trkpt><trkpt lat="44.3609667" lon="8.2099217"><ele>437.99999999999994</ele><time>2026-05-01T13:46:45.353Z</time></trkpt><trkpt lat="44.36088" lon="8.20997"><ele>437.99999999999994</ele><time>2026-05-01T13:46:46.349Z</time></trkpt><trkpt lat="44.36079" lon="8.21001"><ele>438.0</ele><time>2026-05-01T13:46:47.351Z</time></trkpt><trkpt lat="44.3606883" lon="8.21002"><ele>438.0</ele><time>2026-05-01T13:46:48.352Z</time></trkpt><trkpt lat="44.3605767" lon="8.2099983"><ele>436.75</ele><time>2026-05-01T13:46:49.352Z</time></trkpt><trkpt lat="44.3604633" lon="8.2099433"><ele>435.5</ele><time>2026-05-01T13:46:50.351Z</time></trkpt><trkpt lat="44.3603533" lon="8.20986"><ele>434.25</ele><time>2026-05-01T13:46:51.351Z</time></trkpt><trkpt lat="44.3602417" lon="8.2097567"><ele>433.0</ele><time>2026-05-01T13:46:52.352Z</time></trkpt><trkpt lat="44.3601233" lon="8.20964"><ele>433.0</ele><time>2026-05-01T13:46:53.353Z</time></trkpt><trkpt lat="44.3599983" lon="8.209515"><ele>433.0</ele><time>2026-05-01T13:46:54.36Z</time></trkpt><trkpt lat="44.3598667" lon="8.2093883"><ele>433.0</ele><time>2026-05-01T13:46:55.352Z</time></trkpt><trkpt lat="44.3597317" lon="8.2092567"><ele>436.6666666666667</ele><time>2026-05-01T13:46:56.352Z</time></trkpt><trkpt lat="44.359595" lon="8.2091017"><ele>440.33333333333337</ele><time>2026-05-01T13:46:57.352Z</time></trkpt><trkpt lat="44.3594683" lon="8.20893"><ele>444.0</ele><time>2026-05-01T13:46:58.349Z</time></trkpt><trkpt lat="44.3593433" lon="8.2087467"><ele>444.0</ele><time>2026-05-01T13:46:59.351Z</time></trkpt><trkpt lat="44.3592217" lon="8.2085683"><ele>444.0</ele><time>2026-05-01T13:47:00.357Z</time></trkpt><trkpt lat="44.3591017" lon="8.208395"><ele>444.0</ele><time>2026-05-01T13:47:01.35Z</time></trkpt><trkpt lat="44.3589833" lon="8.20823"><ele>441.66666666666663</ele><time>2026-05-01T13:47:02.354Z</time></trkpt><trkpt lat="44.3588617" lon="8.2080783"><ele>439.3333333333333</ele><time>2026-05-01T13:47:03.357Z</time></trkpt><trkpt lat="44.3587317" lon="8.2079417"><ele>437.0</ele><time>2026-05-01T13:47:04.354Z</time></trkpt><trkpt lat="44.3585933" lon="8.2078233"><ele>437.0</ele><time>2026-05-01T13:47:05.349Z</time></trkpt><trkpt lat="44.3584483" lon="8.2077183"><ele>437.0</ele><time>2026-05-01T13:47:06.35Z</time></trkpt><trkpt lat="44.3582983" lon="8.20763"><ele>437.0</ele><time>2026-05-01T13:47:07.357Z</time></trkpt><trkpt lat="44.3581517" lon="8.207545"><ele>436.3333333333333</ele><time>2026-05-01T13:47:08.351Z</time></trkpt><trkpt lat="44.3580083" lon="8.2074633"><ele>435.66666666666663</ele><time>2026-05-01T13:47:09.356Z</time></trkpt><trkpt lat="44.3578617" lon="8.2073867"><ele>435.0</ele><time>2026-05-01T13:47:10.353Z</time></trkpt><trkpt lat="44.3577083" lon="8.207315"><ele>435.0</ele><time>2026-05-01T13:47:11.351Z</time></trkpt><trkpt lat="44.357555" lon="8.2072567"><ele>435.0</ele><time>2026-05-01T13:47:12.35Z</time></trkpt><trkpt lat="44.3574033" lon="8.2072033"><ele>435.0</ele><time>2026-05-01T13:47:13.351Z</time></trkpt><trkpt lat="44.3572467" lon="8.207145"><ele>435.66666666666663</ele><time>2026-05-01T13:47:14.352Z</time></trkpt><trkpt lat="44.3570933" lon="8.20709"><ele>436.3333333333333</ele><time>2026-05-01T13:47:15.351Z</time></trkpt><trkpt lat="44.356935" lon="8.2070333"><ele>437.0</ele><time>2026-05-01T13:47:16.35Z</time></trkpt><trkpt lat="44.3567733" lon="8.2069817"><ele>437.0</ele><time>2026-05-01T13:47:17.351Z</time></trkpt><trkpt lat="44.3566083" lon="8.2069283"><ele>437.0</ele><time>2026-05-01T13:47:18.35Z</time></trkpt><trkpt lat="44.3564417" lon="8.2068683"><ele>437.0</ele><time>2026-05-01T13:47:19.35Z</time></trkpt><trkpt lat="44.3562733" lon="8.206805"><ele>438.0</ele><time>2026-05-01T13:47:20.351Z</time></trkpt><trkpt lat="44.3561033" lon="8.2067433"><ele>439.0</ele><time>2026-05-01T13:47:21.353Z</time></trkpt><trkpt lat="44.3559333" lon="8.2066767"><ele>440.0</ele><time>2026-05-01T13:47:22.352Z</time></trkpt><trkpt lat="44.3557683" lon="8.2066133"><ele>440.0</ele><time>2026-05-01T13:47:23.357Z</time></trkpt><trkpt lat="44.3556083" lon="8.2065567"><ele>440.0</ele><time>2026-05-01T13:47:24.352Z</time></trkpt><trkpt lat="44.35545" lon="8.2065067"><ele>440.0</ele><time>2026-05-01T13:47:25.352Z</time></trkpt><trkpt lat="44.3552933" lon="8.2064717"><ele>441.75</ele><time>2026-05-01T13:47:26.348Z</time></trkpt><trkpt lat="44.3551433" lon="8.20646"><ele>443.5</ele><time>2026-05-01T13:47:27.352Z</time></trkpt><trkpt lat="44.354995" lon="8.206455"><ele>445.25</ele><time>2026-05-01T13:47:28.352Z</time></trkpt><trkpt lat="44.3548683" lon="8.2064283"><ele>447.0</ele><time>2026-05-01T13:47:29.349Z</time></trkpt><trkpt lat="44.3547633" lon="8.2063783"><ele>444.25</ele><time>2026-05-01T13:47:30.353Z</time></trkpt><trkpt lat="44.3546867" lon="8.2062917"><ele>441.5</ele><time>2026-05-01T13:47:31.353Z</time></trkpt><trkpt lat="44.3546183" lon="8.206175"><ele>438.75</ele><time>2026-05-01T13:47:32.353Z</time></trkpt><trkpt lat="44.354545" lon="8.2060367"><ele>436.0</ele><time>2026-05-01T13:47:33.354Z</time></trkpt><trkpt lat="44.3544667" lon="8.2058833"><ele>436.0</ele><time>2026-05-01T13:47:34.351Z</time></trkpt><trkpt lat="44.354385" lon="8.20572"><ele>436.0</ele><time>2026-05-01T13:47:35.351Z</time></trkpt><trkpt lat="44.3543033" lon="8.2055567"><ele>436.0</ele><time>2026-05-01T13:47:36.352Z</time></trkpt><trkpt lat="44.3542183" lon="8.2054117"><ele>436.0</ele><time>2026-05-01T13:47:37.35Z</time></trkpt><trkpt lat="44.35412" lon="8.2052983"><ele>437.0</ele><time>2026-05-01T13:47:38.352Z</time></trkpt><trkpt lat="44.3540033" lon="8.2052417"><ele>438.0</ele><time>2026-05-01T13:47:39.354Z</time></trkpt><trkpt lat="44.35387" lon="8.2052233"><ele>439.0</ele><time>2026-05-01T13:47:40.354Z</time></trkpt><trkpt lat="44.3537217" lon="8.20524"><ele>440.0</ele><time>2026-05-01T13:47:41.348Z</time></trkpt><trkpt lat="44.353565" lon="8.205275"><ele>445.0</ele><time>2026-05-01T13:47:42.348Z</time></trkpt><trkpt lat="44.353405" lon="8.2053267"><ele>450.0</ele><time>2026-05-01T13:47:43.35Z</time></trkpt><trkpt lat="44.3532433" lon="8.2054017"><ele>455.0</ele><time>2026-05-01T13:47:44.352Z</time></trkpt><trkpt lat="44.3530817" lon="8.2055167"><ele>455.66666666666663</ele><time>2026-05-01T13:47:45.352Z</time></trkpt><trkpt lat="44.3529217" lon="8.205645"><ele>456.33333333333337</ele><time>2026-05-01T13:47:46.35Z</time></trkpt><trkpt lat="44.352755" lon="8.2057783"><ele>457.0</ele><time>2026-05-01T13:47:47.35Z</time></trkpt><trkpt lat="44.3525817" lon="8.2059167"><ele>457.0</ele><time>2026-05-01T13:47:48.349Z</time></trkpt><trkpt lat="44.3524117" lon="8.206055"><ele>457.0</ele><time>2026-05-01T13:47:49.352Z</time></trkpt><trkpt lat="44.3522483" lon="8.206195"><ele>457.0</ele><time>2026-05-01T13:47:50.351Z</time></trkpt><trkpt lat="44.352095" lon="8.20633"><ele>457.33333333333337</ele><time>2026-05-01T13:47:51.35Z</time></trkpt><trkpt lat="44.3519683" lon="8.2064783"><ele>457.66666666666663</ele><time>2026-05-01T13:47:52.35Z</time></trkpt><trkpt lat="44.3518633" lon="8.2066433"><ele>458.0</ele><time>2026-05-01T13:47:53.353Z</time></trkpt><trkpt lat="44.35178" lon="8.206835"><ele>458.0</ele><time>2026-05-01T13:47:54.36Z</time></trkpt><trkpt lat="44.351705" lon="8.2070417"><ele>458.0</ele><time>2026-05-01T13:47:55.354Z</time></trkpt><trkpt lat="44.3516267" lon="8.2072483"><ele>458.0</ele><time>2026-05-01T13:47:56.354Z</time></trkpt><trkpt lat="44.3515433" lon="8.2074383"><ele>455.0</ele><time>2026-05-01T13:47:57.354Z</time></trkpt><trkpt lat="44.35144" lon="8.2076133"><ele>452.0</ele><time>2026-05-01T13:47:58.351Z</time></trkpt><trkpt lat="44.3513133" lon="8.2077567"><ele>449.0</ele><time>2026-05-01T13:47:59.349Z</time></trkpt><trkpt lat="44.351165" lon="8.2078717"><ele>447.66666666666663</ele><time>2026-05-01T13:48:00.351Z</time></trkpt><trkpt lat="44.3509983" lon="8.20797"><ele>446.33333333333337</ele><time>2026-05-01T13:48:01.352Z</time></trkpt><trkpt lat="44.35082" lon="8.2080667"><ele>445.0</ele><time>2026-05-01T13:48:02.349Z</time></trkpt><trkpt lat="44.3506317" lon="8.2081667"><ele>451.33333333333337</ele><time>2026-05-01T13:48:03.352Z</time></trkpt><trkpt lat="44.3504333" lon="8.2082733"><ele>457.66666666666663</ele><time>2026-05-01T13:48:04.353Z</time></trkpt><trkpt lat="44.3502333" lon="8.20838"><ele>464.0</ele><time>2026-05-01T13:48:05.349Z</time></trkpt><trkpt lat="44.3500267" lon="8.2084883"><ele>464.0</ele><time>2026-05-01T13:48:06.348Z</time></trkpt><trkpt lat="44.3498233" lon="8.208595"><ele>464.0</ele><time>2026-05-01T13:48:07.353Z</time></trkpt><trkpt lat="44.3496283" lon="8.2086983"><ele>464.0</ele><time>2026-05-01T13:48:08.352Z</time></trkpt><trkpt lat="44.3494467" lon="8.20878"><ele>465.66666666666663</ele><time>2026-05-01T13:48:09.349Z</time></trkpt><trkpt lat="44.34927" lon="8.2088217"><ele>467.33333333333337</ele><time>2026-05-01T13:48:10.354Z</time></trkpt><trkpt lat="44.3491" lon="8.20882"><ele>469.0</ele><time>2026-05-01T13:48:11.352Z</time></trkpt><trkpt lat="44.3489317" lon="8.2087917"><ele>471.0</ele><time>2026-05-01T13:48:12.353Z</time></trkpt><trkpt lat="44.3487583" lon="8.20878"><ele>473.0</ele><time>2026-05-01T13:48:13.353Z</time></trkpt><trkpt lat="44.3485867" lon="8.20882"><ele>475.0</ele><time>2026-05-01T13:48:14.349Z</time></trkpt><trkpt lat="44.34841" lon="8.2089167"><ele>471.33333333333337</ele><time>2026-05-01T13:48:15.356Z</time></trkpt><trkpt lat="44.3482317" lon="8.209045"><ele>467.66666666666663</ele><time>2026-05-01T13:48:16.351Z</time></trkpt><trkpt lat="44.3480483" lon="8.209195"><ele>464.0</ele><time>2026-05-01T13:48:17.349Z</time></trkpt><trkpt lat="44.347865" lon="8.2093483"><ele>464.0</ele><time>2026-05-01T13:48:18.354Z</time></trkpt><trkpt lat="44.347685" lon="8.2095"><ele>464.0</ele><time>2026-05-01T13:48:19.353Z</time></trkpt><trkpt lat="44.347515" lon="8.2096467"><ele>464.0</ele><time>2026-05-01T13:48:20.353Z</time></trkpt><trkpt lat="44.3473567" lon="8.209785"><ele>459.0</ele><time>2026-05-01T13:48:21.351Z</time></trkpt><trkpt lat="44.3472117" lon="8.2099067"><ele>454.0</ele><time>2026-05-01T13:48:22.35Z</time></trkpt><trkpt lat="44.3470767" lon="8.210005"><ele>449.0</ele><time>2026-05-01T13:48:23.354Z</time></trkpt><trkpt lat="44.3469483" lon="8.2100667"><ele>449.0</ele><time>2026-05-01T13:48:24.351Z</time></trkpt><trkpt lat="44.34682" lon="8.2100717"><ele>449.0</ele><time>2026-05-01T13:48:25.354Z</time></trkpt><trkpt lat="44.3467033" lon="8.210015"><ele>449.0</ele><time>2026-05-01T13:48:26.349Z</time></trkpt><trkpt lat="44.3466017" lon="8.2099"><ele>449.0</ele><time>2026-05-01T13:48:27.357Z</time></trkpt><trkpt lat="44.346505" lon="8.2097533"><ele>448.75</ele><time>2026-05-01T13:48:28.353Z</time></trkpt><trkpt lat="44.3464067" lon="8.2095933"><ele>448.5</ele><time>2026-05-01T13:48:29.35Z</time></trkpt><trkpt lat="44.346325" lon="8.2094233"><ele>448.25</ele><time>2026-05-01T13:48:30.35Z</time></trkpt><trkpt lat="44.3462683" lon="8.2092367"><ele>448.0</ele><time>2026-05-01T13:48:31.351Z</time></trkpt><trkpt lat="44.3462433" lon="8.20903"><ele>448.0</ele><time>2026-05-01T13:48:32.352Z</time></trkpt><trkpt lat="44.346235" lon="8.2087967"><ele>448.0</ele><time>2026-05-01T13:48:33.353Z</time></trkpt><trkpt lat="44.3462233" lon="8.2085483"><ele>448.0</ele><time>2026-05-01T13:48:34.35Z</time></trkpt><trkpt lat="44.3462017" lon="8.20829"><ele>448.6666666666667</ele><time>2026-05-01T13:48:35.353Z</time></trkpt><trkpt lat="44.3461783" lon="8.2080217"><ele>449.33333333333337</ele><time>2026-05-01T13:48:36.349Z</time></trkpt><trkpt lat="44.3461533" lon="8.2077467"><ele>450.0</ele><time>2026-05-01T13:48:37.356Z</time></trkpt><trkpt lat="44.3461317" lon="8.207475"><ele>452.66666666666663</ele><time>2026-05-01T13:48:38.354Z</time></trkpt><trkpt lat="44.3461067" lon="8.207205"><ele>455.3333333333333</ele><time>2026-05-01T13:48:39.353Z</time></trkpt><trkpt lat="44.34608" lon="8.2069433"><ele>458.0</ele><time>2026-05-01T13:48:40.354Z</time></trkpt><trkpt lat="44.34605" lon="8.206695"><ele>461.0</ele><time>2026-05-01T13:48:41.351Z</time></trkpt><trkpt lat="44.346005" lon="8.2064633"><ele>464.0</ele><time>2026-05-01T13:48:42.348Z</time></trkpt><trkpt lat="44.3459317" lon="8.2062583"><ele>467.0</ele><time>2026-05-01T13:48:43.357Z</time></trkpt><trkpt lat="44.3458267" lon="8.2060717"><ele>467.0</ele><time>2026-05-01T13:48:44.352Z</time></trkpt><trkpt lat="44.345695" lon="8.2059233"><ele>467.0</ele><time>2026-05-01T13:48:45.35Z</time></trkpt><trkpt lat="44.3455233" lon="8.2058317"><ele>467.0</ele><time>2026-05-01T13:48:46.351Z</time></trkpt><trkpt lat="44.345345" lon="8.2057633"><ele>462.0</ele><time>2026-05-01T13:48:47.352Z</time></trkpt><trkpt lat="44.3451617" lon="8.2056967"><ele>457.0</ele><time>2026-05-01T13:48:48.354Z</time></trkpt><trkpt lat="44.3449817" lon="8.2056033"><ele>452.0</ele><time>2026-05-01T13:48:49.354Z</time></trkpt><trkpt lat="44.3448" lon="8.2054833"><ele>455.3333333333333</ele><time>2026-05-01T13:48:50.353Z</time></trkpt><trkpt lat="44.34462" lon="8.2053283"><ele>458.66666666666663</ele><time>2026-05-01T13:48:51.35Z</time></trkpt><trkpt lat="44.3444383" lon="8.2051617"><ele>462.0</ele><time>2026-05-01T13:48:52.351Z</time></trkpt><trkpt lat="44.3442533" lon="8.2049967"><ele>462.0</ele><time>2026-05-01T13:48:53.353Z</time></trkpt><trkpt lat="44.3440733" lon="8.2048417"><ele>462.0</ele><time>2026-05-01T13:48:54.356Z</time></trkpt><trkpt lat="44.3438933" lon="8.20471"><ele>462.0</ele><time>2026-05-01T13:48:55.358Z</time></trkpt><trkpt lat="44.3437217" lon="8.204585"><ele>462.66666666666663</ele><time>2026-05-01T13:48:56.353Z</time></trkpt><trkpt lat="44.3435683" lon="8.204435"><ele>463.3333333333333</ele><time>2026-05-01T13:48:57.352Z</time></trkpt><trkpt lat="44.3434233" lon="8.20426"><ele>464.0</ele><time>2026-05-01T13:48:58.358Z</time></trkpt><trkpt lat="44.3432917" lon="8.204075"><ele>459.66666666666663</ele><time>2026-05-01T13:48:59.351Z</time></trkpt><trkpt lat="44.3431717" lon="8.2039033"><ele>455.33333333333337</ele><time>2026-05-01T13:49:00.354Z</time></trkpt><trkpt lat="44.3430733" lon="8.203725"><ele>451.0</ele><time>2026-05-01T13:49:01.351Z</time></trkpt><trkpt lat="44.3430017" lon="8.2035267"><ele>451.0</ele><time>2026-05-01T13:49:02.352Z</time></trkpt><trkpt lat="44.3429617" lon="8.2033067"><ele>451.0</ele><time>2026-05-01T13:49:03.351Z</time></trkpt><trkpt lat="44.3429533" lon="8.2030783"><ele>451.0</ele><time>2026-05-01T13:49:04.352Z</time></trkpt><trkpt lat="44.3429517" lon="8.2028433"><ele>452.33333333333337</ele><time>2026-05-01T13:49:05.351Z</time></trkpt><trkpt lat="44.342925" lon="8.2026083"><ele>453.66666666666663</ele><time>2026-05-01T13:49:06.352Z</time></trkpt><trkpt lat="44.3428633" lon="8.2023883"><ele>455.0</ele><time>2026-05-01T13:49:07.35Z</time></trkpt><trkpt lat="44.3427667" lon="8.2021867"><ele>460.0</ele><time>2026-05-01T13:49:08.351Z</time></trkpt><trkpt lat="44.3426383" lon="8.2020217"><ele>465.0</ele><time>2026-05-01T13:49:09.351Z</time></trkpt><trkpt lat="44.34249" lon="8.201885"><ele>470.0</ele><time>2026-05-01T13:49:10.351Z</time></trkpt><trkpt lat="44.3423333" lon="8.2017667"><ele>465.25</ele><time>2026-05-01T13:49:11.348Z</time></trkpt><trkpt lat="44.3421767" lon="8.201675"><ele>460.5</ele><time>2026-05-01T13:49:12.347Z</time></trkpt><trkpt lat="44.3420333" lon="8.20162"><ele>455.75</ele><time>2026-05-01T13:49:13.35Z</time></trkpt><trkpt lat="44.3419217" lon="8.20161"><ele>451.0</ele><time>2026-05-01T13:49:14.348Z</time></trkpt><trkpt lat="44.34181" lon="8.2016567"><ele>451.0</ele><time>2026-05-01T13:49:15.355Z</time></trkpt><trkpt lat="44.3417167" lon="8.2017567"><ele>451.0</ele><time>2026-05-01T13:49:16.352Z</time></trkpt><trkpt lat="44.3416217" lon="8.2018883"><ele>451.0</ele><time>2026-05-01T13:49:17.355Z</time></trkpt><trkpt lat="44.3415183" lon="8.2020367"><ele>451.0</ele><time>2026-05-01T13:49:18.352Z</time></trkpt><trkpt lat="44.341405" lon="8.2021967"><ele>452.6666666666667</ele><time>2026-05-01T13:49:19.353Z</time></trkpt><trkpt lat="44.341285" lon="8.2023583"><ele>454.33333333333337</ele><time>2026-05-01T13:49:20.351Z</time></trkpt><trkpt lat="44.3411517" lon="8.202495"><ele>456.0</ele><time>2026-05-01T13:49:21.353Z</time></trkpt><trkpt lat="44.3409983" lon="8.2025917"><ele>456.0</ele><time>2026-05-01T13:49:22.348Z</time></trkpt><trkpt lat="44.3408367" lon="8.2026717"><ele>456.0</ele><time>2026-05-01T13:49:23.351Z</time></trkpt><trkpt lat="44.34067" lon="8.2027583"><ele>456.0</ele><time>2026-05-01T13:49:24.35Z</time></trkpt><trkpt lat="44.340505" lon="8.2028683"><ele>454.66666666666663</ele><time>2026-05-01T13:49:25.358Z</time></trkpt><trkpt lat="44.3403467" lon="8.2030067"><ele>453.3333333333333</ele><time>2026-05-01T13:49:26.348Z</time></trkpt><trkpt lat="44.3401967" lon="8.2031733"><ele>452.0</ele><time>2026-05-01T13:49:27.353Z</time></trkpt><trkpt lat="44.34005" lon="8.2033633"><ele>452.66666666666663</ele><time>2026-05-01T13:49:28.356Z</time></trkpt><trkpt lat="44.3398983" lon="8.2035567"><ele>453.33333333333337</ele><time>2026-05-01T13:49:29.35Z</time></trkpt><trkpt lat="44.3397317" lon="8.20374"><ele>454.0</ele><time>2026-05-01T13:49:30.35Z</time></trkpt><trkpt lat="44.3395567" lon="8.2039133"><ele>456.33333333333337</ele><time>2026-05-01T13:49:31.354Z</time></trkpt><trkpt lat="44.3393783" lon="8.2040783"><ele>458.66666666666663</ele><time>2026-05-01T13:49:32.351Z</time></trkpt><trkpt lat="44.3391983" lon="8.204245"><ele>461.0</ele><time>2026-05-01T13:49:33.354Z</time></trkpt><trkpt lat="44.3390133" lon="8.204415"><ele>460.66666666666663</ele><time>2026-05-01T13:49:34.35Z</time></trkpt><trkpt lat="44.338825" lon="8.2045783"><ele>460.33333333333337</ele><time>2026-05-01T13:49:35.352Z</time></trkpt><trkpt lat="44.3386383" lon="8.2047383"><ele>460.0</ele><time>2026-05-01T13:49:36.35Z</time></trkpt><trkpt lat="44.3384517" lon="8.2048967"><ele>460.0</ele><time>2026-05-01T13:49:37.358Z</time></trkpt><trkpt lat="44.3382667" lon="8.2050467"><ele>460.0</ele><time>2026-05-01T13:49:38.356Z</time></trkpt><trkpt lat="44.3380917" lon="8.2051867"><ele>460.0</ele><time>2026-05-01T13:49:39.351Z</time></trkpt><trkpt lat="44.3379267" lon="8.2053067"><ele>459.6666666666667</ele><time>2026-05-01T13:49:40.353Z</time></trkpt><trkpt lat="44.3377817" lon="8.2054283"><ele>459.33333333333337</ele><time>2026-05-01T13:49:41.351Z</time></trkpt><trkpt lat="44.3376583" lon="8.2055667"><ele>459.0</ele><time>2026-05-01T13:49:42.352Z</time></trkpt><trkpt lat="44.33756" lon="8.2057367"><ele>459.0</ele><time>2026-05-01T13:49:43.351Z</time></trkpt><trkpt lat="44.3374883" lon="8.2059167"><ele>459.0</ele><time>2026-05-01T13:49:44.353Z</time></trkpt><trkpt lat="44.3374383" lon="8.2061083"><ele>459.0</ele><time>2026-05-01T13:49:45.349Z</time></trkpt><trkpt lat="44.3374067" lon="8.2063067"><ele>459.0</ele><time>2026-05-01T13:49:46.349Z</time></trkpt><trkpt lat="44.33739" lon="8.20651"><ele>459.33333333333337</ele><time>2026-05-01T13:49:47.351Z</time></trkpt><trkpt lat="44.33738" lon="8.2067233"><ele>459.6666666666667</ele><time>2026-05-01T13:49:48.357Z</time></trkpt><trkpt lat="44.33737" lon="8.2069483"><ele>460.0</ele><time>2026-05-01T13:49:49.352Z</time></trkpt><trkpt lat="44.3373533" lon="8.2071833"><ele>460.0</ele><time>2026-05-01T13:49:50.348Z</time></trkpt><trkpt lat="44.3373317" lon="8.20742"><ele>460.0</ele><time>2026-05-01T13:49:51.352Z</time></trkpt><trkpt lat="44.3372983" lon="8.2076667"><ele>460.0</ele><time>2026-05-01T13:49:52.352Z</time></trkpt><trkpt lat="44.3372583" lon="8.2079217"><ele>459.0</ele><time>2026-05-01T13:49:53.35Z</time></trkpt><trkpt lat="44.3372117" lon="8.208185"><ele>458.0</ele><time>2026-05-01T13:49:54.353Z</time></trkpt><trkpt lat="44.3371633" lon="8.2084583"><ele>457.0</ele><time>2026-05-01T13:49:55.354Z</time></trkpt><trkpt lat="44.3371133" lon="8.20874"><ele>458.0</ele><time>2026-05-01T13:49:56.35Z</time></trkpt><trkpt lat="44.3370617" lon="8.20903"><ele>459.0</ele><time>2026-05-01T13:49:57.349Z</time></trkpt><trkpt lat="44.3370067" lon="8.209325"><ele>460.0</ele><time>2026-05-01T13:49:58.348Z</time></trkpt><trkpt lat="44.3369533" lon="8.209625"><ele>460.6666666666667</ele><time>2026-05-01T13:49:59.351Z</time></trkpt><trkpt lat="44.3368967" lon="8.209925"><ele>461.33333333333337</ele><time>2026-05-01T13:50:00.353Z</time></trkpt><trkpt lat="44.3368417" lon="8.2102183"><ele>462.0</ele><time>2026-05-01T13:50:01.353Z</time></trkpt><trkpt lat="44.33679" lon="8.2105083"><ele>464.33333333333337</ele><time>2026-05-01T13:50:02.354Z</time></trkpt><trkpt lat="44.33674" lon="8.2107883"><ele>466.6666666666667</ele><time>2026-05-01T13:50:03.356Z</time></trkpt><trkpt lat="44.33669" lon="8.2110433"><ele>469.0</ele><time>2026-05-01T13:50:04.35Z</time></trkpt><trkpt lat="44.336635" lon="8.2112783"><ele>469.0</ele><time>2026-05-01T13:50:05.348Z</time></trkpt><trkpt lat="44.3365633" lon="8.21149"><ele>469.0</ele><time>2026-05-01T13:50:06.353Z</time></trkpt><trkpt lat="44.3364717" lon="8.2116767"><ele>469.0</ele><time>2026-05-01T13:50:07.352Z</time></trkpt><trkpt lat="44.3363583" lon="8.2118333"><ele>465.6666666666667</ele><time>2026-05-01T13:50:08.352Z</time></trkpt><trkpt lat="44.3362333" lon="8.21198"><ele>462.33333333333337</ele><time>2026-05-01T13:50:09.354Z</time></trkpt><trkpt lat="44.336095" lon="8.2121233"><ele>459.0</ele><time>2026-05-01T13:50:10.347Z</time></trkpt><trkpt lat="44.3359533" lon="8.2122533"><ele>461.0</ele><time>2026-05-01T13:50:11.348Z</time></trkpt><trkpt lat="44.3358083" lon="8.2123583"><ele>463.0</ele><time>2026-05-01T13:50:12.349Z</time></trkpt><trkpt lat="44.3356583" lon="8.212425"><ele>465.0</ele><time>2026-05-01T13:50:13.351Z</time></trkpt><trkpt lat="44.3354967" lon="8.212435"><ele>465.0</ele><time>2026-05-01T13:50:14.349Z</time></trkpt><trkpt lat="44.3353383" lon="8.2124"><ele>465.0</ele><time>2026-05-01T13:50:15.353Z</time></trkpt><trkpt lat="44.335185" lon="8.2123267"><ele>465.0</ele><time>2026-05-01T13:50:16.348Z</time></trkpt><trkpt lat="44.335035" lon="8.2122417"><ele>465.0</ele><time>2026-05-01T13:50:17.353Z</time></trkpt><trkpt lat="44.33487" lon="8.21215"><ele>465.0</ele><time>2026-05-01T13:50:18.35Z</time></trkpt><trkpt lat="44.3347033" lon="8.21206"><ele>465.0</ele><time>2026-05-01T13:50:19.352Z</time></trkpt><trkpt lat="44.3345283" lon="8.211965"><ele>465.0</ele><time>2026-05-01T13:50:20.351Z</time></trkpt><trkpt lat="44.3343533" lon="8.2118733"><ele>465.0</ele><time>2026-05-01T13:50:21.35Z</time></trkpt><trkpt lat="44.3341833" lon="8.2117833"><ele>465.0</ele><time>2026-05-01T13:50:22.353Z</time></trkpt><trkpt lat="44.3340317" lon="8.2116883"><ele>465.0</ele><time>2026-05-01T13:50:23.35Z</time></trkpt><trkpt lat="44.3339017" lon="8.2115617"><ele>465.0</ele><time>2026-05-01T13:50:24.35Z</time></trkpt><trkpt lat="44.33381" lon="8.2113983"><ele>465.0</ele><time>2026-05-01T13:50:25.35Z</time></trkpt><trkpt lat="44.333735" lon="8.21121"><ele>466.0</ele><time>2026-05-01T13:50:26.347Z</time></trkpt><trkpt lat="44.3336583" lon="8.21099"><ele>467.0</ele><time>2026-05-01T13:50:27.354Z</time></trkpt><trkpt lat="44.3335767" lon="8.2107617"><ele>468.0</ele><time>2026-05-01T13:50:28.35Z</time></trkpt><trkpt lat="44.3335" lon="8.21054"><ele>468.0</ele><time>2026-05-01T13:50:29.35Z</time></trkpt><trkpt lat="44.3334333" lon="8.21034"><ele>468.0</ele><time>2026-05-01T13:50:30.35Z</time></trkpt><trkpt lat="44.33338" lon="8.21016"><ele>468.0</ele><time>2026-05-01T13:50:31.348Z</time></trkpt><trkpt lat="44.3333517" lon="8.2100033"><ele>468.0</ele><time>2026-05-01T13:50:32.35Z</time></trkpt><trkpt lat="44.333355" lon="8.2098717"><ele>466.59999999999997</ele><time>2026-05-01T13:50:33.349Z</time></trkpt><trkpt lat="44.333385" lon="8.2097567"><ele>465.19999999999993</ele><time>2026-05-01T13:50:34.355Z</time></trkpt><trkpt lat="44.3334433" lon="8.2096383"><ele>463.8</ele><time>2026-05-01T13:50:35.352Z</time></trkpt><trkpt lat="44.3335167" lon="8.2095"><ele>462.4</ele><time>2026-05-01T13:50:36.354Z</time></trkpt><trkpt lat="44.33359" lon="8.209355"><ele>461.0</ele><time>2026-05-01T13:50:37.352Z</time></trkpt><trkpt lat="44.33366" lon="8.2092117"><ele>461.0</ele><time>2026-05-01T13:50:38.358Z</time></trkpt><trkpt lat="44.3337117" lon="8.2090733"><ele>461.0</ele><time>2026-05-01T13:50:39.353Z</time></trkpt><trkpt lat="44.33373" lon="8.2089333"><ele>461.0</ele><time>2026-05-01T13:50:40.352Z</time></trkpt><trkpt lat="44.3337117" lon="8.2087967"><ele>461.0</ele><time>2026-05-01T13:50:41.352Z</time></trkpt><trkpt lat="44.3336567" lon="8.2086717"><ele>461.0</ele><time>2026-05-01T13:50:42.35Z</time></trkpt><trkpt lat="44.3335667" lon="8.2085467"><ele>463.3333333333333</ele><time>2026-05-01T13:50:43.353Z</time></trkpt><trkpt lat="44.33346" lon="8.2084167"><ele>465.66666666666663</ele><time>2026-05-01T13:50:44.354Z</time></trkpt><trkpt lat="44.3333417" lon="8.20826"><ele>468.0</ele><time>2026-05-01T13:50:45.359Z</time></trkpt><trkpt lat="44.333225" lon="8.2080817"><ele>466.0</ele><time>2026-05-01T13:50:46.352Z</time></trkpt><trkpt lat="44.3331133" lon="8.2078917"><ele>464.0</ele><time>2026-05-01T13:50:47.352Z</time></trkpt><trkpt lat="44.33301" lon="8.20769"><ele>462.0</ele><time>2026-05-01T13:50:48.35Z</time></trkpt><trkpt lat="44.3329117" lon="8.2074717"><ele>463.0</ele><time>2026-05-01T13:50:49.351Z</time></trkpt><trkpt lat="44.3328167" lon="8.2072367"><ele>464.0</ele><time>2026-05-01T13:50:50.35Z</time></trkpt><trkpt lat="44.3327233" lon="8.2069917"><ele>465.0</ele><time>2026-05-01T13:50:51.348Z</time></trkpt><trkpt lat="44.3326283" lon="8.2067533"><ele>465.0</ele><time>2026-05-01T13:50:52.351Z</time></trkpt><trkpt lat="44.3325317" lon="8.20653"><ele>465.0</ele><time>2026-05-01T13:50:53.351Z</time></trkpt><trkpt lat="44.3324283" lon="8.2063267"><ele>465.0</ele><time>2026-05-01T13:50:54.35Z</time></trkpt><trkpt lat="44.3323183" lon="8.2061383"><ele>466.66666666666663</ele><time>2026-05-01T13:50:55.35Z</time></trkpt><trkpt lat="44.3322017" lon="8.2059683"><ele>468.3333333333333</ele><time>2026-05-01T13:50:56.348Z</time></trkpt><trkpt lat="44.3320783" lon="8.205815"><ele>470.0</ele><time>2026-05-01T13:50:57.35Z</time></trkpt><trkpt lat="44.33195" lon="8.2056817"><ele>468.66666666666663</ele><time>2026-05-01T13:50:58.353Z</time></trkpt><trkpt lat="44.3318133" lon="8.2055617"><ele>467.33333333333337</ele><time>2026-05-01T13:50:59.351Z</time></trkpt><trkpt lat="44.3316583" lon="8.2054417"><ele>466.0</ele><time>2026-05-01T13:51:00.349Z</time></trkpt><trkpt lat="44.331485" lon="8.2053183"><ele>465.6666666666667</ele><time>2026-05-01T13:51:01.347Z</time></trkpt><trkpt lat="44.3312933" lon="8.2052117"><ele>465.33333333333337</ele><time>2026-05-01T13:51:02.349Z</time></trkpt><trkpt lat="44.3311" lon="8.2051183"><ele>465.0</ele><time>2026-05-01T13:51:03.348Z</time></trkpt><trkpt lat="44.33091" lon="8.2050317"><ele>465.0</ele><time>2026-05-01T13:51:04.354Z</time></trkpt><trkpt lat="44.3307133" lon="8.2049417"><ele>465.0</ele><time>2026-05-01T13:51:05.353Z</time></trkpt><trkpt lat="44.3305117" lon="8.204845"><ele>465.0</ele><time>2026-05-01T13:51:06.351Z</time></trkpt><trkpt lat="44.33032" lon="8.20474"><ele>470.33333333333337</ele><time>2026-05-01T13:51:07.353Z</time></trkpt><trkpt lat="44.330145" lon="8.2046317"><ele>475.6666666666667</ele><time>2026-05-01T13:51:08.352Z</time></trkpt><trkpt lat="44.3299983" lon="8.20454"><ele>481.0</ele><time>2026-05-01T13:51:09.349Z</time></trkpt><trkpt lat="44.3298833" lon="8.2044667"><ele>481.0</ele><time>2026-05-01T13:51:10.348Z</time></trkpt><trkpt lat="44.32981" lon="8.2044"><ele>481.0</ele><time>2026-05-01T13:51:11.352Z</time></trkpt><trkpt lat="44.32976" lon="8.2043433"><ele>481.0</ele><time>2026-05-01T13:51:12.356Z</time></trkpt><trkpt lat="44.3296733" lon="8.2043"><ele>481.0</ele><time>2026-05-01T13:51:14.354Z</time></trkpt><trkpt lat="44.3297083" lon="8.2044483"><ele>481.0</ele><time>2026-05-01T13:51:33.351Z</time></trkpt><trkpt lat="44.3298383" lon="8.204515"><ele>481.0</ele><time>2026-05-01T13:51:35.349Z</time></trkpt><trkpt lat="44.32994" lon="8.2045667"><ele>481.0</ele><time>2026-05-01T13:51:36.353Z</time></trkpt><trkpt lat="44.3300433" lon="8.20462"><ele>481.0</ele><time>2026-05-01T13:51:37.35Z</time></trkpt><trkpt lat="44.3301517" lon="8.20467"><ele>481.0</ele><time>2026-05-01T13:51:38.349Z</time></trkpt><trkpt lat="44.33027" lon="8.2047283"><ele>481.0</ele><time>2026-05-01T13:51:39.352Z</time></trkpt><trkpt lat="44.33039" lon="8.20479"><ele>481.0</ele><time>2026-05-01T13:51:40.352Z</time></trkpt><trkpt lat="44.3305217" lon="8.2048583"><ele>481.0</ele><time>2026-05-01T13:51:41.347Z</time></trkpt><trkpt lat="44.3306583" lon="8.20493"><ele>481.0</ele><time>2026-05-01T13:51:42.355Z</time></trkpt><trkpt lat="44.3308067" lon="8.2050083"><ele>475.6666666666667</ele><time>2026-05-01T13:51:43.354Z</time></trkpt><trkpt lat="44.33096" lon="8.2050883"><ele>470.33333333333337</ele><time>2026-05-01T13:51:44.351Z</time></trkpt><trkpt lat="44.3311183" lon="8.20517"><ele>465.0</ele><time>2026-05-01T13:51:45.348Z</time></trkpt><trkpt lat="44.331275" lon="8.2052517"><ele>465.25</ele><time>2026-05-01T13:51:46.352Z</time></trkpt><trkpt lat="44.3314233" lon="8.2053333"><ele>465.5</ele><time>2026-05-01T13:51:47.349Z</time></trkpt><trkpt lat="44.3315483" lon="8.2054117"><ele>465.75</ele><time>2026-05-01T13:51:48.354Z</time></trkpt><trkpt lat="44.3316417" lon="8.2054817"><ele>466.0</ele><time>2026-05-01T13:51:49.352Z</time></trkpt><trkpt lat="44.3317" lon="8.205555"><ele>466.0</ele><time>2026-05-01T13:51:50.352Z</time></trkpt><trkpt lat="44.3317317" lon="8.20564"><ele>466.0</ele><time>2026-05-01T13:51:51.358Z</time></trkpt><trkpt lat="44.3316933" lon="8.2058017"><ele>466.0</ele><time>2026-05-01T13:51:53.353Z</time></trkpt><trkpt lat="44.33164" lon="8.2058717"><ele>466.0</ele><time>2026-05-01T13:51:54.35Z</time></trkpt><trkpt lat="44.33156" lon="8.20592"><ele>466.0</ele><time>2026-05-01T13:51:55.35Z</time></trkpt><trkpt lat="44.3314567" lon="8.2059417"><ele>466.75</ele><time>2026-05-01T13:51:56.354Z</time></trkpt><trkpt lat="44.3313433" lon="8.2059283"><ele>467.5</ele><time>2026-05-01T13:51:57.348Z</time></trkpt><trkpt lat="44.3312283" lon="8.2059183"><ele>468.25</ele><time>2026-05-01T13:51:58.357Z</time></trkpt><trkpt lat="44.3311117" lon="8.2059383"><ele>469.0</ele><time>2026-05-01T13:51:59.351Z</time></trkpt><trkpt lat="44.3310067" lon="8.2060183"><ele>469.0</ele><time>2026-05-01T13:52:00.35Z</time></trkpt><trkpt lat="44.33091" lon="8.2061517"><ele>469.0</ele><time>2026-05-01T13:52:01.351Z</time></trkpt><trkpt lat="44.330815" lon="8.2063217"><ele>469.0</ele><time>2026-05-01T13:52:02.351Z</time></trkpt><trkpt lat="44.3307183" lon="8.2064983"><ele>469.0</ele><time>2026-05-01T13:52:03.35Z</time></trkpt><trkpt lat="44.3306133" lon="8.2066783"><ele>468.33333333333337</ele><time>2026-05-01T13:52:04.35Z</time></trkpt><trkpt lat="44.3304967" lon="8.2068417"><ele>467.66666666666663</ele><time>2026-05-01T13:52:05.349Z</time></trkpt><trkpt lat="44.3303733" lon="8.2069817"><ele>467.0</ele><time>2026-05-01T13:52:06.349Z</time></trkpt><trkpt lat="44.3302417" lon="8.2070933"><ele>467.0</ele><time>2026-05-01T13:52:07.348Z</time></trkpt><trkpt lat="44.3301033" lon="8.2071733"><ele>467.0</ele><time>2026-05-01T13:52:08.351Z</time></trkpt><trkpt lat="44.3299633" lon="8.2072267"><ele>467.0</ele><time>2026-05-01T13:52:09.355Z</time></trkpt><trkpt lat="44.32982" lon="8.2072667"><ele>467.0</ele><time>2026-05-01T13:52:10.35Z</time></trkpt><trkpt lat="44.3296683" lon="8.2073"><ele>475.66666666666663</ele><time>2026-05-01T13:52:11.349Z</time></trkpt><trkpt lat="44.3295083" lon="8.2073283"><ele>484.33333333333337</ele><time>2026-05-01T13:52:12.349Z</time></trkpt><trkpt lat="44.3293417" lon="8.2073433"><ele>493.0</ele><time>2026-05-01T13:52:13.354Z</time></trkpt><trkpt lat="44.3291683" lon="8.207335"><ele>486.33333333333337</ele><time>2026-05-01T13:52:14.35Z</time></trkpt><trkpt lat="44.3289867" lon="8.2073083"><ele>479.66666666666663</ele><time>2026-05-01T13:52:15.353Z</time></trkpt><trkpt lat="44.3288017" lon="8.2072733"><ele>473.0</ele><time>2026-05-01T13:52:16.349Z</time></trkpt><trkpt lat="44.328615" lon="8.2072383"><ele>473.0</ele><time>2026-05-01T13:52:17.349Z</time></trkpt><trkpt lat="44.328425" lon="8.207195"><ele>473.0</ele><time>2026-05-01T13:52:18.351Z</time></trkpt><trkpt lat="44.3282283" lon="8.207125"><ele>473.0</ele><time>2026-05-01T13:52:19.349Z</time></trkpt><trkpt lat="44.32803" lon="8.2070283"><ele>476.0</ele><time>2026-05-01T13:52:20.349Z</time></trkpt><trkpt lat="44.32783" lon="8.2069167"><ele>479.0</ele><time>2026-05-01T13:52:21.35Z</time></trkpt><trkpt lat="44.327635" lon="8.2068067"><ele>482.0</ele><time>2026-05-01T13:52:22.352Z</time></trkpt><trkpt lat="44.3274367" lon="8.206705"><ele>482.0</ele><time>2026-05-01T13:52:23.352Z</time></trkpt><trkpt lat="44.3272317" lon="8.2066283"><ele>482.0</ele><time>2026-05-01T13:52:24.352Z</time></trkpt><trkpt lat="44.327015" lon="8.2065883"><ele>482.0</ele><time>2026-05-01T13:52:25.353Z</time></trkpt><trkpt lat="44.3267967" lon="8.2065717"><ele>483.0</ele><time>2026-05-01T13:52:26.35Z</time></trkpt><trkpt lat="44.326575" lon="8.2065583"><ele>484.0</ele><time>2026-05-01T13:52:27.35Z</time></trkpt><trkpt lat="44.3263683" lon="8.206555"><ele>485.0</ele><time>2026-05-01T13:52:28.348Z</time></trkpt><trkpt lat="44.3261817" lon="8.2065633"><ele>485.0</ele><time>2026-05-01T13:52:29.349Z</time></trkpt><trkpt lat="44.3260083" lon="8.2065983"><ele>485.0</ele><time>2026-05-01T13:52:30.352Z</time></trkpt><trkpt lat="44.3258467" lon="8.2066783"><ele>485.0</ele><time>2026-05-01T13:52:31.352Z</time></trkpt><trkpt lat="44.325695" lon="8.2068017"><ele>481.66666666666663</ele><time>2026-05-01T13:52:32.354Z</time></trkpt><trkpt lat="44.32554" lon="8.206955"><ele>478.33333333333337</ele><time>2026-05-01T13:52:33.353Z</time></trkpt><trkpt lat="44.325375" lon="8.2071233"><ele>475.0</ele><time>2026-05-01T13:52:34.352Z</time></trkpt><trkpt lat="44.3252017" lon="8.2072967"><ele>477.33333333333337</ele><time>2026-05-01T13:52:35.35Z</time></trkpt><trkpt lat="44.325025" lon="8.2074667"><ele>479.66666666666663</ele><time>2026-05-01T13:52:36.351Z</time></trkpt><trkpt lat="44.32486" lon="8.2076233"><ele>482.0</ele><time>2026-05-01T13:52:37.35Z</time></trkpt><trkpt lat="44.3247183" lon="8.2077733"><ele>482.0</ele><time>2026-05-01T13:52:38.351Z</time></trkpt><trkpt lat="44.3246083" lon="8.2079217"><ele>482.0</ele><time>2026-05-01T13:52:39.351Z</time></trkpt><trkpt lat="44.3245333" lon="8.2080667"><ele>482.0</ele><time>2026-05-01T13:52:40.352Z</time></trkpt><trkpt lat="44.3245067" lon="8.2082083"><ele>482.0</ele><time>2026-05-01T13:52:41.352Z</time></trkpt><trkpt lat="44.32453" lon="8.208355"><ele>483.5</ele><time>2026-05-01T13:52:42.35Z</time></trkpt><trkpt lat="44.3246033" lon="8.2084967"><ele>485.0</ele><time>2026-05-01T13:52:43.36Z</time></trkpt><trkpt lat="44.3247183" lon="8.2086367"><ele>486.5</ele><time>2026-05-01T13:52:44.349Z</time></trkpt><trkpt lat="44.3248333" lon="8.2087917"><ele>488.0</ele><time>2026-05-01T13:52:45.35Z</time></trkpt><trkpt lat="44.324935" lon="8.208955"><ele>490.75</ele><time>2026-05-01T13:52:46.349Z</time></trkpt><trkpt lat="44.3250067" lon="8.2091317"><ele>493.5</ele><time>2026-05-01T13:52:47.349Z</time></trkpt><trkpt lat="44.325035" lon="8.20932"><ele>496.25</ele><time>2026-05-01T13:52:48.35Z</time></trkpt><trkpt lat="44.3250167" lon="8.20951"><ele>499.0</ele><time>2026-05-01T13:52:49.349Z</time></trkpt><trkpt lat="44.324945" lon="8.209695"><ele>497.0</ele><time>2026-05-01T13:52:50.35Z</time></trkpt><trkpt lat="44.3248417" lon="8.20988"><ele>495.0</ele><time>2026-05-01T13:52:51.35Z</time></trkpt><trkpt lat="44.3247183" lon="8.2100767"><ele>493.0</ele><time>2026-05-01T13:52:52.354Z</time></trkpt><trkpt lat="44.3245833" lon="8.2102917"><ele>493.0</ele><time>2026-05-01T13:52:53.35Z</time></trkpt><trkpt lat="44.3244433" lon="8.210515"><ele>493.0</ele><time>2026-05-01T13:52:54.35Z</time></trkpt><trkpt lat="44.3243017" lon="8.2107433"><ele>493.0</ele><time>2026-05-01T13:52:55.351Z</time></trkpt><trkpt lat="44.3241633" lon="8.2109717"><ele>494.0</ele><time>2026-05-01T13:52:56.353Z</time></trkpt><trkpt lat="44.3240317" lon="8.2111883"><ele>495.0</ele><time>2026-05-01T13:52:57.351Z</time></trkpt><trkpt lat="44.3239033" lon="8.21138"><ele>496.0</ele><time>2026-05-01T13:52:58.352Z</time></trkpt><trkpt lat="44.3237667" lon="8.2115433"><ele>496.33333333333337</ele><time>2026-05-01T13:52:59.352Z</time></trkpt><trkpt lat="44.3236167" lon="8.211675"><ele>496.66666666666663</ele><time>2026-05-01T13:53:00.35Z</time></trkpt><trkpt lat="44.32345" lon="8.2117683"><ele>497.0</ele><time>2026-05-01T13:53:01.351Z</time></trkpt><trkpt lat="44.32327" lon="8.2118167"><ele>497.0</ele><time>2026-05-01T13:53:02.352Z</time></trkpt><trkpt lat="44.3230867" lon="8.21181"><ele>497.0</ele><time>2026-05-01T13:53:03.352Z</time></trkpt><trkpt lat="44.3229083" lon="8.21175"><ele>497.0</ele><time>2026-05-01T13:53:04.352Z</time></trkpt><trkpt lat="44.32274" lon="8.21168"><ele>496.66666666666663</ele><time>2026-05-01T13:53:05.348Z</time></trkpt><trkpt lat="44.3225783" lon="8.211655"><ele>496.33333333333337</ele><time>2026-05-01T13:53:06.35Z</time></trkpt><trkpt lat="44.3224183" lon="8.2116917"><ele>496.0</ele><time>2026-05-01T13:53:07.351Z</time></trkpt><trkpt lat="44.3222717" lon="8.211785"><ele>498.33333333333337</ele><time>2026-05-01T13:53:08.353Z</time></trkpt><trkpt lat="44.3221467" lon="8.21194"><ele>500.66666666666663</ele><time>2026-05-01T13:53:09.348Z</time></trkpt><trkpt lat="44.3220483" lon="8.2121467"><ele>503.0</ele><time>2026-05-01T13:53:10.354Z</time></trkpt><trkpt lat="44.3219817" lon="8.212395"><ele>503.0</ele><time>2026-05-01T13:53:11.349Z</time></trkpt><trkpt lat="44.3219383" lon="8.2126767"><ele>503.0</ele><time>2026-05-01T13:53:12.35Z</time></trkpt><trkpt lat="44.3219" lon="8.2129667"><ele>503.0</ele><time>2026-05-01T13:53:13.348Z</time></trkpt><trkpt lat="44.3218617" lon="8.21327"><ele>502.5</ele><time>2026-05-01T13:53:14.35Z</time></trkpt><trkpt lat="44.321825" lon="8.2135817"><ele>502.0</ele><time>2026-05-01T13:53:15.353Z</time></trkpt><trkpt lat="44.3217783" lon="8.2139033"><ele>503.0</ele><time>2026-05-01T13:53:16.353Z</time></trkpt><trkpt lat="44.3217333" lon="8.2142217"><ele>504.0</ele><time>2026-05-01T13:53:17.35Z</time></trkpt><trkpt lat="44.3216867" lon="8.21454"><ele>505.33333333333337</ele><time>2026-05-01T13:53:18.352Z</time></trkpt><trkpt lat="44.3216433" lon="8.214855"><ele>506.6666666666667</ele><time>2026-05-01T13:53:19.353Z</time></trkpt><trkpt lat="44.3216" lon="8.21515"><ele>508.0</ele><time>2026-05-01T13:53:20.355Z</time></trkpt><trkpt lat="44.32156" lon="8.2154283"><ele>508.33333333333337</ele><time>2026-05-01T13:53:21.351Z</time></trkpt><trkpt lat="44.32152" lon="8.2156717"><ele>508.66666666666663</ele><time>2026-05-01T13:53:22.35Z</time></trkpt><trkpt lat="44.3214717" lon="8.2158817"><ele>509.0</ele><time>2026-05-01T13:53:23.35Z</time></trkpt><trkpt lat="44.3213983" lon="8.2160567"><ele>509.0</ele><time>2026-05-01T13:53:24.353Z</time></trkpt><trkpt lat="44.3212983" lon="8.2161917"><ele>509.0</ele><time>2026-05-01T13:53:25.351Z</time></trkpt><trkpt lat="44.3211767" lon="8.2162817"><ele>509.0</ele><time>2026-05-01T13:53:26.354Z</time></trkpt><trkpt lat="44.3210317" lon="8.216315"><ele>509.0</ele><time>2026-05-01T13:53:27.349Z</time></trkpt><trkpt lat="44.3208617" lon="8.216315"><ele>509.0</ele><time>2026-05-01T13:53:28.348Z</time></trkpt><trkpt lat="44.32068" lon="8.2163067"><ele>509.0</ele><time>2026-05-01T13:53:29.351Z</time></trkpt><trkpt lat="44.3204917" lon="8.216295"><ele>509.0</ele><time>2026-05-01T13:53:30.353Z</time></trkpt><trkpt lat="44.320295" lon="8.2162867"><ele>509.3333333333333</ele><time>2026-05-01T13:53:31.349Z</time></trkpt><trkpt lat="44.3200883" lon="8.2162767"><ele>509.66666666666663</ele><time>2026-05-01T13:53:32.35Z</time></trkpt><trkpt lat="44.3198767" lon="8.2162667"><ele>510.0</ele><time>2026-05-01T13:53:33.354Z</time></trkpt><trkpt lat="44.3196567" lon="8.2162633"><ele>508.0</ele><time>2026-05-01T13:53:34.353Z</time></trkpt><trkpt lat="44.3194367" lon="8.21628"><ele>506.0</ele><time>2026-05-01T13:53:35.351Z</time></trkpt><trkpt lat="44.3192183" lon="8.2163233"><ele>504.0</ele><time>2026-05-01T13:53:36.352Z</time></trkpt><trkpt lat="44.319" lon="8.2163733"><ele>504.33333333333337</ele><time>2026-05-01T13:53:37.352Z</time></trkpt><trkpt lat="44.3187817" lon="8.216425"><ele>504.6666666666667</ele><time>2026-05-01T13:53:38.352Z</time></trkpt><trkpt lat="44.3185683" lon="8.216475"><ele>505.0</ele><time>2026-05-01T13:53:39.35Z</time></trkpt><trkpt lat="44.31836" lon="8.2165067"><ele>507.33333333333337</ele><time>2026-05-01T13:53:40.348Z</time></trkpt><trkpt lat="44.318155" lon="8.2165133"><ele>509.66666666666663</ele><time>2026-05-01T13:53:41.35Z</time></trkpt><trkpt lat="44.3179483" lon="8.2164833"><ele>512.0</ele><time>2026-05-01T13:53:42.35Z</time></trkpt><trkpt lat="44.3177417" lon="8.216425"><ele>512.0</ele><time>2026-05-01T13:53:43.349Z</time></trkpt><trkpt lat="44.3175317" lon="8.21635"><ele>512.0</ele><time>2026-05-01T13:53:44.361Z</time></trkpt><trkpt lat="44.3173217" lon="8.2162617"><ele>512.0</ele><time>2026-05-01T13:53:45.35Z</time></trkpt><trkpt lat="44.317115" lon="8.2161633"><ele>512.0</ele><time>2026-05-01T13:53:46.354Z</time></trkpt><trkpt lat="44.31691" lon="8.2160617"><ele>512.0</ele><time>2026-05-01T13:53:47.354Z</time></trkpt><trkpt lat="44.3167067" lon="8.2159783"><ele>512.0</ele><time>2026-05-01T13:53:48.354Z</time></trkpt><trkpt lat="44.3164983" lon="8.2159183"><ele>515.0</ele><time>2026-05-01T13:53:49.352Z</time></trkpt><trkpt lat="44.3162917" lon="8.2158717"><ele>518.0</ele><time>2026-05-01T13:53:50.352Z</time></trkpt><trkpt lat="44.316085" lon="8.2158183"><ele>521.0</ele><time>2026-05-01T13:53:51.354Z</time></trkpt><trkpt lat="44.315885" lon="8.215745"><ele>521.0</ele><time>2026-05-01T13:53:52.354Z</time></trkpt><trkpt lat="44.3156917" lon="8.2156567"><ele>521.0</ele><time>2026-05-01T13:53:53.352Z</time></trkpt><trkpt lat="44.3155083" lon="8.2155617"><ele>521.0</ele><time>2026-05-01T13:53:54.352Z</time></trkpt><trkpt lat="44.3153367" lon="8.2154533"><ele>520.0</ele><time>2026-05-01T13:53:55.356Z</time></trkpt><trkpt lat="44.3151883" lon="8.2153167"><ele>519.0</ele><time>2026-05-01T13:53:56.353Z</time></trkpt><trkpt lat="44.3150633" lon="8.21515"><ele>518.0</ele><time>2026-05-01T13:53:57.349Z</time></trkpt><trkpt lat="44.314955" lon="8.2149533"><ele>516.3333333333333</ele><time>2026-05-01T13:53:58.35Z</time></trkpt><trkpt lat="44.3148567" lon="8.21474"><ele>514.6666666666666</ele><time>2026-05-01T13:53:59.354Z</time></trkpt><trkpt lat="44.3147717" lon="8.2145167"><ele>513.0</ele><time>2026-05-01T13:54:00.353Z</time></trkpt><trkpt lat="44.3147067" lon="8.2142683"><ele>521.0</ele><time>2026-05-01T13:54:01.353Z</time></trkpt><trkpt lat="44.3146683" lon="8.2140083"><ele>529.0</ele><time>2026-05-01T13:54:02.36Z</time></trkpt><trkpt lat="44.314645" lon="8.2137433"><ele>537.0</ele><time>2026-05-01T13:54:03.355Z</time></trkpt><trkpt lat="44.3146233" lon="8.2134817"><ele>537.0</ele><time>2026-05-01T13:54:04.354Z</time></trkpt><trkpt lat="44.3145917" lon="8.2132267"><ele>537.0</ele><time>2026-05-01T13:54:05.358Z</time></trkpt><trkpt lat="44.31454" lon="8.21298"><ele>537.0</ele><time>2026-05-01T13:54:06.35Z</time></trkpt><trkpt lat="44.31446" lon="8.2127333"><ele>532.3333333333334</ele><time>2026-05-01T13:54:07.351Z</time></trkpt><trkpt lat="44.3143667" lon="8.212485"><ele>527.6666666666667</ele><time>2026-05-01T13:54:08.354Z</time></trkpt><trkpt lat="44.3142617" lon="8.2122217"><ele>523.0</ele><time>2026-05-01T13:54:09.354Z</time></trkpt><trkpt lat="44.3141517" lon="8.2119567"><ele>523.0</ele><time>2026-05-01T13:54:10.354Z</time></trkpt><trkpt lat="44.3140417" lon="8.2116867"><ele>523.0</ele><time>2026-05-01T13:54:11.352Z</time></trkpt><trkpt lat="44.313935" lon="8.2114133"><ele>523.0</ele><time>2026-05-01T13:54:12.352Z</time></trkpt><trkpt lat="44.3138317" lon="8.2111467"><ele>524.0</ele><time>2026-05-01T13:54:13.353Z</time></trkpt><trkpt lat="44.3137383" lon="8.210905"><ele>525.0</ele><time>2026-05-01T13:54:14.352Z</time></trkpt><trkpt lat="44.3136567" lon="8.2107017"><ele>526.0</ele><time>2026-05-01T13:54:15.355Z</time></trkpt><trkpt lat="44.313585" lon="8.2105367"><ele>526.0</ele><time>2026-05-01T13:54:16.349Z</time></trkpt><trkpt lat="44.3135083" lon="8.210405"><ele>526.0</ele><time>2026-05-01T13:54:17.353Z</time></trkpt><trkpt lat="44.3134183" lon="8.2103167"><ele>526.0</ele><time>2026-05-01T13:54:18.353Z</time></trkpt><trkpt lat="44.3133267" lon="8.2102833"><ele>526.0</ele><time>2026-05-01T13:54:19.349Z</time></trkpt><trkpt lat="44.31323" lon="8.21031"><ele>526.0</ele><time>2026-05-01T13:54:20.35Z</time></trkpt><trkpt lat="44.313135" lon="8.2103933"><ele>527.0</ele><time>2026-05-01T13:54:21.353Z</time></trkpt><trkpt lat="44.31305" lon="8.21051"><ele>528.0</ele><time>2026-05-01T13:54:22.35Z</time></trkpt><trkpt lat="44.3129833" lon="8.2106567"><ele>529.0</ele><time>2026-05-01T13:54:23.35Z</time></trkpt><trkpt lat="44.3129383" lon="8.210845"><ele>530.0</ele><time>2026-05-01T13:54:24.35Z</time></trkpt><trkpt lat="44.3128817" lon="8.211015"><ele>530.0</ele><time>2026-05-01T13:54:25.353Z</time></trkpt><trkpt lat="44.3128167" lon="8.2111667"><ele>530.0</ele><time>2026-05-01T13:54:26.352Z</time></trkpt><trkpt lat="44.3127267" lon="8.2112783"><ele>530.0</ele><time>2026-05-01T13:54:27.352Z</time></trkpt><trkpt lat="44.3126083" lon="8.21134"><ele>530.0</ele><time>2026-05-01T13:54:28.353Z</time></trkpt><trkpt lat="44.31248" lon="8.211345"><ele>530.0</ele><time>2026-05-01T13:54:29.351Z</time></trkpt><trkpt lat="44.3123533" lon="8.211295"><ele>530.0</ele><time>2026-05-01T13:54:30.355Z</time></trkpt><trkpt lat="44.312235" lon="8.2111983"><ele>530.0</ele><time>2026-05-01T13:54:31.35Z</time></trkpt><trkpt lat="44.3121283" lon="8.2110567"><ele>530.0</ele><time>2026-05-01T13:54:32.35Z</time></trkpt><trkpt lat="44.3120333" lon="8.210885"><ele>537.3333333333333</ele><time>2026-05-01T13:54:33.35Z</time></trkpt><trkpt lat="44.3119483" lon="8.2106833"><ele>544.6666666666666</ele><time>2026-05-01T13:54:34.355Z</time></trkpt><trkpt lat="44.3118767" lon="8.2104633"><ele>552.0</ele><time>2026-05-01T13:54:35.348Z</time></trkpt><trkpt lat="44.31182" lon="8.2102167"><ele>552.0</ele><time>2026-05-01T13:54:36.354Z</time></trkpt><trkpt lat="44.3117733" lon="8.20995"><ele>552.0</ele><time>2026-05-01T13:54:37.354Z</time></trkpt><trkpt lat="44.3117233" lon="8.20967"><ele>552.0</ele><time>2026-05-01T13:54:38.352Z</time></trkpt><trkpt lat="44.31167" lon="8.20938"><ele>548.5</ele><time>2026-05-01T13:54:39.354Z</time></trkpt><trkpt lat="44.3116133" lon="8.2090783"><ele>545.0</ele><time>2026-05-01T13:54:40.352Z</time></trkpt><trkpt lat="44.3115567" lon="8.2087633"><ele>543.5</ele><time>2026-05-01T13:54:41.349Z</time></trkpt><trkpt lat="44.3115017" lon="8.2084433"><ele>542.0</ele><time>2026-05-01T13:54:42.359Z</time></trkpt><trkpt lat="44.3114433" lon="8.2081233"><ele>563.0</ele><time>2026-05-01T13:54:43.351Z</time></trkpt><trkpt lat="44.3113867" lon="8.2078"><ele>584.0</ele><time>2026-05-01T13:54:44.355Z</time></trkpt><trkpt lat="44.31133" lon="8.2074817"><ele>581.6666666666666</ele><time>2026-05-01T13:54:45.354Z</time></trkpt><trkpt lat="44.3112767" lon="8.2071783"><ele>579.3333333333334</ele><time>2026-05-01T13:54:46.352Z</time></trkpt><trkpt lat="44.3112283" lon="8.2068933"><ele>577.0</ele><time>2026-05-01T13:54:47.355Z</time></trkpt><trkpt lat="44.3111867" lon="8.2066333"><ele>576.0</ele><time>2026-05-01T13:54:48.352Z</time></trkpt><trkpt lat="44.3111667" lon="8.2063883"><ele>575.0</ele><time>2026-05-01T13:54:49.352Z</time></trkpt><trkpt lat="44.31118" lon="8.2061617"><ele>574.0</ele><time>2026-05-01T13:54:50.352Z</time></trkpt><trkpt lat="44.3112267" lon="8.2059583"><ele>574.0</ele><time>2026-05-01T13:54:51.352Z</time></trkpt><trkpt lat="44.311315" lon="8.2057767"><ele>574.0</ele><time>2026-05-01T13:54:52.352Z</time></trkpt><trkpt lat="44.311435" lon="8.2056133"><ele>574.0</ele><time>2026-05-01T13:54:53.355Z</time></trkpt><trkpt lat="44.3115767" lon="8.2054783"><ele>576.6666666666667</ele><time>2026-05-01T13:54:54.349Z</time></trkpt><trkpt lat="44.31174" lon="8.20537"><ele>579.3333333333334</ele><time>2026-05-01T13:54:55.35Z</time></trkpt><trkpt lat="44.311915" lon="8.205275"><ele>582.0</ele><time>2026-05-01T13:54:56.351Z</time></trkpt><trkpt lat="44.3120967" lon="8.2051917"><ele>575.3333333333334</ele><time>2026-05-01T13:54:57.352Z</time></trkpt><trkpt lat="44.3122717" lon="8.2051083"><ele>568.6666666666667</ele><time>2026-05-01T13:54:58.357Z</time></trkpt><trkpt lat="44.31243" lon="8.2050267"><ele>562.0</ele><time>2026-05-01T13:54:59.35Z</time></trkpt><trkpt lat="44.31257" lon="8.2049583"><ele>562.0</ele><time>2026-05-01T13:55:00.355Z</time></trkpt><trkpt lat="44.3126883" lon="8.204895"><ele>562.0</ele><time>2026-05-01T13:55:01.349Z</time></trkpt><trkpt lat="44.3127667" lon="8.2048233"><ele>562.0</ele><time>2026-05-01T13:55:02.349Z</time></trkpt><trkpt lat="44.3128183" lon="8.2047383"><ele>562.0</ele><time>2026-05-01T13:55:03.35Z</time></trkpt><trkpt lat="44.3128117" lon="8.20461"><ele>562.0</ele><time>2026-05-01T13:55:04.35Z</time></trkpt><trkpt lat="44.3127717" lon="8.2044717"><ele>564.0</ele><time>2026-05-01T13:55:05.351Z</time></trkpt><trkpt lat="44.3127033" lon="8.2043083"><ele>566.0</ele><time>2026-05-01T13:55:06.352Z</time></trkpt><trkpt lat="44.3126267" lon="8.2041267"><ele>568.0</ele><time>2026-05-01T13:55:07.358Z</time></trkpt><trkpt lat="44.3125367" lon="8.203925"><ele>568.0</ele><time>2026-05-01T13:55:08.35Z</time></trkpt><trkpt lat="44.312445" lon="8.2037067"><ele>568.0</ele><time>2026-05-01T13:55:09.351Z</time></trkpt><trkpt lat="44.3123483" lon="8.2034833"><ele>568.0</ele><time>2026-05-01T13:55:10.35Z</time></trkpt><trkpt lat="44.3122533" lon="8.203265"><ele>578.3333333333334</ele><time>2026-05-01T13:55:11.35Z</time></trkpt><trkpt lat="44.3121633" lon="8.2030483"><ele>588.6666666666666</ele><time>2026-05-01T13:55:12.35Z</time></trkpt><trkpt lat="44.3120867" lon="8.2028383"><ele>599.0</ele><time>2026-05-01T13:55:13.352Z</time></trkpt><trkpt lat="44.3120267" lon="8.2026433"><ele>599.0</ele><time>2026-05-01T13:55:14.35Z</time></trkpt><trkpt lat="44.3119933" lon="8.2024667"><ele>599.0</ele><time>2026-05-01T13:55:15.358Z</time></trkpt><trkpt lat="44.3119867" lon="8.2022967"><ele>599.0</ele><time>2026-05-01T13:55:16.35Z</time></trkpt><trkpt lat="44.3119933" lon="8.2021233"><ele>599.0</ele><time>2026-05-01T13:55:17.353Z</time></trkpt><trkpt lat="44.3120117" lon="8.2019417"><ele>599.25</ele><time>2026-05-01T13:55:18.35Z</time></trkpt><trkpt lat="44.31204" lon="8.2017533"><ele>599.5</ele><time>2026-05-01T13:55:19.353Z</time></trkpt><trkpt lat="44.3120667" lon="8.20157"><ele>599.75</ele><time>2026-05-01T13:55:20.349Z</time></trkpt><trkpt lat="44.3120917" lon="8.2014083"><ele>600.0</ele><time>2026-05-01T13:55:21.352Z</time></trkpt><trkpt lat="44.31211" lon="8.2012667"><ele>598.6</ele><time>2026-05-01T13:55:22.355Z</time></trkpt><trkpt lat="44.3121217" lon="8.201145"><ele>597.2</ele><time>2026-05-01T13:55:23.352Z</time></trkpt><trkpt lat="44.3121183" lon="8.201045"><ele>595.8</ele><time>2026-05-01T13:55:24.351Z</time></trkpt><trkpt lat="44.3120683" lon="8.2009117"><ele>594.4</ele><time>2026-05-01T13:55:26.352Z</time></trkpt><trkpt lat="44.3119567" lon="8.2009267"><ele>593.0</ele><time>2026-05-01T13:55:28.353Z</time></trkpt><trkpt lat="44.3119133" lon="8.2010717"><ele>593.0</ele><time>2026-05-01T13:55:29.353Z</time></trkpt><trkpt lat="44.311895" lon="8.2012217"><ele>593.0</ele><time>2026-05-01T13:55:30.349Z</time></trkpt><trkpt lat="44.3118717" lon="8.2013983"><ele>593.0</ele><time>2026-05-01T13:55:31.353Z</time></trkpt><trkpt lat="44.31183" lon="8.2015833"><ele>593.0</ele><time>2026-05-01T13:55:32.35Z</time></trkpt><trkpt lat="44.311765" lon="8.2017867"><ele>595.0</ele><time>2026-05-01T13:55:33.353Z</time></trkpt><trkpt lat="44.3116883" lon="8.2020017"><ele>597.0</ele><time>2026-05-01T13:55:34.349Z</time></trkpt><trkpt lat="44.3116183" lon="8.202225"><ele>599.0</ele><time>2026-05-01T13:55:35.352Z</time></trkpt><trkpt lat="44.3115583" lon="8.2024517"><ele>599.0</ele><time>2026-05-01T13:55:36.359Z</time></trkpt><trkpt lat="44.31151" lon="8.2026817"><ele>599.0</ele><time>2026-05-01T13:55:37.356Z</time></trkpt><trkpt lat="44.3114733" lon="8.2029033"><ele>599.0</ele><time>2026-05-01T13:55:38.355Z</time></trkpt><trkpt lat="44.3114567" lon="8.2031117"><ele>600.0</ele><time>2026-05-01T13:55:39.35Z</time></trkpt><trkpt lat="44.3114767" lon="8.2033083"><ele>601.0</ele><time>2026-05-01T13:55:40.354Z</time></trkpt><trkpt lat="44.311515" lon="8.2034883"><ele>602.0</ele><time>2026-05-01T13:55:41.351Z</time></trkpt><trkpt lat="44.31159" lon="8.2036733"><ele>603.0</ele><time>2026-05-01T13:55:42.351Z</time></trkpt><trkpt lat="44.3116783" lon="8.2038417"><ele>603.0</ele><time>2026-05-01T13:55:43.35Z</time></trkpt><trkpt lat="44.31177" lon="8.203985"><ele>603.0</ele><time>2026-05-01T13:55:44.349Z</time></trkpt><trkpt lat="44.31181" lon="8.2041067"><ele>603.0</ele><time>2026-05-01T13:55:45.353Z</time></trkpt><trkpt lat="44.31178" lon="8.20424"><ele>603.0</ele><time>2026-05-01T13:55:47.352Z</time></trkpt><trkpt lat="44.311715" lon="8.2042183"><ele>603.0</ele><time>2026-05-01T13:55:48.35Z</time></trkpt><trkpt lat="44.3116633" lon="8.2041517"><ele>603.0</ele><time>2026-05-01T13:55:49.35Z</time></trkpt><trkpt lat="44.3116267" lon="8.2040433"><ele>603.0</ele><time>2026-05-01T13:55:50.355Z</time></trkpt><trkpt lat="44.311595" lon="8.2039283"><ele>603.0</ele><time>2026-05-01T13:55:51.353Z</time></trkpt><trkpt lat="44.3115533" lon="8.20379"><ele>603.0</ele><time>2026-05-01T13:55:52.349Z</time></trkpt><trkpt lat="44.311475" lon="8.2036633"><ele>603.0</ele><time>2026-05-01T13:55:53.351Z</time></trkpt><trkpt lat="44.3113983" lon="8.2035583"><ele>612.75</ele><time>2026-05-01T13:55:54.351Z</time></trkpt><trkpt lat="44.3113167" lon="8.20346"><ele>622.5</ele><time>2026-05-01T13:55:55.353Z</time></trkpt><trkpt lat="44.31126" lon="8.2033417"><ele>632.25</ele><time>2026-05-01T13:55:56.354Z</time></trkpt><trkpt lat="44.3112" lon="8.203185"><ele>642.0</ele><time>2026-05-01T13:55:57.35Z</time></trkpt><trkpt lat="44.3111633" lon="8.2030133"><ele>642.0</ele><time>2026-05-01T13:55:58.349Z</time></trkpt><trkpt lat="44.3111317" lon="8.2028317"><ele>642.0</ele><time>2026-05-01T13:55:59.351Z</time></trkpt><trkpt lat="44.3111333" lon="8.2026217"><ele>642.0</ele><time>2026-05-01T13:56:00.352Z</time></trkpt><trkpt lat="44.3111667" lon="8.2023783"><ele>642.3333333333334</ele><time>2026-05-01T13:56:01.353Z</time></trkpt><trkpt lat="44.3112083" lon="8.2021533"><ele>642.6666666666667</ele><time>2026-05-01T13:56:02.353Z</time></trkpt><trkpt lat="44.3112517" lon="8.2019317"><ele>643.0</ele><time>2026-05-01T13:56:03.351Z</time></trkpt><trkpt lat="44.3112983" lon="8.2017417"><ele>643.0</ele><time>2026-05-01T13:56:04.35Z</time></trkpt><trkpt lat="44.311335" lon="8.201575"><ele>643.0</ele><time>2026-05-01T13:56:05.35Z</time></trkpt><trkpt lat="44.31135" lon="8.2014383"><ele>643.0</ele><time>2026-05-01T13:56:06.349Z</time></trkpt><trkpt lat="44.3113367" lon="8.2013317"><ele>643.0</ele><time>2026-05-01T13:56:07.351Z</time></trkpt><trkpt lat="44.3112833" lon="8.2012467"><ele>643.0</ele><time>2026-05-01T13:56:08.35Z</time></trkpt><trkpt lat="44.31122" lon="8.2011783"><ele>639.75</ele><time>2026-05-01T13:56:09.352Z</time></trkpt><trkpt lat="44.31113" lon="8.2011267"><ele>636.5</ele><time>2026-05-01T13:56:10.351Z</time></trkpt><trkpt lat="44.3110133" lon="8.2010733"><ele>633.25</ele><time>2026-05-01T13:56:11.363Z</time></trkpt><trkpt lat="44.310875" lon="8.2010517"><ele>630.0</ele><time>2026-05-01T13:56:12.354Z</time></trkpt><trkpt lat="44.3107517" lon="8.2010467"><ele>630.0</ele><time>2026-05-01T13:56:13.356Z</time></trkpt><trkpt lat="44.3106333" lon="8.2010433"><ele>630.0</ele><time>2026-05-01T13:56:14.352Z</time></trkpt><trkpt lat="44.3105383" lon="8.2010183"><ele>630.0</ele><time>2026-05-01T13:56:15.354Z</time></trkpt><trkpt lat="44.31045" lon="8.200965"><ele>630.0</ele><time>2026-05-01T13:56:16.351Z</time></trkpt><trkpt lat="44.31041" lon="8.2008817"><ele>630.0</ele><time>2026-05-01T13:56:17.352Z</time></trkpt><trkpt lat="44.3104017" lon="8.20077"><ele>631.0</ele><time>2026-05-01T13:56:18.352Z</time></trkpt><trkpt lat="44.3104483" lon="8.2006367"><ele>632.0</ele><time>2026-05-01T13:56:19.354Z</time></trkpt><trkpt lat="44.3105017" lon="8.2004933"><ele>633.0</ele><time>2026-05-01T13:56:20.352Z</time></trkpt><trkpt lat="44.3105633" lon="8.200325"><ele>634.0</ele><time>2026-05-01T13:56:21.356Z</time></trkpt><trkpt lat="44.3106233" lon="8.2001367"><ele>634.0</ele><time>2026-05-01T13:56:22.354Z</time></trkpt><trkpt lat="44.31068" lon="8.1999583"><ele>634.0</ele><time>2026-05-01T13:56:23.349Z</time></trkpt><trkpt lat="44.3107267" lon="8.1997883"><ele>634.0</ele><time>2026-05-01T13:56:24.354Z</time></trkpt><trkpt lat="44.31076" lon="8.1996317"><ele>634.0</ele><time>2026-05-01T13:56:25.354Z</time></trkpt><trkpt lat="44.31078" lon="8.1994833"><ele>632.25</ele><time>2026-05-01T13:56:26.352Z</time></trkpt><trkpt lat="44.310755" lon="8.1993383"><ele>630.5</ele><time>2026-05-01T13:56:27.353Z</time></trkpt><trkpt lat="44.3107" lon="8.19921"><ele>628.75</ele><time>2026-05-01T13:56:28.352Z</time></trkpt><trkpt lat="44.3106067" lon="8.1991233"><ele>627.0</ele><time>2026-05-01T13:56:29.352Z</time></trkpt><trkpt lat="44.3104817" lon="8.19908"><ele>628.6666666666666</ele><time>2026-05-01T13:56:30.351Z</time></trkpt><trkpt lat="44.3103217" lon="8.19905"><ele>630.3333333333333</ele><time>2026-05-01T13:56:31.351Z</time></trkpt><trkpt lat="44.3101583" lon="8.199005"><ele>632.0</ele><time>2026-05-01T13:56:32.348Z</time></trkpt><trkpt lat="44.3099983" lon="8.1989267"><ele>632.0</ele><time>2026-05-01T13:56:33.351Z</time></trkpt><trkpt lat="44.30985" lon="8.1988267"><ele>632.0</ele><time>2026-05-01T13:56:34.351Z</time></trkpt><trkpt lat="44.309705" lon="8.1986933"><ele>632.0</ele><time>2026-05-01T13:56:35.348Z</time></trkpt><trkpt lat="44.30957" lon="8.1985383"><ele>633.0</ele><time>2026-05-01T13:56:36.352Z</time></trkpt><trkpt lat="44.309435" lon="8.1983733"><ele>634.0</ele><time>2026-05-01T13:56:37.354Z</time></trkpt><trkpt lat="44.3093117" lon="8.1982183"><ele>635.0</ele><time>2026-05-01T13:56:38.355Z</time></trkpt><trkpt lat="44.3091933" lon="8.1980683"><ele>635.0</ele><time>2026-05-01T13:56:39.355Z</time></trkpt><trkpt lat="44.309075" lon="8.1979267"><ele>635.0</ele><time>2026-05-01T13:56:40.356Z</time></trkpt><trkpt lat="44.3089533" lon="8.1977917"><ele>635.0</ele><time>2026-05-01T13:56:41.35Z</time></trkpt><trkpt lat="44.308835" lon="8.1976633"><ele>635.25</ele><time>2026-05-01T13:56:42.35Z</time></trkpt><trkpt lat="44.3087167" lon="8.1975333"><ele>635.5</ele><time>2026-05-01T13:56:43.354Z</time></trkpt><trkpt lat="44.3085983" lon="8.1974067"><ele>635.75</ele><time>2026-05-01T13:56:44.35Z</time></trkpt><trkpt lat="44.30848" lon="8.1972817"><ele>636.0</ele><time>2026-05-01T13:56:45.355Z</time></trkpt><trkpt lat="44.3083667" lon="8.1971567"><ele>636.0</ele><time>2026-05-01T13:56:46.352Z</time></trkpt><trkpt lat="44.3082533" lon="8.197035"><ele>636.0</ele><time>2026-05-01T13:56:47.349Z</time></trkpt><trkpt lat="44.30814" lon="8.196915"><ele>636.0</ele><time>2026-05-01T13:56:48.354Z</time></trkpt><trkpt lat="44.3080267" lon="8.1967967"><ele>636.0</ele><time>2026-05-01T13:56:49.351Z</time></trkpt><trkpt lat="44.3079133" lon="8.196675"><ele>637.5</ele><time>2026-05-01T13:56:50.356Z</time></trkpt><trkpt lat="44.3078017" lon="8.1965533"><ele>639.0</ele><time>2026-05-01T13:56:51.352Z</time></trkpt><trkpt lat="44.3076917" lon="8.1964217"><ele>640.5</ele><time>2026-05-01T13:56:52.354Z</time></trkpt><trkpt lat="44.307595" lon="8.196275"><ele>642.0</ele><time>2026-05-01T13:56:53.354Z</time></trkpt><trkpt lat="44.307505" lon="8.1961233"><ele>642.0</ele><time>2026-05-01T13:56:54.355Z</time></trkpt><trkpt lat="44.3074067" lon="8.1959867"><ele>642.0</ele><time>2026-05-01T13:56:55.356Z</time></trkpt><trkpt lat="44.307295" lon="8.1958683"><ele>642.0</ele><time>2026-05-01T13:56:56.351Z</time></trkpt><trkpt lat="44.3071717" lon="8.1957783"><ele>642.0</ele><time>2026-05-01T13:56:57.352Z</time></trkpt><trkpt lat="44.30704" lon="8.1957017"><ele>641.25</ele><time>2026-05-01T13:56:58.35Z</time></trkpt><trkpt lat="44.3069083" lon="8.19562"><ele>640.5</ele><time>2026-05-01T13:56:59.354Z</time></trkpt><trkpt lat="44.3067783" lon="8.1955283"><ele>639.75</ele><time>2026-05-01T13:57:00.357Z</time></trkpt><trkpt lat="44.3066517" lon="8.1954317"><ele>639.0</ele><time>2026-05-01T13:57:01.351Z</time></trkpt><trkpt lat="44.306525" lon="8.19533"><ele>640.5</ele><time>2026-05-01T13:57:02.35Z</time></trkpt><trkpt lat="44.3063983" lon="8.19523"><ele>642.0</ele><time>2026-05-01T13:57:03.352Z</time></trkpt><trkpt lat="44.3062783" lon="8.19514"><ele>643.5</ele><time>2026-05-01T13:57:04.35Z</time></trkpt><trkpt lat="44.3061583" lon="8.1950867"><ele>645.0</ele><time>2026-05-01T13:57:05.35Z</time></trkpt><trkpt lat="44.306035" lon="8.1950817"><ele>645.0</ele><time>2026-05-01T13:57:06.351Z</time></trkpt><trkpt lat="44.30591" lon="8.1951233"><ele>645.0</ele><time>2026-05-01T13:57:07.352Z</time></trkpt><trkpt lat="44.3057817" lon="8.1951967"><ele>645.0</ele><time>2026-05-01T13:57:08.352Z</time></trkpt><trkpt lat="44.3056533" lon="8.19529"><ele>645.0</ele><time>2026-05-01T13:57:09.355Z</time></trkpt><trkpt lat="44.305525" lon="8.19538"><ele>646.3333333333334</ele><time>2026-05-01T13:57:10.349Z</time></trkpt><trkpt lat="44.3053883" lon="8.1954817"><ele>647.6666666666667</ele><time>2026-05-01T13:57:11.352Z</time></trkpt><trkpt lat="44.3052533" lon="8.1955883"><ele>649.0</ele><time>2026-05-01T13:57:12.351Z</time></trkpt><trkpt lat="44.3051167" lon="8.1956967"><ele>649.0</ele><time>2026-05-01T13:57:13.35Z</time></trkpt><trkpt lat="44.3049783" lon="8.195815"><ele>649.0</ele><time>2026-05-01T13:57:14.352Z</time></trkpt><trkpt lat="44.3048417" lon="8.1959483"><ele>649.0</ele><time>2026-05-01T13:57:15.349Z</time></trkpt><trkpt lat="44.3047067" lon="8.1960867"><ele>647.6666666666667</ele><time>2026-05-01T13:57:16.349Z</time></trkpt><trkpt lat="44.304585" lon="8.19623"><ele>646.3333333333334</ele><time>2026-05-01T13:57:17.349Z</time></trkpt><trkpt lat="44.30447" lon="8.196375"><ele>645.0</ele><time>2026-05-01T13:57:18.357Z</time></trkpt><trkpt lat="44.3043533" lon="8.1965183"><ele>645.0</ele><time>2026-05-01T13:57:19.351Z</time></trkpt><trkpt lat="44.30423" lon="8.1966567"><ele>645.0</ele><time>2026-05-01T13:57:20.353Z</time></trkpt><trkpt lat="44.3040917" lon="8.19678"><ele>645.0</ele><time>2026-05-01T13:57:21.35Z</time></trkpt><trkpt lat="44.3039367" lon="8.196885"><ele>641.0</ele><time>2026-05-01T13:57:22.357Z</time></trkpt><trkpt lat="44.3037667" lon="8.19697"><ele>637.0</ele><time>2026-05-01T13:57:23.349Z</time></trkpt><trkpt lat="44.3035883" lon="8.19704"><ele>633.0</ele><time>2026-05-01T13:57:24.353Z</time></trkpt><trkpt lat="44.3034067" lon="8.1971"><ele>633.0</ele><time>2026-05-01T13:57:25.353Z</time></trkpt><trkpt lat="44.3032217" lon="8.19716"><ele>633.0</ele><time>2026-05-01T13:57:26.348Z</time></trkpt><trkpt lat="44.30304" lon="8.1972217"><ele>633.0</ele><time>2026-05-01T13:57:27.349Z</time></trkpt><trkpt lat="44.302865" lon="8.1972933"><ele>635.6666666666666</ele><time>2026-05-01T13:57:28.35Z</time></trkpt><trkpt lat="44.3026967" lon="8.1973883"><ele>638.3333333333333</ele><time>2026-05-01T13:57:29.354Z</time></trkpt><trkpt lat="44.302545" lon="8.197525"><ele>641.0</ele><time>2026-05-01T13:57:30.35Z</time></trkpt><trkpt lat="44.3024117" lon="8.197695"><ele>641.0</ele><time>2026-05-01T13:57:31.349Z</time></trkpt><trkpt lat="44.3022983" lon="8.1979033"><ele>641.0</ele><time>2026-05-01T13:57:32.351Z</time></trkpt><trkpt lat="44.3022017" lon="8.1981367"><ele>641.0</ele><time>2026-05-01T13:57:33.35Z</time></trkpt><trkpt lat="44.3021133" lon="8.198365"><ele>638.6666666666666</ele><time>2026-05-01T13:57:34.353Z</time></trkpt><trkpt lat="44.3020067" lon="8.1985817"><ele>636.3333333333334</ele><time>2026-05-01T13:57:35.352Z</time></trkpt><trkpt lat="44.3018767" lon="8.1987667"><ele>634.0</ele><time>2026-05-01T13:57:36.354Z</time></trkpt><trkpt lat="44.3017233" lon="8.1989233"><ele>637.6666666666667</ele><time>2026-05-01T13:57:37.351Z</time></trkpt><trkpt lat="44.3015583" lon="8.1990433"><ele>641.3333333333334</ele><time>2026-05-01T13:57:38.352Z</time></trkpt><trkpt lat="44.3013867" lon="8.19913"><ele>645.0</ele><time>2026-05-01T13:57:39.352Z</time></trkpt><trkpt lat="44.30122" lon="8.1991867"><ele>645.0</ele><time>2026-05-01T13:57:40.353Z</time></trkpt><trkpt lat="44.301065" lon="8.1992083"><ele>645.0</ele><time>2026-05-01T13:57:41.354Z</time></trkpt><trkpt lat="44.3009167" lon="8.19919"><ele>645.0</ele><time>2026-05-01T13:57:42.354Z</time></trkpt><trkpt lat="44.3007683" lon="8.1991533"><ele>645.0</ele><time>2026-05-01T13:57:43.352Z</time></trkpt><trkpt lat="44.3006167" lon="8.19914"><ele>645.0</ele><time>2026-05-01T13:57:44.352Z</time></trkpt><trkpt lat="44.3004733" lon="8.1991583"><ele>645.0</ele><time>2026-05-01T13:57:45.356Z</time></trkpt><trkpt lat="44.3003517" lon="8.1992017"><ele>645.0</ele><time>2026-05-01T13:57:46.352Z</time></trkpt><trkpt lat="44.3002617" lon="8.1992533"><ele>643.1666666666666</ele><time>2026-05-01T13:57:47.351Z</time></trkpt><trkpt lat="44.3001933" lon="8.1993033"><ele>641.3333333333334</ele><time>2026-05-01T13:57:48.351Z</time></trkpt><trkpt lat="44.300095" lon="8.1994"><ele>639.5</ele><time>2026-05-01T13:57:50.352Z</time></trkpt><trkpt lat="44.3000383" lon="8.199455"><ele>637.6666666666667</ele><time>2026-05-01T13:57:51.35Z</time></trkpt><trkpt lat="44.2999817" lon="8.19953"><ele>635.8333333333334</ele><time>2026-05-01T13:57:52.35Z</time></trkpt><trkpt lat="44.2999167" lon="8.19962"><ele>634.0</ele><time>2026-05-01T13:57:53.35Z</time></trkpt><trkpt lat="44.2998533" lon="8.1997283"><ele>633.75</ele><time>2026-05-01T13:57:54.353Z</time></trkpt><trkpt lat="44.299785" lon="8.1998517"><ele>633.5</ele><time>2026-05-01T13:57:55.349Z</time></trkpt><trkpt lat="44.2997083" lon="8.199975"><ele>633.25</ele><time>2026-05-01T13:57:56.352Z</time></trkpt><trkpt lat="44.2996283" lon="8.2001133"><ele>633.0</ele><time>2026-05-01T13:57:57.352Z</time></trkpt><trkpt lat="44.2995417" lon="8.20026"><ele>633.0</ele><time>2026-05-01T13:57:58.349Z</time></trkpt><trkpt lat="44.2994533" lon="8.2004117"><ele>633.0</ele><time>2026-05-01T13:57:59.35Z</time></trkpt><trkpt lat="44.29936" lon="8.2005633"><ele>633.0</ele><time>2026-05-01T13:58:00.352Z</time></trkpt><trkpt lat="44.2992583" lon="8.2007017"><ele>633.0</ele><time>2026-05-01T13:58:01.354Z</time></trkpt><trkpt lat="44.2991383" lon="8.2008167"><ele>634.6666666666666</ele><time>2026-05-01T13:58:02.351Z</time></trkpt><trkpt lat="44.2989983" lon="8.200915"><ele>636.3333333333333</ele><time>2026-05-01T13:58:03.349Z</time></trkpt><trkpt lat="44.2988433" lon="8.20101"><ele>638.0</ele><time>2026-05-01T13:58:04.348Z</time></trkpt><trkpt lat="44.2986817" lon="8.201105"><ele>638.0</ele><time>2026-05-01T13:58:05.351Z</time></trkpt><trkpt lat="44.298515" lon="8.2012033"><ele>638.0</ele><time>2026-05-01T13:58:06.35Z</time></trkpt><trkpt lat="44.2983433" lon="8.2013017"><ele>638.0</ele><time>2026-05-01T13:58:07.352Z</time></trkpt><trkpt lat="44.2981717" lon="8.201395"><ele>636.0</ele><time>2026-05-01T13:58:08.349Z</time></trkpt><trkpt lat="44.29799" lon="8.20148"><ele>634.0</ele><time>2026-05-01T13:58:09.352Z</time></trkpt><trkpt lat="44.297805" lon="8.2015483"><ele>632.0</ele><time>2026-05-01T13:58:10.35Z</time></trkpt><trkpt lat="44.2976133" lon="8.2016083"><ele>634.3333333333333</ele><time>2026-05-01T13:58:11.35Z</time></trkpt><trkpt lat="44.2974217" lon="8.2016667"><ele>636.6666666666666</ele><time>2026-05-01T13:58:12.352Z</time></trkpt><trkpt lat="44.2972317" lon="8.2017283"><ele>639.0</ele><time>2026-05-01T13:58:13.351Z</time></trkpt><trkpt lat="44.2970433" lon="8.2017967"><ele>639.0</ele><time>2026-05-01T13:58:14.349Z</time></trkpt><trkpt lat="44.2968583" lon="8.20186"><ele>639.0</ele><time>2026-05-01T13:58:15.353Z</time></trkpt><trkpt lat="44.296675" lon="8.2019117"><ele>639.0</ele><time>2026-05-01T13:58:16.357Z</time></trkpt><trkpt lat="44.2964933" lon="8.2019467"><ele>640.0</ele><time>2026-05-01T13:58:17.351Z</time></trkpt><trkpt lat="44.2963033" lon="8.201955"><ele>641.0</ele><time>2026-05-01T13:58:18.352Z</time></trkpt><trkpt lat="44.2961083" lon="8.2019483"><ele>642.0</ele><time>2026-05-01T13:58:19.349Z</time></trkpt><trkpt lat="44.295915" lon="8.2019367"><ele>642.0</ele><time>2026-05-01T13:58:20.351Z</time></trkpt><trkpt lat="44.2957183" lon="8.2019167"><ele>642.0</ele><time>2026-05-01T13:58:21.356Z</time></trkpt><trkpt lat="44.2955283" lon="8.201895"><ele>642.0</ele><time>2026-05-01T13:58:22.352Z</time></trkpt><trkpt lat="44.2953483" lon="8.2018783"><ele>640.6666666666666</ele><time>2026-05-01T13:58:23.355Z</time></trkpt><trkpt lat="44.2951867" lon="8.2018883"><ele>639.3333333333333</ele><time>2026-05-01T13:58:24.351Z</time></trkpt><trkpt lat="44.295025" lon="8.2018783"><ele>638.0</ele><time>2026-05-01T13:58:25.353Z</time></trkpt><trkpt lat="44.29487" lon="8.2018683"><ele>636.6666666666666</ele><time>2026-05-01T13:58:26.353Z</time></trkpt><trkpt lat="44.2947183" lon="8.2018633"><ele>635.3333333333334</ele><time>2026-05-01T13:58:27.351Z</time></trkpt><trkpt lat="44.294565" lon="8.2018667"><ele>634.0</ele><time>2026-05-01T13:58:28.353Z</time></trkpt><trkpt lat="44.2944133" lon="8.2018733"><ele>634.0</ele><time>2026-05-01T13:58:29.352Z</time></trkpt><trkpt lat="44.29426" lon="8.2018767"><ele>634.0</ele><time>2026-05-01T13:58:30.348Z</time></trkpt><trkpt lat="44.294105" lon="8.2018817"><ele>634.0</ele><time>2026-05-01T13:58:31.352Z</time></trkpt><trkpt lat="44.2939417" lon="8.2018883"><ele>635.3333333333334</ele><time>2026-05-01T13:58:32.349Z</time></trkpt><trkpt lat="44.2937783" lon="8.201895"><ele>636.6666666666666</ele><time>2026-05-01T13:58:33.35Z</time></trkpt><trkpt lat="44.2936117" lon="8.2019067"><ele>638.0</ele><time>2026-05-01T13:58:34.352Z</time></trkpt><trkpt lat="44.2934417" lon="8.2019217"><ele>638.0</ele><time>2026-05-01T13:58:35.351Z</time></trkpt><trkpt lat="44.29327" lon="8.201935"><ele>638.0</ele><time>2026-05-01T13:58:36.356Z</time></trkpt><trkpt lat="44.293095" lon="8.2019483"><ele>638.0</ele><time>2026-05-01T13:58:37.35Z</time></trkpt><trkpt lat="44.2929217" lon="8.2019583"><ele>639.3333333333333</ele><time>2026-05-01T13:58:38.351Z</time></trkpt><trkpt lat="44.292755" lon="8.20196"><ele>640.6666666666666</ele><time>2026-05-01T13:58:39.35Z</time></trkpt><trkpt lat="44.292595" lon="8.2019483"><ele>642.0</ele><time>2026-05-01T13:58:40.35Z</time></trkpt><trkpt lat="44.2924433" lon="8.2019117"><ele>642.0</ele><time>2026-05-01T13:58:41.352Z</time></trkpt><trkpt lat="44.2922917" lon="8.2018633"><ele>642.0</ele><time>2026-05-01T13:58:42.351Z</time></trkpt><trkpt lat="44.2921317" lon="8.2018033"><ele>642.0</ele><time>2026-05-01T13:58:43.351Z</time></trkpt><trkpt lat="44.2919667" lon="8.2017517"><ele>642.6666666666666</ele><time>2026-05-01T13:58:44.352Z</time></trkpt><trkpt lat="44.2918067" lon="8.2017133"><ele>643.3333333333333</ele><time>2026-05-01T13:58:45.352Z</time></trkpt><trkpt lat="44.291645" lon="8.2017"><ele>644.0</ele><time>2026-05-01T13:58:46.353Z</time></trkpt><trkpt lat="44.2914917" lon="8.201695"><ele>643.25</ele><time>2026-05-01T13:58:47.35Z</time></trkpt><trkpt lat="44.2913483" lon="8.2016883"><ele>642.5</ele><time>2026-05-01T13:58:48.35Z</time></trkpt><trkpt lat="44.2912133" lon="8.2016817"><ele>641.75</ele><time>2026-05-01T13:58:49.353Z</time></trkpt><trkpt lat="44.2910883" lon="8.2016833"><ele>641.0</ele><time>2026-05-01T13:58:50.352Z</time></trkpt><trkpt lat="44.2909683" lon="8.2017017"><ele>641.0</ele><time>2026-05-01T13:58:51.354Z</time></trkpt><trkpt lat="44.2908583" lon="8.2017383"><ele>641.0</ele><time>2026-05-01T13:58:52.351Z</time></trkpt><trkpt lat="44.2907517" lon="8.2017783"><ele>641.0</ele><time>2026-05-01T13:58:53.356Z</time></trkpt><trkpt lat="44.2906533" lon="8.20182"><ele>641.0</ele><time>2026-05-01T13:58:54.354Z</time></trkpt><trkpt lat="44.29056" lon="8.2018633"><ele>641.0</ele><time>2026-05-01T13:58:55.352Z</time></trkpt><trkpt lat="44.290465" lon="8.201905"><ele>640.0</ele><time>2026-05-01T13:58:56.35Z</time></trkpt><trkpt lat="44.2903667" lon="8.20195"><ele>639.0</ele><time>2026-05-01T13:58:57.351Z</time></trkpt><trkpt lat="44.2902633" lon="8.2019917"><ele>638.0</ele><time>2026-05-01T13:58:58.351Z</time></trkpt><trkpt lat="44.2901533" lon="8.20204"><ele>637.0</ele><time>2026-05-01T13:58:59.354Z</time></trkpt><trkpt lat="44.29004" lon="8.2020883"><ele>636.0</ele><time>2026-05-01T13:59:00.353Z</time></trkpt><trkpt lat="44.289925" lon="8.2021367"><ele>636.0</ele><time>2026-05-01T13:59:01.354Z</time></trkpt><trkpt lat="44.2898017" lon="8.202195"><ele>636.0</ele><time>2026-05-01T13:59:02.352Z</time></trkpt><trkpt lat="44.28967" lon="8.2022533"><ele>636.0</ele><time>2026-05-01T13:59:03.353Z</time></trkpt><trkpt lat="44.289535" lon="8.2023167"><ele>636.0</ele><time>2026-05-01T13:59:04.352Z</time></trkpt><trkpt lat="44.2893983" lon="8.2023817"><ele>638.0</ele><time>2026-05-01T13:59:05.35Z</time></trkpt><trkpt lat="44.2892617" lon="8.2024567"><ele>640.0</ele><time>2026-05-01T13:59:06.353Z</time></trkpt><trkpt lat="44.28913" lon="8.202555"><ele>642.0</ele><time>2026-05-01T13:59:07.353Z</time></trkpt><trkpt lat="44.289005" lon="8.202685"><ele>639.0</ele><time>2026-05-01T13:59:08.352Z</time></trkpt><trkpt lat="44.2888733" lon="8.2028233"><ele>636.0</ele><time>2026-05-01T13:59:09.353Z</time></trkpt><trkpt lat="44.2887317" lon="8.2029633"><ele>633.0</ele><time>2026-05-01T13:59:10.353Z</time></trkpt><trkpt lat="44.2885867" lon="8.2030917"><ele>638.0</ele><time>2026-05-01T13:59:11.353Z</time></trkpt><trkpt lat="44.288435" lon="8.20322"><ele>643.0</ele><time>2026-05-01T13:59:12.358Z</time></trkpt><trkpt lat="44.288275" lon="8.2033217"><ele>648.0</ele><time>2026-05-01T13:59:13.353Z</time></trkpt><trkpt lat="44.28811" lon="8.203395"><ele>647.0</ele><time>2026-05-01T13:59:14.353Z</time></trkpt><trkpt lat="44.2879367" lon="8.2034267"><ele>646.0</ele><time>2026-05-01T13:59:15.356Z</time></trkpt><trkpt lat="44.2877633" lon="8.2034567"><ele>645.0</ele><time>2026-05-01T13:59:16.355Z</time></trkpt><trkpt lat="44.287595" lon="8.2034983"><ele>645.0</ele><time>2026-05-01T13:59:17.353Z</time></trkpt><trkpt lat="44.2874383" lon="8.20355"><ele>645.0</ele><time>2026-05-01T13:59:18.355Z</time></trkpt><trkpt lat="44.2873017" lon="8.203625"><ele>645.0</ele><time>2026-05-01T13:59:19.352Z</time></trkpt><trkpt lat="44.2871833" lon="8.20373"><ele>645.0</ele><time>2026-05-01T13:59:20.358Z</time></trkpt><trkpt lat="44.28707" lon="8.2038467"><ele>643.75</ele><time>2026-05-01T13:59:21.354Z</time></trkpt><trkpt lat="44.2869433" lon="8.2039467"><ele>642.5</ele><time>2026-05-01T13:59:22.353Z</time></trkpt><trkpt lat="44.2868" lon="8.2040117"><ele>641.25</ele><time>2026-05-01T13:59:23.349Z</time></trkpt><trkpt lat="44.2866533" lon="8.2040633"><ele>640.0</ele><time>2026-05-01T13:59:24.353Z</time></trkpt><trkpt lat="44.28649" lon="8.2040917"><ele>642.3333333333334</ele><time>2026-05-01T13:59:25.353Z</time></trkpt><trkpt lat="44.2863233" lon="8.2041133"><ele>644.6666666666666</ele><time>2026-05-01T13:59:26.352Z</time></trkpt><trkpt lat="44.2861633" lon="8.2041367"><ele>647.0</ele><time>2026-05-01T13:59:27.353Z</time></trkpt><trkpt lat="44.28601" lon="8.2041667"><ele>647.0</ele><time>2026-05-01T13:59:28.353Z</time></trkpt><trkpt lat="44.2858583" lon="8.204195"><ele>647.0</ele><time>2026-05-01T13:59:29.353Z</time></trkpt><trkpt lat="44.28571" lon="8.2042217"><ele>647.0</ele><time>2026-05-01T13:59:30.354Z</time></trkpt><trkpt lat="44.28557" lon="8.20424"><ele>647.0</ele><time>2026-05-01T13:59:31.354Z</time></trkpt><trkpt lat="44.285445" lon="8.2042383"><ele>646.4000000000001</ele><time>2026-05-01T13:59:32.357Z</time></trkpt><trkpt lat="44.285335" lon="8.20421"><ele>645.8000000000001</ele><time>2026-05-01T13:59:33.355Z</time></trkpt><trkpt lat="44.2852467" lon="8.204155"><ele>645.2</ele><time>2026-05-01T13:59:34.351Z</time></trkpt><trkpt lat="44.285175" lon="8.204065"><ele>644.6</ele><time>2026-05-01T13:59:35.35Z</time></trkpt><trkpt lat="44.2851233" lon="8.203945"><ele>644.0</ele><time>2026-05-01T13:59:36.352Z</time></trkpt><trkpt lat="44.285075" lon="8.2038133"><ele>643.8000000000001</ele><time>2026-05-01T13:59:37.353Z</time></trkpt><trkpt lat="44.285025" lon="8.203675"><ele>643.6</ele><time>2026-05-01T13:59:38.355Z</time></trkpt><trkpt lat="44.2849767" lon="8.2035333"><ele>643.4</ele><time>2026-05-01T13:59:39.352Z</time></trkpt><trkpt lat="44.284925" lon="8.2033983"><ele>643.2</ele><time>2026-05-01T13:59:40.349Z</time></trkpt><trkpt lat="44.2848733" lon="8.2032717"><ele>643.0</ele><time>2026-05-01T13:59:41.351Z</time></trkpt><trkpt lat="44.28482" lon="8.2031533"><ele>645.5999999999999</ele><time>2026-05-01T13:59:42.349Z</time></trkpt><trkpt lat="44.2847517" lon="8.2030617"><ele>648.1999999999999</ele><time>2026-05-01T13:59:43.353Z</time></trkpt><trkpt lat="44.2846683" lon="8.2029883"><ele>650.8</ele><time>2026-05-01T13:59:44.352Z</time></trkpt><trkpt lat="44.2845733" lon="8.20294"><ele>653.4</ele><time>2026-05-01T13:59:45.35Z</time></trkpt><trkpt lat="44.2844667" lon="8.202925"><ele>656.0</ele><time>2026-05-01T13:59:46.35Z</time></trkpt><trkpt lat="44.2843633" lon="8.2029183"><ele>656.0</ele><time>2026-05-01T13:59:47.353Z</time></trkpt><trkpt lat="44.2842533" lon="8.2029233"><ele>656.0</ele><time>2026-05-01T13:59:48.354Z</time></trkpt><trkpt lat="44.2841417" lon="8.20293"><ele>656.0</ele><time>2026-05-01T13:59:49.354Z</time></trkpt><trkpt lat="44.2840283" lon="8.2029367"><ele>656.0</ele><time>2026-05-01T13:59:50.352Z</time></trkpt><trkpt lat="44.2839167" lon="8.2029233"><ele>656.0</ele><time>2026-05-01T13:59:51.351Z</time></trkpt><trkpt lat="44.2838117" lon="8.2028933"><ele>655.5999999999999</ele><time>2026-05-01T13:59:52.351Z</time></trkpt><trkpt lat="44.283705" lon="8.2028533"><ele>655.2</ele><time>2026-05-01T13:59:53.349Z</time></trkpt><trkpt lat="44.2836083" lon="8.2028"><ele>654.8</ele><time>2026-05-01T13:59:54.356Z</time></trkpt><trkpt lat="44.2835167" lon="8.2027383"><ele>654.4000000000001</ele><time>2026-05-01T13:59:55.352Z</time></trkpt><trkpt lat="44.2834283" lon="8.202675"><ele>654.0</ele><time>2026-05-01T13:59:56.357Z</time></trkpt><trkpt lat="44.2833383" lon="8.2026117"><ele>654.0</ele><time>2026-05-01T13:59:57.349Z</time></trkpt><trkpt lat="44.28325" lon="8.202545"><ele>654.0</ele><time>2026-05-01T13:59:58.349Z</time></trkpt><trkpt lat="44.283155" lon="8.2024717"><ele>654.0</ele><time>2026-05-01T13:59:59.349Z</time></trkpt><trkpt lat="44.28306" lon="8.2023983"><ele>654.0</ele><time>2026-05-01T14:00:00.349Z</time></trkpt><trkpt lat="44.2829567" lon="8.2023217"><ele>654.0</ele><time>2026-05-01T14:00:01.354Z</time></trkpt><trkpt lat="44.2828467" lon="8.2022467"><ele>655.75</ele><time>2026-05-01T14:00:02.348Z</time></trkpt><trkpt lat="44.2827283" lon="8.202175"><ele>657.5</ele><time>2026-05-01T14:00:03.354Z</time></trkpt><trkpt lat="44.2826017" lon="8.2021083"><ele>659.25</ele><time>2026-05-01T14:00:04.35Z</time></trkpt><trkpt lat="44.2824667" lon="8.2020433"><ele>661.0</ele><time>2026-05-01T14:00:05.35Z</time></trkpt><trkpt lat="44.2823233" lon="8.2019767"><ele>660.25</ele><time>2026-05-01T14:00:06.35Z</time></trkpt><trkpt lat="44.28218" lon="8.20191"><ele>659.5</ele><time>2026-05-01T14:00:07.356Z</time></trkpt><trkpt lat="44.2820417" lon="8.201845"><ele>658.75</ele><time>2026-05-01T14:00:08.353Z</time></trkpt><trkpt lat="44.2819067" lon="8.2017767"><ele>658.0</ele><time>2026-05-01T14:00:09.354Z</time></trkpt><trkpt lat="44.281775" lon="8.2016967"><ele>658.0</ele><time>2026-05-01T14:00:10.353Z</time></trkpt><trkpt lat="44.2816433" lon="8.2016"><ele>658.0</ele><time>2026-05-01T14:00:11.351Z</time></trkpt><trkpt lat="44.2815083" lon="8.2014817"><ele>658.0</ele><time>2026-05-01T14:00:12.354Z</time></trkpt><trkpt lat="44.2813783" lon="8.2013483"><ele>658.3333333333334</ele><time>2026-05-01T14:00:13.353Z</time></trkpt><trkpt lat="44.281245" lon="8.2012083"><ele>658.6666666666666</ele><time>2026-05-01T14:00:14.351Z</time></trkpt><trkpt lat="44.2811117" lon="8.2010717"><ele>659.0</ele><time>2026-05-01T14:00:15.351Z</time></trkpt><trkpt lat="44.280975" lon="8.2009383"><ele>659.0</ele><time>2026-05-01T14:00:16.354Z</time></trkpt><trkpt lat="44.28084" lon="8.20081"><ele>659.0</ele><time>2026-05-01T14:00:17.354Z</time></trkpt><trkpt lat="44.2807133" lon="8.2006867"><ele>659.0</ele><time>2026-05-01T14:00:18.352Z</time></trkpt><trkpt lat="44.280595" lon="8.200565"><ele>658.75</ele><time>2026-05-01T14:00:19.354Z</time></trkpt><trkpt lat="44.2804883" lon="8.200445"><ele>658.5</ele><time>2026-05-01T14:00:20.352Z</time></trkpt><trkpt lat="44.2804" lon="8.2003183"><ele>658.25</ele><time>2026-05-01T14:00:21.352Z</time></trkpt><trkpt lat="44.2803333" lon="8.200185"><ele>658.0</ele><time>2026-05-01T14:00:22.351Z</time></trkpt><trkpt lat="44.2803" lon="8.2000333"><ele>658.0</ele><time>2026-05-01T14:00:23.348Z</time></trkpt><trkpt lat="44.2802967" lon="8.199865"><ele>658.0</ele><time>2026-05-01T14:00:24.354Z</time></trkpt><trkpt lat="44.28031" lon="8.1996833"><ele>658.0</ele><time>2026-05-01T14:00:25.349Z</time></trkpt><trkpt lat="44.2803317" lon="8.1994883"><ele>658.0</ele><time>2026-05-01T14:00:26.36Z</time></trkpt><trkpt lat="44.2803617" lon="8.1992767"><ele>659.0</ele><time>2026-05-01T14:00:27.352Z</time></trkpt><trkpt lat="44.2803883" lon="8.1990583"><ele>660.0</ele><time>2026-05-01T14:00:28.351Z</time></trkpt><trkpt lat="44.2804133" lon="8.1988333"><ele>661.0</ele><time>2026-05-01T14:00:29.353Z</time></trkpt><trkpt lat="44.2804283" lon="8.198615"><ele>661.0</ele><time>2026-05-01T14:00:30.352Z</time></trkpt><trkpt lat="44.2804283" lon="8.198405"><ele>661.0</ele><time>2026-05-01T14:00:31.354Z</time></trkpt><trkpt lat="44.2804" lon="8.1982133"><ele>661.0</ele><time>2026-05-01T14:00:32.35Z</time></trkpt><trkpt lat="44.2803383" lon="8.1980383"><ele>661.0</ele><time>2026-05-01T14:00:33.355Z</time></trkpt><trkpt lat="44.28025" lon="8.1978833"><ele>663.6666666666667</ele><time>2026-05-01T14:00:34.352Z</time></trkpt><trkpt lat="44.2801333" lon="8.197755"><ele>666.3333333333334</ele><time>2026-05-01T14:00:35.35Z</time></trkpt><trkpt lat="44.279995" lon="8.1976567"><ele>669.0</ele><time>2026-05-01T14:00:36.352Z</time></trkpt><trkpt lat="44.2798367" lon="8.1975817"><ele>668.0</ele><time>2026-05-01T14:00:37.355Z</time></trkpt><trkpt lat="44.27967" lon="8.1975167"><ele>667.0</ele><time>2026-05-01T14:00:38.354Z</time></trkpt><trkpt lat="44.279495" lon="8.1974733"><ele>666.0</ele><time>2026-05-01T14:00:39.353Z</time></trkpt><trkpt lat="44.2793133" lon="8.1974583"><ele>666.0</ele><time>2026-05-01T14:00:40.349Z</time></trkpt><trkpt lat="44.2791283" lon="8.1974533"><ele>666.0</ele><time>2026-05-01T14:00:41.351Z</time></trkpt><trkpt lat="44.278945" lon="8.19746"><ele>666.0</ele><time>2026-05-01T14:00:42.353Z</time></trkpt><trkpt lat="44.2787683" lon="8.1974767"><ele>667.3333333333334</ele><time>2026-05-01T14:00:43.349Z</time></trkpt><trkpt lat="44.2785983" lon="8.197485"><ele>668.6666666666667</ele><time>2026-05-01T14:00:44.354Z</time></trkpt><trkpt lat="44.2784367" lon="8.1974667"><ele>670.0</ele><time>2026-05-01T14:00:45.349Z</time></trkpt><trkpt lat="44.27828" lon="8.1974067"><ele>676.6666666666667</ele><time>2026-05-01T14:00:46.353Z</time></trkpt><trkpt lat="44.2781167" lon="8.19733"><ele>683.3333333333334</ele><time>2026-05-01T14:00:47.353Z</time></trkpt><trkpt lat="44.27795" lon="8.197245"><ele>690.0</ele><time>2026-05-01T14:00:48.35Z</time></trkpt><trkpt lat="44.27778" lon="8.1971633"><ele>691.0</ele><time>2026-05-01T14:00:49.353Z</time></trkpt><trkpt lat="44.2776017" lon="8.1970817"><ele>692.0</ele><time>2026-05-01T14:00:50.351Z</time></trkpt><trkpt lat="44.2774267" lon="8.1970033"><ele>693.0</ele><time>2026-05-01T14:00:51.352Z</time></trkpt><trkpt lat="44.2772583" lon="8.1969283"><ele>690.75</ele><time>2026-05-01T14:00:52.352Z</time></trkpt><trkpt lat="44.2770983" lon="8.1968633"><ele>688.5</ele><time>2026-05-01T14:00:53.352Z</time></trkpt><trkpt lat="44.2769533" lon="8.1968117"><ele>686.25</ele><time>2026-05-01T14:00:54.351Z</time></trkpt><trkpt lat="44.2768283" lon="8.196765"><ele>684.0</ele><time>2026-05-01T14:00:55.35Z</time></trkpt><trkpt lat="44.2767167" lon="8.1967383"><ele>684.0</ele><time>2026-05-01T14:00:56.351Z</time></trkpt><trkpt lat="44.2766133" lon="8.1967467"><ele>684.0</ele><time>2026-05-01T14:00:57.351Z</time></trkpt><trkpt lat="44.2765317" lon="8.1967817"><ele>684.0</ele><time>2026-05-01T14:00:58.355Z</time></trkpt><trkpt lat="44.27646" lon="8.1968383"><ele>684.0</ele><time>2026-05-01T14:00:59.351Z</time></trkpt><trkpt lat="44.2764033" lon="8.1969033"><ele>684.0</ele><time>2026-05-01T14:01:00.354Z</time></trkpt><trkpt lat="44.2763383" lon="8.1970283"><ele>685.0</ele><time>2026-05-01T14:01:02.353Z</time></trkpt><trkpt lat="44.27634" lon="8.1971517"><ele>686.0</ele><time>2026-05-01T14:01:04.349Z</time></trkpt><trkpt lat="44.2763933" lon="8.197265"><ele>687.0</ele><time>2026-05-01T14:01:06.353Z</time></trkpt><trkpt lat="44.2764617" lon="8.197405"><ele>688.0</ele><time>2026-05-01T14:01:08.353Z</time></trkpt><trkpt lat="44.2765067" lon="8.1974833"><ele>689.0</ele><time>2026-05-01T14:01:09.352Z</time></trkpt><trkpt lat="44.2765567" lon="8.1975533"><ele>690.0</ele><time>2026-05-01T14:01:10.353Z</time></trkpt><trkpt lat="44.2766033" lon="8.1976133"><ele>687.0</ele><time>2026-05-01T14:01:11.35Z</time></trkpt><trkpt lat="44.2766917" lon="8.1976867"><ele>684.0</ele><time>2026-05-01T14:01:13.35Z</time></trkpt><trkpt lat="44.27677" lon="8.197685"><ele>681.0</ele><time>2026-05-01T14:01:15.353Z</time></trkpt><trkpt lat="44.2768683" lon="8.1976317"><ele>678.0</ele><time>2026-05-01T14:01:17.351Z</time></trkpt><trkpt lat="44.2769767" lon="8.1976283"><ele>675.0</ele><time>2026-05-01T14:01:19.351Z</time></trkpt><trkpt lat="44.2770317" lon="8.197695"><ele>675.0</ele><time>2026-05-01T14:01:20.351Z</time></trkpt><trkpt lat="44.27708" lon="8.1977783"><ele>675.0</ele><time>2026-05-01T14:01:21.357Z</time></trkpt><trkpt lat="44.2771283" lon="8.197895"><ele>675.0</ele><time>2026-05-01T14:01:22.353Z</time></trkpt><trkpt lat="44.2771867" lon="8.1980283"><ele>675.0</ele><time>2026-05-01T14:01:23.352Z</time></trkpt><trkpt lat="44.27724" lon="8.1981667"><ele>675.0</ele><time>2026-05-01T14:01:24.357Z</time></trkpt><trkpt lat="44.277305" lon="8.19829"><ele>677.75</ele><time>2026-05-01T14:01:25.352Z</time></trkpt><trkpt lat="44.2773933" lon="8.1983917"><ele>680.5</ele><time>2026-05-01T14:01:26.354Z</time></trkpt><trkpt lat="44.2774883" lon="8.1984517"><ele>683.25</ele><time>2026-05-01T14:01:27.351Z</time></trkpt><trkpt lat="44.2776033" lon="8.19849"><ele>686.0</ele><time>2026-05-01T14:01:28.352Z</time></trkpt><trkpt lat="44.27773" lon="8.198495"><ele>686.0</ele><time>2026-05-01T14:01:29.35Z</time></trkpt><trkpt lat="44.2778633" lon="8.1984933"><ele>686.0</ele><time>2026-05-01T14:01:30.354Z</time></trkpt><trkpt lat="44.2779967" lon="8.1984767"><ele>686.0</ele><time>2026-05-01T14:01:31.352Z</time></trkpt><trkpt lat="44.278125" lon="8.1984667"><ele>686.0</ele><time>2026-05-01T14:01:32.353Z</time></trkpt><trkpt lat="44.2782417" lon="8.1984783"><ele>685.0</ele><time>2026-05-01T14:01:33.354Z</time></trkpt><trkpt lat="44.278345" lon="8.198505"><ele>684.0</ele><time>2026-05-01T14:01:34.35Z</time></trkpt><trkpt lat="44.278445" lon="8.198565"><ele>683.0</ele><time>2026-05-01T14:01:35.352Z</time></trkpt><trkpt lat="44.2785267" lon="8.198635"><ele>682.0</ele><time>2026-05-01T14:01:36.353Z</time></trkpt><trkpt lat="44.2785817" lon="8.1987333"><ele>681.0</ele><time>2026-05-01T14:01:37.354Z</time></trkpt><trkpt lat="44.27862" lon="8.198855"><ele>687.75</ele><time>2026-05-01T14:01:38.352Z</time></trkpt><trkpt lat="44.278655" lon="8.1990017"><ele>694.5</ele><time>2026-05-01T14:01:39.353Z</time></trkpt><trkpt lat="44.27867" lon="8.199165"><ele>701.25</ele><time>2026-05-01T14:01:40.353Z</time></trkpt><trkpt lat="44.2786583" lon="8.1993433"><ele>708.0</ele><time>2026-05-01T14:01:41.353Z</time></trkpt><trkpt lat="44.2786433" lon="8.19953"><ele>708.0</ele><time>2026-05-01T14:01:42.354Z</time></trkpt><trkpt lat="44.278625" lon="8.199715"><ele>708.0</ele><time>2026-05-01T14:01:43.353Z</time></trkpt><trkpt lat="44.278595" lon="8.19989"><ele>708.0</ele><time>2026-05-01T14:01:44.352Z</time></trkpt><trkpt lat="44.27855" lon="8.2000567"><ele>708.0</ele><time>2026-05-01T14:01:45.351Z</time></trkpt><trkpt lat="44.2784967" lon="8.2002233"><ele>708.5</ele><time>2026-05-01T14:01:46.351Z</time></trkpt><trkpt lat="44.27844" lon="8.2003867"><ele>709.0</ele><time>2026-05-01T14:01:47.355Z</time></trkpt><trkpt lat="44.2783783" lon="8.2005333"><ele>709.5</ele><time>2026-05-01T14:01:48.35Z</time></trkpt><trkpt lat="44.27829" lon="8.2006617"><ele>710.0</ele><time>2026-05-01T14:01:49.355Z</time></trkpt><trkpt lat="44.27817" lon="8.2007833"><ele>719.6666666666666</ele><time>2026-05-01T14:01:50.352Z</time></trkpt><trkpt lat="44.278065" lon="8.2009267"><ele>729.3333333333334</ele><time>2026-05-01T14:01:51.35Z</time></trkpt><trkpt lat="44.2779783" lon="8.2011033"><ele>739.0</ele><time>2026-05-01T14:01:52.349Z</time></trkpt><trkpt lat="44.27792" lon="8.2013067"><ele>737.0</ele><time>2026-05-01T14:01:53.349Z</time></trkpt><trkpt lat="44.277865" lon="8.20154"><ele>735.0</ele><time>2026-05-01T14:01:54.35Z</time></trkpt><trkpt lat="44.2778217" lon="8.20177"><ele>733.0</ele><time>2026-05-01T14:01:55.352Z</time></trkpt><trkpt lat="44.27778" lon="8.202"><ele>733.0</ele><time>2026-05-01T14:01:56.348Z</time></trkpt><trkpt lat="44.2777467" lon="8.2022067"><ele>733.0</ele><time>2026-05-01T14:01:57.353Z</time></trkpt><trkpt lat="44.2776917" lon="8.202385"><ele>733.0</ele><time>2026-05-01T14:01:58.352Z</time></trkpt><trkpt lat="44.2776133" lon="8.2025317"><ele>733.0</ele><time>2026-05-01T14:01:59.355Z</time></trkpt><trkpt lat="44.2775067" lon="8.2026467"><ele>731.0</ele><time>2026-05-01T14:02:00.351Z</time></trkpt><trkpt lat="44.2773817" lon="8.2027383"><ele>729.0</ele><time>2026-05-01T14:02:01.352Z</time></trkpt><trkpt lat="44.2772533" lon="8.20281"><ele>727.0</ele><time>2026-05-01T14:02:02.352Z</time></trkpt><trkpt lat="44.2771017" lon="8.2028633"><ele>725.0</ele><time>2026-05-01T14:02:03.353Z</time></trkpt><trkpt lat="44.2769533" lon="8.202905"><ele>725.5</ele><time>2026-05-01T14:02:04.354Z</time></trkpt><trkpt lat="44.276805" lon="8.2029617"><ele>726.0</ele><time>2026-05-01T14:02:05.35Z</time></trkpt><trkpt lat="44.2766833" lon="8.2030467"><ele>726.5</ele><time>2026-05-01T14:02:06.355Z</time></trkpt><trkpt lat="44.2765817" lon="8.2031683"><ele>727.0</ele><time>2026-05-01T14:02:07.353Z</time></trkpt><trkpt lat="44.2764783" lon="8.2033033"><ele>731.25</ele><time>2026-05-01T14:02:08.352Z</time></trkpt><trkpt lat="44.2763583" lon="8.20343"><ele>735.5</ele><time>2026-05-01T14:02:09.35Z</time></trkpt><trkpt lat="44.276235" lon="8.2035467"><ele>739.75</ele><time>2026-05-01T14:02:10.354Z</time></trkpt><trkpt lat="44.2761133" lon="8.203655"><ele>744.0</ele><time>2026-05-01T14:02:11.352Z</time></trkpt><trkpt lat="44.2760117" lon="8.203735"><ele>744.0</ele><time>2026-05-01T14:02:12.351Z</time></trkpt><trkpt lat="44.275925" lon="8.2037767"><ele>744.0</ele><time>2026-05-01T14:02:13.351Z</time></trkpt><trkpt lat="44.275855" lon="8.20379"><ele>744.0</ele><time>2026-05-01T14:02:14.35Z</time></trkpt><trkpt lat="44.2758167" lon="8.203665"><ele>744.0</ele><time>2026-05-01T14:02:16.353Z</time></trkpt><trkpt lat="44.27586" lon="8.20358"><ele>744.0</ele><time>2026-05-01T14:02:17.356Z</time></trkpt><trkpt lat="44.275925" lon="8.2034917"><ele>744.0</ele><time>2026-05-01T14:02:18.351Z</time></trkpt><trkpt lat="44.2760167" lon="8.2033967"><ele>744.0</ele><time>2026-05-01T14:02:19.354Z</time></trkpt><trkpt lat="44.2761217" lon="8.20328"><ele>744.0</ele><time>2026-05-01T14:02:20.352Z</time></trkpt><trkpt lat="44.276225" lon="8.2031383"><ele>744.0</ele><time>2026-05-01T14:02:21.351Z</time></trkpt><trkpt lat="44.2763317" lon="8.2029767"><ele>744.0</ele><time>2026-05-01T14:02:22.354Z</time></trkpt><trkpt lat="44.276445" lon="8.2027983"><ele>743.3333333333334</ele><time>2026-05-01T14:02:23.357Z</time></trkpt><trkpt lat="44.2765667" lon="8.2026117"><ele>742.6666666666667</ele><time>2026-05-01T14:02:24.36Z</time></trkpt><trkpt lat="44.276685" lon="8.2024317"><ele>742.0</ele><time>2026-05-01T14:02:25.352Z</time></trkpt><trkpt lat="44.2768017" lon="8.20226"><ele>744.8</ele><time>2026-05-01T14:02:26.351Z</time></trkpt><trkpt lat="44.2769067" lon="8.20211"><ele>747.6</ele><time>2026-05-01T14:02:27.352Z</time></trkpt><trkpt lat="44.2769883" lon="8.2019833"><ele>750.4</ele><time>2026-05-01T14:02:28.359Z</time></trkpt><trkpt lat="44.2770433" lon="8.20187"><ele>753.1999999999999</ele><time>2026-05-01T14:02:29.352Z</time></trkpt><trkpt lat="44.2770617" lon="8.2017633"><ele>756.0</ele><time>2026-05-01T14:02:30.354Z</time></trkpt><trkpt lat="44.277035" lon="8.201665"><ele>756.0</ele><time>2026-05-01T14:02:31.351Z</time></trkpt><trkpt lat="44.2769733" lon="8.20161"><ele>756.0</ele><time>2026-05-01T14:02:32.354Z</time></trkpt><trkpt lat="44.2769" lon="8.2015933"><ele>756.0</ele><time>2026-05-01T14:02:33.351Z</time></trkpt><trkpt lat="44.2768017" lon="8.2016817"><ele>756.0</ele><time>2026-05-01T14:02:34.353Z</time></trkpt><trkpt lat="44.2766933" lon="8.2017783"><ele>756.0</ele><time>2026-05-01T14:02:35.353Z</time></trkpt><trkpt lat="44.2765767" lon="8.201855"><ele>756.0</ele><time>2026-05-01T14:02:36.35Z</time></trkpt><trkpt lat="44.27644" lon="8.2019067"><ele>756.0</ele><time>2026-05-01T14:02:37.354Z</time></trkpt><trkpt lat="44.2762967" lon="8.2019567"><ele>756.0</ele><time>2026-05-01T14:02:38.359Z</time></trkpt><trkpt lat="44.2761467" lon="8.2020317"><ele>756.0</ele><time>2026-05-01T14:02:39.356Z</time></trkpt><trkpt lat="44.2759983" lon="8.202115"><ele>759.6666666666666</ele><time>2026-05-01T14:02:40.35Z</time></trkpt><trkpt lat="44.27584" lon="8.2022133"><ele>763.3333333333333</ele><time>2026-05-01T14:02:41.354Z</time></trkpt><trkpt lat="44.2756983" lon="8.20232"><ele>767.0</ele><time>2026-05-01T14:02:42.354Z</time></trkpt><trkpt lat="44.275575" lon="8.2024417"><ele>767.0</ele><time>2026-05-01T14:02:43.348Z</time></trkpt><trkpt lat="44.2754633" lon="8.2025483"><ele>767.0</ele><time>2026-05-01T14:02:44.349Z</time></trkpt><trkpt lat="44.2753433" lon="8.2026267"><ele>767.0</ele><time>2026-05-01T14:02:45.351Z</time></trkpt><trkpt lat="44.2752167" lon="8.2026517"><ele>767.0</ele><time>2026-05-01T14:02:46.352Z</time></trkpt><trkpt lat="44.2750883" lon="8.2026367"><ele>767.0</ele><time>2026-05-01T14:02:47.35Z</time></trkpt><trkpt lat="44.27497" lon="8.2025783"><ele>767.0</ele><time>2026-05-01T14:02:48.352Z</time></trkpt><trkpt lat="44.27485" lon="8.2025317"><ele>767.0</ele><time>2026-05-01T14:02:49.351Z</time></trkpt><trkpt lat="44.2747233" lon="8.2025283"><ele>767.0</ele><time>2026-05-01T14:02:50.353Z</time></trkpt><trkpt lat="44.2745917" lon="8.2025633"><ele>770.0</ele><time>2026-05-01T14:02:51.354Z</time></trkpt><trkpt lat="44.2744567" lon="8.2026183"><ele>773.0</ele><time>2026-05-01T14:02:52.354Z</time></trkpt><trkpt lat="44.27432" lon="8.2027017"><ele>776.0</ele><time>2026-05-01T14:02:53.351Z</time></trkpt><trkpt lat="44.2741867" lon="8.2028167"><ele>779.0</ele><time>2026-05-01T14:02:54.351Z</time></trkpt><trkpt lat="44.2740583" lon="8.2029517"><ele>782.6666666666667</ele><time>2026-05-01T14:02:55.356Z</time></trkpt><trkpt lat="44.2739333" lon="8.2030917"><ele>786.3333333333333</ele><time>2026-05-01T14:02:56.351Z</time></trkpt><trkpt lat="44.2738133" lon="8.2032317"><ele>790.0</ele><time>2026-05-01T14:02:57.355Z</time></trkpt><trkpt lat="44.2736833" lon="8.2033533"><ele>790.0</ele><time>2026-05-01T14:02:58.354Z</time></trkpt><trkpt lat="44.27354" lon="8.203455"><ele>790.0</ele><time>2026-05-01T14:02:59.353Z</time></trkpt><trkpt lat="44.2734033" lon="8.2035433"><ele>790.0</ele><time>2026-05-01T14:03:00.354Z</time></trkpt><trkpt lat="44.2732833" lon="8.2036367"><ele>790.0</ele><time>2026-05-01T14:03:01.351Z</time></trkpt><trkpt lat="44.2731817" lon="8.203735"><ele>790.0</ele><time>2026-05-01T14:03:02.353Z</time></trkpt><trkpt lat="44.27308" lon="8.203825"><ele>790.0</ele><time>2026-05-01T14:03:03.353Z</time></trkpt><trkpt lat="44.272965" lon="8.2038867"><ele>790.0</ele><time>2026-05-01T14:03:04.357Z</time></trkpt><trkpt lat="44.2728567" lon="8.2039583"><ele>790.0</ele><time>2026-05-01T14:03:05.354Z</time></trkpt><trkpt lat="44.2727617" lon="8.204015"><ele>789.9999999999999</ele><time>2026-05-01T14:03:06.355Z</time></trkpt><trkpt lat="44.2726867" lon="8.204055"><ele>790.0</ele><time>2026-05-01T14:03:07.358Z</time></trkpt><trkpt lat="44.2725867" lon="8.204045"><ele>790.0</ele><time>2026-05-01T14:03:09.352Z</time></trkpt><trkpt lat="44.2726267" lon="8.2039617"><ele>790.0</ele><time>2026-05-01T14:03:10.351Z</time></trkpt><trkpt lat="44.2727017" lon="8.2038567"><ele>789.9999999999999</ele><time>2026-05-01T14:03:12.352Z</time></trkpt><trkpt lat="44.27276" lon="8.2037967"><ele>790.0</ele><time>2026-05-01T14:03:13.353Z</time></trkpt><trkpt lat="44.27286" lon="8.2037183"><ele>792.4999999999999</ele><time>2026-05-01T14:03:14.357Z</time></trkpt><trkpt lat="44.27294" lon="8.2036517"><ele>795.0</ele><time>2026-05-01T14:03:15.357Z</time></trkpt><trkpt lat="44.2729983" lon="8.203585"><ele>797.5</ele><time>2026-05-01T14:03:16.35Z</time></trkpt><trkpt lat="44.27302" lon="8.2034983"><ele>800.0</ele><time>2026-05-01T14:03:17.352Z</time></trkpt><trkpt lat="44.2730033" lon="8.2033633"><ele>802.4999999999999</ele><time>2026-05-01T14:03:19.356Z</time></trkpt><trkpt lat="44.2729367" lon="8.2033667"><ele>805.0</ele><time>2026-05-01T14:03:20.354Z</time></trkpt><trkpt lat="44.2728333" lon="8.2033883"><ele>805.0</ele><time>2026-05-01T14:03:22.352Z</time></trkpt><trkpt lat="44.2727267" lon="8.2034467"><ele>805.0</ele><time>2026-05-01T14:03:23.352Z</time></trkpt><trkpt lat="44.2726" lon="8.2035233"><ele>805.0</ele><time>2026-05-01T14:03:24.354Z</time></trkpt><trkpt lat="44.2724617" lon="8.20361"><ele>805.0</ele><time>2026-05-01T14:03:25.353Z</time></trkpt><trkpt lat="44.2723267" lon="8.2037367"><ele>805.5</ele><time>2026-05-01T14:03:26.353Z</time></trkpt><trkpt lat="44.2722183" lon="8.2038633"><ele>806.0</ele><time>2026-05-01T14:03:27.352Z</time></trkpt><trkpt lat="44.272135" lon="8.2040017"><ele>806.5</ele><time>2026-05-01T14:03:28.353Z</time></trkpt><trkpt lat="44.2720567" lon="8.2041433"><ele>807.0</ele><time>2026-05-01T14:03:29.353Z</time></trkpt><trkpt lat="44.2719683" lon="8.2042667"><ele>807.0</ele><time>2026-05-01T14:03:30.35Z</time></trkpt><trkpt lat="44.2718683" lon="8.2043417"><ele>807.0</ele><time>2026-05-01T14:03:31.352Z</time></trkpt><trkpt lat="44.2717517" lon="8.2043917"><ele>807.0</ele><time>2026-05-01T14:03:32.353Z</time></trkpt><trkpt lat="44.27162" lon="8.2044283"><ele>807.0</ele><time>2026-05-01T14:03:33.351Z</time></trkpt><trkpt lat="44.2714767" lon="8.2044767"><ele>812.25</ele><time>2026-05-01T14:03:34.351Z</time></trkpt><trkpt lat="44.271345" lon="8.2045183"><ele>817.5</ele><time>2026-05-01T14:03:35.351Z</time></trkpt><trkpt lat="44.2712317" lon="8.204555"><ele>822.75</ele><time>2026-05-01T14:03:36.352Z</time></trkpt><trkpt lat="44.2711217" lon="8.2046133"><ele>828.0</ele><time>2026-05-01T14:03:37.355Z</time></trkpt><trkpt lat="44.2710267" lon="8.204695"><ele>828.0</ele><time>2026-05-01T14:03:38.352Z</time></trkpt><trkpt lat="44.270935" lon="8.204795"><ele>828.0</ele><time>2026-05-01T14:03:39.353Z</time></trkpt><trkpt lat="44.2708467" lon="8.2049183"><ele>828.0</ele><time>2026-05-01T14:03:40.35Z</time></trkpt><trkpt lat="44.2707733" lon="8.2050683"><ele>828.0</ele><time>2026-05-01T14:03:41.351Z</time></trkpt><trkpt lat="44.2707083" lon="8.2052433"><ele>832.0</ele><time>2026-05-01T14:03:42.353Z</time></trkpt><trkpt lat="44.2706533" lon="8.2054517"><ele>836.0</ele><time>2026-05-01T14:03:43.353Z</time></trkpt><trkpt lat="44.2705917" lon="8.2056867"><ele>840.0</ele><time>2026-05-01T14:03:44.355Z</time></trkpt><trkpt lat="44.2705283" lon="8.20593"><ele>840.0</ele><time>2026-05-01T14:03:45.352Z</time></trkpt><trkpt lat="44.2704633" lon="8.2061733"><ele>840.0</ele><time>2026-05-01T14:03:46.349Z</time></trkpt><trkpt lat="44.270395" lon="8.2064367"><ele>840.0</ele><time>2026-05-01T14:03:47.351Z</time></trkpt><trkpt lat="44.27033" lon="8.206705"><ele>838.3333333333333</ele><time>2026-05-01T14:03:48.352Z</time></trkpt><trkpt lat="44.2702667" lon="8.2069817"><ele>836.6666666666666</ele><time>2026-05-01T14:03:49.353Z</time></trkpt><trkpt lat="44.270215" lon="8.207255"><ele>835.0</ele><time>2026-05-01T14:03:50.353Z</time></trkpt><trkpt lat="44.2701717" lon="8.2075133"><ele>832.3333333333333</ele><time>2026-05-01T14:03:51.354Z</time></trkpt><trkpt lat="44.2701317" lon="8.2077567"><ele>829.6666666666667</ele><time>2026-05-01T14:03:52.353Z</time></trkpt><trkpt lat="44.2700817" lon="8.2079933"><ele>827.0</ele><time>2026-05-01T14:03:53.349Z</time></trkpt><trkpt lat="44.2700117" lon="8.2081967"><ele>825.0</ele><time>2026-05-01T14:03:54.354Z</time></trkpt><trkpt lat="44.2699283" lon="8.2083817"><ele>823.0</ele><time>2026-05-01T14:03:55.354Z</time></trkpt><trkpt lat="44.2698433" lon="8.2085217"><ele>821.0</ele><time>2026-05-01T14:03:56.356Z</time></trkpt><trkpt lat="44.2697967" lon="8.2086667"><ele>819.0</ele><time>2026-05-01T14:03:57.351Z</time></trkpt><trkpt lat="44.2697867" lon="8.208825"><ele>817.3333333333333</ele><time>2026-05-01T14:03:58.351Z</time></trkpt><trkpt lat="44.2698217" lon="8.2090083"><ele>815.6666666666666</ele><time>2026-05-01T14:03:59.35Z</time></trkpt><trkpt lat="44.269875" lon="8.2092083"><ele>814.0</ele><time>2026-05-01T14:04:00.35Z</time></trkpt><trkpt lat="44.26993" lon="8.2094233"><ele>814.0</ele><time>2026-05-01T14:04:01.355Z</time></trkpt><trkpt lat="44.26998" lon="8.20964"><ele>814.0</ele><time>2026-05-01T14:04:02.349Z</time></trkpt><trkpt lat="44.2700283" lon="8.2098317"><ele>814.0</ele><time>2026-05-01T14:04:03.351Z</time></trkpt><trkpt lat="44.2700733" lon="8.209985"><ele>814.0</ele><time>2026-05-01T14:04:04.35Z</time></trkpt><trkpt lat="44.270125" lon="8.2101"><ele>814.6</ele><time>2026-05-01T14:04:05.352Z</time></trkpt><trkpt lat="44.2701917" lon="8.21017"><ele>815.2</ele><time>2026-05-01T14:04:06.353Z</time></trkpt><trkpt lat="44.2702867" lon="8.2102083"><ele>815.8000000000001</ele><time>2026-05-01T14:04:07.353Z</time></trkpt><trkpt lat="44.2703867" lon="8.2102433"><ele>816.4000000000001</ele><time>2026-05-01T14:04:08.352Z</time></trkpt><trkpt lat="44.2704917" lon="8.2102967"><ele>817.0</ele><time>2026-05-01T14:04:09.353Z</time></trkpt><trkpt lat="44.270585" lon="8.2103867"><ele>813.75</ele><time>2026-05-01T14:04:10.353Z</time></trkpt><trkpt lat="44.270665" lon="8.2105033"><ele>810.5</ele><time>2026-05-01T14:04:11.353Z</time></trkpt><trkpt lat="44.2707367" lon="8.2106483"><ele>807.25</ele><time>2026-05-01T14:04:12.35Z</time></trkpt><trkpt lat="44.2708" lon="8.2107983"><ele>804.0</ele><time>2026-05-01T14:04:13.354Z</time></trkpt><trkpt lat="44.2708533" lon="8.2109333"><ele>804.0</ele><time>2026-05-01T14:04:14.35Z</time></trkpt><trkpt lat="44.2708983" lon="8.211055"><ele>804.0</ele><time>2026-05-01T14:04:15.348Z</time></trkpt><trkpt lat="44.2709333" lon="8.2111633"><ele>804.0</ele><time>2026-05-01T14:04:16.352Z</time></trkpt><trkpt lat="44.2709567" lon="8.211255"><ele>804.0</ele><time>2026-05-01T14:04:17.35Z</time></trkpt><trkpt lat="44.2709683" lon="8.2113417"><ele>804.0</ele><time>2026-05-01T14:04:18.35Z</time></trkpt><trkpt lat="44.2709667" lon="8.2114317"><ele>804.0</ele><time>2026-05-01T14:04:19.354Z</time></trkpt><trkpt lat="44.2709533" lon="8.2115283"><ele>804.4000000000001</ele><time>2026-05-01T14:04:20.351Z</time></trkpt><trkpt lat="44.2709183" lon="8.2116233"><ele>804.8</ele><time>2026-05-01T14:04:21.348Z</time></trkpt><trkpt lat="44.2708617" lon="8.211715"><ele>805.2</ele><time>2026-05-01T14:04:22.35Z</time></trkpt><trkpt lat="44.27077" lon="8.2117917"><ele>805.5999999999999</ele><time>2026-05-01T14:04:23.352Z</time></trkpt><trkpt lat="44.2706767" lon="8.2118683"><ele>806.0</ele><time>2026-05-01T14:04:24.35Z</time></trkpt><trkpt lat="44.270545" lon="8.21194"><ele>812.0</ele><time>2026-05-01T14:04:25.35Z</time></trkpt><trkpt lat="44.270395" lon="8.2120133"><ele>818.0</ele><time>2026-05-01T14:04:26.35Z</time></trkpt><trkpt lat="44.270215" lon="8.212085"><ele>824.0</ele><time>2026-05-01T14:04:27.353Z</time></trkpt><trkpt lat="44.270035" lon="8.2121467"><ele>824.0</ele><time>2026-05-01T14:04:28.356Z</time></trkpt><trkpt lat="44.2698383" lon="8.2121983"><ele>824.0</ele><time>2026-05-01T14:04:29.349Z</time></trkpt><trkpt lat="44.2696583" lon="8.212235"><ele>824.0</ele><time>2026-05-01T14:04:30.35Z</time></trkpt><trkpt lat="44.2695067" lon="8.2122617"><ele>827.5</ele><time>2026-05-01T14:04:31.351Z</time></trkpt><trkpt lat="44.2693683" lon="8.2122567"><ele>831.0</ele><time>2026-05-01T14:04:32.353Z</time></trkpt><trkpt lat="44.2692367" lon="8.21221"><ele>834.5</ele><time>2026-05-01T14:04:33.354Z</time></trkpt><trkpt lat="44.2691033" lon="8.21215"><ele>838.0</ele><time>2026-05-01T14:04:34.35Z</time></trkpt><trkpt lat="44.268965" lon="8.21212"><ele>840.75</ele><time>2026-05-01T14:04:35.349Z</time></trkpt><trkpt lat="44.2688283" lon="8.2121333"><ele>843.5</ele><time>2026-05-01T14:04:36.356Z</time></trkpt><trkpt lat="44.26869" lon="8.2122233"><ele>846.25</ele><time>2026-05-01T14:04:37.352Z</time></trkpt><trkpt lat="44.2685583" lon="8.21233"><ele>849.0</ele><time>2026-05-01T14:04:38.353Z</time></trkpt><trkpt lat="44.26842" lon="8.2124367"><ele>844.5</ele><time>2026-05-01T14:04:39.351Z</time></trkpt><trkpt lat="44.26828" lon="8.21251"><ele>840.0</ele><time>2026-05-01T14:04:40.352Z</time></trkpt><trkpt lat="44.2681333" lon="8.21254"><ele>835.5</ele><time>2026-05-01T14:04:41.353Z</time></trkpt><trkpt lat="44.2679917" lon="8.2125183"><ele>831.0</ele><time>2026-05-01T14:04:42.35Z</time></trkpt><trkpt lat="44.2678417" lon="8.212455"><ele>831.0</ele><time>2026-05-01T14:04:43.349Z</time></trkpt><trkpt lat="44.2676917" lon="8.2123733"><ele>831.0</ele><time>2026-05-01T14:04:44.353Z</time></trkpt><trkpt lat="44.2675317" lon="8.2122767"><ele>831.0</ele><time>2026-05-01T14:04:45.355Z</time></trkpt><trkpt lat="44.2673667" lon="8.21218"><ele>835.0</ele><time>2026-05-01T14:04:46.352Z</time></trkpt><trkpt lat="44.2671983" lon="8.2120783"><ele>839.0</ele><time>2026-05-01T14:04:47.354Z</time></trkpt><trkpt lat="44.26703" lon="8.21198"><ele>843.0</ele><time>2026-05-01T14:04:48.353Z</time></trkpt><trkpt lat="44.2668667" lon="8.2118817"><ele>843.0</ele><time>2026-05-01T14:04:49.352Z</time></trkpt><trkpt lat="44.2667133" lon="8.2118017"><ele>843.0</ele><time>2026-05-01T14:04:50.356Z</time></trkpt><trkpt lat="44.2665767" lon="8.2117217"><ele>843.0</ele><time>2026-05-01T14:04:51.352Z</time></trkpt><trkpt lat="44.2664633" lon="8.211635"><ele>843.0</ele><time>2026-05-01T14:04:52.35Z</time></trkpt><trkpt lat="44.26637" lon="8.2115233"><ele>847.5</ele><time>2026-05-01T14:04:53.351Z</time></trkpt><trkpt lat="44.266295" lon="8.2113833"><ele>852.0</ele><time>2026-05-01T14:04:54.353Z</time></trkpt><trkpt lat="44.2662267" lon="8.2112417"><ele>856.5</ele><time>2026-05-01T14:04:55.353Z</time></trkpt><trkpt lat="44.2661517" lon="8.211125"><ele>861.0</ele><time>2026-05-01T14:04:56.359Z</time></trkpt><trkpt lat="44.2660733" lon="8.2110483"><ele>861.0</ele><time>2026-05-01T14:04:57.352Z</time></trkpt><trkpt lat="44.2659983" lon="8.211"><ele>860.9999999999999</ele><time>2026-05-01T14:04:58.355Z</time></trkpt><trkpt lat="44.2659117" lon="8.2110717"><ele>860.9999999999999</ele><time>2026-05-01T14:04:59.352Z</time></trkpt><trkpt lat="44.265835" lon="8.211155"><ele>861.0</ele><time>2026-05-01T14:05:00.349Z</time></trkpt><trkpt lat="44.2657517" lon="8.2113083"><ele>861.0</ele><time>2026-05-01T14:05:01.354Z</time></trkpt><trkpt lat="44.2656717" lon="8.2114717"><ele>863.25</ele><time>2026-05-01T14:05:02.35Z</time></trkpt><trkpt lat="44.2655983" lon="8.211655"><ele>865.5</ele><time>2026-05-01T14:05:03.35Z</time></trkpt><trkpt lat="44.2655283" lon="8.211835"><ele>867.75</ele><time>2026-05-01T14:05:04.349Z</time></trkpt><trkpt lat="44.2654583" lon="8.212005"><ele>870.0</ele><time>2026-05-01T14:05:05.352Z</time></trkpt><trkpt lat="44.2653733" lon="8.2121233"><ele>870.0</ele><time>2026-05-01T14:05:06.351Z</time></trkpt><trkpt lat="44.2652633" lon="8.2122"><ele>870.0</ele><time>2026-05-01T14:05:07.353Z</time></trkpt><trkpt lat="44.2651383" lon="8.2122317"><ele>870.0</ele><time>2026-05-01T14:05:08.351Z</time></trkpt><trkpt lat="44.2649933" lon="8.212235"><ele>870.0</ele><time>2026-05-01T14:05:09.349Z</time></trkpt><trkpt lat="44.26484" lon="8.212235"><ele>873.3333333333333</ele><time>2026-05-01T14:05:10.353Z</time></trkpt><trkpt lat="44.2646817" lon="8.21223"><ele>876.6666666666666</ele><time>2026-05-01T14:05:11.355Z</time></trkpt><trkpt lat="44.26453" lon="8.2122183"><ele>880.0</ele><time>2026-05-01T14:05:12.355Z</time></trkpt><trkpt lat="44.26439" lon="8.2121833"><ele>880.0</ele><time>2026-05-01T14:05:13.352Z</time></trkpt><trkpt lat="44.2642667" lon="8.2121167"><ele>880.0</ele><time>2026-05-01T14:05:14.354Z</time></trkpt><trkpt lat="44.264155" lon="8.2120233"><ele>880.0</ele><time>2026-05-01T14:05:15.353Z</time></trkpt><trkpt lat="44.2640517" lon="8.2119117"><ele>880.0</ele><time>2026-05-01T14:05:16.348Z</time></trkpt><trkpt lat="44.2639517" lon="8.2118117"><ele>882.75</ele><time>2026-05-01T14:05:17.355Z</time></trkpt><trkpt lat="44.26385" lon="8.2117533"><ele>885.5</ele><time>2026-05-01T14:05:18.352Z</time></trkpt><trkpt lat="44.2637483" lon="8.21175"><ele>888.25</ele><time>2026-05-01T14:05:19.362Z</time></trkpt><trkpt lat="44.2636467" lon="8.21181"><ele>891.0</ele><time>2026-05-01T14:05:20.353Z</time></trkpt><trkpt lat="44.2635467" lon="8.2119233"><ele>891.0</ele><time>2026-05-01T14:05:21.355Z</time></trkpt><trkpt lat="44.2634483" lon="8.212075"><ele>891.0</ele><time>2026-05-01T14:05:22.354Z</time></trkpt><trkpt lat="44.263355" lon="8.21225"><ele>891.0</ele><time>2026-05-01T14:05:23.352Z</time></trkpt><trkpt lat="44.26326" lon="8.2124433"><ele>893.0</ele><time>2026-05-01T14:05:24.354Z</time></trkpt><trkpt lat="44.26317" lon="8.2126483"><ele>895.0</ele><time>2026-05-01T14:05:25.352Z</time></trkpt><trkpt lat="44.2630817" lon="8.2128333"><ele>897.0</ele><time>2026-05-01T14:05:26.354Z</time></trkpt><trkpt lat="44.2629917" lon="8.2129767"><ele>897.0</ele><time>2026-05-01T14:05:27.354Z</time></trkpt><trkpt lat="44.262895" lon="8.2130583"><ele>897.0</ele><time>2026-05-01T14:05:28.356Z</time></trkpt><trkpt lat="44.2627867" lon="8.2130783"><ele>897.0</ele><time>2026-05-01T14:05:29.351Z</time></trkpt><trkpt lat="44.2626683" lon="8.21304"><ele>897.0</ele><time>2026-05-01T14:05:30.362Z</time></trkpt><trkpt lat="44.262535" lon="8.21298"><ele>897.0</ele><time>2026-05-01T14:05:31.353Z</time></trkpt><trkpt lat="44.26239" lon="8.2129083"><ele>897.0</ele><time>2026-05-01T14:05:32.352Z</time></trkpt><trkpt lat="44.2622233" lon="8.2128217"><ele>897.0</ele><time>2026-05-01T14:05:33.352Z</time></trkpt><trkpt lat="44.262055" lon="8.2127283"><ele>899.0</ele><time>2026-05-01T14:05:34.354Z</time></trkpt><trkpt lat="44.26189" lon="8.2126483"><ele>901.0</ele><time>2026-05-01T14:05:35.359Z</time></trkpt><trkpt lat="44.2617283" lon="8.2125933"><ele>903.0</ele><time>2026-05-01T14:05:36.352Z</time></trkpt><trkpt lat="44.26156" lon="8.2125733"><ele>906.6666666666667</ele><time>2026-05-01T14:05:37.353Z</time></trkpt><trkpt lat="44.26139" lon="8.2125967"><ele>910.3333333333334</ele><time>2026-05-01T14:05:38.351Z</time></trkpt><trkpt lat="44.2612117" lon="8.2126417"><ele>914.0</ele><time>2026-05-01T14:05:39.351Z</time></trkpt><trkpt lat="44.261035" lon="8.2127033"><ele>914.0</ele><time>2026-05-01T14:05:40.352Z</time></trkpt><trkpt lat="44.260865" lon="8.2127767"><ele>914.0</ele><time>2026-05-01T14:05:41.347Z</time></trkpt><trkpt lat="44.2607117" lon="8.2128867"><ele>914.0</ele><time>2026-05-01T14:05:42.35Z</time></trkpt><trkpt lat="44.2605867" lon="8.21302"><ele>914.75</ele><time>2026-05-01T14:05:43.354Z</time></trkpt><trkpt lat="44.260475" lon="8.2131567"><ele>915.5</ele><time>2026-05-01T14:05:44.356Z</time></trkpt><trkpt lat="44.2603667" lon="8.2132767"><ele>916.25</ele><time>2026-05-01T14:05:45.354Z</time></trkpt><trkpt lat="44.2602517" lon="8.2133583"><ele>917.0</ele><time>2026-05-01T14:05:46.355Z</time></trkpt><trkpt lat="44.2601283" lon="8.2133917"><ele>917.0</ele><time>2026-05-01T14:05:47.351Z</time></trkpt><trkpt lat="44.260005" lon="8.2133867"><ele>917.0</ele><time>2026-05-01T14:05:48.351Z</time></trkpt><trkpt lat="44.25987" lon="8.2133483"><ele>917.0</ele><time>2026-05-01T14:05:49.351Z</time></trkpt><trkpt lat="44.2597267" lon="8.213295"><ele>917.0</ele><time>2026-05-01T14:05:50.353Z</time></trkpt><trkpt lat="44.2595683" lon="8.2132317"><ele>917.3333333333334</ele><time>2026-05-01T14:05:51.356Z</time></trkpt><trkpt lat="44.2594017" lon="8.21316"><ele>917.6666666666667</ele><time>2026-05-01T14:05:52.352Z</time></trkpt><trkpt lat="44.2592317" lon="8.2130983"><ele>918.0</ele><time>2026-05-01T14:05:53.352Z</time></trkpt><trkpt lat="44.2590517" lon="8.2130633"><ele>922.3333333333333</ele><time>2026-05-01T14:05:54.355Z</time></trkpt><trkpt lat="44.258865" lon="8.2130417"><ele>926.6666666666666</ele><time>2026-05-01T14:05:55.354Z</time></trkpt><trkpt lat="44.258675" lon="8.2130133"><ele>931.0</ele><time>2026-05-01T14:05:56.349Z</time></trkpt><trkpt lat="44.258485" lon="8.212965"><ele>931.0</ele><time>2026-05-01T14:05:57.351Z</time></trkpt><trkpt lat="44.258295" lon="8.2129"><ele>931.0</ele><time>2026-05-01T14:05:58.353Z</time></trkpt><trkpt lat="44.258115" lon="8.2128167"><ele>931.0</ele><time>2026-05-01T14:05:59.353Z</time></trkpt><trkpt lat="44.257955" lon="8.212715"><ele>929.25</ele><time>2026-05-01T14:06:00.358Z</time></trkpt><trkpt lat="44.2578217" lon="8.2126083"><ele>927.5</ele><time>2026-05-01T14:06:01.354Z</time></trkpt><trkpt lat="44.257725" lon="8.2125"><ele>925.75</ele><time>2026-05-01T14:06:02.351Z</time></trkpt><trkpt lat="44.2576683" lon="8.21238"><ele>924.0</ele><time>2026-05-01T14:06:03.353Z</time></trkpt><trkpt lat="44.2576583" lon="8.21224"><ele>924.0</ele><time>2026-05-01T14:06:04.355Z</time></trkpt><trkpt lat="44.2576933" lon="8.212085"><ele>924.0</ele><time>2026-05-01T14:06:05.35Z</time></trkpt><trkpt lat="44.257755" lon="8.2119233"><ele>924.0</ele><time>2026-05-01T14:06:06.355Z</time></trkpt><trkpt lat="44.257815" lon="8.2117517"><ele>924.0</ele><time>2026-05-01T14:06:07.362Z</time></trkpt><trkpt lat="44.2578433" lon="8.2115783"><ele>925.75</ele><time>2026-05-01T14:06:08.356Z</time></trkpt><trkpt lat="44.2578383" lon="8.2113933"><ele>927.5</ele><time>2026-05-01T14:06:09.355Z</time></trkpt><trkpt lat="44.2578017" lon="8.21119"><ele>929.25</ele><time>2026-05-01T14:06:10.353Z</time></trkpt><trkpt lat="44.2577483" lon="8.210975"><ele>931.0</ele><time>2026-05-01T14:06:11.356Z</time></trkpt><trkpt lat="44.25769" lon="8.210755"><ele>932.0</ele><time>2026-05-01T14:06:12.352Z</time></trkpt><trkpt lat="44.2576333" lon="8.210545"><ele>933.0</ele><time>2026-05-01T14:06:13.357Z</time></trkpt><trkpt lat="44.2575917" lon="8.2103467"><ele>934.0</ele><time>2026-05-01T14:06:14.351Z</time></trkpt><trkpt lat="44.2575767" lon="8.2101533"><ele>935.0</ele><time>2026-05-01T14:06:15.352Z</time></trkpt><trkpt lat="44.25759" lon="8.2099567"><ele>934.25</ele><time>2026-05-01T14:06:16.354Z</time></trkpt><trkpt lat="44.2576367" lon="8.209765"><ele>933.5</ele><time>2026-05-01T14:06:17.358Z</time></trkpt><trkpt lat="44.2577067" lon="8.209585"><ele>932.75</ele><time>2026-05-01T14:06:18.351Z</time></trkpt><trkpt lat="44.2577717" lon="8.2094217"><ele>932.0</ele><time>2026-05-01T14:06:19.351Z</time></trkpt><trkpt lat="44.2578067" lon="8.2092433"><ele>932.0</ele><time>2026-05-01T14:06:20.351Z</time></trkpt><trkpt lat="44.2578083" lon="8.2090433"><ele>932.0</ele><time>2026-05-01T14:06:21.355Z</time></trkpt><trkpt lat="44.257795" lon="8.2088317"><ele>932.0</ele><time>2026-05-01T14:06:22.355Z</time></trkpt><trkpt lat="44.2577583" lon="8.2086133"><ele>939.3333333333334</ele><time>2026-05-01T14:06:23.35Z</time></trkpt><trkpt lat="44.25769" lon="8.2084"><ele>946.6666666666667</ele><time>2026-05-01T14:06:24.353Z</time></trkpt><trkpt lat="44.2575967" lon="8.2082033"><ele>954.0</ele><time>2026-05-01T14:06:25.351Z</time></trkpt><trkpt lat="44.2574867" lon="8.2080267"><ele>960.0</ele><time>2026-05-01T14:06:26.352Z</time></trkpt><trkpt lat="44.2573817" lon="8.207885"><ele>966.0</ele><time>2026-05-01T14:06:27.35Z</time></trkpt><trkpt lat="44.2572767" lon="8.207785"><ele>972.0</ele><time>2026-05-01T14:06:28.351Z</time></trkpt><trkpt lat="44.2571683" lon="8.2077383"><ele>978.0</ele><time>2026-05-01T14:06:29.351Z</time></trkpt><trkpt lat="44.2570467" lon="8.2077567"><ele>979.6666666666667</ele><time>2026-05-01T14:06:30.354Z</time></trkpt><trkpt lat="44.256915" lon="8.2078167"><ele>981.3333333333334</ele><time>2026-05-01T14:06:31.352Z</time></trkpt><trkpt lat="44.2567667" lon="8.2078917"><ele>983.0</ele><time>2026-05-01T14:06:32.352Z</time></trkpt><trkpt lat="44.256595" lon="8.2079683"><ele>985.6666666666667</ele><time>2026-05-01T14:06:33.352Z</time></trkpt><trkpt lat="44.2564083" lon="8.2080433"><ele>988.3333333333333</ele><time>2026-05-01T14:06:34.354Z</time></trkpt><trkpt lat="44.2562267" lon="8.208125"><ele>991.0</ele><time>2026-05-01T14:06:35.352Z</time></trkpt><trkpt lat="44.2560483" lon="8.20822"><ele>981.0</ele><time>2026-05-01T14:06:36.352Z</time></trkpt><trkpt lat="44.2558867" lon="8.2083083"><ele>971.0</ele><time>2026-05-01T14:06:37.352Z</time></trkpt><trkpt lat="44.2557367" lon="8.2083767"><ele>961.0</ele><time>2026-05-01T14:06:38.352Z</time></trkpt><trkpt lat="44.2556017" lon="8.208405"><ele>959.4</ele><time>2026-05-01T14:06:39.353Z</time></trkpt><trkpt lat="44.2554783" lon="8.2084133"><ele>957.8</ele><time>2026-05-01T14:06:40.355Z</time></trkpt><trkpt lat="44.2553783" lon="8.208375"><ele>956.1999999999999</ele><time>2026-05-01T14:06:41.353Z</time></trkpt><trkpt lat="44.2553183" lon="8.208295"><ele>954.5999999999999</ele><time>2026-05-01T14:06:42.355Z</time></trkpt><trkpt lat="44.255275" lon="8.2081967"><ele>953.0</ele><time>2026-05-01T14:06:43.352Z</time></trkpt><trkpt lat="44.2552667" lon="8.2080817"><ele>957.5</ele><time>2026-05-01T14:06:44.352Z</time></trkpt><trkpt lat="44.255305" lon="8.2079183"><ele>962.0</ele><time>2026-05-01T14:06:45.352Z</time></trkpt><trkpt lat="44.2553083" lon="8.2077567"><ele>966.5</ele><time>2026-05-01T14:06:46.349Z</time></trkpt><trkpt lat="44.2552833" lon="8.2076067"><ele>971.0</ele><time>2026-05-01T14:06:47.352Z</time></trkpt><trkpt lat="44.2552167" lon="8.207485"><ele>971.0</ele><time>2026-05-01T14:06:48.354Z</time></trkpt><trkpt lat="44.2551167" lon="8.207415"><ele>971.0</ele><time>2026-05-01T14:06:49.354Z</time></trkpt><trkpt lat="44.255" lon="8.2073817"><ele>971.0</ele><time>2026-05-01T14:06:50.356Z</time></trkpt><trkpt lat="44.254885" lon="8.2073433"><ele>971.0</ele><time>2026-05-01T14:06:51.355Z</time></trkpt><trkpt lat="44.2547817" lon="8.2072733"><ele>973.5</ele><time>2026-05-01T14:06:52.349Z</time></trkpt><trkpt lat="44.254695" lon="8.2071617"><ele>976.0</ele><time>2026-05-01T14:06:53.35Z</time></trkpt><trkpt lat="44.2546233" lon="8.2070033"><ele>978.5</ele><time>2026-05-01T14:06:54.351Z</time></trkpt><trkpt lat="44.2545583" lon="8.20683"><ele>981.0</ele><time>2026-05-01T14:06:55.354Z</time></trkpt><trkpt lat="44.25449" lon="8.2066667"><ele>981.0</ele><time>2026-05-01T14:06:56.354Z</time></trkpt><trkpt lat="44.2544183" lon="8.20653"><ele>981.0</ele><time>2026-05-01T14:06:57.352Z</time></trkpt><trkpt lat="44.2543267" lon="8.20644"><ele>981.0</ele><time>2026-05-01T14:06:58.354Z</time></trkpt><trkpt lat="44.2542133" lon="8.2063983"><ele>981.0</ele><time>2026-05-01T14:06:59.354Z</time></trkpt><trkpt lat="44.25408" lon="8.206415"><ele>984.0</ele><time>2026-05-01T14:07:00.354Z</time></trkpt><trkpt lat="44.2539467" lon="8.2064667"><ele>987.0</ele><time>2026-05-01T14:07:01.352Z</time></trkpt><trkpt lat="44.25383" lon="8.20653"><ele>990.0</ele><time>2026-05-01T14:07:02.354Z</time></trkpt><trkpt lat="44.2537333" lon="8.2066033"><ele>993.0</ele><time>2026-05-01T14:07:03.354Z</time></trkpt><trkpt lat="44.2536433" lon="8.2066633"><ele>993.0</ele><time>2026-05-01T14:07:04.354Z</time></trkpt><trkpt lat="44.2535533" lon="8.206705"><ele>993.0</ele><time>2026-05-01T14:07:05.351Z</time></trkpt><trkpt lat="44.2534583" lon="8.2067167"><ele>993.0</ele><time>2026-05-01T14:07:06.359Z</time></trkpt><trkpt lat="44.2533683" lon="8.206685"><ele>993.0</ele><time>2026-05-01T14:07:07.354Z</time></trkpt><trkpt lat="44.253275" lon="8.20665"><ele>993.0</ele><time>2026-05-01T14:07:08.353Z</time></trkpt><trkpt lat="44.2531717" lon="8.2066367"><ele>1000.5</ele><time>2026-05-01T14:07:09.355Z</time></trkpt><trkpt lat="44.25307" lon="8.2066733"><ele>1008.0</ele><time>2026-05-01T14:07:10.35Z</time></trkpt><trkpt lat="44.2529717" lon="8.20677"><ele>1015.5</ele><time>2026-05-01T14:07:11.355Z</time></trkpt><trkpt lat="44.2528767" lon="8.2069117"><ele>1023.0</ele><time>2026-05-01T14:07:12.352Z</time></trkpt><trkpt lat="44.25278" lon="8.2070833"><ele>1023.0</ele><time>2026-05-01T14:07:13.356Z</time></trkpt><trkpt lat="44.252675" lon="8.2072483"><ele>1023.0</ele><time>2026-05-01T14:07:14.353Z</time></trkpt><trkpt lat="44.252565" lon="8.2074"><ele>1023.0</ele><time>2026-05-01T14:07:15.359Z</time></trkpt><trkpt lat="44.2524567" lon="8.2075217"><ele>1015.8</ele><time>2026-05-01T14:07:16.355Z</time></trkpt><trkpt lat="44.25235" lon="8.2076017"><ele>1008.5999999999999</ele><time>2026-05-01T14:07:17.356Z</time></trkpt><trkpt lat="44.25225" lon="8.2076233"><ele>1001.4000000000001</ele><time>2026-05-01T14:07:18.354Z</time></trkpt><trkpt lat="44.2521567" lon="8.2075767"><ele>994.2</ele><time>2026-05-01T14:07:19.351Z</time></trkpt><trkpt lat="44.252065" lon="8.2074717"><ele>987.0</ele><time>2026-05-01T14:07:20.357Z</time></trkpt><trkpt lat="44.2519683" lon="8.2073333"><ele>997.3333333333333</ele><time>2026-05-01T14:07:21.353Z</time></trkpt><trkpt lat="44.251865" lon="8.2071733"><ele>1007.6666666666666</ele><time>2026-05-01T14:07:22.355Z</time></trkpt><trkpt lat="44.2517433" lon="8.2070017"><ele>1018.0</ele><time>2026-05-01T14:07:23.358Z</time></trkpt><trkpt lat="44.2516017" lon="8.2068467"><ele>1019.6666666666666</ele><time>2026-05-01T14:07:24.353Z</time></trkpt><trkpt lat="44.2514467" lon="8.20669"><ele>1021.3333333333333</ele><time>2026-05-01T14:07:25.352Z</time></trkpt><trkpt lat="44.25129" lon="8.20653"><ele>1023.0</ele><time>2026-05-01T14:07:26.355Z</time></trkpt><trkpt lat="44.251125" lon="8.2063717"><ele>1023.0</ele><time>2026-05-01T14:07:27.351Z</time></trkpt><trkpt lat="44.2509467" lon="8.2062267"><ele>1023.0</ele><time>2026-05-01T14:07:28.352Z</time></trkpt><trkpt lat="44.2507667" lon="8.2060867"><ele>1023.0</ele><time>2026-05-01T14:07:29.349Z</time></trkpt><trkpt lat="44.2505867" lon="8.2059633"><ele>1018.0</ele><time>2026-05-01T14:07:30.348Z</time></trkpt><trkpt lat="44.25041" lon="8.2058533"><ele>1013.0</ele><time>2026-05-01T14:07:31.355Z</time></trkpt><trkpt lat="44.2502433" lon="8.20575"><ele>1008.0</ele><time>2026-05-01T14:07:32.353Z</time></trkpt><trkpt lat="44.2500833" lon="8.2056633"><ele>1015.0</ele><time>2026-05-01T14:07:33.356Z</time></trkpt><trkpt lat="44.2499267" lon="8.2056"><ele>1022.0</ele><time>2026-05-01T14:07:34.353Z</time></trkpt><trkpt lat="44.2497783" lon="8.2055617"><ele>1029.0</ele><time>2026-05-01T14:07:35.351Z</time></trkpt><trkpt lat="44.249645" lon="8.2055567"><ele>1036.0</ele><time>2026-05-01T14:07:36.357Z</time></trkpt><trkpt lat="44.24954" lon="8.2055917"><ele>1038.0</ele><time>2026-05-01T14:07:37.35Z</time></trkpt><trkpt lat="44.2494467" lon="8.2056533"><ele>1040.0</ele><time>2026-05-01T14:07:38.353Z</time></trkpt><trkpt lat="44.2493683" lon="8.2057483"><ele>1042.0</ele><time>2026-05-01T14:07:39.35Z</time></trkpt><trkpt lat="44.2492883" lon="8.2058567"><ele>1044.0</ele><time>2026-05-01T14:07:40.355Z</time></trkpt><trkpt lat="44.249205" lon="8.2059667"><ele>1046.0</ele><time>2026-05-01T14:07:41.353Z</time></trkpt><trkpt lat="44.24912" lon="8.2060833"><ele>1045.25</ele><time>2026-05-01T14:07:42.355Z</time></trkpt><trkpt lat="44.2490383" lon="8.2062117"><ele>1044.5</ele><time>2026-05-01T14:07:43.353Z</time></trkpt><trkpt lat="44.2489583" lon="8.2063467"><ele>1043.75</ele><time>2026-05-01T14:07:44.353Z</time></trkpt><trkpt lat="44.248885" lon="8.2065"><ele>1043.0</ele><time>2026-05-01T14:07:45.358Z</time></trkpt><trkpt lat="44.2488383" lon="8.2066733"><ele>1043.0</ele><time>2026-05-01T14:07:46.35Z</time></trkpt><trkpt lat="44.2488217" lon="8.2068733"><ele>1043.0</ele><time>2026-05-01T14:07:47.354Z</time></trkpt><trkpt lat="44.2488117" lon="8.2070667"><ele>1043.0</ele><time>2026-05-01T14:07:48.351Z</time></trkpt><trkpt lat="44.248805" lon="8.2072517"><ele>1043.0</ele><time>2026-05-01T14:07:49.354Z</time></trkpt><trkpt lat="44.2487833" lon="8.2074"><ele>1037.6</ele><time>2026-05-01T14:07:50.35Z</time></trkpt><trkpt lat="44.24874" lon="8.2075"><ele>1032.1999999999998</ele><time>2026-05-01T14:07:51.351Z</time></trkpt><trkpt lat="44.2486733" lon="8.2075667"><ele>1026.8</ele><time>2026-05-01T14:07:52.352Z</time></trkpt><trkpt lat="44.2485683" lon="8.207575"><ele>1021.4</ele><time>2026-05-01T14:07:53.352Z</time></trkpt><trkpt lat="44.2484467" lon="8.2075733"><ele>1016.0</ele><time>2026-05-01T14:07:54.35Z</time></trkpt><trkpt lat="44.2483033" lon="8.207575"><ele>1016.0</ele><time>2026-05-01T14:07:55.349Z</time></trkpt><trkpt lat="44.2481417" lon="8.2076"><ele>1016.0</ele><time>2026-05-01T14:07:56.348Z</time></trkpt><trkpt lat="44.2479717" lon="8.2076467"><ele>1016.0</ele><time>2026-05-01T14:07:57.353Z</time></trkpt><trkpt lat="44.2478" lon="8.2077017"><ele>1020.5</ele><time>2026-05-01T14:07:58.349Z</time></trkpt><trkpt lat="44.2476433" lon="8.20775"><ele>1025.0</ele><time>2026-05-01T14:07:59.35Z</time></trkpt><trkpt lat="44.2475167" lon="8.2078"><ele>1029.5</ele><time>2026-05-01T14:08:00.354Z</time></trkpt><trkpt lat="44.2474183" lon="8.2078667"><ele>1034.0</ele><time>2026-05-01T14:08:01.355Z</time></trkpt><trkpt lat="44.2473433" lon="8.207975"><ele>1034.0</ele><time>2026-05-01T14:08:02.353Z</time></trkpt><trkpt lat="44.2473017" lon="8.208115"><ele>1034.0</ele><time>2026-05-01T14:08:03.348Z</time></trkpt><trkpt lat="44.247285" lon="8.20828"><ele>1034.0</ele><time>2026-05-01T14:08:04.35Z</time></trkpt><trkpt lat="44.2473" lon="8.208455"><ele>1034.0</ele><time>2026-05-01T14:08:05.35Z</time></trkpt><trkpt lat="44.2473533" lon="8.2086167"><ele>1028.8</ele><time>2026-05-01T14:08:06.355Z</time></trkpt><trkpt lat="44.2474183" lon="8.2087583"><ele>1023.6000000000001</ele><time>2026-05-01T14:08:07.351Z</time></trkpt><trkpt lat="44.2475367" lon="8.2088217"><ele>1018.4</ele><time>2026-05-01T14:08:08.353Z</time></trkpt><trkpt lat="44.247615" lon="8.20889"><ele>1013.2</ele><time>2026-05-01T14:08:09.352Z</time></trkpt><trkpt lat="44.24768" lon="8.20895"><ele>1008.0</ele><time>2026-05-01T14:08:10.353Z</time></trkpt><trkpt lat="44.2476833" lon="8.2090983"><ele>1008.4</ele><time>2026-05-01T14:08:12.351Z</time></trkpt><trkpt lat="44.247615" lon="8.2091533"><ele>1008.8</ele><time>2026-05-01T14:08:13.355Z</time></trkpt><trkpt lat="44.2475217" lon="8.2092067"><ele>1009.2</ele><time>2026-05-01T14:08:14.351Z</time></trkpt><trkpt lat="44.2474033" lon="8.209255"><ele>1009.6</ele><time>2026-05-01T14:08:15.353Z</time></trkpt><trkpt lat="44.2472717" lon="8.209295"><ele>1010.0</ele><time>2026-05-01T14:08:16.354Z</time></trkpt><trkpt lat="44.2471283" lon="8.2093267"><ele>1010.0</ele><time>2026-05-01T14:08:17.348Z</time></trkpt><trkpt lat="44.2469683" lon="8.20934"><ele>1010.0</ele><time>2026-05-01T14:08:18.349Z</time></trkpt><trkpt lat="44.2468" lon="8.20934"><ele>1010.0</ele><time>2026-05-01T14:08:19.351Z</time></trkpt><trkpt lat="44.2466267" lon="8.2093317"><ele>1012.3333333333334</ele><time>2026-05-01T14:08:20.352Z</time></trkpt><trkpt lat="44.24645" lon="8.2093333"><ele>1014.6666666666667</ele><time>2026-05-01T14:08:21.351Z</time></trkpt><trkpt lat="44.2462767" lon="8.2093433"><ele>1017.0</ele><time>2026-05-01T14:08:22.353Z</time></trkpt><trkpt lat="44.2461217" lon="8.2093467"><ele>1017.0</ele><time>2026-05-01T14:08:23.351Z</time></trkpt><trkpt lat="44.2459883" lon="8.2093483"><ele>1017.0</ele><time>2026-05-01T14:08:24.353Z</time></trkpt><trkpt lat="44.24588" lon="8.2093617"><ele>1017.0</ele><time>2026-05-01T14:08:25.352Z</time></trkpt><trkpt lat="44.24579" lon="8.2093983"><ele>1017.0</ele><time>2026-05-01T14:08:26.352Z</time></trkpt><trkpt lat="44.2457083" lon="8.2094667"><ele>1017.0</ele><time>2026-05-01T14:08:27.353Z</time></trkpt><trkpt lat="44.2456483" lon="8.20957"><ele>1010.5</ele><time>2026-05-01T14:08:28.35Z</time></trkpt><trkpt lat="44.2456117" lon="8.209705"><ele>1004.0</ele><time>2026-05-01T14:08:29.35Z</time></trkpt><trkpt lat="44.2456083" lon="8.2098767"><ele>997.5</ele><time>2026-05-01T14:08:30.354Z</time></trkpt><trkpt lat="44.2456533" lon="8.210065"><ele>991.0</ele><time>2026-05-01T14:08:31.35Z</time></trkpt><trkpt lat="44.2456967" lon="8.2102783"><ele>991.0</ele><time>2026-05-01T14:08:32.352Z</time></trkpt><trkpt lat="44.2457317" lon="8.2104967"><ele>991.0</ele><time>2026-05-01T14:08:33.35Z</time></trkpt><trkpt lat="44.2457667" lon="8.2107233"><ele>991.0</ele><time>2026-05-01T14:08:34.351Z</time></trkpt><trkpt lat="44.2458133" lon="8.21096"><ele>990.3333333333333</ele><time>2026-05-01T14:08:35.349Z</time></trkpt><trkpt lat="44.2458517" lon="8.21119"><ele>989.6666666666667</ele><time>2026-05-01T14:08:36.35Z</time></trkpt><trkpt lat="44.2458867" lon="8.21141"><ele>989.0</ele><time>2026-05-01T14:08:37.353Z</time></trkpt><trkpt lat="44.2459367" lon="8.21163"><ele>992.0</ele><time>2026-05-01T14:08:38.352Z</time></trkpt><trkpt lat="44.2459933" lon="8.2118267"><ele>995.0</ele><time>2026-05-01T14:08:39.351Z</time></trkpt><trkpt lat="44.2460783" lon="8.212005"><ele>998.0</ele><time>2026-05-01T14:08:40.351Z</time></trkpt><trkpt lat="44.2461867" lon="8.2121783"><ele>1001.0</ele><time>2026-05-01T14:08:41.352Z</time></trkpt><trkpt lat="44.2463167" lon="8.2123517"><ele>1004.0</ele><time>2026-05-01T14:08:42.352Z</time></trkpt><trkpt lat="44.2464467" lon="8.212505"><ele>1007.0</ele><time>2026-05-01T14:08:43.351Z</time></trkpt><trkpt lat="44.2465517" lon="8.21265"><ele>996.5</ele><time>2026-05-01T14:08:44.351Z</time></trkpt><trkpt lat="44.246635" lon="8.2127883"><ele>986.0</ele><time>2026-05-01T14:08:45.349Z</time></trkpt><trkpt lat="44.2466867" lon="8.2129283"><ele>975.5</ele><time>2026-05-01T14:08:46.35Z</time></trkpt><trkpt lat="44.24671" lon="8.2130833"><ele>965.0</ele><time>2026-05-01T14:08:47.349Z</time></trkpt><trkpt lat="44.24671" lon="8.21324"><ele>965.0</ele><time>2026-05-01T14:08:48.351Z</time></trkpt><trkpt lat="44.2466817" lon="8.213385"><ele>965.0</ele><time>2026-05-01T14:08:49.35Z</time></trkpt><trkpt lat="44.2466333" lon="8.213495"><ele>965.0</ele><time>2026-05-01T14:08:50.353Z</time></trkpt><trkpt lat="44.246575" lon="8.213575"><ele>965.0</ele><time>2026-05-01T14:08:51.352Z</time></trkpt><trkpt lat="44.2464833" lon="8.2135783"><ele>965.0</ele><time>2026-05-01T14:08:52.35Z</time></trkpt><trkpt lat="44.2463933" lon="8.2135483"><ele>971.5</ele><time>2026-05-01T14:08:53.349Z</time></trkpt><trkpt lat="44.24628" lon="8.2134983"><ele>978.0</ele><time>2026-05-01T14:08:54.35Z</time></trkpt><trkpt lat="44.2461433" lon="8.2134583"><ele>984.5</ele><time>2026-05-01T14:08:55.356Z</time></trkpt><trkpt lat="44.2459983" lon="8.2134333"><ele>991.0</ele><time>2026-05-01T14:08:56.354Z</time></trkpt><trkpt lat="44.245855" lon="8.2134183"><ele>991.0</ele><time>2026-05-01T14:08:57.35Z</time></trkpt><trkpt lat="44.2457267" lon="8.2134333"><ele>991.0</ele><time>2026-05-01T14:08:58.35Z</time></trkpt><trkpt lat="44.245605" lon="8.2134967"><ele>991.0</ele><time>2026-05-01T14:08:59.35Z</time></trkpt><trkpt lat="44.2455067" lon="8.213595"><ele>991.0</ele><time>2026-05-01T14:09:00.349Z</time></trkpt><trkpt lat="44.2454267" lon="8.2137467"><ele>986.5999999999999</ele><time>2026-05-01T14:09:01.355Z</time></trkpt><trkpt lat="44.245365" lon="8.213895"><ele>982.1999999999999</ele><time>2026-05-01T14:09:02.352Z</time></trkpt><trkpt lat="44.2453017" lon="8.21402"><ele>977.8000000000001</ele><time>2026-05-01T14:09:03.351Z</time></trkpt><trkpt lat="44.2452217" lon="8.214105"><ele>973.4000000000001</ele><time>2026-05-01T14:09:04.35Z</time></trkpt><trkpt lat="44.2451183" lon="8.2141517"><ele>969.0</ele><time>2026-05-01T14:09:05.35Z</time></trkpt><trkpt lat="44.2450017" lon="8.214165"><ele>969.0</ele><time>2026-05-01T14:09:06.354Z</time></trkpt><trkpt lat="44.2448783" lon="8.214135"><ele>969.0</ele><time>2026-05-01T14:09:07.35Z</time></trkpt><trkpt lat="44.2447667" lon="8.21408"><ele>969.0</ele><time>2026-05-01T14:09:08.352Z</time></trkpt><trkpt lat="44.2446583" lon="8.2140467"><ele>969.0</ele><time>2026-05-01T14:09:09.349Z</time></trkpt><trkpt lat="44.2445517" lon="8.2140617"><ele>973.25</ele><time>2026-05-01T14:09:10.351Z</time></trkpt><trkpt lat="44.2444567" lon="8.2141283"><ele>977.5</ele><time>2026-05-01T14:09:11.353Z</time></trkpt><trkpt lat="44.2443833" lon="8.2142467"><ele>981.75</ele><time>2026-05-01T14:09:12.35Z</time></trkpt><trkpt lat="44.2443317" lon="8.2144033"><ele>986.0</ele><time>2026-05-01T14:09:13.355Z</time></trkpt><trkpt lat="44.2442633" lon="8.2145433"><ele>986.0</ele><time>2026-05-01T14:09:14.35Z</time></trkpt><trkpt lat="44.2441783" lon="8.2146583"><ele>986.0</ele><time>2026-05-01T14:09:15.353Z</time></trkpt><trkpt lat="44.2440683" lon="8.214745"><ele>986.0</ele><time>2026-05-01T14:09:16.35Z</time></trkpt><trkpt lat="44.2439283" lon="8.2148133"><ele>986.0</ele><time>2026-05-01T14:09:17.35Z</time></trkpt><trkpt lat="44.2437783" lon="8.21489"><ele>982.0</ele><time>2026-05-01T14:09:18.352Z</time></trkpt><trkpt lat="44.24361" lon="8.214975"><ele>978.0</ele><time>2026-05-01T14:09:19.349Z</time></trkpt><trkpt lat="44.2434333" lon="8.2150467"><ele>974.0</ele><time>2026-05-01T14:09:20.35Z</time></trkpt><trkpt lat="44.2432683" lon="8.2151133"><ele>971.25</ele><time>2026-05-01T14:09:21.352Z</time></trkpt><trkpt lat="44.2431233" lon="8.2151817"><ele>968.5</ele><time>2026-05-01T14:09:22.353Z</time></trkpt><trkpt lat="44.2429967" lon="8.2152283"><ele>965.75</ele><time>2026-05-01T14:09:23.352Z</time></trkpt><trkpt lat="44.2428783" lon="8.2152317"><ele>963.0</ele><time>2026-05-01T14:09:24.353Z</time></trkpt><trkpt lat="44.242775" lon="8.2151817"><ele>963.0</ele><time>2026-05-01T14:09:25.358Z</time></trkpt><trkpt lat="44.24269" lon="8.21507"><ele>963.0</ele><time>2026-05-01T14:09:26.349Z</time></trkpt><trkpt lat="44.2426133" lon="8.2149167"><ele>963.0</ele><time>2026-05-01T14:09:27.351Z</time></trkpt><trkpt lat="44.2425367" lon="8.2147417"><ele>963.0</ele><time>2026-05-01T14:09:28.355Z</time></trkpt><trkpt lat="44.242465" lon="8.2145433"><ele>969.3333333333333</ele><time>2026-05-01T14:09:29.349Z</time></trkpt><trkpt lat="44.2424033" lon="8.2143267"><ele>975.6666666666666</ele><time>2026-05-01T14:09:30.352Z</time></trkpt><trkpt lat="44.24234" lon="8.2141133"><ele>982.0</ele><time>2026-05-01T14:09:31.356Z</time></trkpt><trkpt lat="44.2422567" lon="8.2139117"><ele>982.0</ele><time>2026-05-01T14:09:32.351Z</time></trkpt><trkpt lat="44.2421517" lon="8.21372"><ele>982.0</ele><time>2026-05-01T14:09:33.356Z</time></trkpt><trkpt lat="44.24204" lon="8.2135483"><ele>982.0</ele><time>2026-05-01T14:09:34.353Z</time></trkpt><trkpt lat="44.2419367" lon="8.2134"><ele>982.0</ele><time>2026-05-01T14:09:35.353Z</time></trkpt><trkpt lat="44.2418483" lon="8.2132867"><ele>982.0</ele><time>2026-05-01T14:09:36.353Z</time></trkpt><trkpt lat="44.241765" lon="8.213205"><ele>982.0</ele><time>2026-05-01T14:09:37.358Z</time></trkpt><trkpt lat="44.2416767" lon="8.2131633"><ele>982.0</ele><time>2026-05-01T14:09:38.352Z</time></trkpt><trkpt lat="44.2415967" lon="8.213155"><ele>982.0</ele><time>2026-05-01T14:09:39.356Z</time></trkpt><trkpt lat="44.2415083" lon="8.213205"><ele>987.75</ele><time>2026-05-01T14:09:40.35Z</time></trkpt><trkpt lat="44.24142" lon="8.213355"><ele>993.5</ele><time>2026-05-01T14:09:41.351Z</time></trkpt><trkpt lat="44.24134" lon="8.2135217"><ele>999.25</ele><time>2026-05-01T14:09:42.351Z</time></trkpt><trkpt lat="44.2412517" lon="8.213695"><ele>1005.0</ele><time>2026-05-01T14:09:43.35Z</time></trkpt><trkpt lat="44.2411433" lon="8.2138567"><ele>997.6666666666667</ele><time>2026-05-01T14:09:44.351Z</time></trkpt><trkpt lat="44.2410133" lon="8.214015"><ele>990.3333333333334</ele><time>2026-05-01T14:09:45.353Z</time></trkpt><trkpt lat="44.2408767" lon="8.2141767"><ele>983.0</ele><time>2026-05-01T14:09:46.353Z</time></trkpt><trkpt lat="44.2407383" lon="8.214355"><ele>990.3333333333334</ele><time>2026-05-01T14:09:47.351Z</time></trkpt><trkpt lat="44.2406083" lon="8.2145583"><ele>997.6666666666667</ele><time>2026-05-01T14:09:48.35Z</time></trkpt><trkpt lat="44.240485" lon="8.21478"><ele>1005.0</ele><time>2026-05-01T14:09:49.352Z</time></trkpt><trkpt lat="44.24037" lon="8.21501"><ele>1005.0</ele><time>2026-05-01T14:09:50.358Z</time></trkpt><trkpt lat="44.2402733" lon="8.2152433"><ele>1005.0</ele><time>2026-05-01T14:09:51.357Z</time></trkpt><trkpt lat="44.2401983" lon="8.2154617"><ele>1005.0</ele><time>2026-05-01T14:09:52.351Z</time></trkpt><trkpt lat="44.2401333" lon="8.2156583"><ele>1003.0</ele><time>2026-05-01T14:09:53.35Z</time></trkpt><trkpt lat="44.2400633" lon="8.21582"><ele>1001.0</ele><time>2026-05-01T14:09:54.354Z</time></trkpt><trkpt lat="44.2399767" lon="8.215945"><ele>999.0</ele><time>2026-05-01T14:09:55.352Z</time></trkpt><trkpt lat="44.239865" lon="8.216025"><ele>997.0</ele><time>2026-05-01T14:09:56.352Z</time></trkpt><trkpt lat="44.2397333" lon="8.21605"><ele>997.0</ele><time>2026-05-01T14:09:57.355Z</time></trkpt><trkpt lat="44.2395833" lon="8.2160517"><ele>997.0</ele><time>2026-05-01T14:09:58.351Z</time></trkpt><trkpt lat="44.23942" lon="8.2160567"><ele>997.0</ele><time>2026-05-01T14:09:59.353Z</time></trkpt><trkpt lat="44.2392517" lon="8.2160833"><ele>997.0</ele><time>2026-05-01T14:10:00.353Z</time></trkpt><trkpt lat="44.23909" lon="8.2161317"><ele>997.0</ele><time>2026-05-01T14:10:01.352Z</time></trkpt><trkpt lat="44.23894" lon="8.216175"><ele>997.0</ele><time>2026-05-01T14:10:02.353Z</time></trkpt><trkpt lat="44.2387983" lon="8.2161833"><ele>997.0</ele><time>2026-05-01T14:10:03.353Z</time></trkpt><trkpt lat="44.23867" lon="8.2161467"><ele>997.0</ele><time>2026-05-01T14:10:04.352Z</time></trkpt><trkpt lat="44.2385583" lon="8.2161167"><ele>997.0</ele><time>2026-05-01T14:10:05.353Z</time></trkpt><trkpt lat="44.23846" lon="8.216155"><ele>997.0</ele><time>2026-05-01T14:10:06.352Z</time></trkpt><trkpt lat="44.238385" lon="8.2162383"><ele>997.0</ele><time>2026-05-01T14:10:07.361Z</time></trkpt><trkpt lat="44.2383383" lon="8.2163733"><ele>996.0</ele><time>2026-05-01T14:10:08.351Z</time></trkpt><trkpt lat="44.2383133" lon="8.21655"><ele>995.0</ele><time>2026-05-01T14:10:09.352Z</time></trkpt><trkpt lat="44.2382917" lon="8.216755"><ele>994.0</ele><time>2026-05-01T14:10:10.35Z</time></trkpt><trkpt lat="44.2382483" lon="8.216965"><ele>993.0</ele><time>2026-05-01T14:10:11.351Z</time></trkpt><trkpt lat="44.2380633" lon="8.2173517"><ele>993.0</ele><time>2026-05-01T14:10:13.351Z</time></trkpt><trkpt lat="44.2379517" lon="8.2175333"><ele>993.0</ele><time>2026-05-01T14:10:14.356Z</time></trkpt><trkpt lat="44.2378433" lon="8.2177267"><ele>993.0</ele><time>2026-05-01T14:10:15.354Z</time></trkpt><trkpt lat="44.2377683" lon="8.2179167"><ele>993.0</ele><time>2026-05-01T14:10:16.352Z</time></trkpt><trkpt lat="44.2377217" lon="8.2181383"><ele>993.0</ele><time>2026-05-01T14:10:17.353Z</time></trkpt><trkpt lat="44.237715" lon="8.218385"><ele>993.0</ele><time>2026-05-01T14:10:18.354Z</time></trkpt><trkpt lat="44.2377267" lon="8.21864"><ele>991.6666666666667</ele><time>2026-05-01T14:10:19.351Z</time></trkpt><trkpt lat="44.237745" lon="8.2188917"><ele>990.3333333333334</ele><time>2026-05-01T14:10:20.353Z</time></trkpt><trkpt lat="44.2377667" lon="8.2191333"><ele>989.0</ele><time>2026-05-01T14:10:21.35Z</time></trkpt><trkpt lat="44.237795" lon="8.2193633"><ele>987.5</ele><time>2026-05-01T14:10:22.351Z</time></trkpt><trkpt lat="44.23784" lon="8.2195767"><ele>986.0</ele><time>2026-05-01T14:10:23.353Z</time></trkpt><trkpt lat="44.23791" lon="8.21976"><ele>984.5</ele><time>2026-05-01T14:10:24.352Z</time></trkpt><trkpt lat="44.2379817" lon="8.2199283"><ele>983.0</ele><time>2026-05-01T14:10:25.353Z</time></trkpt><trkpt lat="44.2380383" lon="8.2200717"><ele>982.0000000000001</ele><time>2026-05-01T14:10:26.357Z</time></trkpt><trkpt lat="44.2380683" lon="8.220185"><ele>981.0</ele><time>2026-05-01T14:10:27.352Z</time></trkpt><trkpt lat="44.23807" lon="8.220285"><ele>980.0</ele><time>2026-05-01T14:10:28.359Z</time></trkpt><trkpt lat="44.2379817" lon="8.2203783"><ele>979.0</ele><time>2026-05-01T14:10:30.352Z</time></trkpt><trkpt lat="44.2378983" lon="8.22035"><ele>978.0000000000001</ele><time>2026-05-01T14:10:31.354Z</time></trkpt><trkpt lat="44.2378183" lon="8.2203067"><ele>977.0</ele><time>2026-05-01T14:10:32.354Z</time></trkpt><trkpt lat="44.23769" lon="8.2202067"><ele>977.0</ele><time>2026-05-01T14:10:33.351Z</time></trkpt><trkpt lat="44.2375533" lon="8.2201083"><ele>977.0</ele><time>2026-05-01T14:10:34.353Z</time></trkpt><trkpt lat="44.2374017" lon="8.22"><ele>977.0</ele><time>2026-05-01T14:10:35.349Z</time></trkpt><trkpt lat="44.2372433" lon="8.2198833"><ele>977.6666666666667</ele><time>2026-05-01T14:10:36.352Z</time></trkpt><trkpt lat="44.23708" lon="8.21977"><ele>978.3333333333333</ele><time>2026-05-01T14:10:37.35Z</time></trkpt><trkpt lat="44.236905" lon="8.2196517"><ele>979.0</ele><time>2026-05-01T14:10:38.353Z</time></trkpt><trkpt lat="44.2367267" lon="8.21953"><ele>979.0</ele><time>2026-05-01T14:10:39.353Z</time></trkpt><trkpt lat="44.2365517" lon="8.2194067"><ele>979.0</ele><time>2026-05-01T14:10:40.356Z</time></trkpt><trkpt lat="44.236385" lon="8.2192883"><ele>979.0</ele><time>2026-05-01T14:10:41.358Z</time></trkpt><trkpt lat="44.2362217" lon="8.2191783"><ele>977.6666666666666</ele><time>2026-05-01T14:10:42.353Z</time></trkpt><trkpt lat="44.2360583" lon="8.2190583"><ele>976.3333333333333</ele><time>2026-05-01T14:10:43.351Z</time></trkpt><trkpt lat="44.2359017" lon="8.21891"><ele>975.0</ele><time>2026-05-01T14:10:44.352Z</time></trkpt><trkpt lat="44.23575" lon="8.218735"><ele>969.3333333333333</ele><time>2026-05-01T14:10:45.352Z</time></trkpt><trkpt lat="44.2356017" lon="8.2185517"><ele>963.6666666666666</ele><time>2026-05-01T14:10:46.351Z</time></trkpt><trkpt lat="44.2354533" lon="8.2183717"><ele>958.0</ele><time>2026-05-01T14:10:47.35Z</time></trkpt><trkpt lat="44.235295" lon="8.21821"><ele>959.6666666666666</ele><time>2026-05-01T14:10:48.351Z</time></trkpt><trkpt lat="44.23512" lon="8.218065"><ele>961.3333333333333</ele><time>2026-05-01T14:10:49.348Z</time></trkpt><trkpt lat="44.2349267" lon="8.2179333"><ele>963.0</ele><time>2026-05-01T14:10:50.35Z</time></trkpt><trkpt lat="44.234725" lon="8.2178083"><ele>963.0</ele><time>2026-05-01T14:10:51.356Z</time></trkpt><trkpt lat="44.2345167" lon="8.2176883"><ele>963.0</ele><time>2026-05-01T14:10:52.356Z</time></trkpt><trkpt lat="44.2343117" lon="8.21757"><ele>963.0</ele><time>2026-05-01T14:10:53.351Z</time></trkpt><trkpt lat="44.2341183" lon="8.2174567"><ele>960.6666666666667</ele><time>2026-05-01T14:10:54.349Z</time></trkpt><trkpt lat="44.2339433" lon="8.2173567"><ele>958.3333333333334</ele><time>2026-05-01T14:10:55.355Z</time></trkpt><trkpt lat="44.23379" lon="8.21726"><ele>956.0</ele><time>2026-05-01T14:10:56.352Z</time></trkpt><trkpt lat="44.2336517" lon="8.21716"><ele>956.0</ele><time>2026-05-01T14:10:57.355Z</time></trkpt><trkpt lat="44.2335267" lon="8.2170417"><ele>956.0</ele><time>2026-05-01T14:10:58.349Z</time></trkpt><trkpt lat="44.233415" lon="8.2168967"><ele>956.0</ele><time>2026-05-01T14:10:59.358Z</time></trkpt><trkpt lat="44.2333067" lon="8.2167383"><ele>956.0</ele><time>2026-05-01T14:11:00.356Z</time></trkpt><trkpt lat="44.2331883" lon="8.2165683"><ele>956.0</ele><time>2026-05-01T14:11:01.354Z</time></trkpt><trkpt lat="44.2330667" lon="8.2163883"><ele>956.0</ele><time>2026-05-01T14:11:02.352Z</time></trkpt><trkpt lat="44.2329417" lon="8.216215"><ele>953.6666666666667</ele><time>2026-05-01T14:11:03.354Z</time></trkpt><trkpt lat="44.232815" lon="8.2160383"><ele>951.3333333333333</ele><time>2026-05-01T14:11:04.348Z</time></trkpt><trkpt lat="44.232685" lon="8.2158567"><ele>949.0</ele><time>2026-05-01T14:11:05.352Z</time></trkpt><trkpt lat="44.2325583" lon="8.2156767"><ele>946.3333333333333</ele><time>2026-05-01T14:11:06.35Z</time></trkpt><trkpt lat="44.232435" lon="8.215505"><ele>943.6666666666667</ele><time>2026-05-01T14:11:07.349Z</time></trkpt><trkpt lat="44.2323133" lon="8.215345"><ele>941.0</ele><time>2026-05-01T14:11:08.351Z</time></trkpt><trkpt lat="44.2321983" lon="8.2152017"><ele>941.0</ele><time>2026-05-01T14:11:09.351Z</time></trkpt><trkpt lat="44.232085" lon="8.2150667"><ele>941.0</ele><time>2026-05-01T14:11:10.349Z</time></trkpt><trkpt lat="44.23198" lon="8.214935"><ele>941.0</ele><time>2026-05-01T14:11:11.35Z</time></trkpt><trkpt lat="44.2318833" lon="8.21481"><ele>941.0</ele><time>2026-05-01T14:11:12.351Z</time></trkpt><trkpt lat="44.2317967" lon="8.2147033"><ele>939.8333333333334</ele><time>2026-05-01T14:11:13.348Z</time></trkpt><trkpt lat="44.2317217" lon="8.2146083"><ele>938.6666666666667</ele><time>2026-05-01T14:11:14.351Z</time></trkpt><trkpt lat="44.2316583" lon="8.2145217"><ele>937.5</ele><time>2026-05-01T14:11:15.35Z</time></trkpt><trkpt lat="44.2316017" lon="8.21444"><ele>936.3333333333333</ele><time>2026-05-01T14:11:16.355Z</time></trkpt><trkpt lat="44.2315483" lon="8.2143633"><ele>935.1666666666666</ele><time>2026-05-01T14:11:17.35Z</time></trkpt><trkpt lat="44.2314967" lon="8.2142933"><ele>934.0</ele><time>2026-05-01T14:11:18.349Z</time></trkpt><trkpt lat="44.231445" lon="8.2142267"><ele>933.9999999999999</ele><time>2026-05-01T14:11:19.352Z</time></trkpt><trkpt lat="44.231365" lon="8.2141383"><ele>934.0</ele><time>2026-05-01T14:11:21.353Z</time></trkpt><trkpt lat="44.2312883" lon="8.2141533"><ele>934.0</ele><time>2026-05-01T14:11:24.355Z</time></trkpt><trkpt lat="44.2312567" lon="8.21423"><ele>934.0</ele><time>2026-05-01T14:11:26.35Z</time></trkpt><trkpt lat="44.231225" lon="8.2143633"><ele>933.9999999999999</ele><time>2026-05-01T14:11:53.353Z</time></trkpt><trkpt lat="44.23122" lon="8.2144533"><ele>934.0</ele><time>2026-05-01T14:11:56.353Z</time></trkpt><trkpt lat="44.2312983" lon="8.214475"><ele>934.0</ele><time>2026-05-01T14:11:59.35Z</time></trkpt><trkpt lat="44.2313533" lon="8.21443"><ele>934.0</ele><time>2026-05-01T14:12:31.352Z</time></trkpt></trkseg><trkseg><trkpt lat="44.2313053" lon="8.2144435"><ele>933.9999999999999</ele><time>2026-05-01T14:42:13.337Z</time></trkpt><trkpt lat="44.23129" lon="8.2143367"><ele>934.0</ele><time>2026-05-01T14:42:48.351Z</time></trkpt><trkpt lat="44.2312567" lon="8.214255"><ele>934.0</ele><time>2026-05-01T14:42:52.353Z</time></trkpt><trkpt lat="44.23118" lon="8.2142167"><ele>934.0</ele><time>2026-05-01T14:42:56.354Z</time></trkpt><trkpt lat="44.2310767" lon="8.2142717"><ele>933.9999999999999</ele><time>2026-05-01T14:42:58.352Z</time></trkpt><trkpt lat="44.2310133" lon="8.2143083"><ele>934.0</ele><time>2026-05-01T14:42:59.352Z</time></trkpt><trkpt lat="44.2309317" lon="8.21434"><ele>934.0</ele><time>2026-05-01T14:43:00.353Z</time></trkpt><trkpt lat="44.230845" lon="8.2143583"><ele>934.0000000000001</ele><time>2026-05-01T14:43:01.352Z</time></trkpt><trkpt lat="44.2307533" lon="8.21435"><ele>934.0000000000001</ele><time>2026-05-01T14:43:02.351Z</time></trkpt><trkpt lat="44.2306633" lon="8.2143183"><ele>934.0</ele><time>2026-05-01T14:43:03.353Z</time></trkpt><trkpt lat="44.2305733" lon="8.214285"><ele>934.0</ele><time>2026-05-01T14:43:04.355Z</time></trkpt><trkpt lat="44.2304867" lon="8.2142667"><ele>929.8000000000001</ele><time>2026-05-01T14:43:05.354Z</time></trkpt><trkpt lat="44.2304" lon="8.214275"><ele>925.6000000000001</ele><time>2026-05-01T14:43:06.356Z</time></trkpt><trkpt lat="44.2303067" lon="8.214335"><ele>921.4</ele><time>2026-05-01T14:43:07.353Z</time></trkpt><trkpt lat="44.2302067" lon="8.2144283"><ele>917.2</ele><time>2026-05-01T14:43:08.351Z</time></trkpt><trkpt lat="44.2300983" lon="8.2145283"><ele>913.0</ele><time>2026-05-01T14:43:09.355Z</time></trkpt><trkpt lat="44.2299867" lon="8.21462"><ele>913.0</ele><time>2026-05-01T14:43:10.353Z</time></trkpt><trkpt lat="44.2298733" lon="8.2147"><ele>913.0</ele><time>2026-05-01T14:43:11.352Z</time></trkpt><trkpt lat="44.2297633" lon="8.214775"><ele>913.0</ele><time>2026-05-01T14:43:12.352Z</time></trkpt><trkpt lat="44.2296533" lon="8.2148267"><ele>913.0</ele><time>2026-05-01T14:43:13.35Z</time></trkpt><trkpt lat="44.22954" lon="8.2148417"><ele>908.6666666666666</ele><time>2026-05-01T14:43:14.353Z</time></trkpt><trkpt lat="44.229425" lon="8.2148133"><ele>904.3333333333333</ele><time>2026-05-01T14:43:15.35Z</time></trkpt><trkpt lat="44.229315" lon="8.2147467"><ele>900.0</ele><time>2026-05-01T14:43:16.35Z</time></trkpt><trkpt lat="44.23129" lon="8.2143367"><ele>905.6666666666666</ele><time>2026-05-01T14:42:48.351Z</time></trkpt><trkpt lat="44.2312567" lon="8.214255"><ele>911.3333333333333</ele><time>2026-05-01T14:42:52.353Z</time></trkpt><trkpt lat="44.23118" lon="8.2142167"><ele>917.0</ele><time>2026-05-01T14:42:56.354Z</time></trkpt><trkpt lat="44.2310767" lon="8.2142717"><ele>922.6666666666666</ele><time>2026-05-01T14:42:58.352Z</time></trkpt><trkpt lat="44.2310133" lon="8.2143083"><ele>928.3333333333333</ele><time>2026-05-01T14:42:59.352Z</time></trkpt><trkpt lat="44.2309317" lon="8.21434"><ele>934.0</ele><time>2026-05-01T14:43:00.353Z</time></trkpt><trkpt lat="44.230845" lon="8.2143583"><ele>934.0</ele><time>2026-05-01T14:43:01.352Z</time></trkpt><trkpt lat="44.2307533" lon="8.21435"><ele>934.0000000000001</ele><time>2026-05-01T14:43:02.351Z</time></trkpt><trkpt lat="44.2306633" lon="8.2143183"><ele>934.0000000000001</ele><time>2026-05-01T14:43:03.353Z</time></trkpt><trkpt lat="44.2305733" lon="8.214285"><ele>934.0</ele><time>2026-05-01T14:43:04.355Z</time></trkpt><trkpt lat="44.2304867" lon="8.2142667"><ele>934.0</ele><time>2026-05-01T14:43:05.354Z</time></trkpt><trkpt lat="44.2304" lon="8.214275"><ele>928.75</ele><time>2026-05-01T14:43:06.356Z</time></trkpt><trkpt lat="44.2303067" lon="8.214335"><ele>923.5</ele><time>2026-05-01T14:43:07.353Z</time></trkpt><trkpt lat="44.2302067" lon="8.2144283"><ele>918.25</ele><time>2026-05-01T14:43:08.351Z</time></trkpt><trkpt lat="44.2300983" lon="8.2145283"><ele>913.0</ele><time>2026-05-01T14:43:09.355Z</time></trkpt><trkpt lat="44.2299867" lon="8.21462"><ele>913.0</ele><time>2026-05-01T14:43:10.353Z</time></trkpt><trkpt lat="44.2298733" lon="8.2147"><ele>913.0</ele><time>2026-05-01T14:43:11.352Z</time></trkpt><trkpt lat="44.2297633" lon="8.214775"><ele>913.0</ele><time>2026-05-01T14:43:12.352Z</time></trkpt><trkpt lat="44.2296533" lon="8.2148267"><ele>913.0</ele><time>2026-05-01T14:43:13.35Z</time></trkpt><trkpt lat="44.22954" lon="8.2148417"><ele>909.75</ele><time>2026-05-01T14:43:14.353Z</time></trkpt><trkpt lat="44.229425" lon="8.2148133"><ele>906.5</ele><time>2026-05-01T14:43:15.35Z</time></trkpt><trkpt lat="44.229315" lon="8.2147467"><ele>903.25</ele><time>2026-05-01T14:43:16.35Z</time></trkpt><trkpt lat="44.2292183" lon="8.2146433"><ele>900.0</ele><time>2026-05-01T14:43:17.349Z</time></trkpt><trkpt lat="44.2291283" lon="8.2145417"><ele>900.0</ele><time>2026-05-01T14:43:18.355Z</time></trkpt><trkpt lat="44.2290317" lon="8.21447"><ele>900.0</ele><time>2026-05-01T14:43:19.35Z</time></trkpt><trkpt lat="44.2289183" lon="8.21444"><ele>900.0</ele><time>2026-05-01T14:43:20.351Z</time></trkpt><trkpt lat="44.2288083" lon="8.2144583"><ele>900.0</ele><time>2026-05-01T14:43:21.351Z</time></trkpt><trkpt lat="44.22871" lon="8.21453"><ele>900.0</ele><time>2026-05-01T14:43:22.351Z</time></trkpt><trkpt lat="44.2286283" lon="8.21466"><ele>899.75</ele><time>2026-05-01T14:43:23.349Z</time></trkpt><trkpt lat="44.2285633" lon="8.2148267"><ele>899.5</ele><time>2026-05-01T14:43:24.353Z</time></trkpt><trkpt lat="44.2285117" lon="8.215015"><ele>899.25</ele><time>2026-05-01T14:43:25.349Z</time></trkpt><trkpt lat="44.2284683" lon="8.2152067"><ele>899.0</ele><time>2026-05-01T14:43:26.35Z</time></trkpt><trkpt lat="44.2284267" lon="8.2153767"><ele>899.0</ele><time>2026-05-01T14:43:27.353Z</time></trkpt><trkpt lat="44.228375" lon="8.2155183"><ele>899.0000000000001</ele><time>2026-05-01T14:43:28.348Z</time></trkpt><trkpt lat="44.2283117" lon="8.2156367"><ele>899.0000000000001</ele><time>2026-05-01T14:43:29.35Z</time></trkpt><trkpt lat="44.2282417" lon="8.2157467"><ele>899.0</ele><time>2026-05-01T14:43:30.349Z</time></trkpt><trkpt lat="44.2281683" lon="8.2158533"><ele>899.0</ele><time>2026-05-01T14:43:31.352Z</time></trkpt><trkpt lat="44.228095" lon="8.21596"><ele>896.0</ele><time>2026-05-01T14:43:32.35Z</time></trkpt><trkpt lat="44.2280183" lon="8.2160717"><ele>893.0</ele><time>2026-05-01T14:43:33.358Z</time></trkpt><trkpt lat="44.2279367" lon="8.216185"><ele>890.0</ele><time>2026-05-01T14:43:34.35Z</time></trkpt><trkpt lat="44.2278533" lon="8.21629"><ele>887.0</ele><time>2026-05-01T14:43:35.349Z</time></trkpt><trkpt lat="44.2277533" lon="8.2163667"><ele>887.0</ele><time>2026-05-01T14:43:36.349Z</time></trkpt><trkpt lat="44.2276483" lon="8.2164167"><ele>887.0</ele><time>2026-05-01T14:43:37.353Z</time></trkpt><trkpt lat="44.2275483" lon="8.216425"><ele>887.0</ele><time>2026-05-01T14:43:38.352Z</time></trkpt><trkpt lat="44.22745" lon="8.21639"><ele>887.0</ele><time>2026-05-01T14:43:39.351Z</time></trkpt><trkpt lat="44.2273667" lon="8.2163083"><ele>887.0</ele><time>2026-05-01T14:43:40.353Z</time></trkpt><trkpt lat="44.2272967" lon="8.2162033"><ele>887.8</ele><time>2026-05-01T14:43:41.35Z</time></trkpt><trkpt lat="44.2272267" lon="8.2160917"><ele>888.6</ele><time>2026-05-01T14:43:42.349Z</time></trkpt><trkpt lat="44.2271467" lon="8.2159967"><ele>889.3999999999999</ele><time>2026-05-01T14:43:43.351Z</time></trkpt><trkpt lat="44.2270533" lon="8.2159217"><ele>890.1999999999999</ele><time>2026-05-01T14:43:44.348Z</time></trkpt><trkpt lat="44.226945" lon="8.215875"><ele>891.0</ele><time>2026-05-01T14:43:45.356Z</time></trkpt><trkpt lat="44.2268333" lon="8.2158533"><ele>891.0</ele><time>2026-05-01T14:43:46.348Z</time></trkpt><trkpt lat="44.226705" lon="8.215885"><ele>891.0</ele><time>2026-05-01T14:43:47.35Z</time></trkpt><trkpt lat="44.2265683" lon="8.215905"><ele>891.0</ele><time>2026-05-01T14:43:48.349Z</time></trkpt><trkpt lat="44.2264217" lon="8.2159083"><ele>891.0</ele><time>2026-05-01T14:43:49.348Z</time></trkpt><trkpt lat="44.2262817" lon="8.215885"><ele>892.0</ele><time>2026-05-01T14:43:50.349Z</time></trkpt><trkpt lat="44.2261567" lon="8.2158417"><ele>893.0</ele><time>2026-05-01T14:43:51.35Z</time></trkpt><trkpt lat="44.2260383" lon="8.2157717"><ele>894.0</ele><time>2026-05-01T14:43:52.353Z</time></trkpt><trkpt lat="44.2259383" lon="8.2156717"><ele>895.0</ele><time>2026-05-01T14:43:53.352Z</time></trkpt><trkpt lat="44.2258583" lon="8.2155333"><ele>888.6</ele><time>2026-05-01T14:43:54.352Z</time></trkpt><trkpt lat="44.225795" lon="8.2153867"><ele>882.2</ele><time>2026-05-01T14:43:55.35Z</time></trkpt><trkpt lat="44.2257417" lon="8.2152483"><ele>875.8</ele><time>2026-05-01T14:43:56.351Z</time></trkpt><trkpt lat="44.225685" lon="8.2151483"><ele>869.4</ele><time>2026-05-01T14:43:57.352Z</time></trkpt><trkpt lat="44.2256083" lon="8.2150967"><ele>863.0</ele><time>2026-05-01T14:43:58.349Z</time></trkpt><trkpt lat="44.225515" lon="8.2150867"><ele>862.25</ele><time>2026-05-01T14:43:59.35Z</time></trkpt><trkpt lat="44.2254083" lon="8.2151067"><ele>861.5</ele><time>2026-05-01T14:44:00.351Z</time></trkpt><trkpt lat="44.225295" lon="8.21513"><ele>860.75</ele><time>2026-05-01T14:44:01.35Z</time></trkpt><trkpt lat="44.2251717" lon="8.2151467"><ele>860.0</ele><time>2026-05-01T14:44:02.352Z</time></trkpt><trkpt lat="44.2250517" lon="8.2151683"><ele>860.0</ele><time>2026-05-01T14:44:03.354Z</time></trkpt><trkpt lat="44.2249383" lon="8.2152233"><ele>860.0</ele><time>2026-05-01T14:44:04.352Z</time></trkpt><trkpt lat="44.2248433" lon="8.21531"><ele>860.0</ele><time>2026-05-01T14:44:05.353Z</time></trkpt><trkpt lat="44.2247633" lon="8.2154367"><ele>860.0</ele><time>2026-05-01T14:44:06.352Z</time></trkpt><trkpt lat="44.2247067" lon="8.215605"><ele>857.25</ele><time>2026-05-01T14:44:07.351Z</time></trkpt><trkpt lat="44.22466" lon="8.2157967"><ele>854.5</ele><time>2026-05-01T14:44:08.351Z</time></trkpt><trkpt lat="44.2245967" lon="8.215975"><ele>851.75</ele><time>2026-05-01T14:44:09.353Z</time></trkpt><trkpt lat="44.2245233" lon="8.2161567"><ele>849.0</ele><time>2026-05-01T14:44:10.356Z</time></trkpt><trkpt lat="44.2244533" lon="8.21634"><ele>850.75</ele><time>2026-05-01T14:44:11.349Z</time></trkpt><trkpt lat="44.2243733" lon="8.2165083"><ele>852.5</ele><time>2026-05-01T14:44:12.355Z</time></trkpt><trkpt lat="44.22428" lon="8.21666"><ele>854.25</ele><time>2026-05-01T14:44:13.353Z</time></trkpt><trkpt lat="44.2241883" lon="8.21681"><ele>856.0</ele><time>2026-05-01T14:44:14.352Z</time></trkpt><trkpt lat="44.2241133" lon="8.2169733"><ele>856.0</ele><time>2026-05-01T14:44:15.35Z</time></trkpt><trkpt lat="44.22406" lon="8.2171483"><ele>856.0</ele><time>2026-05-01T14:44:16.35Z</time></trkpt><trkpt lat="44.2240267" lon="8.2173417"><ele>856.0</ele><time>2026-05-01T14:44:17.356Z</time></trkpt><trkpt lat="44.2240133" lon="8.2175433"><ele>856.0</ele><time>2026-05-01T14:44:18.355Z</time></trkpt><trkpt lat="44.2240133" lon="8.217745"><ele>857.0</ele><time>2026-05-01T14:44:19.352Z</time></trkpt><trkpt lat="44.2240167" lon="8.2179417"><ele>858.0</ele><time>2026-05-01T14:44:20.35Z</time></trkpt><trkpt lat="44.2240367" lon="8.2181183"><ele>859.0</ele><time>2026-05-01T14:44:21.353Z</time></trkpt><trkpt lat="44.22409" lon="8.218275"><ele>860.0</ele><time>2026-05-01T14:44:22.353Z</time></trkpt><trkpt lat="44.2241617" lon="8.2184133"><ele>860.0</ele><time>2026-05-01T14:44:23.349Z</time></trkpt><trkpt lat="44.2242283" lon="8.21855"><ele>860.0</ele><time>2026-05-01T14:44:24.351Z</time></trkpt><trkpt lat="44.2242683" lon="8.2186983"><ele>860.0</ele><time>2026-05-01T14:44:25.352Z</time></trkpt><trkpt lat="44.224275" lon="8.2188667"><ele>860.0</ele><time>2026-05-01T14:44:26.355Z</time></trkpt><trkpt lat="44.2242667" lon="8.2190333"><ele>857.0</ele><time>2026-05-01T14:44:27.352Z</time></trkpt><trkpt lat="44.224235" lon="8.2191967"><ele>854.0</ele><time>2026-05-01T14:44:28.351Z</time></trkpt><trkpt lat="44.2241783" lon="8.21936"><ele>851.0</ele><time>2026-05-01T14:44:29.35Z</time></trkpt><trkpt lat="44.2240967" lon="8.219515"><ele>848.0</ele><time>2026-05-01T14:44:30.353Z</time></trkpt><trkpt lat="44.224" lon="8.2196583"><ele>843.25</ele><time>2026-05-01T14:44:31.35Z</time></trkpt><trkpt lat="44.223895" lon="8.2197783"><ele>838.5</ele><time>2026-05-01T14:44:32.352Z</time></trkpt><trkpt lat="44.22378" lon="8.21987"><ele>833.75</ele><time>2026-05-01T14:44:33.357Z</time></trkpt><trkpt lat="44.2236617" lon="8.2199483"><ele>829.0</ele><time>2026-05-01T14:44:34.352Z</time></trkpt><trkpt lat="44.22355" lon="8.220045"><ele>829.0</ele><time>2026-05-01T14:44:35.349Z</time></trkpt><trkpt lat="44.223445" lon="8.2201567"><ele>829.0</ele><time>2026-05-01T14:44:36.352Z</time></trkpt><trkpt lat="44.223345" lon="8.2202567"><ele>829.0</ele><time>2026-05-01T14:44:37.354Z</time></trkpt><trkpt lat="44.2232433" lon="8.2203417"><ele>829.0</ele><time>2026-05-01T14:44:38.352Z</time></trkpt><trkpt lat="44.2231383" lon="8.2203933"><ele>824.0</ele><time>2026-05-01T14:44:39.353Z</time></trkpt><trkpt lat="44.223035" lon="8.2204017"><ele>819.0</ele><time>2026-05-01T14:44:40.355Z</time></trkpt><trkpt lat="44.2229233" lon="8.2203883"><ele>814.0</ele><time>2026-05-01T14:44:41.35Z</time></trkpt><trkpt lat="44.2228017" lon="8.2203967"><ele>809.0</ele><time>2026-05-01T14:44:42.353Z</time></trkpt><trkpt lat="44.22267" lon="8.22043"><ele>809.0</ele><time>2026-05-01T14:44:43.349Z</time></trkpt><trkpt lat="44.2225217" lon="8.220475"><ele>809.0</ele><time>2026-05-01T14:44:44.353Z</time></trkpt><trkpt lat="44.2223633" lon="8.2205067"><ele>809.0</ele><time>2026-05-01T14:44:45.355Z</time></trkpt><trkpt lat="44.2221933" lon="8.2205183"><ele>804.3333333333334</ele><time>2026-05-01T14:44:46.351Z</time></trkpt><trkpt lat="44.2220283" lon="8.2205267"><ele>799.6666666666667</ele><time>2026-05-01T14:44:47.351Z</time></trkpt><trkpt lat="44.2218633" lon="8.2205367"><ele>795.0</ele><time>2026-05-01T14:44:48.354Z</time></trkpt><trkpt lat="44.2217017" lon="8.2205567"><ele>795.0</ele><time>2026-05-01T14:44:49.35Z</time></trkpt><trkpt lat="44.22155" lon="8.2205883"><ele>795.0</ele><time>2026-05-01T14:44:50.355Z</time></trkpt><trkpt lat="44.2214083" lon="8.2206467"><ele>795.0</ele><time>2026-05-01T14:44:51.354Z</time></trkpt><trkpt lat="44.2212733" lon="8.2207333"><ele>797.25</ele><time>2026-05-01T14:44:52.35Z</time></trkpt><trkpt lat="44.2211517" lon="8.2208433"><ele>799.5</ele><time>2026-05-01T14:44:53.35Z</time></trkpt><trkpt lat="44.221035" lon="8.2209717"><ele>801.75</ele><time>2026-05-01T14:44:54.351Z</time></trkpt><trkpt lat="44.2209183" lon="8.2210933"><ele>804.0</ele><time>2026-05-01T14:44:55.353Z</time></trkpt><trkpt lat="44.2207933" lon="8.2211867"><ele>804.0</ele><time>2026-05-01T14:44:56.351Z</time></trkpt><trkpt lat="44.22066" lon="8.22125"><ele>804.0</ele><time>2026-05-01T14:44:57.353Z</time></trkpt><trkpt lat="44.2205267" lon="8.2213083"><ele>804.0</ele><time>2026-05-01T14:44:58.351Z</time></trkpt><trkpt lat="44.2204" lon="8.2213833"><ele>804.0</ele><time>2026-05-01T14:44:59.352Z</time></trkpt><trkpt lat="44.2202833" lon="8.22148"><ele>801.5</ele><time>2026-05-01T14:45:00.353Z</time></trkpt><trkpt lat="44.22018" lon="8.2216183"><ele>799.0</ele><time>2026-05-01T14:45:01.352Z</time></trkpt><trkpt lat="44.2200983" lon="8.221795"><ele>796.5</ele><time>2026-05-01T14:45:02.354Z</time></trkpt><trkpt lat="44.2200333" lon="8.2219867"><ele>794.0</ele><time>2026-05-01T14:45:03.352Z</time></trkpt><trkpt lat="44.2199933" lon="8.2221633"><ele>794.0</ele><time>2026-05-01T14:45:04.354Z</time></trkpt><trkpt lat="44.2199783" lon="8.2223183"><ele>794.0</ele><time>2026-05-01T14:45:05.353Z</time></trkpt><trkpt lat="44.2199983" lon="8.222465"><ele>794.0</ele><time>2026-05-01T14:45:06.35Z</time></trkpt><trkpt lat="44.22005" lon="8.22259"><ele>794.0</ele><time>2026-05-01T14:45:07.35Z</time></trkpt><trkpt lat="44.2201167" lon="8.222695"><ele>794.0</ele><time>2026-05-01T14:45:08.351Z</time></trkpt><trkpt lat="44.2201667" lon="8.2228033"><ele>794.0</ele><time>2026-05-01T14:45:09.358Z</time></trkpt><trkpt lat="44.220185" lon="8.2229217"><ele>794.0</ele><time>2026-05-01T14:45:10.352Z</time></trkpt><trkpt lat="44.22018" lon="8.22305"><ele>794.0</ele><time>2026-05-01T14:45:11.353Z</time></trkpt><trkpt lat="44.2201867" lon="8.2231967"><ele>794.0</ele><time>2026-05-01T14:45:12.35Z</time></trkpt><trkpt lat="44.2202033" lon="8.2233433"><ele>794.0</ele><time>2026-05-01T14:45:13.35Z</time></trkpt><trkpt lat="44.2202133" lon="8.2234733"><ele>793.2</ele><time>2026-05-01T14:45:14.354Z</time></trkpt><trkpt lat="44.2202017" lon="8.2235833"><ele>792.4000000000001</ele><time>2026-05-01T14:45:15.35Z</time></trkpt><trkpt lat="44.220155" lon="8.2236633"><ele>791.6</ele><time>2026-05-01T14:45:16.353Z</time></trkpt><trkpt lat="44.22007" lon="8.2236917"><ele>790.8</ele><time>2026-05-01T14:45:17.353Z</time></trkpt><trkpt lat="44.2199667" lon="8.22371"><ele>790.0</ele><time>2026-05-01T14:45:18.353Z</time></trkpt><trkpt lat="44.2198483" lon="8.2237167"><ele>782.5</ele><time>2026-05-01T14:45:19.355Z</time></trkpt><trkpt lat="44.2197217" lon="8.2237267"><ele>775.0</ele><time>2026-05-01T14:45:20.349Z</time></trkpt><trkpt lat="44.2195933" lon="8.2237533"><ele>767.5</ele><time>2026-05-01T14:45:21.35Z</time></trkpt><trkpt lat="44.219475" lon="8.2237983"><ele>760.0</ele><time>2026-05-01T14:45:22.351Z</time></trkpt><trkpt lat="44.2193833" lon="8.2238783"><ele>764.25</ele><time>2026-05-01T14:45:23.353Z</time></trkpt><trkpt lat="44.2193167" lon="8.224"><ele>768.5</ele><time>2026-05-01T14:45:24.352Z</time></trkpt><trkpt lat="44.2192567" lon="8.2241483"><ele>772.75</ele><time>2026-05-01T14:45:25.352Z</time></trkpt><trkpt lat="44.21918" lon="8.22429"><ele>777.0</ele><time>2026-05-01T14:45:26.353Z</time></trkpt><trkpt lat="44.2190867" lon="8.22441"><ele>777.0</ele><time>2026-05-01T14:45:27.353Z</time></trkpt><trkpt lat="44.2189917" lon="8.2245233"><ele>777.0</ele><time>2026-05-01T14:45:28.354Z</time></trkpt><trkpt lat="44.2189" lon="8.22464"><ele>777.0</ele><time>2026-05-01T14:45:29.351Z</time></trkpt><trkpt lat="44.218825" lon="8.2247817"><ele>777.0</ele><time>2026-05-01T14:45:30.349Z</time></trkpt><trkpt lat="44.2187733" lon="8.2249417"><ele>770.0</ele><time>2026-05-01T14:45:31.354Z</time></trkpt><trkpt lat="44.218745" lon="8.2251017"><ele>763.0</ele><time>2026-05-01T14:45:32.35Z</time></trkpt><trkpt lat="44.2187333" lon="8.2252533"><ele>756.0</ele><time>2026-05-01T14:45:33.352Z</time></trkpt><trkpt lat="44.2187183" lon="8.2253917"><ele>749.0</ele><time>2026-05-01T14:45:34.354Z</time></trkpt><trkpt lat="44.2186967" lon="8.2255183"><ele>742.0</ele><time>2026-05-01T14:45:35.352Z</time></trkpt><trkpt lat="44.2186533" lon="8.2256217"><ele>746.8</ele><time>2026-05-01T14:45:36.354Z</time></trkpt><trkpt lat="44.21859" lon="8.2257067"><ele>751.6</ele><time>2026-05-01T14:45:37.353Z</time></trkpt><trkpt lat="44.2185067" lon="8.2257617"><ele>756.4</ele><time>2026-05-01T14:45:38.351Z</time></trkpt><trkpt lat="44.2184133" lon="8.2258067"><ele>761.1999999999999</ele><time>2026-05-01T14:45:39.349Z</time></trkpt><trkpt lat="44.2183217" lon="8.2258583"><ele>766.0</ele><time>2026-05-01T14:45:40.353Z</time></trkpt><trkpt lat="44.2182383" lon="8.2259233"><ele>766.0</ele><time>2026-05-01T14:45:41.354Z</time></trkpt><trkpt lat="44.21816" lon="8.22601"><ele>766.0</ele><time>2026-05-01T14:45:42.354Z</time></trkpt><trkpt lat="44.2180917" lon="8.226105"><ele>766.0</ele><time>2026-05-01T14:45:43.353Z</time></trkpt><trkpt lat="44.218055" lon="8.2262167"><ele>766.0</ele><time>2026-05-01T14:45:44.354Z</time></trkpt><trkpt lat="44.2180483" lon="8.22634"><ele>766.0</ele><time>2026-05-01T14:45:45.354Z</time></trkpt><trkpt lat="44.21804" lon="8.2264517"><ele>763.0</ele><time>2026-05-01T14:45:46.352Z</time></trkpt><trkpt lat="44.218025" lon="8.22656"><ele>760.0</ele><time>2026-05-01T14:45:47.351Z</time></trkpt><trkpt lat="44.218" lon="8.22667"><ele>757.0</ele><time>2026-05-01T14:45:48.354Z</time></trkpt><trkpt lat="44.217945" lon="8.2267617"><ele>754.0</ele><time>2026-05-01T14:45:49.35Z</time></trkpt><trkpt lat="44.217865" lon="8.22683"><ele>751.0</ele><time>2026-05-01T14:45:50.351Z</time></trkpt><trkpt lat="44.21776" lon="8.2268617"><ele>748.0</ele><time>2026-05-01T14:45:51.353Z</time></trkpt><trkpt lat="44.21765" lon="8.2268683"><ele>748.0</ele><time>2026-05-01T14:45:52.352Z</time></trkpt><trkpt lat="44.2175417" lon="8.22687"><ele>748.0</ele><time>2026-05-01T14:45:53.351Z</time></trkpt><trkpt lat="44.2174267" lon="8.22688"><ele>748.0</ele><time>2026-05-01T14:45:54.351Z</time></trkpt><trkpt lat="44.217315" lon="8.2268917"><ele>748.0</ele><time>2026-05-01T14:45:55.353Z</time></trkpt><trkpt lat="44.2172117" lon="8.2269117"><ele>748.0</ele><time>2026-05-01T14:45:56.355Z</time></trkpt><trkpt lat="44.217115" lon="8.2269417"><ele>748.0</ele><time>2026-05-01T14:45:57.354Z</time></trkpt><trkpt lat="44.2170233" lon="8.2269767"><ele>748.0</ele><time>2026-05-01T14:45:58.353Z</time></trkpt><trkpt lat="44.2169383" lon="8.2270267"><ele>748.0</ele><time>2026-05-01T14:45:59.354Z</time></trkpt><trkpt lat="44.2168517" lon="8.2270967"><ele>748.0</ele><time>2026-05-01T14:46:00.354Z</time></trkpt><trkpt lat="44.2167583" lon="8.227235"><ele>748.0</ele><time>2026-05-01T14:46:01.352Z</time></trkpt><trkpt lat="44.2166483" lon="8.2273917"><ele>748.0</ele><time>2026-05-01T14:46:02.352Z</time></trkpt><trkpt lat="44.2165333" lon="8.2275617"><ele>748.0</ele><time>2026-05-01T14:46:03.353Z</time></trkpt><trkpt lat="44.21642" lon="8.2277267"><ele>748.0</ele><time>2026-05-01T14:46:04.354Z</time></trkpt><trkpt lat="44.2163133" lon="8.22787"><ele>746.25</ele><time>2026-05-01T14:46:05.349Z</time></trkpt><trkpt lat="44.2162183" lon="8.2279833"><ele>744.5</ele><time>2026-05-01T14:46:06.353Z</time></trkpt><trkpt lat="44.216115" lon="8.2280733"><ele>742.75</ele><time>2026-05-01T14:46:07.35Z</time></trkpt><trkpt lat="44.216005" lon="8.2281467"><ele>741.0</ele><time>2026-05-01T14:46:08.351Z</time></trkpt><trkpt lat="44.2158833" lon="8.2282233"><ele>741.0</ele><time>2026-05-01T14:46:09.353Z</time></trkpt><trkpt lat="44.2157467" lon="8.2283367"><ele>741.0</ele><time>2026-05-01T14:46:10.352Z</time></trkpt><trkpt lat="44.2156033" lon="8.2284733"><ele>741.0</ele><time>2026-05-01T14:46:11.352Z</time></trkpt><trkpt lat="44.2154583" lon="8.2286117"><ele>736.3333333333334</ele><time>2026-05-01T14:46:12.35Z</time></trkpt><trkpt lat="44.215315" lon="8.2287483"><ele>731.6666666666667</ele><time>2026-05-01T14:46:13.353Z</time></trkpt><trkpt lat="44.215175" lon="8.2288767"><ele>727.0</ele><time>2026-05-01T14:46:14.35Z</time></trkpt><trkpt lat="44.2150417" lon="8.2289933"><ele>727.0</ele><time>2026-05-01T14:46:15.351Z</time></trkpt><trkpt lat="44.214915" lon="8.2291267"><ele>727.0</ele><time>2026-05-01T14:46:16.35Z</time></trkpt><trkpt lat="44.2148" lon="8.2292883"><ele>727.0</ele><time>2026-05-01T14:46:17.352Z</time></trkpt><trkpt lat="44.214695" lon="8.2294717"><ele>720.0</ele><time>2026-05-01T14:46:18.35Z</time></trkpt><trkpt lat="44.214605" lon="8.2296883"><ele>713.0</ele><time>2026-05-01T14:46:19.35Z</time></trkpt><trkpt lat="44.2145233" lon="8.2299083"><ele>706.0</ele><time>2026-05-01T14:46:20.351Z</time></trkpt><trkpt lat="44.214455" lon="8.2301067"><ele>706.0</ele><time>2026-05-01T14:46:21.357Z</time></trkpt><trkpt lat="44.214395" lon="8.2302783"><ele>706.0</ele><time>2026-05-01T14:46:22.353Z</time></trkpt><trkpt lat="44.2143383" lon="8.230415"><ele>706.0</ele><time>2026-05-01T14:46:23.348Z</time></trkpt><trkpt lat="44.214265" lon="8.23052"><ele>706.0</ele><time>2026-05-01T14:46:24.351Z</time></trkpt><trkpt lat="44.2141783" lon="8.2305883"><ele>706.0</ele><time>2026-05-01T14:46:25.349Z</time></trkpt><trkpt lat="44.214065" lon="8.2306"><ele>706.0</ele><time>2026-05-01T14:46:26.352Z</time></trkpt><trkpt lat="44.21395" lon="8.23063"><ele>706.0</ele><time>2026-05-01T14:46:27.35Z</time></trkpt><trkpt lat="44.2138367" lon="8.2307"><ele>706.0</ele><time>2026-05-01T14:46:28.35Z</time></trkpt><trkpt lat="44.2137317" lon="8.2308267"><ele>703.25</ele><time>2026-05-01T14:46:29.351Z</time></trkpt><trkpt lat="44.2136283" lon="8.2309867"><ele>700.5</ele><time>2026-05-01T14:46:30.351Z</time></trkpt><trkpt lat="44.2135283" lon="8.2311417"><ele>697.75</ele><time>2026-05-01T14:46:31.35Z</time></trkpt><trkpt lat="44.2134367" lon="8.2312783"><ele>695.0</ele><time>2026-05-01T14:46:32.348Z</time></trkpt><trkpt lat="44.2133417" lon="8.2313917"><ele>698.5</ele><time>2026-05-01T14:46:33.352Z</time></trkpt><trkpt lat="44.213235" lon="8.23148"><ele>702.0</ele><time>2026-05-01T14:46:34.348Z</time></trkpt><trkpt lat="44.2131267" lon="8.2315633"><ele>705.5</ele><time>2026-05-01T14:46:35.353Z</time></trkpt><trkpt lat="44.2130183" lon="8.2316483"><ele>709.0</ele><time>2026-05-01T14:46:36.353Z</time></trkpt><trkpt lat="44.212915" lon="8.2317217"><ele>709.0</ele><time>2026-05-01T14:46:37.35Z</time></trkpt><trkpt lat="44.2128183" lon="8.231765"><ele>709.0</ele><time>2026-05-01T14:46:38.35Z</time></trkpt><trkpt lat="44.21273" lon="8.2317717"><ele>709.0</ele><time>2026-05-01T14:46:39.352Z</time></trkpt><trkpt lat="44.212645" lon="8.2317567"><ele>709.0</ele><time>2026-05-01T14:46:40.352Z</time></trkpt><trkpt lat="44.21256" lon="8.2317183"><ele>709.0</ele><time>2026-05-01T14:46:41.351Z</time></trkpt><trkpt lat="44.2124633" lon="8.2316417"><ele>709.0</ele><time>2026-05-01T14:46:42.352Z</time></trkpt><trkpt lat="44.2123367" lon="8.2315683"><ele>709.0</ele><time>2026-05-01T14:46:43.349Z</time></trkpt><trkpt lat="44.2122" lon="8.2315033"><ele>709.0</ele><time>2026-05-01T14:46:44.352Z</time></trkpt><trkpt lat="44.21205" lon="8.231435"><ele>709.0</ele><time>2026-05-01T14:46:45.351Z</time></trkpt><trkpt lat="44.2118933" lon="8.231385"><ele>700.3333333333334</ele><time>2026-05-01T14:46:46.351Z</time></trkpt><trkpt lat="44.21173" lon="8.2313283"><ele>691.6666666666666</ele><time>2026-05-01T14:46:47.349Z</time></trkpt><trkpt lat="44.21157" lon="8.2312633"><ele>683.0</ele><time>2026-05-01T14:46:48.349Z</time></trkpt><trkpt lat="44.2114167" lon="8.2311833"><ele>682.25</ele><time>2026-05-01T14:46:49.349Z</time></trkpt><trkpt lat="44.2112733" lon="8.231115"><ele>681.5</ele><time>2026-05-01T14:46:50.35Z</time></trkpt><trkpt lat="44.2111383" lon="8.2310667"><ele>680.75</ele><time>2026-05-01T14:46:51.351Z</time></trkpt><trkpt lat="44.2110133" lon="8.2310733"><ele>680.0</ele><time>2026-05-01T14:46:52.35Z</time></trkpt><trkpt lat="44.2108983" lon="8.2311167"><ele>680.0</ele><time>2026-05-01T14:46:53.351Z</time></trkpt><trkpt lat="44.2107933" lon="8.23121"><ele>680.0</ele><time>2026-05-01T14:46:54.35Z</time></trkpt><trkpt lat="44.210685" lon="8.2313333"><ele>680.0</ele><time>2026-05-01T14:46:55.351Z</time></trkpt><trkpt lat="44.210565" lon="8.231455"><ele>680.0</ele><time>2026-05-01T14:46:56.351Z</time></trkpt><trkpt lat="44.2104517" lon="8.231565"><ele>678.0</ele><time>2026-05-01T14:46:57.355Z</time></trkpt><trkpt lat="44.2103567" lon="8.2316683"><ele>676.0</ele><time>2026-05-01T14:46:58.351Z</time></trkpt><trkpt lat="44.2102933" lon="8.2317567"><ele>674.0</ele><time>2026-05-01T14:46:59.35Z</time></trkpt><trkpt lat="44.2102617" lon="8.231865"><ele>672.0</ele><time>2026-05-01T14:47:00.352Z</time></trkpt><trkpt lat="44.21025" lon="8.2319817"><ele>670.0</ele><time>2026-05-01T14:47:01.35Z</time></trkpt><trkpt lat="44.2102767" lon="8.2321017"><ele>670.0</ele><time>2026-05-01T14:47:02.351Z</time></trkpt><trkpt lat="44.210325" lon="8.2322133"><ele>670.0</ele><time>2026-05-01T14:47:03.351Z</time></trkpt><trkpt lat="44.210415" lon="8.23232"><ele>670.0</ele><time>2026-05-01T14:47:04.351Z</time></trkpt><trkpt lat="44.2104767" lon="8.2324217"><ele>670.0</ele><time>2026-05-01T14:47:05.351Z</time></trkpt><trkpt lat="44.210505" lon="8.2325283"><ele>670.0</ele><time>2026-05-01T14:47:06.352Z</time></trkpt><trkpt lat="44.2104767" lon="8.2326267"><ele>669.25</ele><time>2026-05-01T14:47:07.357Z</time></trkpt><trkpt lat="44.2104033" lon="8.2327267"><ele>668.5</ele><time>2026-05-01T14:47:08.351Z</time></trkpt><trkpt lat="44.210305" lon="8.2328233"><ele>667.75</ele><time>2026-05-01T14:47:09.352Z</time></trkpt><trkpt lat="44.210195" lon="8.2329167"><ele>667.0</ele><time>2026-05-01T14:47:10.352Z</time></trkpt><trkpt lat="44.2100767" lon="8.233005"><ele>667.0</ele><time>2026-05-01T14:47:11.353Z</time></trkpt><trkpt lat="44.2099567" lon="8.233085"><ele>667.0</ele><time>2026-05-01T14:47:12.361Z</time></trkpt><trkpt lat="44.20984" lon="8.2331617"><ele>667.0</ele><time>2026-05-01T14:47:13.354Z</time></trkpt><trkpt lat="44.2097417" lon="8.233235"><ele>667.0</ele><time>2026-05-01T14:47:14.35Z</time></trkpt><trkpt lat="44.209665" lon="8.23334"><ele>663.75</ele><time>2026-05-01T14:47:15.354Z</time></trkpt><trkpt lat="44.20962" lon="8.2334767"><ele>660.5</ele><time>2026-05-01T14:47:16.353Z</time></trkpt><trkpt lat="44.2095983" lon="8.2336467"><ele>657.25</ele><time>2026-05-01T14:47:17.35Z</time></trkpt><trkpt lat="44.2095933" lon="8.233835"><ele>654.0</ele><time>2026-05-01T14:47:18.355Z</time></trkpt><trkpt lat="44.2096033" lon="8.2340233"><ele>654.0</ele><time>2026-05-01T14:47:19.354Z</time></trkpt><trkpt lat="44.2096233" lon="8.23421"><ele>654.0</ele><time>2026-05-01T14:47:20.353Z</time></trkpt><trkpt lat="44.20963" lon="8.2344017"><ele>654.0</ele><time>2026-05-01T14:47:21.355Z</time></trkpt><trkpt lat="44.2096267" lon="8.2345883"><ele>654.0</ele><time>2026-05-01T14:47:22.353Z</time></trkpt><trkpt lat="44.2096117" lon="8.2347667"><ele>652.8000000000001</ele><time>2026-05-01T14:47:23.352Z</time></trkpt><trkpt lat="44.2095933" lon="8.2349317"><ele>651.6</ele><time>2026-05-01T14:47:24.354Z</time></trkpt><trkpt lat="44.2095733" lon="8.2350767"><ele>650.4</ele><time>2026-05-01T14:47:25.353Z</time></trkpt><trkpt lat="44.2095467" lon="8.2352067"><ele>649.2</ele><time>2026-05-01T14:47:26.353Z</time></trkpt><trkpt lat="44.209515" lon="8.2353333"><ele>648.0</ele><time>2026-05-01T14:47:27.352Z</time></trkpt><trkpt lat="44.20948" lon="8.235455"><ele>648.0</ele><time>2026-05-01T14:47:28.349Z</time></trkpt><trkpt lat="44.2094367" lon="8.235585"><ele>648.0</ele><time>2026-05-01T14:47:29.353Z</time></trkpt><trkpt lat="44.2093833" lon="8.2357183"><ele>648.0</ele><time>2026-05-01T14:47:30.354Z</time></trkpt><trkpt lat="44.209325" lon="8.2358517"><ele>648.0</ele><time>2026-05-01T14:47:31.352Z</time></trkpt><trkpt lat="44.2092683" lon="8.2359817"><ele>648.0</ele><time>2026-05-01T14:47:32.353Z</time></trkpt><trkpt lat="44.209215" lon="8.2361"><ele>648.5</ele><time>2026-05-01T14:47:33.349Z</time></trkpt><trkpt lat="44.2091683" lon="8.2362067"><ele>649.0</ele><time>2026-05-01T14:47:34.35Z</time></trkpt><trkpt lat="44.2091267" lon="8.236305"><ele>649.5</ele><time>2026-05-01T14:47:35.35Z</time></trkpt><trkpt lat="44.2090833" lon="8.2364"><ele>650.0</ele><time>2026-05-01T14:47:36.353Z</time></trkpt><trkpt lat="44.2090267" lon="8.2365033"><ele>650.5</ele><time>2026-05-01T14:47:37.352Z</time></trkpt><trkpt lat="44.2089667" lon="8.2366133"><ele>651.0</ele><time>2026-05-01T14:47:38.354Z</time></trkpt><trkpt lat="44.2089083" lon="8.236735"><ele>644.75</ele><time>2026-05-01T14:47:39.357Z</time></trkpt><trkpt lat="44.20886" lon="8.2368717"><ele>638.5</ele><time>2026-05-01T14:47:40.35Z</time></trkpt><trkpt lat="44.2088217" lon="8.2370133"><ele>632.25</ele><time>2026-05-01T14:47:41.348Z</time></trkpt><trkpt lat="44.208795" lon="8.2371667"><ele>626.0</ele><time>2026-05-01T14:47:42.351Z</time></trkpt><trkpt lat="44.2087817" lon="8.23735"><ele>626.0</ele><time>2026-05-01T14:47:43.351Z</time></trkpt><trkpt lat="44.2087733" lon="8.23757"><ele>626.0</ele><time>2026-05-01T14:47:44.352Z</time></trkpt><trkpt lat="44.2087617" lon="8.237815"><ele>626.0</ele><time>2026-05-01T14:47:45.354Z</time></trkpt><trkpt lat="44.208745" lon="8.2380733"><ele>626.3333333333333</ele><time>2026-05-01T14:47:46.353Z</time></trkpt><trkpt lat="44.208725" lon="8.2383517"><ele>626.6666666666666</ele><time>2026-05-01T14:47:47.35Z</time></trkpt><trkpt lat="44.2087017" lon="8.2386433"><ele>627.0</ele><time>2026-05-01T14:47:48.351Z</time></trkpt><trkpt lat="44.20867" lon="8.2389417"><ele>627.0</ele><time>2026-05-01T14:47:49.355Z</time></trkpt><trkpt lat="44.208625" lon="8.2392417"><ele>627.0</ele><time>2026-05-01T14:47:50.351Z</time></trkpt><trkpt lat="44.208565" lon="8.2395317"><ele>627.0</ele><time>2026-05-01T14:47:51.349Z</time></trkpt><trkpt lat="44.2085067" lon="8.2398"><ele>626.3333333333334</ele><time>2026-05-01T14:47:52.354Z</time></trkpt><trkpt lat="44.20845" lon="8.2400417"><ele>625.6666666666667</ele><time>2026-05-01T14:47:53.351Z</time></trkpt><trkpt lat="44.208405" lon="8.2402483"><ele>625.0</ele><time>2026-05-01T14:47:54.354Z</time></trkpt><trkpt lat="44.208375" lon="8.2404383"><ele>625.0</ele><time>2026-05-01T14:47:55.351Z</time></trkpt><trkpt lat="44.2083667" lon="8.2406183"><ele>625.0</ele><time>2026-05-01T14:47:56.353Z</time></trkpt><trkpt lat="44.20841" lon="8.2407767"><ele>625.0</ele><time>2026-05-01T14:47:57.351Z</time></trkpt><trkpt lat="44.2084683" lon="8.2409383"><ele>625.0</ele><time>2026-05-01T14:47:58.353Z</time></trkpt><trkpt lat="44.2085" lon="8.241105"><ele>625.0</ele><time>2026-05-01T14:47:59.351Z</time></trkpt><trkpt lat="44.2084917" lon="8.24126"><ele>625.0</ele><time>2026-05-01T14:48:00.355Z</time></trkpt><trkpt lat="44.208435" lon="8.2414033"><ele>625.0</ele><time>2026-05-01T14:48:01.349Z</time></trkpt><trkpt lat="44.20835" lon="8.241565"><ele>625.0</ele><time>2026-05-01T14:48:02.351Z</time></trkpt><trkpt lat="44.2082433" lon="8.2417533"><ele>618.0</ele><time>2026-05-01T14:48:03.352Z</time></trkpt><trkpt lat="44.2081367" lon="8.241955"><ele>611.0</ele><time>2026-05-01T14:48:04.352Z</time></trkpt><trkpt lat="44.208025" lon="8.24217"><ele>604.0</ele><time>2026-05-01T14:48:05.354Z</time></trkpt><trkpt lat="44.2079167" lon="8.2424017"><ele>604.0</ele><time>2026-05-01T14:48:06.35Z</time></trkpt><trkpt lat="44.2078083" lon="8.2426383"><ele>604.0</ele><time>2026-05-01T14:48:07.353Z</time></trkpt><trkpt lat="44.2076933" lon="8.2428833"><ele>604.0</ele><time>2026-05-01T14:48:08.359Z</time></trkpt><trkpt lat="44.2075867" lon="8.2431267"><ele>607.0</ele><time>2026-05-01T14:48:09.353Z</time></trkpt><trkpt lat="44.2074783" lon="8.24337"><ele>610.0</ele><time>2026-05-01T14:48:10.354Z</time></trkpt><trkpt lat="44.2073733" lon="8.2436067"><ele>613.0</ele><time>2026-05-01T14:48:11.35Z</time></trkpt><trkpt lat="44.2072717" lon="8.24384"><ele>605.0</ele><time>2026-05-01T14:48:12.357Z</time></trkpt><trkpt lat="44.2071717" lon="8.2440617"><ele>597.0</ele><time>2026-05-01T14:48:13.354Z</time></trkpt><trkpt lat="44.2070783" lon="8.244265"><ele>589.0</ele><time>2026-05-01T14:48:14.352Z</time></trkpt><trkpt lat="44.206995" lon="8.2444517"><ele>589.0</ele><time>2026-05-01T14:48:15.352Z</time></trkpt><trkpt lat="44.206915" lon="8.2446117"><ele>589.0</ele><time>2026-05-01T14:48:16.351Z</time></trkpt><trkpt lat="44.20683" lon="8.2447333"><ele>589.0</ele><time>2026-05-01T14:48:17.352Z</time></trkpt><trkpt lat="44.2067417" lon="8.2448333"><ele>589.0</ele><time>2026-05-01T14:48:18.352Z</time></trkpt><trkpt lat="44.206665" lon="8.2449217"><ele>590.2</ele><time>2026-05-01T14:48:19.355Z</time></trkpt><trkpt lat="44.2066233" lon="8.24503"><ele>591.4</ele><time>2026-05-01T14:48:20.349Z</time></trkpt><trkpt lat="44.206615" lon="8.2451483"><ele>592.6</ele><time>2026-05-01T14:48:21.349Z</time></trkpt><trkpt lat="44.2066467" lon="8.2452767"><ele>593.8</ele><time>2026-05-01T14:48:22.35Z</time></trkpt><trkpt lat="44.2067133" lon="8.2454333"><ele>595.0</ele><time>2026-05-01T14:48:23.352Z</time></trkpt><trkpt lat="44.20679" lon="8.2455867"><ele>595.0</ele><time>2026-05-01T14:48:24.352Z</time></trkpt><trkpt lat="44.206855" lon="8.245735"><ele>595.0</ele><time>2026-05-01T14:48:25.356Z</time></trkpt><trkpt lat="44.2068967" lon="8.2458667"><ele>595.0</ele><time>2026-05-01T14:48:26.35Z</time></trkpt><trkpt lat="44.2069133" lon="8.2459817"><ele>595.0</ele><time>2026-05-01T14:48:27.351Z</time></trkpt><trkpt lat="44.2068983" lon="8.246085"><ele>595.0</ele><time>2026-05-01T14:48:28.349Z</time></trkpt><trkpt lat="44.2068483" lon="8.2461633"><ele>595.0</ele><time>2026-05-01T14:48:29.348Z</time></trkpt><trkpt lat="44.2067517" lon="8.2462133"><ele>595.0</ele><time>2026-05-01T14:48:30.35Z</time></trkpt><trkpt lat="44.2066517" lon="8.24628"><ele>595.0</ele><time>2026-05-01T14:48:31.349Z</time></trkpt><trkpt lat="44.2065633" lon="8.2463617"><ele>595.0</ele><time>2026-05-01T14:48:32.35Z</time></trkpt><trkpt lat="44.2064867" lon="8.24647"><ele>595.0</ele><time>2026-05-01T14:48:33.351Z</time></trkpt><trkpt lat="44.2064267" lon="8.2465783"><ele>592.6</ele><time>2026-05-01T14:48:34.349Z</time></trkpt><trkpt lat="44.206355" lon="8.246665"><ele>590.2</ele><time>2026-05-01T14:48:35.352Z</time></trkpt><trkpt lat="44.2062617" lon="8.2467033"><ele>587.8</ele><time>2026-05-01T14:48:36.355Z</time></trkpt><trkpt lat="44.2061583" lon="8.24673"><ele>585.4</ele><time>2026-05-01T14:48:37.35Z</time></trkpt><trkpt lat="44.206045" lon="8.24677"><ele>583.0</ele><time>2026-05-01T14:48:38.348Z</time></trkpt><trkpt lat="44.20592" lon="8.2468183"><ele>583.0</ele><time>2026-05-01T14:48:39.366Z</time></trkpt><trkpt lat="44.205785" lon="8.24686"><ele>583.0</ele><time>2026-05-01T14:48:40.359Z</time></trkpt><trkpt lat="44.2056367" lon="8.2468733"><ele>583.0</ele><time>2026-05-01T14:48:41.352Z</time></trkpt><trkpt lat="44.2054783" lon="8.246855"><ele>583.0</ele><time>2026-05-01T14:48:42.351Z</time></trkpt><trkpt lat="44.2053233" lon="8.246805"><ele>581.5</ele><time>2026-05-01T14:48:43.349Z</time></trkpt><trkpt lat="44.2051817" lon="8.2467433"><ele>580.0</ele><time>2026-05-01T14:48:44.349Z</time></trkpt><trkpt lat="44.205055" lon="8.2466867"><ele>578.5</ele><time>2026-05-01T14:48:45.355Z</time></trkpt><trkpt lat="44.2049333" lon="8.2466483"><ele>577.0</ele><time>2026-05-01T14:48:46.351Z</time></trkpt><trkpt lat="44.2048167" lon="8.24665"><ele>571.5</ele><time>2026-05-01T14:48:47.35Z</time></trkpt><trkpt lat="44.204715" lon="8.24671"><ele>566.0</ele><time>2026-05-01T14:48:48.351Z</time></trkpt><trkpt lat="44.2046267" lon="8.2468167"><ele>560.5</ele><time>2026-05-01T14:48:49.35Z</time></trkpt><trkpt lat="44.204555" lon="8.2469617"><ele>555.0</ele><time>2026-05-01T14:48:50.352Z</time></trkpt><trkpt lat="44.2045167" lon="8.2471383"><ele>556.0</ele><time>2026-05-01T14:48:51.355Z</time></trkpt><trkpt lat="44.204515" lon="8.2473083"><ele>557.0</ele><time>2026-05-01T14:48:52.355Z</time></trkpt><trkpt lat="44.204555" lon="8.2474667"><ele>558.0</ele><time>2026-05-01T14:48:53.35Z</time></trkpt><trkpt lat="44.20462" lon="8.2476033"><ele>559.0</ele><time>2026-05-01T14:48:54.354Z</time></trkpt><trkpt lat="44.2046883" lon="8.2477267"><ele>559.0</ele><time>2026-05-01T14:48:55.353Z</time></trkpt><trkpt lat="44.2047433" lon="8.2478433"><ele>559.0</ele><time>2026-05-01T14:48:56.35Z</time></trkpt><trkpt lat="44.2047767" lon="8.2479533"><ele>559.0</ele><time>2026-05-01T14:48:57.351Z</time></trkpt><trkpt lat="44.2047883" lon="8.2480617"><ele>559.0</ele><time>2026-05-01T14:48:58.353Z</time></trkpt><trkpt lat="44.2047783" lon="8.2481583"><ele>559.0</ele><time>2026-05-01T14:48:59.35Z</time></trkpt><trkpt lat="44.20475" lon="8.2482467"><ele>559.0</ele><time>2026-05-01T14:49:00.349Z</time></trkpt><trkpt lat="44.20466" lon="8.2483367"><ele>559.0</ele><time>2026-05-01T14:49:02.354Z</time></trkpt><trkpt lat="44.204555" lon="8.2483283"><ele>559.0</ele><time>2026-05-01T14:49:04.355Z</time></trkpt><trkpt lat="44.20446" lon="8.2482233"><ele>559.0</ele><time>2026-05-01T14:49:06.351Z</time></trkpt><trkpt lat="44.2044067" lon="8.24815"><ele>559.0</ele><time>2026-05-01T14:49:07.35Z</time></trkpt><trkpt lat="44.2043483" lon="8.2480917"><ele>559.0</ele><time>2026-05-01T14:49:08.352Z</time></trkpt><trkpt lat="44.2042883" lon="8.2480367"><ele>559.0</ele><time>2026-05-01T14:49:09.354Z</time></trkpt><trkpt lat="44.20423" lon="8.2479917"><ele>559.0</ele><time>2026-05-01T14:49:10.351Z</time></trkpt><trkpt lat="44.2041667" lon="8.2479683"><ele>559.0</ele><time>2026-05-01T14:49:11.349Z</time></trkpt><trkpt lat="44.204095" lon="8.2479717"><ele>559.0</ele><time>2026-05-01T14:49:12.354Z</time></trkpt><trkpt lat="44.2040233" lon="8.2479817"><ele>559.0</ele><time>2026-05-01T14:49:13.356Z</time></trkpt><trkpt lat="44.2039517" lon="8.248005"><ele>559.0</ele><time>2026-05-01T14:49:14.35Z</time></trkpt><trkpt lat="44.2038867" lon="8.2480467"><ele>559.0</ele><time>2026-05-01T14:49:15.35Z</time></trkpt><trkpt lat="44.2038267" lon="8.2481"><ele>559.0</ele><time>2026-05-01T14:49:16.35Z</time></trkpt><trkpt lat="44.2037733" lon="8.2481633"><ele>556.6666666666667</ele><time>2026-05-01T14:49:17.35Z</time></trkpt><trkpt lat="44.203725" lon="8.2482367"><ele>554.3333333333334</ele><time>2026-05-01T14:49:18.356Z</time></trkpt><trkpt lat="44.203675" lon="8.2483217"><ele>552.0</ele><time>2026-05-01T14:49:19.35Z</time></trkpt><trkpt lat="44.2036283" lon="8.2484167"><ele>549.6666666666666</ele><time>2026-05-01T14:49:20.349Z</time></trkpt><trkpt lat="44.2035917" lon="8.24852"><ele>547.3333333333333</ele><time>2026-05-01T14:49:21.353Z</time></trkpt><trkpt lat="44.20356" lon="8.2486433"><ele>545.0</ele><time>2026-05-01T14:49:22.352Z</time></trkpt><trkpt lat="44.2035267" lon="8.2488183"><ele>548.3333333333333</ele><time>2026-05-01T14:49:23.35Z</time></trkpt><trkpt lat="44.2034683" lon="8.249005"><ele>551.6666666666666</ele><time>2026-05-01T14:49:24.351Z</time></trkpt><trkpt lat="44.2033867" lon="8.249195"><ele>555.0</ele><time>2026-05-01T14:49:25.35Z</time></trkpt><trkpt lat="44.2032917" lon="8.2493817"><ele>555.0</ele><time>2026-05-01T14:49:26.349Z</time></trkpt><trkpt lat="44.2031967" lon="8.249565"><ele>555.0</ele><time>2026-05-01T14:49:27.348Z</time></trkpt><trkpt lat="44.203095" lon="8.249735"><ele>555.0</ele><time>2026-05-01T14:49:28.351Z</time></trkpt><trkpt lat="44.2029883" lon="8.2498933"><ele>550.25</ele><time>2026-05-01T14:49:29.348Z</time></trkpt><trkpt lat="44.202875" lon="8.250045"><ele>545.5</ele><time>2026-05-01T14:49:30.349Z</time></trkpt><trkpt lat="44.2027717" lon="8.25018"><ele>540.75</ele><time>2026-05-01T14:49:31.353Z</time></trkpt><trkpt lat="44.202685" lon="8.2503033"><ele>536.0</ele><time>2026-05-01T14:49:32.355Z</time></trkpt><trkpt lat="44.2026283" lon="8.2504267"><ele>536.0</ele><time>2026-05-01T14:49:33.353Z</time></trkpt><trkpt lat="44.2026133" lon="8.2505567"><ele>536.0</ele><time>2026-05-01T14:49:34.349Z</time></trkpt><trkpt lat="44.202635" lon="8.2506917"><ele>536.0</ele><time>2026-05-01T14:49:35.352Z</time></trkpt><trkpt lat="44.20267" lon="8.2508367"><ele>536.0</ele><time>2026-05-01T14:49:36.349Z</time></trkpt><trkpt lat="44.2026867" lon="8.2509883"><ele>536.0</ele><time>2026-05-01T14:49:37.351Z</time></trkpt><trkpt lat="44.20267" lon="8.2511317"><ele>536.6</ele><time>2026-05-01T14:49:38.348Z</time></trkpt><trkpt lat="44.2026133" lon="8.2512567"><ele>537.2</ele><time>2026-05-01T14:49:39.349Z</time></trkpt><trkpt lat="44.2025217" lon="8.25134"><ele>537.8</ele><time>2026-05-01T14:49:40.349Z</time></trkpt><trkpt lat="44.2024217" lon="8.251405"><ele>538.4</ele><time>2026-05-01T14:49:41.351Z</time></trkpt><trkpt lat="44.2023117" lon="8.25145"><ele>539.0</ele><time>2026-05-01T14:49:42.355Z</time></trkpt><trkpt lat="44.2022233" lon="8.2515117"><ele>536.5</ele><time>2026-05-01T14:49:43.35Z</time></trkpt><trkpt lat="44.202155" lon="8.2515883"><ele>534.0</ele><time>2026-05-01T14:49:44.351Z</time></trkpt><trkpt lat="44.2021017" lon="8.2516767"><ele>531.5</ele><time>2026-05-01T14:49:45.351Z</time></trkpt><trkpt lat="44.2020633" lon="8.2517683"><ele>529.0</ele><time>2026-05-01T14:49:46.357Z</time></trkpt><trkpt lat="44.2020383" lon="8.25187"><ele>526.5</ele><time>2026-05-01T14:49:47.352Z</time></trkpt><trkpt lat="44.2020233" lon="8.25198"><ele>524.0</ele><time>2026-05-01T14:49:48.35Z</time></trkpt><trkpt lat="44.2020217" lon="8.2520917"><ele>524.0</ele><time>2026-05-01T14:49:49.353Z</time></trkpt><trkpt lat="44.202035" lon="8.2521983"><ele>524.0</ele><time>2026-05-01T14:49:50.352Z</time></trkpt><trkpt lat="44.2020567" lon="8.2522983"><ele>524.0</ele><time>2026-05-01T14:49:51.351Z</time></trkpt><trkpt lat="44.2020733" lon="8.252395"><ele>524.0</ele><time>2026-05-01T14:49:52.349Z</time></trkpt><trkpt lat="44.202085" lon="8.252495"><ele>524.0</ele><time>2026-05-01T14:49:53.351Z</time></trkpt><trkpt lat="44.2020833" lon="8.2526067"><ele>524.0</ele><time>2026-05-01T14:49:54.349Z</time></trkpt><trkpt lat="44.202075" lon="8.2527183"><ele>523.6666666666666</ele><time>2026-05-01T14:49:55.352Z</time></trkpt><trkpt lat="44.2020533" lon="8.2528317"><ele>523.3333333333333</ele><time>2026-05-01T14:49:56.357Z</time></trkpt><trkpt lat="44.2020233" lon="8.25294"><ele>523.0</ele><time>2026-05-01T14:49:57.35Z</time></trkpt><trkpt lat="44.201985" lon="8.2530383"><ele>522.6666666666666</ele><time>2026-05-01T14:49:58.35Z</time></trkpt><trkpt lat="44.2019517" lon="8.253135"><ele>522.3333333333334</ele><time>2026-05-01T14:49:59.35Z</time></trkpt><trkpt lat="44.2019217" lon="8.253235"><ele>522.0</ele><time>2026-05-01T14:50:00.353Z</time></trkpt><trkpt lat="44.2019017" lon="8.2533367"><ele>522.0</ele><time>2026-05-01T14:50:01.351Z</time></trkpt><trkpt lat="44.2018967" lon="8.2534367"><ele>522.0</ele><time>2026-05-01T14:50:02.35Z</time></trkpt><trkpt lat="44.2019017" lon="8.2535417"><ele>522.0</ele><time>2026-05-01T14:50:03.352Z</time></trkpt><trkpt lat="44.20192" lon="8.2536417"><ele>522.0</ele><time>2026-05-01T14:50:04.359Z</time></trkpt><trkpt lat="44.2019483" lon="8.253735"><ele>522.0</ele><time>2026-05-01T14:50:05.349Z</time></trkpt><trkpt lat="44.201985" lon="8.2538267"><ele>522.0</ele><time>2026-05-01T14:50:06.352Z</time></trkpt><trkpt lat="44.2020267" lon="8.25391"><ele>522.0</ele><time>2026-05-01T14:50:07.349Z</time></trkpt><trkpt lat="44.2020717" lon="8.253985"><ele>520.8571428571429</ele><time>2026-05-01T14:50:08.349Z</time></trkpt><trkpt lat="44.2021133" lon="8.2540583"><ele>519.7142857142857</ele><time>2026-05-01T14:50:09.35Z</time></trkpt><trkpt lat="44.20215" lon="8.2541383"><ele>518.5714285714286</ele><time>2026-05-01T14:50:10.35Z</time></trkpt><trkpt lat="44.2021717" lon="8.2542233"><ele>517.4285714285714</ele><time>2026-05-01T14:50:11.35Z</time></trkpt><trkpt lat="44.202175" lon="8.2543133"><ele>516.2857142857143</ele><time>2026-05-01T14:50:12.351Z</time></trkpt><trkpt lat="44.20215" lon="8.2544083"><ele>515.1428571428571</ele><time>2026-05-01T14:50:13.352Z</time></trkpt><trkpt lat="44.2021017" lon="8.2544967"><ele>514.0</ele><time>2026-05-01T14:50:14.35Z</time></trkpt><trkpt lat="44.202025" lon="8.25457"><ele>514.0</ele><time>2026-05-01T14:50:15.35Z</time></trkpt><trkpt lat="44.20194" lon="8.25462"><ele>514.0</ele><time>2026-05-01T14:50:16.349Z</time></trkpt><trkpt lat="44.2018567" lon="8.254665"><ele>514.0</ele><time>2026-05-01T14:50:17.355Z</time></trkpt><trkpt lat="44.2017817" lon="8.2547117"><ele>514.0</ele><time>2026-05-01T14:50:18.35Z</time></trkpt><trkpt lat="44.201715" lon="8.25476"><ele>514.0</ele><time>2026-05-01T14:50:19.352Z</time></trkpt><trkpt lat="44.2016533" lon="8.2548267"><ele>514.0</ele><time>2026-05-01T14:50:20.351Z</time></trkpt><trkpt lat="44.2016033" lon="8.25491"><ele>514.0</ele><time>2026-05-01T14:50:21.352Z</time></trkpt><trkpt lat="44.20157" lon="8.255015"><ele>514.0</ele><time>2026-05-01T14:50:22.348Z</time></trkpt><trkpt lat="44.2015533" lon="8.255155"><ele>514.0</ele><time>2026-05-01T14:50:23.353Z</time></trkpt><trkpt lat="44.201555" lon="8.2553333"><ele>514.0</ele><time>2026-05-01T14:50:24.349Z</time></trkpt><trkpt lat="44.201555" lon="8.25552"><ele>514.0</ele><time>2026-05-01T14:50:25.351Z</time></trkpt><trkpt lat="44.2015417" lon="8.255705"><ele>514.0</ele><time>2026-05-01T14:50:26.349Z</time></trkpt><trkpt lat="44.2015083" lon="8.2558783"><ele>514.0</ele><time>2026-05-01T14:50:27.35Z</time></trkpt><trkpt lat="44.2014483" lon="8.2560233"><ele>514.0</ele><time>2026-05-01T14:50:28.352Z</time></trkpt><trkpt lat="44.201365" lon="8.2561517"><ele>514.0</ele><time>2026-05-01T14:50:29.349Z</time></trkpt><trkpt lat="44.2012667" lon="8.2562783"><ele>508.25</ele><time>2026-05-01T14:50:30.351Z</time></trkpt><trkpt lat="44.2011733" lon="8.2564133"><ele>502.5</ele><time>2026-05-01T14:50:31.349Z</time></trkpt><trkpt lat="44.2011083" lon="8.2565717"><ele>496.75</ele><time>2026-05-01T14:50:32.354Z</time></trkpt><trkpt lat="44.2010783" lon="8.256755"><ele>491.0</ele><time>2026-05-01T14:50:33.353Z</time></trkpt><trkpt lat="44.201085" lon="8.2569517"><ele>491.0</ele><time>2026-05-01T14:50:34.348Z</time></trkpt><trkpt lat="44.201115" lon="8.2571417"><ele>491.0</ele><time>2026-05-01T14:50:35.35Z</time></trkpt><trkpt lat="44.2011383" lon="8.2573317"><ele>491.0</ele><time>2026-05-01T14:50:36.35Z</time></trkpt><trkpt lat="44.20114" lon="8.2575233"><ele>491.0</ele><time>2026-05-01T14:50:37.356Z</time></trkpt><trkpt lat="44.2011183" lon="8.257705"><ele>491.25</ele><time>2026-05-01T14:50:38.349Z</time></trkpt><trkpt lat="44.2010683" lon="8.257865"><ele>491.5</ele><time>2026-05-01T14:50:39.349Z</time></trkpt><trkpt lat="44.2009933" lon="8.2580033"><ele>491.75</ele><time>2026-05-01T14:50:40.35Z</time></trkpt><trkpt lat="44.2008933" lon="8.258115"><ele>492.0</ele><time>2026-05-01T14:50:41.353Z</time></trkpt><trkpt lat="44.2007717" lon="8.258195"><ele>488.25</ele><time>2026-05-01T14:50:42.352Z</time></trkpt><trkpt lat="44.200635" lon="8.2582433"><ele>484.5</ele><time>2026-05-01T14:50:43.351Z</time></trkpt><trkpt lat="44.200485" lon="8.2582583"><ele>480.75</ele><time>2026-05-01T14:50:44.352Z</time></trkpt><trkpt lat="44.2003333" lon="8.2582567"><ele>477.0</ele><time>2026-05-01T14:50:45.351Z</time></trkpt><trkpt lat="44.200185" lon="8.2582717"><ele>477.0</ele><time>2026-05-01T14:50:46.353Z</time></trkpt><trkpt lat="44.200045" lon="8.25832"><ele>477.0</ele><time>2026-05-01T14:50:47.351Z</time></trkpt><trkpt lat="44.19991" lon="8.258415"><ele>477.0</ele><time>2026-05-01T14:50:48.354Z</time></trkpt><trkpt lat="44.1997967" lon="8.258545"><ele>477.0</ele><time>2026-05-01T14:50:49.349Z</time></trkpt><trkpt lat="44.1997133" lon="8.258695"><ele>469.0</ele><time>2026-05-01T14:50:50.349Z</time></trkpt><trkpt lat="44.1996783" lon="8.25886"><ele>461.0</ele><time>2026-05-01T14:50:51.354Z</time></trkpt><trkpt lat="44.1996883" lon="8.2590317"><ele>453.0</ele><time>2026-05-01T14:50:52.351Z</time></trkpt><trkpt lat="44.1997383" lon="8.2591917"><ele>445.0</ele><time>2026-05-01T14:50:53.349Z</time></trkpt><trkpt lat="44.1998267" lon="8.2593333"><ele>454.0</ele><time>2026-05-01T14:50:54.349Z</time></trkpt><trkpt lat="44.1999417" lon="8.2594533"><ele>463.0</ele><time>2026-05-01T14:50:55.359Z</time></trkpt><trkpt lat="44.2000767" lon="8.2595467"><ele>472.0</ele><time>2026-05-01T14:50:56.352Z</time></trkpt><trkpt lat="44.200215" lon="8.259615"><ele>481.0</ele><time>2026-05-01T14:50:57.351Z</time></trkpt><trkpt lat="44.2003433" lon="8.2596717"><ele>481.0</ele><time>2026-05-01T14:50:58.35Z</time></trkpt><trkpt lat="44.200455" lon="8.25974"><ele>481.0</ele><time>2026-05-01T14:50:59.351Z</time></trkpt><trkpt lat="44.2005467" lon="8.259835"><ele>481.0</ele><time>2026-05-01T14:51:00.354Z</time></trkpt><trkpt lat="44.2006017" lon="8.2599567"><ele>481.0</ele><time>2026-05-01T14:51:01.351Z</time></trkpt><trkpt lat="44.2006167" lon="8.260095"><ele>481.0</ele><time>2026-05-01T14:51:02.359Z</time></trkpt><trkpt lat="44.2005983" lon="8.2602433"><ele>478.75</ele><time>2026-05-01T14:51:03.35Z</time></trkpt><trkpt lat="44.200545" lon="8.2603867"><ele>476.5</ele><time>2026-05-01T14:51:04.35Z</time></trkpt><trkpt lat="44.200455" lon="8.260505"><ele>474.25</ele><time>2026-05-01T14:51:05.354Z</time></trkpt><trkpt lat="44.2003433" lon="8.2606017"><ele>472.0</ele><time>2026-05-01T14:51:06.349Z</time></trkpt><trkpt lat="44.2002183" lon="8.2606617"><ele>472.0</ele><time>2026-05-01T14:51:07.353Z</time></trkpt><trkpt lat="44.2000817" lon="8.2606917"><ele>472.0</ele><time>2026-05-01T14:51:08.352Z</time></trkpt><trkpt lat="44.19994" lon="8.2606733"><ele>472.0</ele><time>2026-05-01T14:51:09.351Z</time></trkpt><trkpt lat="44.1998" lon="8.2605983"><ele>472.0</ele><time>2026-05-01T14:51:10.349Z</time></trkpt><trkpt lat="44.19966" lon="8.2605167"><ele>464.75</ele><time>2026-05-01T14:51:11.354Z</time></trkpt><trkpt lat="44.1995167" lon="8.2604567"><ele>457.5</ele><time>2026-05-01T14:51:12.349Z</time></trkpt><trkpt lat="44.19938" lon="8.2604283"><ele>450.25</ele><time>2026-05-01T14:51:13.354Z</time></trkpt><trkpt lat="44.1992517" lon="8.26044"><ele>443.0</ele><time>2026-05-01T14:51:14.349Z</time></trkpt><trkpt lat="44.1991383" lon="8.2605083"><ele>446.25</ele><time>2026-05-01T14:51:15.352Z</time></trkpt><trkpt lat="44.1990467" lon="8.2606233"><ele>449.5</ele><time>2026-05-01T14:51:16.352Z</time></trkpt><trkpt lat="44.1989967" lon="8.26077"><ele>452.75</ele><time>2026-05-01T14:51:17.352Z</time></trkpt><trkpt lat="44.1989783" lon="8.2609483"><ele>456.0</ele><time>2026-05-01T14:51:18.352Z</time></trkpt><trkpt lat="44.19895" lon="8.2611433"><ele>446.33333333333337</ele><time>2026-05-01T14:51:19.357Z</time></trkpt><trkpt lat="44.19891" lon="8.2613517"><ele>436.6666666666667</ele><time>2026-05-01T14:51:20.35Z</time></trkpt><trkpt lat="44.1988567" lon="8.2615717"><ele>427.0</ele><time>2026-05-01T14:51:21.352Z</time></trkpt><trkpt lat="44.198815" lon="8.261785"><ele>427.0</ele><time>2026-05-01T14:51:22.35Z</time></trkpt><trkpt lat="44.1987917" lon="8.2619917"><ele>427.0</ele><time>2026-05-01T14:51:23.353Z</time></trkpt><trkpt lat="44.1987967" lon="8.26219"><ele>427.0</ele><time>2026-05-01T14:51:24.353Z</time></trkpt><trkpt lat="44.1988367" lon="8.2623767"><ele>427.0</ele><time>2026-05-01T14:51:25.353Z</time></trkpt><trkpt lat="44.19891" lon="8.2625283"><ele>432.25</ele><time>2026-05-01T14:51:26.351Z</time></trkpt><trkpt lat="44.199005" lon="8.262655"><ele>437.5</ele><time>2026-05-01T14:51:27.352Z</time></trkpt><trkpt lat="44.1991033" lon="8.262775"><ele>442.75</ele><time>2026-05-01T14:51:28.352Z</time></trkpt><trkpt lat="44.1991817" lon="8.2629083"><ele>448.0</ele><time>2026-05-01T14:51:29.35Z</time></trkpt><trkpt lat="44.19923" lon="8.2630567"><ele>446.79999999999995</ele><time>2026-05-01T14:51:30.349Z</time></trkpt><trkpt lat="44.1992333" lon="8.2632017"><ele>445.59999999999997</ele><time>2026-05-01T14:51:31.351Z</time></trkpt><trkpt lat="44.1991967" lon="8.2633367"><ele>444.40000000000003</ele><time>2026-05-01T14:51:32.349Z</time></trkpt><trkpt lat="44.1991267" lon="8.2634383"><ele>443.20000000000005</ele><time>2026-05-01T14:51:33.351Z</time></trkpt><trkpt lat="44.199025" lon="8.2635"><ele>442.0</ele><time>2026-05-01T14:51:34.352Z</time></trkpt><trkpt lat="44.198905" lon="8.2635233"><ele>436.0</ele><time>2026-05-01T14:51:35.352Z</time></trkpt><trkpt lat="44.1987867" lon="8.2635317"><ele>430.0</ele><time>2026-05-01T14:51:36.352Z</time></trkpt><trkpt lat="44.198665" lon="8.263565"><ele>424.0</ele><time>2026-05-01T14:51:37.35Z</time></trkpt><trkpt lat="44.1985533" lon="8.263645"><ele>418.0</ele><time>2026-05-01T14:51:38.35Z</time></trkpt><trkpt lat="44.198455" lon="8.2637533"><ele>418.0</ele><time>2026-05-01T14:51:39.354Z</time></trkpt><trkpt lat="44.1983783" lon="8.2638983"><ele>418.0</ele><time>2026-05-01T14:51:40.35Z</time></trkpt><trkpt lat="44.1983233" lon="8.2640733"><ele>418.0</ele><time>2026-05-01T14:51:41.353Z</time></trkpt><trkpt lat="44.1982917" lon="8.2642617"><ele>418.0</ele><time>2026-05-01T14:51:42.351Z</time></trkpt><trkpt lat="44.198265" lon="8.26446"><ele>419.75</ele><time>2026-05-01T14:51:43.354Z</time></trkpt><trkpt lat="44.1982383" lon="8.26466"><ele>421.5</ele><time>2026-05-01T14:51:44.352Z</time></trkpt><trkpt lat="44.1982067" lon="8.2648483"><ele>423.25</ele><time>2026-05-01T14:51:45.353Z</time></trkpt><trkpt lat="44.1981633" lon="8.265025"><ele>425.0</ele><time>2026-05-01T14:51:46.348Z</time></trkpt><trkpt lat="44.1981" lon="8.265185"><ele>420.25</ele><time>2026-05-01T14:51:47.349Z</time></trkpt><trkpt lat="44.1980133" lon="8.2653217"><ele>415.5</ele><time>2026-05-01T14:51:48.353Z</time></trkpt><trkpt lat="44.19792" lon="8.265435"><ele>410.75</ele><time>2026-05-01T14:51:49.353Z</time></trkpt><trkpt lat="44.1978367" lon="8.2655483"><ele>406.0</ele><time>2026-05-01T14:51:50.359Z</time></trkpt><trkpt lat="44.197785" lon="8.26568"><ele>406.0</ele><time>2026-05-01T14:51:51.349Z</time></trkpt><trkpt lat="44.1977717" lon="8.26583"><ele>406.0</ele><time>2026-05-01T14:51:52.351Z</time></trkpt><trkpt lat="44.1978083" lon="8.26599"><ele>406.0</ele><time>2026-05-01T14:51:53.351Z</time></trkpt><trkpt lat="44.197875" lon="8.2661567"><ele>406.0</ele><time>2026-05-01T14:51:54.35Z</time></trkpt><trkpt lat="44.1979567" lon="8.2663317"><ele>408.75</ele><time>2026-05-01T14:51:55.355Z</time></trkpt><trkpt lat="44.19804" lon="8.2665167"><ele>411.5</ele><time>2026-05-01T14:51:56.352Z</time></trkpt><trkpt lat="44.1981117" lon="8.2666917"><ele>414.25</ele><time>2026-05-01T14:51:57.353Z</time></trkpt><trkpt lat="44.1981633" lon="8.2668717"><ele>417.0</ele><time>2026-05-01T14:51:58.353Z</time></trkpt><trkpt lat="44.1981867" lon="8.267055"><ele>417.0</ele><time>2026-05-01T14:51:59.355Z</time></trkpt><trkpt lat="44.1982017" lon="8.2672367"><ele>417.0</ele><time>2026-05-01T14:52:00.352Z</time></trkpt><trkpt lat="44.1982167" lon="8.2673983"><ele>417.0</ele><time>2026-05-01T14:52:01.351Z</time></trkpt><trkpt lat="44.1982333" lon="8.267535"><ele>417.0</ele><time>2026-05-01T14:52:02.349Z</time></trkpt><trkpt lat="44.198235" lon="8.2676417"><ele>417.0</ele><time>2026-05-01T14:52:03.352Z</time></trkpt><trkpt lat="44.1981583" lon="8.267765"><ele>410.8</ele><time>2026-05-01T14:52:05.351Z</time></trkpt><trkpt lat="44.1980817" lon="8.26779"><ele>404.6</ele><time>2026-05-01T14:52:06.352Z</time></trkpt><trkpt lat="44.19798" lon="8.2677933"><ele>398.40000000000003</ele><time>2026-05-01T14:52:07.35Z</time></trkpt><trkpt lat="44.1978767" lon="8.2678117"><ele>392.20000000000005</ele><time>2026-05-01T14:52:08.35Z</time></trkpt><trkpt lat="44.1977767" lon="8.2678733"><ele>386.0</ele><time>2026-05-01T14:52:09.35Z</time></trkpt><trkpt lat="44.1976817" lon="8.2679733"><ele>386.0</ele><time>2026-05-01T14:52:10.355Z</time></trkpt><trkpt lat="44.1975817" lon="8.268095"><ele>386.0</ele><time>2026-05-01T14:52:11.349Z</time></trkpt><trkpt lat="44.197475" lon="8.268255"><ele>386.0</ele><time>2026-05-01T14:52:12.352Z</time></trkpt><trkpt lat="44.1973667" lon="8.26842"><ele>379.3333333333333</ele><time>2026-05-01T14:52:13.35Z</time></trkpt><trkpt lat="44.197255" lon="8.2685933"><ele>372.66666666666663</ele><time>2026-05-01T14:52:14.348Z</time></trkpt><trkpt lat="44.1971467" lon="8.2687517"><ele>366.0</ele><time>2026-05-01T14:52:15.352Z</time></trkpt><trkpt lat="44.1970567" lon="8.26889"><ele>367.25</ele><time>2026-05-01T14:52:16.35Z</time></trkpt><trkpt lat="44.19699" lon="8.2690383"><ele>368.5</ele><time>2026-05-01T14:52:17.349Z</time></trkpt><trkpt lat="44.19696" lon="8.2691967"><ele>369.75</ele><time>2026-05-01T14:52:18.355Z</time></trkpt><trkpt lat="44.1969617" lon="8.2693567"><ele>371.0</ele><time>2026-05-01T14:52:19.354Z</time></trkpt><trkpt lat="44.197" lon="8.2695117"><ele>371.0</ele><time>2026-05-01T14:52:20.356Z</time></trkpt><trkpt lat="44.1970683" lon="8.2696533"><ele>371.0</ele><time>2026-05-01T14:52:21.35Z</time></trkpt><trkpt lat="44.197155" lon="8.2697917"><ele>371.0</ele><time>2026-05-01T14:52:22.351Z</time></trkpt><trkpt lat="44.19723" lon="8.2699267"><ele>371.0</ele><time>2026-05-01T14:52:23.35Z</time></trkpt><trkpt lat="44.1972817" lon="8.2700617"><ele>371.20000000000005</ele><time>2026-05-01T14:52:24.349Z</time></trkpt><trkpt lat="44.1973" lon="8.2701983"><ele>371.40000000000003</ele><time>2026-05-01T14:52:25.349Z</time></trkpt><trkpt lat="44.1972867" lon="8.2703383"><ele>371.6</ele><time>2026-05-01T14:52:26.35Z</time></trkpt><trkpt lat="44.1972433" lon="8.2704833"><ele>371.8</ele><time>2026-05-01T14:52:27.351Z</time></trkpt><trkpt lat="44.1971817" lon="8.2706367"><ele>372.0</ele><time>2026-05-01T14:52:28.359Z</time></trkpt><trkpt lat="44.1971083" lon="8.2707967"><ele>371.0</ele><time>2026-05-01T14:52:29.35Z</time></trkpt><trkpt lat="44.1970233" lon="8.270955"><ele>370.0</ele><time>2026-05-01T14:52:30.35Z</time></trkpt><trkpt lat="44.1969267" lon="8.2710867"><ele>369.0</ele><time>2026-05-01T14:52:31.351Z</time></trkpt><trkpt lat="44.196815" lon="8.2711967"><ele>368.0</ele><time>2026-05-01T14:52:32.35Z</time></trkpt><trkpt lat="44.1967033" lon="8.2712983"><ele>368.0</ele><time>2026-05-01T14:52:33.351Z</time></trkpt><trkpt lat="44.196605" lon="8.27141"><ele>368.0</ele><time>2026-05-01T14:52:34.351Z</time></trkpt><trkpt lat="44.196525" lon="8.2715317"><ele>368.0</ele><time>2026-05-01T14:52:35.352Z</time></trkpt><trkpt lat="44.1964683" lon="8.271655"><ele>368.0</ele><time>2026-05-01T14:52:36.352Z</time></trkpt><trkpt lat="44.1964333" lon="8.2717783"><ele>368.0</ele><time>2026-05-01T14:52:37.355Z</time></trkpt><trkpt lat="44.1964217" lon="8.2719083"><ele>363.2</ele><time>2026-05-01T14:52:38.353Z</time></trkpt><trkpt lat="44.1964217" lon="8.2720417"><ele>358.4</ele><time>2026-05-01T14:52:39.353Z</time></trkpt><trkpt lat="44.196425" lon="8.2721733"><ele>353.59999999999997</ele><time>2026-05-01T14:52:40.353Z</time></trkpt><trkpt lat="44.1964267" lon="8.2723033"><ele>348.79999999999995</ele><time>2026-05-01T14:52:41.35Z</time></trkpt><trkpt lat="44.1964317" lon="8.2724267"><ele>344.0</ele><time>2026-05-01T14:52:42.352Z</time></trkpt><trkpt lat="44.1964433" lon="8.27255"><ele>343.83333333333337</ele><time>2026-05-01T14:52:43.353Z</time></trkpt><trkpt lat="44.1964633" lon="8.2726617"><ele>343.6666666666667</ele><time>2026-05-01T14:52:44.35Z</time></trkpt><trkpt lat="44.1964967" lon="8.2727667"><ele>343.5</ele><time>2026-05-01T14:52:45.349Z</time></trkpt><trkpt lat="44.1965417" lon="8.27287"><ele>343.3333333333333</ele><time>2026-05-01T14:52:46.352Z</time></trkpt><trkpt lat="44.1965883" lon="8.2729683"><ele>343.16666666666663</ele><time>2026-05-01T14:52:47.35Z</time></trkpt><trkpt lat="44.1966383" lon="8.2730617"><ele>343.0</ele><time>2026-05-01T14:52:48.355Z</time></trkpt><trkpt lat="44.1966833" lon="8.273155"><ele>344.42857142857144</ele><time>2026-05-01T14:52:49.352Z</time></trkpt><trkpt lat="44.196715" lon="8.2732517"><ele>345.8571428571429</ele><time>2026-05-01T14:52:50.352Z</time></trkpt><trkpt lat="44.19672" lon="8.2733467"><ele>347.2857142857143</ele><time>2026-05-01T14:52:51.354Z</time></trkpt><trkpt lat="44.1967033" lon="8.2734317"><ele>348.7142857142857</ele><time>2026-05-01T14:52:52.352Z</time></trkpt><trkpt lat="44.1966617" lon="8.2734983"><ele>350.14285714285717</ele><time>2026-05-01T14:52:53.354Z</time></trkpt><trkpt lat="44.1965967" lon="8.2735417"><ele>351.57142857142856</ele><time>2026-05-01T14:52:54.351Z</time></trkpt><trkpt lat="44.1964983" lon="8.2735617"><ele>353.0</ele><time>2026-05-01T14:52:55.35Z</time></trkpt><trkpt lat="44.1963667" lon="8.2735633"><ele>353.0</ele><time>2026-05-01T14:52:56.349Z</time></trkpt><trkpt lat="44.196235" lon="8.2735533"><ele>353.0</ele><time>2026-05-01T14:52:57.355Z</time></trkpt><trkpt lat="44.1961167" lon="8.273555"><ele>353.0</ele><time>2026-05-01T14:52:58.353Z</time></trkpt><trkpt lat="44.19601" lon="8.27358"><ele>353.0</ele><time>2026-05-01T14:52:59.351Z</time></trkpt><trkpt lat="44.1959317" lon="8.27364"><ele>353.0</ele><time>2026-05-01T14:53:00.353Z</time></trkpt><trkpt lat="44.1958733" lon="8.2737383"><ele>353.0</ele><time>2026-05-01T14:53:01.351Z</time></trkpt><trkpt lat="44.1958483" lon="8.2738733"><ele>353.0</ele><time>2026-05-01T14:53:02.352Z</time></trkpt><trkpt lat="44.1958667" lon="8.2740167"><ele>353.0</ele><time>2026-05-01T14:53:03.352Z</time></trkpt><trkpt lat="44.1959417" lon="8.27414"><ele>353.0</ele><time>2026-05-01T14:53:04.35Z</time></trkpt><trkpt lat="44.196045" lon="8.2742183"><ele>353.0</ele><time>2026-05-01T14:53:05.349Z</time></trkpt><trkpt lat="44.1961333" lon="8.2742783"><ele>352.59999999999997</ele><time>2026-05-01T14:53:06.349Z</time></trkpt><trkpt lat="44.1962017" lon="8.2743583"><ele>352.2</ele><time>2026-05-01T14:53:07.351Z</time></trkpt><trkpt lat="44.19623" lon="8.2744633"><ele>351.8</ele><time>2026-05-01T14:53:08.351Z</time></trkpt><trkpt lat="44.19621" lon="8.274585"><ele>351.4</ele><time>2026-05-01T14:53:09.352Z</time></trkpt><trkpt lat="44.196145" lon="8.27471"><ele>351.0</ele><time>2026-05-01T14:53:10.35Z</time></trkpt><trkpt lat="44.19607" lon="8.2748567"><ele>348.3333333333333</ele><time>2026-05-01T14:53:11.355Z</time></trkpt><trkpt lat="44.1959967" lon="8.2750267"><ele>345.66666666666663</ele><time>2026-05-01T14:53:12.353Z</time></trkpt><trkpt lat="44.1959333" lon="8.27522"><ele>343.0</ele><time>2026-05-01T14:53:13.351Z</time></trkpt><trkpt lat="44.1958783" lon="8.27544"><ele>343.0</ele><time>2026-05-01T14:53:14.354Z</time></trkpt><trkpt lat="44.195835" lon="8.2756667"><ele>343.0</ele><time>2026-05-01T14:53:15.35Z</time></trkpt><trkpt lat="44.195805" lon="8.2759083"><ele>343.0</ele><time>2026-05-01T14:53:16.355Z</time></trkpt><trkpt lat="44.1957783" lon="8.2761583"><ele>343.0</ele><time>2026-05-01T14:53:17.353Z</time></trkpt><trkpt lat="44.1957583" lon="8.2764033"><ele>343.0</ele><time>2026-05-01T14:53:18.354Z</time></trkpt><trkpt lat="44.1957333" lon="8.2766433"><ele>343.0</ele><time>2026-05-01T14:53:19.351Z</time></trkpt><trkpt lat="44.1957233" lon="8.2768867"><ele>341.66666666666663</ele><time>2026-05-01T14:53:20.351Z</time></trkpt><trkpt lat="44.1957267" lon="8.277115"><ele>340.3333333333333</ele><time>2026-05-01T14:53:21.35Z</time></trkpt><trkpt lat="44.1957383" lon="8.2773317"><ele>339.0</ele><time>2026-05-01T14:53:22.354Z</time></trkpt><trkpt lat="44.1957383" lon="8.2775217"><ele>337.25</ele><time>2026-05-01T14:53:23.353Z</time></trkpt><trkpt lat="44.1957167" lon="8.277685"><ele>335.5</ele><time>2026-05-01T14:53:24.35Z</time></trkpt><trkpt lat="44.1956667" lon="8.2778233"><ele>333.75</ele><time>2026-05-01T14:53:25.352Z</time></trkpt><trkpt lat="44.19557" lon="8.277925"><ele>332.0</ele><time>2026-05-01T14:53:26.353Z</time></trkpt><trkpt lat="44.1954633" lon="8.2780217"><ele>326.5</ele><time>2026-05-01T14:53:27.364Z</time></trkpt><trkpt lat="44.195365" lon="8.2781283"><ele>321.0</ele><time>2026-05-01T14:53:28.351Z</time></trkpt><trkpt lat="44.1952867" lon="8.27824"><ele>315.5</ele><time>2026-05-01T14:53:29.353Z</time></trkpt><trkpt lat="44.1952233" lon="8.2783733"><ele>310.0</ele><time>2026-05-01T14:53:30.352Z</time></trkpt><trkpt lat="44.1952067" lon="8.2785417"><ele>310.0</ele><time>2026-05-01T14:53:31.351Z</time></trkpt><trkpt lat="44.1952133" lon="8.2787417"><ele>310.0</ele><time>2026-05-01T14:53:32.35Z</time></trkpt><trkpt lat="44.1952233" lon="8.2789433"><ele>310.0</ele><time>2026-05-01T14:53:33.351Z</time></trkpt><trkpt lat="44.19524" lon="8.2791483"><ele>310.0</ele><time>2026-05-01T14:53:34.353Z</time></trkpt><trkpt lat="44.1952633" lon="8.2793483"><ele>310.0</ele><time>2026-05-01T14:53:35.353Z</time></trkpt><trkpt lat="44.1952833" lon="8.279545"><ele>310.0</ele><time>2026-05-01T14:53:36.351Z</time></trkpt><trkpt lat="44.1952917" lon="8.2797383"><ele>310.0</ele><time>2026-05-01T14:53:37.351Z</time></trkpt><trkpt lat="44.1952817" lon="8.2799367"><ele>310.0</ele><time>2026-05-01T14:53:38.35Z</time></trkpt><trkpt lat="44.19526" lon="8.2801333"><ele>310.0</ele><time>2026-05-01T14:53:39.35Z</time></trkpt><trkpt lat="44.1952367" lon="8.2803333"><ele>310.0</ele><time>2026-05-01T14:53:40.357Z</time></trkpt><trkpt lat="44.1952117" lon="8.28053"><ele>310.0</ele><time>2026-05-01T14:53:41.35Z</time></trkpt><trkpt lat="44.1951867" lon="8.28072"><ele>310.0</ele><time>2026-05-01T14:53:42.354Z</time></trkpt><trkpt lat="44.1951583" lon="8.2808983"><ele>311.25</ele><time>2026-05-01T14:53:43.352Z</time></trkpt><trkpt lat="44.1951267" lon="8.28107"><ele>312.5</ele><time>2026-05-01T14:53:44.35Z</time></trkpt><trkpt lat="44.1950883" lon="8.2812383"><ele>313.75</ele><time>2026-05-01T14:53:45.351Z</time></trkpt><trkpt lat="44.1950367" lon="8.2814"><ele>315.0</ele><time>2026-05-01T14:53:46.351Z</time></trkpt><trkpt lat="44.1949717" lon="8.2815583"><ele>315.0</ele><time>2026-05-01T14:53:47.352Z</time></trkpt><trkpt lat="44.194905" lon="8.2817233"><ele>315.0</ele><time>2026-05-01T14:53:48.352Z</time></trkpt><trkpt lat="44.19485" lon="8.28191"><ele>315.0</ele><time>2026-05-01T14:53:49.353Z</time></trkpt><trkpt lat="44.1948167" lon="8.2821217"><ele>315.0</ele><time>2026-05-01T14:53:50.353Z</time></trkpt><trkpt lat="44.1947933" lon="8.282335"><ele>319.0</ele><time>2026-05-01T14:53:51.351Z</time></trkpt><trkpt lat="44.194775" lon="8.2825433"><ele>323.0</ele><time>2026-05-01T14:53:52.35Z</time></trkpt><trkpt lat="44.1947567" lon="8.282725"><ele>327.0</ele><time>2026-05-01T14:53:53.353Z</time></trkpt><trkpt lat="44.19472" lon="8.2828783"><ele>331.0</ele><time>2026-05-01T14:53:54.35Z</time></trkpt><trkpt lat="44.1946633" lon="8.28301"><ele>327.0</ele><time>2026-05-01T14:53:55.352Z</time></trkpt><trkpt lat="44.1945883" lon="8.2831217"><ele>323.0</ele><time>2026-05-01T14:53:56.351Z</time></trkpt><trkpt lat="44.1945083" lon="8.2832067"><ele>319.0</ele><time>2026-05-01T14:53:57.353Z</time></trkpt><trkpt lat="44.19442" lon="8.2832567"><ele>315.0</ele><time>2026-05-01T14:53:58.352Z</time></trkpt><trkpt lat="44.1943083" lon="8.283295"><ele>311.0</ele><time>2026-05-01T14:53:59.353Z</time></trkpt><trkpt lat="44.1941933" lon="8.2833567"><ele>311.0</ele><time>2026-05-01T14:54:00.349Z</time></trkpt><trkpt lat="44.1940817" lon="8.2834483"><ele>311.0</ele><time>2026-05-01T14:54:01.35Z</time></trkpt><trkpt lat="44.19397" lon="8.2835683"><ele>311.0</ele><time>2026-05-01T14:54:02.351Z</time></trkpt><trkpt lat="44.1938533" lon="8.2836833"><ele>311.0</ele><time>2026-05-01T14:54:03.35Z</time></trkpt><trkpt lat="44.1937317" lon="8.28377"><ele>309.0</ele><time>2026-05-01T14:54:04.36Z</time></trkpt><trkpt lat="44.1936167" lon="8.2838517"><ele>307.0</ele><time>2026-05-01T14:54:05.35Z</time></trkpt><trkpt lat="44.1935217" lon="8.2839533"><ele>305.0</ele><time>2026-05-01T14:54:06.35Z</time></trkpt><trkpt lat="44.193455" lon="8.28409"><ele>303.0</ele><time>2026-05-01T14:54:07.354Z</time></trkpt><trkpt lat="44.1934133" lon="8.284265"><ele>303.0</ele><time>2026-05-01T14:54:08.353Z</time></trkpt><trkpt lat="44.1933933" lon="8.28447"><ele>303.0</ele><time>2026-05-01T14:54:09.356Z</time></trkpt><trkpt lat="44.1933733" lon="8.2846867"><ele>303.0</ele><time>2026-05-01T14:54:10.352Z</time></trkpt><trkpt lat="44.1933567" lon="8.2849083"><ele>300.6666666666667</ele><time>2026-05-01T14:54:11.35Z</time></trkpt><trkpt lat="44.19334" lon="8.2851317"><ele>298.33333333333337</ele><time>2026-05-01T14:54:12.352Z</time></trkpt><trkpt lat="44.1933217" lon="8.2853483"><ele>296.0</ele><time>2026-05-01T14:54:13.35Z</time></trkpt><trkpt lat="44.193295" lon="8.2855483"><ele>295.75</ele><time>2026-05-01T14:54:14.35Z</time></trkpt><trkpt lat="44.1932667" lon="8.2857333"><ele>295.5</ele><time>2026-05-01T14:54:15.35Z</time></trkpt><trkpt lat="44.1932233" lon="8.2859117"><ele>295.25</ele><time>2026-05-01T14:54:16.351Z</time></trkpt><trkpt lat="44.1931483" lon="8.2860783"><ele>295.0</ele><time>2026-05-01T14:54:17.353Z</time></trkpt><trkpt lat="44.1930633" lon="8.286235"><ele>291.5</ele><time>2026-05-01T14:54:18.348Z</time></trkpt><trkpt lat="44.192975" lon="8.2863883"><ele>288.0</ele><time>2026-05-01T14:54:19.352Z</time></trkpt><trkpt lat="44.1929067" lon="8.2865367"><ele>284.5</ele><time>2026-05-01T14:54:20.349Z</time></trkpt><trkpt lat="44.1928733" lon="8.28669"><ele>281.0</ele><time>2026-05-01T14:54:21.348Z</time></trkpt><trkpt lat="44.1928783" lon="8.2868417"><ele>281.0</ele><time>2026-05-01T14:54:22.349Z</time></trkpt><trkpt lat="44.19292" lon="8.2869683"><ele>281.0</ele><time>2026-05-01T14:54:23.352Z</time></trkpt><trkpt lat="44.1930033" lon="8.2870783"><ele>281.0</ele><time>2026-05-01T14:54:24.348Z</time></trkpt><trkpt lat="44.1931033" lon="8.28719"><ele>281.0</ele><time>2026-05-01T14:54:25.352Z</time></trkpt><trkpt lat="44.19321" lon="8.2873133"><ele>283.75</ele><time>2026-05-01T14:54:26.348Z</time></trkpt><trkpt lat="44.193305" lon="8.28746"><ele>286.5</ele><time>2026-05-01T14:54:27.349Z</time></trkpt><trkpt lat="44.1933833" lon="8.287635"><ele>289.25</ele><time>2026-05-01T14:54:28.35Z</time></trkpt><trkpt lat="44.19345" lon="8.28782"><ele>292.0</ele><time>2026-05-01T14:54:29.35Z</time></trkpt><trkpt lat="44.1934983" lon="8.2880067"><ele>290.75</ele><time>2026-05-01T14:54:30.352Z</time></trkpt><trkpt lat="44.193515" lon="8.2881983"><ele>289.5</ele><time>2026-05-01T14:54:31.355Z</time></trkpt><trkpt lat="44.193515" lon="8.2883817"><ele>288.25</ele><time>2026-05-01T14:54:32.349Z</time></trkpt><trkpt lat="44.1935167" lon="8.2885783"><ele>287.0</ele><time>2026-05-01T14:54:33.358Z</time></trkpt><trkpt lat="44.193515" lon="8.2887817"><ele>286.25</ele><time>2026-05-01T14:54:34.351Z</time></trkpt><trkpt lat="44.1935133" lon="8.2889833"><ele>285.5</ele><time>2026-05-01T14:54:35.35Z</time></trkpt><trkpt lat="44.1935067" lon="8.2891717"><ele>284.75</ele><time>2026-05-01T14:54:36.349Z</time></trkpt><trkpt lat="44.1934917" lon="8.2893433"><ele>284.0</ele><time>2026-05-01T14:54:37.35Z</time></trkpt><trkpt lat="44.1934633" lon="8.2894983"><ele>284.0</ele><time>2026-05-01T14:54:38.351Z</time></trkpt><trkpt lat="44.1934117" lon="8.2896383"><ele>284.0</ele><time>2026-05-01T14:54:39.353Z</time></trkpt><trkpt lat="44.1933317" lon="8.2897517"><ele>284.0</ele><time>2026-05-01T14:54:40.351Z</time></trkpt><trkpt lat="44.1932317" lon="8.2898417"><ele>284.0</ele><time>2026-05-01T14:54:41.357Z</time></trkpt><trkpt lat="44.1931267" lon="8.289945"><ele>280.0</ele><time>2026-05-01T14:54:42.35Z</time></trkpt><trkpt lat="44.1930367" lon="8.290085"><ele>276.0</ele><time>2026-05-01T14:54:43.352Z</time></trkpt><trkpt lat="44.1929567" lon="8.2902583"><ele>272.0</ele><time>2026-05-01T14:54:44.351Z</time></trkpt><trkpt lat="44.192875" lon="8.2904483"><ele>268.0</ele><time>2026-05-01T14:54:45.355Z</time></trkpt><trkpt lat="44.1928" lon="8.29064"><ele>268.0</ele><time>2026-05-01T14:54:46.349Z</time></trkpt><trkpt lat="44.1927433" lon="8.290835"><ele>268.0</ele><time>2026-05-01T14:54:47.351Z</time></trkpt><trkpt lat="44.1926867" lon="8.2910267"><ele>268.0</ele><time>2026-05-01T14:54:48.352Z</time></trkpt><trkpt lat="44.1926167" lon="8.2912017"><ele>268.0</ele><time>2026-05-01T14:54:49.35Z</time></trkpt><trkpt lat="44.1925283" lon="8.2913533"><ele>265.5</ele><time>2026-05-01T14:54:50.352Z</time></trkpt><trkpt lat="44.192425" lon="8.29147"><ele>263.0</ele><time>2026-05-01T14:54:51.351Z</time></trkpt><trkpt lat="44.1923067" lon="8.2915433"><ele>260.5</ele><time>2026-05-01T14:54:52.349Z</time></trkpt><trkpt lat="44.1921817" lon="8.291595"><ele>258.0</ele><time>2026-05-01T14:54:53.355Z</time></trkpt><trkpt lat="44.192055" lon="8.2916583"><ele>258.0</ele><time>2026-05-01T14:54:54.352Z</time></trkpt><trkpt lat="44.19193" lon="8.2917283"><ele>258.0</ele><time>2026-05-01T14:54:55.353Z</time></trkpt><trkpt lat="44.1918083" lon="8.2917933"><ele>258.0</ele><time>2026-05-01T14:54:56.349Z</time></trkpt><trkpt lat="44.1916883" lon="8.2918533"><ele>258.0</ele><time>2026-05-01T14:54:57.354Z</time></trkpt><trkpt lat="44.1915733" lon="8.2919133"><ele>256.6</ele><time>2026-05-01T14:54:58.35Z</time></trkpt><trkpt lat="44.19147" lon="8.2919883"><ele>255.20000000000002</ele><time>2026-05-01T14:54:59.352Z</time></trkpt><trkpt lat="44.1913717" lon="8.2920767"><ele>253.8</ele><time>2026-05-01T14:55:00.351Z</time></trkpt><trkpt lat="44.19129" lon="8.2921733"><ele>252.4</ele><time>2026-05-01T14:55:01.355Z</time></trkpt><trkpt lat="44.1912217" lon="8.2922767"><ele>251.0</ele><time>2026-05-01T14:55:02.353Z</time></trkpt><trkpt lat="44.1911617" lon="8.2924"><ele>251.0</ele><time>2026-05-01T14:55:03.355Z</time></trkpt><trkpt lat="44.191105" lon="8.2925133"><ele>251.00000000000003</ele><time>2026-05-01T14:55:04.352Z</time></trkpt><trkpt lat="44.19104" lon="8.292625"><ele>251.00000000000003</ele><time>2026-05-01T14:55:05.349Z</time></trkpt><trkpt lat="44.190975" lon="8.29272"><ele>251.0</ele><time>2026-05-01T14:55:06.349Z</time></trkpt><trkpt lat="44.19092" lon="8.292805"><ele>251.0</ele><time>2026-05-01T14:55:07.351Z</time></trkpt><trkpt lat="44.1908667" lon="8.2929017"><ele>251.0</ele><time>2026-05-01T14:55:08.354Z</time></trkpt><trkpt lat="44.190805" lon="8.2930017"><ele>251.00000000000003</ele><time>2026-05-01T14:55:09.349Z</time></trkpt><trkpt lat="44.1907283" lon="8.2930933"><ele>251.00000000000003</ele><time>2026-05-01T14:55:10.35Z</time></trkpt><trkpt lat="44.1906467" lon="8.2931617"><ele>251.0</ele><time>2026-05-01T14:55:11.353Z</time></trkpt><trkpt lat="44.1905583" lon="8.2932083"><ele>251.0</ele><time>2026-05-01T14:55:12.351Z</time></trkpt><trkpt lat="44.1904617" lon="8.2932333"><ele>251.60000000000002</ele><time>2026-05-01T14:55:13.349Z</time></trkpt><trkpt lat="44.1903583" lon="8.29324"><ele>252.20000000000002</ele><time>2026-05-01T14:55:14.351Z</time></trkpt><trkpt lat="44.1902633" lon="8.2932317"><ele>252.79999999999998</ele><time>2026-05-01T14:55:15.356Z</time></trkpt><trkpt lat="44.1901633" lon="8.2932167"><ele>253.39999999999998</ele><time>2026-05-01T14:55:16.351Z</time></trkpt><trkpt lat="44.1900583" lon="8.2932117"><ele>254.0</ele><time>2026-05-01T14:55:17.352Z</time></trkpt><trkpt lat="44.1899583" lon="8.2932167"><ele>254.0</ele><time>2026-05-01T14:55:18.353Z</time></trkpt><trkpt lat="44.1898533" lon="8.29324"><ele>254.0</ele><time>2026-05-01T14:55:19.351Z</time></trkpt><trkpt lat="44.1897367" lon="8.29329"><ele>254.0</ele><time>2026-05-01T14:55:20.351Z</time></trkpt><trkpt lat="44.1895983" lon="8.2933683"><ele>254.0</ele><time>2026-05-01T14:55:21.351Z</time></trkpt><trkpt lat="44.18944" lon="8.29344"><ele>248.0</ele><time>2026-05-01T14:55:22.353Z</time></trkpt><trkpt lat="44.1892683" lon="8.2935117"><ele>242.0</ele><time>2026-05-01T14:55:23.355Z</time></trkpt><trkpt lat="44.189095" lon="8.2935783"><ele>236.0</ele><time>2026-05-01T14:55:24.35Z</time></trkpt><trkpt lat="44.1889183" lon="8.2936367"><ele>230.66666666666669</ele><time>2026-05-01T14:55:25.354Z</time></trkpt><trkpt lat="44.188745" lon="8.2936933"><ele>225.33333333333331</ele><time>2026-05-01T14:55:26.352Z</time></trkpt><trkpt lat="44.1885767" lon="8.2937533"><ele>220.0</ele><time>2026-05-01T14:55:27.353Z</time></trkpt><trkpt lat="44.1884167" lon="8.2938017"><ele>220.0</ele><time>2026-05-01T14:55:28.35Z</time></trkpt><trkpt lat="44.1882583" lon="8.2938433"><ele>220.0</ele><time>2026-05-01T14:55:29.354Z</time></trkpt><trkpt lat="44.1881083" lon="8.293895"><ele>220.0</ele><time>2026-05-01T14:55:30.353Z</time></trkpt><trkpt lat="44.187975" lon="8.2939733"><ele>222.25</ele><time>2026-05-01T14:55:31.354Z</time></trkpt><trkpt lat="44.18786" lon="8.294075"><ele>224.5</ele><time>2026-05-01T14:55:32.35Z</time></trkpt><trkpt lat="44.1877583" lon="8.2942"><ele>226.75</ele><time>2026-05-01T14:55:33.351Z</time></trkpt><trkpt lat="44.1876667" lon="8.294355"><ele>229.0</ele><time>2026-05-01T14:55:34.35Z</time></trkpt><trkpt lat="44.1875767" lon="8.2945183"><ele>229.0</ele><time>2026-05-01T14:55:35.349Z</time></trkpt><trkpt lat="44.187485" lon="8.2946667"><ele>229.0</ele><time>2026-05-01T14:55:36.35Z</time></trkpt><trkpt lat="44.1873967" lon="8.294795"><ele>229.0</ele><time>2026-05-01T14:55:37.351Z</time></trkpt><trkpt lat="44.187305" lon="8.294885"><ele>229.0</ele><time>2026-05-01T14:55:38.35Z</time></trkpt><trkpt lat="44.1872" lon="8.294925"><ele>231.75</ele><time>2026-05-01T14:55:39.351Z</time></trkpt><trkpt lat="44.1870833" lon="8.2949167"><ele>234.5</ele><time>2026-05-01T14:55:40.351Z</time></trkpt><trkpt lat="44.1869433" lon="8.2948683"><ele>237.25</ele><time>2026-05-01T14:55:41.353Z</time></trkpt><trkpt lat="44.186795" lon="8.2948367"><ele>240.0</ele><time>2026-05-01T14:55:42.353Z</time></trkpt><trkpt lat="44.1866383" lon="8.29483"><ele>239.33333333333331</ele><time>2026-05-01T14:55:43.35Z</time></trkpt><trkpt lat="44.186485" lon="8.2948233"><ele>238.66666666666666</ele><time>2026-05-01T14:55:44.351Z</time></trkpt><trkpt lat="44.1863283" lon="8.29479"><ele>238.0</ele><time>2026-05-01T14:55:45.349Z</time></trkpt><trkpt lat="44.1861683" lon="8.2947383"><ele>229.33333333333331</ele><time>2026-05-01T14:55:46.349Z</time></trkpt><trkpt lat="44.1860067" lon="8.2946867"><ele>220.66666666666669</ele><time>2026-05-01T14:55:47.351Z</time></trkpt><trkpt lat="44.1858517" lon="8.2946517"><ele>212.0</ele><time>2026-05-01T14:55:48.351Z</time></trkpt><trkpt lat="44.1856933" lon="8.2946417"><ele>211.33333333333334</ele><time>2026-05-01T14:55:49.35Z</time></trkpt><trkpt lat="44.1855333" lon="8.2946467"><ele>210.66666666666669</ele><time>2026-05-01T14:55:50.35Z</time></trkpt><trkpt lat="44.185375" lon="8.2946517"><ele>210.0</ele><time>2026-05-01T14:55:51.354Z</time></trkpt><trkpt lat="44.1852233" lon="8.29464"><ele>210.0</ele><time>2026-05-01T14:55:52.353Z</time></trkpt><trkpt lat="44.1850783" lon="8.2946033"><ele>210.0</ele><time>2026-05-01T14:55:53.353Z</time></trkpt><trkpt lat="44.184935" lon="8.2945567"><ele>210.0</ele><time>2026-05-01T14:55:54.351Z</time></trkpt><trkpt lat="44.1847933" lon="8.2945283"><ele>210.0</ele><time>2026-05-01T14:55:55.355Z</time></trkpt><trkpt lat="44.1846533" lon="8.294525"><ele>208.25</ele><time>2026-05-01T14:55:56.349Z</time></trkpt><trkpt lat="44.184515" lon="8.2945383"><ele>206.5</ele><time>2026-05-01T14:55:57.355Z</time></trkpt><trkpt lat="44.18437" lon="8.2945633"><ele>204.75</ele><time>2026-05-01T14:55:58.353Z</time></trkpt><trkpt lat="44.1842167" lon="8.294615"><ele>203.0</ele><time>2026-05-01T14:55:59.355Z</time></trkpt><trkpt lat="44.1840667" lon="8.2946483"><ele>200.0</ele><time>2026-05-01T14:56:00.352Z</time></trkpt><trkpt lat="44.1839217" lon="8.29466"><ele>197.0</ele><time>2026-05-01T14:56:01.352Z</time></trkpt><trkpt lat="44.1838" lon="8.29466"><ele>194.0</ele><time>2026-05-01T14:56:02.35Z</time></trkpt><trkpt lat="44.1836967" lon="8.2946567"><ele>191.0</ele><time>2026-05-01T14:56:03.352Z</time></trkpt><trkpt lat="44.1835933" lon="8.2946883"><ele>194.25</ele><time>2026-05-01T14:56:04.353Z</time></trkpt><trkpt lat="44.183495" lon="8.2947617"><ele>197.5</ele><time>2026-05-01T14:56:05.351Z</time></trkpt><trkpt lat="44.1834133" lon="8.294875"><ele>200.75</ele><time>2026-05-01T14:56:06.349Z</time></trkpt><trkpt lat="44.1833383" lon="8.2950033"><ele>204.0</ele><time>2026-05-01T14:56:07.351Z</time></trkpt><trkpt lat="44.1832717" lon="8.2951317"><ele>204.0</ele><time>2026-05-01T14:56:08.35Z</time></trkpt><trkpt lat="44.1832167" lon="8.2952483"><ele>204.0</ele><time>2026-05-01T14:56:09.351Z</time></trkpt><trkpt lat="44.1831717" lon="8.295345"><ele>204.0</ele><time>2026-05-01T14:56:10.351Z</time></trkpt><trkpt lat="44.1831367" lon="8.29543"><ele>204.0</ele><time>2026-05-01T14:56:11.351Z</time></trkpt><trkpt lat="44.1831033" lon="8.295515"><ele>204.0</ele><time>2026-05-01T14:56:12.35Z</time></trkpt><trkpt lat="44.1830667" lon="8.295605"><ele>204.0</ele><time>2026-05-01T14:56:13.355Z</time></trkpt><trkpt lat="44.183065" lon="8.2957467"><ele>202.5</ele><time>2026-05-01T14:56:15.352Z</time></trkpt><trkpt lat="44.1830717" lon="8.2958367"><ele>201.0</ele><time>2026-05-01T14:56:16.354Z</time></trkpt><trkpt lat="44.18308" lon="8.2959467"><ele>199.5</ele><time>2026-05-01T14:56:17.351Z</time></trkpt><trkpt lat="44.18309" lon="8.29607"><ele>198.0</ele><time>2026-05-01T14:56:18.35Z</time></trkpt><trkpt lat="44.1831033" lon="8.2962"><ele>196.5</ele><time>2026-05-01T14:56:19.355Z</time></trkpt><trkpt lat="44.1831033" lon="8.2963383"><ele>195.0</ele><time>2026-05-01T14:56:20.349Z</time></trkpt><trkpt lat="44.183095" lon="8.29648"><ele>194.4</ele><time>2026-05-01T14:56:21.351Z</time></trkpt><trkpt lat="44.1830833" lon="8.2966217"><ele>193.8</ele><time>2026-05-01T14:56:22.351Z</time></trkpt><trkpt lat="44.183075" lon="8.2967683"><ele>193.2</ele><time>2026-05-01T14:56:23.35Z</time></trkpt><trkpt lat="44.1830633" lon="8.29692"><ele>192.6</ele><time>2026-05-01T14:56:24.353Z</time></trkpt><trkpt lat="44.18305" lon="8.2970683"><ele>192.0</ele><time>2026-05-01T14:56:25.35Z</time></trkpt><trkpt lat="44.183035" lon="8.2972083"><ele>193.39999999999998</ele><time>2026-05-01T14:56:26.355Z</time></trkpt><trkpt lat="44.1830217" lon="8.29735"><ele>194.79999999999998</ele><time>2026-05-01T14:56:27.355Z</time></trkpt><trkpt lat="44.183" lon="8.2974817"><ele>196.2</ele><time>2026-05-01T14:56:28.349Z</time></trkpt><trkpt lat="44.1829733" lon="8.2976083"><ele>197.6</ele><time>2026-05-01T14:56:29.353Z</time></trkpt><trkpt lat="44.1829367" lon="8.29772"><ele>199.0</ele><time>2026-05-01T14:56:30.35Z</time></trkpt><trkpt lat="44.1828933" lon="8.2978117"><ele>198.99999999999997</ele><time>2026-05-01T14:56:31.351Z</time></trkpt><trkpt lat="44.1828417" lon="8.297895"><ele>199.0</ele><time>2026-05-01T14:56:32.352Z</time></trkpt><trkpt lat="44.1827883" lon="8.2979667"><ele>199.0</ele><time>2026-05-01T14:56:33.35Z</time></trkpt><trkpt lat="44.1827417" lon="8.2980317"><ele>199.0</ele><time>2026-05-01T14:56:34.36Z</time></trkpt><trkpt lat="44.1826867" lon="8.2980967"><ele>199.0</ele><time>2026-05-01T14:56:35.349Z</time></trkpt><trkpt lat="44.1826383" lon="8.2981667"><ele>198.99999999999997</ele><time>2026-05-01T14:56:36.348Z</time></trkpt><trkpt lat="44.182585" lon="8.29824"><ele>199.0</ele><time>2026-05-01T14:56:37.35Z</time></trkpt><trkpt lat="44.18254" lon="8.29836"><ele>200.5</ele><time>2026-05-01T14:56:38.35Z</time></trkpt><trkpt lat="44.1824867" lon="8.2984883"><ele>202.0</ele><time>2026-05-01T14:56:39.355Z</time></trkpt><trkpt lat="44.182435" lon="8.2986433"><ele>203.5</ele><time>2026-05-01T14:56:40.349Z</time></trkpt><trkpt lat="44.182375" lon="8.2988033"><ele>205.0</ele><time>2026-05-01T14:56:41.351Z</time></trkpt><trkpt lat="44.1823117" lon="8.2989633"><ele>205.0</ele><time>2026-05-01T14:56:42.353Z</time></trkpt><trkpt lat="44.1822417" lon="8.2991283"><ele>205.0</ele><time>2026-05-01T14:56:43.351Z</time></trkpt><trkpt lat="44.1821683" lon="8.2992967"><ele>205.0</ele><time>2026-05-01T14:56:44.354Z</time></trkpt><trkpt lat="44.1820833" lon="8.2994617"><ele>205.0</ele><time>2026-05-01T14:56:45.352Z</time></trkpt><trkpt lat="44.1819967" lon="8.2996233"><ele>204.0</ele><time>2026-05-01T14:56:46.354Z</time></trkpt><trkpt lat="44.1819083" lon="8.299785"><ele>203.0</ele><time>2026-05-01T14:56:47.351Z</time></trkpt><trkpt lat="44.1818283" lon="8.2999383"><ele>202.0</ele><time>2026-05-01T14:56:48.351Z</time></trkpt><trkpt lat="44.1817667" lon="8.3000867"><ele>201.0</ele><time>2026-05-01T14:56:49.352Z</time></trkpt><trkpt lat="44.1817233" lon="8.3002467"><ele>201.0</ele><time>2026-05-01T14:56:50.352Z</time></trkpt><trkpt lat="44.1816933" lon="8.3004167"><ele>201.0</ele><time>2026-05-01T14:56:51.35Z</time></trkpt><trkpt lat="44.1816733" lon="8.3005883"><ele>201.0</ele><time>2026-05-01T14:56:52.352Z</time></trkpt><trkpt lat="44.1816533" lon="8.300755"><ele>201.0</ele><time>2026-05-01T14:56:53.349Z</time></trkpt><trkpt lat="44.1816333" lon="8.3009167"><ele>201.60000000000002</ele><time>2026-05-01T14:56:54.351Z</time></trkpt><trkpt lat="44.1816033" lon="8.3010617"><ele>202.2</ele><time>2026-05-01T14:56:55.351Z</time></trkpt><trkpt lat="44.1815483" lon="8.3011883"><ele>202.8</ele><time>2026-05-01T14:56:56.351Z</time></trkpt><trkpt lat="44.18148" lon="8.3013133"><ele>203.39999999999998</ele><time>2026-05-01T14:56:57.352Z</time></trkpt><trkpt lat="44.1814017" lon="8.3014367"><ele>204.0</ele><time>2026-05-01T14:56:58.351Z</time></trkpt><trkpt lat="44.1813217" lon="8.3015667"><ele>202.25</ele><time>2026-05-01T14:56:59.352Z</time></trkpt><trkpt lat="44.1812483" lon="8.3017167"><ele>200.5</ele><time>2026-05-01T14:57:00.352Z</time></trkpt><trkpt lat="44.181175" lon="8.3018767"><ele>198.75</ele><time>2026-05-01T14:57:01.353Z</time></trkpt><trkpt lat="44.1811267" lon="8.3020517"><ele>197.0</ele><time>2026-05-01T14:57:02.353Z</time></trkpt><trkpt lat="44.1810917" lon="8.3022433"><ele>195.0</ele><time>2026-05-01T14:57:03.352Z</time></trkpt><trkpt lat="44.1810717" lon="8.3024433"><ele>193.0</ele><time>2026-05-01T14:57:04.35Z</time></trkpt><trkpt lat="44.1810533" lon="8.3026417"><ele>191.0</ele><time>2026-05-01T14:57:05.35Z</time></trkpt><trkpt lat="44.1810367" lon="8.3028317"><ele>189.0</ele><time>2026-05-01T14:57:06.35Z</time></trkpt><trkpt lat="44.1810267" lon="8.303015"><ele>186.75</ele><time>2026-05-01T14:57:07.351Z</time></trkpt><trkpt lat="44.1810383" lon="8.3031933"><ele>184.5</ele><time>2026-05-01T14:57:08.351Z</time></trkpt><trkpt lat="44.1810667" lon="8.3033617"><ele>182.25</ele><time>2026-05-01T14:57:09.352Z</time></trkpt><trkpt lat="44.181095" lon="8.3035283"><ele>180.0</ele><time>2026-05-01T14:57:10.353Z</time></trkpt><trkpt lat="44.1811067" lon="8.3036967"><ele>180.0</ele><time>2026-05-01T14:57:11.35Z</time></trkpt><trkpt lat="44.1810933" lon="8.3038583"><ele>180.0</ele><time>2026-05-01T14:57:12.351Z</time></trkpt><trkpt lat="44.18107" lon="8.3040267"><ele>180.0</ele><time>2026-05-01T14:57:13.351Z</time></trkpt><trkpt lat="44.1810367" lon="8.30419"><ele>180.0</ele><time>2026-05-01T14:57:14.351Z</time></trkpt><trkpt lat="44.1809867" lon="8.30434"><ele>181.2</ele><time>2026-05-01T14:57:15.35Z</time></trkpt><trkpt lat="44.1809217" lon="8.304465"><ele>182.4</ele><time>2026-05-01T14:57:16.354Z</time></trkpt><trkpt lat="44.1808383" lon="8.3045683"><ele>183.60000000000002</ele><time>2026-05-01T14:57:17.35Z</time></trkpt><trkpt lat="44.18075" lon="8.3046617"><ele>184.8</ele><time>2026-05-01T14:57:18.351Z</time></trkpt><trkpt lat="44.1806767" lon="8.3047617"><ele>186.0</ele><time>2026-05-01T14:57:19.351Z</time></trkpt><trkpt lat="44.18064" lon="8.3048717"><ele>186.0</ele><time>2026-05-01T14:57:20.349Z</time></trkpt><trkpt lat="44.1806333" lon="8.30499"><ele>186.0</ele><time>2026-05-01T14:57:21.351Z</time></trkpt><trkpt lat="44.1806617" lon="8.3051083"><ele>186.0</ele><time>2026-05-01T14:57:22.35Z</time></trkpt><trkpt lat="44.1807267" lon="8.3052233"><ele>186.0</ele><time>2026-05-01T14:57:23.349Z</time></trkpt><trkpt lat="44.18079" lon="8.305345"><ele>186.0</ele><time>2026-05-01T14:57:24.355Z</time></trkpt><trkpt lat="44.1808183" lon="8.30547"><ele>184.20000000000002</ele><time>2026-05-01T14:57:25.352Z</time></trkpt><trkpt lat="44.1808067" lon="8.3055917"><ele>182.4</ele><time>2026-05-01T14:57:26.353Z</time></trkpt><trkpt lat="44.18076" lon="8.3057033"><ele>180.6</ele><time>2026-05-01T14:57:27.35Z</time></trkpt><trkpt lat="44.180675" lon="8.30582"><ele>178.8</ele><time>2026-05-01T14:57:28.351Z</time></trkpt><trkpt lat="44.1805683" lon="8.305965"><ele>177.0</ele><time>2026-05-01T14:57:29.356Z</time></trkpt><trkpt lat="44.1804433" lon="8.30612"><ele>177.0</ele><time>2026-05-01T14:57:30.35Z</time></trkpt><trkpt lat="44.1803167" lon="8.3062583"><ele>177.0</ele><time>2026-05-01T14:57:31.35Z</time></trkpt><trkpt lat="44.1801883" lon="8.3063817"><ele>177.0</ele><time>2026-05-01T14:57:32.348Z</time></trkpt><trkpt lat="44.180075" lon="8.3064983"><ele>173.2</ele><time>2026-05-01T14:57:33.349Z</time></trkpt><trkpt lat="44.1799867" lon="8.3066083"><ele>169.39999999999998</ele><time>2026-05-01T14:57:34.355Z</time></trkpt><trkpt lat="44.17993" lon="8.306725"><ele>165.60000000000002</ele><time>2026-05-01T14:57:35.35Z</time></trkpt><trkpt lat="44.17991" lon="8.3068433"><ele>161.8</ele><time>2026-05-01T14:57:36.351Z</time></trkpt><trkpt lat="44.179935" lon="8.30696"><ele>158.0</ele><time>2026-05-01T14:57:37.351Z</time></trkpt><trkpt lat="44.1799933" lon="8.3070617"><ele>158.0</ele><time>2026-05-01T14:57:38.353Z</time></trkpt><trkpt lat="44.1801133" lon="8.3071267"><ele>158.0</ele><time>2026-05-01T14:57:39.358Z</time></trkpt><trkpt lat="44.180255" lon="8.3071967"><ele>158.0</ele><time>2026-05-01T14:57:40.353Z</time></trkpt><trkpt lat="44.180385" lon="8.3072767"><ele>158.0</ele><time>2026-05-01T14:57:41.351Z</time></trkpt><trkpt lat="44.1804933" lon="8.30737"><ele>156.75</ele><time>2026-05-01T14:57:42.355Z</time></trkpt><trkpt lat="44.18058" lon="8.307485"><ele>155.5</ele><time>2026-05-01T14:57:43.352Z</time></trkpt><trkpt lat="44.1806267" lon="8.3076333"><ele>154.25</ele><time>2026-05-01T14:57:44.349Z</time></trkpt><trkpt lat="44.180635" lon="8.3078133"><ele>153.0</ele><time>2026-05-01T14:57:45.349Z</time></trkpt><trkpt lat="44.1806067" lon="8.3079967"><ele>149.75</ele><time>2026-05-01T14:57:46.348Z</time></trkpt><trkpt lat="44.1805483" lon="8.3081567"><ele>146.5</ele><time>2026-05-01T14:57:47.349Z</time></trkpt><trkpt lat="44.1804533" lon="8.3082717"><ele>143.25</ele><time>2026-05-01T14:57:48.351Z</time></trkpt><trkpt lat="44.1803267" lon="8.3083383"><ele>140.0</ele><time>2026-05-01T14:57:49.35Z</time></trkpt><trkpt lat="44.1801917" lon="8.3083717"><ele>140.0</ele><time>2026-05-01T14:57:50.357Z</time></trkpt><trkpt lat="44.1800567" lon="8.3083933"><ele>140.0</ele><time>2026-05-01T14:57:51.352Z</time></trkpt><trkpt lat="44.1799283" lon="8.3084217"><ele>140.0</ele><time>2026-05-01T14:57:52.355Z</time></trkpt><trkpt lat="44.179815" lon="8.3084883"><ele>140.0</ele><time>2026-05-01T14:57:53.352Z</time></trkpt><trkpt lat="44.179725" lon="8.308605"><ele>141.66666666666666</ele><time>2026-05-01T14:57:54.35Z</time></trkpt><trkpt lat="44.1796467" lon="8.308775"><ele>143.33333333333334</ele><time>2026-05-01T14:57:55.349Z</time></trkpt><trkpt lat="44.1795733" lon="8.308975"><ele>145.0</ele><time>2026-05-01T14:57:56.35Z</time></trkpt><trkpt lat="44.1795133" lon="8.3091717"><ele>145.0</ele><time>2026-05-01T14:57:57.35Z</time></trkpt><trkpt lat="44.1794567" lon="8.3093583"><ele>145.0</ele><time>2026-05-01T14:57:58.351Z</time></trkpt><trkpt lat="44.17941" lon="8.3095267"><ele>145.0</ele><time>2026-05-01T14:57:59.35Z</time></trkpt><trkpt lat="44.17936" lon="8.3096817"><ele>145.0</ele><time>2026-05-01T14:58:00.349Z</time></trkpt><trkpt lat="44.1792983" lon="8.309825"><ele>147.4</ele><time>2026-05-01T14:58:01.35Z</time></trkpt><trkpt lat="44.17922" lon="8.3099433"><ele>149.8</ele><time>2026-05-01T14:58:02.352Z</time></trkpt><trkpt lat="44.17913" lon="8.310025"><ele>152.2</ele><time>2026-05-01T14:58:03.349Z</time></trkpt><trkpt lat="44.1790283" lon="8.3100833"><ele>154.6</ele><time>2026-05-01T14:58:04.351Z</time></trkpt><trkpt lat="44.17893" lon="8.3101533"><ele>157.0</ele><time>2026-05-01T14:58:05.351Z</time></trkpt><trkpt lat="44.1788467" lon="8.3102633"><ele>157.0</ele><time>2026-05-01T14:58:06.352Z</time></trkpt><trkpt lat="44.1788" lon="8.3104"><ele>157.0</ele><time>2026-05-01T14:58:07.349Z</time></trkpt><trkpt lat="44.1787833" lon="8.310555"><ele>157.0</ele><time>2026-05-01T14:58:08.35Z</time></trkpt><trkpt lat="44.1788" lon="8.3107067"><ele>157.0</ele><time>2026-05-01T14:58:09.353Z</time></trkpt><trkpt lat="44.178835" lon="8.3108567"><ele>157.0</ele><time>2026-05-01T14:58:10.354Z</time></trkpt><trkpt lat="44.1788783" lon="8.3110083"><ele>156.5</ele><time>2026-05-01T14:58:11.353Z</time></trkpt><trkpt lat="44.178915" lon="8.3111717"><ele>156.0</ele><time>2026-05-01T14:58:12.352Z</time></trkpt><trkpt lat="44.178935" lon="8.3113467"><ele>155.5</ele><time>2026-05-01T14:58:13.355Z</time></trkpt><trkpt lat="44.17892" lon="8.3115383"><ele>155.0</ele><time>2026-05-01T14:58:14.35Z</time></trkpt><trkpt lat="44.1788867" lon="8.311725"><ele>156.5</ele><time>2026-05-01T14:58:15.349Z</time></trkpt><trkpt lat="44.178845" lon="8.31191"><ele>158.0</ele><time>2026-05-01T14:58:16.354Z</time></trkpt><trkpt lat="44.1788083" lon="8.3120917"><ele>159.5</ele><time>2026-05-01T14:58:17.35Z</time></trkpt><trkpt lat="44.178775" lon="8.3122783"><ele>161.0</ele><time>2026-05-01T14:58:18.354Z</time></trkpt><trkpt lat="44.1787517" lon="8.3124633"><ele>155.25</ele><time>2026-05-01T14:58:19.35Z</time></trkpt><trkpt lat="44.178725" lon="8.3126483"><ele>149.5</ele><time>2026-05-01T14:58:20.351Z</time></trkpt><trkpt lat="44.17869" lon="8.3128267"><ele>143.75</ele><time>2026-05-01T14:58:21.355Z</time></trkpt><trkpt lat="44.178635" lon="8.3129983"><ele>138.0</ele><time>2026-05-01T14:58:22.356Z</time></trkpt><trkpt lat="44.17856" lon="8.31317"><ele>140.5</ele><time>2026-05-01T14:58:23.356Z</time></trkpt><trkpt lat="44.1784733" lon="8.31334"><ele>143.0</ele><time>2026-05-01T14:58:24.35Z</time></trkpt><trkpt lat="44.178375" lon="8.313495"><ele>145.5</ele><time>2026-05-01T14:58:25.351Z</time></trkpt><trkpt lat="44.1782683" lon="8.31363"><ele>148.0</ele><time>2026-05-01T14:58:26.353Z</time></trkpt><trkpt lat="44.1781583" lon="8.3137533"><ele>148.0</ele><time>2026-05-01T14:58:27.353Z</time></trkpt><trkpt lat="44.17805" lon="8.31388"><ele>148.0</ele><time>2026-05-01T14:58:28.355Z</time></trkpt><trkpt lat="44.1779483" lon="8.3140233"><ele>148.0</ele><time>2026-05-01T14:58:29.349Z</time></trkpt><trkpt lat="44.1778633" lon="8.3141883"><ele>148.0</ele><time>2026-05-01T14:58:30.35Z</time></trkpt><trkpt lat="44.1777933" lon="8.314365"><ele>138.33333333333334</ele><time>2026-05-01T14:58:31.351Z</time></trkpt><trkpt lat="44.177725" lon="8.3145417"><ele>128.66666666666666</ele><time>2026-05-01T14:58:32.353Z</time></trkpt><trkpt lat="44.17765" lon="8.3147217"><ele>119.0</ele><time>2026-05-01T14:58:33.354Z</time></trkpt><trkpt lat="44.177555" lon="8.3149033"><ele>120.66666666666666</ele><time>2026-05-01T14:58:34.351Z</time></trkpt><trkpt lat="44.1774417" lon="8.3150917"><ele>122.33333333333334</ele><time>2026-05-01T14:58:35.353Z</time></trkpt><trkpt lat="44.1773183" lon="8.31527"><ele>124.0</ele><time>2026-05-01T14:58:36.35Z</time></trkpt><trkpt lat="44.1771917" lon="8.3154417"><ele>114.0</ele><time>2026-05-01T14:58:37.351Z</time></trkpt><trkpt lat="44.177065" lon="8.31561"><ele>104.0</ele><time>2026-05-01T14:58:38.353Z</time></trkpt><trkpt lat="44.1769383" lon="8.31578"><ele>94.0</ele><time>2026-05-01T14:58:39.352Z</time></trkpt><trkpt lat="44.1768117" lon="8.3159667"><ele>94.0</ele><time>2026-05-01T14:58:40.354Z</time></trkpt><trkpt lat="44.17668" lon="8.316175"><ele>94.0</ele><time>2026-05-01T14:58:41.353Z</time></trkpt><trkpt lat="44.1765433" lon="8.31639"><ele>94.0</ele><time>2026-05-01T14:58:42.351Z</time></trkpt><trkpt lat="44.1764083" lon="8.3165967"><ele>96.66666666666666</ele><time>2026-05-01T14:58:43.35Z</time></trkpt><trkpt lat="44.17628" lon="8.3167917"><ele>99.33333333333333</ele><time>2026-05-01T14:58:44.354Z</time></trkpt><trkpt lat="44.176145" lon="8.3169783"><ele>102.0</ele><time>2026-05-01T14:58:45.353Z</time></trkpt><trkpt lat="44.176" lon="8.3171583"><ele>107.0</ele><time>2026-05-01T14:58:46.352Z</time></trkpt><trkpt lat="44.1758467" lon="8.3173417"><ele>112.0</ele><time>2026-05-01T14:58:47.353Z</time></trkpt><trkpt lat="44.1757133" lon="8.317545"><ele>117.0</ele><time>2026-05-01T14:58:48.352Z</time></trkpt><trkpt lat="44.1755983" lon="8.3177533"><ele>117.0</ele><time>2026-05-01T14:58:49.354Z</time></trkpt><trkpt lat="44.1754883" lon="8.3179483"><ele>117.0</ele><time>2026-05-01T14:58:50.351Z</time></trkpt><trkpt lat="44.1754" lon="8.318135"><ele>117.0</ele><time>2026-05-01T14:58:51.354Z</time></trkpt><trkpt lat="44.1753367" lon="8.318335"><ele>112.0</ele><time>2026-05-01T14:58:52.352Z</time></trkpt><trkpt lat="44.1753183" lon="8.3185417"><ele>107.0</ele><time>2026-05-01T14:58:53.352Z</time></trkpt><trkpt lat="44.1753367" lon="8.318755"><ele>102.0</ele><time>2026-05-01T14:58:54.353Z</time></trkpt><trkpt lat="44.175375" lon="8.3189567"><ele>100.75</ele><time>2026-05-01T14:58:55.351Z</time></trkpt><trkpt lat="44.175415" lon="8.3191367"><ele>99.5</ele><time>2026-05-01T14:58:56.357Z</time></trkpt><trkpt lat="44.175445" lon="8.31931"><ele>98.25</ele><time>2026-05-01T14:58:57.35Z</time></trkpt><trkpt lat="44.1754467" lon="8.319475"><ele>97.0</ele><time>2026-05-01T14:58:58.353Z</time></trkpt><trkpt lat="44.1754283" lon="8.3196417"><ele>93.66666666666667</ele><time>2026-05-01T14:58:59.353Z</time></trkpt><trkpt lat="44.1753917" lon="8.319835"><ele>90.33333333333334</ele><time>2026-05-01T14:59:00.352Z</time></trkpt><trkpt lat="44.1753617" lon="8.3200683"><ele>87.0</ele><time>2026-05-01T14:59:01.352Z</time></trkpt><trkpt lat="44.1753367" lon="8.3203433"><ele>83.33333333333333</ele><time>2026-05-01T14:59:02.349Z</time></trkpt><trkpt lat="44.1753117" lon="8.3206333"><ele>79.66666666666666</ele><time>2026-05-01T14:59:03.351Z</time></trkpt><trkpt lat="44.1752867" lon="8.320925"><ele>76.0</ele><time>2026-05-01T14:59:04.353Z</time></trkpt><trkpt lat="44.1752617" lon="8.3212033"><ele>72.66666666666666</ele><time>2026-05-01T14:59:05.351Z</time></trkpt><trkpt lat="44.17523" lon="8.321475"><ele>69.33333333333333</ele><time>2026-05-01T14:59:06.349Z</time></trkpt><trkpt lat="44.1751817" lon="8.3217433"><ele>66.0</ele><time>2026-05-01T14:59:07.348Z</time></trkpt><trkpt lat="44.1751267" lon="8.3220083"><ele>58.666666666666664</ele><time>2026-05-01T14:59:08.351Z</time></trkpt><trkpt lat="44.1750733" lon="8.3222667"><ele>51.33333333333333</ele><time>2026-05-01T14:59:09.351Z</time></trkpt><trkpt lat="44.1750167" lon="8.3225233"><ele>44.0</ele><time>2026-05-01T14:59:10.35Z</time></trkpt><trkpt lat="44.17495" lon="8.32277"><ele>44.0</ele><time>2026-05-01T14:59:11.349Z</time></trkpt><trkpt lat="44.1748883" lon="8.3230067"><ele>44.0</ele><time>2026-05-01T14:59:12.351Z</time></trkpt><trkpt lat="44.1748333" lon="8.3232183"><ele>44.0</ele><time>2026-05-01T14:59:13.35Z</time></trkpt><trkpt lat="44.1747883" lon="8.3234"><ele>49.400000000000006</ele><time>2026-05-01T14:59:14.35Z</time></trkpt><trkpt lat="44.1747433" lon="8.3235617"><ele>54.8</ele><time>2026-05-01T14:59:15.35Z</time></trkpt><trkpt lat="44.174705" lon="8.32371"><ele>60.199999999999996</ele><time>2026-05-01T14:59:16.355Z</time></trkpt><trkpt lat="44.17468" lon="8.3238483"><ele>65.6</ele><time>2026-05-01T14:59:17.351Z</time></trkpt><trkpt lat="44.1746683" lon="8.3239783"><ele>71.0</ele><time>2026-05-01T14:59:18.353Z</time></trkpt><trkpt lat="44.174665" lon="8.3241"><ele>71.0</ele><time>2026-05-01T14:59:19.353Z</time></trkpt><trkpt lat="44.1746583" lon="8.3242033"><ele>71.0</ele><time>2026-05-01T14:59:20.353Z</time></trkpt><trkpt lat="44.1746467" lon="8.3242967"><ele>71.0</ele><time>2026-05-01T14:59:21.35Z</time></trkpt><trkpt lat="44.174635" lon="8.324385"><ele>71.0</ele><time>2026-05-01T14:59:22.352Z</time></trkpt><trkpt lat="44.1746217" lon="8.3244717"><ele>71.0</ele><time>2026-05-01T14:59:23.354Z</time></trkpt><trkpt lat="44.1746083" lon="8.3245633"><ele>71.0</ele><time>2026-05-01T14:59:24.353Z</time></trkpt><trkpt lat="44.17459" lon="8.3246633"><ele>71.0</ele><time>2026-05-01T14:59:25.353Z</time></trkpt><trkpt lat="44.174575" lon="8.3247683"><ele>68.83333333333334</ele><time>2026-05-01T14:59:26.349Z</time></trkpt><trkpt lat="44.1745633" lon="8.32487"><ele>66.66666666666667</ele><time>2026-05-01T14:59:27.355Z</time></trkpt><trkpt lat="44.17455" lon="8.3249733"><ele>64.5</ele><time>2026-05-01T14:59:28.35Z</time></trkpt><trkpt lat="44.1745367" lon="8.32508"><ele>62.33333333333333</ele><time>2026-05-01T14:59:29.35Z</time></trkpt><trkpt lat="44.17452" lon="8.32519"><ele>60.166666666666664</ele><time>2026-05-01T14:59:30.353Z</time></trkpt><trkpt lat="44.1745033" lon="8.3253033"><ele>58.0</ele><time>2026-05-01T14:59:31.352Z</time></trkpt><trkpt lat="44.1744883" lon="8.3254183"><ele>57.99999999999999</ele><time>2026-05-01T14:59:32.352Z</time></trkpt><trkpt lat="44.1744733" lon="8.32553"><ele>58.0</ele><time>2026-05-01T14:59:33.349Z</time></trkpt><trkpt lat="44.17446" lon="8.32564"><ele>58.0</ele><time>2026-05-01T14:59:34.351Z</time></trkpt><trkpt lat="44.174445" lon="8.325755"><ele>58.0</ele><time>2026-05-01T14:59:35.352Z</time></trkpt><trkpt lat="44.17443" lon="8.3258767"><ele>57.99999999999999</ele><time>2026-05-01T14:59:36.351Z</time></trkpt><trkpt lat="44.1744167" lon="8.3260017"><ele>58.0</ele><time>2026-05-01T14:59:37.356Z</time></trkpt><trkpt lat="44.1744" lon="8.3261233"><ele>55.4</ele><time>2026-05-01T14:59:38.353Z</time></trkpt><trkpt lat="44.1743817" lon="8.326245"><ele>52.8</ele><time>2026-05-01T14:59:39.357Z</time></trkpt><trkpt lat="44.1743617" lon="8.3263767"><ele>50.2</ele><time>2026-05-01T14:59:40.351Z</time></trkpt><trkpt lat="44.1743433" lon="8.3265267"><ele>47.6</ele><time>2026-05-01T14:59:41.352Z</time></trkpt><trkpt lat="44.174325" lon="8.3266967"><ele>45.0</ele><time>2026-05-01T14:59:42.352Z</time></trkpt><trkpt lat="44.1742983" lon="8.3269"><ele>42.75</ele><time>2026-05-01T14:59:43.352Z</time></trkpt><trkpt lat="44.1742683" lon="8.32712"><ele>40.5</ele><time>2026-05-01T14:59:44.352Z</time></trkpt><trkpt lat="44.174235" lon="8.3273217"><ele>38.25</ele><time>2026-05-01T14:59:45.355Z</time></trkpt><trkpt lat="44.1742017" lon="8.3275117"><ele>36.0</ele><time>2026-05-01T14:59:46.352Z</time></trkpt><trkpt lat="44.1741667" lon="8.3276917"><ele>34.5</ele><time>2026-05-01T14:59:47.35Z</time></trkpt><trkpt lat="44.174125" lon="8.3278683"><ele>33.0</ele><time>2026-05-01T14:59:48.354Z</time></trkpt><trkpt lat="44.1740783" lon="8.3280433"><ele>31.5</ele><time>2026-05-01T14:59:49.355Z</time></trkpt><trkpt lat="44.1740233" lon="8.3282117"><ele>30.0</ele><time>2026-05-01T14:59:50.352Z</time></trkpt><trkpt lat="44.1739667" lon="8.32839"><ele>30.75</ele><time>2026-05-01T14:59:51.35Z</time></trkpt><trkpt lat="44.1739067" lon="8.3285633"><ele>31.5</ele><time>2026-05-01T14:59:52.35Z</time></trkpt><trkpt lat="44.17384" lon="8.32873"><ele>32.25</ele><time>2026-05-01T14:59:53.35Z</time></trkpt><trkpt lat="44.173765" lon="8.32889"><ele>33.0</ele><time>2026-05-01T14:59:54.35Z</time></trkpt><trkpt lat="44.1736817" lon="8.329045"><ele>33.0</ele><time>2026-05-01T14:59:55.35Z</time></trkpt><trkpt lat="44.1735867" lon="8.3291933"><ele>33.0</ele><time>2026-05-01T14:59:56.35Z</time></trkpt><trkpt lat="44.1734833" lon="8.32933"><ele>33.0</ele><time>2026-05-01T14:59:57.351Z</time></trkpt><trkpt lat="44.1733783" lon="8.3294583"><ele>33.0</ele><time>2026-05-01T14:59:58.351Z</time></trkpt><trkpt lat="44.1732533" lon="8.3295683"><ele>35.666666666666664</ele><time>2026-05-01T14:59:59.348Z</time></trkpt><trkpt lat="44.1731317" lon="8.3296867"><ele>38.33333333333333</ele><time>2026-05-01T15:00:00.35Z</time></trkpt><trkpt lat="44.1730217" lon="8.3298267"><ele>41.0</ele><time>2026-05-01T15:00:01.35Z</time></trkpt><trkpt lat="44.17291" lon="8.3299783"><ele>41.0</ele><time>2026-05-01T15:00:02.352Z</time></trkpt><trkpt lat="44.1727917" lon="8.3301333"><ele>41.0</ele><time>2026-05-01T15:00:03.35Z</time></trkpt><trkpt lat="44.1726683" lon="8.33029"><ele>41.0</ele><time>2026-05-01T15:00:04.352Z</time></trkpt><trkpt lat="44.1725433" lon="8.330455"><ele>33.0</ele><time>2026-05-01T15:00:05.353Z</time></trkpt><trkpt lat="44.172415" lon="8.3306233"><ele>25.0</ele><time>2026-05-01T15:00:06.351Z</time></trkpt><trkpt lat="44.1722867" lon="8.3308033"><ele>17.0</ele><time>2026-05-01T15:00:07.354Z</time></trkpt><trkpt lat="44.17216" lon="8.33099"><ele>22.666666666666668</ele><time>2026-05-01T15:00:08.354Z</time></trkpt><trkpt lat="44.1720367" lon="8.33118"><ele>28.333333333333336</ele><time>2026-05-01T15:00:09.35Z</time></trkpt><trkpt lat="44.1719167" lon="8.3313683"><ele>34.0</ele><time>2026-05-01T15:00:10.349Z</time></trkpt><trkpt lat="44.1718067" lon="8.3315717"><ele>34.0</ele><time>2026-05-01T15:00:11.35Z</time></trkpt><trkpt lat="44.1717067" lon="8.3317917"><ele>34.0</ele><time>2026-05-01T15:00:12.351Z</time></trkpt><trkpt lat="44.17161" lon="8.3320167"><ele>34.0</ele><time>2026-05-01T15:00:13.351Z</time></trkpt><trkpt lat="44.171515" lon="8.332235"><ele>44.66666666666667</ele><time>2026-05-01T15:00:14.357Z</time></trkpt><trkpt lat="44.1714233" lon="8.33246"><ele>55.333333333333336</ele><time>2026-05-01T15:00:15.353Z</time></trkpt><trkpt lat="44.1713267" lon="8.33268"><ele>66.0</ele><time>2026-05-01T15:00:16.354Z</time></trkpt><trkpt lat="44.1712367" lon="8.3328933"><ele>55.666666666666664</ele><time>2026-05-01T15:00:17.351Z</time></trkpt><trkpt lat="44.17115" lon="8.333095"><ele>45.33333333333333</ele><time>2026-05-01T15:00:18.352Z</time></trkpt><trkpt lat="44.1710667" lon="8.3332883"><ele>35.0</ele><time>2026-05-01T15:00:19.353Z</time></trkpt><trkpt lat="44.1709883" lon="8.3334683"><ele>35.0</ele><time>2026-05-01T15:00:20.353Z</time></trkpt><trkpt lat="44.170915" lon="8.3336417"><ele>35.0</ele><time>2026-05-01T15:00:21.354Z</time></trkpt><trkpt lat="44.1708467" lon="8.3338"><ele>35.0</ele><time>2026-05-01T15:00:22.353Z</time></trkpt><trkpt lat="44.1707867" lon="8.3339417"><ele>35.0</ele><time>2026-05-01T15:00:23.349Z</time></trkpt><trkpt lat="44.1707267" lon="8.33407"><ele>40.6</ele><time>2026-05-01T15:00:24.352Z</time></trkpt><trkpt lat="44.1706667" lon="8.3341933"><ele>46.2</ele><time>2026-05-01T15:00:25.353Z</time></trkpt><trkpt lat="44.1706067" lon="8.3343183"><ele>51.8</ele><time>2026-05-01T15:00:26.355Z</time></trkpt><trkpt lat="44.17054" lon="8.3344483"><ele>57.4</ele><time>2026-05-01T15:00:27.353Z</time></trkpt><trkpt lat="44.17047" lon="8.3345767"><ele>63.0</ele><time>2026-05-01T15:00:28.35Z</time></trkpt><trkpt lat="44.170395" lon="8.334695"><ele>53.0</ele><time>2026-05-01T15:00:29.351Z</time></trkpt><trkpt lat="44.1703083" lon="8.3348"><ele>43.0</ele><time>2026-05-01T15:00:30.351Z</time></trkpt><trkpt lat="44.17022" lon="8.334895"><ele>33.0</ele><time>2026-05-01T15:00:31.351Z</time></trkpt><trkpt lat="44.1701233" lon="8.3349967"><ele>23.0</ele><time>2026-05-01T15:00:32.35Z</time></trkpt><trkpt lat="44.1700283" lon="8.3351183"><ele>23.0</ele><time>2026-05-01T15:00:33.353Z</time></trkpt><trkpt lat="44.1699383" lon="8.3352567"><ele>23.0</ele><time>2026-05-01T15:00:34.355Z</time></trkpt><trkpt lat="44.169845" lon="8.3354033"><ele>23.0</ele><time>2026-05-01T15:00:35.352Z</time></trkpt><trkpt lat="44.1697467" lon="8.3355567"><ele>23.0</ele><time>2026-05-01T15:00:36.353Z</time></trkpt><trkpt lat="44.1696483" lon="8.335715"><ele>27.0</ele><time>2026-05-01T15:00:37.357Z</time></trkpt><trkpt lat="44.1695483" lon="8.3358783"><ele>31.0</ele><time>2026-05-01T15:00:38.357Z</time></trkpt><trkpt lat="44.169445" lon="8.33604"><ele>35.0</ele><time>2026-05-01T15:00:39.35Z</time></trkpt><trkpt lat="44.1693383" lon="8.3361933"><ele>35.0</ele><time>2026-05-01T15:00:40.352Z</time></trkpt><trkpt lat="44.169225" lon="8.3363367"><ele>35.0</ele><time>2026-05-01T15:00:41.35Z</time></trkpt><trkpt lat="44.1691033" lon="8.3364783"><ele>35.0</ele><time>2026-05-01T15:00:42.353Z</time></trkpt><trkpt lat="44.16898" lon="8.336615"><ele>33.0</ele><time>2026-05-01T15:00:43.352Z</time></trkpt><trkpt lat="44.1688483" lon="8.3367367"><ele>31.0</ele><time>2026-05-01T15:00:44.351Z</time></trkpt><trkpt lat="44.168715" lon="8.336855"><ele>29.0</ele><time>2026-05-01T15:00:45.349Z</time></trkpt><trkpt lat="44.1685733" lon="8.336965"><ele>29.0</ele><time>2026-05-01T15:00:46.354Z</time></trkpt><trkpt lat="44.168425" lon="8.3370633"><ele>29.0</ele><time>2026-05-01T15:00:47.356Z</time></trkpt><trkpt lat="44.1682733" lon="8.3371583"><ele>29.0</ele><time>2026-05-01T15:00:48.353Z</time></trkpt><trkpt lat="44.1681167" lon="8.3372567"><ele>22.666666666666664</ele><time>2026-05-01T15:00:49.351Z</time></trkpt><trkpt lat="44.1679633" lon="8.33737"><ele>16.333333333333332</ele><time>2026-05-01T15:00:50.352Z</time></trkpt><trkpt lat="44.1678167" lon="8.3374817"><ele>10.0</ele><time>2026-05-01T15:00:51.355Z</time></trkpt><trkpt lat="44.1676767" lon="8.3375917"><ele>10.0</ele><time>2026-05-01T15:00:52.351Z</time></trkpt><trkpt lat="44.1675417" lon="8.337685"><ele>10.0</ele><time>2026-05-01T15:00:53.35Z</time></trkpt><trkpt lat="44.1674083" lon="8.3377517"><ele>10.0</ele><time>2026-05-01T15:00:54.352Z</time></trkpt><trkpt lat="44.1672767" lon="8.3377733"><ele>10.0</ele><time>2026-05-01T15:00:55.349Z</time></trkpt><trkpt lat="44.1671483" lon="8.3377417"><ele>9.0</ele><time>2026-05-01T15:00:56.354Z</time></trkpt><trkpt lat="44.16702" lon="8.3376917"><ele>8.0</ele><time>2026-05-01T15:00:57.354Z</time></trkpt><trkpt lat="44.1668917" lon="8.3376433"><ele>7.0</ele><time>2026-05-01T15:00:58.35Z</time></trkpt><trkpt lat="44.1667633" lon="8.3375967"><ele>6.0</ele><time>2026-05-01T15:00:59.349Z</time></trkpt><trkpt lat="44.1666367" lon="8.3375583"><ele>5.8</ele><time>2026-05-01T15:01:00.352Z</time></trkpt><trkpt lat="44.16652" lon="8.3375267"><ele>5.6</ele><time>2026-05-01T15:01:01.352Z</time></trkpt><trkpt lat="44.1664217" lon="8.33751"><ele>5.4</ele><time>2026-05-01T15:01:02.355Z</time></trkpt><trkpt lat="44.1663417" lon="8.33751"><ele>5.2</ele><time>2026-05-01T15:01:03.355Z</time></trkpt><trkpt lat="44.1662617" lon="8.3375667"><ele>5.0</ele><time>2026-05-01T15:01:05.351Z</time></trkpt><trkpt lat="44.16624" lon="8.3377017"><ele>5.0</ele><time>2026-05-01T15:01:08.351Z</time></trkpt><trkpt lat="44.1663117" lon="8.33786"><ele>5.0</ele><time>2026-05-01T15:01:10.349Z</time></trkpt><trkpt lat="44.1663717" lon="8.3379467"><ele>5.0</ele><time>2026-05-01T15:01:11.35Z</time></trkpt><trkpt lat="44.1664317" lon="8.338035"><ele>5.0</ele><time>2026-05-01T15:01:12.353Z</time></trkpt><trkpt lat="44.16649" lon="8.33813"><ele>5.0</ele><time>2026-05-01T15:01:13.352Z</time></trkpt><trkpt lat="44.1665467" lon="8.338225"><ele>5.0</ele><time>2026-05-01T15:01:14.358Z</time></trkpt><trkpt lat="44.166605" lon="8.3383183"><ele>5.0</ele><time>2026-05-01T15:01:15.354Z</time></trkpt><trkpt lat="44.1666667" lon="8.3384133"><ele>5.0</ele><time>2026-05-01T15:01:16.352Z</time></trkpt><trkpt lat="44.16673" lon="8.3385117"><ele>5.0</ele><time>2026-05-01T15:01:17.352Z</time></trkpt><trkpt lat="44.1667967" lon="8.3386133"><ele>5.0</ele><time>2026-05-01T15:01:18.351Z</time></trkpt><trkpt lat="44.1668633" lon="8.3387083"><ele>5.0</ele><time>2026-05-01T15:01:19.352Z</time></trkpt><trkpt lat="44.16693" lon="8.3388017"><ele>5.0</ele><time>2026-05-01T15:01:20.352Z</time></trkpt><trkpt lat="44.167" lon="8.3388967"><ele>5.0</ele><time>2026-05-01T15:01:21.353Z</time></trkpt><trkpt lat="44.1670733" lon="8.3389933"><ele>5.0</ele><time>2026-05-01T15:01:22.352Z</time></trkpt><trkpt lat="44.16715" lon="8.3390867"><ele>5.0</ele><time>2026-05-01T15:01:23.361Z</time></trkpt><trkpt lat="44.167225" lon="8.3391767"><ele>5.0</ele><time>2026-05-01T15:01:24.354Z</time></trkpt><trkpt lat="44.1673" lon="8.3392717"><ele>5.0</ele><time>2026-05-01T15:01:25.356Z</time></trkpt><trkpt lat="44.1673767" lon="8.3393567"><ele>5.0</ele><time>2026-05-01T15:01:26.352Z</time></trkpt><trkpt lat="44.1674517" lon="8.3394417"><ele>5.0</ele><time>2026-05-01T15:01:27.352Z</time></trkpt><trkpt lat="44.1675217" lon="8.3395233"><ele>5.0</ele><time>2026-05-01T15:01:28.352Z</time></trkpt><trkpt lat="44.16759" lon="8.3396"><ele>5.0</ele><time>2026-05-01T15:01:29.352Z</time></trkpt><trkpt lat="44.167655" lon="8.3396767"><ele>5.0</ele><time>2026-05-01T15:01:30.353Z</time></trkpt><trkpt lat="44.1677183" lon="8.33975"><ele>5.0</ele><time>2026-05-01T15:01:31.352Z</time></trkpt><trkpt lat="44.1677783" lon="8.3398183"><ele>5.0</ele><time>2026-05-01T15:01:32.354Z</time></trkpt><trkpt lat="44.1678383" lon="8.339885"><ele>5.0</ele><time>2026-05-01T15:01:33.352Z</time></trkpt><trkpt lat="44.1678933" lon="8.3399417"><ele>5.0</ele><time>2026-05-01T15:01:34.351Z</time></trkpt><trkpt lat="44.1679917" lon="8.3400333"><ele>5.0</ele><time>2026-05-01T15:01:36.349Z</time></trkpt><trkpt lat="44.1680917" lon="8.3401417"><ele>5.0</ele><time>2026-05-01T15:01:38.348Z</time></trkpt><trkpt lat="44.16814" lon="8.3402"><ele>5.0</ele><time>2026-05-01T15:01:39.352Z</time></trkpt><trkpt lat="44.1682167" lon="8.340305"><ele>5.0</ele><time>2026-05-01T15:01:41.352Z</time></trkpt><trkpt lat="44.16827" lon="8.340395"><ele>5.0</ele><time>2026-05-01T15:01:43.351Z</time></trkpt><trkpt lat="44.1683283" lon="8.34048"><ele>5.166666666666667</ele><time>2026-05-01T15:01:46.356Z</time></trkpt><trkpt lat="44.1683867" lon="8.3405567"><ele>5.333333333333334</ele><time>2026-05-01T15:01:48.353Z</time></trkpt><trkpt lat="44.168465" lon="8.3406583"><ele>5.5</ele><time>2026-05-01T15:01:58.348Z</time></trkpt><trkpt lat="44.1685067" lon="8.340735"><ele>5.666666666666667</ele><time>2026-05-01T15:02:01.351Z</time></trkpt><trkpt lat="44.1685333" lon="8.3408217"><ele>5.833333333333333</ele><time>2026-05-01T15:02:05.354Z</time></trkpt><trkpt lat="44.1685883" lon="8.3409017"><ele>6.0</ele><time>2026-05-01T15:02:16.353Z</time></trkpt><trkpt lat="44.1686033" lon="8.3409967"><ele>6.0</ele><time>2026-05-01T15:02:21.351Z</time></trkpt><trkpt lat="44.16865" lon="8.341075"><ele>6.0</ele><time>2026-05-01T15:02:25.354Z</time></trkpt><trkpt lat="44.1687267" lon="8.34113"><ele>6.0</ele><time>2026-05-01T15:02:29.355Z</time></trkpt><trkpt lat="44.168795" lon="8.34121"><ele>6.0</ele><time>2026-05-01T15:02:32.355Z</time></trkpt><trkpt lat="44.1688617" lon="8.3412967"><ele>6.0</ele><time>2026-05-01T15:02:34.354Z</time></trkpt><trkpt lat="44.1689067" lon="8.3413667"><ele>6.0</ele><time>2026-05-01T15:02:35.353Z</time></trkpt><trkpt lat="44.1689567" lon="8.3414517"><ele>6.166666666666667</ele><time>2026-05-01T15:02:36.354Z</time></trkpt><trkpt lat="44.1690167" lon="8.3415467"><ele>6.333333333333334</ele><time>2026-05-01T15:02:37.354Z</time></trkpt><trkpt lat="44.1690817" lon="8.34164"><ele>6.5</ele><time>2026-05-01T15:02:38.355Z</time></trkpt><trkpt lat="44.1691367" lon="8.3417267"><ele>6.666666666666667</ele><time>2026-05-01T15:02:39.357Z</time></trkpt><trkpt lat="44.1691817" lon="8.3418133"><ele>6.833333333333334</ele><time>2026-05-01T15:02:40.355Z</time></trkpt><trkpt lat="44.1692233" lon="8.34189"><ele>7.0</ele><time>2026-05-01T15:02:41.354Z</time></trkpt><trkpt lat="44.1692817" lon="8.3420117"><ele>7.166666666666667</ele><time>2026-05-01T15:02:43.353Z</time></trkpt><trkpt lat="44.16933" lon="8.3421167"><ele>7.333333333333334</ele><time>2026-05-01T15:02:45.354Z</time></trkpt><trkpt lat="44.1693733" lon="8.342205"><ele>7.5</ele><time>2026-05-01T15:02:47.355Z</time></trkpt><trkpt lat="44.16942" lon="8.3423"><ele>7.666666666666666</ele><time>2026-05-01T15:02:49.356Z</time></trkpt><trkpt lat="44.16947" lon="8.3424167"><ele>7.833333333333333</ele><time>2026-05-01T15:02:51.357Z</time></trkpt><trkpt lat="44.1695133" lon="8.342505"><ele>8.0</ele><time>2026-05-01T15:02:53.355Z</time></trkpt><trkpt lat="44.1695483" lon="8.342605"><ele>8.5</ele><time>2026-05-01T15:02:56.354Z</time></trkpt><trkpt lat="44.16958" lon="8.3426867"><ele>9.0</ele><time>2026-05-01T15:02:59.354Z</time></trkpt><trkpt lat="44.16964" lon="8.3427967"><ele>9.5</ele><time>2026-05-01T15:03:02.35Z</time></trkpt><trkpt lat="44.1696867" lon="8.342885"><ele>10.0</ele><time>2026-05-01T15:03:04.354Z</time></trkpt><trkpt lat="44.1697233" lon="8.3429633"><ele>10.5</ele><time>2026-05-01T15:03:06.351Z</time></trkpt><trkpt lat="44.169765" lon="8.3430567"><ele>11.0</ele><time>2026-05-01T15:03:08.355Z</time></trkpt><trkpt lat="44.1698" lon="8.3431383"><ele>11.142857142857142</ele><time>2026-05-01T15:03:10.353Z</time></trkpt><trkpt lat="44.169845" lon="8.343225"><ele>11.285714285714285</ele><time>2026-05-01T15:03:12.355Z</time></trkpt><trkpt lat="44.169885" lon="8.3433033"><ele>11.428571428571427</ele><time>2026-05-01T15:03:14.355Z</time></trkpt><trkpt lat="44.1699317" lon="8.34339"><ele>11.571428571428571</ele><time>2026-05-01T15:03:17.354Z</time></trkpt><trkpt lat="44.1699667" lon="8.3434633"><ele>11.714285714285714</ele><time>2026-05-01T15:03:20.355Z</time></trkpt><trkpt lat="44.1699983" lon="8.3435417"><ele>11.857142857142856</ele><time>2026-05-01T15:03:24.355Z</time></trkpt><trkpt lat="44.17005" lon="8.3436233"><ele>12.0</ele><time>2026-05-01T15:03:28.354Z</time></trkpt><trkpt lat="44.1701117" lon="8.3437283"><ele>12.166666666666666</ele><time>2026-05-01T15:03:38.356Z</time></trkpt><trkpt lat="44.1701467" lon="8.3438067"><ele>12.333333333333332</ele><time>2026-05-01T15:03:39.355Z</time></trkpt><trkpt lat="44.1701917" lon="8.3438967"><ele>12.5</ele><time>2026-05-01T15:03:40.352Z</time></trkpt><trkpt lat="44.17024" lon="8.3439917"><ele>12.666666666666666</ele><time>2026-05-01T15:03:41.355Z</time></trkpt><trkpt lat="44.170285" lon="8.3441"><ele>12.833333333333332</ele><time>2026-05-01T15:03:42.354Z</time></trkpt><trkpt lat="44.1703283" lon="8.3442067"><ele>13.0</ele><time>2026-05-01T15:03:43.357Z</time></trkpt><trkpt lat="44.170365" lon="8.344305"><ele>13.0</ele><time>2026-05-01T15:03:44.355Z</time></trkpt><trkpt lat="44.1704033" lon="8.3444"><ele>13.0</ele><time>2026-05-01T15:03:45.355Z</time></trkpt><trkpt lat="44.1704283" lon="8.3445033"><ele>13.0</ele><time>2026-05-01T15:03:46.352Z</time></trkpt><trkpt lat="44.17048" lon="8.3446317"><ele>13.0</ele><time>2026-05-01T15:03:48.356Z</time></trkpt><trkpt lat="44.1705167" lon="8.3447717"><ele>13.0</ele><time>2026-05-01T15:03:50.354Z</time></trkpt><trkpt lat="44.170545" lon="8.3449417"><ele>13.0</ele><time>2026-05-01T15:03:52.357Z</time></trkpt><trkpt lat="44.1705633" lon="8.34504"><ele>13.0</ele><time>2026-05-01T15:03:53.352Z</time></trkpt><trkpt lat="44.17057" lon="8.3451433"><ele>13.0</ele><time>2026-05-01T15:03:54.357Z</time></trkpt><trkpt lat="44.1705767" lon="8.3452483"><ele>13.0</ele><time>2026-05-01T15:03:55.355Z</time></trkpt><trkpt lat="44.1705867" lon="8.3453467"><ele>13.0</ele><time>2026-05-01T15:03:56.355Z</time></trkpt><trkpt lat="44.170595" lon="8.3454383"><ele>13.0</ele><time>2026-05-01T15:03:57.357Z</time></trkpt><trkpt lat="44.1706083" lon="8.345525"><ele>13.0</ele><time>2026-05-01T15:03:58.355Z</time></trkpt><trkpt lat="44.1706267" lon="8.34561"><ele>12.833333333333332</ele><time>2026-05-01T15:03:59.353Z</time></trkpt><trkpt lat="44.1706367" lon="8.34571"><ele>12.666666666666666</ele><time>2026-05-01T15:04:00.356Z</time></trkpt><trkpt lat="44.17065" lon="8.345805"><ele>12.5</ele><time>2026-05-01T15:04:01.351Z</time></trkpt><trkpt lat="44.17066" lon="8.345895"><ele>12.333333333333332</ele><time>2026-05-01T15:04:02.353Z</time></trkpt><trkpt lat="44.170665" lon="8.345985"><ele>12.166666666666666</ele><time>2026-05-01T15:04:03.349Z</time></trkpt><trkpt lat="44.17065" lon="8.3461567"><ele>12.0</ele><time>2026-05-01T15:04:05.352Z</time></trkpt><trkpt lat="44.1706317" lon="8.3463033"><ele>12.0</ele><time>2026-05-01T15:04:07.355Z</time></trkpt><trkpt lat="44.1706233" lon="8.3464517"><ele>12.0</ele><time>2026-05-01T15:04:09.358Z</time></trkpt><trkpt lat="44.1706083" lon="8.346585"><ele>12.0</ele><time>2026-05-01T15:04:11.355Z</time></trkpt><trkpt lat="44.1706033" lon="8.3467017"><ele>12.0</ele><time>2026-05-01T15:04:13.357Z</time></trkpt><trkpt lat="44.17063" lon="8.3468367"><ele>12.0</ele><time>2026-05-01T15:04:15.352Z</time></trkpt><trkpt lat="44.1706283" lon="8.3469417"><ele>12.0</ele><time>2026-05-01T15:04:17.353Z</time></trkpt><trkpt lat="44.170615" lon="8.34705"><ele>12.0</ele><time>2026-05-01T15:04:27.354Z</time></trkpt><trkpt lat="44.1706117" lon="8.347215"><ele>12.0</ele><time>2026-05-01T15:04:29.357Z</time></trkpt><trkpt lat="44.170605" lon="8.3473133"><ele>12.0</ele><time>2026-05-01T15:04:30.354Z</time></trkpt><trkpt lat="44.1706133" lon="8.3474217"><ele>12.0</ele><time>2026-05-01T15:04:31.357Z</time></trkpt><trkpt lat="44.1706217" lon="8.3475483"><ele>12.0</ele><time>2026-05-01T15:04:32.354Z</time></trkpt><trkpt lat="44.1706333" lon="8.3476733"><ele>12.2</ele><time>2026-05-01T15:04:33.352Z</time></trkpt><trkpt lat="44.1706433" lon="8.3477983"><ele>12.399999999999999</ele><time>2026-05-01T15:04:34.352Z</time></trkpt><trkpt lat="44.1706517" lon="8.3479217"><ele>12.600000000000001</ele><time>2026-05-01T15:04:35.352Z</time></trkpt><trkpt lat="44.1706617" lon="8.348055"><ele>12.8</ele><time>2026-05-01T15:04:36.352Z</time></trkpt><trkpt lat="44.1706733" lon="8.3481883"><ele>13.0</ele><time>2026-05-01T15:04:37.348Z</time></trkpt><trkpt lat="44.1706817" lon="8.3483167"><ele>13.0</ele><time>2026-05-01T15:04:38.353Z</time></trkpt><trkpt lat="44.1706883" lon="8.3484417"><ele>13.0</ele><time>2026-05-01T15:04:39.354Z</time></trkpt><trkpt lat="44.1706917" lon="8.3485733"><ele>13.0</ele><time>2026-05-01T15:04:40.354Z</time></trkpt><trkpt lat="44.1706867" lon="8.3487033"><ele>13.0</ele><time>2026-05-01T15:04:41.353Z</time></trkpt><trkpt lat="44.17067" lon="8.3488333"><ele>13.0</ele><time>2026-05-01T15:04:42.349Z</time></trkpt><trkpt lat="44.170635" lon="8.3489617"><ele>12.4</ele><time>2026-05-01T15:04:43.353Z</time></trkpt><trkpt lat="44.1705833" lon="8.3490883"><ele>11.8</ele><time>2026-05-01T15:04:44.353Z</time></trkpt><trkpt lat="44.1705283" lon="8.3492117"><ele>11.2</ele><time>2026-05-01T15:04:45.356Z</time></trkpt><trkpt lat="44.1704817" lon="8.3493367"><ele>10.6</ele><time>2026-05-01T15:04:46.352Z</time></trkpt><trkpt lat="44.17044" lon="8.3494567"><ele>10.0</ele><time>2026-05-01T15:04:47.352Z</time></trkpt><trkpt lat="44.1703983" lon="8.34957"><ele>10.0</ele><time>2026-05-01T15:04:48.353Z</time></trkpt><trkpt lat="44.1703617" lon="8.3496817"><ele>10.0</ele><time>2026-05-01T15:04:49.356Z</time></trkpt><trkpt lat="44.1703367" lon="8.3497917"><ele>10.0</ele><time>2026-05-01T15:04:50.354Z</time></trkpt><trkpt lat="44.1703283" lon="8.349895"><ele>10.0</ele><time>2026-05-01T15:04:51.358Z</time></trkpt><trkpt lat="44.170335" lon="8.35001"><ele>10.0</ele><time>2026-05-01T15:04:52.357Z</time></trkpt><trkpt lat="44.170355" lon="8.35013"><ele>10.0</ele><time>2026-05-01T15:04:53.354Z</time></trkpt><trkpt lat="44.1703767" lon="8.350245"><ele>9.333333333333334</ele><time>2026-05-01T15:04:54.355Z</time></trkpt><trkpt lat="44.1703967" lon="8.350365"><ele>8.666666666666668</ele><time>2026-05-01T15:04:55.355Z</time></trkpt><trkpt lat="44.17041" lon="8.350485"><ele>8.0</ele><time>2026-05-01T15:04:56.352Z</time></trkpt><trkpt lat="44.170415" lon="8.350595"><ele>7.333333333333334</ele><time>2026-05-01T15:04:57.351Z</time></trkpt><trkpt lat="44.17042" lon="8.3506983"><ele>6.666666666666667</ele><time>2026-05-01T15:04:58.353Z</time></trkpt><trkpt lat="44.1704217" lon="8.3507933"><ele>6.0</ele><time>2026-05-01T15:04:59.352Z</time></trkpt><trkpt lat="44.1704283" lon="8.3509467"><ele>4.0</ele><time>2026-05-01T15:05:01.353Z</time></trkpt><trkpt lat="44.170445" lon="8.3510533"><ele>4.0</ele><time>2026-05-01T15:05:03.354Z</time></trkpt><trkpt lat="44.1704667" lon="8.3511433"><ele>4.0</ele><time>2026-05-01T15:05:05.354Z</time></trkpt><trkpt lat="44.1705367" lon="8.3512333"><ele>4.0</ele><time>2026-05-01T15:05:11.353Z</time></trkpt><trkpt lat="44.1705367" lon="8.3512333"><ele>4.0</ele><time>2026-05-01T15:05:11.353Z</time></trkpt></trkseg></trk></gpx>